<?xml version='1.0' encoding='UTF-8'?><gpx version="1.1" creator="JPX - https://github.com/jenetics/jpx" xmlns="http://www.topografix.com/GPX/1/1"><trk><trkseg><trkpt lat="43.69973115721924" lon="10.742252445803429"><ele>18.0</ele><time>2026-05-02T07:19:42.999Z</time></trkpt><trkpt lat="43.69967907291885" lon="10.742170591355602"><ele>18.0</ele><time>2026-05-02T07:19:45.999Z</time></trkpt><trkpt lat="43.69966821486873" lon="10.74207850777496"><ele>18.0</ele><time>2026-05-02T07:19:46.999Z</time></trkpt><trkpt lat="43.6996629348545" lon="10.741958170812985"><ele>18.0</ele><time>2026-05-02T07:19:47.999Z</time></trkpt><trkpt lat="43.69964074021432" lon="10.74187418221768"><ele>18.0</ele><time>2026-05-02T07:19:48.999Z</time></trkpt><trkpt lat="43.69960561095088" lon="10.741767239053074"><ele>18.0</ele><time>2026-05-02T07:19:50.999Z</time></trkpt><trkpt lat="43.69952794111364" lon="10.741672569334108"><ele>17.833333333333332</ele><time>2026-05-02T07:20:04Z</time></trkpt><trkpt lat="43.69944402790013" lon="10.74165092242854"><ele>17.666666666666668</ele><time>2026-05-02T07:20:05Z</time></trkpt><trkpt lat="43.69935542276121" lon="10.741661901964276"><ele>17.5</ele><time>2026-05-02T07:20:06Z</time></trkpt><trkpt lat="43.69926751128388" lon="10.74168845274652"><ele>17.333333333333336</ele><time>2026-05-02T07:20:07Z</time></trkpt><trkpt lat="43.69917948458029" lon="10.74168813208543"><ele>17.166666666666668</ele><time>2026-05-02T07:20:08Z</time></trkpt><trkpt lat="43.69910312841206" lon="10.741636302062219"><ele>17.0</ele><time>2026-05-02T07:20:09Z</time></trkpt><trkpt lat="43.69905444864162" lon="10.741537650775536"><ele>17.0</ele><time>2026-05-02T07:20:10Z</time></trkpt><trkpt lat="43.69902984005117" lon="10.741406291479315"><ele>17.0</ele><time>2026-05-02T07:20:11Z</time></trkpt><trkpt lat="43.6990283440797" lon="10.741255557492142"><ele>17.0</ele><time>2026-05-02T07:20:12Z</time></trkpt><trkpt lat="43.699031685067624" lon="10.741110901920985"><ele>17.0</ele><time>2026-05-02T07:20:13Z</time></trkpt><trkpt lat="43.6990222783989" lon="10.740955235160389"><ele>17.0</ele><time>2026-05-02T07:20:14Z</time></trkpt><trkpt lat="43.6990087716388" lon="10.740789953606916"><ele>17.0</ele><time>2026-05-02T07:20:15Z</time></trkpt><trkpt lat="43.69899790199844" lon="10.740623352391308"><ele>17.0</ele><time>2026-05-02T07:20:16Z</time></trkpt><trkpt lat="43.698987585776216" lon="10.740473764468875"><ele>17.0</ele><time>2026-05-02T07:20:17Z</time></trkpt><trkpt lat="43.698978582336196" lon="10.740342051139093"><ele>17.0</ele><time>2026-05-02T07:20:18Z</time></trkpt><trkpt lat="43.69897010226817" lon="10.740219465084687"><ele>17.0</ele><time>2026-05-02T07:20:19Z</time></trkpt><trkpt lat="43.698963126972544" lon="10.74010910276487"><ele>16.999999999999996</ele><time>2026-05-02T07:20:20Z</time></trkpt><trkpt lat="43.698954687463996" lon="10.740015936855425"><ele>17.0</ele><time>2026-05-02T07:20:21Z</time></trkpt><trkpt lat="43.69894876176184" lon="10.739927647787196"><ele>17.0</ele><time>2026-05-02T07:20:22Z</time></trkpt><trkpt lat="43.69894020172461" lon="10.739827046419622"><ele>17.0</ele><time>2026-05-02T07:20:23Z</time></trkpt><trkpt lat="43.698932439525265" lon="10.739724140390114"><ele>17.0</ele><time>2026-05-02T07:20:24Z</time></trkpt><trkpt lat="43.69892698412691" lon="10.739623700277145"><ele>16.999999999999996</ele><time>2026-05-02T07:20:25Z</time></trkpt><trkpt lat="43.69892239856763" lon="10.739526449399548"><ele>17.0</ele><time>2026-05-02T07:20:26Z</time></trkpt><trkpt lat="43.698920088538785" lon="10.7394328803324"><ele>17.0</ele><time>2026-05-02T07:20:27Z</time></trkpt><trkpt lat="43.698915251070034" lon="10.739323738120381"><ele>17.0</ele><time>2026-05-02T07:20:28Z</time></trkpt><trkpt lat="43.69890654395936" lon="10.739203957924202"><ele>17.0</ele><time>2026-05-02T07:20:29Z</time></trkpt><trkpt lat="43.69889835330834" lon="10.739071486572064"><ele>17.0</ele><time>2026-05-02T07:20:30Z</time></trkpt><trkpt lat="43.6988885879048" lon="10.738936256692048"><ele>17.0</ele><time>2026-05-02T07:20:31Z</time></trkpt><trkpt lat="43.698875075220045" lon="10.738793532257532"><ele>17.0</ele><time>2026-05-02T07:20:32Z</time></trkpt><trkpt lat="43.69886332697553" lon="10.738648157028223"><ele>17.0</ele><time>2026-05-02T07:20:33Z</time></trkpt><trkpt lat="43.69885794782264" lon="10.738513511947238"><ele>17.0</ele><time>2026-05-02T07:20:34Z</time></trkpt><trkpt lat="43.69884999864126" lon="10.738387588099002"><ele>17.0</ele><time>2026-05-02T07:20:35Z</time></trkpt><trkpt lat="43.69884047898054" lon="10.73825224554113"><ele>17.0</ele><time>2026-05-02T07:20:36Z</time></trkpt><trkpt lat="43.698830700457236" lon="10.738113477611826"><ele>16.75</ele><time>2026-05-02T07:20:37Z</time></trkpt><trkpt lat="43.69882456497272" lon="10.737966144752317"><ele>16.5</ele><time>2026-05-02T07:20:38Z</time></trkpt><trkpt lat="43.69881501107467" lon="10.737797296884354"><ele>16.25</ele><time>2026-05-02T07:20:39Z</time></trkpt><trkpt lat="43.698799910880005" lon="10.737609467979883"><ele>16.0</ele><time>2026-05-02T07:20:40Z</time></trkpt><trkpt lat="43.698788840988044" lon="10.737420092154746"><ele>16.666666666666664</ele><time>2026-05-02T07:20:41Z</time></trkpt><trkpt lat="43.69877687398956" lon="10.737224755867052"><ele>17.333333333333332</ele><time>2026-05-02T07:20:42Z</time></trkpt><trkpt lat="43.69876074421772" lon="10.737007303070142"><ele>18.0</ele><time>2026-05-02T07:20:43Z</time></trkpt><trkpt lat="43.6987461252017" lon="10.73679015522156"><ele>18.0</ele><time>2026-05-02T07:20:44Z</time></trkpt><trkpt lat="43.698731426093744" lon="10.736572001395007"><ele>18.0</ele><time>2026-05-02T07:20:45Z</time></trkpt><trkpt lat="43.69871723016982" lon="10.736353857217923"><ele>18.0</ele><time>2026-05-02T07:20:46Z</time></trkpt><trkpt lat="43.69870409288914" lon="10.736145127982683"><ele>18.0</ele><time>2026-05-02T07:20:47Z</time></trkpt><trkpt lat="43.698693977111624" lon="10.735953522050979"><ele>18.0</ele><time>2026-05-02T07:20:48Z</time></trkpt><trkpt lat="43.698686287659264" lon="10.735788111176689"><ele>18.0</ele><time>2026-05-02T07:20:49Z</time></trkpt><trkpt lat="43.69868027537931" lon="10.7356371657864"><ele>18.0</ele><time>2026-05-02T07:20:50Z</time></trkpt><trkpt lat="43.69867311670428" lon="10.735492986479837"><ele>18.0</ele><time>2026-05-02T07:20:51Z</time></trkpt><trkpt lat="43.6986680856578" lon="10.735368240959525"><ele>18.0</ele><time>2026-05-02T07:20:52Z</time></trkpt><trkpt lat="43.69866217348659" lon="10.735267357989262"><ele>18.0</ele><time>2026-05-02T07:20:53Z</time></trkpt><trkpt lat="43.69865394478064" lon="10.735163669432598"><ele>18.0</ele><time>2026-05-02T07:20:54Z</time></trkpt><trkpt lat="43.69864406031427" lon="10.735025563217215"><ele>18.0</ele><time>2026-05-02T07:20:55Z</time></trkpt><trkpt lat="43.69862505310886" lon="10.734863072338442"><ele>18.5</ele><time>2026-05-02T07:20:56Z</time></trkpt><trkpt lat="43.69860853325776" lon="10.734676069331156"><ele>19.0</ele><time>2026-05-02T07:20:57Z</time></trkpt><trkpt lat="43.698601460427454" lon="10.734492725924373"><ele>19.5</ele><time>2026-05-02T07:20:58Z</time></trkpt><trkpt lat="43.69859149852865" lon="10.734292957901177"><ele>20.0</ele><time>2026-05-02T07:20:59Z</time></trkpt><trkpt lat="43.69858122591753" lon="10.734087847872228"><ele>20.0</ele><time>2026-05-02T07:21:00Z</time></trkpt><trkpt lat="43.69856734105882" lon="10.733875716487686"><ele>20.0</ele><time>2026-05-02T07:21:01Z</time></trkpt><trkpt lat="43.698556155048585" lon="10.733656702589"><ele>20.0</ele><time>2026-05-02T07:21:02Z</time></trkpt><trkpt lat="43.698543219472135" lon="10.733436934870362"><ele>19.0</ele><time>2026-05-02T07:21:03Z</time></trkpt><trkpt lat="43.69853009868005" lon="10.733208592971232"><ele>18.0</ele><time>2026-05-02T07:21:04Z</time></trkpt><trkpt lat="43.69851388676876" lon="10.732974844610837"><ele>17.0</ele><time>2026-05-02T07:21:05Z</time></trkpt><trkpt lat="43.69849908925781" lon="10.732751437033233"><ele>17.0</ele><time>2026-05-02T07:21:06Z</time></trkpt><trkpt lat="43.69848622635129" lon="10.732521223075855"><ele>17.0</ele><time>2026-05-02T07:21:07Z</time></trkpt><trkpt lat="43.69847250169944" lon="10.732294735498277"><ele>17.0</ele><time>2026-05-02T07:21:08Z</time></trkpt><trkpt lat="43.69845157486479" lon="10.732078492576772"><ele>17.0</ele><time>2026-05-02T07:21:09Z</time></trkpt><trkpt lat="43.698439832476396" lon="10.731840171566745"><ele>17.0</ele><time>2026-05-02T07:21:10Z</time></trkpt><trkpt lat="43.6984212741482" lon="10.731609014682054"><ele>17.0</ele><time>2026-05-02T07:21:11Z</time></trkpt><trkpt lat="43.69839574887407" lon="10.731375614892654"><ele>17.0</ele><time>2026-05-02T07:21:12Z</time></trkpt><trkpt lat="43.69838261070133" lon="10.731163298261372"><ele>17.0</ele><time>2026-05-02T07:21:13Z</time></trkpt><trkpt lat="43.698337346018604" lon="10.73092106004912"><ele>17.0</ele><time>2026-05-02T07:21:13.999Z</time></trkpt><trkpt lat="43.698300735897405" lon="10.730687888472572"><ele>16.666666666666668</ele><time>2026-05-02T07:21:14.999Z</time></trkpt><trkpt lat="43.69826696056628" lon="10.730451854216032"><ele>16.333333333333332</ele><time>2026-05-02T07:21:15.999Z</time></trkpt><trkpt lat="43.698233176792684" lon="10.73021576532612"><ele>16.0</ele><time>2026-05-02T07:21:16.999Z</time></trkpt><trkpt lat="43.6981976203157" lon="10.72997408712158"><ele>15.666666666666666</ele><time>2026-05-02T07:21:17.999Z</time></trkpt><trkpt lat="43.69816241371751" lon="10.729731011609882"><ele>15.333333333333332</ele><time>2026-05-02T07:21:18.999Z</time></trkpt><trkpt lat="43.69812443236347" lon="10.729481310800951"><ele>15.0</ele><time>2026-05-02T07:21:19.999Z</time></trkpt><trkpt lat="43.69808885308458" lon="10.729228096786347"><ele>15.0</ele><time>2026-05-02T07:21:20.999Z</time></trkpt><trkpt lat="43.69805196766909" lon="10.728971899356235"><ele>15.0</ele><time>2026-05-02T07:21:21.999Z</time></trkpt><trkpt lat="43.698013879885224" lon="10.72871285200249"><ele>15.0</ele><time>2026-05-02T07:21:22.999Z</time></trkpt><trkpt lat="43.697965160785515" lon="10.728479289200756"><ele>15.0</ele><time>2026-05-02T07:21:23.999Z</time></trkpt><trkpt lat="43.69793305463997" lon="10.728199062488567"><ele>15.0</ele><time>2026-05-02T07:21:24.999Z</time></trkpt><trkpt lat="43.697893640551925" lon="10.727926569329489"><ele>15.0</ele><time>2026-05-02T07:21:25.999Z</time></trkpt><trkpt lat="43.69785119400386" lon="10.727667142209722"><ele>15.0</ele><time>2026-05-02T07:21:26.999Z</time></trkpt><trkpt lat="43.69781584064873" lon="10.727431093425519"><ele>15.0</ele><time>2026-05-02T07:21:27.999Z</time></trkpt><trkpt lat="43.697790851415796" lon="10.727236078153968"><ele>15.0</ele><time>2026-05-02T07:21:28.999Z</time></trkpt><trkpt lat="43.697766120591815" lon="10.72707530998688"><ele>15.0</ele><time>2026-05-02T07:21:29.999Z</time></trkpt><trkpt lat="43.69774289725223" lon="10.726951296101335"><ele>15.0</ele><time>2026-05-02T07:21:30.999Z</time></trkpt><trkpt lat="43.697735833933876" lon="10.726847673498664"><ele>15.0</ele><time>2026-05-02T07:21:31.999Z</time></trkpt><trkpt lat="43.69768512821456" lon="10.726774862740628"><ele>15.0</ele><time>2026-05-02T07:21:32.999Z</time></trkpt><trkpt lat="43.69760557452508" lon="10.726712488303285"><ele>15.0</ele><time>2026-05-02T07:21:34.999Z</time></trkpt><trkpt lat="43.69756207693183" lon="10.726636753255638"><ele>15.0</ele><time>2026-05-02T07:21:36.999Z</time></trkpt><trkpt lat="43.69753858221443" lon="10.726540142013237"><ele>15.0</ele><time>2026-05-02T07:25:07Z</time></trkpt><trkpt lat="43.697516981188855" lon="10.726455443054695"><ele>15.0</ele><time>2026-05-02T07:25:09Z</time></trkpt><trkpt lat="43.69754851281942" lon="10.726336772714573"><ele>15.0</ele><time>2026-05-02T07:25:11Z</time></trkpt><trkpt lat="43.69765340093805" lon="10.726511427040151"><ele>15.0</ele><time>2026-05-02T07:25:18Z</time></trkpt><trkpt lat="43.697677660071804" lon="10.726680993097114"><ele>15.0</ele><time>2026-05-02T07:25:19Z</time></trkpt><trkpt lat="43.69770433588855" lon="10.726904574967543"><ele>15.0</ele><time>2026-05-02T07:25:20Z</time></trkpt><trkpt lat="43.697731950351205" lon="10.727160543072126"><ele>15.0</ele><time>2026-05-02T07:25:21Z</time></trkpt><trkpt lat="43.69778680673877" lon="10.727436464568456"><ele>15.0</ele><time>2026-05-02T07:25:22Z</time></trkpt><trkpt lat="43.697833847788964" lon="10.72771991345291"><ele>15.0</ele><time>2026-05-02T07:25:23Z</time></trkpt><trkpt lat="43.697872206333734" lon="10.727997156287879"><ele>15.0</ele><time>2026-05-02T07:25:24Z</time></trkpt><trkpt lat="43.69791121334437" lon="10.7282846384007"><ele>15.0</ele><time>2026-05-02T07:25:25Z</time></trkpt><trkpt lat="43.69795320055294" lon="10.72857551177451"><ele>15.0</ele><time>2026-05-02T07:25:26Z</time></trkpt><trkpt lat="43.69799604786328" lon="10.728874609907633"><ele>15.0</ele><time>2026-05-02T07:25:27Z</time></trkpt><trkpt lat="43.698039348018895" lon="10.729175251226824"><ele>15.0</ele><time>2026-05-02T07:25:28Z</time></trkpt><trkpt lat="43.69808538595541" lon="10.729474591443541"><ele>15.0</ele><time>2026-05-02T07:25:29Z</time></trkpt><trkpt lat="43.69813176804809" lon="10.729779725804029"><ele>15.0</ele><time>2026-05-02T07:25:30Z</time></trkpt><trkpt lat="43.6981796369737" lon="10.73007866552136"><ele>15.0</ele><time>2026-05-02T07:25:31Z</time></trkpt><trkpt lat="43.69822424652658" lon="10.730358431495539"><ele>15.333333333333332</ele><time>2026-05-02T07:25:31.999Z</time></trkpt><trkpt lat="43.6982656240579" lon="10.730623357856455"><ele>15.666666666666666</ele><time>2026-05-02T07:25:32.999Z</time></trkpt><trkpt lat="43.69830583911564" lon="10.730881790234811"><ele>16.0</ele><time>2026-05-02T07:25:33.999Z</time></trkpt><trkpt lat="43.698348952615454" lon="10.731125031682941"><ele>16.333333333333332</ele><time>2026-05-02T07:25:34.999Z</time></trkpt><trkpt lat="43.69838644037472" lon="10.731346567357052"><ele>16.666666666666668</ele><time>2026-05-02T07:25:35.999Z</time></trkpt><trkpt lat="43.69842505342185" lon="10.731661322563447"><ele>17.0</ele><time>2026-05-02T07:25:36.999Z</time></trkpt><trkpt lat="43.69844737406673" lon="10.731911850443653"><ele>17.0</ele><time>2026-05-02T07:25:37.999Z</time></trkpt><trkpt lat="43.698427161343965" lon="10.732145117993511"><ele>17.0</ele><time>2026-05-02T07:25:38.999Z</time></trkpt><trkpt lat="43.69844018823561" lon="10.732355963584196"><ele>17.0</ele><time>2026-05-02T07:25:39.999Z</time></trkpt><trkpt lat="43.69845299689359" lon="10.732563276958441"><ele>17.0</ele><time>2026-05-02T07:25:40.999Z</time></trkpt><trkpt lat="43.69846682316197" lon="10.732786984502614"><ele>17.0</ele><time>2026-05-02T07:25:41.999Z</time></trkpt><trkpt lat="43.69848160694658" lon="10.733029206443245"><ele>17.0</ele><time>2026-05-02T07:25:42.999Z</time></trkpt><trkpt lat="43.69849741713545" lon="10.733286714102986"><ele>17.0</ele><time>2026-05-02T07:25:43.999Z</time></trkpt><trkpt lat="43.69852748392175" lon="10.73355288456468"><ele>17.0</ele><time>2026-05-02T07:25:44.999Z</time></trkpt><trkpt lat="43.69854166169562" lon="10.733824423780616"><ele>17.0</ele><time>2026-05-02T07:25:45.999Z</time></trkpt><trkpt lat="43.698558648047296" lon="10.734100143096208"><ele>17.333333333333336</ele><time>2026-05-02T07:25:46.999Z</time></trkpt><trkpt lat="43.698576981361676" lon="10.734378267877972"><ele>17.666666666666668</ele><time>2026-05-02T07:25:47.999Z</time></trkpt><trkpt lat="43.69858191333301" lon="10.73465776807296"><ele>18.0</ele><time>2026-05-02T07:25:48.999Z</time></trkpt><trkpt lat="43.69859972478968" lon="10.734938088932559"><ele>18.0</ele><time>2026-05-02T07:25:49.999Z</time></trkpt><trkpt lat="43.6986397880371" lon="10.73521772898171"><ele>18.0</ele><time>2026-05-02T07:25:50.999Z</time></trkpt><trkpt lat="43.69865384132823" lon="10.73550307642429"><ele>18.0</ele><time>2026-05-02T07:25:51.999Z</time></trkpt><trkpt lat="43.698667500815695" lon="10.73579201082967"><ele>18.0</ele><time>2026-05-02T07:25:52.999Z</time></trkpt><trkpt lat="43.69868449142973" lon="10.736080793902131"><ele>18.0</ele><time>2026-05-02T07:25:53.999Z</time></trkpt><trkpt lat="43.69870324073436" lon="10.73637068133744"><ele>18.0</ele><time>2026-05-02T07:25:54.999Z</time></trkpt><trkpt lat="43.69872044821904" lon="10.736648100973033"><ele>18.0</ele><time>2026-05-02T07:25:55.999Z</time></trkpt><trkpt lat="43.69873896234255" lon="10.736904564612091"><ele>18.0</ele><time>2026-05-02T07:25:56.999Z</time></trkpt><trkpt lat="43.698757834968355" lon="10.737169008381107"><ele>18.0</ele><time>2026-05-02T07:25:57.999Z</time></trkpt><trkpt lat="43.698760094620035" lon="10.737446736618153"><ele>17.333333333333332</ele><time>2026-05-02T07:25:58.999Z</time></trkpt><trkpt lat="43.69879405464357" lon="10.737723965017986"><ele>16.666666666666664</ele><time>2026-05-02T07:25:59.999Z</time></trkpt><trkpt lat="43.698811635214334" lon="10.738004012131242"><ele>16.0</ele><time>2026-05-02T07:26:00.999Z</time></trkpt><trkpt lat="43.69881255543075" lon="10.738286146631898"><ele>16.333333333333332</ele><time>2026-05-02T07:26:01.999Z</time></trkpt><trkpt lat="43.69883015547898" lon="10.738562679417134"><ele>16.666666666666668</ele><time>2026-05-02T07:26:02.999Z</time></trkpt><trkpt lat="43.69884584506862" lon="10.73881521124005"><ele>17.0</ele><time>2026-05-02T07:26:03.999Z</time></trkpt><trkpt lat="43.69885992333062" lon="10.73902967520622"><ele>17.0</ele><time>2026-05-02T07:26:04.999Z</time></trkpt><trkpt lat="43.69887042976041" lon="10.739193668477604"><ele>17.0</ele><time>2026-05-02T07:26:05.999Z</time></trkpt><trkpt lat="43.69887719742454" lon="10.739300737344028"><ele>17.0</ele><time>2026-05-02T07:26:06.999Z</time></trkpt><trkpt lat="43.69888271700259" lon="10.739388060660232"><ele>17.0</ele><time>2026-05-02T07:26:08.999Z</time></trkpt><trkpt lat="43.69888857010776" lon="10.739476565513256"><ele>17.0</ele><time>2026-05-02T07:26:11.999Z</time></trkpt><trkpt lat="43.69895422071595" lon="10.73963766319555"><ele>17.0</ele><time>2026-05-02T07:30:48Z</time></trkpt><trkpt lat="43.698957769714205" lon="10.73974902242762"><ele>17.0</ele><time>2026-05-02T07:30:50Z</time></trkpt><trkpt lat="43.698924397892654" lon="10.739858328722587"><ele>17.0</ele><time>2026-05-02T07:31:08Z</time></trkpt><trkpt lat="43.69891632654178" lon="10.73996288090066"><ele>17.0</ele><time>2026-05-02T07:31:09Z</time></trkpt><trkpt lat="43.69892541083354" lon="10.740090930302404"><ele>17.0</ele><time>2026-05-02T07:31:10Z</time></trkpt><trkpt lat="43.698937905365646" lon="10.74022487295724"><ele>17.0</ele><time>2026-05-02T07:31:11Z</time></trkpt><trkpt lat="43.69894704873271" lon="10.740349947140842"><ele>17.166666666666668</ele><time>2026-05-02T07:31:12Z</time></trkpt><trkpt lat="43.69895214717626" lon="10.740438983217379"><ele>17.333333333333336</ele><time>2026-05-02T07:31:13Z</time></trkpt><trkpt lat="43.69896148888739" lon="10.740528993028224"><ele>17.5</ele><time>2026-05-02T07:31:16Z</time></trkpt><trkpt lat="43.698972981600896" lon="10.740678704946681"><ele>17.666666666666668</ele><time>2026-05-02T07:31:30Z</time></trkpt><trkpt lat="43.698981697719354" lon="10.740831025649102"><ele>17.833333333333332</ele><time>2026-05-02T07:31:32Z</time></trkpt><trkpt lat="43.69899073407681" lon="10.740919297895578"><ele>18.0</ele><time>2026-05-02T07:31:33Z</time></trkpt><trkpt lat="43.69899949310942" lon="10.741009261395494"><ele>17.857142857142858</ele><time>2026-05-02T07:31:34Z</time></trkpt><trkpt lat="43.699007847751275" lon="10.741100410806677"><ele>17.714285714285715</ele><time>2026-05-02T07:31:35Z</time></trkpt><trkpt lat="43.699014827520074" lon="10.741192173287146"><ele>17.57142857142857</ele><time>2026-05-02T07:31:36Z</time></trkpt><trkpt lat="43.69901955053167" lon="10.741279382932525"><ele>17.42857142857143</ele><time>2026-05-02T07:31:36.999Z</time></trkpt><trkpt lat="43.69903027077542" lon="10.741415519328125"><ele>17.285714285714285</ele><time>2026-05-02T07:31:38.999Z</time></trkpt><trkpt lat="43.69901382636981" lon="10.741507343000082"><ele>17.142857142857142</ele><time>2026-05-02T07:31:41.999Z</time></trkpt><trkpt lat="43.69903369058687" lon="10.74159282292367"><ele>17.0</ele><time>2026-05-02T07:32:06.999Z</time></trkpt><trkpt lat="43.69904161552809" lon="10.741681257214672"><ele>17.0</ele><time>2026-05-02T07:32:07.999Z</time></trkpt><trkpt lat="43.699055714044654" lon="10.741792109509838"><ele>17.0</ele><time>2026-05-02T07:32:08.999Z</time></trkpt><trkpt lat="43.69905916537621" lon="10.741905799490949"><ele>17.0</ele><time>2026-05-02T07:32:09.999Z</time></trkpt><trkpt lat="43.699064375530156" lon="10.742044193963308"><ele>17.0</ele><time>2026-05-02T07:32:10.999Z</time></trkpt><trkpt lat="43.6990727501766" lon="10.742161273803138"><ele>17.0</ele><time>2026-05-02T07:32:11.999Z</time></trkpt><trkpt lat="43.69905503933073" lon="10.742255154500015"><ele>17.0</ele><time>2026-05-02T07:32:12.999Z</time></trkpt><trkpt lat="43.69903100661205" lon="10.742389837615956"><ele>17.25</ele><time>2026-05-02T07:32:13.999Z</time></trkpt><trkpt lat="43.69894495150729" lon="10.742487933925831"><ele>17.5</ele><time>2026-05-02T07:32:14.999Z</time></trkpt><trkpt lat="43.698817227028194" lon="10.742516055611961"><ele>17.75</ele><time>2026-05-02T07:32:15.999Z</time></trkpt><trkpt lat="43.698717056820605" lon="10.742605267738794"><ele>18.0</ele><time>2026-05-02T07:32:16.999Z</time></trkpt><trkpt lat="43.698629195644855" lon="10.742682218921342"><ele>18.2</ele><time>2026-05-02T07:32:17.999Z</time></trkpt><trkpt lat="43.69855330112784" lon="10.742763238940993"><ele>18.4</ele><time>2026-05-02T07:32:18.999Z</time></trkpt><trkpt lat="43.69848028704705" lon="10.7428278892959"><ele>18.599999999999998</ele><time>2026-05-02T07:32:19.999Z</time></trkpt><trkpt lat="43.69838969628583" lon="10.742890714844515"><ele>18.8</ele><time>2026-05-02T07:32:20.999Z</time></trkpt><trkpt lat="43.698305027831374" lon="10.743010742870226"><ele>19.0</ele><time>2026-05-02T07:32:21.999Z</time></trkpt><trkpt lat="43.69819055807915" lon="10.74311092849071"><ele>19.0</ele><time>2026-05-02T07:32:22.999Z</time></trkpt><trkpt lat="43.69806421077579" lon="10.743208320780806"><ele>19.0</ele><time>2026-05-02T07:32:23.999Z</time></trkpt><trkpt lat="43.69792747915288" lon="10.743320239663348"><ele>19.0</ele><time>2026-05-02T07:32:24.999Z</time></trkpt><trkpt lat="43.697785920430626" lon="10.743438816792363"><ele>18.666666666666664</ele><time>2026-05-02T07:32:25.999Z</time></trkpt><trkpt lat="43.69764286879497" lon="10.743553850835355"><ele>18.333333333333332</ele><time>2026-05-02T07:32:26.999Z</time></trkpt><trkpt lat="43.69750303248071" lon="10.743678369355408"><ele>18.0</ele><time>2026-05-02T07:32:27.999Z</time></trkpt><trkpt lat="43.69735912496063" lon="10.743807561483896"><ele>18.0</ele><time>2026-05-02T07:32:28.999Z</time></trkpt><trkpt lat="43.69721926803819" lon="10.743935647107023"><ele>18.0</ele><time>2026-05-02T07:32:29.999Z</time></trkpt><trkpt lat="43.6970868671772" lon="10.744052232299229"><ele>18.0</ele><time>2026-05-02T07:32:31.001Z</time></trkpt><trkpt lat="43.696954425026696" lon="10.744141718035774"><ele>18.333333333333332</ele><time>2026-05-02T07:32:32.001Z</time></trkpt><trkpt lat="43.69682753779329" lon="10.744252708237251"><ele>18.666666666666664</ele><time>2026-05-02T07:32:33.001Z</time></trkpt><trkpt lat="43.69669557239247" lon="10.744368214287832"><ele>19.0</ele><time>2026-05-02T07:32:34.001Z</time></trkpt><trkpt lat="43.69655741312892" lon="10.74448914167454"><ele>19.333333333333332</ele><time>2026-05-02T07:32:35.001Z</time></trkpt><trkpt lat="43.69642034973963" lon="10.744609109871291"><ele>19.666666666666668</ele><time>2026-05-02T07:32:36Z</time></trkpt><trkpt lat="43.69628301000059" lon="10.744752122796354"><ele>20.0</ele><time>2026-05-02T07:32:37Z</time></trkpt><trkpt lat="43.696139293496714" lon="10.74486996830729"><ele>20.0</ele><time>2026-05-02T07:32:38Z</time></trkpt><trkpt lat="43.69600615910394" lon="10.74499233759819"><ele>20.0</ele><time>2026-05-02T07:32:39Z</time></trkpt><trkpt lat="43.69585932807437" lon="10.745121361505406"><ele>20.0</ele><time>2026-05-02T07:32:40Z</time></trkpt><trkpt lat="43.695704568135895" lon="10.745243623262938"><ele>20.0</ele><time>2026-05-02T07:32:41Z</time></trkpt><trkpt lat="43.6955582496832" lon="10.745372440326092"><ele>20.0</ele><time>2026-05-02T07:32:42Z</time></trkpt><trkpt lat="43.69542164877899" lon="10.745488380563204"><ele>20.0</ele><time>2026-05-02T07:32:43Z</time></trkpt><trkpt lat="43.6953015055623" lon="10.745593579927018"><ele>19.8</ele><time>2026-05-02T07:32:44Z</time></trkpt><trkpt lat="43.6951939013186" lon="10.745687895605522"><ele>19.6</ele><time>2026-05-02T07:32:45Z</time></trkpt><trkpt lat="43.69510300482646" lon="10.745756430071719"><ele>19.4</ele><time>2026-05-02T07:32:46Z</time></trkpt><trkpt lat="43.695033650613674" lon="10.745829474759937"><ele>19.2</ele><time>2026-05-02T07:32:47Z</time></trkpt><trkpt lat="43.69499092236225" lon="10.7459505314601"><ele>19.0</ele><time>2026-05-02T07:32:48Z</time></trkpt><trkpt lat="43.69497177052956" lon="10.746116736536532"><ele>19.666666666666664</ele><time>2026-05-02T07:32:49Z</time></trkpt><trkpt lat="43.69497733711771" lon="10.746315401249833"><ele>20.333333333333332</ele><time>2026-05-02T07:32:50Z</time></trkpt><trkpt lat="43.69499268829782" lon="10.746543839201319"><ele>21.0</ele><time>2026-05-02T07:32:51Z</time></trkpt><trkpt lat="43.69498102392103" lon="10.746781359895094"><ele>20.666666666666668</ele><time>2026-05-02T07:32:52Z</time></trkpt><trkpt lat="43.69496374436109" lon="10.747019133291017"><ele>20.333333333333336</ele><time>2026-05-02T07:32:53Z</time></trkpt><trkpt lat="43.69495643950666" lon="10.747258692248307"><ele>20.0</ele><time>2026-05-02T07:32:54Z</time></trkpt><trkpt lat="43.694951436957425" lon="10.747496583489424"><ele>19.75</ele><time>2026-05-02T07:32:55Z</time></trkpt><trkpt lat="43.69494640527021" lon="10.747716542051021"><ele>19.5</ele><time>2026-05-02T07:32:56Z</time></trkpt><trkpt lat="43.69493573412459" lon="10.747913661395105"><ele>19.25</ele><time>2026-05-02T07:32:57Z</time></trkpt><trkpt lat="43.69493164113099" lon="10.748080982983398"><ele>19.0</ele><time>2026-05-02T07:32:58Z</time></trkpt><trkpt lat="43.694910894117484" lon="10.748203071322553"><ele>19.0</ele><time>2026-05-02T07:32:59Z</time></trkpt><trkpt lat="43.69488073153986" lon="10.748282258060446"><ele>19.0</ele><time>2026-05-02T07:33:01Z</time></trkpt><trkpt lat="43.69480515768483" lon="10.748411928280351"><ele>19.0</ele><time>2026-05-02T07:33:04Z</time></trkpt><trkpt lat="43.69475593243302" lon="10.748481641631736"><ele>19.0</ele><time>2026-05-02T07:33:05Z</time></trkpt><trkpt lat="43.69471251299474" lon="10.748563418697676"><ele>19.0</ele><time>2026-05-02T07:33:06Z</time></trkpt><trkpt lat="43.694621862615946" lon="10.7485321556634"><ele>19.0</ele><time>2026-05-02T07:33:07Z</time></trkpt><trkpt lat="43.69453322710214" lon="10.748533151868887"><ele>18.75</ele><time>2026-05-02T07:33:08Z</time></trkpt><trkpt lat="43.69443079665161" lon="10.748549718483249"><ele>18.5</ele><time>2026-05-02T07:33:09Z</time></trkpt><trkpt lat="43.6943120543921" lon="10.748541434671326"><ele>18.25</ele><time>2026-05-02T07:33:10Z</time></trkpt><trkpt lat="43.694191650601276" lon="10.74854153268977"><ele>18.0</ele><time>2026-05-02T07:33:11Z</time></trkpt><trkpt lat="43.6940665724906" lon="10.748540876661501"><ele>17.25</ele><time>2026-05-02T07:33:12Z</time></trkpt><trkpt lat="43.693930373100784" lon="10.748537274011225"><ele>16.5</ele><time>2026-05-02T07:33:13Z</time></trkpt><trkpt lat="43.693792714454915" lon="10.748538004937892"><ele>15.75</ele><time>2026-05-02T07:33:14Z</time></trkpt><trkpt lat="43.69365380697486" lon="10.748521822206108"><ele>15.0</ele><time>2026-05-02T07:33:15Z</time></trkpt><trkpt lat="43.69351912837686" lon="10.748528063577645"><ele>15.0</ele><time>2026-05-02T07:33:16Z</time></trkpt><trkpt lat="43.69339598203327" lon="10.748530052412768"><ele>15.0</ele><time>2026-05-02T07:33:17Z</time></trkpt><trkpt lat="43.693278325521476" lon="10.74852709035659"><ele>15.0</ele><time>2026-05-02T07:33:18Z</time></trkpt><trkpt lat="43.693150385028325" lon="10.748520616556092"><ele>15.0</ele><time>2026-05-02T07:33:19Z</time></trkpt><trkpt lat="43.69302128666897" lon="10.748517548822834"><ele>15.0</ele><time>2026-05-02T07:33:20Z</time></trkpt><trkpt lat="43.69288881216818" lon="10.748502070882745"><ele>15.0</ele><time>2026-05-02T07:33:21Z</time></trkpt><trkpt lat="43.69272789074645" lon="10.74850753158234"><ele>15.0</ele><time>2026-05-02T07:33:22Z</time></trkpt><trkpt lat="43.69256207539118" lon="10.748524614913704"><ele>17.0</ele><time>2026-05-02T07:33:23Z</time></trkpt><trkpt lat="43.69240783879464" lon="10.748549943681954"><ele>19.0</ele><time>2026-05-02T07:33:24Z</time></trkpt><trkpt lat="43.69225616246243" lon="10.748568718230166"><ele>21.0</ele><time>2026-05-02T07:33:25Z</time></trkpt><trkpt lat="43.692094187946175" lon="10.74858952982353"><ele>21.0</ele><time>2026-05-02T07:33:26Z</time></trkpt><trkpt lat="43.69192797100383" lon="10.748605234278136"><ele>21.0</ele><time>2026-05-02T07:33:27Z</time></trkpt><trkpt lat="43.69175858663556" lon="10.74862517859874"><ele>21.0</ele><time>2026-05-02T07:33:28Z</time></trkpt><trkpt lat="43.69158776409773" lon="10.748620387602138"><ele>21.0</ele><time>2026-05-02T07:33:29Z</time></trkpt><trkpt lat="43.69141702841014" lon="10.74863785870133"><ele>21.0</ele><time>2026-05-02T07:33:30Z</time></trkpt><trkpt lat="43.69123594711129" lon="10.748656388445974"><ele>21.0</ele><time>2026-05-02T07:33:31Z</time></trkpt><trkpt lat="43.69106410765624" lon="10.748672760986421"><ele>21.0</ele><time>2026-05-02T07:33:32Z</time></trkpt><trkpt lat="43.69089115218013" lon="10.74868917338449"><ele>21.0</ele><time>2026-05-02T07:33:33Z</time></trkpt><trkpt lat="43.690715355826725" lon="10.748706157049249"><ele>21.0</ele><time>2026-05-02T07:33:33.999Z</time></trkpt><trkpt lat="43.69053817299653" lon="10.748723274662174"><ele>21.0</ele><time>2026-05-02T07:33:34.999Z</time></trkpt><trkpt lat="43.69036727616702" lon="10.748740693452527"><ele>21.0</ele><time>2026-05-02T07:33:35.999Z</time></trkpt><trkpt lat="43.69019196095401" lon="10.748760310343757"><ele>21.0</ele><time>2026-05-02T07:33:36.999Z</time></trkpt><trkpt lat="43.69002612609842" lon="10.748784132241296"><ele>22.333333333333336</ele><time>2026-05-02T07:33:37.999Z</time></trkpt><trkpt lat="43.68986220460685" lon="10.748820578023274"><ele>23.666666666666668</ele><time>2026-05-02T07:33:38.999Z</time></trkpt><trkpt lat="43.68970383908398" lon="10.74886108507047"><ele>25.0</ele><time>2026-05-02T07:33:39.999Z</time></trkpt><trkpt lat="43.689552138949416" lon="10.748909003967182"><ele>27.0</ele><time>2026-05-02T07:33:40.999Z</time></trkpt><trkpt lat="43.689416748199285" lon="10.748980543157609"><ele>29.0</ele><time>2026-05-02T07:33:41.999Z</time></trkpt><trkpt lat="43.68930047120035" lon="10.749034962273496"><ele>31.0</ele><time>2026-05-02T07:33:42.999Z</time></trkpt><trkpt lat="43.6892018324518" lon="10.749098751035723"><ele>33.0</ele><time>2026-05-02T07:33:43.999Z</time></trkpt><trkpt lat="43.689129632807514" lon="10.749148373339368"><ele>33.0</ele><time>2026-05-02T07:33:44.999Z</time></trkpt><trkpt lat="43.68906254898686" lon="10.749145684865983"><ele>33.0</ele><time>2026-05-02T07:33:45.999Z</time></trkpt><trkpt lat="43.68895857846873" lon="10.748950783025242"><ele>33.0</ele><time>2026-05-02T07:33:47.999Z</time></trkpt><trkpt lat="43.68890979985597" lon="10.74879936709779"><ele>33.0</ele><time>2026-05-02T07:33:48.999Z</time></trkpt><trkpt lat="43.68888620646653" lon="10.748610342558095"><ele>32.666666666666664</ele><time>2026-05-02T07:33:49.999Z</time></trkpt><trkpt lat="43.68885345603448" lon="10.748405030321958"><ele>32.33333333333333</ele><time>2026-05-02T07:33:50.999Z</time></trkpt><trkpt lat="43.688812429676005" lon="10.748206911743143"><ele>32.0</ele><time>2026-05-02T07:33:51.999Z</time></trkpt><trkpt lat="43.68876904525208" lon="10.747987438929046"><ele>32.0</ele><time>2026-05-02T07:33:52.999Z</time></trkpt><trkpt lat="43.68872321357907" lon="10.747776985129267"><ele>32.0</ele><time>2026-05-02T07:33:53.999Z</time></trkpt><trkpt lat="43.688685152882094" lon="10.747573429556015"><ele>32.0</ele><time>2026-05-02T07:33:54.999Z</time></trkpt><trkpt lat="43.68864692142829" lon="10.747376717716254"><ele>32.0</ele><time>2026-05-02T07:33:55.999Z</time></trkpt><trkpt lat="43.68860843430093" lon="10.747190823595002"><ele>32.0</ele><time>2026-05-02T07:33:56.999Z</time></trkpt><trkpt lat="43.68857318956803" lon="10.747009611045458"><ele>32.0</ele><time>2026-05-02T07:33:57.999Z</time></trkpt><trkpt lat="43.68853341071072" lon="10.746822751936573"><ele>32.0</ele><time>2026-05-02T07:33:58.999Z</time></trkpt><trkpt lat="43.68849748946315" lon="10.746632157774435"><ele>31.75</ele><time>2026-05-02T07:33:59.999Z</time></trkpt><trkpt lat="43.68846387624258" lon="10.746433225004342"><ele>31.5</ele><time>2026-05-02T07:34:00.999Z</time></trkpt><trkpt lat="43.688429068424604" lon="10.746236051172417"><ele>31.25</ele><time>2026-05-02T07:34:01.999Z</time></trkpt><trkpt lat="43.688403817120125" lon="10.746046594895706"><ele>31.0</ele><time>2026-05-02T07:34:02.999Z</time></trkpt><trkpt lat="43.688404617249205" lon="10.745868204000727"><ele>31.0</ele><time>2026-05-02T07:34:03.999Z</time></trkpt><trkpt lat="43.68844338793977" lon="10.74569342412596"><ele>31.0</ele><time>2026-05-02T07:34:04.999Z</time></trkpt><trkpt lat="43.688502959105946" lon="10.745505750750025"><ele>31.0</ele><time>2026-05-02T07:34:05.999Z</time></trkpt><trkpt lat="43.68860143235525" lon="10.745297113246473"><ele>29.5</ele><time>2026-05-02T07:34:06.999Z</time></trkpt><trkpt lat="43.68870717415999" lon="10.745037258704883"><ele>28.0</ele><time>2026-05-02T07:34:07.999Z</time></trkpt><trkpt lat="43.68881575457966" lon="10.744735667975029"><ele>28.0</ele><time>2026-05-02T07:34:08.999Z</time></trkpt><trkpt lat="43.68892957512005" lon="10.74446717303015"><ele>28.0</ele><time>2026-05-02T07:34:09.999Z</time></trkpt><trkpt lat="43.68898591043464" lon="10.744190336675357"><ele>28.0</ele><time>2026-05-02T07:34:10.999Z</time></trkpt><trkpt lat="43.688994609263155" lon="10.743882599224056"><ele>25.0</ele><time>2026-05-02T07:34:11.999Z</time></trkpt><trkpt lat="43.68896837814968" lon="10.743564167457713"><ele>22.0</ele><time>2026-05-02T07:34:12.999Z</time></trkpt><trkpt lat="43.68891476276581" lon="10.743251618353504"><ele>22.0</ele><time>2026-05-02T07:34:13.999Z</time></trkpt><trkpt lat="43.688861428764575" lon="10.742949342698767"><ele>22.0</ele><time>2026-05-02T07:34:14.999Z</time></trkpt><trkpt lat="43.688807222465414" lon="10.74266517592403"><ele>22.0</ele><time>2026-05-02T07:34:15.999Z</time></trkpt><trkpt lat="43.68874133697337" lon="10.742397296723563"><ele>21.666666666666664</ele><time>2026-05-02T07:34:16.999Z</time></trkpt><trkpt lat="43.68865801117669" lon="10.742138501611215"><ele>21.333333333333332</ele><time>2026-05-02T07:34:17.999Z</time></trkpt><trkpt lat="43.68857500177175" lon="10.741879633967033"><ele>21.0</ele><time>2026-05-02T07:34:18.999Z</time></trkpt><trkpt lat="43.68849720517501" lon="10.74162450994256"><ele>20.666666666666668</ele><time>2026-05-02T07:34:19.999Z</time></trkpt><trkpt lat="43.68842028271833" lon="10.741377090255888"><ele>20.333333333333336</ele><time>2026-05-02T07:34:20.999Z</time></trkpt><trkpt lat="43.68834103948619" lon="10.741143447667007"><ele>20.0</ele><time>2026-05-02T07:34:21.999Z</time></trkpt><trkpt lat="43.68826101136645" lon="10.740906233198315"><ele>20.0</ele><time>2026-05-02T07:34:22.999Z</time></trkpt><trkpt lat="43.68815804619373" lon="10.740691334032883"><ele>20.0</ele><time>2026-05-02T07:34:23.999Z</time></trkpt><trkpt lat="43.68802281856181" lon="10.740495322061143"><ele>20.0</ele><time>2026-05-02T07:34:24.999Z</time></trkpt><trkpt lat="43.68789040564669" lon="10.740296247401167"><ele>20.0</ele><time>2026-05-02T07:34:25.999Z</time></trkpt><trkpt lat="43.68772995924608" lon="10.740141326782647"><ele>20.0</ele><time>2026-05-02T07:34:26.999Z</time></trkpt><trkpt lat="43.68759472301884" lon="10.739993709752943"><ele>20.0</ele><time>2026-05-02T07:34:27.999Z</time></trkpt><trkpt lat="43.687477798918074" lon="10.739853690899956"><ele>20.0</ele><time>2026-05-02T07:34:28.999Z</time></trkpt><trkpt lat="43.68738092617908" lon="10.739736414900108"><ele>20.0</ele><time>2026-05-02T07:34:29.999Z</time></trkpt><trkpt lat="43.687298086129196" lon="10.73962619340976"><ele>20.0</ele><time>2026-05-02T07:34:30.999Z</time></trkpt><trkpt lat="43.68724844871254" lon="10.739492537827546"><ele>20.0</ele><time>2026-05-02T07:34:31.999Z</time></trkpt><trkpt lat="43.68722576079534" lon="10.739337923465067"><ele>20.0</ele><time>2026-05-02T07:34:32.999Z</time></trkpt><trkpt lat="43.687207598868596" lon="10.739173879315642"><ele>20.0</ele><time>2026-05-02T07:34:33.999Z</time></trkpt><trkpt lat="43.68715052052584" lon="10.739042071611221"><ele>20.0</ele><time>2026-05-02T07:34:34.999Z</time></trkpt><trkpt lat="43.687054442080004" lon="10.738973371551033"><ele>20.0</ele><time>2026-05-02T07:34:35.999Z</time></trkpt><trkpt lat="43.68694657495063" lon="10.738956474038075"><ele>20.0</ele><time>2026-05-02T07:34:37Z</time></trkpt><trkpt lat="43.686842483424165" lon="10.7389466556024"><ele>20.0</ele><time>2026-05-02T07:34:38Z</time></trkpt><trkpt lat="43.68674034505466" lon="10.738943468027594"><ele>20.0</ele><time>2026-05-02T07:34:39Z</time></trkpt><trkpt lat="43.686671833167786" lon="10.738804187225611"><ele>20.0</ele><time>2026-05-02T07:34:40Z</time></trkpt><trkpt lat="43.686563247553984" lon="10.738670096758117"><ele>20.0</ele><time>2026-05-02T07:34:41Z</time></trkpt><trkpt lat="43.68648441349697" lon="10.73848763021377"><ele>19.5</ele><time>2026-05-02T07:34:42Z</time></trkpt><trkpt lat="43.68639628917623" lon="10.738326022216325"><ele>19.0</ele><time>2026-05-02T07:34:43Z</time></trkpt><trkpt lat="43.68630093217319" lon="10.738170437107856"><ele>18.5</ele><time>2026-05-02T07:34:44Z</time></trkpt><trkpt lat="43.68621775669032" lon="10.738011857123366"><ele>18.0</ele><time>2026-05-02T07:34:45Z</time></trkpt><trkpt lat="43.68613880257783" lon="10.737864156961468"><ele>18.5</ele><time>2026-05-02T07:34:46Z</time></trkpt><trkpt lat="43.68606334473406" lon="10.73770217176661"><ele>19.0</ele><time>2026-05-02T07:34:47Z</time></trkpt><trkpt lat="43.68597730256871" lon="10.737557868578612"><ele>19.5</ele><time>2026-05-02T07:34:48Z</time></trkpt><trkpt lat="43.68588040929085" lon="10.737393978849045"><ele>20.0</ele><time>2026-05-02T07:34:49Z</time></trkpt><trkpt lat="43.68579951085074" lon="10.737181377926195"><ele>20.0</ele><time>2026-05-02T07:34:50Z</time></trkpt><trkpt lat="43.68566199418202" lon="10.737002670831789"><ele>20.0</ele><time>2026-05-02T07:34:51Z</time></trkpt><trkpt lat="43.685554806539265" lon="10.736770166517747"><ele>20.0</ele><time>2026-05-02T07:34:52Z</time></trkpt><trkpt lat="43.685448248165926" lon="10.736541642203276"><ele>20.0</ele><time>2026-05-02T07:34:53Z</time></trkpt><trkpt lat="43.685327461870486" lon="10.736322248643855"><ele>20.0</ele><time>2026-05-02T07:34:54Z</time></trkpt><trkpt lat="43.685202947664116" lon="10.736094916323205"><ele>20.0</ele><time>2026-05-02T07:34:55Z</time></trkpt><trkpt lat="43.68510160515254" lon="10.735857421375986"><ele>20.0</ele><time>2026-05-02T07:34:56Z</time></trkpt><trkpt lat="43.68497265023591" lon="10.735647784349762"><ele>20.0</ele><time>2026-05-02T07:34:57Z</time></trkpt><trkpt lat="43.684875357108396" lon="10.7354458730285"><ele>20.0</ele><time>2026-05-02T07:34:58Z</time></trkpt><trkpt lat="43.68478644566441" lon="10.735275580250251"><ele>19.6</ele><time>2026-05-02T07:34:59Z</time></trkpt><trkpt lat="43.68473967503286" lon="10.735189894934821"><ele>19.2</ele><time>2026-05-02T07:35:00Z</time></trkpt><trkpt lat="43.68473167733896" lon="10.735063636637179"><ele>18.8</ele><time>2026-05-02T07:35:01Z</time></trkpt><trkpt lat="43.684825741194445" lon="10.734968839689321"><ele>18.4</ele><time>2026-05-02T07:35:02Z</time></trkpt><trkpt lat="43.68486346340153" lon="10.734823313542016"><ele>18.0</ele><time>2026-05-02T07:35:03Z</time></trkpt><trkpt lat="43.68487515727396" lon="10.734686462498198"><ele>18.0</ele><time>2026-05-02T07:35:04Z</time></trkpt><trkpt lat="43.68481180069979" lon="10.734541227567995"><ele>18.0</ele><time>2026-05-02T07:35:05Z</time></trkpt><trkpt lat="43.684732051957056" lon="10.734448807525805"><ele>18.0</ele><time>2026-05-02T07:35:06Z</time></trkpt><trkpt lat="43.684625801394375" lon="10.73441453031079"><ele>18.0</ele><time>2026-05-02T07:35:07Z</time></trkpt><trkpt lat="43.68451794321722" lon="10.73445448367342"><ele>18.0</ele><time>2026-05-02T07:35:08Z</time></trkpt><trkpt lat="43.68442357979197" lon="10.734498930486652"><ele>18.25</ele><time>2026-05-02T07:35:09Z</time></trkpt><trkpt lat="43.684322499451866" lon="10.73448251283774"><ele>18.5</ele><time>2026-05-02T07:35:10Z</time></trkpt><trkpt lat="43.68423143840948" lon="10.734359909745788"><ele>18.75</ele><time>2026-05-02T07:35:11Z</time></trkpt><trkpt lat="43.68411429752851" lon="10.734325466487029"><ele>19.0</ele><time>2026-05-02T07:35:12Z</time></trkpt><trkpt lat="43.684049883548205" lon="10.734167153550747"><ele>19.0</ele><time>2026-05-02T07:35:13Z</time></trkpt><trkpt lat="43.683974814451986" lon="10.734055975537695"><ele>19.0</ele><time>2026-05-02T07:35:14Z</time></trkpt><trkpt lat="43.68390402078744" lon="10.733951129460795"><ele>19.0</ele><time>2026-05-02T07:35:15Z</time></trkpt><trkpt lat="43.68382383950534" lon="10.733832380247676"><ele>19.0</ele><time>2026-05-02T07:35:16Z</time></trkpt><trkpt lat="43.68371849174736" lon="10.733675136854792"><ele>19.333333333333332</ele><time>2026-05-02T07:35:17Z</time></trkpt><trkpt lat="43.68359446259952" lon="10.733488569256517"><ele>19.666666666666668</ele><time>2026-05-02T07:35:18Z</time></trkpt><trkpt lat="43.68345926672463" lon="10.73330159000929"><ele>20.0</ele><time>2026-05-02T07:35:19Z</time></trkpt><trkpt lat="43.68333098943788" lon="10.7331135436397"><ele>20.0</ele><time>2026-05-02T07:35:20Z</time></trkpt><trkpt lat="43.683205505145374" lon="10.73291666539303"><ele>20.0</ele><time>2026-05-02T07:35:21Z</time></trkpt><trkpt lat="43.68307263853623" lon="10.73271548063195"><ele>20.0</ele><time>2026-05-02T07:35:21.999Z</time></trkpt><trkpt lat="43.68293419425225" lon="10.732508301296498"><ele>20.333333333333336</ele><time>2026-05-02T07:35:22.999Z</time></trkpt><trkpt lat="43.68279555908586" lon="10.732292811971895"><ele>20.666666666666668</ele><time>2026-05-02T07:35:23.999Z</time></trkpt><trkpt lat="43.68264957462694" lon="10.73207551588766"><ele>21.0</ele><time>2026-05-02T07:35:24.999Z</time></trkpt><trkpt lat="43.682533881629986" lon="10.73184399541107"><ele>20.0</ele><time>2026-05-02T07:35:25.999Z</time></trkpt><trkpt lat="43.68238367706082" lon="10.731654440488523"><ele>19.0</ele><time>2026-05-02T07:35:26.999Z</time></trkpt><trkpt lat="43.682246339028666" lon="10.731448452152991"><ele>18.0</ele><time>2026-05-02T07:35:27.999Z</time></trkpt><trkpt lat="43.68210818324917" lon="10.73124200722812"><ele>18.0</ele><time>2026-05-02T07:35:28.999Z</time></trkpt><trkpt lat="43.681972691746154" lon="10.731031633582877"><ele>18.0</ele><time>2026-05-02T07:35:29.999Z</time></trkpt><trkpt lat="43.68184103486805" lon="10.730810431891072"><ele>18.0</ele><time>2026-05-02T07:35:30.999Z</time></trkpt><trkpt lat="43.68172448905277" lon="10.730577260632495"><ele>17.666666666666668</ele><time>2026-05-02T07:35:31.999Z</time></trkpt><trkpt lat="43.68162180172706" lon="10.73032020051372"><ele>17.333333333333336</ele><time>2026-05-02T07:35:32.999Z</time></trkpt><trkpt lat="43.681509498818166" lon="10.730076748557181"><ele>17.0</ele><time>2026-05-02T07:35:33.999Z</time></trkpt><trkpt lat="43.68139505186442" lon="10.729835795411569"><ele>17.0</ele><time>2026-05-02T07:35:34.999Z</time></trkpt><trkpt lat="43.68128746485031" lon="10.729596142408182"><ele>17.0</ele><time>2026-05-02T07:35:35.999Z</time></trkpt><trkpt lat="43.68118152113943" lon="10.72936995026543"><ele>17.0</ele><time>2026-05-02T07:35:36.999Z</time></trkpt><trkpt lat="43.68108223530609" lon="10.729157841947728"><ele>16.666666666666668</ele><time>2026-05-02T07:35:37.999Z</time></trkpt><trkpt lat="43.68099173945745" lon="10.728961234287445"><ele>16.333333333333332</ele><time>2026-05-02T07:35:38.999Z</time></trkpt><trkpt lat="43.68090639826783" lon="10.728768847121527"><ele>16.0</ele><time>2026-05-02T07:35:39.999Z</time></trkpt><trkpt lat="43.68082620745115" lon="10.72859424795293"><ele>16.0</ele><time>2026-05-02T07:35:40.999Z</time></trkpt><trkpt lat="43.68075509873807" lon="10.728445212219041"><ele>16.0</ele><time>2026-05-02T07:35:41.999Z</time></trkpt><trkpt lat="43.68069423210473" lon="10.728316727253588"><ele>16.0</ele><time>2026-05-02T07:35:42.999Z</time></trkpt><trkpt lat="43.68064501519654" lon="10.72819568214491"><ele>16.0</ele><time>2026-05-02T07:35:43.999Z</time></trkpt><trkpt lat="43.68061738346904" lon="10.728072344510505"><ele>16.0</ele><time>2026-05-02T07:35:44.999Z</time></trkpt><trkpt lat="43.68059731986582" lon="10.727966634952466"><ele>16.0</ele><time>2026-05-02T07:35:45.999Z</time></trkpt><trkpt lat="43.68055812482735" lon="10.727884193024595"><ele>16.0</ele><time>2026-05-02T07:35:46.999Z</time></trkpt><trkpt lat="43.68066386514432" lon="10.727630002224714"><ele>16.0</ele><time>2026-05-02T07:35:48.999Z</time></trkpt><trkpt lat="43.68069347327164" lon="10.72752564302169"><ele>16.0</ele><time>2026-05-02T07:35:49.999Z</time></trkpt><trkpt lat="43.68066786562099" lon="10.7274132036355"><ele>16.166666666666664</ele><time>2026-05-02T07:35:50.999Z</time></trkpt><trkpt lat="43.68061614419108" lon="10.727323184878312"><ele>16.333333333333332</ele><time>2026-05-02T07:35:51.999Z</time></trkpt><trkpt lat="43.68054036670469" lon="10.727271631208222"><ele>16.5</ele><time>2026-05-02T07:35:52.999Z</time></trkpt><trkpt lat="43.68045854882244" lon="10.727268489976508"><ele>16.666666666666668</ele><time>2026-05-02T07:35:53.999Z</time></trkpt><trkpt lat="43.680390386182154" lon="10.727301461363517"><ele>16.833333333333336</ele><time>2026-05-02T07:35:54.999Z</time></trkpt><trkpt lat="43.68028239672334" lon="10.727288869963196"><ele>17.0</ele><time>2026-05-02T07:35:56.999Z</time></trkpt><trkpt lat="43.68022907488708" lon="10.727235249116978"><ele>17.166666666666668</ele><time>2026-05-02T07:35:57.999Z</time></trkpt><trkpt lat="43.68017999026081" lon="10.727166539619443"><ele>17.333333333333336</ele><time>2026-05-02T07:35:58.999Z</time></trkpt><trkpt lat="43.680140657097546" lon="10.727087325249355"><ele>17.5</ele><time>2026-05-02T07:35:59.999Z</time></trkpt><trkpt lat="43.680097714029415" lon="10.726988037377957"><ele>17.666666666666668</ele><time>2026-05-02T07:36:00.999Z</time></trkpt><trkpt lat="43.68004734268935" lon="10.726868889367603"><ele>17.833333333333332</ele><time>2026-05-02T07:36:01.999Z</time></trkpt><trkpt lat="43.679981138909866" lon="10.726740799640185"><ele>18.0</ele><time>2026-05-02T07:36:02.999Z</time></trkpt><trkpt lat="43.679914030950265" lon="10.726594518264308"><ele>18.0</ele><time>2026-05-02T07:36:03.999Z</time></trkpt><trkpt lat="43.67984591212082" lon="10.726450250971626"><ele>18.0</ele><time>2026-05-02T07:36:04.999Z</time></trkpt><trkpt lat="43.67979745132912" lon="10.726308600821055"><ele>18.0</ele><time>2026-05-02T07:36:05.999Z</time></trkpt><trkpt lat="43.67973261717073" lon="10.72616441775118"><ele>18.0</ele><time>2026-05-02T07:36:06.999Z</time></trkpt><trkpt lat="43.67966834307674" lon="10.726021480221037"><ele>18.0</ele><time>2026-05-02T07:36:07.999Z</time></trkpt><trkpt lat="43.67961068604241" lon="10.72589325822489"><ele>18.0</ele><time>2026-05-02T07:36:08.999Z</time></trkpt><trkpt lat="43.679537972097904" lon="10.725772464203692"><ele>18.0</ele><time>2026-05-02T07:36:09.999Z</time></trkpt><trkpt lat="43.67947611396933" lon="10.725623670202003"><ele>18.0</ele><time>2026-05-02T07:36:10.999Z</time></trkpt><trkpt lat="43.67940885426049" lon="10.725480727458656"><ele>18.0</ele><time>2026-05-02T07:36:11.999Z</time></trkpt><trkpt lat="43.67935102869136" lon="10.725339371811629"><ele>18.0</ele><time>2026-05-02T07:36:12.999Z</time></trkpt><trkpt lat="43.67929364107424" lon="10.72521043107769"><ele>18.0</ele><time>2026-05-02T07:36:13.999Z</time></trkpt><trkpt lat="43.679241179708384" lon="10.725089147785251"><ele>18.0</ele><time>2026-05-02T07:36:14.999Z</time></trkpt><trkpt lat="43.67919136990803" lon="10.724977599208886"><ele>18.0</ele><time>2026-05-02T07:36:15.999Z</time></trkpt><trkpt lat="43.679144210343466" lon="10.724873284736956"><ele>18.333333333333332</ele><time>2026-05-02T07:36:16.999Z</time></trkpt><trkpt lat="43.67910246634224" lon="10.724772815023424"><ele>18.666666666666668</ele><time>2026-05-02T07:36:17.999Z</time></trkpt><trkpt lat="43.679061394541364" lon="10.724680594541095"><ele>19.0</ele><time>2026-05-02T07:36:18.999Z</time></trkpt><trkpt lat="43.679022579967175" lon="10.724597892513719"><ele>19.333333333333336</ele><time>2026-05-02T07:36:19.999Z</time></trkpt><trkpt lat="43.67895492340517" lon="10.724502491881836"><ele>19.666666666666668</ele><time>2026-05-02T07:36:21.999Z</time></trkpt><trkpt lat="43.67890741386509" lon="10.7244227022046"><ele>20.0</ele><time>2026-05-02T07:36:23.999Z</time></trkpt><trkpt lat="43.6788578309848" lon="10.72434932982814"><ele>20.0</ele><time>2026-05-02T07:36:25.998Z</time></trkpt><trkpt lat="43.67880309575689" lon="10.724234307853646"><ele>20.0</ele><time>2026-05-02T07:36:27.998Z</time></trkpt><trkpt lat="43.67878313387021" lon="10.724150827111838"><ele>20.0</ele><time>2026-05-02T07:36:28.998Z</time></trkpt><trkpt lat="43.67874737717529" lon="10.723998840511689"><ele>20.0</ele><time>2026-05-02T07:36:30.998Z</time></trkpt><trkpt lat="43.67871180648766" lon="10.723907547279095"><ele>20.0</ele><time>2026-05-02T07:36:31.998Z</time></trkpt><trkpt lat="43.678644108652776" lon="10.723812659637296"><ele>19.6</ele><time>2026-05-02T07:36:32.998Z</time></trkpt><trkpt lat="43.67855823401377" lon="10.723741226240389"><ele>19.2</ele><time>2026-05-02T07:36:33.998Z</time></trkpt><trkpt lat="43.678450202086694" lon="10.723708203066034"><ele>18.8</ele><time>2026-05-02T07:36:34.998Z</time></trkpt><trkpt lat="43.678337749969565" lon="10.723697524772819"><ele>18.4</ele><time>2026-05-02T07:36:35.998Z</time></trkpt><trkpt lat="43.678225637980724" lon="10.723715104766454"><ele>18.0</ele><time>2026-05-02T07:36:36.998Z</time></trkpt><trkpt lat="43.678114593454424" lon="10.723767380281094"><ele>18.0</ele><time>2026-05-02T07:36:37.998Z</time></trkpt><trkpt lat="43.67800283080804" lon="10.723827068858355"><ele>18.0</ele><time>2026-05-02T07:36:38.998Z</time></trkpt><trkpt lat="43.67786760291711" lon="10.723835232247778"><ele>18.0</ele><time>2026-05-02T07:36:39.998Z</time></trkpt><trkpt lat="43.67772055493271" lon="10.723793380150674"><ele>18.0</ele><time>2026-05-02T07:36:40.998Z</time></trkpt><trkpt lat="43.67757245089164" lon="10.72374641433099"><ele>18.0</ele><time>2026-05-02T07:36:41.998Z</time></trkpt><trkpt lat="43.67740884559316" lon="10.723709897851554"><ele>18.0</ele><time>2026-05-02T07:36:43Z</time></trkpt><trkpt lat="43.67725119447124" lon="10.723690132892584"><ele>18.0</ele><time>2026-05-02T07:36:44Z</time></trkpt><trkpt lat="43.67709865867337" lon="10.723680984450237"><ele>18.0</ele><time>2026-05-02T07:36:45Z</time></trkpt><trkpt lat="43.67694683326166" lon="10.723648132196885"><ele>18.0</ele><time>2026-05-02T07:36:46Z</time></trkpt><trkpt lat="43.67678414287053" lon="10.723635387958216"><ele>18.0</ele><time>2026-05-02T07:36:47Z</time></trkpt><trkpt lat="43.67660854017222" lon="10.723622102871502"><ele>18.0</ele><time>2026-05-02T07:36:48Z</time></trkpt><trkpt lat="43.676418808889174" lon="10.723630177276776"><ele>18.0</ele><time>2026-05-02T07:36:49Z</time></trkpt><trkpt lat="43.676246521057955" lon="10.723617799299262"><ele>18.0</ele><time>2026-05-02T07:36:50Z</time></trkpt><trkpt lat="43.6760619473004" lon="10.723600461132813"><ele>18.333333333333332</ele><time>2026-05-02T07:36:51Z</time></trkpt><trkpt lat="43.67587262879985" lon="10.72358468479485"><ele>18.666666666666664</ele><time>2026-05-02T07:36:52Z</time></trkpt><trkpt lat="43.67568570916208" lon="10.723570027673533"><ele>19.0</ele><time>2026-05-02T07:36:53Z</time></trkpt><trkpt lat="43.67549241314783" lon="10.723557206619573"><ele>19.0</ele><time>2026-05-02T07:36:54Z</time></trkpt><trkpt lat="43.6753002256505" lon="10.723543942273334"><ele>19.0</ele><time>2026-05-02T07:36:55Z</time></trkpt><trkpt lat="43.675118070697316" lon="10.723528888451291"><ele>19.0</ele><time>2026-05-02T07:36:56Z</time></trkpt><trkpt lat="43.67493901437049" lon="10.723513431610934"><ele>19.0</ele><time>2026-05-02T07:36:57Z</time></trkpt><trkpt lat="43.67475880012341" lon="10.723502736643603"><ele>19.0</ele><time>2026-05-02T07:36:58Z</time></trkpt><trkpt lat="43.67457890954372" lon="10.723492751390467"><ele>19.0</ele><time>2026-05-02T07:36:59Z</time></trkpt><trkpt lat="43.674410683251914" lon="10.723479796041795"><ele>19.5</ele><time>2026-05-02T07:37:00Z</time></trkpt><trkpt lat="43.674254796652455" lon="10.723445586493577"><ele>20.0</ele><time>2026-05-02T07:37:01Z</time></trkpt><trkpt lat="43.67411750285155" lon="10.723433942599923"><ele>20.5</ele><time>2026-05-02T07:37:02Z</time></trkpt><trkpt lat="43.673994569189134" lon="10.723425865286808"><ele>21.0</ele><time>2026-05-02T07:37:03Z</time></trkpt><trkpt lat="43.673876968807186" lon="10.72343812780577"><ele>21.0</ele><time>2026-05-02T07:37:04Z</time></trkpt><trkpt lat="43.67375680720229" lon="10.723417797882695"><ele>21.0</ele><time>2026-05-02T07:37:05Z</time></trkpt><trkpt lat="43.67364137975334" lon="10.723373014616376"><ele>21.0</ele><time>2026-05-02T07:37:06Z</time></trkpt><trkpt lat="43.673549641183875" lon="10.723317345953072"><ele>21.0</ele><time>2026-05-02T07:37:07Z</time></trkpt><trkpt lat="43.673480492479875" lon="10.72326527394137"><ele>21.0</ele><time>2026-05-02T07:37:08Z</time></trkpt><trkpt lat="43.673381279045486" lon="10.723173779257799"><ele>20.6</ele><time>2026-05-02T07:37:10Z</time></trkpt><trkpt lat="43.67332074954881" lon="10.723132755538856"><ele>20.200000000000003</ele><time>2026-05-02T07:37:11Z</time></trkpt><trkpt lat="43.67324905668854" lon="10.723077795871044"><ele>19.799999999999997</ele><time>2026-05-02T07:37:12Z</time></trkpt><trkpt lat="43.67316012778303" lon="10.723014427607948"><ele>19.4</ele><time>2026-05-02T07:37:13Z</time></trkpt><trkpt lat="43.67306802207125" lon="10.72294363607886"><ele>19.0</ele><time>2026-05-02T07:37:14Z</time></trkpt><trkpt lat="43.67296637127337" lon="10.722875611607828"><ele>19.0</ele><time>2026-05-02T07:37:15Z</time></trkpt><trkpt lat="43.67286843536007" lon="10.722801779172816"><ele>19.0</ele><time>2026-05-02T07:37:16Z</time></trkpt><trkpt lat="43.6727707790171" lon="10.722732727637895"><ele>19.0</ele><time>2026-05-02T07:37:17Z</time></trkpt><trkpt lat="43.67267796429571" lon="10.722672158813403"><ele>19.0</ele><time>2026-05-02T07:37:18Z</time></trkpt><trkpt lat="43.67258586736667" lon="10.722625377919591"><ele>19.0</ele><time>2026-05-02T07:37:19Z</time></trkpt><trkpt lat="43.672496212944004" lon="10.72260423177556"><ele>19.2</ele><time>2026-05-02T07:37:20Z</time></trkpt><trkpt lat="43.67240468547045" lon="10.722614487991779"><ele>19.4</ele><time>2026-05-02T07:37:21Z</time></trkpt><trkpt lat="43.6723147690687" lon="10.722646839152945"><ele>19.6</ele><time>2026-05-02T07:37:22Z</time></trkpt><trkpt lat="43.672228886829465" lon="10.722700503898778"><ele>19.8</ele><time>2026-05-02T07:37:22.999Z</time></trkpt><trkpt lat="43.67214520956337" lon="10.722782726513095"><ele>20.0</ele><time>2026-05-02T07:37:23.999Z</time></trkpt><trkpt lat="43.67207421183457" lon="10.72288218164543"><ele>20.0</ele><time>2026-05-02T07:37:24.999Z</time></trkpt><trkpt lat="43.672021235544726" lon="10.722987488486755"><ele>20.0</ele><time>2026-05-02T07:37:25.999Z</time></trkpt><trkpt lat="43.67198652906196" lon="10.72309513483537"><ele>20.0</ele><time>2026-05-02T07:37:26.999Z</time></trkpt><trkpt lat="43.67196707125093" lon="10.723219056214115"><ele>20.0</ele><time>2026-05-02T07:37:27.999Z</time></trkpt><trkpt lat="43.67196643957218" lon="10.723346482455721"><ele>20.0</ele><time>2026-05-02T07:37:28.999Z</time></trkpt><trkpt lat="43.67198435984029" lon="10.723470777973871"><ele>20.0</ele><time>2026-05-02T07:37:29.999Z</time></trkpt><trkpt lat="43.672015631166865" lon="10.72359164904681"><ele>20.0</ele><time>2026-05-02T07:37:30.999Z</time></trkpt><trkpt lat="43.67204677486492" lon="10.723711202585733"><ele>20.0</ele><time>2026-05-02T07:37:31.999Z</time></trkpt><trkpt lat="43.67208463248748" lon="10.723833664496327"><ele>20.0</ele><time>2026-05-02T07:37:32.999Z</time></trkpt><trkpt lat="43.672120479670845" lon="10.723957305035036"><ele>20.0</ele><time>2026-05-02T07:37:33.999Z</time></trkpt><trkpt lat="43.67216025235772" lon="10.72409648906933"><ele>20.0</ele><time>2026-05-02T07:37:34.999Z</time></trkpt><trkpt lat="43.67220268188096" lon="10.72424124884635"><ele>20.0</ele><time>2026-05-02T07:37:35.999Z</time></trkpt><trkpt lat="43.672253282716774" lon="10.724382284274979"><ele>20.0</ele><time>2026-05-02T07:37:36.999Z</time></trkpt><trkpt lat="43.67229294697032" lon="10.724525797074657"><ele>20.0</ele><time>2026-05-02T07:37:37.999Z</time></trkpt><trkpt lat="43.67233430328851" lon="10.724661682798985"><ele>20.0</ele><time>2026-05-02T07:37:38.999Z</time></trkpt><trkpt lat="43.67236679344681" lon="10.724783600100816"><ele>20.333333333333336</ele><time>2026-05-02T07:37:39.999Z</time></trkpt><trkpt lat="43.6724019614322" lon="10.724893884993252"><ele>20.666666666666668</ele><time>2026-05-02T07:37:40.999Z</time></trkpt><trkpt lat="43.67243259028605" lon="10.72501115046721"><ele>21.0</ele><time>2026-05-02T07:37:41.999Z</time></trkpt><trkpt lat="43.67246448011902" lon="10.725131782632387"><ele>21.333333333333332</ele><time>2026-05-02T07:37:42.999Z</time></trkpt><trkpt lat="43.67249435424566" lon="10.72524783050799"><ele>21.666666666666664</ele><time>2026-05-02T07:37:43.999Z</time></trkpt><trkpt lat="43.67252599813808" lon="10.725359797432093"><ele>22.0</ele><time>2026-05-02T07:37:44.999Z</time></trkpt><trkpt lat="43.67255487653219" lon="10.725456611125011"><ele>22.0</ele><time>2026-05-02T07:37:45.999Z</time></trkpt><trkpt lat="43.67257916703699" lon="10.725547589501915"><ele>22.0</ele><time>2026-05-02T07:37:46.999Z</time></trkpt><trkpt lat="43.67261095072098" lon="10.725631550249227"><ele>22.0</ele><time>2026-05-02T07:37:47.999Z</time></trkpt><trkpt lat="43.672636696187716" lon="10.72572184502057"><ele>22.0</ele><time>2026-05-02T07:37:48.999Z</time></trkpt><trkpt lat="43.67266281212148" lon="10.725823388496353"><ele>22.0</ele><time>2026-05-02T07:37:49.999Z</time></trkpt><trkpt lat="43.67269319215991" lon="10.725934641424814"><ele>22.0</ele><time>2026-05-02T07:37:50.999Z</time></trkpt><trkpt lat="43.67272353870554" lon="10.726053681563556"><ele>22.0</ele><time>2026-05-02T07:37:51.999Z</time></trkpt><trkpt lat="43.6727576595157" lon="10.726178837547087"><ele>22.0</ele><time>2026-05-02T07:37:52.999Z</time></trkpt><trkpt lat="43.67278600629601" lon="10.726311940461642"><ele>22.0</ele><time>2026-05-02T07:37:53.999Z</time></trkpt><trkpt lat="43.67281092730362" lon="10.726442680445047"><ele>22.0</ele><time>2026-05-02T07:37:54.999Z</time></trkpt><trkpt lat="43.672833657667624" lon="10.72657552922684"><ele>22.0</ele><time>2026-05-02T07:37:55.999Z</time></trkpt><trkpt lat="43.67285673467367" lon="10.726709793446268"><ele>23.0</ele><time>2026-05-02T07:37:56.999Z</time></trkpt><trkpt lat="43.67287785300516" lon="10.7268490817211"><ele>24.0</ele><time>2026-05-02T07:37:57.999Z</time></trkpt><trkpt lat="43.67289942364846" lon="10.726991939597081"><ele>25.000000000000004</ele><time>2026-05-02T07:37:58.999Z</time></trkpt><trkpt lat="43.672921023956675" lon="10.727133730859443"><ele>26.0</ele><time>2026-05-02T07:37:59.999Z</time></trkpt><trkpt lat="43.6729260668397" lon="10.727279466559551"><ele>27.0</ele><time>2026-05-02T07:38:00.999Z</time></trkpt><trkpt lat="43.672912071165605" lon="10.727431364062276"><ele>26.8</ele><time>2026-05-02T07:38:01.999Z</time></trkpt><trkpt lat="43.67288331526445" lon="10.727573720138928"><ele>26.6</ele><time>2026-05-02T07:38:02.999Z</time></trkpt><trkpt lat="43.67284354000475" lon="10.727698578513365"><ele>26.400000000000002</ele><time>2026-05-02T07:38:03.999Z</time></trkpt><trkpt lat="43.67278417308498" lon="10.727824419322088"><ele>26.200000000000003</ele><time>2026-05-02T07:38:04.999Z</time></trkpt><trkpt lat="43.672716429064394" lon="10.727937981313538"><ele>26.0</ele><time>2026-05-02T07:38:05.999Z</time></trkpt><trkpt lat="43.67264052605725" lon="10.728044061206882"><ele>26.0</ele><time>2026-05-02T07:38:06.999Z</time></trkpt><trkpt lat="43.67255416711106" lon="10.728146581781063"><ele>26.0</ele><time>2026-05-02T07:38:07.999Z</time></trkpt><trkpt lat="43.6724661139653" lon="10.728217598333568"><ele>26.0</ele><time>2026-05-02T07:38:08.999Z</time></trkpt><trkpt lat="43.67237776312852" lon="10.728260302073092"><ele>26.0</ele><time>2026-05-02T07:38:09.999Z</time></trkpt><trkpt lat="43.67229616842285" lon="10.728274367004554"><ele>26.0</ele><time>2026-05-02T07:38:10.999Z</time></trkpt><trkpt lat="43.6722105429063" lon="10.72826175347288"><ele>26.0</ele><time>2026-05-02T07:38:11.999Z</time></trkpt><trkpt lat="43.672124110681054" lon="10.728218094374336"><ele>26.0</ele><time>2026-05-02T07:38:12.999Z</time></trkpt><trkpt lat="43.67204839656082" lon="10.72815128306506"><ele>26.0</ele><time>2026-05-02T07:38:13.999Z</time></trkpt><trkpt lat="43.671977635236644" lon="10.728059804973233"><ele>26.0</ele><time>2026-05-02T07:38:14.999Z</time></trkpt><trkpt lat="43.671915600545816" lon="10.727954304132558"><ele>26.0</ele><time>2026-05-02T07:38:15.999Z</time></trkpt><trkpt lat="43.671874003066826" lon="10.727820517604687"><ele>26.0</ele><time>2026-05-02T07:38:16.999Z</time></trkpt><trkpt lat="43.67185705773346" lon="10.727664187281377"><ele>26.0</ele><time>2026-05-02T07:38:17.999Z</time></trkpt><trkpt lat="43.67184156405127" lon="10.72750532599459"><ele>26.0</ele><time>2026-05-02T07:38:18.999Z</time></trkpt><trkpt lat="43.67187577936405" lon="10.727337138788437"><ele>26.0</ele><time>2026-05-02T07:38:19.999Z</time></trkpt><trkpt lat="43.67188933087819" lon="10.727154262345826"><ele>26.0</ele><time>2026-05-02T07:38:20.999Z</time></trkpt><trkpt lat="43.67189702626423" lon="10.72691532080446"><ele>26.0</ele><time>2026-05-02T07:38:21.999Z</time></trkpt><trkpt lat="43.67190435849302" lon="10.726649125091745"><ele>26.0</ele><time>2026-05-02T07:38:22.999Z</time></trkpt><trkpt lat="43.67191047062246" lon="10.726408487552684"><ele>24.333333333333332</ele><time>2026-05-02T07:38:23.999Z</time></trkpt><trkpt lat="43.67190806597618" lon="10.726171272056016"><ele>22.666666666666664</ele><time>2026-05-02T07:38:24.999Z</time></trkpt><trkpt lat="43.67190478377005" lon="10.725936225298359"><ele>21.0</ele><time>2026-05-02T07:38:25.999Z</time></trkpt><trkpt lat="43.671900378654456" lon="10.725706011129974"><ele>21.0</ele><time>2026-05-02T07:38:26.998Z</time></trkpt><trkpt lat="43.6718909033038" lon="10.72546595221396"><ele>21.0</ele><time>2026-05-02T07:38:27.998Z</time></trkpt><trkpt lat="43.671876892108166" lon="10.725221290822718"><ele>21.0</ele><time>2026-05-02T07:38:28.998Z</time></trkpt><trkpt lat="43.67185905202461" lon="10.724976177985457"><ele>21.333333333333332</ele><time>2026-05-02T07:38:29.998Z</time></trkpt><trkpt lat="43.671834954364435" lon="10.724727626981517"><ele>21.666666666666664</ele><time>2026-05-02T07:38:30.998Z</time></trkpt><trkpt lat="43.671807474044755" lon="10.724471843347406"><ele>22.0</ele><time>2026-05-02T07:38:31.998Z</time></trkpt><trkpt lat="43.67177308302334" lon="10.724212052245848"><ele>22.0</ele><time>2026-05-02T07:38:32.998Z</time></trkpt><trkpt lat="43.67173274319141" lon="10.723944710862348"><ele>22.0</ele><time>2026-05-02T07:38:33.998Z</time></trkpt><trkpt lat="43.671681944109" lon="10.723668907532549"><ele>22.0</ele><time>2026-05-02T07:38:34.998Z</time></trkpt><trkpt lat="43.671613926082756" lon="10.723376271570555"><ele>21.5</ele><time>2026-05-02T07:38:35.998Z</time></trkpt><trkpt lat="43.67153329213808" lon="10.723067164413484"><ele>21.0</ele><time>2026-05-02T07:38:36.998Z</time></trkpt><trkpt lat="43.671447611631216" lon="10.722748095960023"><ele>21.0</ele><time>2026-05-02T07:38:37.998Z</time></trkpt><trkpt lat="43.67136413016873" lon="10.72243024293661"><ele>21.0</ele><time>2026-05-02T07:38:38.998Z</time></trkpt><trkpt lat="43.67128266016139" lon="10.722103024931958"><ele>21.0</ele><time>2026-05-02T07:38:39.998Z</time></trkpt><trkpt lat="43.671197731161286" lon="10.721758332156945"><ele>21.0</ele><time>2026-05-02T07:38:40.998Z</time></trkpt><trkpt lat="43.67111054216655" lon="10.721405621602262"><ele>22.0</ele><time>2026-05-02T07:38:41.998Z</time></trkpt><trkpt lat="43.6710202670611" lon="10.721046271015988"><ele>23.0</ele><time>2026-05-02T07:38:42.998Z</time></trkpt><trkpt lat="43.67093610382402" lon="10.7206978826622"><ele>23.0</ele><time>2026-05-02T07:38:43.998Z</time></trkpt><trkpt lat="43.670846838615084" lon="10.720346143050907"><ele>23.0</ele><time>2026-05-02T07:38:44.998Z</time></trkpt><trkpt lat="43.67075706469696" lon="10.719970897806123"><ele>22.5</ele><time>2026-05-02T07:38:45.998Z</time></trkpt><trkpt lat="43.67066186061906" lon="10.719593727467299"><ele>22.0</ele><time>2026-05-02T07:38:46.998Z</time></trkpt><trkpt lat="43.67056490438409" lon="10.71921467840383"><ele>21.0</ele><time>2026-05-02T07:38:47.998Z</time></trkpt><trkpt lat="43.670469356691555" lon="10.718829689792003"><ele>20.0</ele><time>2026-05-02T07:38:49Z</time></trkpt><trkpt lat="43.67037747039152" lon="10.718438029808906"><ele>20.0</ele><time>2026-05-02T07:38:50Z</time></trkpt><trkpt lat="43.6702812657316" lon="10.718043605693138"><ele>20.0</ele><time>2026-05-02T07:38:51Z</time></trkpt><trkpt lat="43.67018232521631" lon="10.71764758573765"><ele>20.0</ele><time>2026-05-02T07:38:52Z</time></trkpt><trkpt lat="43.67008559597359" lon="10.717252633724309"><ele>20.0</ele><time>2026-05-02T07:38:53Z</time></trkpt><trkpt lat="43.669991921928485" lon="10.716868032866309"><ele>20.0</ele><time>2026-05-02T07:38:54Z</time></trkpt><trkpt lat="43.669898370946115" lon="10.716484610985384"><ele>20.0</ele><time>2026-05-02T07:38:55Z</time></trkpt><trkpt lat="43.669803837747814" lon="10.716103307698695"><ele>20.0</ele><time>2026-05-02T07:38:56Z</time></trkpt><trkpt lat="43.66970580404765" lon="10.715730995439554"><ele>20.0</ele><time>2026-05-02T07:38:57Z</time></trkpt><trkpt lat="43.66960038906716" lon="10.715367105260098"><ele>20.0</ele><time>2026-05-02T07:38:58Z</time></trkpt><trkpt lat="43.66948977390163" lon="10.715013026282943"><ele>20.0</ele><time>2026-05-02T07:38:59Z</time></trkpt><trkpt lat="43.66936966710417" lon="10.714671021038166"><ele>19.5</ele><time>2026-05-02T07:39:00Z</time></trkpt><trkpt lat="43.66924189359277" lon="10.71434560388528"><ele>19.0</ele><time>2026-05-02T07:39:01Z</time></trkpt><trkpt lat="43.669087576674926" lon="10.714030604268206"><ele>19.0</ele><time>2026-05-02T07:39:02Z</time></trkpt><trkpt lat="43.66892823423339" lon="10.713690220389237"><ele>19.0</ele><time>2026-05-02T07:39:03Z</time></trkpt><trkpt lat="43.66875484262577" lon="10.713356580729451"><ele>19.5</ele><time>2026-05-02T07:39:04Z</time></trkpt><trkpt lat="43.66856567449005" lon="10.713035491646522"><ele>20.0</ele><time>2026-05-02T07:39:05Z</time></trkpt><trkpt lat="43.66836239534352" lon="10.71272137983588"><ele>20.5</ele><time>2026-05-02T07:39:06Z</time></trkpt><trkpt lat="43.66814907996392" lon="10.712418451724144"><ele>21.0</ele><time>2026-05-02T07:39:07Z</time></trkpt><trkpt lat="43.667926232612274" lon="10.712126445980422"><ele>20.0</ele><time>2026-05-02T07:39:08Z</time></trkpt><trkpt lat="43.667688673923514" lon="10.711852551856722"><ele>19.0</ele><time>2026-05-02T07:39:09Z</time></trkpt><trkpt lat="43.66743874172482" lon="10.711591450771554"><ele>19.0</ele><time>2026-05-02T07:39:10Z</time></trkpt><trkpt lat="43.66717798657847" lon="10.711341452985815"><ele>19.0</ele><time>2026-05-02T07:39:11Z</time></trkpt><trkpt lat="43.66691269942937" lon="10.711104223735418"><ele>20.0</ele><time>2026-05-02T07:39:12Z</time></trkpt><trkpt lat="43.666645090192155" lon="10.710877797155472"><ele>21.0</ele><time>2026-05-02T07:39:13Z</time></trkpt><trkpt lat="43.66636950987292" lon="10.710656899542"><ele>21.0</ele><time>2026-05-02T07:39:14Z</time></trkpt><trkpt lat="43.66609057888851" lon="10.710429810033647"><ele>21.0</ele><time>2026-05-02T07:39:15Z</time></trkpt><trkpt lat="43.665815880781416" lon="10.710199361366048"><ele>21.0</ele><time>2026-05-02T07:39:16Z</time></trkpt><trkpt lat="43.66554787300954" lon="10.709967637512948"><ele>21.0</ele><time>2026-05-02T07:39:17Z</time></trkpt><trkpt lat="43.665292074436856" lon="10.709729374039405"><ele>22.5</ele><time>2026-05-02T07:39:18Z</time></trkpt><trkpt lat="43.66504997123561" lon="10.709475508699542"><ele>24.0</ele><time>2026-05-02T07:39:19Z</time></trkpt><trkpt lat="43.664815913427915" lon="10.70920278278922"><ele>24.0</ele><time>2026-05-02T07:39:20Z</time></trkpt><trkpt lat="43.66460365899458" lon="10.70892008455802"><ele>24.0</ele><time>2026-05-02T07:39:21Z</time></trkpt><trkpt lat="43.664415049260626" lon="10.70862812536007"><ele>24.5</ele><time>2026-05-02T07:39:22Z</time></trkpt><trkpt lat="43.66423966423356" lon="10.708335476232183"><ele>25.0</ele><time>2026-05-02T07:39:23Z</time></trkpt><trkpt lat="43.66407897283083" lon="10.708039753110528"><ele>25.5</ele><time>2026-05-02T07:39:24Z</time></trkpt><trkpt lat="43.663926176495565" lon="10.707739181360655"><ele>26.0</ele><time>2026-05-02T07:39:25Z</time></trkpt><trkpt lat="43.6637814560181" lon="10.707424126639784"><ele>26.0</ele><time>2026-05-02T07:39:26Z</time></trkpt><trkpt lat="43.663645554227685" lon="10.707096451996065"><ele>26.0</ele><time>2026-05-02T07:39:27Z</time></trkpt><trkpt lat="43.66351314281991" lon="10.706763389403866"><ele>25.5</ele><time>2026-05-02T07:39:28Z</time></trkpt><trkpt lat="43.663383866614495" lon="10.706430142231655"><ele>25.0</ele><time>2026-05-02T07:39:29Z</time></trkpt><trkpt lat="43.6632556941949" lon="10.706103379868487"><ele>25.5</ele><time>2026-05-02T07:39:30Z</time></trkpt><trkpt lat="43.663129605568315" lon="10.705782028182925"><ele>26.0</ele><time>2026-05-02T07:39:31Z</time></trkpt><trkpt lat="43.66300000236121" lon="10.705456226805603"><ele>28.0</ele><time>2026-05-02T07:39:32Z</time></trkpt><trkpt lat="43.662860701170196" lon="10.705106124803464"><ele>30.0</ele><time>2026-05-02T07:39:33Z</time></trkpt><trkpt lat="43.662726323877855" lon="10.704762954617978"><ele>29.5</ele><time>2026-05-02T07:39:33.999Z</time></trkpt><trkpt lat="43.66259560084708" lon="10.704458910621605"><ele>29.0</ele><time>2026-05-02T07:39:34.999Z</time></trkpt><trkpt lat="43.662475886824005" lon="10.70418479938527"><ele>29.0</ele><time>2026-05-02T07:39:35.999Z</time></trkpt><trkpt lat="43.66235598990488" lon="10.703913988750191"><ele>29.0</ele><time>2026-05-02T07:39:36.999Z</time></trkpt><trkpt lat="43.66222000564247" lon="10.703611189096101"><ele>30.0</ele><time>2026-05-02T07:39:37.999Z</time></trkpt><trkpt lat="43.662077973707085" lon="10.703294988706386"><ele>31.0</ele><time>2026-05-02T07:39:38.999Z</time></trkpt><trkpt lat="43.66193340285694" lon="10.702979658369461"><ele>34.5</ele><time>2026-05-02T07:39:39.999Z</time></trkpt><trkpt lat="43.66179327697875" lon="10.702680995837353"><ele>38.0</ele><time>2026-05-02T07:39:40.999Z</time></trkpt><trkpt lat="43.661660445156684" lon="10.702394356773928"><ele>38.0</ele><time>2026-05-02T07:39:41.999Z</time></trkpt><trkpt lat="43.661531292630556" lon="10.70210239405758"><ele>38.0</ele><time>2026-05-02T07:39:42.999Z</time></trkpt><trkpt lat="43.66140210808095" lon="10.701813712781993"><ele>40.5</ele><time>2026-05-02T07:39:43.999Z</time></trkpt><trkpt lat="43.66126889520654" lon="10.70153006796027"><ele>43.0</ele><time>2026-05-02T07:39:44.999Z</time></trkpt><trkpt lat="43.66114158241803" lon="10.701250222647332"><ele>43.0</ele><time>2026-05-02T07:39:45.999Z</time></trkpt><trkpt lat="43.66101916175976" lon="10.700962877486017"><ele>43.0</ele><time>2026-05-02T07:39:46.999Z</time></trkpt><trkpt lat="43.66089876582407" lon="10.700662491147877"><ele>43.0</ele><time>2026-05-02T07:39:47.999Z</time></trkpt><trkpt lat="43.66081196807597" lon="10.700386950507788"><ele>43.0</ele><time>2026-05-02T07:39:48.999Z</time></trkpt><trkpt lat="43.6607302633595" lon="10.700076037257903"><ele>41.0</ele><time>2026-05-02T07:39:49.999Z</time></trkpt><trkpt lat="43.66064738988584" lon="10.69975564172088"><ele>39.0</ele><time>2026-05-02T07:39:50.999Z</time></trkpt><trkpt lat="43.66056829893386" lon="10.699425232092482"><ele>41.0</ele><time>2026-05-02T07:39:51.999Z</time></trkpt><trkpt lat="43.6604911017992" lon="10.699094715388782"><ele>43.0</ele><time>2026-05-02T07:39:52.999Z</time></trkpt><trkpt lat="43.660417158916204" lon="10.69877228302076"><ele>47.5</ele><time>2026-05-02T07:39:53.999Z</time></trkpt><trkpt lat="43.660344334567284" lon="10.698468516375605"><ele>52.0</ele><time>2026-05-02T07:39:54.999Z</time></trkpt><trkpt lat="43.660275812065585" lon="10.698168780079959"><ele>52.0</ele><time>2026-05-02T07:39:55.999Z</time></trkpt><trkpt lat="43.660205779191465" lon="10.697868150892532"><ele>52.0</ele><time>2026-05-02T07:39:56.999Z</time></trkpt><trkpt lat="43.66013813100257" lon="10.69757093168411"><ele>52.0</ele><time>2026-05-02T07:39:57.999Z</time></trkpt><trkpt lat="43.66007506954095" lon="10.697278148407607"><ele>52.0</ele><time>2026-05-02T07:39:58.999Z</time></trkpt><trkpt lat="43.660014416664126" lon="10.696993448298599"><ele>52.0</ele><time>2026-05-02T07:39:59.999Z</time></trkpt><trkpt lat="43.65992124109904" lon="10.696663754154027"><ele>50.33333333333333</ele><time>2026-05-02T07:40:00.999Z</time></trkpt><trkpt lat="43.659850616623224" lon="10.696370855268897"><ele>48.666666666666664</ele><time>2026-05-02T07:40:01.999Z</time></trkpt><trkpt lat="43.65978474965542" lon="10.69608928973409"><ele>47.0</ele><time>2026-05-02T07:40:02.999Z</time></trkpt><trkpt lat="43.659716192859555" lon="10.695798797206686"><ele>46.0</ele><time>2026-05-02T07:40:03.999Z</time></trkpt><trkpt lat="43.65965039206598" lon="10.69551553266002"><ele>45.0</ele><time>2026-05-02T07:40:04.999Z</time></trkpt><trkpt lat="43.65957975115537" lon="10.695205534800735"><ele>45.0</ele><time>2026-05-02T07:40:05.999Z</time></trkpt><trkpt lat="43.65950645507664" lon="10.694906795314996"><ele>45.0</ele><time>2026-05-02T07:40:06.999Z</time></trkpt><trkpt lat="43.65943740596621" lon="10.69461299105908"><ele>42.5</ele><time>2026-05-02T07:40:07.999Z</time></trkpt><trkpt lat="43.65937076974703" lon="10.694319679701183"><ele>40.0</ele><time>2026-05-02T07:40:08.999Z</time></trkpt><trkpt lat="43.659303142320844" lon="10.694014973827855"><ele>40.0</ele><time>2026-05-02T07:40:09.999Z</time></trkpt><trkpt lat="43.65923422230927" lon="10.693710093904006"><ele>40.0</ele><time>2026-05-02T07:40:10.999Z</time></trkpt><trkpt lat="43.659163059572904" lon="10.693402244364828"><ele>38.0</ele><time>2026-05-02T07:40:11.999Z</time></trkpt><trkpt lat="43.659094898222975" lon="10.693099494257355"><ele>36.0</ele><time>2026-05-02T07:40:12.999Z</time></trkpt><trkpt lat="43.659026173516644" lon="10.692806856474236"><ele>35.0</ele><time>2026-05-02T07:40:13.999Z</time></trkpt><trkpt lat="43.658955797640225" lon="10.692503046515737"><ele>34.0</ele><time>2026-05-02T07:40:14.999Z</time></trkpt><trkpt lat="43.65887680793142" lon="10.692163803671987"><ele>29.5</ele><time>2026-05-02T07:40:15.999Z</time></trkpt><trkpt lat="43.65878668037887" lon="10.691792691805052"><ele>25.0</ele><time>2026-05-02T07:40:16.999Z</time></trkpt><trkpt lat="43.65869156258083" lon="10.69139499734597"><ele>23.0</ele><time>2026-05-02T07:40:17.999Z</time></trkpt><trkpt lat="43.658603318824746" lon="10.691006798477524"><ele>21.0</ele><time>2026-05-02T07:40:18.999Z</time></trkpt><trkpt lat="43.65852323673501" lon="10.690668619067973"><ele>21.0</ele><time>2026-05-02T07:40:19.999Z</time></trkpt><trkpt lat="43.65844487817442" lon="10.690338345897779"><ele>21.0</ele><time>2026-05-02T07:40:20.999Z</time></trkpt><trkpt lat="43.65837302780513" lon="10.690028974349287"><ele>20.333333333333332</ele><time>2026-05-02T07:40:21.999Z</time></trkpt><trkpt lat="43.65830561708893" lon="10.689739155962146"><ele>19.666666666666664</ele><time>2026-05-02T07:40:22.999Z</time></trkpt><trkpt lat="43.65824066969915" lon="10.68946689666312"><ele>19.0</ele><time>2026-05-02T07:40:23.999Z</time></trkpt><trkpt lat="43.65817714307605" lon="10.68919093050332"><ele>19.0</ele><time>2026-05-02T07:40:24.999Z</time></trkpt><trkpt lat="43.6581136644689" lon="10.688912758782342"><ele>19.0</ele><time>2026-05-02T07:40:25.999Z</time></trkpt><trkpt lat="43.65805183323906" lon="10.688644802171229"><ele>19.0</ele><time>2026-05-02T07:40:26.999Z</time></trkpt><trkpt lat="43.657991583499154" lon="10.688383916171105"><ele>18.666666666666664</ele><time>2026-05-02T07:40:27.999Z</time></trkpt><trkpt lat="43.65793105463436" lon="10.688121495668028"><ele>18.333333333333332</ele><time>2026-05-02T07:40:28.999Z</time></trkpt><trkpt lat="43.65787245612771" lon="10.687864468233908"><ele>18.0</ele><time>2026-05-02T07:40:29.999Z</time></trkpt><trkpt lat="43.657812737152945" lon="10.6876069969494"><ele>19.333333333333332</ele><time>2026-05-02T07:40:30.999Z</time></trkpt><trkpt lat="43.657756440484384" lon="10.68735896934982"><ele>20.666666666666664</ele><time>2026-05-02T07:40:31.999Z</time></trkpt><trkpt lat="43.65770435440839" lon="10.687134647620029"><ele>22.0</ele><time>2026-05-02T07:40:32.999Z</time></trkpt><trkpt lat="43.65764335188383" lon="10.686854812109507"><ele>24.666666666666664</ele><time>2026-05-02T07:40:33.999Z</time></trkpt><trkpt lat="43.657586253858476" lon="10.686631192543496"><ele>27.333333333333332</ele><time>2026-05-02T07:40:34.999Z</time></trkpt><trkpt lat="43.65752563922427" lon="10.686412031980435"><ele>30.0</ele><time>2026-05-02T07:40:35.999Z</time></trkpt><trkpt lat="43.65745218139812" lon="10.686188728722081"><ele>29.0</ele><time>2026-05-02T07:40:36.999Z</time></trkpt><trkpt lat="43.65736889145219" lon="10.685977996097003"><ele>28.0</ele><time>2026-05-02T07:40:37.999Z</time></trkpt><trkpt lat="43.65727738719086" lon="10.685779270827883"><ele>27.0</ele><time>2026-05-02T07:40:38.999Z</time></trkpt><trkpt lat="43.657183166878795" lon="10.685597002320783"><ele>27.0</ele><time>2026-05-02T07:40:39.999Z</time></trkpt><trkpt lat="43.65708562751966" lon="10.685422300161592"><ele>27.0</ele><time>2026-05-02T07:40:40.998Z</time></trkpt><trkpt lat="43.656985391460275" lon="10.685244556827874"><ele>27.0</ele><time>2026-05-02T07:40:41.998Z</time></trkpt><trkpt lat="43.656880967692096" lon="10.685069857470365"><ele>30.666666666666664</ele><time>2026-05-02T07:40:42.998Z</time></trkpt><trkpt lat="43.65676938982705" lon="10.684890491136738"><ele>34.33333333333333</ele><time>2026-05-02T07:40:43.998Z</time></trkpt><trkpt lat="43.656654763728845" lon="10.684718896563432"><ele>38.0</ele><time>2026-05-02T07:40:44.998Z</time></trkpt><trkpt lat="43.65653742865664" lon="10.684554241421017"><ele>37.33333333333333</ele><time>2026-05-02T07:40:45.998Z</time></trkpt><trkpt lat="43.65642181845142" lon="10.684380273035742"><ele>36.666666666666664</ele><time>2026-05-02T07:40:46.998Z</time></trkpt><trkpt lat="43.65629298651932" lon="10.684191186559332"><ele>36.0</ele><time>2026-05-02T07:40:47.998Z</time></trkpt><trkpt lat="43.65616136486476" lon="10.68399225695398"><ele>37.333333333333336</ele><time>2026-05-02T07:40:48.998Z</time></trkpt><trkpt lat="43.656023172498976" lon="10.683780998377557"><ele>38.66666666666667</ele><time>2026-05-02T07:40:49.998Z</time></trkpt><trkpt lat="43.655879084010394" lon="10.683564303179248"><ele>40.0</ele><time>2026-05-02T07:40:50.998Z</time></trkpt><trkpt lat="43.65573401617203" lon="10.683343924904355"><ele>40.0</ele><time>2026-05-02T07:40:51.998Z</time></trkpt><trkpt lat="43.655589829965656" lon="10.683126353044003"><ele>40.0</ele><time>2026-05-02T07:40:52.998Z</time></trkpt><trkpt lat="43.65544139105671" lon="10.682898790919571"><ele>40.0</ele><time>2026-05-02T07:40:53.998Z</time></trkpt><trkpt lat="43.655295209142245" lon="10.682672829466304"><ele>40.5</ele><time>2026-05-02T07:40:55Z</time></trkpt><trkpt lat="43.65514553336264" lon="10.682432554588654"><ele>41.0</ele><time>2026-05-02T07:40:56Z</time></trkpt><trkpt lat="43.65499493199597" lon="10.68214340916214"><ele>41.5</ele><time>2026-05-02T07:40:57Z</time></trkpt><trkpt lat="43.65484747109576" lon="10.6818651343288"><ele>42.0</ele><time>2026-05-02T07:40:58Z</time></trkpt><trkpt lat="43.65471714134208" lon="10.681580467939213"><ele>42.0</ele><time>2026-05-02T07:40:59Z</time></trkpt><trkpt lat="43.65459174000415" lon="10.681286805310435"><ele>42.0</ele><time>2026-05-02T07:41:00Z</time></trkpt><trkpt lat="43.654479259169605" lon="10.680986714633214"><ele>34.0</ele><time>2026-05-02T07:41:01Z</time></trkpt><trkpt lat="43.65437324154545" lon="10.68068075220028"><ele>26.0</ele><time>2026-05-02T07:41:02Z</time></trkpt><trkpt lat="43.65427658974289" lon="10.680362780488093"><ele>25.0</ele><time>2026-05-02T07:41:03Z</time></trkpt><trkpt lat="43.65418531114826" lon="10.680043556377603"><ele>24.0</ele><time>2026-05-02T07:41:04Z</time></trkpt><trkpt lat="43.6541020893957" lon="10.679711652566175"><ele>23.0</ele><time>2026-05-02T07:41:05Z</time></trkpt><trkpt lat="43.65402988949668" lon="10.67936898592244"><ele>22.0</ele><time>2026-05-02T07:41:06Z</time></trkpt><trkpt lat="43.6539643670073" lon="10.679017803479333"><ele>22.0</ele><time>2026-05-02T07:41:07Z</time></trkpt><trkpt lat="43.65390912149896" lon="10.678657745269593"><ele>22.0</ele><time>2026-05-02T07:41:08Z</time></trkpt><trkpt lat="43.65386662724985" lon="10.678288348881127"><ele>22.0</ele><time>2026-05-02T07:41:09Z</time></trkpt><trkpt lat="43.653829783454185" lon="10.67791003425811"><ele>22.0</ele><time>2026-05-02T07:41:10Z</time></trkpt><trkpt lat="43.6538084582312" lon="10.677542545377264"><ele>21.0</ele><time>2026-05-02T07:41:11Z</time></trkpt><trkpt lat="43.653801123684694" lon="10.677164406524165"><ele>20.0</ele><time>2026-05-02T07:41:12Z</time></trkpt><trkpt lat="43.65380507550461" lon="10.6768067013677"><ele>20.0</ele><time>2026-05-02T07:41:13Z</time></trkpt><trkpt lat="43.653815022735884" lon="10.676467930061808"><ele>20.0</ele><time>2026-05-02T07:41:14Z</time></trkpt><trkpt lat="43.65384441586667" lon="10.676093560909917"><ele>20.0</ele><time>2026-05-02T07:41:15Z</time></trkpt><trkpt lat="43.653878448271996" lon="10.675734055108695"><ele>20.0</ele><time>2026-05-02T07:41:16Z</time></trkpt><trkpt lat="43.65391998671455" lon="10.675389177457793"><ele>20.0</ele><time>2026-05-02T07:41:17Z</time></trkpt><trkpt lat="43.65397004845922" lon="10.675033326369991"><ele>20.0</ele><time>2026-05-02T07:41:18Z</time></trkpt><trkpt lat="43.654020316373675" lon="10.674695689435808"><ele>19.5</ele><time>2026-05-02T07:41:19Z</time></trkpt><trkpt lat="43.654083608362555" lon="10.674353361787825"><ele>19.0</ele><time>2026-05-02T07:41:20Z</time></trkpt><trkpt lat="43.654152576060014" lon="10.674011266666636"><ele>19.0</ele><time>2026-05-02T07:41:21Z</time></trkpt><trkpt lat="43.65423035105342" lon="10.673668491958363"><ele>19.0</ele><time>2026-05-02T07:41:22Z</time></trkpt><trkpt lat="43.654309358640376" lon="10.673320360551953"><ele>18.0</ele><time>2026-05-02T07:41:23Z</time></trkpt><trkpt lat="43.65439283758721" lon="10.672969545154201"><ele>17.0</ele><time>2026-05-02T07:41:24Z</time></trkpt><trkpt lat="43.654481090399194" lon="10.672619928163462"><ele>17.0</ele><time>2026-05-02T07:41:25Z</time></trkpt><trkpt lat="43.654588887996475" lon="10.672267009140858"><ele>17.0</ele><time>2026-05-02T07:41:26Z</time></trkpt><trkpt lat="43.6546905597333" lon="10.671914528631754"><ele>18.0</ele><time>2026-05-02T07:41:27Z</time></trkpt><trkpt lat="43.65478722708508" lon="10.671569856686284"><ele>19.0</ele><time>2026-05-02T07:41:28Z</time></trkpt><trkpt lat="43.65487873003607" lon="10.671197676651923"><ele>19.5</ele><time>2026-05-02T07:41:29Z</time></trkpt><trkpt lat="43.654971429346055" lon="10.670779817085112"><ele>20.0</ele><time>2026-05-02T07:41:30Z</time></trkpt><trkpt lat="43.65505775719843" lon="10.67032824959884"><ele>19.0</ele><time>2026-05-02T07:41:31Z</time></trkpt><trkpt lat="43.65513852878839" lon="10.669849431789418"><ele>18.0</ele><time>2026-05-02T07:41:32Z</time></trkpt><trkpt lat="43.65521574854172" lon="10.669345704394432"><ele>17.0</ele><time>2026-05-02T07:41:33Z</time></trkpt><trkpt lat="43.6552844361392" lon="10.668827487934397"><ele>16.0</ele><time>2026-05-02T07:41:34Z</time></trkpt><trkpt lat="43.65532849259256" lon="10.668320961792922"><ele>16.0</ele><time>2026-05-02T07:41:35Z</time></trkpt><trkpt lat="43.655355425448874" lon="10.667823137902223"><ele>16.0</ele><time>2026-05-02T07:41:36Z</time></trkpt><trkpt lat="43.6553688266029" lon="10.667341179934533"><ele>15.5</ele><time>2026-05-02T07:41:37Z</time></trkpt><trkpt lat="43.65536718099642" lon="10.666881548508007"><ele>15.0</ele><time>2026-05-02T07:41:38Z</time></trkpt><trkpt lat="43.65535135078007" lon="10.666451571382288"><ele>14.5</ele><time>2026-05-02T07:41:39Z</time></trkpt><trkpt lat="43.65532533918927" lon="10.666038779251089"><ele>14.0</ele><time>2026-05-02T07:41:40Z</time></trkpt><trkpt lat="43.655287655766045" lon="10.665648474363627"><ele>14.5</ele><time>2026-05-02T07:41:40.999Z</time></trkpt><trkpt lat="43.655246617707576" lon="10.665280306722835"><ele>15.0</ele><time>2026-05-02T07:41:41.999Z</time></trkpt><trkpt lat="43.655202421308495" lon="10.66492841069167"><ele>14.0</ele><time>2026-05-02T07:41:42.999Z</time></trkpt><trkpt lat="43.65514696171804" lon="10.664564905020962"><ele>13.0</ele><time>2026-05-02T07:41:43.999Z</time></trkpt><trkpt lat="43.65507628760309" lon="10.664164844912914"><ele>13.0</ele><time>2026-05-02T07:41:44.999Z</time></trkpt><trkpt lat="43.65499171314582" lon="10.66374629098902"><ele>13.0</ele><time>2026-05-02T07:41:45.999Z</time></trkpt><trkpt lat="43.654890005420434" lon="10.663321442327577"><ele>13.5</ele><time>2026-05-02T07:41:46.999Z</time></trkpt><trkpt lat="43.6547700285359" lon="10.662892064702985"><ele>14.0</ele><time>2026-05-02T07:41:47.999Z</time></trkpt><trkpt lat="43.6546319226775" lon="10.662451592989694"><ele>14.5</ele><time>2026-05-02T07:41:48.999Z</time></trkpt><trkpt lat="43.65447366971413" lon="10.662009246204533"><ele>15.0</ele><time>2026-05-02T07:41:49.999Z</time></trkpt><trkpt lat="43.654299991570596" lon="10.661575228533538"><ele>16.0</ele><time>2026-05-02T07:41:50.999Z</time></trkpt><trkpt lat="43.65411499154549" lon="10.661146607222829"><ele>17.0</ele><time>2026-05-02T07:41:51.999Z</time></trkpt><trkpt lat="43.6539258919462" lon="10.660746407120985"><ele>17.0</ele><time>2026-05-02T07:41:52.999Z</time></trkpt><trkpt lat="43.65372809779728" lon="10.660344798051252"><ele>17.0</ele><time>2026-05-02T07:41:53.999Z</time></trkpt><trkpt lat="43.653527186283796" lon="10.659954720763311"><ele>17.0</ele><time>2026-05-02T07:41:54.999Z</time></trkpt><trkpt lat="43.653324917859514" lon="10.659576490970817"><ele>17.0</ele><time>2026-05-02T07:41:55.999Z</time></trkpt><trkpt lat="43.65311905789784" lon="10.659211380050941"><ele>19.0</ele><time>2026-05-02T07:41:56.999Z</time></trkpt><trkpt lat="43.652914568485244" lon="10.658850872365218"><ele>21.0</ele><time>2026-05-02T07:41:57.999Z</time></trkpt><trkpt lat="43.65270923203988" lon="10.658499327732407"><ele>22.0</ele><time>2026-05-02T07:41:58.999Z</time></trkpt><trkpt lat="43.65250699084498" lon="10.658148221764112"><ele>23.0</ele><time>2026-05-02T07:41:59.999Z</time></trkpt><trkpt lat="43.6523026837546" lon="10.657797090994723"><ele>24.0</ele><time>2026-05-02T07:42:00.999Z</time></trkpt><trkpt lat="43.65209525234458" lon="10.657430686383336"><ele>25.0</ele><time>2026-05-02T07:42:01.999Z</time></trkpt><trkpt lat="43.65188920657145" lon="10.65708066822513"><ele>24.5</ele><time>2026-05-02T07:42:02.999Z</time></trkpt><trkpt lat="43.65169383847215" lon="10.656736443136017"><ele>24.0</ele><time>2026-05-02T07:42:03.999Z</time></trkpt><trkpt lat="43.65150243304287" lon="10.65640724519877"><ele>25.0</ele><time>2026-05-02T07:42:04.999Z</time></trkpt><trkpt lat="43.65132013684494" lon="10.65608850654795"><ele>26.0</ele><time>2026-05-02T07:42:05.999Z</time></trkpt><trkpt lat="43.65115072513097" lon="10.655793970828705"><ele>27.0</ele><time>2026-05-02T07:42:06.999Z</time></trkpt><trkpt lat="43.650983407387294" lon="10.655508874554632"><ele>28.0</ele><time>2026-05-02T07:42:07.999Z</time></trkpt><trkpt lat="43.65083332707376" lon="10.655238778926291"><ele>26.0</ele><time>2026-05-02T07:42:08.999Z</time></trkpt><trkpt lat="43.65068165437284" lon="10.654957916435576"><ele>24.0</ele><time>2026-05-02T07:42:09.999Z</time></trkpt><trkpt lat="43.650516275295665" lon="10.65468855711046"><ele>23.0</ele><time>2026-05-02T07:42:10.999Z</time></trkpt><trkpt lat="43.65036119266332" lon="10.654413792240607"><ele>22.0</ele><time>2026-05-02T07:42:11.999Z</time></trkpt><trkpt lat="43.65021080592847" lon="10.65414421937343"><ele>22.0</ele><time>2026-05-02T07:42:12.999Z</time></trkpt><trkpt lat="43.65005963856719" lon="10.65388512573064"><ele>22.0</ele><time>2026-05-02T07:42:13.999Z</time></trkpt><trkpt lat="43.64991365378882" lon="10.653633990985623"><ele>21.5</ele><time>2026-05-02T07:42:14.999Z</time></trkpt><trkpt lat="43.64976613561408" lon="10.65337944478064"><ele>21.0</ele><time>2026-05-02T07:42:15.999Z</time></trkpt><trkpt lat="43.649638981237956" lon="10.653119574727778"><ele>21.0</ele><time>2026-05-02T07:42:16.999Z</time></trkpt><trkpt lat="43.64950713836558" lon="10.652898279047742"><ele>21.0</ele><time>2026-05-02T07:42:17.999Z</time></trkpt><trkpt lat="43.649374270469806" lon="10.652672312230322"><ele>21.0</ele><time>2026-05-02T07:42:18.999Z</time></trkpt><trkpt lat="43.649234049188436" lon="10.65243958222908"><ele>20.333333333333332</ele><time>2026-05-02T07:42:19.999Z</time></trkpt><trkpt lat="43.64908463836071" lon="10.652217892444176"><ele>19.666666666666664</ele><time>2026-05-02T07:42:20.999Z</time></trkpt><trkpt lat="43.64895809067487" lon="10.651975847955063"><ele>19.0</ele><time>2026-05-02T07:42:21.999Z</time></trkpt><trkpt lat="43.64882746296906" lon="10.651745253961673"><ele>18.333333333333332</ele><time>2026-05-02T07:42:22.999Z</time></trkpt><trkpt lat="43.64870009778213" lon="10.651511875204363"><ele>17.666666666666668</ele><time>2026-05-02T07:42:23.999Z</time></trkpt><trkpt lat="43.64856147322159" lon="10.651270247665032"><ele>17.0</ele><time>2026-05-02T07:42:24.999Z</time></trkpt><trkpt lat="43.64841826381278" lon="10.65101719396053"><ele>16.333333333333336</ele><time>2026-05-02T07:42:25.999Z</time></trkpt><trkpt lat="43.648284309308835" lon="10.650773726253291"><ele>15.666666666666668</ele><time>2026-05-02T07:42:26.999Z</time></trkpt><trkpt lat="43.64815247925022" lon="10.650534716622902"><ele>15.0</ele><time>2026-05-02T07:42:27.999Z</time></trkpt><trkpt lat="43.64803337744379" lon="10.650300536926721"><ele>14.666666666666668</ele><time>2026-05-02T07:42:28.999Z</time></trkpt><trkpt lat="43.647923853085125" lon="10.650081399640104"><ele>14.333333333333334</ele><time>2026-05-02T07:42:29.999Z</time></trkpt><trkpt lat="43.647824221397286" lon="10.649874788498664"><ele>14.0</ele><time>2026-05-02T07:42:30.999Z</time></trkpt><trkpt lat="43.64774176065281" lon="10.64967403313758"><ele>14.0</ele><time>2026-05-02T07:42:31.999Z</time></trkpt><trkpt lat="43.64766293451769" lon="10.64947850952008"><ele>14.0</ele><time>2026-05-02T07:42:32.999Z</time></trkpt><trkpt lat="43.6475911944037" lon="10.649282860359659"><ele>14.0</ele><time>2026-05-02T07:42:33.999Z</time></trkpt><trkpt lat="43.64752437794166" lon="10.649092178795703"><ele>13.75</ele><time>2026-05-02T07:42:34.999Z</time></trkpt><trkpt lat="43.647466894100454" lon="10.64891705858665"><ele>13.5</ele><time>2026-05-02T07:42:35.999Z</time></trkpt><trkpt lat="43.6474251490213" lon="10.648761080874445"><ele>13.25</ele><time>2026-05-02T07:42:36.999Z</time></trkpt><trkpt lat="43.64737171325308" lon="10.64861261254433"><ele>13.0</ele><time>2026-05-02T07:42:37.999Z</time></trkpt><trkpt lat="43.64733158137736" lon="10.648482097425976"><ele>13.8</ele><time>2026-05-02T07:42:38.999Z</time></trkpt><trkpt lat="43.647295531369934" lon="10.648355610713697"><ele>14.600000000000001</ele><time>2026-05-02T07:42:39.999Z</time></trkpt><trkpt lat="43.64726270202459" lon="10.64823879467498"><ele>15.399999999999999</ele><time>2026-05-02T07:42:40.999Z</time></trkpt><trkpt lat="43.64723192397728" lon="10.648123776596837"><ele>16.2</ele><time>2026-05-02T07:42:41.999Z</time></trkpt><trkpt lat="43.647200083363785" lon="10.648010453412587"><ele>17.0</ele><time>2026-05-02T07:42:42.999Z</time></trkpt><trkpt lat="43.647170587800765" lon="10.64789656931505"><ele>17.5</ele><time>2026-05-02T07:42:43.999Z</time></trkpt><trkpt lat="43.64714433873751" lon="10.647789576482348"><ele>18.0</ele><time>2026-05-02T07:42:44.999Z</time></trkpt><trkpt lat="43.647121007327456" lon="10.647682365917262"><ele>18.5</ele><time>2026-05-02T07:42:45.999Z</time></trkpt><trkpt lat="43.64710259458232" lon="10.647573591219885"><ele>19.0</ele><time>2026-05-02T07:42:46.998Z</time></trkpt><trkpt lat="43.64707908885354" lon="10.647461560423775"><ele>19.5</ele><time>2026-05-02T07:42:47.998Z</time></trkpt><trkpt lat="43.64706739209855" lon="10.647329747230861"><ele>20.0</ele><time>2026-05-02T07:42:48.998Z</time></trkpt><trkpt lat="43.64705147241091" lon="10.647183940511384"><ele>20.0</ele><time>2026-05-02T07:42:49.998Z</time></trkpt><trkpt lat="43.64701739366617" lon="10.647026030833306"><ele>20.0</ele><time>2026-05-02T07:42:50.998Z</time></trkpt><trkpt lat="43.64698844245429" lon="10.6468578229102"><ele>20.0</ele><time>2026-05-02T07:42:52.026Z</time></trkpt><trkpt lat="43.64695471692892" lon="10.646654385185878"><ele>20.0</ele><time>2026-05-02T07:42:53.014Z</time></trkpt><trkpt lat="43.64693722031625" lon="10.646441131339424"><ele>20.5</ele><time>2026-05-02T07:42:54.024Z</time></trkpt><trkpt lat="43.646918393509004" lon="10.646273155078148"><ele>21.0</ele><time>2026-05-02T07:42:55.016Z</time></trkpt><trkpt lat="43.64693519027524" lon="10.646057848540611"><ele>21.5</ele><time>2026-05-02T07:42:56.018Z</time></trkpt><trkpt lat="43.64691838854898" lon="10.645837672227149"><ele>22.0</ele><time>2026-05-02T07:42:57.012Z</time></trkpt><trkpt lat="43.64690234500218" lon="10.645608997524048"><ele>22.0</ele><time>2026-05-02T07:42:58.017Z</time></trkpt><trkpt lat="43.64688256890481" lon="10.645371957213595"><ele>22.0</ele><time>2026-05-02T07:42:59.02Z</time></trkpt><trkpt lat="43.6467789760293" lon="10.645120795773535"><ele>22.0</ele><time>2026-05-02T07:43:00.023Z</time></trkpt><trkpt lat="43.64687969912183" lon="10.643943054611462"><ele>22.0</ele><time>2026-05-02T07:43:03.998Z</time></trkpt><trkpt lat="43.646884820264034" lon="10.643713245413227"><ele>22.0</ele><time>2026-05-02T07:43:04.998Z</time></trkpt><trkpt lat="43.64684987791628" lon="10.643579198816353"><ele>22.0</ele><time>2026-05-02T07:43:05.998Z</time></trkpt><trkpt lat="43.64685515017983" lon="10.643359486778639"><ele>22.0</ele><time>2026-05-02T07:43:06.998Z</time></trkpt><trkpt lat="43.64685455131409" lon="10.643147454717228"><ele>21.333333333333332</ele><time>2026-05-02T07:43:07.998Z</time></trkpt><trkpt lat="43.6468610831525" lon="10.642933190410957"><ele>20.666666666666668</ele><time>2026-05-02T07:43:08.998Z</time></trkpt><trkpt lat="43.64687099409404" lon="10.6427188693709"><ele>20.0</ele><time>2026-05-02T07:43:10Z</time></trkpt><trkpt lat="43.6468719086071" lon="10.642499933142032"><ele>19.666666666666668</ele><time>2026-05-02T07:43:11Z</time></trkpt><trkpt lat="43.646878138619336" lon="10.642264175984838"><ele>19.333333333333332</ele><time>2026-05-02T07:43:12Z</time></trkpt><trkpt lat="43.64689085524737" lon="10.642022719627775"><ele>19.0</ele><time>2026-05-02T07:43:13Z</time></trkpt><trkpt lat="43.64689234010465" lon="10.641778038375767"><ele>18.666666666666664</ele><time>2026-05-02T07:43:14Z</time></trkpt><trkpt lat="43.6468897289836" lon="10.641505303622182"><ele>18.333333333333332</ele><time>2026-05-02T07:43:15Z</time></trkpt><trkpt lat="43.646897548626725" lon="10.641216470339764"><ele>18.0</ele><time>2026-05-02T07:43:16Z</time></trkpt><trkpt lat="43.64690193398735" lon="10.640922550652617"><ele>17.333333333333332</ele><time>2026-05-02T07:43:17Z</time></trkpt><trkpt lat="43.64689932674717" lon="10.640620623702137"><ele>16.666666666666664</ele><time>2026-05-02T07:43:18Z</time></trkpt><trkpt lat="43.64689979572994" lon="10.640315152625776"><ele>16.0</ele><time>2026-05-02T07:43:19Z</time></trkpt><trkpt lat="43.646904996112326" lon="10.64001595796118"><ele>16.0</ele><time>2026-05-02T07:43:20Z</time></trkpt><trkpt lat="43.646910974341885" lon="10.639729022578148"><ele>16.0</ele><time>2026-05-02T07:43:21Z</time></trkpt><trkpt lat="43.64691244044714" lon="10.639439367484917"><ele>16.0</ele><time>2026-05-02T07:43:22Z</time></trkpt><trkpt lat="43.64692114601618" lon="10.639148986473359"><ele>16.333333333333332</ele><time>2026-05-02T07:43:23Z</time></trkpt><trkpt lat="43.64692672875733" lon="10.638848002770489"><ele>16.666666666666668</ele><time>2026-05-02T07:43:24Z</time></trkpt><trkpt lat="43.64692870338545" lon="10.638540003362273"><ele>17.0</ele><time>2026-05-02T07:43:25Z</time></trkpt><trkpt lat="43.64693249738823" lon="10.63821933420726"><ele>17.0</ele><time>2026-05-02T07:43:26Z</time></trkpt><trkpt lat="43.64693617891523" lon="10.637896611041015"><ele>17.0</ele><time>2026-05-02T07:43:27Z</time></trkpt><trkpt lat="43.646944144115295" lon="10.637565980560229"><ele>16.5</ele><time>2026-05-02T07:43:28Z</time></trkpt><trkpt lat="43.64694969216778" lon="10.637238190186375"><ele>16.0</ele><time>2026-05-02T07:43:29Z</time></trkpt><trkpt lat="43.64695636814083" lon="10.636907672666979"><ele>16.5</ele><time>2026-05-02T07:43:30Z</time></trkpt><trkpt lat="43.64696142357793" lon="10.636587285225776"><ele>17.0</ele><time>2026-05-02T07:43:31Z</time></trkpt><trkpt lat="43.646966208595636" lon="10.63626970038044"><ele>16.5</ele><time>2026-05-02T07:43:32Z</time></trkpt><trkpt lat="43.64697424612569" lon="10.635953934447093"><ele>16.0</ele><time>2026-05-02T07:43:33Z</time></trkpt><trkpt lat="43.64697846832295" lon="10.635631772756659"><ele>16.0</ele><time>2026-05-02T07:43:34Z</time></trkpt><trkpt lat="43.64698490655048" lon="10.635308235234794"><ele>16.0</ele><time>2026-05-02T07:43:35Z</time></trkpt><trkpt lat="43.64698905613936" lon="10.634985489454662"><ele>16.5</ele><time>2026-05-02T07:43:36Z</time></trkpt><trkpt lat="43.64699608767193" lon="10.634656181356533"><ele>17.0</ele><time>2026-05-02T07:43:37Z</time></trkpt><trkpt lat="43.64699553887799" lon="10.634323645724383"><ele>17.0</ele><time>2026-05-02T07:43:38Z</time></trkpt><trkpt lat="43.64699807198878" lon="10.63400199301286"><ele>17.0</ele><time>2026-05-02T07:43:39Z</time></trkpt><trkpt lat="43.647011142779554" lon="10.633680292098974"><ele>15.5</ele><time>2026-05-02T07:43:40Z</time></trkpt><trkpt lat="43.64701915451289" lon="10.633360741931304"><ele>14.0</ele><time>2026-05-02T07:43:41Z</time></trkpt><trkpt lat="43.64702894590862" lon="10.633038498764389"><ele>14.5</ele><time>2026-05-02T07:43:42Z</time></trkpt><trkpt lat="43.64703480629314" lon="10.632718502776866"><ele>15.0</ele><time>2026-05-02T07:43:43Z</time></trkpt><trkpt lat="43.64703949879392" lon="10.632395556722841"><ele>15.0</ele><time>2026-05-02T07:43:44Z</time></trkpt><trkpt lat="43.64704453232219" lon="10.632077550388573"><ele>15.0</ele><time>2026-05-02T07:43:45Z</time></trkpt><trkpt lat="43.647050916979964" lon="10.631750587458"><ele>16.5</ele><time>2026-05-02T07:43:46Z</time></trkpt><trkpt lat="43.647060292650956" lon="10.631418210086434"><ele>18.0</ele><time>2026-05-02T07:43:47Z</time></trkpt><trkpt lat="43.64706627894006" lon="10.631080902019768"><ele>18.0</ele><time>2026-05-02T07:43:48Z</time></trkpt><trkpt lat="43.64706851630182" lon="10.630740934173636"><ele>18.0</ele><time>2026-05-02T07:43:49Z</time></trkpt><trkpt lat="43.64707309435899" lon="10.630400552494907"><ele>17.5</ele><time>2026-05-02T07:43:50Z</time></trkpt><trkpt lat="43.64707702406165" lon="10.630054596226294"><ele>17.0</ele><time>2026-05-02T07:43:51Z</time></trkpt><trkpt lat="43.64708192093385" lon="10.629701367223948"><ele>17.0</ele><time>2026-05-02T07:43:52Z</time></trkpt><trkpt lat="43.64708648512371" lon="10.629351937728904"><ele>17.0</ele><time>2026-05-02T07:43:53Z</time></trkpt><trkpt lat="43.647091379422726" lon="10.629007559624874"><ele>17.0</ele><time>2026-05-02T07:43:54Z</time></trkpt><trkpt lat="43.64709682249392" lon="10.62866683644657"><ele>17.0</ele><time>2026-05-02T07:43:55Z</time></trkpt><trkpt lat="43.64709754707748" lon="10.628320536862468"><ele>16.5</ele><time>2026-05-02T07:43:55.999Z</time></trkpt><trkpt lat="43.64709248637732" lon="10.627971025569156"><ele>16.0</ele><time>2026-05-02T07:43:56.999Z</time></trkpt><trkpt lat="43.6470812674839" lon="10.627625128297502"><ele>16.0</ele><time>2026-05-02T07:43:57.999Z</time></trkpt><trkpt lat="43.64706390942738" lon="10.627276187791004"><ele>16.0</ele><time>2026-05-02T07:43:58.999Z</time></trkpt><trkpt lat="43.64703654475314" lon="10.626931487398942"><ele>16.5</ele><time>2026-05-02T07:43:59.999Z</time></trkpt><trkpt lat="43.647003326872266" lon="10.626583596710553"><ele>17.0</ele><time>2026-05-02T07:44:00.999Z</time></trkpt><trkpt lat="43.64695722578256" lon="10.626237913371854"><ele>16.0</ele><time>2026-05-02T07:44:01.999Z</time></trkpt><trkpt lat="43.646898439326975" lon="10.625897611287641"><ele>15.0</ele><time>2026-05-02T07:44:02.999Z</time></trkpt><trkpt lat="43.646827888288215" lon="10.625551995468456"><ele>15.0</ele><time>2026-05-02T07:44:03.999Z</time></trkpt><trkpt lat="43.64674583798257" lon="10.625202208966899"><ele>15.0</ele><time>2026-05-02T07:44:04.999Z</time></trkpt><trkpt lat="43.646653955473276" lon="10.624860057630721"><ele>15.0</ele><time>2026-05-02T07:44:05.999Z</time></trkpt><trkpt lat="43.646549594262595" lon="10.624525396045623"><ele>15.0</ele><time>2026-05-02T07:44:06.999Z</time></trkpt><trkpt lat="43.64643952429836" lon="10.624195660582581"><ele>14.5</ele><time>2026-05-02T07:44:07.999Z</time></trkpt><trkpt lat="43.646321035481556" lon="10.623876599939159"><ele>14.0</ele><time>2026-05-02T07:44:08.999Z</time></trkpt><trkpt lat="43.646193452561484" lon="10.623560432194738"><ele>14.5</ele><time>2026-05-02T07:44:09.999Z</time></trkpt><trkpt lat="43.64605811731587" lon="10.623261252088009"><ele>15.0</ele><time>2026-05-02T07:44:10.999Z</time></trkpt><trkpt lat="43.64591869999578" lon="10.622974444816792"><ele>16.0</ele><time>2026-05-02T07:44:11.999Z</time></trkpt><trkpt lat="43.64577238604588" lon="10.622700810814647"><ele>17.0</ele><time>2026-05-02T07:44:12.999Z</time></trkpt><trkpt lat="43.645625108073624" lon="10.622441154728277"><ele>17.0</ele><time>2026-05-02T07:44:13.999Z</time></trkpt><trkpt lat="43.64547656690877" lon="10.622196728834965"><ele>17.0</ele><time>2026-05-02T07:44:14.999Z</time></trkpt><trkpt lat="43.64531954598455" lon="10.621955873618356"><ele>16.5</ele><time>2026-05-02T07:44:15.999Z</time></trkpt><trkpt lat="43.645155448265285" lon="10.621718477761423"><ele>16.0</ele><time>2026-05-02T07:44:16.999Z</time></trkpt><trkpt lat="43.644984995223474" lon="10.62147891543491"><ele>16.0</ele><time>2026-05-02T07:44:17.999Z</time></trkpt><trkpt lat="43.644818291723425" lon="10.621245789682144"><ele>16.0</ele><time>2026-05-02T07:44:18.999Z</time></trkpt><trkpt lat="43.644651274565035" lon="10.621016649294543"><ele>15.5</ele><time>2026-05-02T07:44:19.999Z</time></trkpt><trkpt lat="43.64448411710194" lon="10.620791777301621"><ele>15.0</ele><time>2026-05-02T07:44:20.999Z</time></trkpt><trkpt lat="43.644317476726044" lon="10.620577755283097"><ele>15.0</ele><time>2026-05-02T07:44:21.999Z</time></trkpt><trkpt lat="43.64415331028595" lon="10.620363156057794"><ele>15.0</ele><time>2026-05-02T07:44:22.999Z</time></trkpt><trkpt lat="43.64398909340707" lon="10.620146669785411"><ele>15.333333333333332</ele><time>2026-05-02T07:44:23.999Z</time></trkpt><trkpt lat="43.64382639414218" lon="10.619931287364379"><ele>15.666666666666666</ele><time>2026-05-02T07:44:24.999Z</time></trkpt><trkpt lat="43.64366699043096" lon="10.619718887493066"><ele>16.0</ele><time>2026-05-02T07:44:25.999Z</time></trkpt><trkpt lat="43.643505368007546" lon="10.619506170424067"><ele>15.0</ele><time>2026-05-02T07:44:26.999Z</time></trkpt><trkpt lat="43.643341171211205" lon="10.619292872837647"><ele>14.0</ele><time>2026-05-02T07:44:27.999Z</time></trkpt><trkpt lat="43.643175012392675" lon="10.619076155405503"><ele>14.0</ele><time>2026-05-02T07:44:28.999Z</time></trkpt><trkpt lat="43.64301171590472" lon="10.618859775047072"><ele>14.0</ele><time>2026-05-02T07:44:29.999Z</time></trkpt><trkpt lat="43.642852806511065" lon="10.618650144002768"><ele>14.0</ele><time>2026-05-02T07:44:30.999Z</time></trkpt><trkpt lat="43.642693862520595" lon="10.618444025749945"><ele>14.0</ele><time>2026-05-02T07:44:31.999Z</time></trkpt><trkpt lat="43.64253169217305" lon="10.618227599310519"><ele>14.0</ele><time>2026-05-02T07:44:32.999Z</time></trkpt><trkpt lat="43.64237095329605" lon="10.6180173329484"><ele>14.0</ele><time>2026-05-02T07:44:33.999Z</time></trkpt><trkpt lat="43.64221346990769" lon="10.61781339855011"><ele>14.0</ele><time>2026-05-02T07:44:34.999Z</time></trkpt><trkpt lat="43.642053238650284" lon="10.617607532758155"><ele>14.0</ele><time>2026-05-02T07:44:35.999Z</time></trkpt><trkpt lat="43.641872724577205" lon="10.617380967199317"><ele>14.333333333333334</ele><time>2026-05-02T07:44:36.999Z</time></trkpt><trkpt lat="43.641732091014866" lon="10.61718189474253"><ele>14.666666666666668</ele><time>2026-05-02T07:44:37.999Z</time></trkpt><trkpt lat="43.64157285554523" lon="10.616968167234957"><ele>15.0</ele><time>2026-05-02T07:44:38.999Z</time></trkpt><trkpt lat="43.64140807064681" lon="10.616750602062371"><ele>15.0</ele><time>2026-05-02T07:44:39.999Z</time></trkpt><trkpt lat="43.641242934289544" lon="10.616534327120275"><ele>15.0</ele><time>2026-05-02T07:44:40.999Z</time></trkpt><trkpt lat="43.641079861754676" lon="10.616317517970133"><ele>15.5</ele><time>2026-05-02T07:44:41.999Z</time></trkpt><trkpt lat="43.640912910606545" lon="10.6161016199224"><ele>16.0</ele><time>2026-05-02T07:44:42.999Z</time></trkpt><trkpt lat="43.64074953459614" lon="10.615887820338548"><ele>16.0</ele><time>2026-05-02T07:44:43.999Z</time></trkpt><trkpt lat="43.64058535756486" lon="10.615674203189082"><ele>16.0</ele><time>2026-05-02T07:44:44.999Z</time></trkpt><trkpt lat="43.64043055962989" lon="10.615460679234145"><ele>16.0</ele><time>2026-05-02T07:44:45.999Z</time></trkpt><trkpt lat="43.640269041263245" lon="10.615245522225212"><ele>16.0</ele><time>2026-05-02T07:44:46.999Z</time></trkpt><trkpt lat="43.64010372140978" lon="10.61503563091698"><ele>16.0</ele><time>2026-05-02T07:44:47.999Z</time></trkpt><trkpt lat="43.63993837167594" lon="10.614816872578023"><ele>16.0</ele><time>2026-05-02T07:44:48.999Z</time></trkpt><trkpt lat="43.639771714768585" lon="10.614596104565377"><ele>16.0</ele><time>2026-05-02T07:44:49.999Z</time></trkpt><trkpt lat="43.63960378831495" lon="10.614378988591392"><ele>15.5</ele><time>2026-05-02T07:44:50.999Z</time></trkpt><trkpt lat="43.6394376952689" lon="10.614160186047162"><ele>15.0</ele><time>2026-05-02T07:44:51.999Z</time></trkpt><trkpt lat="43.639268535487155" lon="10.61394118011194"><ele>15.0</ele><time>2026-05-02T07:44:52.999Z</time></trkpt><trkpt lat="43.63909629713877" lon="10.613720507987527"><ele>15.0</ele><time>2026-05-02T07:44:53.999Z</time></trkpt><trkpt lat="43.63892406921959" lon="10.613496030681857"><ele>15.0</ele><time>2026-05-02T07:44:54.999Z</time></trkpt><trkpt lat="43.63875348836587" lon="10.613269426580596"><ele>15.0</ele><time>2026-05-02T07:44:55.999Z</time></trkpt><trkpt lat="43.63857900388314" lon="10.61303968947905"><ele>15.5</ele><time>2026-05-02T07:44:56.999Z</time></trkpt><trkpt lat="43.63840305645053" lon="10.61280718874754"><ele>16.0</ele><time>2026-05-02T07:44:57.999Z</time></trkpt><trkpt lat="43.63822768686817" lon="10.612576477728679"><ele>16.0</ele><time>2026-05-02T07:44:58.999Z</time></trkpt><trkpt lat="43.638053398001375" lon="10.612345357884895"><ele>16.0</ele><time>2026-05-02T07:44:59.999Z</time></trkpt><trkpt lat="43.63788124909459" lon="10.612116669929252"><ele>16.0</ele><time>2026-05-02T07:45:00.999Z</time></trkpt><trkpt lat="43.6377143708143" lon="10.611892401676657"><ele>16.0</ele><time>2026-05-02T07:45:01.999Z</time></trkpt><trkpt lat="43.63754787390298" lon="10.611673525931755"><ele>16.0</ele><time>2026-05-02T07:45:02.999Z</time></trkpt><trkpt lat="43.637385869233995" lon="10.611460276595729"><ele>16.0</ele><time>2026-05-02T07:45:03.998Z</time></trkpt><trkpt lat="43.63722211302757" lon="10.611247662444487"><ele>16.0</ele><time>2026-05-02T07:45:04.998Z</time></trkpt><trkpt lat="43.6370580171288" lon="10.611033529693392"><ele>15.5</ele><time>2026-05-02T07:45:05.998Z</time></trkpt><trkpt lat="43.63689583428433" lon="10.61082087031627"><ele>15.0</ele><time>2026-05-02T07:45:06.998Z</time></trkpt><trkpt lat="43.63672965838276" lon="10.610603513237223"><ele>15.0</ele><time>2026-05-02T07:45:07.998Z</time></trkpt><trkpt lat="43.6365649594005" lon="10.610385285938419"><ele>15.0</ele><time>2026-05-02T07:45:08.998Z</time></trkpt><trkpt lat="43.63640540512068" lon="10.610173198649195"><ele>14.666666666666668</ele><time>2026-05-02T07:45:09.998Z</time></trkpt><trkpt lat="43.636249558051745" lon="10.609963840493524"><ele>14.333333333333334</ele><time>2026-05-02T07:45:10.998Z</time></trkpt><trkpt lat="43.636095971827835" lon="10.609753757554234"><ele>14.0</ele><time>2026-05-02T07:45:11.998Z</time></trkpt><trkpt lat="43.63594225731104" lon="10.609544618133057"><ele>14.333333333333334</ele><time>2026-05-02T07:45:12.998Z</time></trkpt><trkpt lat="43.63578610809893" lon="10.609330139661967"><ele>14.666666666666668</ele><time>2026-05-02T07:45:13.998Z</time></trkpt><trkpt lat="43.63563337889857" lon="10.609113621370177"><ele>15.0</ele><time>2026-05-02T07:45:14.998Z</time></trkpt><trkpt lat="43.635481520267426" lon="10.608893401726714"><ele>15.0</ele><time>2026-05-02T07:45:16Z</time></trkpt><trkpt lat="43.63533680780503" lon="10.60867072549097"><ele>15.0</ele><time>2026-05-02T07:45:17Z</time></trkpt><trkpt lat="43.63519544391756" lon="10.608454719027296"><ele>15.0</ele><time>2026-05-02T07:45:18Z</time></trkpt><trkpt lat="43.63505408110891" lon="10.608230862615999"><ele>15.0</ele><time>2026-05-02T07:45:19Z</time></trkpt><trkpt lat="43.634914384256554" lon="10.60800099873892"><ele>15.0</ele><time>2026-05-02T07:45:20Z</time></trkpt><trkpt lat="43.63477531980997" lon="10.607762803423864"><ele>15.0</ele><time>2026-05-02T07:45:21Z</time></trkpt><trkpt lat="43.634640245240846" lon="10.607523827804224"><ele>15.0</ele><time>2026-05-02T07:45:22Z</time></trkpt><trkpt lat="43.634509550843276" lon="10.607284392644528"><ele>15.0</ele><time>2026-05-02T07:45:23Z</time></trkpt><trkpt lat="43.63438532154178" lon="10.607047418253213"><ele>15.0</ele><time>2026-05-02T07:45:24Z</time></trkpt><trkpt lat="43.63427124918333" lon="10.606813748184894"><ele>15.333333333333332</ele><time>2026-05-02T07:45:25Z</time></trkpt><trkpt lat="43.634164281923404" lon="10.606578147503148"><ele>15.666666666666666</ele><time>2026-05-02T07:45:26Z</time></trkpt><trkpt lat="43.6340591986397" lon="10.606340970720867"><ele>16.0</ele><time>2026-05-02T07:45:27Z</time></trkpt><trkpt lat="43.633962628160354" lon="10.6061142691402"><ele>15.333333333333332</ele><time>2026-05-02T07:45:28Z</time></trkpt><trkpt lat="43.63387134581355" lon="10.605885572645073"><ele>14.666666666666668</ele><time>2026-05-02T07:45:29Z</time></trkpt><trkpt lat="43.63378372748082" lon="10.605653518707074"><ele>14.0</ele><time>2026-05-02T07:45:30Z</time></trkpt><trkpt lat="43.63367228458455" lon="10.605399032512198"><ele>15.0</ele><time>2026-05-02T07:45:31Z</time></trkpt><trkpt lat="43.63358504963913" lon="10.60513699896565"><ele>16.0</ele><time>2026-05-02T07:45:32Z</time></trkpt><trkpt lat="43.63349586467098" lon="10.604873274051254"><ele>17.0</ele><time>2026-05-02T07:45:33Z</time></trkpt><trkpt lat="43.63341850331029" lon="10.604610650933914"><ele>17.0</ele><time>2026-05-02T07:45:34Z</time></trkpt><trkpt lat="43.63334488636246" lon="10.604350614623714"><ele>17.0</ele><time>2026-05-02T07:45:35Z</time></trkpt><trkpt lat="43.633275038900166" lon="10.604084173062311"><ele>17.0</ele><time>2026-05-02T07:45:36Z</time></trkpt><trkpt lat="43.633206679954334" lon="10.603823195728285"><ele>16.333333333333336</ele><time>2026-05-02T07:45:37Z</time></trkpt><trkpt lat="43.63314442838492" lon="10.603553641540927"><ele>15.666666666666668</ele><time>2026-05-02T07:45:38Z</time></trkpt><trkpt lat="43.63308454139703" lon="10.603268582227864"><ele>15.0</ele><time>2026-05-02T07:45:39Z</time></trkpt><trkpt lat="43.63302855218199" lon="10.602969991212646"><ele>15.5</ele><time>2026-05-02T07:45:40Z</time></trkpt><trkpt lat="43.632994239361274" lon="10.602652181181869"><ele>16.0</ele><time>2026-05-02T07:45:41Z</time></trkpt><trkpt lat="43.63293955976769" lon="10.60235052773592"><ele>16.0</ele><time>2026-05-02T07:45:42Z</time></trkpt><trkpt lat="43.632902051670214" lon="10.602048218580842"><ele>16.0</ele><time>2026-05-02T07:45:43Z</time></trkpt><trkpt lat="43.63289435921826" lon="10.601729737286679"><ele>16.5</ele><time>2026-05-02T07:45:44Z</time></trkpt><trkpt lat="43.632852945794816" lon="10.60142575278643"><ele>17.0</ele><time>2026-05-02T07:45:45Z</time></trkpt><trkpt lat="43.632825892405776" lon="10.60110523664612"><ele>16.0</ele><time>2026-05-02T07:45:46Z</time></trkpt><trkpt lat="43.63281289844843" lon="10.600773132073487"><ele>15.0</ele><time>2026-05-02T07:45:47Z</time></trkpt><trkpt lat="43.632805416507495" lon="10.600450498496329"><ele>14.0</ele><time>2026-05-02T07:45:48Z</time></trkpt><trkpt lat="43.63280117003586" lon="10.600121996231469"><ele>13.0</ele><time>2026-05-02T07:45:49Z</time></trkpt><trkpt lat="43.63280256447802" lon="10.599791263557538"><ele>13.0</ele><time>2026-05-02T07:45:50Z</time></trkpt><trkpt lat="43.63280703128749" lon="10.599457254205955"><ele>13.0</ele><time>2026-05-02T07:45:51Z</time></trkpt><trkpt lat="43.63282207547419" lon="10.599132011439387"><ele>13.0</ele><time>2026-05-02T07:45:52Z</time></trkpt><trkpt lat="43.632839560101914" lon="10.598815001988225"><ele>13.0</ele><time>2026-05-02T07:45:53Z</time></trkpt><trkpt lat="43.63286767832214" lon="10.598494118908729"><ele>13.0</ele><time>2026-05-02T07:45:54Z</time></trkpt><trkpt lat="43.63288963509494" lon="10.598166603084527"><ele>13.0</ele><time>2026-05-02T07:45:55Z</time></trkpt><trkpt lat="43.632915331936964" lon="10.597842168805954"><ele>12.5</ele><time>2026-05-02T07:45:56Z</time></trkpt><trkpt lat="43.63294356197152" lon="10.597518463147077"><ele>12.0</ele><time>2026-05-02T07:45:57Z</time></trkpt><trkpt lat="43.632976960545406" lon="10.597195928525869"><ele>11.5</ele><time>2026-05-02T07:45:58Z</time></trkpt><trkpt lat="43.63301371979284" lon="10.596885816387534"><ele>11.0</ele><time>2026-05-02T07:45:59Z</time></trkpt><trkpt lat="43.63304754399116" lon="10.596574998745359"><ele>11.0</ele><time>2026-05-02T07:46:00Z</time></trkpt><trkpt lat="43.63308261309223" lon="10.596267464816593"><ele>11.0</ele><time>2026-05-02T07:46:01Z</time></trkpt><trkpt lat="43.633119599356114" lon="10.595972600499929"><ele>11.0</ele><time>2026-05-02T07:46:02Z</time></trkpt><trkpt lat="43.63316091724383" lon="10.59566626340862"><ele>11.5</ele><time>2026-05-02T07:46:03Z</time></trkpt><trkpt lat="43.63319915633513" lon="10.595357229326776"><ele>12.0</ele><time>2026-05-02T07:46:04Z</time></trkpt><trkpt lat="43.633236423962906" lon="10.59504662251779"><ele>12.333333333333332</ele><time>2026-05-02T07:46:04.999Z</time></trkpt><trkpt lat="43.63327499079693" lon="10.594744833274918"><ele>12.666666666666666</ele><time>2026-05-02T07:46:05.999Z</time></trkpt><trkpt lat="43.63331807907537" lon="10.594442796040617"><ele>13.0</ele><time>2026-05-02T07:46:06.999Z</time></trkpt><trkpt lat="43.63336101815186" lon="10.594129289605487"><ele>13.5</ele><time>2026-05-02T07:46:07.999Z</time></trkpt><trkpt lat="43.63340457892904" lon="10.593822992030598"><ele>14.0</ele><time>2026-05-02T07:46:08.999Z</time></trkpt><trkpt lat="43.63345395481751" lon="10.593517468376263"><ele>14.0</ele><time>2026-05-02T07:46:09.999Z</time></trkpt><trkpt lat="43.63348500327138" lon="10.593194975511981"><ele>14.0</ele><time>2026-05-02T07:46:10.999Z</time></trkpt><trkpt lat="43.633524528220924" lon="10.592873512033878"><ele>13.5</ele><time>2026-05-02T07:46:11.999Z</time></trkpt><trkpt lat="43.63356432318169" lon="10.59255437354321"><ele>13.0</ele><time>2026-05-02T07:46:12.999Z</time></trkpt><trkpt lat="43.63360826883003" lon="10.592232066050306"><ele>12.5</ele><time>2026-05-02T07:46:13.999Z</time></trkpt><trkpt lat="43.6336538755525" lon="10.591907372155433"><ele>12.0</ele><time>2026-05-02T07:46:14.999Z</time></trkpt><trkpt lat="43.633694507211736" lon="10.59159114192583"><ele>12.0</ele><time>2026-05-02T07:46:15.999Z</time></trkpt><trkpt lat="43.63373306320159" lon="10.591280166155444"><ele>12.0</ele><time>2026-05-02T07:46:16.999Z</time></trkpt><trkpt lat="43.63376916169821" lon="10.590956679580929"><ele>12.5</ele><time>2026-05-02T07:46:17.999Z</time></trkpt><trkpt lat="43.633812154083955" lon="10.59062955662979"><ele>13.0</ele><time>2026-05-02T07:46:18.999Z</time></trkpt><trkpt lat="43.63385722205155" lon="10.590299543448527"><ele>13.5</ele><time>2026-05-02T07:46:19.999Z</time></trkpt><trkpt lat="43.633905475995164" lon="10.589960076691003"><ele>14.0</ele><time>2026-05-02T07:46:20.999Z</time></trkpt><trkpt lat="43.63394609778144" lon="10.589638452284682"><ele>14.5</ele><time>2026-05-02T07:46:21.999Z</time></trkpt><trkpt lat="43.63398661342576" lon="10.589335025150966"><ele>15.0</ele><time>2026-05-02T07:46:22.999Z</time></trkpt><trkpt lat="43.63402867918585" lon="10.589012099248162"><ele>15.0</ele><time>2026-05-02T07:46:23.999Z</time></trkpt><trkpt lat="43.634069102243586" lon="10.588683378498539"><ele>15.0</ele><time>2026-05-02T07:46:24.999Z</time></trkpt><trkpt lat="43.634112941960176" lon="10.588370602822325"><ele>13.0</ele><time>2026-05-02T07:46:25.999Z</time></trkpt><trkpt lat="43.634153813891885" lon="10.588045252441399"><ele>11.0</ele><time>2026-05-02T07:46:26.999Z</time></trkpt><trkpt lat="43.634195833417756" lon="10.58771005601281"><ele>9.5</ele><time>2026-05-02T07:46:27.999Z</time></trkpt><trkpt lat="43.6342323247575" lon="10.587378529116473"><ele>8.0</ele><time>2026-05-02T07:46:28.999Z</time></trkpt><trkpt lat="43.634263010429336" lon="10.587045573309867"><ele>9.5</ele><time>2026-05-02T07:46:29.999Z</time></trkpt><trkpt lat="43.634293798199955" lon="10.586706938050996"><ele>11.0</ele><time>2026-05-02T07:46:30.999Z</time></trkpt><trkpt lat="43.63431329962566" lon="10.586360121931712"><ele>12.0</ele><time>2026-05-02T07:46:31.999Z</time></trkpt><trkpt lat="43.63432775306292" lon="10.586023828943798"><ele>13.0</ele><time>2026-05-02T07:46:32.999Z</time></trkpt><trkpt lat="43.63434142875715" lon="10.58568304731397"><ele>13.0</ele><time>2026-05-02T07:46:33.999Z</time></trkpt><trkpt lat="43.63435130136238" lon="10.58533817064215"><ele>13.0</ele><time>2026-05-02T07:46:34.999Z</time></trkpt><trkpt lat="43.63436181544397" lon="10.585023165671997"><ele>13.0</ele><time>2026-05-02T07:46:35.999Z</time></trkpt><trkpt lat="43.634370035256545" lon="10.584676329469278"><ele>13.0</ele><time>2026-05-02T07:46:36.999Z</time></trkpt><trkpt lat="43.63435828044667" lon="10.584313711541895"><ele>11.5</ele><time>2026-05-02T07:46:37.999Z</time></trkpt><trkpt lat="43.634351776851446" lon="10.583962053027085"><ele>10.0</ele><time>2026-05-02T07:46:38.999Z</time></trkpt><trkpt lat="43.634348490299054" lon="10.583608183422266"><ele>10.0</ele><time>2026-05-02T07:46:39.999Z</time></trkpt><trkpt lat="43.63434187981004" lon="10.583244329332693"><ele>10.0</ele><time>2026-05-02T07:46:40.999Z</time></trkpt><trkpt lat="43.63433726182628" lon="10.58289498852823"><ele>11.0</ele><time>2026-05-02T07:46:41.999Z</time></trkpt><trkpt lat="43.634336863424494" lon="10.582569284310408"><ele>12.0</ele><time>2026-05-02T07:46:42.999Z</time></trkpt><trkpt lat="43.63432667039425" lon="10.582234077610329"><ele>11.5</ele><time>2026-05-02T07:46:43.999Z</time></trkpt><trkpt lat="43.63431649955868" lon="10.581880813490402"><ele>11.0</ele><time>2026-05-02T07:46:44.999Z</time></trkpt><trkpt lat="43.634303073189464" lon="10.581482823098254"><ele>11.0</ele><time>2026-05-02T07:46:45.999Z</time></trkpt><trkpt lat="43.63429586673909" lon="10.581062153795154"><ele>11.0</ele><time>2026-05-02T07:46:46.999Z</time></trkpt><trkpt lat="43.63429642359668" lon="10.580651245113842"><ele>10.0</ele><time>2026-05-02T07:46:47.999Z</time></trkpt><trkpt lat="43.63429487467102" lon="10.580250226012458"><ele>9.0</ele><time>2026-05-02T07:46:48.999Z</time></trkpt><trkpt lat="43.63429028187361" lon="10.579857307425884"><ele>9.0</ele><time>2026-05-02T07:46:49.999Z</time></trkpt><trkpt lat="43.63428876073585" lon="10.57946298432993"><ele>9.0</ele><time>2026-05-02T07:46:50.999Z</time></trkpt><trkpt lat="43.634292647674634" lon="10.579083090572494"><ele>9.0</ele><time>2026-05-02T07:46:51.999Z</time></trkpt><trkpt lat="43.63429948175547" lon="10.578706819086953"><ele>9.0</ele><time>2026-05-02T07:46:52.999Z</time></trkpt><trkpt lat="43.63430534513918" lon="10.578340088407902"><ele>9.0</ele><time>2026-05-02T07:46:53.999Z</time></trkpt><trkpt lat="43.63430241501772" lon="10.577982650038654"><ele>9.0</ele><time>2026-05-02T07:46:54.999Z</time></trkpt><trkpt lat="43.63430703856837" lon="10.577615353475506"><ele>9.0</ele><time>2026-05-02T07:46:55.999Z</time></trkpt><trkpt lat="43.63430511467322" lon="10.577239694218186"><ele>9.0</ele><time>2026-05-02T07:46:56.999Z</time></trkpt><trkpt lat="43.63430341121232" lon="10.576857760981111"><ele>8.5</ele><time>2026-05-02T07:46:57.999Z</time></trkpt><trkpt lat="43.634299846761806" lon="10.576470833026193"><ele>8.0</ele><time>2026-05-02T07:46:58.999Z</time></trkpt><trkpt lat="43.634296529846104" lon="10.576089832256294"><ele>8.0</ele><time>2026-05-02T07:46:59.999Z</time></trkpt><trkpt lat="43.634288498184304" lon="10.575711038952987"><ele>8.0</ele><time>2026-05-02T07:47:00.999Z</time></trkpt><trkpt lat="43.63428581253031" lon="10.575339510061736"><ele>9.0</ele><time>2026-05-02T07:47:01.999Z</time></trkpt><trkpt lat="43.63428163418315" lon="10.574974574133444"><ele>10.0</ele><time>2026-05-02T07:47:02.999Z</time></trkpt><trkpt lat="43.634275344626765" lon="10.57461674665858"><ele>10.0</ele><time>2026-05-02T07:47:03.999Z</time></trkpt><trkpt lat="43.63426437925558" lon="10.57425022289198"><ele>10.0</ele><time>2026-05-02T07:47:04.999Z</time></trkpt><trkpt lat="43.634249948947705" lon="10.573885783013383"><ele>9.0</ele><time>2026-05-02T07:47:05.999Z</time></trkpt><trkpt lat="43.6342339874435" lon="10.573513814615477"><ele>8.0</ele><time>2026-05-02T07:47:06.999Z</time></trkpt><trkpt lat="43.634215726127785" lon="10.573132298567208"><ele>7.5</ele><time>2026-05-02T07:47:07.999Z</time></trkpt><trkpt lat="43.6342059416188" lon="10.572764614378126"><ele>7.0</ele><time>2026-05-02T07:47:08.999Z</time></trkpt><trkpt lat="43.63419604575195" lon="10.572402139522838"><ele>7.0</ele><time>2026-05-02T07:47:09.999Z</time></trkpt><trkpt lat="43.63418834565759" lon="10.572042651695886"><ele>7.0</ele><time>2026-05-02T07:47:10.999Z</time></trkpt><trkpt lat="43.6341804764345" lon="10.571684920719719"><ele>7.5</ele><time>2026-05-02T07:47:11.998Z</time></trkpt><trkpt lat="43.634171328311595" lon="10.571336838687026"><ele>8.0</ele><time>2026-05-02T07:47:12.998Z</time></trkpt><trkpt lat="43.63416101725631" lon="10.570979543326603"><ele>8.5</ele><time>2026-05-02T07:47:13.998Z</time></trkpt><trkpt lat="43.63415236793588" lon="10.570612878186486"><ele>9.0</ele><time>2026-05-02T07:47:14.998Z</time></trkpt><trkpt lat="43.63414702106768" lon="10.570248136368985"><ele>9.0</ele><time>2026-05-02T07:47:15.998Z</time></trkpt><trkpt lat="43.634142402418384" lon="10.56988797069545"><ele>9.0</ele><time>2026-05-02T07:47:16.998Z</time></trkpt><trkpt lat="43.63413845627673" lon="10.569513915134939"><ele>8.5</ele><time>2026-05-02T07:47:17.998Z</time></trkpt><trkpt lat="43.6341430811203" lon="10.56912869280747"><ele>8.0</ele><time>2026-05-02T07:47:18.998Z</time></trkpt><trkpt lat="43.634156123251636" lon="10.568725182686833"><ele>8.0</ele><time>2026-05-02T07:47:19.998Z</time></trkpt><trkpt lat="43.63418762198692" lon="10.568307118686946"><ele>8.0</ele><time>2026-05-02T07:47:20.998Z</time></trkpt><trkpt lat="43.634232418069736" lon="10.567880941665049"><ele>8.5</ele><time>2026-05-02T07:47:22Z</time></trkpt><trkpt lat="43.63429770314082" lon="10.56745413367145"><ele>9.0</ele><time>2026-05-02T07:47:23Z</time></trkpt><trkpt lat="43.634377061777634" lon="10.567047835478016"><ele>8.0</ele><time>2026-05-02T07:47:24Z</time></trkpt><trkpt lat="43.63447572766277" lon="10.56665054232865"><ele>7.0</ele><time>2026-05-02T07:47:25Z</time></trkpt><trkpt lat="43.63459636684707" lon="10.566270684337068"><ele>8.0</ele><time>2026-05-02T07:47:26Z</time></trkpt><trkpt lat="43.634738567562806" lon="10.56590415436877"><ele>9.0</ele><time>2026-05-02T07:47:27Z</time></trkpt><trkpt lat="43.63489852783632" lon="10.56555858773541"><ele>9.5</ele><time>2026-05-02T07:47:28Z</time></trkpt><trkpt lat="43.63507911975461" lon="10.565228751969979"><ele>10.0</ele><time>2026-05-02T07:47:29Z</time></trkpt><trkpt lat="43.63527047333201" lon="10.564918018724144"><ele>10.0</ele><time>2026-05-02T07:47:30Z</time></trkpt><trkpt lat="43.63547225529552" lon="10.56461551718061"><ele>10.0</ele><time>2026-05-02T07:47:31Z</time></trkpt><trkpt lat="43.63568289950798" lon="10.564320385203157"><ele>10.0</ele><time>2026-05-02T07:47:32Z</time></trkpt><trkpt lat="43.635904068098554" lon="10.564043031227822"><ele>10.0</ele><time>2026-05-02T07:47:33Z</time></trkpt><trkpt lat="43.636135168804095" lon="10.563803851957841"><ele>9.5</ele><time>2026-05-02T07:47:34Z</time></trkpt><trkpt lat="43.63638980701448" lon="10.563537103941778"><ele>9.0</ele><time>2026-05-02T07:47:35Z</time></trkpt><trkpt lat="43.63664275245394" lon="10.563298956623703"><ele>9.0</ele><time>2026-05-02T07:47:36Z</time></trkpt><trkpt lat="43.63689641953631" lon="10.563063102550052"><ele>9.0</ele><time>2026-05-02T07:47:37Z</time></trkpt><trkpt lat="43.637153969972594" lon="10.562825511869004"><ele>10.5</ele><time>2026-05-02T07:47:38Z</time></trkpt><trkpt lat="43.63742698008932" lon="10.562594082770557"><ele>12.0</ele><time>2026-05-02T07:47:39Z</time></trkpt><trkpt lat="43.637664165704614" lon="10.562352734377251"><ele>10.5</ele><time>2026-05-02T07:47:40Z</time></trkpt><trkpt lat="43.63790765845155" lon="10.562118284892488"><ele>9.0</ele><time>2026-05-02T07:47:41Z</time></trkpt><trkpt lat="43.63815693634982" lon="10.561876015507954"><ele>8.5</ele><time>2026-05-02T07:47:42Z</time></trkpt><trkpt lat="43.63840329734658" lon="10.561639182544255"><ele>8.0</ele><time>2026-05-02T07:47:43Z</time></trkpt><trkpt lat="43.638643684167505" lon="10.561401485321406"><ele>6.0</ele><time>2026-05-02T07:47:44Z</time></trkpt><trkpt lat="43.63888684426715" lon="10.561163652387322"><ele>4.0</ele><time>2026-05-02T07:47:45Z</time></trkpt><trkpt lat="43.63913185490348" lon="10.560935839922601"><ele>4.0</ele><time>2026-05-02T07:47:46Z</time></trkpt><trkpt lat="43.63937976865035" lon="10.56069848375486"><ele>4.0</ele><time>2026-05-02T07:47:47Z</time></trkpt><trkpt lat="43.63963381611147" lon="10.56046506923928"><ele>3.0</ele><time>2026-05-02T07:47:48Z</time></trkpt><trkpt lat="43.63988873791454" lon="10.560231295663865"><ele>2.0</ele><time>2026-05-02T07:47:49Z</time></trkpt><trkpt lat="43.640140467368546" lon="10.559997105773613"><ele>5.0</ele><time>2026-05-02T07:47:50Z</time></trkpt><trkpt lat="43.64039519980562" lon="10.559757329591559"><ele>8.0</ele><time>2026-05-02T07:47:51Z</time></trkpt><trkpt lat="43.64064933992111" lon="10.559521526477555"><ele>8.0</ele><time>2026-05-02T07:47:52Z</time></trkpt><trkpt lat="43.64090752515858" lon="10.559281203463017"><ele>8.0</ele><time>2026-05-02T07:47:53Z</time></trkpt><trkpt lat="43.64116091901084" lon="10.559045751101177"><ele>7.5</ele><time>2026-05-02T07:47:54Z</time></trkpt><trkpt lat="43.64141734651158" lon="10.558806781245528"><ele>7.0</ele><time>2026-05-02T07:47:55Z</time></trkpt><trkpt lat="43.64167687758084" lon="10.558566539351999"><ele>7.0</ele><time>2026-05-02T07:47:56Z</time></trkpt><trkpt lat="43.64193640217695" lon="10.55832535588252"><ele>7.0</ele><time>2026-05-02T07:47:57Z</time></trkpt><trkpt lat="43.642193952416186" lon="10.55808322247714"><ele>6.5</ele><time>2026-05-02T07:47:57.999Z</time></trkpt><trkpt lat="43.64246271477504" lon="10.557828897799377"><ele>6.0</ele><time>2026-05-02T07:47:58.999Z</time></trkpt><trkpt lat="43.642718380584455" lon="10.557587640365675"><ele>6.0</ele><time>2026-05-02T07:47:59.999Z</time></trkpt><trkpt lat="43.6429768488931" lon="10.55734245298532"><ele>6.0</ele><time>2026-05-02T07:48:00.999Z</time></trkpt><trkpt lat="43.64323897957457" lon="10.557093813217653"><ele>6.0</ele><time>2026-05-02T07:48:01.999Z</time></trkpt><trkpt lat="43.6435033861509" lon="10.556847162620022"><ele>6.0</ele><time>2026-05-02T07:48:02.999Z</time></trkpt><trkpt lat="43.64376743682502" lon="10.556603079053652"><ele>6.0</ele><time>2026-05-02T07:48:03.999Z</time></trkpt><trkpt lat="43.64403171556305" lon="10.556355709403105"><ele>6.0</ele><time>2026-05-02T07:48:04.999Z</time></trkpt><trkpt lat="43.644293897610275" lon="10.55611060843466"><ele>6.0</ele><time>2026-05-02T07:48:05.999Z</time></trkpt><trkpt lat="43.644557792578546" lon="10.555866451341043"><ele>6.0</ele><time>2026-05-02T07:48:06.999Z</time></trkpt><trkpt lat="43.644821119852544" lon="10.55562176098135"><ele>6.0</ele><time>2026-05-02T07:48:07.999Z</time></trkpt><trkpt lat="43.64508446936916" lon="10.555378340748911"><ele>6.0</ele><time>2026-05-02T07:48:08.999Z</time></trkpt><trkpt lat="43.6453498920517" lon="10.555132188492813"><ele>6.0</ele><time>2026-05-02T07:48:09.999Z</time></trkpt><trkpt lat="43.64561594138246" lon="10.554884773248414"><ele>6.0</ele><time>2026-05-02T07:48:10.999Z</time></trkpt><trkpt lat="43.6458815679509" lon="10.554639358811327"><ele>6.5</ele><time>2026-05-02T07:48:11.999Z</time></trkpt><trkpt lat="43.64614641088797" lon="10.554392731850804"><ele>7.0</ele><time>2026-05-02T07:48:12.999Z</time></trkpt><trkpt lat="43.64641425491076" lon="10.554142422548932"><ele>7.0</ele><time>2026-05-02T07:48:13.999Z</time></trkpt><trkpt lat="43.64668179675718" lon="10.553892394816135"><ele>7.0</ele><time>2026-05-02T07:48:14.999Z</time></trkpt><trkpt lat="43.646949228732566" lon="10.553641821134295"><ele>6.0</ele><time>2026-05-02T07:48:15.999Z</time></trkpt><trkpt lat="43.64721421297558" lon="10.553389419090811"><ele>5.0</ele><time>2026-05-02T07:48:16.999Z</time></trkpt><trkpt lat="43.64747174413309" lon="10.553125477591488"><ele>5.5</ele><time>2026-05-02T07:48:17.999Z</time></trkpt><trkpt lat="43.64772060671661" lon="10.552856706719488"><ele>6.0</ele><time>2026-05-02T07:48:18.999Z</time></trkpt><trkpt lat="43.64795853771454" lon="10.552570880982003"><ele>6.0</ele><time>2026-05-02T07:48:19.999Z</time></trkpt><trkpt lat="43.64818660640549" lon="10.552268794674374"><ele>6.0</ele><time>2026-05-02T07:48:20.999Z</time></trkpt><trkpt lat="43.648405277028026" lon="10.551949937285194"><ele>6.0</ele><time>2026-05-02T07:48:21.999Z</time></trkpt><trkpt lat="43.64860684566788" lon="10.551614114290919"><ele>6.0</ele><time>2026-05-02T07:48:22.999Z</time></trkpt><trkpt lat="43.648789793643964" lon="10.551257605133854"><ele>6.0</ele><time>2026-05-02T07:48:23.999Z</time></trkpt><trkpt lat="43.648959479467514" lon="10.550883759787503"><ele>6.0</ele><time>2026-05-02T07:48:24.999Z</time></trkpt><trkpt lat="43.649119324182614" lon="10.550497601915025"><ele>5.5</ele><time>2026-05-02T07:48:25.999Z</time></trkpt><trkpt lat="43.649268318127945" lon="10.550101960258553"><ele>5.0</ele><time>2026-05-02T07:48:26.999Z</time></trkpt><trkpt lat="43.649409340804" lon="10.549700837621462"><ele>5.5</ele><time>2026-05-02T07:48:27.999Z</time></trkpt><trkpt lat="43.649548775817294" lon="10.549293153804305"><ele>6.0</ele><time>2026-05-02T07:48:28.999Z</time></trkpt><trkpt lat="43.64969085948633" lon="10.54889063133174"><ele>5.0</ele><time>2026-05-02T07:48:29.999Z</time></trkpt><trkpt lat="43.64983539431433" lon="10.548486329700747"><ele>4.0</ele><time>2026-05-02T07:48:30.999Z</time></trkpt><trkpt lat="43.6499784480037" lon="10.548078778181164"><ele>4.5</ele><time>2026-05-02T07:48:31.999Z</time></trkpt><trkpt lat="43.650120412524295" lon="10.54767078368965"><ele>5.0</ele><time>2026-05-02T07:48:32.999Z</time></trkpt><trkpt lat="43.65026390395637" lon="10.547259202909773"><ele>4.5</ele><time>2026-05-02T07:48:33.999Z</time></trkpt><trkpt lat="43.65040799341722" lon="10.546845637272419"><ele>4.0</ele><time>2026-05-02T07:48:34.999Z</time></trkpt><trkpt lat="43.65055497727983" lon="10.546432512800623"><ele>4.5</ele><time>2026-05-02T07:48:35.999Z</time></trkpt><trkpt lat="43.650699626537566" lon="10.546017073472662"><ele>5.0</ele><time>2026-05-02T07:48:36.999Z</time></trkpt><trkpt lat="43.650845145606546" lon="10.54560090787868"><ele>5.0</ele><time>2026-05-02T07:48:37.999Z</time></trkpt><trkpt lat="43.650989451441795" lon="10.545188164388993"><ele>5.0</ele><time>2026-05-02T07:48:38.999Z</time></trkpt><trkpt lat="43.651135438706696" lon="10.544773518135681"><ele>4.0</ele><time>2026-05-02T07:48:39.999Z</time></trkpt><trkpt lat="43.6512820392056" lon="10.544356918073762"><ele>3.0</ele><time>2026-05-02T07:48:40.999Z</time></trkpt><trkpt lat="43.65142799801776" lon="10.543943995515862"><ele>4.0</ele><time>2026-05-02T07:48:41.999Z</time></trkpt><trkpt lat="43.65157633260612" lon="10.543536535615093"><ele>5.0</ele><time>2026-05-02T07:48:42.999Z</time></trkpt><trkpt lat="43.65172838649374" lon="10.543128498554681"><ele>5.0</ele><time>2026-05-02T07:48:43.999Z</time></trkpt><trkpt lat="43.651882999161415" lon="10.54272654649282"><ele>5.0</ele><time>2026-05-02T07:48:44.999Z</time></trkpt><trkpt lat="43.65204769512725" lon="10.54233279238001"><ele>5.5</ele><time>2026-05-02T07:48:45.999Z</time></trkpt><trkpt lat="43.65222383963865" lon="10.541955898328336"><ele>6.0</ele><time>2026-05-02T07:48:46.999Z</time></trkpt><trkpt lat="43.652412133854575" lon="10.541584855538078"><ele>6.0</ele><time>2026-05-02T07:48:47.999Z</time></trkpt><trkpt lat="43.652613947101045" lon="10.541233993081793"><ele>6.0</ele><time>2026-05-02T07:48:48.999Z</time></trkpt><trkpt lat="43.65283035817344" lon="10.54089800580548"><ele>5.5</ele><time>2026-05-02T07:48:49.999Z</time></trkpt><trkpt lat="43.653057432590884" lon="10.540573847340617"><ele>5.0</ele><time>2026-05-02T07:48:50.999Z</time></trkpt><trkpt lat="43.65329427351993" lon="10.540268138659313"><ele>5.0</ele><time>2026-05-02T07:48:51.999Z</time></trkpt><trkpt lat="43.65354027208721" lon="10.539980094379981"><ele>5.0</ele><time>2026-05-02T07:48:52.999Z</time></trkpt><trkpt lat="43.65379753324007" lon="10.539709027636118"><ele>6.0</ele><time>2026-05-02T07:48:53.999Z</time></trkpt><trkpt lat="43.65406373657691" lon="10.539458884825008"><ele>7.0</ele><time>2026-05-02T07:48:54.999Z</time></trkpt><trkpt lat="43.65433797573168" lon="10.539232120123923"><ele>5.5</ele><time>2026-05-02T07:48:55.999Z</time></trkpt><trkpt lat="43.65462273568506" lon="10.539028691577489"><ele>4.0</ele><time>2026-05-02T07:48:56.999Z</time></trkpt><trkpt lat="43.65491316966081" lon="10.538825935617325"><ele>4.5</ele><time>2026-05-02T07:48:57.999Z</time></trkpt><trkpt lat="43.65520476360376" lon="10.538638746705347"><ele>5.0</ele><time>2026-05-02T07:48:58.999Z</time></trkpt><trkpt lat="43.65549690447391" lon="10.538455373106633"><ele>5.0</ele><time>2026-05-02T07:48:59.999Z</time></trkpt><trkpt lat="43.65579551838568" lon="10.538276097849165"><ele>5.0</ele><time>2026-05-02T07:49:00.999Z</time></trkpt><trkpt lat="43.6560936581328" lon="10.538100026963132"><ele>5.5</ele><time>2026-05-02T07:49:01.999Z</time></trkpt><trkpt lat="43.65639194414129" lon="10.537922762328643"><ele>6.0</ele><time>2026-05-02T07:49:02.999Z</time></trkpt><trkpt lat="43.656686031895525" lon="10.537743796855734"><ele>7.0</ele><time>2026-05-02T07:49:03.999Z</time></trkpt><trkpt lat="43.656981705737884" lon="10.537562909762398"><ele>8.0</ele><time>2026-05-02T07:49:04.999Z</time></trkpt><trkpt lat="43.65727689248617" lon="10.537384616704363"><ele>8.0</ele><time>2026-05-02T07:49:05.999Z</time></trkpt><trkpt lat="43.657573199494294" lon="10.537206691858243"><ele>8.0</ele><time>2026-05-02T07:49:06.999Z</time></trkpt><trkpt lat="43.6578721790794" lon="10.53702788703895"><ele>7.0</ele><time>2026-05-02T07:49:07.998Z</time></trkpt><trkpt lat="43.65817285152968" lon="10.536847986597548"><ele>6.0</ele><time>2026-05-02T07:49:08.998Z</time></trkpt><trkpt lat="43.658468974638666" lon="10.536668579867909"><ele>4.5</ele><time>2026-05-02T07:49:09.998Z</time></trkpt><trkpt lat="43.658766669354975" lon="10.536491671281958"><ele>3.0</ele><time>2026-05-02T07:49:10.998Z</time></trkpt><trkpt lat="43.65906719713358" lon="10.536311410266922"><ele>3.5</ele><time>2026-05-02T07:49:11.998Z</time></trkpt><trkpt lat="43.659369635673954" lon="10.5361318927534"><ele>4.0</ele><time>2026-05-02T07:49:12.998Z</time></trkpt><trkpt lat="43.65967254690267" lon="10.535953047410729"><ele>4.0</ele><time>2026-05-02T07:49:13.998Z</time></trkpt><trkpt lat="43.65997237688965" lon="10.535773216515544"><ele>4.0</ele><time>2026-05-02T07:49:14.998Z</time></trkpt><trkpt lat="43.660272807537545" lon="10.535593941061638"><ele>4.0</ele><time>2026-05-02T07:49:15.998Z</time></trkpt><trkpt lat="43.66057302340962" lon="10.535412756506727"><ele>4.0</ele><time>2026-05-02T07:49:16.998Z</time></trkpt><trkpt lat="43.66086971944004" lon="10.535233191392601"><ele>5.0</ele><time>2026-05-02T07:49:17.998Z</time></trkpt><trkpt lat="43.6611650432789" lon="10.535054921943987"><ele>6.0</ele><time>2026-05-02T07:49:18.998Z</time></trkpt><trkpt lat="43.661460041924144" lon="10.534878048667977"><ele>6.0</ele><time>2026-05-02T07:49:19.998Z</time></trkpt><trkpt lat="43.66175359094048" lon="10.53470383896514"><ele>6.0</ele><time>2026-05-02T07:49:20.998Z</time></trkpt><trkpt lat="43.66205095877339" lon="10.534526553360495"><ele>4.0</ele><time>2026-05-02T07:49:21.998Z</time></trkpt><trkpt lat="43.66234826838311" lon="10.5343491715409"><ele>2.0</ele><time>2026-05-02T07:49:22.998Z</time></trkpt><trkpt lat="43.66264690430187" lon="10.534170738270324"><ele>2.5</ele><time>2026-05-02T07:49:23.998Z</time></trkpt><trkpt lat="43.66294388527622" lon="10.533989560987449"><ele>3.0</ele><time>2026-05-02T07:49:24.998Z</time></trkpt><trkpt lat="43.663240187025835" lon="10.533805561663486"><ele>3.0</ele><time>2026-05-02T07:49:25.998Z</time></trkpt><trkpt lat="43.66353201116439" lon="10.533617475374136"><ele>3.0</ele><time>2026-05-02T07:49:26.998Z</time></trkpt><trkpt lat="43.66382052659168" lon="10.533426259327868"><ele>4.0</ele><time>2026-05-02T07:49:28Z</time></trkpt><trkpt lat="43.66410515323013" lon="10.533224354915689"><ele>5.0</ele><time>2026-05-02T07:49:29Z</time></trkpt><trkpt lat="43.664384837613916" lon="10.533015863928702"><ele>5.5</ele><time>2026-05-02T07:49:30Z</time></trkpt><trkpt lat="43.664660894618585" lon="10.532793371926997"><ele>6.0</ele><time>2026-05-02T07:49:31Z</time></trkpt><trkpt lat="43.664920960618815" lon="10.532554508355249"><ele>6.0</ele><time>2026-05-02T07:49:32Z</time></trkpt><trkpt lat="43.6651682110362" lon="10.532301266318438"><ele>6.0</ele><time>2026-05-02T07:49:33Z</time></trkpt><trkpt lat="43.66540774386493" lon="10.532028467457138"><ele>5.5</ele><time>2026-05-02T07:49:34Z</time></trkpt><trkpt lat="43.665640297619255" lon="10.531739886347179"><ele>5.0</ele><time>2026-05-02T07:49:35Z</time></trkpt><trkpt lat="43.66586406270992" lon="10.53143490344995"><ele>5.0</ele><time>2026-05-02T07:49:36Z</time></trkpt><trkpt lat="43.66607982431746" lon="10.531118490073121"><ele>5.0</ele><time>2026-05-02T07:49:37Z</time></trkpt><trkpt lat="43.666283621720034" lon="10.530787800141677"><ele>5.0</ele><time>2026-05-02T07:49:38Z</time></trkpt><trkpt lat="43.66647042718617" lon="10.530442768909094"><ele>5.0</ele><time>2026-05-02T07:49:39Z</time></trkpt><trkpt lat="43.666645107763216" lon="10.530081515396043"><ele>4.5</ele><time>2026-05-02T07:49:40Z</time></trkpt><trkpt lat="43.66680757101114" lon="10.529708886124439"><ele>4.0</ele><time>2026-05-02T07:49:41Z</time></trkpt><trkpt lat="43.66695024604075" lon="10.529321051470102"><ele>4.0</ele><time>2026-05-02T07:49:42Z</time></trkpt><trkpt lat="43.66708662306756" lon="10.528923496979571"><ele>4.0</ele><time>2026-05-02T07:49:43Z</time></trkpt><trkpt lat="43.66720867044191" lon="10.528520993898569"><ele>5.0</ele><time>2026-05-02T07:49:44Z</time></trkpt><trkpt lat="43.66731482138949" lon="10.528112407060876"><ele>6.0</ele><time>2026-05-02T07:49:45Z</time></trkpt><trkpt lat="43.66741370416563" lon="10.527697141956326"><ele>4.0</ele><time>2026-05-02T07:49:46Z</time></trkpt><trkpt lat="43.66749322352314" lon="10.527276348015715"><ele>2.0</ele><time>2026-05-02T07:49:47Z</time></trkpt><trkpt lat="43.667566742311806" lon="10.526853523768505"><ele>2.0</ele><time>2026-05-02T07:49:48Z</time></trkpt><trkpt lat="43.66763265197337" lon="10.526428723946978"><ele>2.0</ele><time>2026-05-02T07:49:49Z</time></trkpt><trkpt lat="43.66769492328915" lon="10.526001274026951"><ele>2.5</ele><time>2026-05-02T07:49:50Z</time></trkpt><trkpt lat="43.66775100302609" lon="10.525571696483626"><ele>3.0</ele><time>2026-05-02T07:49:51Z</time></trkpt><trkpt lat="43.66780343220953" lon="10.525139602108657"><ele>4.0</ele><time>2026-05-02T07:49:52Z</time></trkpt><trkpt lat="43.667854137498885" lon="10.524705833735721"><ele>5.0</ele><time>2026-05-02T07:49:53Z</time></trkpt><trkpt lat="43.66789993928017" lon="10.524272441820363"><ele>5.0</ele><time>2026-05-02T07:49:54Z</time></trkpt><trkpt lat="43.66794520428814" lon="10.523838943830107"><ele>5.0</ele><time>2026-05-02T07:49:55Z</time></trkpt><trkpt lat="43.66799271085544" lon="10.523405734917626"><ele>4.5</ele><time>2026-05-02T07:49:56Z</time></trkpt><trkpt lat="43.66804427909417" lon="10.522972955712993"><ele>4.0</ele><time>2026-05-02T07:49:57Z</time></trkpt><trkpt lat="43.668095771760385" lon="10.522538083400931"><ele>3.0</ele><time>2026-05-02T07:49:58Z</time></trkpt><trkpt lat="43.66814603683463" lon="10.522102935455582"><ele>2.0</ele><time>2026-05-02T07:49:59Z</time></trkpt><trkpt lat="43.66819792579494" lon="10.521665425983588"><ele>3.5</ele><time>2026-05-02T07:50:00Z</time></trkpt><trkpt lat="43.668249310629115" lon="10.52123068007289"><ele>5.0</ele><time>2026-05-02T07:50:01Z</time></trkpt><trkpt lat="43.66829911250536" lon="10.520795956281574"><ele>3.5</ele><time>2026-05-02T07:50:02Z</time></trkpt><trkpt lat="43.66834969840009" lon="10.520361042434311"><ele>2.0</ele><time>2026-05-02T07:50:03Z</time></trkpt><trkpt lat="43.66840080706426" lon="10.519923706814316"><ele>1.5</ele><time>2026-05-02T07:50:04Z</time></trkpt><trkpt lat="43.66845058824634" lon="10.519484350835237"><ele>1.0</ele><time>2026-05-02T07:50:05Z</time></trkpt><trkpt lat="43.6685022455734" lon="10.519051448702875"><ele>1.5</ele><time>2026-05-02T07:50:06Z</time></trkpt><trkpt lat="43.66855170153272" lon="10.518613138651993"><ele>2.0</ele><time>2026-05-02T07:50:07Z</time></trkpt><trkpt lat="43.668602940348755" lon="10.518175862529858"><ele>2.5</ele><time>2026-05-02T07:50:08Z</time></trkpt><trkpt lat="43.66865729873768" lon="10.517743428723922"><ele>3.0</ele><time>2026-05-02T07:50:09Z</time></trkpt><trkpt lat="43.6687090133157" lon="10.51730735014056"><ele>4.0</ele><time>2026-05-02T07:50:10Z</time></trkpt><trkpt lat="43.66876063052562" lon="10.516878225954057"><ele>5.0</ele><time>2026-05-02T07:50:11Z</time></trkpt><trkpt lat="43.668811333025396" lon="10.516456440302411"><ele>4.5</ele><time>2026-05-02T07:50:12Z</time></trkpt><trkpt lat="43.668854303955655" lon="10.516042265717903"><ele>4.0</ele><time>2026-05-02T07:50:13Z</time></trkpt><trkpt lat="43.66890152603646" lon="10.515637882252168"><ele>3.0</ele><time>2026-05-02T07:50:14Z</time></trkpt><trkpt lat="43.66894719806311" lon="10.515235347918653"><ele>2.0</ele><time>2026-05-02T07:50:15Z</time></trkpt><trkpt lat="43.668995797518555" lon="10.514825076615486"><ele>2.5</ele><time>2026-05-02T07:50:16Z</time></trkpt><trkpt lat="43.66904219899948" lon="10.514413057400992"><ele>3.0</ele><time>2026-05-02T07:50:17Z</time></trkpt><trkpt lat="43.66909312473758" lon="10.514003810522283"><ele>3.0</ele><time>2026-05-02T07:50:18Z</time></trkpt><trkpt lat="43.66914330868162" lon="10.513598608112119"><ele>3.0</ele><time>2026-05-02T07:50:18.999Z</time></trkpt><trkpt lat="43.669191687919515" lon="10.51319932952041"><ele>4.0</ele><time>2026-05-02T07:50:19.999Z</time></trkpt><trkpt lat="43.66923958827415" lon="10.512801408276722"><ele>5.0</ele><time>2026-05-02T07:50:20.999Z</time></trkpt><trkpt lat="43.669286699346955" lon="10.512401140407743"><ele>4.5</ele><time>2026-05-02T07:50:21.999Z</time></trkpt><trkpt lat="43.66933429144858" lon="10.512003216130408"><ele>4.0</ele><time>2026-05-02T07:50:22.999Z</time></trkpt><trkpt lat="43.66938420025708" lon="10.511595308823681"><ele>3.5</ele><time>2026-05-02T07:50:23.999Z</time></trkpt><trkpt lat="43.66943254321157" lon="10.511195391097964"><ele>3.0</ele><time>2026-05-02T07:50:24.999Z</time></trkpt><trkpt lat="43.669473037517115" lon="10.510798004192214"><ele>3.0</ele><time>2026-05-02T07:50:25.999Z</time></trkpt><trkpt lat="43.66952069766248" lon="10.510398762531485"><ele>3.0</ele><time>2026-05-02T07:50:26.999Z</time></trkpt><trkpt lat="43.66956771377984" lon="10.509999678523439"><ele>3.0</ele><time>2026-05-02T07:50:27.999Z</time></trkpt><trkpt lat="43.66961466565782" lon="10.50960519129517"><ele>3.0</ele><time>2026-05-02T07:50:28.999Z</time></trkpt><trkpt lat="43.66966265762334" lon="10.509207714895219"><ele>2.5</ele><time>2026-05-02T07:50:29.999Z</time></trkpt><trkpt lat="43.66971089385707" lon="10.508808944601839"><ele>2.0</ele><time>2026-05-02T07:50:30.999Z</time></trkpt><trkpt lat="43.66975759182948" lon="10.50840533687632"><ele>2.0</ele><time>2026-05-02T07:50:31.999Z</time></trkpt><trkpt lat="43.66980624615285" lon="10.508000278908144"><ele>2.0</ele><time>2026-05-02T07:50:32.999Z</time></trkpt><trkpt lat="43.6698554801246" lon="10.50759380057719"><ele>1.5</ele><time>2026-05-02T07:50:33.999Z</time></trkpt><trkpt lat="43.66990590471215" lon="10.507195224524606"><ele>1.0</ele><time>2026-05-02T07:50:34.999Z</time></trkpt><trkpt lat="43.66995549447034" lon="10.50679662319867"><ele>1.0</ele><time>2026-05-02T07:50:35.999Z</time></trkpt><trkpt lat="43.67000244784462" lon="10.506398598554362"><ele>1.0</ele><time>2026-05-02T07:50:36.999Z</time></trkpt><trkpt lat="43.6700503407811" lon="10.506001406510638"><ele>1.0</ele><time>2026-05-02T07:50:37.999Z</time></trkpt><trkpt lat="43.67009917301862" lon="10.505602219850699"><ele>1.0</ele><time>2026-05-02T07:50:38.999Z</time></trkpt><trkpt lat="43.67014713036362" lon="10.505206914939025"><ele>2.0</ele><time>2026-05-02T07:50:39.999Z</time></trkpt><trkpt lat="43.670193602899296" lon="10.504804354674194"><ele>3.0</ele><time>2026-05-02T07:50:40.999Z</time></trkpt><trkpt lat="43.67024260853834" lon="10.504398541804436"><ele>3.0</ele><time>2026-05-02T07:50:41.999Z</time></trkpt><trkpt lat="43.670291262096434" lon="10.503994204451725"><ele>3.0</ele><time>2026-05-02T07:50:42.999Z</time></trkpt><trkpt lat="43.67034280539441" lon="10.503603595616914"><ele>2.5</ele><time>2026-05-02T07:50:43.999Z</time></trkpt><trkpt lat="43.67038598847201" lon="10.503199512888951"><ele>2.0</ele><time>2026-05-02T07:50:44.999Z</time></trkpt><trkpt lat="43.6704327175553" lon="10.502776071700572"><ele>2.0</ele><time>2026-05-02T07:50:45.999Z</time></trkpt><trkpt lat="43.67048178714668" lon="10.502318165020993"><ele>2.0</ele><time>2026-05-02T07:50:46.999Z</time></trkpt><trkpt lat="43.67053866551294" lon="10.501840491115876"><ele>2.5</ele><time>2026-05-02T07:50:47.999Z</time></trkpt><trkpt lat="43.67059712058319" lon="10.501343340770443"><ele>3.0</ele><time>2026-05-02T07:50:48.999Z</time></trkpt><trkpt lat="43.67066030669556" lon="10.500830547335308"><ele>3.0</ele><time>2026-05-02T07:50:49.999Z</time></trkpt><trkpt lat="43.67072322910334" lon="10.50032455489508"><ele>3.0</ele><time>2026-05-02T07:50:50.999Z</time></trkpt><trkpt lat="43.67078504416876" lon="10.499844494423314"><ele>3.0</ele><time>2026-05-02T07:50:51.999Z</time></trkpt><trkpt lat="43.6708445356474" lon="10.499371008551188"><ele>3.0</ele><time>2026-05-02T07:50:52.999Z</time></trkpt><trkpt lat="43.670899775538764" lon="10.498906258205624"><ele>2.0</ele><time>2026-05-02T07:50:53.999Z</time></trkpt><trkpt lat="43.67095012654448" lon="10.498444516969638"><ele>1.0</ele><time>2026-05-02T07:50:54.999Z</time></trkpt><trkpt lat="43.67100193361312" lon="10.498006284659162"><ele>1.0</ele><time>2026-05-02T07:50:55.999Z</time></trkpt><trkpt lat="43.67105463759672" lon="10.497571265315841"><ele>1.0</ele><time>2026-05-02T07:50:56.999Z</time></trkpt><trkpt lat="43.671105699930095" lon="10.497141424332767"><ele>1.5</ele><time>2026-05-02T07:50:57.999Z</time></trkpt><trkpt lat="43.67115465951705" lon="10.496716502715389"><ele>2.0</ele><time>2026-05-02T07:50:58.999Z</time></trkpt><trkpt lat="43.67120308798553" lon="10.496293797798248"><ele>2.5</ele><time>2026-05-02T07:50:59.999Z</time></trkpt><trkpt lat="43.67125112517826" lon="10.495876432138065"><ele>3.0</ele><time>2026-05-02T07:51:00.999Z</time></trkpt><trkpt lat="43.67129700856618" lon="10.495462337571185"><ele>3.0</ele><time>2026-05-02T07:51:01.999Z</time></trkpt><trkpt lat="43.67134225290504" lon="10.495052549797917"><ele>3.0</ele><time>2026-05-02T07:51:02.999Z</time></trkpt><trkpt lat="43.67138772620853" lon="10.494651295479361"><ele>2.5</ele><time>2026-05-02T07:51:03.999Z</time></trkpt><trkpt lat="43.67143167048147" lon="10.494253841223571"><ele>2.0</ele><time>2026-05-02T07:51:04.999Z</time></trkpt><trkpt lat="43.671476462699616" lon="10.49387831207845"><ele>1.5</ele><time>2026-05-02T07:51:05.999Z</time></trkpt><trkpt lat="43.671519258826805" lon="10.493518715471613"><ele>1.0</ele><time>2026-05-02T07:51:06.999Z</time></trkpt><trkpt lat="43.67155716102771" lon="10.493177519136653"><ele>1.5</ele><time>2026-05-02T07:51:07.999Z</time></trkpt><trkpt lat="43.67158616363955" lon="10.492855101776318"><ele>2.0</ele><time>2026-05-02T07:51:08.999Z</time></trkpt><trkpt lat="43.67160740763656" lon="10.492537359878922"><ele>2.0</ele><time>2026-05-02T07:51:09.999Z</time></trkpt><trkpt lat="43.67162388275785" lon="10.49220132630488"><ele>2.0</ele><time>2026-05-02T07:51:10.999Z</time></trkpt><trkpt lat="43.671635081063094" lon="10.491836642832597"><ele>2.0</ele><time>2026-05-02T07:51:11.999Z</time></trkpt><trkpt lat="43.67163682311168" lon="10.491444936062189"><ele>2.0</ele><time>2026-05-02T07:51:12.999Z</time></trkpt><trkpt lat="43.671633768559275" lon="10.491055194556852"><ele>1.5</ele><time>2026-05-02T07:51:13.999Z</time></trkpt><trkpt lat="43.67162626871928" lon="10.490683289128269"><ele>1.0</ele><time>2026-05-02T07:51:14.999Z</time></trkpt><trkpt lat="43.67161563627102" lon="10.49032205001058"><ele>1.0</ele><time>2026-05-02T07:51:15.999Z</time></trkpt><trkpt lat="43.671599500871004" lon="10.489965454771596"><ele>1.0</ele><time>2026-05-02T07:51:16.999Z</time></trkpt><trkpt lat="43.671587570634344" lon="10.489628684581968"><ele>1.5</ele><time>2026-05-02T07:51:17.999Z</time></trkpt><trkpt lat="43.67157447404249" lon="10.489288198799711"><ele>2.0</ele><time>2026-05-02T07:51:18.999Z</time></trkpt><trkpt lat="43.671561421834234" lon="10.48895795699908"><ele>1.5</ele><time>2026-05-02T07:51:19.999Z</time></trkpt><trkpt lat="43.67155033517485" lon="10.488627692893653"><ele>1.0</ele><time>2026-05-02T07:51:20.999Z</time></trkpt><trkpt lat="43.67153941257884" lon="10.488301569748053"><ele>1.0</ele><time>2026-05-02T07:51:21.999Z</time></trkpt><trkpt lat="43.67152942866433" lon="10.487979935127818"><ele>1.0</ele><time>2026-05-02T07:51:22.999Z</time></trkpt><trkpt lat="43.67151695750129" lon="10.487656615800732"><ele>1.0</ele><time>2026-05-02T07:51:23.999Z</time></trkpt><trkpt lat="43.671505952310056" lon="10.487328021287507"><ele>1.0</ele><time>2026-05-02T07:51:24.999Z</time></trkpt><trkpt lat="43.67149361402223" lon="10.486990851643677"><ele>1.0</ele><time>2026-05-02T07:51:25.999Z</time></trkpt><trkpt lat="43.67148287222958" lon="10.486658325787555"><ele>1.0</ele><time>2026-05-02T07:51:26.999Z</time></trkpt><trkpt lat="43.671471883366365" lon="10.48632338292541"><ele>2.0</ele><time>2026-05-02T07:51:27.999Z</time></trkpt><trkpt lat="43.671463611155374" lon="10.485988371599483"><ele>3.0</ele><time>2026-05-02T07:51:28.999Z</time></trkpt><trkpt lat="43.671451594555734" lon="10.485649888293434"><ele>2.5</ele><time>2026-05-02T07:51:29.998Z</time></trkpt><trkpt lat="43.67143898611133" lon="10.485308456317547"><ele>2.0</ele><time>2026-05-02T07:51:30.998Z</time></trkpt><trkpt lat="43.67142595992811" lon="10.484974926152615"><ele>2.0</ele><time>2026-05-02T07:51:31.998Z</time></trkpt><trkpt lat="43.67141507565628" lon="10.484637922970995"><ele>2.0</ele><time>2026-05-02T07:51:32.998Z</time></trkpt><trkpt lat="43.67140392589819" lon="10.484297624483183"><ele>2.0</ele><time>2026-05-02T07:51:34Z</time></trkpt><trkpt lat="43.67139305933545" lon="10.48395172164215"><ele>2.0</ele><time>2026-05-02T07:51:35Z</time></trkpt><trkpt lat="43.67137970267084" lon="10.483596087473977"><ele>2.0</ele><time>2026-05-02T07:51:36Z</time></trkpt><trkpt lat="43.67136796556284" lon="10.483240812523277"><ele>2.0</ele><time>2026-05-02T07:51:37Z</time></trkpt><trkpt lat="43.671357198887826" lon="10.482880390330816"><ele>2.0</ele><time>2026-05-02T07:51:38Z</time></trkpt><trkpt lat="43.67134506092887" lon="10.482516595665533"><ele>2.0</ele><time>2026-05-02T07:51:39Z</time></trkpt><trkpt lat="43.671332527064784" lon="10.482153810439279"><ele>3.0</ele><time>2026-05-02T07:51:40Z</time></trkpt><trkpt lat="43.67132044016796" lon="10.481792937836415"><ele>4.0</ele><time>2026-05-02T07:51:41Z</time></trkpt><trkpt lat="43.67130640055842" lon="10.481433307521154"><ele>3.0</ele><time>2026-05-02T07:51:42Z</time></trkpt><trkpt lat="43.67129478768613" lon="10.481073603840489"><ele>2.0</ele><time>2026-05-02T07:51:43Z</time></trkpt><trkpt lat="43.67128045681612" lon="10.48071960408092"><ele>2.0</ele><time>2026-05-02T07:51:44Z</time></trkpt><trkpt lat="43.67126923375524" lon="10.48036711256811"><ele>2.0</ele><time>2026-05-02T07:51:45Z</time></trkpt><trkpt lat="43.67126214357506" lon="10.4800068340042"><ele>2.0</ele><time>2026-05-02T07:51:46Z</time></trkpt><trkpt lat="43.67125043974169" lon="10.479649348497954"><ele>2.0</ele><time>2026-05-02T07:51:47Z</time></trkpt><trkpt lat="43.6712416003262" lon="10.479287839480916"><ele>1.5</ele><time>2026-05-02T07:51:48Z</time></trkpt><trkpt lat="43.6712365170903" lon="10.478929769866703"><ele>1.0</ele><time>2026-05-02T07:51:49Z</time></trkpt><trkpt lat="43.67123310563053" lon="10.47853856524869"><ele>1.0</ele><time>2026-05-02T07:51:50Z</time></trkpt><trkpt lat="43.67123312950892" lon="10.478117832843585"><ele>1.0</ele><time>2026-05-02T07:51:51Z</time></trkpt><trkpt lat="43.67124302548754" lon="10.477702621189447"><ele>1.0</ele><time>2026-05-02T07:51:52Z</time></trkpt><trkpt lat="43.671260539334426" lon="10.477299412482898"><ele>1.0</ele><time>2026-05-02T07:51:53Z</time></trkpt><trkpt lat="43.671280730192414" lon="10.47689925060126"><ele>1.5</ele><time>2026-05-02T07:51:54Z</time></trkpt><trkpt lat="43.67130824981084" lon="10.476510144902324"><ele>2.0</ele><time>2026-05-02T07:51:55Z</time></trkpt><trkpt lat="43.671341385408354" lon="10.476132592207557"><ele>2.5</ele><time>2026-05-02T07:51:56Z</time></trkpt><trkpt lat="43.6713784952623" lon="10.475764807646552"><ele>3.0</ele><time>2026-05-02T07:51:57Z</time></trkpt><trkpt lat="43.67142481287322" lon="10.47539418917892"><ele>1.5</ele><time>2026-05-02T07:51:58Z</time></trkpt><trkpt lat="43.67147836813724" lon="10.475027351403714"><ele>0.0</ele><time>2026-05-02T07:51:59Z</time></trkpt><trkpt lat="43.67153910001342" lon="10.474662914750352"><ele>0.5</ele><time>2026-05-02T07:52:00Z</time></trkpt><trkpt lat="43.6716074954351" lon="10.474303103803077"><ele>1.0</ele><time>2026-05-02T07:52:01Z</time></trkpt><trkpt lat="43.67168096971549" lon="10.47394541750823"><ele>1.5</ele><time>2026-05-02T07:52:02Z</time></trkpt><trkpt lat="43.671763348564184" lon="10.473586018902429"><ele>2.0</ele><time>2026-05-02T07:52:03Z</time></trkpt><trkpt lat="43.67185587727878" lon="10.473230198093932"><ele>2.0</ele><time>2026-05-02T07:52:04Z</time></trkpt><trkpt lat="43.67194828857771" lon="10.472870254460483"><ele>2.0</ele><time>2026-05-02T07:52:05Z</time></trkpt><trkpt lat="43.672051639818854" lon="10.472504433988206"><ele>2.0</ele><time>2026-05-02T07:52:06Z</time></trkpt><trkpt lat="43.672162149345084" lon="10.472124390355564"><ele>2.0</ele><time>2026-05-02T07:52:07Z</time></trkpt><trkpt lat="43.67229294677764" lon="10.471725377075469"><ele>1.5</ele><time>2026-05-02T07:52:08Z</time></trkpt><trkpt lat="43.672440473458" lon="10.471313985387777"><ele>1.0</ele><time>2026-05-02T07:52:09Z</time></trkpt><trkpt lat="43.67259893148975" lon="10.47090077117133"><ele>1.0</ele><time>2026-05-02T07:52:10Z</time></trkpt><trkpt lat="43.67277302040351" lon="10.470491829399315"><ele>1.0</ele><time>2026-05-02T07:52:11Z</time></trkpt><trkpt lat="43.67295456980084" lon="10.470086476739915"><ele>1.0</ele><time>2026-05-02T07:52:12Z</time></trkpt><trkpt lat="43.673141556874945" lon="10.469689405839121"><ele>1.0</ele><time>2026-05-02T07:52:13Z</time></trkpt><trkpt lat="43.67333328694466" lon="10.469302994187206"><ele>0.5</ele><time>2026-05-02T07:52:14Z</time></trkpt><trkpt lat="43.67353022651011" lon="10.468920707490382"><ele>0.0</ele><time>2026-05-02T07:52:15Z</time></trkpt><trkpt lat="43.6737332153594" lon="10.468542868326939"><ele>0.0</ele><time>2026-05-02T07:52:16Z</time></trkpt><trkpt lat="43.67393800135878" lon="10.46816738998068"><ele>0.0</ele><time>2026-05-02T07:52:17Z</time></trkpt><trkpt lat="43.67414554508165" lon="10.46779289032058"><ele>0.0</ele><time>2026-05-02T07:52:18Z</time></trkpt><trkpt lat="43.674356180141004" lon="10.467413838124513"><ele>0.0</ele><time>2026-05-02T07:52:19Z</time></trkpt><trkpt lat="43.67456925296003" lon="10.46703128850946"><ele>0.5</ele><time>2026-05-02T07:52:20Z</time></trkpt><trkpt lat="43.67478187640563" lon="10.46664526982907"><ele>1.0</ele><time>2026-05-02T07:52:21Z</time></trkpt><trkpt lat="43.674994953008195" lon="10.466257707545548"><ele>1.0</ele><time>2026-05-02T07:52:22Z</time></trkpt><trkpt lat="43.67520941161884" lon="10.465868988814643"><ele>1.0</ele><time>2026-05-02T07:52:23Z</time></trkpt><trkpt lat="43.675425628661664" lon="10.465475563687576"><ele>1.0</ele><time>2026-05-02T07:52:24Z</time></trkpt><trkpt lat="43.675639709387845" lon="10.465084359304711"><ele>1.0</ele><time>2026-05-02T07:52:25Z</time></trkpt><trkpt lat="43.675854787399416" lon="10.464698945283027"><ele>1.0</ele><time>2026-05-02T07:52:26Z</time></trkpt><trkpt lat="43.67606747207146" lon="10.464324590548788"><ele>1.0</ele><time>2026-05-02T07:52:27Z</time></trkpt><trkpt lat="43.67627662477043" lon="10.46394961021024"><ele>1.0</ele><time>2026-05-02T07:52:28Z</time></trkpt><trkpt lat="43.67648877763829" lon="10.463581340144632"><ele>1.0</ele><time>2026-05-02T07:52:29Z</time></trkpt><trkpt lat="43.67669247404712" lon="10.463212714809604"><ele>1.5</ele><time>2026-05-02T07:52:29.999Z</time></trkpt><trkpt lat="43.67689551287076" lon="10.462845208616189"><ele>2.0</ele><time>2026-05-02T07:52:30.999Z</time></trkpt><trkpt lat="43.67709647475545" lon="10.462479492016056"><ele>2.0</ele><time>2026-05-02T07:52:31.999Z</time></trkpt><trkpt lat="43.67729497456055" lon="10.462118465258214"><ele>2.0</ele><time>2026-05-02T07:52:32.999Z</time></trkpt><trkpt lat="43.67749249520116" lon="10.461760286892213"><ele>2.0</ele><time>2026-05-02T07:52:33.999Z</time></trkpt><trkpt lat="43.67768645836828" lon="10.461405306120621"><ele>2.0</ele><time>2026-05-02T07:52:34.999Z</time></trkpt><trkpt lat="43.67787781915489" lon="10.46105756541441"><ele>2.0</ele><time>2026-05-02T07:52:35.999Z</time></trkpt><trkpt lat="43.678065853101515" lon="10.460716534720676"><ele>2.0</ele><time>2026-05-02T07:52:36.999Z</time></trkpt><trkpt lat="43.67825151127056" lon="10.460374139482864"><ele>2.0</ele><time>2026-05-02T07:52:37.999Z</time></trkpt><trkpt lat="43.678436223709575" lon="10.46003581557033"><ele>2.0</ele><time>2026-05-02T07:52:38.999Z</time></trkpt><trkpt lat="43.67861941320981" lon="10.459697945598094"><ele>2.0</ele><time>2026-05-02T07:52:39.999Z</time></trkpt><trkpt lat="43.67879970213456" lon="10.459367293056241"><ele>2.0</ele><time>2026-05-02T07:52:40.999Z</time></trkpt><trkpt lat="43.67897807053811" lon="10.45903949238926"><ele>1.0</ele><time>2026-05-02T07:52:41.999Z</time></trkpt><trkpt lat="43.67914740148183" lon="10.458717824024166"><ele>0.0</ele><time>2026-05-02T07:52:42.999Z</time></trkpt><trkpt lat="43.67930665704029" lon="10.458406649418377"><ele>0.0</ele><time>2026-05-02T07:52:43.999Z</time></trkpt><trkpt lat="43.6794601158995" lon="10.45807639306063"><ele>0.0</ele><time>2026-05-02T07:52:44.999Z</time></trkpt><trkpt lat="43.67961716359263" lon="10.457729902806795"><ele>0.0</ele><time>2026-05-02T07:52:45.999Z</time></trkpt><trkpt lat="43.679773869691516" lon="10.457374874540019"><ele>0.0</ele><time>2026-05-02T07:52:46.999Z</time></trkpt><trkpt lat="43.679932911044006" lon="10.457012651374775"><ele>0.0</ele><time>2026-05-02T07:52:47.999Z</time></trkpt><trkpt lat="43.68009010612373" lon="10.45664178628661"><ele>0.0</ele><time>2026-05-02T07:52:48.999Z</time></trkpt><trkpt lat="43.680246940328466" lon="10.456263479032136"><ele>0.5</ele><time>2026-05-02T07:52:49.999Z</time></trkpt><trkpt lat="43.68040342602972" lon="10.455876758702097"><ele>1.0</ele><time>2026-05-02T07:52:50.999Z</time></trkpt><trkpt lat="43.68055982170336" lon="10.455479707123146"><ele>0.5</ele><time>2026-05-02T07:52:51.999Z</time></trkpt><trkpt lat="43.680715562991324" lon="10.45507500731688"><ele>0.0</ele><time>2026-05-02T07:52:52.999Z</time></trkpt><trkpt lat="43.68087184229988" lon="10.454673681760015"><ele>0.0</ele><time>2026-05-02T07:52:53.999Z</time></trkpt><trkpt lat="43.681032492951594" lon="10.454272816146078"><ele>0.0</ele><time>2026-05-02T07:52:54.999Z</time></trkpt><trkpt lat="43.68119489194913" lon="10.453865109361795"><ele>1.0</ele><time>2026-05-02T07:52:55.999Z</time></trkpt><trkpt lat="43.68135393525019" lon="10.453459944711012"><ele>2.0</ele><time>2026-05-02T07:52:56.999Z</time></trkpt><trkpt lat="43.68151555764832" lon="10.453052849021777"><ele>2.0</ele><time>2026-05-02T07:52:57.999Z</time></trkpt><trkpt lat="43.6816770053761" lon="10.452646554019944"><ele>2.0</ele><time>2026-05-02T07:52:58.999Z</time></trkpt><trkpt lat="43.68183712653855" lon="10.452238501270507"><ele>1.0</ele><time>2026-05-02T07:52:59.999Z</time></trkpt><trkpt lat="43.681996854786284" lon="10.451833320447406"><ele>0.0</ele><time>2026-05-02T07:53:00.999Z</time></trkpt><trkpt lat="43.68215951200426" lon="10.451419810113531"><ele>0.0</ele><time>2026-05-02T07:53:01.999Z</time></trkpt><trkpt lat="43.6823214864871" lon="10.451006723267504"><ele>0.0</ele><time>2026-05-02T07:53:02.999Z</time></trkpt><trkpt lat="43.68248143374251" lon="10.450590004723287"><ele>1.0</ele><time>2026-05-02T07:53:03.999Z</time></trkpt><trkpt lat="43.68264652959105" lon="10.450177522324907"><ele>2.0</ele><time>2026-05-02T07:53:04.999Z</time></trkpt><trkpt lat="43.682807642334154" lon="10.449766593542147"><ele>1.5</ele><time>2026-05-02T07:53:05.999Z</time></trkpt><trkpt lat="43.682969111120705" lon="10.449356887263354"><ele>1.0</ele><time>2026-05-02T07:53:06.999Z</time></trkpt><trkpt lat="43.68312936290144" lon="10.44894731340116"><ele>1.0</ele><time>2026-05-02T07:53:07.999Z</time></trkpt><trkpt lat="43.683289194184425" lon="10.448541657889248"><ele>1.0</ele><time>2026-05-02T07:53:08.999Z</time></trkpt><trkpt lat="43.68344789223479" lon="10.448131227663486"><ele>0.5</ele><time>2026-05-02T07:53:09.999Z</time></trkpt><trkpt lat="43.68360933832093" lon="10.447720402169637"><ele>0.0</ele><time>2026-05-02T07:53:10.999Z</time></trkpt><trkpt lat="43.683767763710215" lon="10.447316296086324"><ele>-0.5</ele><time>2026-05-02T07:53:11.999Z</time></trkpt><trkpt lat="43.68393352319834" lon="10.446912764727509"><ele>-1.0</ele><time>2026-05-02T07:53:12.999Z</time></trkpt><trkpt lat="43.68410173064713" lon="10.446512407184896"><ele>-0.5</ele><time>2026-05-02T07:53:13.999Z</time></trkpt><trkpt lat="43.68426529484941" lon="10.44612534126897"><ele>0.0</ele><time>2026-05-02T07:53:14.999Z</time></trkpt><trkpt lat="43.684428991514594" lon="10.445744655626784"><ele>0.5</ele><time>2026-05-02T07:53:15.999Z</time></trkpt><trkpt lat="43.684586056013735" lon="10.445385970063127"><ele>1.0</ele><time>2026-05-02T07:53:16.999Z</time></trkpt><trkpt lat="43.68473631109383" lon="10.445052017496266"><ele>1.0</ele><time>2026-05-02T07:53:17.999Z</time></trkpt><trkpt lat="43.68488268053403" lon="10.444728877332148"><ele>1.0</ele><time>2026-05-02T07:53:18.999Z</time></trkpt><trkpt lat="43.68502436442374" lon="10.44442910497961"><ele>1.5</ele><time>2026-05-02T07:53:19.999Z</time></trkpt><trkpt lat="43.685153362549535" lon="10.444146054818702"><ele>2.0</ele><time>2026-05-02T07:53:20.999Z</time></trkpt><trkpt lat="43.685281233547535" lon="10.44386467188924"><ele>2.0</ele><time>2026-05-02T07:53:21.999Z</time></trkpt><trkpt lat="43.685399796723395" lon="10.44360422521096"><ele>2.0</ele><time>2026-05-02T07:53:22.999Z</time></trkpt><trkpt lat="43.68552133937889" lon="10.443343153752922"><ele>2.0</ele><time>2026-05-02T07:53:23.999Z</time></trkpt><trkpt lat="43.68564382548018" lon="10.443078030811506"><ele>2.5</ele><time>2026-05-02T07:53:24.999Z</time></trkpt><trkpt lat="43.685775199629646" lon="10.442793231976607"><ele>3.0</ele><time>2026-05-02T07:53:25.999Z</time></trkpt><trkpt lat="43.68592096851273" lon="10.442480484279065"><ele>3.0</ele><time>2026-05-02T07:53:26.999Z</time></trkpt><trkpt lat="43.68607270430615" lon="10.442152658816308"><ele>3.0</ele><time>2026-05-02T07:53:27.999Z</time></trkpt><trkpt lat="43.686219662585124" lon="10.44183191265991"><ele>2.5</ele><time>2026-05-02T07:53:28.999Z</time></trkpt><trkpt lat="43.68638078399171" lon="10.441479499787224"><ele>2.0</ele><time>2026-05-02T07:53:29.999Z</time></trkpt><trkpt lat="43.68654390848812" lon="10.441117647082324"><ele>2.0</ele><time>2026-05-02T07:53:30.999Z</time></trkpt><trkpt lat="43.68670732560114" lon="10.440766120002355"><ele>2.0</ele><time>2026-05-02T07:53:31.999Z</time></trkpt><trkpt lat="43.686868474700645" lon="10.440413024051526"><ele>1.5</ele><time>2026-05-02T07:53:32.999Z</time></trkpt><trkpt lat="43.687032457343506" lon="10.440056954429295"><ele>1.0</ele><time>2026-05-02T07:53:33.999Z</time></trkpt><trkpt lat="43.6871974890976" lon="10.439697996564325"><ele>1.5</ele><time>2026-05-02T07:53:34.999Z</time></trkpt><trkpt lat="43.68736197722672" lon="10.43934168743935"><ele>2.0</ele><time>2026-05-02T07:53:35.999Z</time></trkpt><trkpt lat="43.68752698184793" lon="10.43898619240708"><ele>2.0</ele><time>2026-05-02T07:53:36.999Z</time></trkpt><trkpt lat="43.687692754226525" lon="10.438629420775843"><ele>2.0</ele><time>2026-05-02T07:53:37.998Z</time></trkpt><trkpt lat="43.687856575250606" lon="10.438276343661895"><ele>1.5</ele><time>2026-05-02T07:53:38.998Z</time></trkpt><trkpt lat="43.688015625221254" lon="10.4379237398113"><ele>1.0</ele><time>2026-05-02T07:53:40Z</time></trkpt><trkpt lat="43.688165618524806" lon="10.437574173495786"><ele>1.0</ele><time>2026-05-02T07:53:41Z</time></trkpt><trkpt lat="43.6883162621579" lon="10.437256758657364"><ele>1.0</ele><time>2026-05-02T07:53:42Z</time></trkpt><trkpt lat="43.68846507047086" lon="10.436928648917545"><ele>1.5</ele><time>2026-05-02T07:53:43Z</time></trkpt><trkpt lat="43.68861459592013" lon="10.436602290438437"><ele>2.0</ele><time>2026-05-02T07:53:44Z</time></trkpt><trkpt lat="43.68875920107245" lon="10.43628045328703"><ele>2.5</ele><time>2026-05-02T07:53:45Z</time></trkpt><trkpt lat="43.68889567280809" lon="10.435977265282814"><ele>3.0</ele><time>2026-05-02T07:53:46Z</time></trkpt><trkpt lat="43.6890312050521" lon="10.435681954501804"><ele>2.0</ele><time>2026-05-02T07:53:47Z</time></trkpt><trkpt lat="43.6891751871879" lon="10.435373968952979"><ele>1.0</ele><time>2026-05-02T07:53:48Z</time></trkpt><trkpt lat="43.68932422044998" lon="10.435052743451363"><ele>1.0</ele><time>2026-05-02T07:53:49Z</time></trkpt><trkpt lat="43.68947359593289" lon="10.434731881918806"><ele>1.0</ele><time>2026-05-02T07:53:50Z</time></trkpt><trkpt lat="43.68962392962065" lon="10.434402172840752"><ele>1.0</ele><time>2026-05-02T07:53:51Z</time></trkpt><trkpt lat="43.68977321202016" lon="10.434072322905296"><ele>1.0</ele><time>2026-05-02T07:53:52Z</time></trkpt><trkpt lat="43.68991902153293" lon="10.433737857179167"><ele>1.0</ele><time>2026-05-02T07:53:53Z</time></trkpt><trkpt lat="43.690064544487456" lon="10.433395010630845"><ele>1.0</ele><time>2026-05-02T07:53:54Z</time></trkpt><trkpt lat="43.69020547933087" lon="10.433049175372423"><ele>1.0</ele><time>2026-05-02T07:53:55Z</time></trkpt><trkpt lat="43.69034275069916" lon="10.432695808200316"><ele>1.0</ele><time>2026-05-02T07:53:56Z</time></trkpt><trkpt lat="43.69047906740902" lon="10.432333235972841"><ele>1.0</ele><time>2026-05-02T07:53:57Z</time></trkpt><trkpt lat="43.69061016356568" lon="10.431967768387283"><ele>1.0</ele><time>2026-05-02T07:53:58Z</time></trkpt><trkpt lat="43.69073428844418" lon="10.431599832598645"><ele>1.0</ele><time>2026-05-02T07:53:59Z</time></trkpt><trkpt lat="43.69085104824375" lon="10.43122912198196"><ele>1.0</ele><time>2026-05-02T07:54:00Z</time></trkpt><trkpt lat="43.69095878416426" lon="10.430849445886034"><ele>1.5</ele><time>2026-05-02T07:54:01Z</time></trkpt><trkpt lat="43.691062903278336" lon="10.43046308259286"><ele>2.0</ele><time>2026-05-02T07:54:02Z</time></trkpt><trkpt lat="43.691158600791994" lon="10.4300750228881"><ele>2.5</ele><time>2026-05-02T07:54:03Z</time></trkpt><trkpt lat="43.69123955065545" lon="10.429678928128016"><ele>3.0</ele><time>2026-05-02T07:54:04Z</time></trkpt><trkpt lat="43.69130605355563" lon="10.42928262167106"><ele>3.5</ele><time>2026-05-02T07:54:05Z</time></trkpt><trkpt lat="43.69136694235195" lon="10.428881722447597"><ele>4.0</ele><time>2026-05-02T07:54:06Z</time></trkpt><trkpt lat="43.69141581306574" lon="10.428479812904627"><ele>4.0</ele><time>2026-05-02T07:54:07Z</time></trkpt><trkpt lat="43.691460261177944" lon="10.428088195949814"><ele>4.0</ele><time>2026-05-02T07:54:08Z</time></trkpt><trkpt lat="43.6915008669126" lon="10.42769720828378"><ele>3.5</ele><time>2026-05-02T07:54:09Z</time></trkpt><trkpt lat="43.69153573213512" lon="10.427309711608773"><ele>3.0</ele><time>2026-05-02T07:54:10Z</time></trkpt><trkpt lat="43.691562772027446" lon="10.426925457389373"><ele>3.0</ele><time>2026-05-02T07:54:11Z</time></trkpt><trkpt lat="43.691588861766355" lon="10.42654218330524"><ele>3.0</ele><time>2026-05-02T07:54:12Z</time></trkpt><trkpt lat="43.69161245315181" lon="10.42615594729426"><ele>3.0</ele><time>2026-05-02T07:54:13Z</time></trkpt><trkpt lat="43.69163762847253" lon="10.42576931627723"><ele>3.0</ele><time>2026-05-02T07:54:14Z</time></trkpt><trkpt lat="43.69166632582853" lon="10.425383118118962"><ele>2.5</ele><time>2026-05-02T07:54:15Z</time></trkpt><trkpt lat="43.69170057172199" lon="10.425001819495945"><ele>2.0</ele><time>2026-05-02T07:54:16Z</time></trkpt><trkpt lat="43.69173974276614" lon="10.424628143710006"><ele>2.0</ele><time>2026-05-02T07:54:17Z</time></trkpt><trkpt lat="43.6917890580646" lon="10.424266955580672"><ele>2.0</ele><time>2026-05-02T07:54:18Z</time></trkpt><trkpt lat="43.69184597553746" lon="10.423905505621759"><ele>2.0</ele><time>2026-05-02T07:54:19Z</time></trkpt><trkpt lat="43.69190381397552" lon="10.423546720544364"><ele>2.0</ele><time>2026-05-02T07:54:20Z</time></trkpt><trkpt lat="43.691958655525596" lon="10.423208274897293"><ele>1.6666666666666665</ele><time>2026-05-02T07:54:21Z</time></trkpt><trkpt lat="43.692016980698675" lon="10.422895624345294"><ele>1.3333333333333333</ele><time>2026-05-02T07:54:22Z</time></trkpt><trkpt lat="43.69206805514606" lon="10.422611372199404"><ele>1.0</ele><time>2026-05-02T07:54:23Z</time></trkpt><trkpt lat="43.69212066354382" lon="10.422341158901785"><ele>1.3333333333333333</ele><time>2026-05-02T07:54:24Z</time></trkpt><trkpt lat="43.692175735032066" lon="10.42207733967298"><ele>1.6666666666666665</ele><time>2026-05-02T07:54:25Z</time></trkpt><trkpt lat="43.69223811204353" lon="10.421796458277948"><ele>2.0</ele><time>2026-05-02T07:54:26Z</time></trkpt><trkpt lat="43.692300620639955" lon="10.42151005123352"><ele>1.5</ele><time>2026-05-02T07:54:27Z</time></trkpt><trkpt lat="43.69236411979594" lon="10.421215793758273"><ele>1.0</ele><time>2026-05-02T07:54:28Z</time></trkpt><trkpt lat="43.69243020638527" lon="10.420908453678306"><ele>1.0</ele><time>2026-05-02T07:54:28.999Z</time></trkpt><trkpt lat="43.69249630092094" lon="10.420591500318302"><ele>1.0</ele><time>2026-05-02T07:54:29.999Z</time></trkpt><trkpt lat="43.6925650940415" lon="10.420267251672024"><ele>1.0</ele><time>2026-05-02T07:54:30.999Z</time></trkpt><trkpt lat="43.69263404057217" lon="10.419934876383065"><ele>1.0</ele><time>2026-05-02T07:54:31.999Z</time></trkpt><trkpt lat="43.69270521380077" lon="10.419598883063868"><ele>0.0</ele><time>2026-05-02T07:54:32.999Z</time></trkpt><trkpt lat="43.6927792466241" lon="10.419250731401505"><ele>-1.0</ele><time>2026-05-02T07:54:33.999Z</time></trkpt><trkpt lat="43.692856283134724" lon="10.418897789132547"><ele>-1.0</ele><time>2026-05-02T07:54:34.999Z</time></trkpt><trkpt lat="43.69292987570657" lon="10.418544816925888"><ele>-1.0</ele><time>2026-05-02T07:54:35.999Z</time></trkpt><trkpt lat="43.69300658606958" lon="10.418177849069219"><ele>-1.0</ele><time>2026-05-02T07:54:36.999Z</time></trkpt><trkpt lat="43.693087094174075" lon="10.417804238299016"><ele>-1.0</ele><time>2026-05-02T07:54:37.999Z</time></trkpt><trkpt lat="43.693169914089886" lon="10.417426246753555"><ele>0.0</ele><time>2026-05-02T07:54:38.999Z</time></trkpt><trkpt lat="43.69325290889901" lon="10.417044179400122"><ele>1.0</ele><time>2026-05-02T07:54:39.999Z</time></trkpt><trkpt lat="43.69333632279867" lon="10.41666037675304"><ele>0.5</ele><time>2026-05-02T07:54:40.999Z</time></trkpt><trkpt lat="43.69342092190835" lon="10.416276666142966"><ele>0.0</ele><time>2026-05-02T07:54:41.999Z</time></trkpt><trkpt lat="43.693504845647986" lon="10.415890885803941"><ele>0.5</ele><time>2026-05-02T07:54:42.999Z</time></trkpt><trkpt lat="43.693591061003" lon="10.415507766801753"><ele>1.0</ele><time>2026-05-02T07:54:43.999Z</time></trkpt><trkpt lat="43.69368611965859" lon="10.415130627963014"><ele>1.5</ele><time>2026-05-02T07:54:44.999Z</time></trkpt><trkpt lat="43.693786670743776" lon="10.414778754615599"><ele>2.0</ele><time>2026-05-02T07:54:45.999Z</time></trkpt><trkpt lat="43.6938921679326" lon="10.414437119684687"><ele>2.0</ele><time>2026-05-02T07:54:46.999Z</time></trkpt><trkpt lat="43.69400380697446" lon="10.414093859368462"><ele>2.0</ele><time>2026-05-02T07:54:47.999Z</time></trkpt><trkpt lat="43.694124176061784" lon="10.41375329815565"><ele>2.5</ele><time>2026-05-02T07:54:48.999Z</time></trkpt><trkpt lat="43.69425322258337" lon="10.413420858772705"><ele>3.0</ele><time>2026-05-02T07:54:49.999Z</time></trkpt><trkpt lat="43.69439808740706" lon="10.413089356626319"><ele>3.5</ele><time>2026-05-02T07:54:50.999Z</time></trkpt><trkpt lat="43.69455721042523" lon="10.412764427144173"><ele>4.0</ele><time>2026-05-02T07:54:51.999Z</time></trkpt><trkpt lat="43.694731800579255" lon="10.412446034168216"><ele>4.5</ele><time>2026-05-02T07:54:52.999Z</time></trkpt><trkpt lat="43.69492355627621" lon="10.412133150209668"><ele>5.0</ele><time>2026-05-02T07:54:53.999Z</time></trkpt><trkpt lat="43.69513603223771" lon="10.41182266610614"><ele>4.0</ele><time>2026-05-02T07:54:54.999Z</time></trkpt><trkpt lat="43.695371378206666" lon="10.411514191138737"><ele>3.0</ele><time>2026-05-02T07:54:55.999Z</time></trkpt><trkpt lat="43.69562250317788" lon="10.411210230614659"><ele>3.0</ele><time>2026-05-02T07:54:56.999Z</time></trkpt><trkpt lat="43.695889504860226" lon="10.410905360199328"><ele>3.0</ele><time>2026-05-02T07:54:57.999Z</time></trkpt><trkpt lat="43.69616044623648" lon="10.41060695500753"><ele>2.5</ele><time>2026-05-02T07:54:58.999Z</time></trkpt><trkpt lat="43.69642492172596" lon="10.410321351789596"><ele>2.0</ele><time>2026-05-02T07:54:59.999Z</time></trkpt><trkpt lat="43.69669800626909" lon="10.41002478481676"><ele>2.5</ele><time>2026-05-02T07:55:00.999Z</time></trkpt><trkpt lat="43.69692720626385" lon="10.409749001322952"><ele>3.0</ele><time>2026-05-02T07:55:01.999Z</time></trkpt><trkpt lat="43.697177262162676" lon="10.409451403666987"><ele>3.0</ele><time>2026-05-02T07:55:02.999Z</time></trkpt><trkpt lat="43.697415390949836" lon="10.409146421211464"><ele>3.0</ele><time>2026-05-02T07:55:03.999Z</time></trkpt><trkpt lat="43.69764331103261" lon="10.408838383793087"><ele>1.5</ele><time>2026-05-02T07:55:04.999Z</time></trkpt><trkpt lat="43.69786311346596" lon="10.4085215186744"><ele>0.0</ele><time>2026-05-02T07:55:05.999Z</time></trkpt><trkpt lat="43.698061412027386" lon="10.408191367878084"><ele>1.0</ele><time>2026-05-02T07:55:06.999Z</time></trkpt><trkpt lat="43.698243795472685" lon="10.407851932659474"><ele>2.0</ele><time>2026-05-02T07:55:07.999Z</time></trkpt><trkpt lat="43.6983892330219" lon="10.407505263935052"><ele>1.5</ele><time>2026-05-02T07:55:08.999Z</time></trkpt><trkpt lat="43.698535859281755" lon="10.407156995914075"><ele>1.0</ele><time>2026-05-02T07:55:09.999Z</time></trkpt><trkpt lat="43.69867459202292" lon="10.406806130992758"><ele>1.5</ele><time>2026-05-02T07:55:10.999Z</time></trkpt><trkpt lat="43.6988003368218" lon="10.406456042193422"><ele>2.0</ele><time>2026-05-02T07:55:11.999Z</time></trkpt><trkpt lat="43.69891287349022" lon="10.406105908133831"><ele>2.0</ele><time>2026-05-02T07:55:12.999Z</time></trkpt><trkpt lat="43.69901907439037" lon="10.40573483882314"><ele>2.0</ele><time>2026-05-02T07:55:13.999Z</time></trkpt><trkpt lat="43.69912083675572" lon="10.405354648622284"><ele>2.0</ele><time>2026-05-02T07:55:14.999Z</time></trkpt><trkpt lat="43.699214681995755" lon="10.404961591085991"><ele>2.0</ele><time>2026-05-02T07:55:15.999Z</time></trkpt><trkpt lat="43.699303413578235" lon="10.404560992613877"><ele>2.0</ele><time>2026-05-02T07:55:16.999Z</time></trkpt><trkpt lat="43.69938610505232" lon="10.404142224472347"><ele>2.0</ele><time>2026-05-02T07:55:17.999Z</time></trkpt><trkpt lat="43.69946253720642" lon="10.403706879267569"><ele>2.0</ele><time>2026-05-02T07:55:18.999Z</time></trkpt><trkpt lat="43.6995298062755" lon="10.403268059344501"><ele>2.0</ele><time>2026-05-02T07:55:19.999Z</time></trkpt><trkpt lat="43.69958783781028" lon="10.402825825914409"><ele>2.0</ele><time>2026-05-02T07:55:20.999Z</time></trkpt><trkpt lat="43.699636796053746" lon="10.402384952379927"><ele>2.0</ele><time>2026-05-02T07:55:21.999Z</time></trkpt><trkpt lat="43.699680191157846" lon="10.401945624154378"><ele>2.0</ele><time>2026-05-02T07:55:22.999Z</time></trkpt><trkpt lat="43.69972846424595" lon="10.401505934496548"><ele>2.0</ele><time>2026-05-02T07:55:23.999Z</time></trkpt><trkpt lat="43.69977363887804" lon="10.40107258552944"><ele>2.0</ele><time>2026-05-02T07:55:24.999Z</time></trkpt><trkpt lat="43.69981655694706" lon="10.400642483502212"><ele>2.0</ele><time>2026-05-02T07:55:25.999Z</time></trkpt><trkpt lat="43.69985853781796" lon="10.400218194418445"><ele>2.5</ele><time>2026-05-02T07:55:26.999Z</time></trkpt><trkpt lat="43.69989900720446" lon="10.399807130290709"><ele>3.0</ele><time>2026-05-02T07:55:27.999Z</time></trkpt><trkpt lat="43.699935231632885" lon="10.399403679731519"><ele>3.0</ele><time>2026-05-02T07:55:28.999Z</time></trkpt><trkpt lat="43.69996958755863" lon="10.399008808716276"><ele>3.0</ele><time>2026-05-02T07:55:29.999Z</time></trkpt><trkpt lat="43.70000333013194" lon="10.398647835282993"><ele>2.5</ele><time>2026-05-02T07:55:30.999Z</time></trkpt><trkpt lat="43.70003751724713" lon="10.398293056679423"><ele>2.0</ele><time>2026-05-02T07:55:31.999Z</time></trkpt><trkpt lat="43.70006635754154" lon="10.397932626846723"><ele>2.0</ele><time>2026-05-02T07:55:32.999Z</time></trkpt><trkpt lat="43.700090335228715" lon="10.397574916671342"><ele>2.0</ele><time>2026-05-02T07:55:33.999Z</time></trkpt><trkpt lat="43.70010932404213" lon="10.397216715583252"><ele>2.0</ele><time>2026-05-02T07:55:34.999Z</time></trkpt><trkpt lat="43.70012442164864" lon="10.396858630713941"><ele>2.0</ele><time>2026-05-02T07:55:35.999Z</time></trkpt><trkpt lat="43.70013435271398" lon="10.396504995751911"><ele>2.5</ele><time>2026-05-02T07:55:36.998Z</time></trkpt><trkpt lat="43.70013297650517" lon="10.396153439492897"><ele>3.0</ele><time>2026-05-02T07:55:37.998Z</time></trkpt><trkpt lat="43.70012051492615" lon="10.395811095419567"><ele>2.6666666666666665</ele><time>2026-05-02T07:55:38.998Z</time></trkpt><trkpt lat="43.70009583825805" lon="10.395495955504279"><ele>2.333333333333333</ele><time>2026-05-02T07:55:39.998Z</time></trkpt><trkpt lat="43.70006468723247" lon="10.3952006247152"><ele>2.0</ele><time>2026-05-02T07:55:40.998Z</time></trkpt><trkpt lat="43.70002979179065" lon="10.394900962912061"><ele>1.5</ele><time>2026-05-02T07:55:41.998Z</time></trkpt><trkpt lat="43.69998911139301" lon="10.394590920018997"><ele>1.0</ele><time>2026-05-02T07:55:42.998Z</time></trkpt><trkpt lat="43.69994277156913" lon="10.394279542924954"><ele>1.0</ele><time>2026-05-02T07:55:43.998Z</time></trkpt><trkpt lat="43.699896401906216" lon="10.39396270743702"><ele>1.0</ele><time>2026-05-02T07:55:44.998Z</time></trkpt><trkpt lat="43.69984592706054" lon="10.393652086180559"><ele>1.0</ele><time>2026-05-02T07:55:46Z</time></trkpt><trkpt lat="43.69979748049263" lon="10.393349827271738"><ele>1.0</ele><time>2026-05-02T07:55:47Z</time></trkpt><trkpt lat="43.69974822055889" lon="10.393036550377236"><ele>1.0</ele><time>2026-05-02T07:55:48Z</time></trkpt><trkpt lat="43.69970205411331" lon="10.392701026218873"><ele>1.0</ele><time>2026-05-02T07:55:49Z</time></trkpt><trkpt lat="43.69966040936674" lon="10.392358156599105"><ele>1.5</ele><time>2026-05-02T07:55:50Z</time></trkpt><trkpt lat="43.69962443036144" lon="10.392010511653558"><ele>2.0</ele><time>2026-05-02T07:55:51Z</time></trkpt><trkpt lat="43.69959805936084" lon="10.391659449058716"><ele>1.5</ele><time>2026-05-02T07:55:52Z</time></trkpt><trkpt lat="43.69958430507733" lon="10.391321482771628"><ele>1.0</ele><time>2026-05-02T07:55:53Z</time></trkpt><trkpt lat="43.69958987750992" lon="10.390990129882322"><ele>1.0</ele><time>2026-05-02T07:55:54Z</time></trkpt><trkpt lat="43.69961002377319" lon="10.390648368669712"><ele>1.0</ele><time>2026-05-02T07:55:55Z</time></trkpt><trkpt lat="43.69963896621901" lon="10.39030578269909"><ele>0.5</ele><time>2026-05-02T07:55:56Z</time></trkpt><trkpt lat="43.699682209958006" lon="10.389960428421677"><ele>0.0</ele><time>2026-05-02T07:55:57Z</time></trkpt><trkpt lat="43.69974271258906" lon="10.38962351006554"><ele>0.0</ele><time>2026-05-02T07:55:58Z</time></trkpt><trkpt lat="43.699809655951185" lon="10.389296832463442"><ele>0.0</ele><time>2026-05-02T07:55:59Z</time></trkpt><trkpt lat="43.69988689542503" lon="10.388986458102714"><ele>-0.3333333333333333</ele><time>2026-05-02T07:56:00Z</time></trkpt><trkpt lat="43.69997696472058" lon="10.388700893644014"><ele>-0.6666666666666666</ele><time>2026-05-02T07:56:01Z</time></trkpt><trkpt lat="43.70007004524486" lon="10.388425526985364"><ele>-1.0</ele><time>2026-05-02T07:56:02Z</time></trkpt><trkpt lat="43.70015857555944" lon="10.388167175583563"><ele>0.33333333333333337</ele><time>2026-05-02T07:56:03Z</time></trkpt><trkpt lat="43.70025114408881" lon="10.387915384339122"><ele>1.6666666666666667</ele><time>2026-05-02T07:56:04Z</time></trkpt><trkpt lat="43.70034526343985" lon="10.387662437459726"><ele>3.0</ele><time>2026-05-02T07:56:05Z</time></trkpt><trkpt lat="43.70044650018099" lon="10.387377240070265"><ele>3.5</ele><time>2026-05-02T07:56:06Z</time></trkpt><trkpt lat="43.70054976491374" lon="10.387058582462016"><ele>4.0</ele><time>2026-05-02T07:56:07Z</time></trkpt><trkpt lat="43.700632244358076" lon="10.386726425591478"><ele>4.0</ele><time>2026-05-02T07:56:08Z</time></trkpt><trkpt lat="43.70071526557813" lon="10.38641090963165"><ele>4.0</ele><time>2026-05-02T07:56:09Z</time></trkpt><trkpt lat="43.70078570280507" lon="10.386083355593986"><ele>3.0</ele><time>2026-05-02T07:56:10Z</time></trkpt><trkpt lat="43.7008577831193" lon="10.385745803803344"><ele>2.0</ele><time>2026-05-02T07:56:11Z</time></trkpt><trkpt lat="43.70092691225771" lon="10.38539245634882"><ele>2.0</ele><time>2026-05-02T07:56:12Z</time></trkpt><trkpt lat="43.70098471877617" lon="10.385015537343895"><ele>2.0</ele><time>2026-05-02T07:56:13Z</time></trkpt><trkpt lat="43.701042495597385" lon="10.384629526975907"><ele>1.5</ele><time>2026-05-02T07:56:14Z</time></trkpt><trkpt lat="43.70108801671439" lon="10.384226872760244"><ele>1.0</ele><time>2026-05-02T07:56:15Z</time></trkpt><trkpt lat="43.70112341037881" lon="10.383818778553682"><ele>1.0</ele><time>2026-05-02T07:56:16Z</time></trkpt><trkpt lat="43.70113777696798" lon="10.383403600184721"><ele>1.0</ele><time>2026-05-02T07:56:17Z</time></trkpt><trkpt lat="43.70114785472195" lon="10.382965859832014"><ele>0.5</ele><time>2026-05-02T07:56:18Z</time></trkpt><trkpt lat="43.7011536823205" lon="10.382498628114565"><ele>0.0</ele><time>2026-05-02T07:56:19Z</time></trkpt><trkpt lat="43.701139813218774" lon="10.38201246393204"><ele>-0.5</ele><time>2026-05-02T07:56:20Z</time></trkpt><trkpt lat="43.701097810827314" lon="10.38151142389299"><ele>-1.0</ele><time>2026-05-02T07:56:21Z</time></trkpt><trkpt lat="43.70105151048713" lon="10.381016439957653"><ele>-1.0</ele><time>2026-05-02T07:56:22Z</time></trkpt><trkpt lat="43.70098764529404" lon="10.38053366655493"><ele>-1.0</ele><time>2026-05-02T07:56:23Z</time></trkpt><trkpt lat="43.70091396509571" lon="10.38005576052358"><ele>-0.5</ele><time>2026-05-02T07:56:24Z</time></trkpt><trkpt lat="43.700823765853" lon="10.37958954348974"><ele>0.0</ele><time>2026-05-02T07:56:25Z</time></trkpt><trkpt lat="43.700711247902795" lon="10.379125781061413"><ele>-0.5</ele><time>2026-05-02T07:56:26Z</time></trkpt><trkpt lat="43.70059051795836" lon="10.378671687527973"><ele>-1.0</ele><time>2026-05-02T07:56:27Z</time></trkpt><trkpt lat="43.700455480178924" lon="10.37822699824293"><ele>-1.5</ele><time>2026-05-02T07:56:28Z</time></trkpt><trkpt lat="43.700307119099556" lon="10.377790307462854"><ele>-2.0</ele><time>2026-05-02T07:56:29Z</time></trkpt><trkpt lat="43.70014602196684" lon="10.37736848835942"><ele>-1.0</ele><time>2026-05-02T07:56:30Z</time></trkpt><trkpt lat="43.699969994141874" lon="10.376955605072512"><ele>0.0</ele><time>2026-05-02T07:56:31Z</time></trkpt><trkpt lat="43.699780944519254" lon="10.37655200770895"><ele>0.0</ele><time>2026-05-02T07:56:32Z</time></trkpt><trkpt lat="43.69958033568902" lon="10.37616067050087"><ele>0.0</ele><time>2026-05-02T07:56:32.999Z</time></trkpt><trkpt lat="43.69937900079856" lon="10.375779889105425"><ele>-0.5</ele><time>2026-05-02T07:56:33.999Z</time></trkpt><trkpt lat="43.69917556744571" lon="10.375397596862745"><ele>-1.0</ele><time>2026-05-02T07:56:34.999Z</time></trkpt><trkpt lat="43.698965727984316" lon="10.375007341169413"><ele>-0.5</ele><time>2026-05-02T07:56:35.999Z</time></trkpt><trkpt lat="43.69875241848388" lon="10.374627509139977"><ele>0.0</ele><time>2026-05-02T07:56:36.999Z</time></trkpt><trkpt lat="43.698541913821074" lon="10.374246999073302"><ele>0.0</ele><time>2026-05-02T07:56:37.999Z</time></trkpt><trkpt lat="43.69833501893501" lon="10.373868782288516"><ele>0.0</ele><time>2026-05-02T07:56:38.999Z</time></trkpt><trkpt lat="43.69813058717693" lon="10.373487093797126"><ele>0.5</ele><time>2026-05-02T07:56:39.999Z</time></trkpt><trkpt lat="43.69792494701446" lon="10.373105363783475"><ele>1.0</ele><time>2026-05-02T07:56:40.999Z</time></trkpt><trkpt lat="43.697718074777384" lon="10.37272389545204"><ele>0.0</ele><time>2026-05-02T07:56:41.999Z</time></trkpt><trkpt lat="43.69750941235803" lon="10.372342014090552"><ele>-1.0</ele><time>2026-05-02T07:56:42.999Z</time></trkpt><trkpt lat="43.697302905001926" lon="10.371966326173343"><ele>-1.0</ele><time>2026-05-02T07:56:43.999Z</time></trkpt><trkpt lat="43.697103749919194" lon="10.371592429426006"><ele>-1.0</ele><time>2026-05-02T07:56:44.999Z</time></trkpt><trkpt lat="43.6969085743246" lon="10.37122495472406"><ele>-1.0</ele><time>2026-05-02T07:56:45.999Z</time></trkpt><trkpt lat="43.69672356895275" lon="10.370866046132031"><ele>-1.0</ele><time>2026-05-02T07:56:46.999Z</time></trkpt><trkpt lat="43.696555405469596" lon="10.37049459761625"><ele>-1.0</ele><time>2026-05-02T07:56:47.999Z</time></trkpt><trkpt lat="43.69641670817525" lon="10.370108552871704"><ele>-1.0</ele><time>2026-05-02T07:56:48.999Z</time></trkpt><trkpt lat="43.69628979597144" lon="10.369708749579903"><ele>-1.0</ele><time>2026-05-02T07:56:49.999Z</time></trkpt><trkpt lat="43.69618754702227" lon="10.369296360272328"><ele>-1.0</ele><time>2026-05-02T07:56:50.999Z</time></trkpt><trkpt lat="43.69609433553276" lon="10.368870562636072"><ele>1.0</ele><time>2026-05-02T07:56:51.999Z</time></trkpt><trkpt lat="43.696013675849926" lon="10.368440034868573"><ele>3.0</ele><time>2026-05-02T07:56:52.999Z</time></trkpt><trkpt lat="43.6959376760812" lon="10.367988326186788"><ele>3.0</ele><time>2026-05-02T07:56:53.999Z</time></trkpt><trkpt lat="43.69585752956989" lon="10.36753108595604"><ele>3.0</ele><time>2026-05-02T07:56:54.999Z</time></trkpt><trkpt lat="43.69577678093711" lon="10.367072767390155"><ele>3.0</ele><time>2026-05-02T07:56:55.999Z</time></trkpt><trkpt lat="43.69569440412473" lon="10.366616849599243"><ele>3.0</ele><time>2026-05-02T07:56:56.999Z</time></trkpt><trkpt lat="43.69561491749137" lon="10.36616852661839"><ele>2.5</ele><time>2026-05-02T07:56:57.999Z</time></trkpt><trkpt lat="43.6955352125303" lon="10.365722382900149"><ele>2.0</ele><time>2026-05-02T07:56:58.999Z</time></trkpt><trkpt lat="43.695458107269985" lon="10.365272562522154"><ele>2.0</ele><time>2026-05-02T07:56:59.999Z</time></trkpt><trkpt lat="43.695377981401876" lon="10.36482597417127"><ele>2.0</ele><time>2026-05-02T07:57:00.999Z</time></trkpt><trkpt lat="43.69529855156364" lon="10.364392248954077"><ele>1.5</ele><time>2026-05-02T07:57:01.999Z</time></trkpt><trkpt lat="43.695216470972056" lon="10.363965383538027"><ele>1.0</ele><time>2026-05-02T07:57:02.999Z</time></trkpt><trkpt lat="43.69512362943406" lon="10.363551950174184"><ele>1.0</ele><time>2026-05-02T07:57:03.999Z</time></trkpt><trkpt lat="43.69501485740345" lon="10.363149005954195"><ele>1.0</ele><time>2026-05-02T07:57:04.999Z</time></trkpt><trkpt lat="43.69488398929075" lon="10.362757371561493"><ele>0.5</ele><time>2026-05-02T07:57:05.999Z</time></trkpt><trkpt lat="43.69473368102945" lon="10.36238351267787"><ele>0.0</ele><time>2026-05-02T07:57:06.999Z</time></trkpt><trkpt lat="43.69456462442962" lon="10.362024040651045"><ele>1.0</ele><time>2026-05-02T07:57:07.999Z</time></trkpt><trkpt lat="43.69438208048883" lon="10.36168041646391"><ele>2.0</ele><time>2026-05-02T07:57:08.999Z</time></trkpt><trkpt lat="43.69419075579299" lon="10.361355001070992"><ele>2.0</ele><time>2026-05-02T07:57:09.999Z</time></trkpt><trkpt lat="43.693986866186215" lon="10.361055664622981"><ele>2.0</ele><time>2026-05-02T07:57:10.999Z</time></trkpt><trkpt lat="43.69377275406397" lon="10.360767481081627"><ele>2.5</ele><time>2026-05-02T07:57:11.999Z</time></trkpt><trkpt lat="43.69355106839432" lon="10.360502895033836"><ele>3.0</ele><time>2026-05-02T07:57:12.999Z</time></trkpt><trkpt lat="43.69332311764721" lon="10.360260437533418"><ele>3.0</ele><time>2026-05-02T07:57:13.999Z</time></trkpt><trkpt lat="43.69308741828623" lon="10.3600427865445"><ele>3.0</ele><time>2026-05-02T07:57:14.999Z</time></trkpt><trkpt lat="43.6928490599831" lon="10.359840390941319"><ele>2.5</ele><time>2026-05-02T07:57:15.999Z</time></trkpt><trkpt lat="43.692611802715376" lon="10.35965925472567"><ele>2.0</ele><time>2026-05-02T07:57:16.999Z</time></trkpt><trkpt lat="43.692369285401405" lon="10.35948912271083"><ele>2.0</ele><time>2026-05-02T07:57:17.999Z</time></trkpt><trkpt lat="43.69213065247449" lon="10.359355764442459"><ele>2.0</ele><time>2026-05-02T07:57:18.999Z</time></trkpt><trkpt lat="43.69189914511852" lon="10.359234041294675"><ele>2.0</ele><time>2026-05-02T07:57:19.999Z</time></trkpt><trkpt lat="43.691678994937476" lon="10.35912485642146"><ele>2.0</ele><time>2026-05-02T07:57:20.999Z</time></trkpt><trkpt lat="43.69146340275081" lon="10.35902142614518"><ele>2.0</ele><time>2026-05-02T07:57:21.999Z</time></trkpt><trkpt lat="43.69126276323917" lon="10.35892336286169"><ele>2.0</ele><time>2026-05-02T07:57:22.999Z</time></trkpt><trkpt lat="43.69107153376497" lon="10.358811330374762"><ele>2.0</ele><time>2026-05-02T07:57:23.999Z</time></trkpt><trkpt lat="43.690896842208495" lon="10.358685924862733"><ele>2.0</ele><time>2026-05-02T07:57:24.999Z</time></trkpt><trkpt lat="43.69073303128087" lon="10.358570029177313"><ele>2.0</ele><time>2026-05-02T07:57:25.999Z</time></trkpt><trkpt lat="43.69057191810381" lon="10.35847904214043"><ele>2.0</ele><time>2026-05-02T07:57:26.999Z</time></trkpt><trkpt lat="43.690443753651856" lon="10.358277948195559"><ele>2.0</ele><time>2026-05-02T07:57:27.999Z</time></trkpt><trkpt lat="43.690293719188105" lon="10.358151729905472"><ele>2.0</ele><time>2026-05-02T07:57:28.999Z</time></trkpt><trkpt lat="43.69014932144733" lon="10.358041679045153"><ele>2.0</ele><time>2026-05-02T07:57:29.999Z</time></trkpt><trkpt lat="43.69002008131722" lon="10.35795494452681"><ele>1.8</ele><time>2026-05-02T07:57:30.999Z</time></trkpt><trkpt lat="43.689906960842556" lon="10.357882184684879"><ele>1.6</ele><time>2026-05-02T07:57:31.999Z</time></trkpt><trkpt lat="43.68981316151559" lon="10.357827633625115"><ele>1.4000000000000001</ele><time>2026-05-02T07:57:32.999Z</time></trkpt><trkpt lat="43.68971903499953" lon="10.357775734548538"><ele>1.2000000000000002</ele><time>2026-05-02T07:57:33.999Z</time></trkpt><trkpt lat="43.68963332676184" lon="10.357732055858696"><ele>1.0</ele><time>2026-05-02T07:57:34.999Z</time></trkpt><trkpt lat="43.68955566824552" lon="10.357695532370006"><ele>0.9999999999999999</ele><time>2026-05-02T07:57:35.999Z</time></trkpt><trkpt lat="43.68948983114317" lon="10.357665460244034"><ele>1.0</ele><time>2026-05-02T07:57:36.999Z</time></trkpt><trkpt lat="43.68938142176162" lon="10.357613737031198"><ele>1.0</ele><time>2026-05-02T07:57:38.999Z</time></trkpt><trkpt lat="43.689315184296596" lon="10.357581828374654"><ele>1.0</ele><time>2026-05-02T07:57:39.999Z</time></trkpt><trkpt lat="43.689238112464146" lon="10.357546221490201"><ele>0.9999999999999999</ele><time>2026-05-02T07:57:40.999Z</time></trkpt><trkpt lat="43.68914911460963" lon="10.357510391410418"><ele>1.0</ele><time>2026-05-02T07:57:41.999Z</time></trkpt><trkpt lat="43.68906122658082" lon="10.35747678254173"><ele>1.1666666666666665</ele><time>2026-05-02T07:57:42.999Z</time></trkpt><trkpt lat="43.688979596066254" lon="10.357446986881962"><ele>1.3333333333333333</ele><time>2026-05-02T07:57:43.999Z</time></trkpt><trkpt lat="43.68889620672" lon="10.357417657573759"><ele>1.5</ele><time>2026-05-02T07:57:44.999Z</time></trkpt><trkpt lat="43.6888160311547" lon="10.35739259079244"><ele>1.6666666666666665</ele><time>2026-05-02T07:57:45.998Z</time></trkpt><trkpt lat="43.68874011990843" lon="10.357369403393893"><ele>1.8333333333333333</ele><time>2026-05-02T07:57:46.998Z</time></trkpt><trkpt lat="43.688666049141204" lon="10.357343788655216"><ele>2.0</ele><time>2026-05-02T07:57:47.998Z</time></trkpt><trkpt lat="43.688567320537125" lon="10.357312580256083"><ele>2.0</ele><time>2026-05-02T07:57:48.998Z</time></trkpt><trkpt lat="43.68845596022429" lon="10.357284174459366"><ele>2.0</ele><time>2026-05-02T07:57:49.998Z</time></trkpt><trkpt lat="43.688359805602545" lon="10.357264009459314"><ele>2.0</ele><time>2026-05-02T07:57:50.998Z</time></trkpt><trkpt lat="43.688268356761334" lon="10.35724305644171"><ele>2.0</ele><time>2026-05-02T07:57:52Z</time></trkpt><trkpt lat="43.68818295996606" lon="10.357219819162985"><ele>2.0</ele><time>2026-05-02T07:57:53Z</time></trkpt><trkpt lat="43.688101716306306" lon="10.357194902671239"><ele>1.75</ele><time>2026-05-02T07:57:54Z</time></trkpt><trkpt lat="43.68802643910568" lon="10.357168412251324"><ele>1.5</ele><time>2026-05-02T07:57:55Z</time></trkpt><trkpt lat="43.68792029880495" lon="10.357142724062237"><ele>1.25</ele><time>2026-05-02T07:57:56Z</time></trkpt><trkpt lat="43.68779423828925" lon="10.357118770953415"><ele>1.0</ele><time>2026-05-02T07:57:57Z</time></trkpt><trkpt lat="43.68764118459238" lon="10.357090790011917"><ele>1.0</ele><time>2026-05-02T07:57:58Z</time></trkpt><trkpt lat="43.6874883845425" lon="10.35706229090829"><ele>1.0</ele><time>2026-05-02T07:57:59Z</time></trkpt><trkpt lat="43.68730837577903" lon="10.357022331612415"><ele>1.0</ele><time>2026-05-02T07:58:00Z</time></trkpt><trkpt lat="43.68711147355974" lon="10.356969967209968"><ele>1.0</ele><time>2026-05-02T07:58:01Z</time></trkpt><trkpt lat="43.686936855562806" lon="10.356913032967888"><ele>1.0</ele><time>2026-05-02T07:58:02Z</time></trkpt><trkpt lat="43.686782377232404" lon="10.356853402243713"><ele>1.0</ele><time>2026-05-02T07:58:03Z</time></trkpt><trkpt lat="43.68664173362482" lon="10.356796168126749"><ele>0.5</ele><time>2026-05-02T07:58:04Z</time></trkpt><trkpt lat="43.686511444558256" lon="10.35673491237612"><ele>0.0</ele><time>2026-05-02T07:58:05Z</time></trkpt><trkpt lat="43.68639069484633" lon="10.356674449458025"><ele>-0.5</ele><time>2026-05-02T07:58:06Z</time></trkpt><trkpt lat="43.68627675133857" lon="10.35661165610295"><ele>-1.0</ele><time>2026-05-02T07:58:07Z</time></trkpt><trkpt lat="43.68613056114916" lon="10.356551998912527"><ele>-1.0</ele><time>2026-05-02T07:58:08Z</time></trkpt><trkpt lat="43.68597568559305" lon="10.356484150608983"><ele>-1.0</ele><time>2026-05-02T07:58:09Z</time></trkpt><trkpt lat="43.685816417889725" lon="10.356415408344251"><ele>-1.0</ele><time>2026-05-02T07:58:10Z</time></trkpt><trkpt lat="43.68567042773236" lon="10.356327660434268"><ele>-1.0</ele><time>2026-05-02T07:58:11Z</time></trkpt><trkpt lat="43.68554719923617" lon="10.356224300077029"><ele>-1.0</ele><time>2026-05-02T07:58:12Z</time></trkpt><trkpt lat="43.685446827984734" lon="10.356087626099727"><ele>-1.0</ele><time>2026-05-02T07:58:13Z</time></trkpt><trkpt lat="43.68536059029537" lon="10.355908723262859"><ele>-1.0</ele><time>2026-05-02T07:58:14Z</time></trkpt><trkpt lat="43.6853026425068" lon="10.355708209829878"><ele>-1.0</ele><time>2026-05-02T07:58:15Z</time></trkpt><trkpt lat="43.68527274974699" lon="10.355485305281904"><ele>-1.0</ele><time>2026-05-02T07:58:16Z</time></trkpt><trkpt lat="43.685279502628745" lon="10.355249890592216"><ele>-1.0</ele><time>2026-05-02T07:58:17Z</time></trkpt><trkpt lat="43.68532611747403" lon="10.355036099909036"><ele>-1.0</ele><time>2026-05-02T07:58:18Z</time></trkpt><trkpt lat="43.685406779028355" lon="10.354840931550447"><ele>-1.0</ele><time>2026-05-02T07:58:19Z</time></trkpt><trkpt lat="43.68551975312938" lon="10.354673178877917"><ele>-1.0</ele><time>2026-05-02T07:58:20Z</time></trkpt><trkpt lat="43.685657456627446" lon="10.354540785153421"><ele>-0.3333333333333333</ele><time>2026-05-02T07:58:21Z</time></trkpt><trkpt lat="43.68585786133288" lon="10.354469900199872"><ele>0.3333333333333333</ele><time>2026-05-02T07:58:22Z</time></trkpt><trkpt lat="43.686035228758854" lon="10.354415676866816"><ele>1.0</ele><time>2026-05-02T07:58:23Z</time></trkpt><trkpt lat="43.686232960334834" lon="10.354391184317357"><ele>1.0</ele><time>2026-05-02T07:58:24Z</time></trkpt><trkpt lat="43.68645351938844" lon="10.354462356293341"><ele>1.0</ele><time>2026-05-02T07:58:25Z</time></trkpt><trkpt lat="43.686697479436525" lon="10.354498524443374"><ele>1.5</ele><time>2026-05-02T07:58:26Z</time></trkpt><trkpt lat="43.68695742880716" lon="10.35451129568116"><ele>2.0</ele><time>2026-05-02T07:58:27Z</time></trkpt><trkpt lat="43.687233480025405" lon="10.35451839416401"><ele>2.0</ele><time>2026-05-02T07:58:28Z</time></trkpt><trkpt lat="43.68751414276513" lon="10.354526242585003"><ele>2.0</ele><time>2026-05-02T07:58:29Z</time></trkpt><trkpt lat="43.687807858358475" lon="10.354536394445537"><ele>2.5</ele><time>2026-05-02T07:58:30Z</time></trkpt><trkpt lat="43.68811270153862" lon="10.354549641083517"><ele>3.0</ele><time>2026-05-02T07:58:31Z</time></trkpt><trkpt lat="43.68843107010221" lon="10.354558396070422"><ele>2.5</ele><time>2026-05-02T07:58:32Z</time></trkpt><trkpt lat="43.688764067965536" lon="10.354556095995292"><ele>2.0</ele><time>2026-05-02T07:58:33Z</time></trkpt><trkpt lat="43.689109786093816" lon="10.354537253781851"><ele>2.5</ele><time>2026-05-02T07:58:34Z</time></trkpt><trkpt lat="43.68947317368941" lon="10.354500630047593"><ele>3.0</ele><time>2026-05-02T07:58:34.999Z</time></trkpt><trkpt lat="43.68983661844492" lon="10.354452438464058"><ele>3.0</ele><time>2026-05-02T07:58:35.999Z</time></trkpt><trkpt lat="43.690201200325276" lon="10.354391982282094"><ele>3.0</ele><time>2026-05-02T07:58:36.999Z</time></trkpt><trkpt lat="43.69056423479507" lon="10.354316271466175"><ele>2.5</ele><time>2026-05-02T07:58:37.999Z</time></trkpt><trkpt lat="43.690926631487514" lon="10.354234115086586"><ele>2.0</ele><time>2026-05-02T07:58:38.999Z</time></trkpt><trkpt lat="43.69129307746248" lon="10.354134156772474"><ele>2.0</ele><time>2026-05-02T07:58:39.999Z</time></trkpt><trkpt lat="43.69165527693033" lon="10.354025361185222"><ele>2.0</ele><time>2026-05-02T07:58:40.999Z</time></trkpt><trkpt lat="43.69201993746927" lon="10.353914410277955"><ele>2.5</ele><time>2026-05-02T07:58:41.999Z</time></trkpt><trkpt lat="43.69238828614094" lon="10.35380651464462"><ele>3.0</ele><time>2026-05-02T07:58:42.999Z</time></trkpt><trkpt lat="43.69275859194631" lon="10.353705262805544"><ele>4.5</ele><time>2026-05-02T07:58:43.999Z</time></trkpt><trkpt lat="43.69313240156009" lon="10.3536071806183"><ele>6.0</ele><time>2026-05-02T07:58:44.999Z</time></trkpt><trkpt lat="43.69350753977297" lon="10.353501179449458"><ele>4.5</ele><time>2026-05-02T07:58:45.999Z</time></trkpt><trkpt lat="43.693883496986416" lon="10.353393877635513"><ele>3.0</ele><time>2026-05-02T07:58:46.999Z</time></trkpt><trkpt lat="43.694264694290915" lon="10.35328449917749"><ele>2.0</ele><time>2026-05-02T07:58:47.999Z</time></trkpt><trkpt lat="43.694644094792444" lon="10.353175702525514"><ele>1.0</ele><time>2026-05-02T07:58:48.999Z</time></trkpt><trkpt lat="43.69502757943456" lon="10.35306365673505"><ele>2.0</ele><time>2026-05-02T07:58:49.999Z</time></trkpt><trkpt lat="43.695404123646775" lon="10.35295855266115"><ele>3.0</ele><time>2026-05-02T07:58:50.999Z</time></trkpt><trkpt lat="43.69578189930431" lon="10.35285465819456"><ele>3.0</ele><time>2026-05-02T07:58:51.999Z</time></trkpt><trkpt lat="43.696161073552375" lon="10.352744602532663"><ele>3.0</ele><time>2026-05-02T07:58:52.999Z</time></trkpt><trkpt lat="43.696541612377686" lon="10.35264471675957"><ele>3.0</ele><time>2026-05-02T07:58:53.999Z</time></trkpt><trkpt lat="43.69691760789623" lon="10.35254155202277"><ele>3.0</ele><time>2026-05-02T07:58:54.999Z</time></trkpt><trkpt lat="43.69729761146098" lon="10.352434113585504"><ele>2.5</ele><time>2026-05-02T07:58:55.999Z</time></trkpt><trkpt lat="43.697676298852436" lon="10.35232495353757"><ele>2.0</ele><time>2026-05-02T07:58:56.999Z</time></trkpt><trkpt lat="43.698053898626355" lon="10.352214987468342"><ele>2.0</ele><time>2026-05-02T07:58:57.999Z</time></trkpt><trkpt lat="43.69843120522783" lon="10.352103261458732"><ele>2.0</ele><time>2026-05-02T07:58:58.999Z</time></trkpt><trkpt lat="43.69881159623259" lon="10.351997602418066"><ele>2.0</ele><time>2026-05-02T07:58:59.999Z</time></trkpt><trkpt lat="43.69918794922957" lon="10.35189444994892"><ele>2.0</ele><time>2026-05-02T07:59:00.999Z</time></trkpt><trkpt lat="43.69955863945324" lon="10.351793766541919"><ele>1.5</ele><time>2026-05-02T07:59:01.999Z</time></trkpt><trkpt lat="43.6999307282178" lon="10.351690191248688"><ele>1.0</ele><time>2026-05-02T07:59:02.999Z</time></trkpt><trkpt lat="43.70030991589268" lon="10.351585565193202"><ele>1.0</ele><time>2026-05-02T07:59:03.999Z</time></trkpt><trkpt lat="43.700683536483545" lon="10.351481455753836"><ele>1.0</ele><time>2026-05-02T07:59:04.999Z</time></trkpt><trkpt lat="43.701054057653494" lon="10.351373214231142"><ele>1.0</ele><time>2026-05-02T07:59:05.999Z</time></trkpt><trkpt lat="43.701422906157816" lon="10.3512650973044"><ele>1.0</ele><time>2026-05-02T07:59:06.999Z</time></trkpt><trkpt lat="43.70179576437807" lon="10.351158460420871"><ele>0.5</ele><time>2026-05-02T07:59:07.999Z</time></trkpt><trkpt lat="43.70217098646945" lon="10.351050401910745"><ele>0.0</ele><time>2026-05-02T07:59:08.999Z</time></trkpt><trkpt lat="43.70254743475599" lon="10.35094331411944"><ele>0.5</ele><time>2026-05-02T07:59:09.999Z</time></trkpt><trkpt lat="43.70292335727865" lon="10.350837449615002"><ele>1.0</ele><time>2026-05-02T07:59:10.999Z</time></trkpt><trkpt lat="43.70329673850845" lon="10.350732622031742"><ele>1.0</ele><time>2026-05-02T07:59:11.999Z</time></trkpt><trkpt lat="43.70365796352005" lon="10.350631535425164"><ele>1.0</ele><time>2026-05-02T07:59:12.999Z</time></trkpt><trkpt lat="43.70402253316092" lon="10.350529352598"><ele>1.5</ele><time>2026-05-02T07:59:13.999Z</time></trkpt><trkpt lat="43.704397848653166" lon="10.350423260693788"><ele>2.0</ele><time>2026-05-02T07:59:14.999Z</time></trkpt><trkpt lat="43.70477616537283" lon="10.350318366273482"><ele>2.0</ele><time>2026-05-02T07:59:15.999Z</time></trkpt><trkpt lat="43.705156978649974" lon="10.350211685246762"><ele>2.0</ele><time>2026-05-02T07:59:16.999Z</time></trkpt><trkpt lat="43.70553479846658" lon="10.350102611954808"><ele>2.0</ele><time>2026-05-02T07:59:17.999Z</time></trkpt><trkpt lat="43.705917072579794" lon="10.349992711209042"><ele>2.0</ele><time>2026-05-02T07:59:18.999Z</time></trkpt><trkpt lat="43.706298995133416" lon="10.349885845981307"><ele>2.0</ele><time>2026-05-02T07:59:19.999Z</time></trkpt><trkpt lat="43.7066765791791" lon="10.349779975928387"><ele>2.0</ele><time>2026-05-02T07:59:20.999Z</time></trkpt><trkpt lat="43.70705820429917" lon="10.349670414318027"><ele>2.0</ele><time>2026-05-02T07:59:21.999Z</time></trkpt><trkpt lat="43.70743131680326" lon="10.349561941379731"><ele>2.0</ele><time>2026-05-02T07:59:22.999Z</time></trkpt><trkpt lat="43.70780756524851" lon="10.349452757371925"><ele>1.0</ele><time>2026-05-02T07:59:23.999Z</time></trkpt><trkpt lat="43.70819206006863" lon="10.349349978215342"><ele>0.0</ele><time>2026-05-02T07:59:24.999Z</time></trkpt><trkpt lat="43.70857751268404" lon="10.34926828497594"><ele>-0.5</ele><time>2026-05-02T07:59:25.999Z</time></trkpt><trkpt lat="43.708961896879046" lon="10.34920416542618"><ele>-1.0</ele><time>2026-05-02T07:59:26.999Z</time></trkpt><trkpt lat="43.70933759577668" lon="10.34915901233396"><ele>-1.0</ele><time>2026-05-02T07:59:27.999Z</time></trkpt><trkpt lat="43.709709729994934" lon="10.349118213595823"><ele>-1.0</ele><time>2026-05-02T07:59:28.999Z</time></trkpt><trkpt lat="43.7100749315358" lon="10.349091280849192"><ele>-1.0</ele><time>2026-05-02T07:59:29.999Z</time></trkpt><trkpt lat="43.71043762814559" lon="10.34906996809149"><ele>-1.0</ele><time>2026-05-02T07:59:30.999Z</time></trkpt><trkpt lat="43.710789551968354" lon="10.349061650061838"><ele>-1.0</ele><time>2026-05-02T07:59:31.999Z</time></trkpt><trkpt lat="43.711137407013396" lon="10.349060135428342"><ele>-1.0</ele><time>2026-05-02T07:59:32.999Z</time></trkpt><trkpt lat="43.711479929862236" lon="10.349063774541186"><ele>-1.0</ele><time>2026-05-02T07:59:33.999Z</time></trkpt><trkpt lat="43.711820862926274" lon="10.349075919858809"><ele>-1.0</ele><time>2026-05-02T07:59:34.999Z</time></trkpt><trkpt lat="43.712155943921424" lon="10.349099308810167"><ele>-1.0</ele><time>2026-05-02T07:59:35.999Z</time></trkpt><trkpt lat="43.712480772842646" lon="10.349131323929148"><ele>-1.0</ele><time>2026-05-02T07:59:36.999Z</time></trkpt><trkpt lat="43.71280494862982" lon="10.349164108499494"><ele>-1.0</ele><time>2026-05-02T07:59:37.999Z</time></trkpt><trkpt lat="43.713132855156815" lon="10.349205166711"><ele>-1.0</ele><time>2026-05-02T07:59:38.999Z</time></trkpt><trkpt lat="43.71346460115016" lon="10.349241908358424"><ele>-1.0</ele><time>2026-05-02T07:59:39.999Z</time></trkpt><trkpt lat="43.71379743333011" lon="10.349274965053743"><ele>-1.0</ele><time>2026-05-02T07:59:40.999Z</time></trkpt><trkpt lat="43.71412802937147" lon="10.349305819739786"><ele>-1.5</ele><time>2026-05-02T07:59:41.999Z</time></trkpt><trkpt lat="43.71445941544723" lon="10.349337555625741"><ele>-2.0</ele><time>2026-05-02T07:59:42.998Z</time></trkpt><trkpt lat="43.714792540724446" lon="10.349369666174825"><ele>-2.0</ele><time>2026-05-02T07:59:43.998Z</time></trkpt><trkpt lat="43.71511731514297" lon="10.349402676988708"><ele>-2.0</ele><time>2026-05-02T07:59:44.999Z</time></trkpt><trkpt lat="43.71543374999171" lon="10.349432275257373"><ele>-1.5</ele><time>2026-05-02T07:59:45.998Z</time></trkpt><trkpt lat="43.715746737999005" lon="10.349459018650082"><ele>-1.0</ele><time>2026-05-02T07:59:46.998Z</time></trkpt><trkpt lat="43.716064384952" lon="10.34948868589488"><ele>-1.0</ele><time>2026-05-02T07:59:47.998Z</time></trkpt><trkpt lat="43.716384765482736" lon="10.349521577967549"><ele>-1.0</ele><time>2026-05-02T07:59:48.998Z</time></trkpt><trkpt lat="43.71670649044439" lon="10.349555863916589"><ele>-1.0</ele><time>2026-05-02T07:59:49.998Z</time></trkpt><trkpt lat="43.71702678337314" lon="10.349590358797187"><ele>-1.0</ele><time>2026-05-02T07:59:50.998Z</time></trkpt><trkpt lat="43.717350052556114" lon="10.349622454371938"><ele>-1.0</ele><time>2026-05-02T07:59:51.998Z</time></trkpt><trkpt lat="43.71767066112244" lon="10.34965332405031"><ele>-1.0</ele><time>2026-05-02T07:59:52.998Z</time></trkpt><trkpt lat="43.71799504931692" lon="10.349686178851558"><ele>-1.0</ele><time>2026-05-02T07:59:53.998Z</time></trkpt><trkpt lat="43.71834411257896" lon="10.349719756187142"><ele>-1.0</ele><time>2026-05-02T07:59:54.998Z</time></trkpt><trkpt lat="43.71871030893163" lon="10.349754294956826"><ele>0.0</ele><time>2026-05-02T07:59:55.998Z</time></trkpt><trkpt lat="43.719089850578456" lon="10.349794998788632"><ele>1.0</ele><time>2026-05-02T07:59:56.998Z</time></trkpt><trkpt lat="43.719481909079455" lon="10.349841508680647"><ele>2.0</ele><time>2026-05-02T07:59:58Z</time></trkpt><trkpt lat="43.719868482318475" lon="10.349885773095103"><ele>3.0</ele><time>2026-05-02T07:59:59Z</time></trkpt><trkpt lat="43.72025225342551" lon="10.349928172473746"><ele>4.0</ele><time>2026-05-02T08:00:00Z</time></trkpt><trkpt lat="43.72063490726157" lon="10.34996926729583"><ele>5.0</ele><time>2026-05-02T08:00:01Z</time></trkpt><trkpt lat="43.72102163329152" lon="10.350003684457828"><ele>5.5</ele><time>2026-05-02T08:00:02Z</time></trkpt><trkpt lat="43.72139828262786" lon="10.350038138411572"><ele>6.0</ele><time>2026-05-02T08:00:03Z</time></trkpt><trkpt lat="43.72175144366995" lon="10.350070822530904"><ele>5.5</ele><time>2026-05-02T08:00:04Z</time></trkpt><trkpt lat="43.72210924369235" lon="10.350102873933757"><ele>5.0</ele><time>2026-05-02T08:00:05Z</time></trkpt><trkpt lat="43.722463552572115" lon="10.350139859743035"><ele>3.5</ele><time>2026-05-02T08:00:06Z</time></trkpt><trkpt lat="43.72283393915599" lon="10.350178525428204"><ele>2.0</ele><time>2026-05-02T08:00:07Z</time></trkpt><trkpt lat="43.723196300275134" lon="10.35021397885348"><ele>2.0</ele><time>2026-05-02T08:00:08Z</time></trkpt><trkpt lat="43.72356062846272" lon="10.350245577047248"><ele>2.0</ele><time>2026-05-02T08:00:09Z</time></trkpt><trkpt lat="43.72392716577359" lon="10.350279936455033"><ele>2.5</ele><time>2026-05-02T08:00:10Z</time></trkpt><trkpt lat="43.72429096854531" lon="10.350312751297029"><ele>3.0</ele><time>2026-05-02T08:00:11Z</time></trkpt><trkpt lat="43.72465398827809" lon="10.350347926772699"><ele>2.0</ele><time>2026-05-02T08:00:12Z</time></trkpt><trkpt lat="43.72501761739534" lon="10.350386597911752"><ele>1.0</ele><time>2026-05-02T08:00:13Z</time></trkpt><trkpt lat="43.725375312335295" lon="10.350428380540636"><ele>1.0</ele><time>2026-05-02T08:00:14Z</time></trkpt><trkpt lat="43.725732095987205" lon="10.35046760376562"><ele>1.0</ele><time>2026-05-02T08:00:15Z</time></trkpt><trkpt lat="43.72608966407169" lon="10.350506144203989"><ele>0.0</ele><time>2026-05-02T08:00:16Z</time></trkpt><trkpt lat="43.726451034324164" lon="10.35054317797957"><ele>-1.0</ele><time>2026-05-02T08:00:17Z</time></trkpt><trkpt lat="43.72680903878892" lon="10.350581794047343"><ele>-1.5</ele><time>2026-05-02T08:00:18Z</time></trkpt><trkpt lat="43.72716731272575" lon="10.350616519953004"><ele>-2.0</ele><time>2026-05-02T08:00:19Z</time></trkpt><trkpt lat="43.727526395169406" lon="10.350650609409126"><ele>-2.0</ele><time>2026-05-02T08:00:20Z</time></trkpt><trkpt lat="43.727885606588174" lon="10.350690023908667"><ele>-2.0</ele><time>2026-05-02T08:00:21Z</time></trkpt><trkpt lat="43.72824696288447" lon="10.350731035201514"><ele>-2.0</ele><time>2026-05-02T08:00:22Z</time></trkpt><trkpt lat="43.728603689023835" lon="10.350779665368409"><ele>-2.0</ele><time>2026-05-02T08:00:23Z</time></trkpt><trkpt lat="43.72896271947715" lon="10.350823411158611"><ele>-2.0</ele><time>2026-05-02T08:00:24Z</time></trkpt><trkpt lat="43.7293232383387" lon="10.350863134071307"><ele>-2.0</ele><time>2026-05-02T08:00:25Z</time></trkpt><trkpt lat="43.72968175079122" lon="10.350901300173577"><ele>-1.5</ele><time>2026-05-02T08:00:26Z</time></trkpt><trkpt lat="43.730041694638615" lon="10.350936980490673"><ele>-1.0</ele><time>2026-05-02T08:00:27Z</time></trkpt><trkpt lat="43.730401763748034" lon="10.350975386567729"><ele>-1.0</ele><time>2026-05-02T08:00:28Z</time></trkpt><trkpt lat="43.730758416333565" lon="10.351018978371407"><ele>-1.0</ele><time>2026-05-02T08:00:29Z</time></trkpt><trkpt lat="43.731116242620764" lon="10.351060605556794"><ele>0.0</ele><time>2026-05-02T08:00:30Z</time></trkpt><trkpt lat="43.73147370830019" lon="10.351102374162465"><ele>1.0</ele><time>2026-05-02T08:00:31Z</time></trkpt><trkpt lat="43.7318323482795" lon="10.351141623951102"><ele>1.5</ele><time>2026-05-02T08:00:32Z</time></trkpt><trkpt lat="43.732191282457094" lon="10.35118301991861"><ele>2.0</ele><time>2026-05-02T08:00:33Z</time></trkpt><trkpt lat="43.73255301561059" lon="10.351237268864756"><ele>2.0</ele><time>2026-05-02T08:00:34Z</time></trkpt><trkpt lat="43.73291040302399" lon="10.35131486605692"><ele>2.0</ele><time>2026-05-02T08:00:35Z</time></trkpt><trkpt lat="43.73326691747005" lon="10.351402023812307"><ele>1.0</ele><time>2026-05-02T08:00:36Z</time></trkpt><trkpt lat="43.73362211509455" lon="10.351497660117273"><ele>0.0</ele><time>2026-05-02T08:00:37Z</time></trkpt><trkpt lat="43.73397738990191" lon="10.35160308447474"><ele>0.0</ele><time>2026-05-02T08:00:38Z</time></trkpt><trkpt lat="43.734330885498835" lon="10.35171479327769"><ele>0.0</ele><time>2026-05-02T08:00:39Z</time></trkpt><trkpt lat="43.73468579510987" lon="10.351827547163014"><ele>0.0</ele><time>2026-05-02T08:00:40Z</time></trkpt><trkpt lat="43.73504115950431" lon="10.351938199329448"><ele>0.0</ele><time>2026-05-02T08:00:41Z</time></trkpt><trkpt lat="43.73539688813323" lon="10.352052321302478"><ele>0.5</ele><time>2026-05-02T08:00:42Z</time></trkpt><trkpt lat="43.73575441494261" lon="10.352162499131458"><ele>1.0</ele><time>2026-05-02T08:00:43Z</time></trkpt><trkpt lat="43.73611184033517" lon="10.35227734044118"><ele>1.0</ele><time>2026-05-02T08:00:44Z</time></trkpt><trkpt lat="43.73646933490902" lon="10.352392911868359"><ele>1.0</ele><time>2026-05-02T08:00:45Z</time></trkpt><trkpt lat="43.7368246624953" lon="10.352509471565059"><ele>2.5</ele><time>2026-05-02T08:00:46Z</time></trkpt><trkpt lat="43.737179510634434" lon="10.352620258991731"><ele>4.0</ele><time>2026-05-02T08:00:47Z</time></trkpt><trkpt lat="43.73753746195386" lon="10.352728401810399"><ele>3.0</ele><time>2026-05-02T08:00:47.999Z</time></trkpt><trkpt lat="43.73789362546117" lon="10.352840895286334"><ele>2.0</ele><time>2026-05-02T08:00:48.999Z</time></trkpt><trkpt lat="43.738248390988296" lon="10.352954892462282"><ele>0.0</ele><time>2026-05-02T08:00:49.999Z</time></trkpt><trkpt lat="43.73860221599648" lon="10.353066658264254"><ele>-2.0</ele><time>2026-05-02T08:00:50.999Z</time></trkpt><trkpt lat="43.73895599964128" lon="10.353177411900568"><ele>-2.0</ele><time>2026-05-02T08:00:51.999Z</time></trkpt><trkpt lat="43.73930740248367" lon="10.353283796969265"><ele>-2.0</ele><time>2026-05-02T08:00:52.999Z</time></trkpt><trkpt lat="43.739662908219685" lon="10.35338727372998"><ele>-1.0</ele><time>2026-05-02T08:00:53.999Z</time></trkpt><trkpt lat="43.74001504736136" lon="10.353488657623204"><ele>0.0</ele><time>2026-05-02T08:00:54.999Z</time></trkpt><trkpt lat="43.74036615158888" lon="10.353594677826859"><ele>0.0</ele><time>2026-05-02T08:00:55.999Z</time></trkpt><trkpt lat="43.74071851982988" lon="10.353697891839564"><ele>0.0</ele><time>2026-05-02T08:00:56.999Z</time></trkpt><trkpt lat="43.74106715178" lon="10.353805445467662"><ele>-0.5</ele><time>2026-05-02T08:00:57.999Z</time></trkpt><trkpt lat="43.74141471724206" lon="10.353917064830204"><ele>-1.0</ele><time>2026-05-02T08:00:58.999Z</time></trkpt><trkpt lat="43.74176305930227" lon="10.354030416082379"><ele>0.5</ele><time>2026-05-02T08:00:59.999Z</time></trkpt><trkpt lat="43.74210949995896" lon="10.354144911538368"><ele>2.0</ele><time>2026-05-02T08:01:00.999Z</time></trkpt><trkpt lat="43.74245761225713" lon="10.354258824604875"><ele>2.5</ele><time>2026-05-02T08:01:01.999Z</time></trkpt><trkpt lat="43.74280507184655" lon="10.354371672917637"><ele>3.0</ele><time>2026-05-02T08:01:02.999Z</time></trkpt><trkpt lat="43.74315385398151" lon="10.354482425982962"><ele>3.0</ele><time>2026-05-02T08:01:03.999Z</time></trkpt><trkpt lat="43.74350166945325" lon="10.35459232329337"><ele>3.0</ele><time>2026-05-02T08:01:04.999Z</time></trkpt><trkpt lat="43.74385219017043" lon="10.354703270428596"><ele>3.0</ele><time>2026-05-02T08:01:05.999Z</time></trkpt><trkpt lat="43.744206026596046" lon="10.354811822840713"><ele>3.0</ele><time>2026-05-02T08:01:06.999Z</time></trkpt><trkpt lat="43.74455827053125" lon="10.354920560377844"><ele>1.5</ele><time>2026-05-02T08:01:07.999Z</time></trkpt><trkpt lat="43.74491297679197" lon="10.35502897495997"><ele>0.0</ele><time>2026-05-02T08:01:08.999Z</time></trkpt><trkpt lat="43.74526804544697" lon="10.355137498466876"><ele>-0.5</ele><time>2026-05-02T08:01:09.999Z</time></trkpt><trkpt lat="43.74562217899483" lon="10.355251880583573"><ele>-1.0</ele><time>2026-05-02T08:01:10.999Z</time></trkpt><trkpt lat="43.74597883738402" lon="10.35536649319923"><ele>-0.5</ele><time>2026-05-02T08:01:11.999Z</time></trkpt><trkpt lat="43.74633633744293" lon="10.35547853361587"><ele>0.0</ele><time>2026-05-02T08:01:12.999Z</time></trkpt><trkpt lat="43.74669186088714" lon="10.355590027530718"><ele>0.5</ele><time>2026-05-02T08:01:13.999Z</time></trkpt><trkpt lat="43.747047408469776" lon="10.35570056984937"><ele>1.0</ele><time>2026-05-02T08:01:14.999Z</time></trkpt><trkpt lat="43.747402960072826" lon="10.35581710496935"><ele>1.0</ele><time>2026-05-02T08:01:15.999Z</time></trkpt><trkpt lat="43.747756928279976" lon="10.355932970196054"><ele>1.0</ele><time>2026-05-02T08:01:16.999Z</time></trkpt><trkpt lat="43.74811204325135" lon="10.356044554585749"><ele>1.0</ele><time>2026-05-02T08:01:17.999Z</time></trkpt><trkpt lat="43.74846062947524" lon="10.356159937750434"><ele>1.0</ele><time>2026-05-02T08:01:18.999Z</time></trkpt><trkpt lat="43.74881088163089" lon="10.356270444726649"><ele>1.0</ele><time>2026-05-02T08:01:19.999Z</time></trkpt><trkpt lat="43.749158123720065" lon="10.35638141255014"><ele>1.0</ele><time>2026-05-02T08:01:20.999Z</time></trkpt><trkpt lat="43.74950742179418" lon="10.356493517908124"><ele>1.0</ele><time>2026-05-02T08:01:21.999Z</time></trkpt><trkpt lat="43.749856632904084" lon="10.356601686242078"><ele>1.0</ele><time>2026-05-02T08:01:22.999Z</time></trkpt><trkpt lat="43.750204420374125" lon="10.356714835114934"><ele>2.5</ele><time>2026-05-02T08:01:23.999Z</time></trkpt><trkpt lat="43.75054288038933" lon="10.356827249540974"><ele>4.0</ele><time>2026-05-02T08:01:24.999Z</time></trkpt><trkpt lat="43.750896558345545" lon="10.356932684093264"><ele>3.5</ele><time>2026-05-02T08:01:25.999Z</time></trkpt><trkpt lat="43.751250424021634" lon="10.357042354292386"><ele>3.0</ele><time>2026-05-02T08:01:26.999Z</time></trkpt><trkpt lat="43.75160711009239" lon="10.357151706470116"><ele>3.0</ele><time>2026-05-02T08:01:27.999Z</time></trkpt><trkpt lat="43.75196000678552" lon="10.357268336652774"><ele>3.0</ele><time>2026-05-02T08:01:28.999Z</time></trkpt><trkpt lat="43.752311878193765" lon="10.35737330517738"><ele>3.0</ele><time>2026-05-02T08:01:29.999Z</time></trkpt><trkpt lat="43.752658669223656" lon="10.357477327090791"><ele>3.0</ele><time>2026-05-02T08:01:30.999Z</time></trkpt><trkpt lat="43.75300643490059" lon="10.357588734756824"><ele>2.5</ele><time>2026-05-02T08:01:31.999Z</time></trkpt><trkpt lat="43.75335847161144" lon="10.35770647618097"><ele>2.0</ele><time>2026-05-02T08:01:32.999Z</time></trkpt><trkpt lat="43.75371980822936" lon="10.357817188793932"><ele>1.5</ele><time>2026-05-02T08:01:33.999Z</time></trkpt><trkpt lat="43.754094734028236" lon="10.35795105670296"><ele>1.0</ele><time>2026-05-02T08:01:34.999Z</time></trkpt><trkpt lat="43.7544518296584" lon="10.358067887078745"><ele>0.5</ele><time>2026-05-02T08:01:35.999Z</time></trkpt><trkpt lat="43.75480992290956" lon="10.358184436081224"><ele>0.0</ele><time>2026-05-02T08:01:36.999Z</time></trkpt><trkpt lat="43.75516804875062" lon="10.35829837556374"><ele>0.0</ele><time>2026-05-02T08:01:37.999Z</time></trkpt><trkpt lat="43.7555306102492" lon="10.35840231795064"><ele>0.0</ele><time>2026-05-02T08:01:38.999Z</time></trkpt><trkpt lat="43.75589182631038" lon="10.358487111030383"><ele>0.5</ele><time>2026-05-02T08:01:39.999Z</time></trkpt><trkpt lat="43.75626071996456" lon="10.358553884781811"><ele>1.0</ele><time>2026-05-02T08:01:40.999Z</time></trkpt><trkpt lat="43.75662171641325" lon="10.358601519101855"><ele>1.0</ele><time>2026-05-02T08:01:41.999Z</time></trkpt><trkpt lat="43.756976279287365" lon="10.35865186167375"><ele>1.0</ele><time>2026-05-02T08:01:42.999Z</time></trkpt><trkpt lat="43.75733341105089" lon="10.3586833539093"><ele>1.0</ele><time>2026-05-02T08:01:43.999Z</time></trkpt><trkpt lat="43.75769105744591" lon="10.35869830311042"><ele>1.0</ele><time>2026-05-02T08:01:44.999Z</time></trkpt><trkpt lat="43.75805041178165" lon="10.358700232382844"><ele>1.0</ele><time>2026-05-02T08:01:45.999Z</time></trkpt><trkpt lat="43.75840306355925" lon="10.358692274459298"><ele>1.0</ele><time>2026-05-02T08:01:46.999Z</time></trkpt><trkpt lat="43.75875599078546" lon="10.358675844243882"><ele>0.5</ele><time>2026-05-02T08:01:47.999Z</time></trkpt><trkpt lat="43.75910757093071" lon="10.358646325053614"><ele>0.0</ele><time>2026-05-02T08:01:48.999Z</time></trkpt><trkpt lat="43.759455458300835" lon="10.358602317594553"><ele>0.0</ele><time>2026-05-02T08:01:49.999Z</time></trkpt><trkpt lat="43.75980520561548" lon="10.358543585378827"><ele>0.0</ele><time>2026-05-02T08:01:50.999Z</time></trkpt><trkpt lat="43.76015205241616" lon="10.35847297032318"><ele>1.0</ele><time>2026-05-02T08:01:51.999Z</time></trkpt><trkpt lat="43.7604992009422" lon="10.358387798371124"><ele>2.0</ele><time>2026-05-02T08:01:52.999Z</time></trkpt><trkpt lat="43.76084737192501" lon="10.358293684025462"><ele>1.5</ele><time>2026-05-02T08:01:53.999Z</time></trkpt><trkpt lat="43.761194520925216" lon="10.358188495992161"><ele>1.0</ele><time>2026-05-02T08:01:54.999Z</time></trkpt><trkpt lat="43.761541502884846" lon="10.358067229796747"><ele>1.0</ele><time>2026-05-02T08:01:55.998Z</time></trkpt><trkpt lat="43.761889738428785" lon="10.357932674444884"><ele>1.0</ele><time>2026-05-02T08:01:56.998Z</time></trkpt><trkpt lat="43.762228062949696" lon="10.357792205291132"><ele>1.0</ele><time>2026-05-02T08:01:57.998Z</time></trkpt><trkpt lat="43.76256944073261" lon="10.357635029151565"><ele>1.0</ele><time>2026-05-02T08:01:58.998Z</time></trkpt><trkpt lat="43.76290985715617" lon="10.357465067473582"><ele>1.0</ele><time>2026-05-02T08:01:59.998Z</time></trkpt><trkpt lat="43.76324101700306" lon="10.35727837334056"><ele>1.0</ele><time>2026-05-02T08:02:00.998Z</time></trkpt><trkpt lat="43.763566603057996" lon="10.357073964915909"><ele>1.0</ele><time>2026-05-02T08:02:01.998Z</time></trkpt><trkpt lat="43.7639007168695" lon="10.356859720540806"><ele>1.0</ele><time>2026-05-02T08:02:02.998Z</time></trkpt><trkpt lat="43.76423395176034" lon="10.356634413281695"><ele>1.0</ele><time>2026-05-02T08:02:04Z</time></trkpt><trkpt lat="43.76456194411683" lon="10.356395276695228"><ele>1.0</ele><time>2026-05-02T08:02:05Z</time></trkpt><trkpt lat="43.76488669611742" lon="10.35614213070591"><ele>1.0</ele><time>2026-05-02T08:02:06Z</time></trkpt><trkpt lat="43.765204062080784" lon="10.355877715215525"><ele>1.0</ele><time>2026-05-02T08:02:07Z</time></trkpt><trkpt lat="43.7655127610535" lon="10.35559626420866"><ele>0.5</ele><time>2026-05-02T08:02:08Z</time></trkpt><trkpt lat="43.765818079675384" lon="10.355306327280578"><ele>0.0</ele><time>2026-05-02T08:02:09Z</time></trkpt><trkpt lat="43.766120292056144" lon="10.355004619833029"><ele>1.0</ele><time>2026-05-02T08:02:10Z</time></trkpt><trkpt lat="43.7664128906324" lon="10.35469770525863"><ele>2.0</ele><time>2026-05-02T08:02:11Z</time></trkpt><trkpt lat="43.76670004076364" lon="10.354380802269768"><ele>2.5</ele><time>2026-05-02T08:02:12Z</time></trkpt><trkpt lat="43.76697753366009" lon="10.35405069331152"><ele>3.0</ele><time>2026-05-02T08:02:13Z</time></trkpt><trkpt lat="43.76724963191458" lon="10.353711440978698"><ele>3.5</ele><time>2026-05-02T08:02:14Z</time></trkpt><trkpt lat="43.76750376800748" lon="10.353373183894437"><ele>4.0</ele><time>2026-05-02T08:02:15Z</time></trkpt><trkpt lat="43.76774563871657" lon="10.353035988613073"><ele>4.0</ele><time>2026-05-02T08:02:16Z</time></trkpt><trkpt lat="43.76797485911531" lon="10.352695966029668"><ele>4.0</ele><time>2026-05-02T08:02:17Z</time></trkpt><trkpt lat="43.76819143174366" lon="10.352359685167851"><ele>4.0</ele><time>2026-05-02T08:02:18Z</time></trkpt><trkpt lat="43.76840814781864" lon="10.3520188042734"><ele>4.0</ele><time>2026-05-02T08:02:19Z</time></trkpt><trkpt lat="43.76862317915913" lon="10.351670265999303"><ele>4.5</ele><time>2026-05-02T08:02:20Z</time></trkpt><trkpt lat="43.76884583602572" lon="10.351314520264355"><ele>5.0</ele><time>2026-05-02T08:02:21Z</time></trkpt><trkpt lat="43.769071633115786" lon="10.350960197288547"><ele>5.0</ele><time>2026-05-02T08:02:22Z</time></trkpt><trkpt lat="43.76929905149493" lon="10.350601088777374"><ele>5.0</ele><time>2026-05-02T08:02:23Z</time></trkpt><trkpt lat="43.76952895824294" lon="10.350238336918848"><ele>5.0</ele><time>2026-05-02T08:02:24Z</time></trkpt><trkpt lat="43.76975946305704" lon="10.349870936862137"><ele>5.0</ele><time>2026-05-02T08:02:25Z</time></trkpt><trkpt lat="43.76999016538608" lon="10.349499302881618"><ele>5.0</ele><time>2026-05-02T08:02:26Z</time></trkpt><trkpt lat="43.77022243412825" lon="10.349124314956455"><ele>5.0</ele><time>2026-05-02T08:02:27Z</time></trkpt><trkpt lat="43.77045829709922" lon="10.348748404005253"><ele>5.0</ele><time>2026-05-02T08:02:28Z</time></trkpt><trkpt lat="43.7706945368375" lon="10.348373703176387"><ele>5.0</ele><time>2026-05-02T08:02:29Z</time></trkpt><trkpt lat="43.77093116808966" lon="10.347997885315667"><ele>4.0</ele><time>2026-05-02T08:02:30Z</time></trkpt><trkpt lat="43.77116894986972" lon="10.34762326839877"><ele>3.0</ele><time>2026-05-02T08:02:31Z</time></trkpt><trkpt lat="43.77140521938545" lon="10.347251313987387"><ele>3.0</ele><time>2026-05-02T08:02:32Z</time></trkpt><trkpt lat="43.77164127940394" lon="10.346874582195063"><ele>3.0</ele><time>2026-05-02T08:02:33Z</time></trkpt><trkpt lat="43.77187743969293" lon="10.346497810255197"><ele>3.0</ele><time>2026-05-02T08:02:34Z</time></trkpt><trkpt lat="43.7721135230129" lon="10.346121785791038"><ele>3.0</ele><time>2026-05-02T08:02:35Z</time></trkpt><trkpt lat="43.77235250879226" lon="10.345743245683511"><ele>3.0</ele><time>2026-05-02T08:02:36Z</time></trkpt><trkpt lat="43.7725879675467" lon="10.345366881689483"><ele>3.0</ele><time>2026-05-02T08:02:37Z</time></trkpt><trkpt lat="43.77282125580564" lon="10.344991458731476"><ele>2.0</ele><time>2026-05-02T08:02:38Z</time></trkpt><trkpt lat="43.77305744527191" lon="10.344614244297844"><ele>1.0</ele><time>2026-05-02T08:02:39Z</time></trkpt><trkpt lat="43.77329270658701" lon="10.344241118092755"><ele>0.5</ele><time>2026-05-02T08:02:40Z</time></trkpt><trkpt lat="43.77352654400336" lon="10.343870963095727"><ele>0.0</ele><time>2026-05-02T08:02:41Z</time></trkpt><trkpt lat="43.77376123515362" lon="10.343498133862123"><ele>0.0</ele><time>2026-05-02T08:02:42Z</time></trkpt><trkpt lat="43.77399691765931" lon="10.34312506728891"><ele>0.0</ele><time>2026-05-02T08:02:43Z</time></trkpt><trkpt lat="43.77422942498006" lon="10.342753261357618"><ele>0.0</ele><time>2026-05-02T08:02:44Z</time></trkpt><trkpt lat="43.774462235786096" lon="10.342386139198037"><ele>0.0</ele><time>2026-05-02T08:02:45Z</time></trkpt><trkpt lat="43.77469209685869" lon="10.342018136753328"><ele>0.0</ele><time>2026-05-02T08:02:46Z</time></trkpt><trkpt lat="43.77492145429382" lon="10.341649233467622"><ele>0.0</ele><time>2026-05-02T08:02:47Z</time></trkpt><trkpt lat="43.77515321857542" lon="10.341280317420061"><ele>0.0</ele><time>2026-05-02T08:02:48Z</time></trkpt><trkpt lat="43.77538807611102" lon="10.340910112421994"><ele>0.0</ele><time>2026-05-02T08:02:49Z</time></trkpt><trkpt lat="43.775625366017664" lon="10.340532164034421"><ele>0.0</ele><time>2026-05-02T08:02:50Z</time></trkpt><trkpt lat="43.77586363260752" lon="10.340154476096407"><ele>0.0</ele><time>2026-05-02T08:02:51Z</time></trkpt><trkpt lat="43.77609961100589" lon="10.339780773145621"><ele>-0.5</ele><time>2026-05-02T08:02:52Z</time></trkpt><trkpt lat="43.77633242524488" lon="10.339406624648069"><ele>-1.0</ele><time>2026-05-02T08:02:52.999Z</time></trkpt><trkpt lat="43.776566982721" lon="10.339032891340716"><ele>-1.0</ele><time>2026-05-02T08:02:53.999Z</time></trkpt><trkpt lat="43.776800347935364" lon="10.33865851581763"><ele>-1.0</ele><time>2026-05-02T08:02:54.999Z</time></trkpt><trkpt lat="43.77703509876502" lon="10.338285764226217"><ele>0.0</ele><time>2026-05-02T08:02:55.999Z</time></trkpt><trkpt lat="43.777266672361215" lon="10.337918399393542"><ele>1.0</ele><time>2026-05-02T08:02:56.999Z</time></trkpt><trkpt lat="43.777502260323956" lon="10.33754341074422"><ele>0.0</ele><time>2026-05-02T08:02:57.999Z</time></trkpt><trkpt lat="43.77773674482485" lon="10.337171876316322"><ele>-1.0</ele><time>2026-05-02T08:02:58.999Z</time></trkpt><trkpt lat="43.7779693588056" lon="10.336800282723518"><ele>-1.0</ele><time>2026-05-02T08:02:59.999Z</time></trkpt><trkpt lat="43.778202603480565" lon="10.336425045013916"><ele>-1.0</ele><time>2026-05-02T08:03:00.999Z</time></trkpt><trkpt lat="43.77843540813707" lon="10.336048942394"><ele>-1.0</ele><time>2026-05-02T08:03:01.999Z</time></trkpt><trkpt lat="43.778670949048355" lon="10.335674235384484"><ele>-1.0</ele><time>2026-05-02T08:03:02.999Z</time></trkpt><trkpt lat="43.7789075538488" lon="10.335297963906843"><ele>-1.0</ele><time>2026-05-02T08:03:03.999Z</time></trkpt><trkpt lat="43.779147515150505" lon="10.334917685166085"><ele>-1.0</ele><time>2026-05-02T08:03:04.999Z</time></trkpt><trkpt lat="43.77938763311296" lon="10.334535948323605"><ele>-1.0</ele><time>2026-05-02T08:03:05.999Z</time></trkpt><trkpt lat="43.77962734097596" lon="10.334155060026479"><ele>-1.0</ele><time>2026-05-02T08:03:06.999Z</time></trkpt><trkpt lat="43.77986935062012" lon="10.333774479789005"><ele>0.0</ele><time>2026-05-02T08:03:07.999Z</time></trkpt><trkpt lat="43.78011134741603" lon="10.333395241281494"><ele>1.0</ele><time>2026-05-02T08:03:08.999Z</time></trkpt><trkpt lat="43.78035235196052" lon="10.333017259547624"><ele>1.0</ele><time>2026-05-02T08:03:09.999Z</time></trkpt><trkpt lat="43.78059156352582" lon="10.332636897425823"><ele>1.0</ele><time>2026-05-02T08:03:10.999Z</time></trkpt><trkpt lat="43.78083156687177" lon="10.332250737915013"><ele>-0.5</ele><time>2026-05-02T08:03:11.999Z</time></trkpt><trkpt lat="43.78107126373048" lon="10.331867109696347"><ele>-2.0</ele><time>2026-05-02T08:03:12.999Z</time></trkpt><trkpt lat="43.78131308383204" lon="10.331486780235991"><ele>-1.0</ele><time>2026-05-02T08:03:13.999Z</time></trkpt><trkpt lat="43.78155678237974" lon="10.331111192770335"><ele>0.0</ele><time>2026-05-02T08:03:14.999Z</time></trkpt><trkpt lat="43.78180286563339" lon="10.330739308231296"><ele>-1.5</ele><time>2026-05-02T08:03:15.999Z</time></trkpt><trkpt lat="43.782049980291056" lon="10.330373846635045"><ele>-3.0</ele><time>2026-05-02T08:03:16.999Z</time></trkpt><trkpt lat="43.782300363641056" lon="10.330011961009033"><ele>-3.0</ele><time>2026-05-02T08:03:17.999Z</time></trkpt><trkpt lat="43.78255572444005" lon="10.329655064739166"><ele>-3.0</ele><time>2026-05-02T08:03:18.999Z</time></trkpt><trkpt lat="43.782813821876374" lon="10.32930304376894"><ele>-3.0</ele><time>2026-05-02T08:03:19.999Z</time></trkpt><trkpt lat="43.783074961259715" lon="10.328960907304104"><ele>-3.0</ele><time>2026-05-02T08:03:20.999Z</time></trkpt><trkpt lat="43.783338022033014" lon="10.32862280226799"><ele>-3.0</ele><time>2026-05-02T08:03:21.999Z</time></trkpt><trkpt lat="43.78360297697265" lon="10.328292428688755"><ele>-3.0</ele><time>2026-05-02T08:03:22.999Z</time></trkpt><trkpt lat="43.783871232666904" lon="10.327965760290112"><ele>-3.0</ele><time>2026-05-02T08:03:23.999Z</time></trkpt><trkpt lat="43.78414319230937" lon="10.32764404476963"><ele>-3.0</ele><time>2026-05-02T08:03:24.999Z</time></trkpt><trkpt lat="43.784420178443696" lon="10.327324527825112"><ele>-3.5</ele><time>2026-05-02T08:03:25.999Z</time></trkpt><trkpt lat="43.784701676395464" lon="10.327011186351198"><ele>-4.0</ele><time>2026-05-02T08:03:26.999Z</time></trkpt><trkpt lat="43.78498872656215" lon="10.32670454261352"><ele>-3.5</ele><time>2026-05-02T08:03:27.999Z</time></trkpt><trkpt lat="43.78527652184243" lon="10.32640399024657"><ele>-3.0</ele><time>2026-05-02T08:03:28.999Z</time></trkpt><trkpt lat="43.785566171889165" lon="10.326109325818438"><ele>-2.5</ele><time>2026-05-02T08:03:29.999Z</time></trkpt><trkpt lat="43.785859161978756" lon="10.325819062314974"><ele>-2.0</ele><time>2026-05-02T08:03:30.999Z</time></trkpt><trkpt lat="43.78615665298734" lon="10.325534523407542"><ele>-3.0</ele><time>2026-05-02T08:03:31.999Z</time></trkpt><trkpt lat="43.78645508141672" lon="10.32525917883192"><ele>-4.0</ele><time>2026-05-02T08:03:32.999Z</time></trkpt><trkpt lat="43.786759359664075" lon="10.324984728977183"><ele>-2.5</ele><time>2026-05-02T08:03:33.999Z</time></trkpt><trkpt lat="43.787066135814314" lon="10.32471726312293"><ele>-1.0</ele><time>2026-05-02T08:03:34.999Z</time></trkpt><trkpt lat="43.787377532524665" lon="10.324455644168951"><ele>-2.5</ele><time>2026-05-02T08:03:35.999Z</time></trkpt><trkpt lat="43.78768895779403" lon="10.324198980973243"><ele>-4.0</ele><time>2026-05-02T08:03:36.999Z</time></trkpt><trkpt lat="43.78800141825174" lon="10.323946592241661"><ele>-2.5</ele><time>2026-05-02T08:03:37.999Z</time></trkpt><trkpt lat="43.78831795634478" lon="10.323702965851187"><ele>-1.0</ele><time>2026-05-02T08:03:38.999Z</time></trkpt><trkpt lat="43.78863980592799" lon="10.32346590220492"><ele>-1.0</ele><time>2026-05-02T08:03:39.999Z</time></trkpt><trkpt lat="43.788962031985" lon="10.32323584410929"><ele>-1.0</ele><time>2026-05-02T08:03:40.999Z</time></trkpt><trkpt lat="43.78928621856048" lon="10.32301485832886"><ele>-1.5</ele><time>2026-05-02T08:03:41.999Z</time></trkpt><trkpt lat="43.78961255688964" lon="10.322799883391495"><ele>-2.0</ele><time>2026-05-02T08:03:42.999Z</time></trkpt><trkpt lat="43.789940840157755" lon="10.322588945996289"><ele>-2.5</ele><time>2026-05-02T08:03:43.999Z</time></trkpt><trkpt lat="43.79027176838497" lon="10.32238268353207"><ele>-3.0</ele><time>2026-05-02T08:03:44.999Z</time></trkpt><trkpt lat="43.79060266472331" lon="10.322186624342832"><ele>-1.0</ele><time>2026-05-02T08:03:45.999Z</time></trkpt><trkpt lat="43.790940181630255" lon="10.321993193711448"><ele>1.0</ele><time>2026-05-02T08:03:46.999Z</time></trkpt><trkpt lat="43.79128150849024" lon="10.321806804987016"><ele>1.0</ele><time>2026-05-02T08:03:47.999Z</time></trkpt><trkpt lat="43.79162359485394" lon="10.321630722835176"><ele>1.0</ele><time>2026-05-02T08:03:48.999Z</time></trkpt><trkpt lat="43.791966543389464" lon="10.321460408003531"><ele>3.0</ele><time>2026-05-02T08:03:49.999Z</time></trkpt><trkpt lat="43.792309319035056" lon="10.32129899840586"><ele>5.0</ele><time>2026-05-02T08:03:50.999Z</time></trkpt><trkpt lat="43.79265317567684" lon="10.321144285231409"><ele>3.0</ele><time>2026-05-02T08:03:51.999Z</time></trkpt><trkpt lat="43.79299743876161" lon="10.32099630182416"><ele>1.0</ele><time>2026-05-02T08:03:52.999Z</time></trkpt><trkpt lat="43.79334724599345" lon="10.320853451682058"><ele>0.5</ele><time>2026-05-02T08:03:53.999Z</time></trkpt><trkpt lat="43.79369615646822" lon="10.320718286181664"><ele>0.0</ele><time>2026-05-02T08:03:54.999Z</time></trkpt><trkpt lat="43.794046411463434" lon="10.320585566794842"><ele>0.5</ele><time>2026-05-02T08:03:55.999Z</time></trkpt><trkpt lat="43.79439727799614" lon="10.32045417676788"><ele>1.0</ele><time>2026-05-02T08:03:56.999Z</time></trkpt><trkpt lat="43.79474433641464" lon="10.3203194305319"><ele>1.0</ele><time>2026-05-02T08:03:57.999Z</time></trkpt><trkpt lat="43.79508884122801" lon="10.320182578638866"><ele>1.0</ele><time>2026-05-02T08:03:58.999Z</time></trkpt><trkpt lat="43.7954387906195" lon="10.320047185266084"><ele>0.0</ele><time>2026-05-02T08:03:59.999Z</time></trkpt><trkpt lat="43.79578905967914" lon="10.319913924153383"><ele>-1.0</ele><time>2026-05-02T08:04:00.998Z</time></trkpt><trkpt lat="43.79613969325703" lon="10.319783481474474"><ele>1.0</ele><time>2026-05-02T08:04:01.998Z</time></trkpt><trkpt lat="43.796490774930376" lon="10.319651890250286"><ele>3.0</ele><time>2026-05-02T08:04:02.998Z</time></trkpt><trkpt lat="43.79684042196455" lon="10.319519473572136"><ele>3.0</ele><time>2026-05-02T08:04:03.998Z</time></trkpt><trkpt lat="43.79718538394062" lon="10.319387822938134"><ele>3.0</ele><time>2026-05-02T08:04:04.998Z</time></trkpt><trkpt lat="43.797531206291616" lon="10.319254695999849"><ele>1.5</ele><time>2026-05-02T08:04:05.998Z</time></trkpt><trkpt lat="43.79787895496252" lon="10.319121998753126"><ele>0.0</ele><time>2026-05-02T08:04:06.998Z</time></trkpt><trkpt lat="43.79822761539887" lon="10.318988966957951"><ele>2.5</ele><time>2026-05-02T08:04:07.998Z</time></trkpt><trkpt lat="43.798574610936896" lon="10.318855147808"><ele>5.0</ele><time>2026-05-02T08:04:08.998Z</time></trkpt><trkpt lat="43.798925122069605" lon="10.318722763683915"><ele>5.0</ele><time>2026-05-02T08:04:10Z</time></trkpt><trkpt lat="43.799275117574396" lon="10.318590458313006"><ele>5.0</ele><time>2026-05-02T08:04:11Z</time></trkpt><trkpt lat="43.79962640551669" lon="10.318458247146573"><ele>2.5</ele><time>2026-05-02T08:04:12Z</time></trkpt><trkpt lat="43.79997641618866" lon="10.31832689594061"><ele>0.0</ele><time>2026-05-02T08:04:13Z</time></trkpt><trkpt lat="43.800325112046345" lon="10.318197875329108"><ele>1.5</ele><time>2026-05-02T08:04:14Z</time></trkpt><trkpt lat="43.80067234088357" lon="10.318066138202502"><ele>3.0</ele><time>2026-05-02T08:04:15Z</time></trkpt><trkpt lat="43.80102156282634" lon="10.317931556913884"><ele>3.0</ele><time>2026-05-02T08:04:16Z</time></trkpt><trkpt lat="43.80137082811718" lon="10.317798228479496"><ele>3.0</ele><time>2026-05-02T08:04:17Z</time></trkpt><trkpt lat="43.80171995530623" lon="10.317663708876896"><ele>2.0</ele><time>2026-05-02T08:04:18Z</time></trkpt><trkpt lat="43.80207048862559" lon="10.31752691117529"><ele>1.0</ele><time>2026-05-02T08:04:19Z</time></trkpt><trkpt lat="43.802419859918366" lon="10.317390201810555"><ele>1.5</ele><time>2026-05-02T08:04:20Z</time></trkpt><trkpt lat="43.80277107070731" lon="10.317255970409258"><ele>2.0</ele><time>2026-05-02T08:04:21Z</time></trkpt><trkpt lat="43.80311883204364" lon="10.317124560491981"><ele>3.0</ele><time>2026-05-02T08:04:22Z</time></trkpt><trkpt lat="43.80347326740453" lon="10.316986095764134"><ele>4.0</ele><time>2026-05-02T08:04:23Z</time></trkpt><trkpt lat="43.803819616327594" lon="10.316855172135453"><ele>4.0</ele><time>2026-05-02T08:04:24Z</time></trkpt><trkpt lat="43.80417340482129" lon="10.316725492203016"><ele>4.0</ele><time>2026-05-02T08:04:25Z</time></trkpt><trkpt lat="43.80452720995276" lon="10.316590134518442"><ele>4.0</ele><time>2026-05-02T08:04:26Z</time></trkpt><trkpt lat="43.80487689775586" lon="10.316454884979258"><ele>4.0</ele><time>2026-05-02T08:04:27Z</time></trkpt><trkpt lat="43.80522399387575" lon="10.316320716627347"><ele>4.5</ele><time>2026-05-02T08:04:28Z</time></trkpt><trkpt lat="43.805575662753505" lon="10.316187746732867"><ele>5.0</ele><time>2026-05-02T08:04:29Z</time></trkpt><trkpt lat="43.80592553310879" lon="10.31605536675758"><ele>5.0</ele><time>2026-05-02T08:04:30Z</time></trkpt><trkpt lat="43.80627559515819" lon="10.315922936139133"><ele>5.0</ele><time>2026-05-02T08:04:31Z</time></trkpt><trkpt lat="43.806626812851874" lon="10.315790423701996"><ele>4.0</ele><time>2026-05-02T08:04:32Z</time></trkpt><trkpt lat="43.80697628935171" lon="10.31565868202589"><ele>3.0</ele><time>2026-05-02T08:04:33Z</time></trkpt><trkpt lat="43.80732777914824" lon="10.315524192023112"><ele>4.5</ele><time>2026-05-02T08:04:34Z</time></trkpt><trkpt lat="43.807676360524674" lon="10.315391762469032"><ele>6.0</ele><time>2026-05-02T08:04:35Z</time></trkpt><trkpt lat="43.808022246801364" lon="10.315259168330755"><ele>6.0</ele><time>2026-05-02T08:04:36Z</time></trkpt><trkpt lat="43.80836827078841" lon="10.31512228315272"><ele>6.0</ele><time>2026-05-02T08:04:37Z</time></trkpt><trkpt lat="43.80871558597205" lon="10.314988254100536"><ele>5.5</ele><time>2026-05-02T08:04:38Z</time></trkpt><trkpt lat="43.809066334131934" lon="10.314854187481474"><ele>5.0</ele><time>2026-05-02T08:04:39Z</time></trkpt><trkpt lat="43.80941650825565" lon="10.3147224054345"><ele>8.0</ele><time>2026-05-02T08:04:40Z</time></trkpt><trkpt lat="43.80976474085713" lon="10.31459032967342"><ele>11.0</ele><time>2026-05-02T08:04:41Z</time></trkpt><trkpt lat="43.81011134993226" lon="10.31445322096399"><ele>8.0</ele><time>2026-05-02T08:04:42Z</time></trkpt><trkpt lat="43.810458189044255" lon="10.314307625804583"><ele>5.0</ele><time>2026-05-02T08:04:43Z</time></trkpt><trkpt lat="43.810803199854185" lon="10.314157763906291"><ele>4.0</ele><time>2026-05-02T08:04:44Z</time></trkpt><trkpt lat="43.81114649283277" lon="10.314001107452924"><ele>3.0</ele><time>2026-05-02T08:04:45Z</time></trkpt><trkpt lat="43.811490208858594" lon="10.313838210122132"><ele>2.5</ele><time>2026-05-02T08:04:46Z</time></trkpt><trkpt lat="43.811833444337424" lon="10.313667894320831"><ele>2.0</ele><time>2026-05-02T08:04:47Z</time></trkpt><trkpt lat="43.812172138118626" lon="10.313499564988776"><ele>2.0</ele><time>2026-05-02T08:04:48Z</time></trkpt><trkpt lat="43.81251086633449" lon="10.31332244133654"><ele>2.0</ele><time>2026-05-02T08:04:49Z</time></trkpt><trkpt lat="43.81284839895699" lon="10.313144868628143"><ele>3.5</ele><time>2026-05-02T08:04:50Z</time></trkpt><trkpt lat="43.813187215153675" lon="10.312962122347269"><ele>5.0</ele><time>2026-05-02T08:04:51Z</time></trkpt><trkpt lat="43.81352769819769" lon="10.312770881381699"><ele>5.5</ele><time>2026-05-02T08:04:52Z</time></trkpt><trkpt lat="43.81386282616563" lon="10.312576598310143"><ele>6.0</ele><time>2026-05-02T08:04:53Z</time></trkpt><trkpt lat="43.81419717772517" lon="10.312376546037335"><ele>7.0</ele><time>2026-05-02T08:04:54Z</time></trkpt><trkpt lat="43.814528035376" lon="10.312175708718124"><ele>8.0</ele><time>2026-05-02T08:04:55Z</time></trkpt><trkpt lat="43.81485923856573" lon="10.311969967592969"><ele>8.0</ele><time>2026-05-02T08:04:56Z</time></trkpt><trkpt lat="43.81518920725044" lon="10.311758331526713"><ele>8.0</ele><time>2026-05-02T08:04:57Z</time></trkpt><trkpt lat="43.81551444416785" lon="10.311542786938148"><ele>8.0</ele><time>2026-05-02T08:04:57.999Z</time></trkpt><trkpt lat="43.81583637610682" lon="10.311323880751916"><ele>8.0</ele><time>2026-05-02T08:04:58.999Z</time></trkpt><trkpt lat="43.816159827994554" lon="10.311100372716771"><ele>8.0</ele><time>2026-05-02T08:04:59.999Z</time></trkpt><trkpt lat="43.81648207552014" lon="10.310871109888541"><ele>8.0</ele><time>2026-05-02T08:05:00.999Z</time></trkpt><trkpt lat="43.816801780171495" lon="10.31063837166857"><ele>8.5</ele><time>2026-05-02T08:05:01.999Z</time></trkpt><trkpt lat="43.81712036637826" lon="10.310401519206241"><ele>9.0</ele><time>2026-05-02T08:05:02.999Z</time></trkpt><trkpt lat="43.817434845726964" lon="10.310166370375862"><ele>9.5</ele><time>2026-05-02T08:05:03.999Z</time></trkpt><trkpt lat="43.81775053971199" lon="10.309928975226283"><ele>10.0</ele><time>2026-05-02T08:05:04.999Z</time></trkpt><trkpt lat="43.81806507457699" lon="10.309694844248162"><ele>8.5</ele><time>2026-05-02T08:05:05.999Z</time></trkpt><trkpt lat="43.81838649700208" lon="10.3094584071496"><ele>7.0</ele><time>2026-05-02T08:05:06.999Z</time></trkpt><trkpt lat="43.81870492298355" lon="10.309219725558808"><ele>7.0</ele><time>2026-05-02T08:05:07.999Z</time></trkpt><trkpt lat="43.819020087558506" lon="10.308983862052797"><ele>7.0</ele><time>2026-05-02T08:05:08.999Z</time></trkpt><trkpt lat="43.819336980534295" lon="10.308747131941807"><ele>7.0</ele><time>2026-05-02T08:05:09.999Z</time></trkpt><trkpt lat="43.819651986862624" lon="10.30850932989804"><ele>7.0</ele><time>2026-05-02T08:05:10.999Z</time></trkpt><trkpt lat="43.819966777162705" lon="10.308271257512084"><ele>7.5</ele><time>2026-05-02T08:05:11.999Z</time></trkpt><trkpt lat="43.82028598062222" lon="10.308031632280576"><ele>8.0</ele><time>2026-05-02T08:05:12.999Z</time></trkpt><trkpt lat="43.820605387012655" lon="10.307796235091711"><ele>8.0</ele><time>2026-05-02T08:05:13.999Z</time></trkpt><trkpt lat="43.82092388228413" lon="10.307558754502503"><ele>8.0</ele><time>2026-05-02T08:05:14.999Z</time></trkpt><trkpt lat="43.821242599686954" lon="10.307320387226422"><ele>8.5</ele><time>2026-05-02T08:05:15.999Z</time></trkpt><trkpt lat="43.82156037153032" lon="10.307080758198655"><ele>9.0</ele><time>2026-05-02T08:05:16.999Z</time></trkpt><trkpt lat="43.821877816836476" lon="10.306841753726994"><ele>9.5</ele><time>2026-05-02T08:05:17.999Z</time></trkpt><trkpt lat="43.82219357783898" lon="10.306604811795323"><ele>10.0</ele><time>2026-05-02T08:05:18.999Z</time></trkpt><trkpt lat="43.82250717360787" lon="10.306365486971844"><ele>8.5</ele><time>2026-05-02T08:05:19.999Z</time></trkpt><trkpt lat="43.82282104235191" lon="10.30612632674735"><ele>7.0</ele><time>2026-05-02T08:05:20.999Z</time></trkpt><trkpt lat="43.823134683035335" lon="10.305890786860806"><ele>7.0</ele><time>2026-05-02T08:05:21.999Z</time></trkpt><trkpt lat="43.823452004010754" lon="10.3056547809943"><ele>7.0</ele><time>2026-05-02T08:05:22.999Z</time></trkpt><trkpt lat="43.82376880650306" lon="10.305420421629208"><ele>5.5</ele><time>2026-05-02T08:05:23.999Z</time></trkpt><trkpt lat="43.824089073043496" lon="10.305182104004492"><ele>4.0</ele><time>2026-05-02T08:05:24.999Z</time></trkpt><trkpt lat="43.824406226843294" lon="10.304941245594295"><ele>3.5</ele><time>2026-05-02T08:05:25.999Z</time></trkpt><trkpt lat="43.824724398612055" lon="10.304700686839313"><ele>3.0</ele><time>2026-05-02T08:05:26.999Z</time></trkpt><trkpt lat="43.82504098547375" lon="10.304461948236199"><ele>3.5</ele><time>2026-05-02T08:05:27.999Z</time></trkpt><trkpt lat="43.82535921650689" lon="10.30422808217688"><ele>4.0</ele><time>2026-05-02T08:05:28.999Z</time></trkpt><trkpt lat="43.82567756110385" lon="10.30399673038689"><ele>3.5</ele><time>2026-05-02T08:05:29.999Z</time></trkpt><trkpt lat="43.82599719044088" lon="10.3037602724916"><ele>3.0</ele><time>2026-05-02T08:05:30.999Z</time></trkpt><trkpt lat="43.826315921969055" lon="10.303522209864823"><ele>3.0</ele><time>2026-05-02T08:05:31.999Z</time></trkpt><trkpt lat="43.826634417422355" lon="10.303281355274192"><ele>3.0</ele><time>2026-05-02T08:05:32.999Z</time></trkpt><trkpt lat="43.8269529497093" lon="10.303039134920274"><ele>2.5</ele><time>2026-05-02T08:05:33.999Z</time></trkpt><trkpt lat="43.82727267524204" lon="10.30279385454421"><ele>2.0</ele><time>2026-05-02T08:05:34.999Z</time></trkpt><trkpt lat="43.82759169452586" lon="10.302548186843795"><ele>2.0</ele><time>2026-05-02T08:05:35.999Z</time></trkpt><trkpt lat="43.82791142019155" lon="10.302304351845057"><ele>2.0</ele><time>2026-05-02T08:05:36.999Z</time></trkpt><trkpt lat="43.82823135902753" lon="10.302063175837779"><ele>2.5</ele><time>2026-05-02T08:05:37.999Z</time></trkpt><trkpt lat="43.82855029152831" lon="10.301823260093379"><ele>3.0</ele><time>2026-05-02T08:05:38.999Z</time></trkpt><trkpt lat="43.82886930590846" lon="10.301584600558098"><ele>3.0</ele><time>2026-05-02T08:05:39.999Z</time></trkpt><trkpt lat="43.829190346564026" lon="10.301345687999891"><ele>3.0</ele><time>2026-05-02T08:05:40.999Z</time></trkpt><trkpt lat="43.829516154658705" lon="10.301101484193095"><ele>3.0</ele><time>2026-05-02T08:05:41.999Z</time></trkpt><trkpt lat="43.82985849945711" lon="10.300842132142996"><ele>3.0</ele><time>2026-05-02T08:05:42.999Z</time></trkpt><trkpt lat="43.830213549497984" lon="10.300574735612603"><ele>2.5</ele><time>2026-05-02T08:05:43.999Z</time></trkpt><trkpt lat="43.83057769220948" lon="10.300298481452066"><ele>2.0</ele><time>2026-05-02T08:05:44.999Z</time></trkpt><trkpt lat="43.83094172478567" lon="10.30002564609738"><ele>1.5</ele><time>2026-05-02T08:05:45.999Z</time></trkpt><trkpt lat="43.831308632466296" lon="10.299752358081133"><ele>1.0</ele><time>2026-05-02T08:05:46.999Z</time></trkpt><trkpt lat="43.83168229450023" lon="10.299474646986196"><ele>1.0</ele><time>2026-05-02T08:05:47.999Z</time></trkpt><trkpt lat="43.83205722074465" lon="10.299192362326455"><ele>1.0</ele><time>2026-05-02T08:05:48.999Z</time></trkpt><trkpt lat="43.83243341142045" lon="10.298907783494897"><ele>1.5</ele><time>2026-05-02T08:05:49.999Z</time></trkpt><trkpt lat="43.83281357403431" lon="10.298620533448096"><ele>2.0</ele><time>2026-05-02T08:05:50.999Z</time></trkpt><trkpt lat="43.83319617094793" lon="10.29833499209904"><ele>2.0</ele><time>2026-05-02T08:05:51.999Z</time></trkpt><trkpt lat="43.83357880574856" lon="10.29805009098779"><ele>2.0</ele><time>2026-05-02T08:05:52.999Z</time></trkpt><trkpt lat="43.83395879274761" lon="10.297765966842755"><ele>1.5</ele><time>2026-05-02T08:05:53.999Z</time></trkpt><trkpt lat="43.83433325273542" lon="10.297485202831076"><ele>1.0</ele><time>2026-05-02T08:05:54.999Z</time></trkpt><trkpt lat="43.834706407531286" lon="10.297202762778491"><ele>0.5</ele><time>2026-05-02T08:05:55.999Z</time></trkpt><trkpt lat="43.835077458529234" lon="10.296920552970489"><ele>0.0</ele><time>2026-05-02T08:05:56.999Z</time></trkpt><trkpt lat="43.83544785761485" lon="10.296638604986834"><ele>1.0</ele><time>2026-05-02T08:05:57.999Z</time></trkpt><trkpt lat="43.835819496453354" lon="10.296358586451415"><ele>2.0</ele><time>2026-05-02T08:05:58.999Z</time></trkpt><trkpt lat="43.83619856762607" lon="10.296071614447548"><ele>2.0</ele><time>2026-05-02T08:05:59.999Z</time></trkpt><trkpt lat="43.83657420730895" lon="10.295786459546749"><ele>2.0</ele><time>2026-05-02T08:06:00.999Z</time></trkpt><trkpt lat="43.83695228933353" lon="10.295501292054643"><ele>1.5</ele><time>2026-05-02T08:06:01.999Z</time></trkpt><trkpt lat="43.83733052290962" lon="10.295220489926873"><ele>1.0</ele><time>2026-05-02T08:06:02.999Z</time></trkpt><trkpt lat="43.83771135926691" lon="10.294936795042025"><ele>1.0</ele><time>2026-05-02T08:06:03.999Z</time></trkpt><trkpt lat="43.83809461823325" lon="10.294647956590111"><ele>1.0</ele><time>2026-05-02T08:06:04.998Z</time></trkpt><trkpt lat="43.838478795679094" lon="10.294360364166625"><ele>1.0</ele><time>2026-05-02T08:06:05.998Z</time></trkpt><trkpt lat="43.838859854228126" lon="10.294076159129595"><ele>1.0</ele><time>2026-05-02T08:06:06.998Z</time></trkpt><trkpt lat="43.83924387243603" lon="10.293790138763995"><ele>1.0</ele><time>2026-05-02T08:06:07.998Z</time></trkpt><trkpt lat="43.83962744888879" lon="10.29350329750912"><ele>1.0</ele><time>2026-05-02T08:06:08.998Z</time></trkpt><trkpt lat="43.84000835849032" lon="10.293213457735806"><ele>0.5</ele><time>2026-05-02T08:06:09.998Z</time></trkpt><trkpt lat="43.84039126349901" lon="10.292923753771385"><ele>0.0</ele><time>2026-05-02T08:06:10.998Z</time></trkpt><trkpt lat="43.84077056287182" lon="10.292638046020505"><ele>0.0</ele><time>2026-05-02T08:06:11.998Z</time></trkpt><trkpt lat="43.841151418357875" lon="10.292353088661711"><ele>0.0</ele><time>2026-05-02T08:06:12.998Z</time></trkpt><trkpt lat="43.841530307258786" lon="10.292068814649628"><ele>-0.5</ele><time>2026-05-02T08:06:13.998Z</time></trkpt><trkpt lat="43.841904629812404" lon="10.291787984550336"><ele>-1.0</ele><time>2026-05-02T08:06:14.998Z</time></trkpt><trkpt lat="43.842279264413" lon="10.291506173375009"><ele>0.0</ele><time>2026-05-02T08:06:16Z</time></trkpt><trkpt lat="43.84266114561923" lon="10.291227176375898"><ele>1.0</ele><time>2026-05-02T08:06:17Z</time></trkpt><trkpt lat="43.84304270909648" lon="10.290954119341983"><ele>1.0</ele><time>2026-05-02T08:06:18Z</time></trkpt><trkpt lat="43.84342172337925" lon="10.290693497501797"><ele>1.0</ele><time>2026-05-02T08:06:19Z</time></trkpt><trkpt lat="43.84380718330767" lon="10.290438207500925"><ele>0.5</ele><time>2026-05-02T08:06:20Z</time></trkpt><trkpt lat="43.84419152742421" lon="10.29018896217712"><ele>0.0</ele><time>2026-05-02T08:06:21Z</time></trkpt><trkpt lat="43.84458202349761" lon="10.28993908194593"><ele>0.0</ele><time>2026-05-02T08:06:22Z</time></trkpt><trkpt lat="43.84497937209958" lon="10.289694286071386"><ele>0.0</ele><time>2026-05-02T08:06:23Z</time></trkpt><trkpt lat="43.845380023469666" lon="10.289448884415384"><ele>0.0</ele><time>2026-05-02T08:06:24Z</time></trkpt><trkpt lat="43.84578231204728" lon="10.289203747200709"><ele>0.0</ele><time>2026-05-02T08:06:25Z</time></trkpt><trkpt lat="43.846189574953264" lon="10.288956982768394"><ele>-1.0</ele><time>2026-05-02T08:06:26Z</time></trkpt><trkpt lat="43.846602381626774" lon="10.288704854418397"><ele>-1.0</ele><time>2026-05-02T08:06:27Z</time></trkpt><trkpt lat="43.84702075633795" lon="10.288449836945855"><ele>-1.0</ele><time>2026-05-02T08:06:28Z</time></trkpt><trkpt lat="43.84743678661279" lon="10.288192386098272"><ele>0.0</ele><time>2026-05-02T08:06:29Z</time></trkpt><trkpt lat="43.847857963518315" lon="10.287933418691326"><ele>0.0</ele><time>2026-05-02T08:06:30Z</time></trkpt><trkpt lat="43.84828219158808" lon="10.287673233381888"><ele>0.0</ele><time>2026-05-02T08:06:31Z</time></trkpt><trkpt lat="43.84870476845701" lon="10.287414147874903"><ele>1.0</ele><time>2026-05-02T08:06:32Z</time></trkpt><trkpt lat="43.8491225590825" lon="10.287157900924218"><ele>-1.0</ele><time>2026-05-02T08:06:33Z</time></trkpt><trkpt lat="43.84954036547293" lon="10.286901008196992"><ele>-1.0</ele><time>2026-05-02T08:06:34Z</time></trkpt><trkpt lat="43.84995777071214" lon="10.286642931434953"><ele>0.0</ele><time>2026-05-02T08:06:35Z</time></trkpt><trkpt lat="43.8503728038345" lon="10.286390657503693"><ele>0.0</ele><time>2026-05-02T08:06:36Z</time></trkpt><trkpt lat="43.8507813651483" lon="10.286141670832299"><ele>0.0</ele><time>2026-05-02T08:06:37Z</time></trkpt><trkpt lat="43.85118754195583" lon="10.285892827700682"><ele>0.0</ele><time>2026-05-02T08:06:38Z</time></trkpt><trkpt lat="43.851591013119204" lon="10.285642317637388"><ele>0.0</ele><time>2026-05-02T08:06:39Z</time></trkpt><trkpt lat="43.851991703522636" lon="10.285394759907074"><ele>-0.5</ele><time>2026-05-02T08:06:40Z</time></trkpt><trkpt lat="43.852392663972395" lon="10.285149689590096"><ele>-1.0</ele><time>2026-05-02T08:06:41Z</time></trkpt><trkpt lat="43.85279159047603" lon="10.284906694913461"><ele>-1.0</ele><time>2026-05-02T08:06:42Z</time></trkpt><trkpt lat="43.85318462495636" lon="10.284666437513765"><ele>-1.0</ele><time>2026-05-02T08:06:43Z</time></trkpt><trkpt lat="43.85357534997275" lon="10.284428381920293"><ele>-1.0</ele><time>2026-05-02T08:06:44Z</time></trkpt><trkpt lat="43.85396077963738" lon="10.284192286464751"><ele>-1.0</ele><time>2026-05-02T08:06:45Z</time></trkpt><trkpt lat="43.85434180202303" lon="10.283958211819428"><ele>-0.5</ele><time>2026-05-02T08:06:46Z</time></trkpt><trkpt lat="43.85471977529273" lon="10.283728300325011"><ele>0.0</ele><time>2026-05-02T08:06:47Z</time></trkpt><trkpt lat="43.85509714587387" lon="10.283496149533164"><ele>-0.5</ele><time>2026-05-02T08:06:48Z</time></trkpt><trkpt lat="43.85546502245257" lon="10.283269313728255"><ele>-1.0</ele><time>2026-05-02T08:06:49Z</time></trkpt><trkpt lat="43.8558090453176" lon="10.283060652564918"><ele>-0.5</ele><time>2026-05-02T08:06:50Z</time></trkpt><trkpt lat="43.856138832731745" lon="10.282859991313096"><ele>0.0</ele><time>2026-05-02T08:06:51Z</time></trkpt><trkpt lat="43.85646780801085" lon="10.28265551764918"><ele>-0.5</ele><time>2026-05-02T08:06:52Z</time></trkpt><trkpt lat="43.85679700386144" lon="10.282451548723408"><ele>-1.0</ele><time>2026-05-02T08:06:53Z</time></trkpt><trkpt lat="43.85712492143956" lon="10.282253926523438"><ele>-1.0</ele><time>2026-05-02T08:06:54Z</time></trkpt><trkpt lat="43.85745211362834" lon="10.282066523665694"><ele>-1.0</ele><time>2026-05-02T08:06:55Z</time></trkpt><trkpt lat="43.857778804365935" lon="10.281892470053856"><ele>0.0</ele><time>2026-05-02T08:06:56Z</time></trkpt><trkpt lat="43.858088291744465" lon="10.281732661641827"><ele>1.0</ele><time>2026-05-02T08:06:57Z</time></trkpt><trkpt lat="43.858399191143846" lon="10.281572933744355"><ele>1.5</ele><time>2026-05-02T08:06:58Z</time></trkpt><trkpt lat="43.85871336475947" lon="10.281412823563794"><ele>2.0</ele><time>2026-05-02T08:06:59Z</time></trkpt><trkpt lat="43.859021641088944" lon="10.281257495214655"><ele>1.5</ele><time>2026-05-02T08:07:00Z</time></trkpt><trkpt lat="43.85933082444648" lon="10.281105578352582"><ele>1.0</ele><time>2026-05-02T08:07:01Z</time></trkpt><trkpt lat="43.85964396059075" lon="10.280950687153616"><ele>1.0</ele><time>2026-05-02T08:07:02Z</time></trkpt><trkpt lat="43.85995051157854" lon="10.280795582048796"><ele>1.0</ele><time>2026-05-02T08:07:03Z</time></trkpt><trkpt lat="43.86026130615983" lon="10.280638957044573"><ele>1.5</ele><time>2026-05-02T08:07:04Z</time></trkpt><trkpt lat="43.860571642697344" lon="10.280480513920129"><ele>2.0</ele><time>2026-05-02T08:07:04.999Z</time></trkpt><trkpt lat="43.86087224342405" lon="10.280326077496197"><ele>2.5</ele><time>2026-05-02T08:07:05.999Z</time></trkpt><trkpt lat="43.86115805487018" lon="10.280174001748879"><ele>3.0</ele><time>2026-05-02T08:07:06.999Z</time></trkpt><trkpt lat="43.861461955612405" lon="10.28002996438259"><ele>3.0</ele><time>2026-05-02T08:07:07.999Z</time></trkpt><trkpt lat="43.86176377964163" lon="10.279881438009314"><ele>3.0</ele><time>2026-05-02T08:07:08.999Z</time></trkpt><trkpt lat="43.86206608319431" lon="10.279731792856346"><ele>2.5</ele><time>2026-05-02T08:07:09.999Z</time></trkpt><trkpt lat="43.862361933750655" lon="10.279585070139927"><ele>2.0</ele><time>2026-05-02T08:07:10.999Z</time></trkpt><trkpt lat="43.862660350013094" lon="10.279439388656478"><ele>1.5</ele><time>2026-05-02T08:07:11.999Z</time></trkpt><trkpt lat="43.8629613019704" lon="10.279289373008195"><ele>1.0</ele><time>2026-05-02T08:07:12.999Z</time></trkpt><trkpt lat="43.86325920380352" lon="10.279140226620452"><ele>1.0</ele><time>2026-05-02T08:07:13.999Z</time></trkpt><trkpt lat="43.863563607543654" lon="10.278989715772278"><ele>1.0</ele><time>2026-05-02T08:07:14.999Z</time></trkpt><trkpt lat="43.863871330823144" lon="10.27883562009558"><ele>2.0</ele><time>2026-05-02T08:07:15.999Z</time></trkpt><trkpt lat="43.86417328445475" lon="10.278682466753915"><ele>3.0</ele><time>2026-05-02T08:07:16.999Z</time></trkpt><trkpt lat="43.864475211119554" lon="10.278531433904234"><ele>3.5</ele><time>2026-05-02T08:07:17.999Z</time></trkpt><trkpt lat="43.864781811057675" lon="10.278380030301467"><ele>4.0</ele><time>2026-05-02T08:07:18.999Z</time></trkpt><trkpt lat="43.86509318889757" lon="10.27822295417448"><ele>2.5</ele><time>2026-05-02T08:07:19.999Z</time></trkpt><trkpt lat="43.86540722857656" lon="10.27806362958687"><ele>1.0</ele><time>2026-05-02T08:07:20.999Z</time></trkpt><trkpt lat="43.865720547617435" lon="10.27790376523528"><ele>0.5</ele><time>2026-05-02T08:07:21.999Z</time></trkpt><trkpt lat="43.866036025104336" lon="10.277745831590433"><ele>0.0</ele><time>2026-05-02T08:07:22.999Z</time></trkpt><trkpt lat="43.866346358351635" lon="10.27758953211895"><ele>0.0</ele><time>2026-05-02T08:07:23.999Z</time></trkpt><trkpt lat="43.86665804049654" lon="10.2774357433419"><ele>0.0</ele><time>2026-05-02T08:07:24.999Z</time></trkpt><trkpt lat="43.8669718428755" lon="10.277281611367618"><ele>0.5</ele><time>2026-05-02T08:07:25.999Z</time></trkpt><trkpt lat="43.867288051530444" lon="10.277125817947773"><ele>1.0</ele><time>2026-05-02T08:07:26.999Z</time></trkpt><trkpt lat="43.867600656293874" lon="10.276969565491342"><ele>-0.5</ele><time>2026-05-02T08:07:27.999Z</time></trkpt><trkpt lat="43.86791817695841" lon="10.276809363754252"><ele>-2.0</ele><time>2026-05-02T08:07:28.999Z</time></trkpt><trkpt lat="43.86823823066745" lon="10.27664507331082"><ele>-1.5</ele><time>2026-05-02T08:07:29.999Z</time></trkpt><trkpt lat="43.86855743082534" lon="10.276481622800864"><ele>-1.0</ele><time>2026-05-02T08:07:30.999Z</time></trkpt><trkpt lat="43.86889811902242" lon="10.276306866105362"><ele>-1.0</ele><time>2026-05-02T08:07:31.999Z</time></trkpt><trkpt lat="43.869252101476505" lon="10.276110183271985"><ele>-1.0</ele><time>2026-05-02T08:07:32.999Z</time></trkpt><trkpt lat="43.86961347837481" lon="10.27590028943016"><ele>0.0</ele><time>2026-05-02T08:07:33.999Z</time></trkpt><trkpt lat="43.86998111808057" lon="10.27567586681793"><ele>1.0</ele><time>2026-05-02T08:07:34.999Z</time></trkpt><trkpt lat="43.87036022190738" lon="10.275437460220877"><ele>1.0</ele><time>2026-05-02T08:07:35.999Z</time></trkpt><trkpt lat="43.870749042294825" lon="10.275180264909425"><ele>1.0</ele><time>2026-05-02T08:07:36.999Z</time></trkpt><trkpt lat="43.87114473283419" lon="10.274909828528074"><ele>0.0</ele><time>2026-05-02T08:07:37.999Z</time></trkpt><trkpt lat="43.871548066656835" lon="10.274624821896085"><ele>0.5</ele><time>2026-05-02T08:07:38.999Z</time></trkpt><trkpt lat="43.87193663783085" lon="10.274347862371021"><ele>1.0</ele><time>2026-05-02T08:07:39.999Z</time></trkpt><trkpt lat="43.87232715055681" lon="10.27406315424283"><ele>0.5</ele><time>2026-05-02T08:07:40.999Z</time></trkpt><trkpt lat="43.872715962858415" lon="10.27378077945907"><ele>0.0</ele><time>2026-05-02T08:07:41.999Z</time></trkpt><trkpt lat="43.87310419519269" lon="10.273501969588702"><ele>-0.5</ele><time>2026-05-02T08:07:42.999Z</time></trkpt><trkpt lat="43.873489303101316" lon="10.273227277945148"><ele>-1.0</ele><time>2026-05-02T08:07:43.999Z</time></trkpt><trkpt lat="43.873868271060914" lon="10.272954498598207"><ele>-0.5</ele><time>2026-05-02T08:07:44.999Z</time></trkpt><trkpt lat="43.87424874392564" lon="10.272680779511397"><ele>0.0</ele><time>2026-05-02T08:07:45.999Z</time></trkpt><trkpt lat="43.87462975296336" lon="10.272405429811469"><ele>-0.5</ele><time>2026-05-02T08:07:46.999Z</time></trkpt><trkpt lat="43.87500319770414" lon="10.272134326520066"><ele>-1.0</ele><time>2026-05-02T08:07:47.999Z</time></trkpt><trkpt lat="43.87536407889912" lon="10.271872925393803"><ele>-1.0</ele><time>2026-05-02T08:07:48.999Z</time></trkpt><trkpt lat="43.87570585903457" lon="10.27162678520258"><ele>-1.0</ele><time>2026-05-02T08:07:49.999Z</time></trkpt><trkpt lat="43.876039747529504" lon="10.271385923800274"><ele>0.0</ele><time>2026-05-02T08:07:50.999Z</time></trkpt><trkpt lat="43.876360449442984" lon="10.271155930914203"><ele>1.0</ele><time>2026-05-02T08:07:51.999Z</time></trkpt><trkpt lat="43.87666130360259" lon="10.270938316814366"><ele>1.0</ele><time>2026-05-02T08:07:52.999Z</time></trkpt><trkpt lat="43.87695749273472" lon="10.270724469884453"><ele>1.0</ele><time>2026-05-02T08:07:53.999Z</time></trkpt><trkpt lat="43.87725928135514" lon="10.270505511553797"><ele>0.0</ele><time>2026-05-02T08:07:54.999Z</time></trkpt><trkpt lat="43.87755596479643" lon="10.270289927256902"><ele>-1.0</ele><time>2026-05-02T08:07:55.999Z</time></trkpt><trkpt lat="43.87784763346277" lon="10.270073609037247"><ele>-1.0</ele><time>2026-05-02T08:07:56.999Z</time></trkpt><trkpt lat="43.87815217224488" lon="10.269851754354338"><ele>-1.0</ele><time>2026-05-02T08:07:57.999Z</time></trkpt><trkpt lat="43.87847782595178" lon="10.269617008590481"><ele>-1.0</ele><time>2026-05-02T08:07:58.999Z</time></trkpt><trkpt lat="43.878812959649345" lon="10.269374276780967"><ele>-1.0</ele><time>2026-05-02T08:07:59.999Z</time></trkpt><trkpt lat="43.879160733130696" lon="10.269123346253707"><ele>0.0</ele><time>2026-05-02T08:08:00.999Z</time></trkpt><trkpt lat="43.879514253586834" lon="10.268867550662284"><ele>1.0</ele><time>2026-05-02T08:08:01.999Z</time></trkpt><trkpt lat="43.87988092751633" lon="10.268601117468599"><ele>1.0</ele><time>2026-05-02T08:08:02.999Z</time></trkpt><trkpt lat="43.88024974663478" lon="10.268335762704153"><ele>1.0</ele><time>2026-05-02T08:08:03.999Z</time></trkpt><trkpt lat="43.88061983802389" lon="10.268073044618502"><ele>0.5</ele><time>2026-05-02T08:08:04.999Z</time></trkpt><trkpt lat="43.880990820022035" lon="10.267807386682774"><ele>0.0</ele><time>2026-05-02T08:08:05.999Z</time></trkpt><trkpt lat="43.881359069457126" lon="10.267541556929046"><ele>0.0</ele><time>2026-05-02T08:08:06.999Z</time></trkpt><trkpt lat="43.88171770889198" lon="10.267280921764518"><ele>0.0</ele><time>2026-05-02T08:08:07.999Z</time></trkpt><trkpt lat="43.88207587652435" lon="10.267017713984908"><ele>0.5</ele><time>2026-05-02T08:08:08.999Z</time></trkpt><trkpt lat="43.88242712821909" lon="10.266760740505568"><ele>1.0</ele><time>2026-05-02T08:08:09.999Z</time></trkpt><trkpt lat="43.882759588331794" lon="10.266522391579691"><ele>0.5</ele><time>2026-05-02T08:08:10.998Z</time></trkpt><trkpt lat="43.88308016265942" lon="10.266291204572983"><ele>0.0</ele><time>2026-05-02T08:08:11.998Z</time></trkpt><trkpt lat="43.88339732044585" lon="10.266063308063975"><ele>-0.5</ele><time>2026-05-02T08:08:12.998Z</time></trkpt><trkpt lat="43.883720727930694" lon="10.265830081479486"><ele>-1.0</ele><time>2026-05-02T08:08:13.998Z</time></trkpt><trkpt lat="43.88404941333514" lon="10.265591401398286"><ele>-1.0</ele><time>2026-05-02T08:08:14.998Z</time></trkpt><trkpt lat="43.88438462103815" lon="10.26534946583837"><ele>-1.0</ele><time>2026-05-02T08:08:15.998Z</time></trkpt><trkpt lat="43.884738214058565" lon="10.265088170395819"><ele>-1.0</ele><time>2026-05-02T08:08:16.998Z</time></trkpt><trkpt lat="43.885082401515746" lon="10.264837716193334"><ele>-1.0</ele><time>2026-05-02T08:08:17.998Z</time></trkpt><trkpt lat="43.88542378959691" lon="10.264587946656551"><ele>-1.0</ele><time>2026-05-02T08:08:18.998Z</time></trkpt><trkpt lat="43.88576750088082" lon="10.264341844878503"><ele>-1.0</ele><time>2026-05-02T08:08:19.998Z</time></trkpt><trkpt lat="43.886122487085885" lon="10.264090925702735"><ele>-1.0</ele><time>2026-05-02T08:08:20.998Z</time></trkpt><trkpt lat="43.886483196661125" lon="10.263835300630376"><ele>-1.0</ele><time>2026-05-02T08:08:22Z</time></trkpt><trkpt lat="43.88684250154415" lon="10.263577321225004"><ele>-1.0</ele><time>2026-05-02T08:08:23Z</time></trkpt><trkpt lat="43.88720331283518" lon="10.263316368930582"><ele>-1.0</ele><time>2026-05-02T08:08:24Z</time></trkpt><trkpt lat="43.88756543134257" lon="10.263055433847136"><ele>-1.0</ele><time>2026-05-02T08:08:25Z</time></trkpt><trkpt lat="43.88793103134176" lon="10.262792092759067"><ele>-1.0</ele><time>2026-05-02T08:08:26Z</time></trkpt><trkpt lat="43.888292012183186" lon="10.262530269159956"><ele>-1.0</ele><time>2026-05-02T08:08:27Z</time></trkpt><trkpt lat="43.888666902330485" lon="10.262266507749363"><ele>-1.0</ele><time>2026-05-02T08:08:28Z</time></trkpt><trkpt lat="43.88902932117302" lon="10.262000701309447"><ele>-0.5</ele><time>2026-05-02T08:08:29Z</time></trkpt><trkpt lat="43.88937364895413" lon="10.261749056760864"><ele>0.0</ele><time>2026-05-02T08:08:30Z</time></trkpt><trkpt lat="43.88970974833014" lon="10.26150590422051"><ele>-0.5</ele><time>2026-05-02T08:08:31Z</time></trkpt><trkpt lat="43.89003896665512" lon="10.26126685892417"><ele>-1.0</ele><time>2026-05-02T08:08:32Z</time></trkpt><trkpt lat="43.89036812634991" lon="10.261027080723883"><ele>-1.0</ele><time>2026-05-02T08:08:33Z</time></trkpt><trkpt lat="43.890697833275986" lon="10.260784883732597"><ele>-1.0</ele><time>2026-05-02T08:08:34Z</time></trkpt><trkpt lat="43.89103507185999" lon="10.260540189505273"><ele>-1.0</ele><time>2026-05-02T08:08:35Z</time></trkpt><trkpt lat="43.89137559315101" lon="10.260295122884237"><ele>-1.0</ele><time>2026-05-02T08:08:36Z</time></trkpt><trkpt lat="43.891714942341885" lon="10.260049037566146"><ele>-0.5</ele><time>2026-05-02T08:08:37Z</time></trkpt><trkpt lat="43.892058609435814" lon="10.259802522353349"><ele>0.0</ele><time>2026-05-02T08:08:38Z</time></trkpt><trkpt lat="43.89239036429141" lon="10.259562116657369"><ele>0.5</ele><time>2026-05-02T08:08:39Z</time></trkpt><trkpt lat="43.892723411600116" lon="10.259319572528383"><ele>1.0</ele><time>2026-05-02T08:08:40Z</time></trkpt><trkpt lat="43.89305964142353" lon="10.259072675254899"><ele>0.5</ele><time>2026-05-02T08:08:41Z</time></trkpt><trkpt lat="43.8933964301665" lon="10.258822632535777"><ele>0.0</ele><time>2026-05-02T08:08:42Z</time></trkpt><trkpt lat="43.89373184351592" lon="10.258564470268523"><ele>0.0</ele><time>2026-05-02T08:08:43Z</time></trkpt><trkpt lat="43.894057267320164" lon="10.258295113214693"><ele>0.0</ele><time>2026-05-02T08:08:44Z</time></trkpt><trkpt lat="43.89437886270708" lon="10.25801061177375"><ele>0.0</ele><time>2026-05-02T08:08:45Z</time></trkpt><trkpt lat="43.89469583855733" lon="10.257720016743985"><ele>0.0</ele><time>2026-05-02T08:08:46Z</time></trkpt><trkpt lat="43.89499985987149" lon="10.257428139079728"><ele>-0.5</ele><time>2026-05-02T08:08:47Z</time></trkpt><trkpt lat="43.89529148033098" lon="10.257137210763416"><ele>-1.0</ele><time>2026-05-02T08:08:48Z</time></trkpt><trkpt lat="43.89557743839147" lon="10.256841216544855"><ele>-1.0</ele><time>2026-05-02T08:08:49Z</time></trkpt><trkpt lat="43.89585325574944" lon="10.256545907221025"><ele>-1.0</ele><time>2026-05-02T08:08:50Z</time></trkpt><trkpt lat="43.896122610840976" lon="10.256245974558102"><ele>0.5</ele><time>2026-05-02T08:08:51Z</time></trkpt><trkpt lat="43.89637759751646" lon="10.255952197641514"><ele>2.0</ele><time>2026-05-02T08:08:52Z</time></trkpt><trkpt lat="43.8966272091016" lon="10.255663236848692"><ele>1.0</ele><time>2026-05-02T08:08:53Z</time></trkpt><trkpt lat="43.89686631972524" lon="10.255387118585332"><ele>0.0</ele><time>2026-05-02T08:08:54Z</time></trkpt><trkpt lat="43.89711172876653" lon="10.25511057459207"><ele>0.0</ele><time>2026-05-02T08:08:55Z</time></trkpt><trkpt lat="43.89738037847758" lon="10.254807979113453"><ele>0.0</ele><time>2026-05-02T08:08:56Z</time></trkpt><trkpt lat="43.89763063160738" lon="10.254524338261504"><ele>-0.5</ele><time>2026-05-02T08:08:57Z</time></trkpt><trkpt lat="43.89786793570854" lon="10.254251697520258"><ele>-1.0</ele><time>2026-05-02T08:08:58Z</time></trkpt><trkpt lat="43.89809892105939" lon="10.25398971084287"><ele>0.0</ele><time>2026-05-02T08:08:59Z</time></trkpt><trkpt lat="43.89833066876271" lon="10.253727077420637"><ele>1.0</ele><time>2026-05-02T08:09:00Z</time></trkpt><trkpt lat="43.8985620918072" lon="10.253465347423754"><ele>2.0</ele><time>2026-05-02T08:09:01Z</time></trkpt><trkpt lat="43.89879430763798" lon="10.253204951024767"><ele>3.0</ele><time>2026-05-02T08:09:02Z</time></trkpt><trkpt lat="43.89902539828618" lon="10.252939890207323"><ele>3.0</ele><time>2026-05-02T08:09:03Z</time></trkpt><trkpt lat="43.899256637416414" lon="10.25267675247411"><ele>3.0</ele><time>2026-05-02T08:09:04Z</time></trkpt><trkpt lat="43.8994898349999" lon="10.252414899593706"><ele>3.0</ele><time>2026-05-02T08:09:05Z</time></trkpt><trkpt lat="43.8997243125619" lon="10.25215747098334"><ele>3.0</ele><time>2026-05-02T08:09:06Z</time></trkpt><trkpt lat="43.899956961264415" lon="10.251895671322"><ele>2.5</ele><time>2026-05-02T08:09:07Z</time></trkpt><trkpt lat="43.900183844627485" lon="10.25163490995297"><ele>2.0</ele><time>2026-05-02T08:09:07.999Z</time></trkpt><trkpt lat="43.90041165016385" lon="10.251375740721265"><ele>3.0</ele><time>2026-05-02T08:09:08.999Z</time></trkpt><trkpt lat="43.900637642058044" lon="10.25111741422477"><ele>4.0</ele><time>2026-05-02T08:09:09.999Z</time></trkpt><trkpt lat="43.90086648013249" lon="10.250859150881846"><ele>3.5</ele><time>2026-05-02T08:09:10.999Z</time></trkpt><trkpt lat="43.90109529508962" lon="10.250600566507273"><ele>3.0</ele><time>2026-05-02T08:09:11.999Z</time></trkpt><trkpt lat="43.901330523657606" lon="10.250332711487557"><ele>3.0</ele><time>2026-05-02T08:09:12.999Z</time></trkpt><trkpt lat="43.90156784185745" lon="10.250063367900266"><ele>3.0</ele><time>2026-05-02T08:09:13.999Z</time></trkpt><trkpt lat="43.901802709327534" lon="10.249792680578047"><ele>3.0</ele><time>2026-05-02T08:09:14.999Z</time></trkpt><trkpt lat="43.90203036860941" lon="10.249535624954415"><ele>3.0</ele><time>2026-05-02T08:09:15.999Z</time></trkpt><trkpt lat="43.90225836545514" lon="10.249275810258634"><ele>3.0</ele><time>2026-05-02T08:09:16.999Z</time></trkpt><trkpt lat="43.902487088586646" lon="10.249015962459746"><ele>3.0</ele><time>2026-05-02T08:09:17.999Z</time></trkpt><trkpt lat="43.90271694533261" lon="10.24875675240098"><ele>3.0</ele><time>2026-05-02T08:09:18.999Z</time></trkpt><trkpt lat="43.90294649997496" lon="10.248497361769935"><ele>3.0</ele><time>2026-05-02T08:09:19.999Z</time></trkpt><trkpt lat="43.90317789856925" lon="10.248235539339305"><ele>2.0</ele><time>2026-05-02T08:09:20.999Z</time></trkpt><trkpt lat="43.903418860683836" lon="10.247961814621398"><ele>1.0</ele><time>2026-05-02T08:09:21.999Z</time></trkpt><trkpt lat="43.903660327820354" lon="10.247690442713873"><ele>1.0</ele><time>2026-05-02T08:09:22.999Z</time></trkpt><trkpt lat="43.90390845371151" lon="10.247409780743798"><ele>1.0</ele><time>2026-05-02T08:09:23.999Z</time></trkpt><trkpt lat="43.904163737830345" lon="10.247122538143044"><ele>1.0</ele><time>2026-05-02T08:09:24.999Z</time></trkpt><trkpt lat="43.904423959292906" lon="10.246829844360072"><ele>1.0</ele><time>2026-05-02T08:09:25.999Z</time></trkpt><trkpt lat="43.904683292561096" lon="10.246536522466537"><ele>1.0</ele><time>2026-05-02T08:09:26.999Z</time></trkpt><trkpt lat="43.90494175874945" lon="10.246241445234807"><ele>1.0</ele><time>2026-05-02T08:09:27.999Z</time></trkpt><trkpt lat="43.90519777493993" lon="10.245952326847762"><ele>1.0</ele><time>2026-05-02T08:09:28.999Z</time></trkpt><trkpt lat="43.905451734414605" lon="10.245666709374863"><ele>1.0</ele><time>2026-05-02T08:09:29.999Z</time></trkpt><trkpt lat="43.90570577144878" lon="10.24538064321493"><ele>0.5</ele><time>2026-05-02T08:09:30.999Z</time></trkpt><trkpt lat="43.9059550669879" lon="10.24510018998692"><ele>0.0</ele><time>2026-05-02T08:09:31.999Z</time></trkpt><trkpt lat="43.906204891639966" lon="10.24481781852625"><ele>0.5</ele><time>2026-05-02T08:09:32.999Z</time></trkpt><trkpt lat="43.90645366139775" lon="10.24453704752072"><ele>1.0</ele><time>2026-05-02T08:09:33.999Z</time></trkpt><trkpt lat="43.90669850506586" lon="10.244261689374442"><ele>1.0</ele><time>2026-05-02T08:09:34.999Z</time></trkpt><trkpt lat="43.90694115674017" lon="10.243984793364092"><ele>1.0</ele><time>2026-05-02T08:09:35.999Z</time></trkpt><trkpt lat="43.907184857990686" lon="10.243708039419642"><ele>1.0</ele><time>2026-05-02T08:09:36.999Z</time></trkpt><trkpt lat="43.90742879383592" lon="10.243429897578666"><ele>1.0</ele><time>2026-05-02T08:09:37.999Z</time></trkpt><trkpt lat="43.90767378417005" lon="10.243156484325931"><ele>1.5</ele><time>2026-05-02T08:09:38.999Z</time></trkpt><trkpt lat="43.90791402636873" lon="10.24288774312455"><ele>2.0</ele><time>2026-05-02T08:09:39.999Z</time></trkpt><trkpt lat="43.90815329483706" lon="10.242624166621164"><ele>2.0</ele><time>2026-05-02T08:09:40.999Z</time></trkpt><trkpt lat="43.90839303726758" lon="10.242363080034847"><ele>2.0</ele><time>2026-05-02T08:09:41.999Z</time></trkpt><trkpt lat="43.90863376073092" lon="10.242108771801025"><ele>2.0</ele><time>2026-05-02T08:09:42.999Z</time></trkpt><trkpt lat="43.90887874104189" lon="10.24185583780523"><ele>2.0</ele><time>2026-05-02T08:09:43.999Z</time></trkpt><trkpt lat="43.90912584345617" lon="10.241610327266063"><ele>1.0</ele><time>2026-05-02T08:09:44.999Z</time></trkpt><trkpt lat="43.909383957919125" lon="10.24135450844626"><ele>0.0</ele><time>2026-05-02T08:09:45.999Z</time></trkpt><trkpt lat="43.90965464214223" lon="10.241092819456608"><ele>0.0</ele><time>2026-05-02T08:09:46.999Z</time></trkpt><trkpt lat="43.909924712950954" lon="10.240829399342033"><ele>0.0</ele><time>2026-05-02T08:09:47.999Z</time></trkpt><trkpt lat="43.91019564614233" lon="10.24056537271615"><ele>0.5</ele><time>2026-05-02T08:09:48.999Z</time></trkpt><trkpt lat="43.91047229722362" lon="10.240295272131208"><ele>1.0</ele><time>2026-05-02T08:09:49.999Z</time></trkpt><trkpt lat="43.9107501554534" lon="10.24001916909216"><ele>1.5</ele><time>2026-05-02T08:09:50.999Z</time></trkpt><trkpt lat="43.91104016759813" lon="10.239738547992337"><ele>2.0</ele><time>2026-05-02T08:09:51.999Z</time></trkpt><trkpt lat="43.91133559753995" lon="10.239455218523522"><ele>2.0</ele><time>2026-05-02T08:09:52.999Z</time></trkpt><trkpt lat="43.911633334597774" lon="10.239165722125328"><ele>2.0</ele><time>2026-05-02T08:09:53.999Z</time></trkpt><trkpt lat="43.91195241449227" lon="10.238854626655987"><ele>1.0</ele><time>2026-05-02T08:09:54.999Z</time></trkpt><trkpt lat="43.912271226890965" lon="10.23854615686136"><ele>0.0</ele><time>2026-05-02T08:09:55.999Z</time></trkpt><trkpt lat="43.91260225096762" lon="10.238223182554593"><ele>1.0</ele><time>2026-05-02T08:09:56.999Z</time></trkpt><trkpt lat="43.91295403095342" lon="10.237887450182031"><ele>2.0</ele><time>2026-05-02T08:09:57.999Z</time></trkpt><trkpt lat="43.91331168356283" lon="10.23754590259051"><ele>1.5</ele><time>2026-05-02T08:09:58.999Z</time></trkpt><trkpt lat="43.91367874076123" lon="10.237186097404717"><ele>1.0</ele><time>2026-05-02T08:09:59.999Z</time></trkpt><trkpt lat="43.914052180869426" lon="10.236817592632176"><ele>1.0</ele><time>2026-05-02T08:10:00.999Z</time></trkpt><trkpt lat="43.914435060634055" lon="10.236442384136577"><ele>1.0</ele><time>2026-05-02T08:10:01.999Z</time></trkpt><trkpt lat="43.91481020241558" lon="10.236079040592527"><ele>0.5</ele><time>2026-05-02T08:10:02.999Z</time></trkpt><trkpt lat="43.91517055713685" lon="10.23572448478879"><ele>0.0</ele><time>2026-05-02T08:10:03.999Z</time></trkpt><trkpt lat="43.915517070150024" lon="10.235387274123434"><ele>0.0</ele><time>2026-05-02T08:10:04.999Z</time></trkpt><trkpt lat="43.915847517434244" lon="10.235068390914552"><ele>0.0</ele><time>2026-05-02T08:10:05.999Z</time></trkpt><trkpt lat="43.91616745072183" lon="10.234757858922995"><ele>-0.5</ele><time>2026-05-02T08:10:06.999Z</time></trkpt><trkpt lat="43.91647971340828" lon="10.234452162060716"><ele>-1.0</ele><time>2026-05-02T08:10:07.999Z</time></trkpt><trkpt lat="43.91677635309426" lon="10.234162619933175"><ele>-1.0</ele><time>2026-05-02T08:10:08.999Z</time></trkpt><trkpt lat="43.91706764871822" lon="10.233879424961858"><ele>-1.0</ele><time>2026-05-02T08:10:09.999Z</time></trkpt><trkpt lat="43.91736174052377" lon="10.2335951391844"><ele>-1.5</ele><time>2026-05-02T08:10:10.999Z</time></trkpt><trkpt lat="43.9176507910799" lon="10.233313041028463"><ele>-2.0</ele><time>2026-05-02T08:10:11.999Z</time></trkpt><trkpt lat="43.91793773472976" lon="10.233035966745858"><ele>-1.0</ele><time>2026-05-02T08:10:12.999Z</time></trkpt><trkpt lat="43.918218861929034" lon="10.232762857980827"><ele>0.0</ele><time>2026-05-02T08:10:13.999Z</time></trkpt><trkpt lat="43.91850315950934" lon="10.232487018372735"><ele>0.5</ele><time>2026-05-02T08:10:14.999Z</time></trkpt><trkpt lat="43.918782557888825" lon="10.23221475875061"><ele>1.0</ele><time>2026-05-02T08:10:15.998Z</time></trkpt><trkpt lat="43.91905775407016" lon="10.231948797340744"><ele>0.5</ele><time>2026-05-02T08:10:16.998Z</time></trkpt><trkpt lat="43.919324722207826" lon="10.231689142676021"><ele>0.0</ele><time>2026-05-02T08:10:17.998Z</time></trkpt><trkpt lat="43.91958644293273" lon="10.231431821167769"><ele>0.0</ele><time>2026-05-02T08:10:18.998Z</time></trkpt><trkpt lat="43.91985317455624" lon="10.231174617517583"><ele>0.0</ele><time>2026-05-02T08:10:19.998Z</time></trkpt><trkpt lat="43.920121975549996" lon="10.23091414469064"><ele>0.0</ele><time>2026-05-02T08:10:20.998Z</time></trkpt><trkpt lat="43.9203849177249" lon="10.230658810110985"><ele>0.0</ele><time>2026-05-02T08:10:21.998Z</time></trkpt><trkpt lat="43.92064081570433" lon="10.230407981121978"><ele>0.5</ele><time>2026-05-02T08:10:22.998Z</time></trkpt><trkpt lat="43.92090033146259" lon="10.230154528881668"><ele>1.0</ele><time>2026-05-02T08:10:23.998Z</time></trkpt><trkpt lat="43.92118607311964" lon="10.229874664739958"><ele>0.5</ele><time>2026-05-02T08:10:24.998Z</time></trkpt><trkpt lat="43.92147607077794" lon="10.229596015336913"><ele>0.0</ele><time>2026-05-02T08:10:25.998Z</time></trkpt><trkpt lat="43.92176616454726" lon="10.229316533441153"><ele>-0.5</ele><time>2026-05-02T08:10:26.998Z</time></trkpt><trkpt lat="43.92204135442181" lon="10.229052699709834"><ele>-1.0</ele><time>2026-05-02T08:10:28Z</time></trkpt><trkpt lat="43.92231642058381" lon="10.228786924451"><ele>-0.5</ele><time>2026-05-02T08:10:29Z</time></trkpt><trkpt lat="43.922591484824416" lon="10.2285196589422"><ele>0.0</ele><time>2026-05-02T08:10:30Z</time></trkpt><trkpt lat="43.92286670805985" lon="10.228258947045218"><ele>0.0</ele><time>2026-05-02T08:10:31Z</time></trkpt><trkpt lat="43.92314194631396" lon="10.228003770035025"><ele>0.0</ele><time>2026-05-02T08:10:32Z</time></trkpt><trkpt lat="43.92342139753568" lon="10.227748959711224"><ele>0.5</ele><time>2026-05-02T08:10:33Z</time></trkpt><trkpt lat="43.92369565768511" lon="10.227494658124181"><ele>1.0</ele><time>2026-05-02T08:10:34Z</time></trkpt><trkpt lat="43.923980082845986" lon="10.227238937322454"><ele>2.0</ele><time>2026-05-02T08:10:35Z</time></trkpt><trkpt lat="43.924277474179206" lon="10.2269781837721"><ele>3.0</ele><time>2026-05-02T08:10:36Z</time></trkpt><trkpt lat="43.9245921952012" lon="10.226708957466734"><ele>2.5</ele><time>2026-05-02T08:10:37Z</time></trkpt><trkpt lat="43.924909165833036" lon="10.226441770258502"><ele>2.0</ele><time>2026-05-02T08:10:38Z</time></trkpt><trkpt lat="43.92523045252864" lon="10.226180544902771"><ele>2.0</ele><time>2026-05-02T08:10:39Z</time></trkpt><trkpt lat="43.92554761913234" lon="10.225921648843382"><ele>2.0</ele><time>2026-05-02T08:10:40Z</time></trkpt><trkpt lat="43.92586326518058" lon="10.22566966096005"><ele>2.5</ele><time>2026-05-02T08:10:41Z</time></trkpt><trkpt lat="43.92617484001536" lon="10.225420172111267"><ele>3.0</ele><time>2026-05-02T08:10:42Z</time></trkpt><trkpt lat="43.92648098134469" lon="10.225181891168994"><ele>2.0</ele><time>2026-05-02T08:10:43Z</time></trkpt><trkpt lat="43.92678918699586" lon="10.224946670027707"><ele>1.0</ele><time>2026-05-02T08:10:44Z</time></trkpt><trkpt lat="43.92710040478038" lon="10.224714097884487"><ele>1.0</ele><time>2026-05-02T08:10:45Z</time></trkpt><trkpt lat="43.92741883132143" lon="10.224479125020016"><ele>1.0</ele><time>2026-05-02T08:10:46Z</time></trkpt><trkpt lat="43.92773616653712" lon="10.224245080759347"><ele>1.5</ele><time>2026-05-02T08:10:47Z</time></trkpt><trkpt lat="43.92805725756216" lon="10.224013817015843"><ele>2.0</ele><time>2026-05-02T08:10:48Z</time></trkpt><trkpt lat="43.92837927751035" lon="10.223788997055756"><ele>2.0</ele><time>2026-05-02T08:10:49Z</time></trkpt><trkpt lat="43.92871752342012" lon="10.223557004147684"><ele>2.0</ele><time>2026-05-02T08:10:50Z</time></trkpt><trkpt lat="43.92906783227235" lon="10.22331345874269"><ele>2.0</ele><time>2026-05-02T08:10:51Z</time></trkpt><trkpt lat="43.929420914116776" lon="10.223066302139785"><ele>2.0</ele><time>2026-05-02T08:10:52Z</time></trkpt><trkpt lat="43.92976668616276" lon="10.222821729050388"><ele>1.5</ele><time>2026-05-02T08:10:53Z</time></trkpt><trkpt lat="43.93012072134455" lon="10.2225735040509"><ele>1.0</ele><time>2026-05-02T08:10:54Z</time></trkpt><trkpt lat="43.93047748049364" lon="10.222322982988803"><ele>1.5</ele><time>2026-05-02T08:10:55Z</time></trkpt><trkpt lat="43.93083526527497" lon="10.222071773946874"><ele>2.0</ele><time>2026-05-02T08:10:56Z</time></trkpt><trkpt lat="43.93119292676904" lon="10.22181948920507"><ele>2.0</ele><time>2026-05-02T08:10:57Z</time></trkpt><trkpt lat="43.93155594257944" lon="10.221558566287555"><ele>2.0</ele><time>2026-05-02T08:10:58Z</time></trkpt><trkpt lat="43.93192128460684" lon="10.221304041189352"><ele>1.5</ele><time>2026-05-02T08:10:59Z</time></trkpt><trkpt lat="43.93228175586729" lon="10.221057060690459"><ele>1.0</ele><time>2026-05-02T08:11:00Z</time></trkpt><trkpt lat="43.93264830564697" lon="10.220803311918905"><ele>1.0</ele><time>2026-05-02T08:11:01Z</time></trkpt><trkpt lat="43.933009707288726" lon="10.220548226026013"><ele>1.0</ele><time>2026-05-02T08:11:02Z</time></trkpt><trkpt lat="43.933371643671414" lon="10.220294391996974"><ele>1.0</ele><time>2026-05-02T08:11:03Z</time></trkpt><trkpt lat="43.93373399032067" lon="10.22004074261479"><ele>1.0</ele><time>2026-05-02T08:11:04Z</time></trkpt><trkpt lat="43.934093927853326" lon="10.219789264608277"><ele>0.0</ele><time>2026-05-02T08:11:05Z</time></trkpt><trkpt lat="43.9344544944438" lon="10.21953543605752"><ele>-1.0</ele><time>2026-05-02T08:11:05.999Z</time></trkpt><trkpt lat="43.93480816843972" lon="10.219286601517823"><ele>0.0</ele><time>2026-05-02T08:11:06.999Z</time></trkpt><trkpt lat="43.93516381806602" lon="10.21903866794573"><ele>1.0</ele><time>2026-05-02T08:11:07.999Z</time></trkpt><trkpt lat="43.93551615025036" lon="10.218794843201701"><ele>1.0</ele><time>2026-05-02T08:11:08.999Z</time></trkpt><trkpt lat="43.93586181688073" lon="10.218548341978563"><ele>1.0</ele><time>2026-05-02T08:11:09.999Z</time></trkpt><trkpt lat="43.936202241917925" lon="10.218312770682866"><ele>0.5</ele><time>2026-05-02T08:11:10.999Z</time></trkpt><trkpt lat="43.93654522265123" lon="10.218080951091096"><ele>0.0</ele><time>2026-05-02T08:11:11.999Z</time></trkpt><trkpt lat="43.936879796200046" lon="10.217847718386366"><ele>0.0</ele><time>2026-05-02T08:11:12.999Z</time></trkpt><trkpt lat="43.93720758278311" lon="10.217613695438766"><ele>0.0</ele><time>2026-05-02T08:11:13.999Z</time></trkpt><trkpt lat="43.9375382012164" lon="10.217378360890839"><ele>0.5</ele><time>2026-05-02T08:11:14.999Z</time></trkpt><trkpt lat="43.937882438482426" lon="10.217139009387454"><ele>1.0</ele><time>2026-05-02T08:11:15.999Z</time></trkpt><trkpt lat="43.93823225037363" lon="10.216893101565162"><ele>0.5</ele><time>2026-05-02T08:11:16.999Z</time></trkpt><trkpt lat="43.93859883226322" lon="10.216632745792168"><ele>0.0</ele><time>2026-05-02T08:11:17.999Z</time></trkpt><trkpt lat="43.938973746355614" lon="10.216365166853123"><ele>1.0</ele><time>2026-05-02T08:11:18.999Z</time></trkpt><trkpt lat="43.93934592341989" lon="10.216103316897394"><ele>2.0</ele><time>2026-05-02T08:11:19.999Z</time></trkpt><trkpt lat="43.93972625778622" lon="10.215838879869827"><ele>1.5</ele><time>2026-05-02T08:11:20.999Z</time></trkpt><trkpt lat="43.94008987405271" lon="10.215580962800233"><ele>1.0</ele><time>2026-05-02T08:11:21.999Z</time></trkpt><trkpt lat="43.94044592841652" lon="10.215343041025335"><ele>1.0</ele><time>2026-05-02T08:11:22.999Z</time></trkpt><trkpt lat="43.940793021156935" lon="10.215108453990434"><ele>1.0</ele><time>2026-05-02T08:11:23.999Z</time></trkpt><trkpt lat="43.94115599882497" lon="10.214857246469553"><ele>2.0</ele><time>2026-05-02T08:11:24.999Z</time></trkpt><trkpt lat="43.94151923528275" lon="10.214604505198556"><ele>3.0</ele><time>2026-05-02T08:11:25.999Z</time></trkpt><trkpt lat="43.94188091635842" lon="10.214350495336065"><ele>3.5</ele><time>2026-05-02T08:11:26.999Z</time></trkpt><trkpt lat="43.942243869986925" lon="10.214095155577702"><ele>4.0</ele><time>2026-05-02T08:11:27.999Z</time></trkpt><trkpt lat="43.94260275487836" lon="10.213841780744282"><ele>4.5</ele><time>2026-05-02T08:11:28.999Z</time></trkpt><trkpt lat="43.9429622736801" lon="10.213589379066114"><ele>5.0</ele><time>2026-05-02T08:11:29.999Z</time></trkpt><trkpt lat="43.943320939233594" lon="10.213339329057138"><ele>3.0</ele><time>2026-05-02T08:11:30.999Z</time></trkpt><trkpt lat="43.943677774059005" lon="10.213092239931608"><ele>1.0</ele><time>2026-05-02T08:11:31.999Z</time></trkpt><trkpt lat="43.94403129985786" lon="10.212843315206984"><ele>2.0</ele><time>2026-05-02T08:11:32.999Z</time></trkpt><trkpt lat="43.94437867645657" lon="10.212589141817901"><ele>3.0</ele><time>2026-05-02T08:11:33.999Z</time></trkpt><trkpt lat="43.944719146166165" lon="10.212328563704897"><ele>4.0</ele><time>2026-05-02T08:11:34.999Z</time></trkpt><trkpt lat="43.94505904130197" lon="10.212052125654479"><ele>5.0</ele><time>2026-05-02T08:11:35.999Z</time></trkpt><trkpt lat="43.945397158748065" lon="10.211765645286347"><ele>5.0</ele><time>2026-05-02T08:11:36.999Z</time></trkpt><trkpt lat="43.94573446912906" lon="10.211468119626511"><ele>5.0</ele><time>2026-05-02T08:11:37.999Z</time></trkpt><trkpt lat="43.9460680152033" lon="10.211159954012777"><ele>5.0</ele><time>2026-05-02T08:11:38.999Z</time></trkpt><trkpt lat="43.946395623262994" lon="10.21084042714372"><ele>5.0</ele><time>2026-05-02T08:11:39.999Z</time></trkpt><trkpt lat="43.946718946044896" lon="10.210513966148312"><ele>5.0</ele><time>2026-05-02T08:11:40.999Z</time></trkpt><trkpt lat="43.94703366390791" lon="10.210177315875377"><ele>5.0</ele><time>2026-05-02T08:11:41.999Z</time></trkpt><trkpt lat="43.94734208500578" lon="10.209830551143723"><ele>4.5</ele><time>2026-05-02T08:11:42.999Z</time></trkpt><trkpt lat="43.947641238214025" lon="10.209486827873507"><ele>4.0</ele><time>2026-05-02T08:11:43.999Z</time></trkpt><trkpt lat="43.9479408158384" lon="10.209151045639972"><ele>4.0</ele><time>2026-05-02T08:11:44.999Z</time></trkpt><trkpt lat="43.94822364911916" lon="10.208833594053516"><ele>4.0</ele><time>2026-05-02T08:11:45.999Z</time></trkpt><trkpt lat="43.94848596156263" lon="10.208530470298577"><ele>3.5</ele><time>2026-05-02T08:11:46.999Z</time></trkpt><trkpt lat="43.94873555013057" lon="10.208226415157045"><ele>3.0</ele><time>2026-05-02T08:11:47.999Z</time></trkpt><trkpt lat="43.94897524832683" lon="10.207927335863316"><ele>3.0</ele><time>2026-05-02T08:11:48.999Z</time></trkpt><trkpt lat="43.949191475365026" lon="10.20774157852984"><ele>3.0</ele><time>2026-05-02T08:11:49.999Z</time></trkpt><trkpt lat="43.949427799328674" lon="10.207490881451957"><ele>2.5</ele><time>2026-05-02T08:11:50.999Z</time></trkpt><trkpt lat="43.94966596312108" lon="10.207221438767005"><ele>2.0</ele><time>2026-05-02T08:11:51.999Z</time></trkpt><trkpt lat="43.94990601412241" lon="10.206951400097694"><ele>2.0</ele><time>2026-05-02T08:11:52.999Z</time></trkpt><trkpt lat="43.950146683715666" lon="10.206681559946448"><ele>2.0</ele><time>2026-05-02T08:11:53.999Z</time></trkpt><trkpt lat="43.950393592773736" lon="10.206409621747119"><ele>2.0</ele><time>2026-05-02T08:11:54.999Z</time></trkpt><trkpt lat="43.95063841742482" lon="10.206135251578667"><ele>2.0</ele><time>2026-05-02T08:11:55.999Z</time></trkpt><trkpt lat="43.950882827542664" lon="10.205860917028522"><ele>2.0</ele><time>2026-05-02T08:11:56.999Z</time></trkpt><trkpt lat="43.951129708058666" lon="10.205586018705787"><ele>2.0</ele><time>2026-05-02T08:11:57.999Z</time></trkpt><trkpt lat="43.951376952755375" lon="10.205308010784753"><ele>2.0</ele><time>2026-05-02T08:11:58.999Z</time></trkpt><trkpt lat="43.95165116707376" lon="10.205008279850624"><ele>2.0</ele><time>2026-05-02T08:11:59.999Z</time></trkpt><trkpt lat="43.95193492498219" lon="10.20469303594785"><ele>3.0</ele><time>2026-05-02T08:12:00.999Z</time></trkpt><trkpt lat="43.95222701816499" lon="10.20436343839612"><ele>4.0</ele><time>2026-05-02T08:12:01.999Z</time></trkpt><trkpt lat="43.952505905627454" lon="10.204041248045264"><ele>3.0</ele><time>2026-05-02T08:12:02.999Z</time></trkpt><trkpt lat="43.95277544374407" lon="10.203737682124517"><ele>2.0</ele><time>2026-05-02T08:12:03.999Z</time></trkpt><trkpt lat="43.9530295192063" lon="10.20344324680442"><ele>2.0</ele><time>2026-05-02T08:12:04.999Z</time></trkpt><trkpt lat="43.95328125328908" lon="10.203168881151399"><ele>2.0</ele><time>2026-05-02T08:12:05.999Z</time></trkpt><trkpt lat="43.95352791130445" lon="10.202902010122529"><ele>2.5</ele><time>2026-05-02T08:12:06.999Z</time></trkpt><trkpt lat="43.95376738842379" lon="10.202636598575078"><ele>3.0</ele><time>2026-05-02T08:12:07.999Z</time></trkpt><trkpt lat="43.95400379483731" lon="10.202370235425342"><ele>2.0</ele><time>2026-05-02T08:12:08.999Z</time></trkpt><trkpt lat="43.954234798574554" lon="10.202110726226845"><ele>1.0</ele><time>2026-05-02T08:12:09.999Z</time></trkpt><trkpt lat="43.95445881253302" lon="10.20186238895797"><ele>1.0</ele><time>2026-05-02T08:12:10.999Z</time></trkpt><trkpt lat="43.954682405120394" lon="10.201611816643652"><ele>1.0</ele><time>2026-05-02T08:12:11.999Z</time></trkpt><trkpt lat="43.954902061483345" lon="10.201366686676428"><ele>2.0</ele><time>2026-05-02T08:12:12.999Z</time></trkpt><trkpt lat="43.95512016398614" lon="10.201123342154393"><ele>3.0</ele><time>2026-05-02T08:12:13.999Z</time></trkpt><trkpt lat="43.955329316857835" lon="10.200886887127378"><ele>3.5</ele><time>2026-05-02T08:12:14.999Z</time></trkpt><trkpt lat="43.955540257707824" lon="10.200650489601811"><ele>4.0</ele><time>2026-05-02T08:12:15.999Z</time></trkpt><trkpt lat="43.95575624445226" lon="10.200409942468152"><ele>3.0</ele><time>2026-05-02T08:12:16.999Z</time></trkpt><trkpt lat="43.95597001097721" lon="10.200169982440793"><ele>2.0</ele><time>2026-05-02T08:12:17.998Z</time></trkpt><trkpt lat="43.95618483558968" lon="10.199929131454391"><ele>2.5</ele><time>2026-05-02T08:12:18.998Z</time></trkpt><trkpt lat="43.95640003653825" lon="10.199687454733779"><ele>3.0</ele><time>2026-05-02T08:12:19.998Z</time></trkpt><trkpt lat="43.956618187228564" lon="10.199443674540849"><ele>2.5</ele><time>2026-05-02T08:12:20.998Z</time></trkpt><trkpt lat="43.956839597938206" lon="10.199196014493467"><ele>2.0</ele><time>2026-05-02T08:12:21.998Z</time></trkpt><trkpt lat="43.957060852334344" lon="10.198946531964962"><ele>1.0</ele><time>2026-05-02T08:12:22.998Z</time></trkpt><trkpt lat="43.957280629066155" lon="10.198700966102814"><ele>0.0</ele><time>2026-05-02T08:12:23.998Z</time></trkpt><trkpt lat="43.95749641389812" lon="10.198460263997507"><ele>1.5</ele><time>2026-05-02T08:12:24.998Z</time></trkpt><trkpt lat="43.957707897127" lon="10.198223480393109"><ele>3.0</ele><time>2026-05-02T08:12:25.998Z</time></trkpt><trkpt lat="43.95791851136085" lon="10.197989438900942"><ele>3.0</ele><time>2026-05-02T08:12:26.998Z</time></trkpt><trkpt lat="43.958132260083325" lon="10.197752509577095"><ele>3.0</ele><time>2026-05-02T08:12:27.998Z</time></trkpt><trkpt lat="43.9583550546156" lon="10.197505112585485"><ele>3.5</ele><time>2026-05-02T08:12:28.998Z</time></trkpt><trkpt lat="43.95858461728434" lon="10.197249750282019"><ele>4.0</ele><time>2026-05-02T08:12:29.998Z</time></trkpt><trkpt lat="43.95881430911017" lon="10.19699263385512"><ele>4.0</ele><time>2026-05-02T08:12:30.998Z</time></trkpt><trkpt lat="43.959042032259916" lon="10.196738835732862"><ele>4.0</ele><time>2026-05-02T08:12:31.998Z</time></trkpt><trkpt lat="43.95926212547134" lon="10.196492022320022"><ele>3.5</ele><time>2026-05-02T08:12:32.998Z</time></trkpt><trkpt lat="43.95946762049055" lon="10.196258721435468"><ele>3.0</ele><time>2026-05-02T08:12:34Z</time></trkpt><trkpt lat="43.95968039379231" lon="10.196024076043665"><ele>3.0</ele><time>2026-05-02T08:12:35Z</time></trkpt><trkpt lat="43.95989260083246" lon="10.195786873554312"><ele>3.0</ele><time>2026-05-02T08:12:36Z</time></trkpt><trkpt lat="43.96010673415172" lon="10.195548994320545"><ele>2.5</ele><time>2026-05-02T08:12:37Z</time></trkpt><trkpt lat="43.960325990131125" lon="10.195301892613747"><ele>2.0</ele><time>2026-05-02T08:12:38Z</time></trkpt><trkpt lat="43.96055531894739" lon="10.195046884619375"><ele>2.0</ele><time>2026-05-02T08:12:39Z</time></trkpt><trkpt lat="43.9607877520222" lon="10.194786867753747"><ele>2.0</ele><time>2026-05-02T08:12:40Z</time></trkpt><trkpt lat="43.961023296880114" lon="10.19452657735014"><ele>2.0</ele><time>2026-05-02T08:12:41Z</time></trkpt><trkpt lat="43.9612537797671" lon="10.194268551443576"><ele>2.0</ele><time>2026-05-02T08:12:42Z</time></trkpt><trkpt lat="43.96148810562967" lon="10.194009528106681"><ele>2.0</ele><time>2026-05-02T08:12:43Z</time></trkpt><trkpt lat="43.96172093932078" lon="10.193747775653769"><ele>2.0</ele><time>2026-05-02T08:12:44Z</time></trkpt><trkpt lat="43.9619569151563" lon="10.193479987426057"><ele>2.0</ele><time>2026-05-02T08:12:45Z</time></trkpt><trkpt lat="43.96220266944287" lon="10.19320711038028"><ele>2.0</ele><time>2026-05-02T08:12:46Z</time></trkpt><trkpt lat="43.96245510105232" lon="10.192926663410717"><ele>2.0</ele><time>2026-05-02T08:12:47Z</time></trkpt><trkpt lat="43.96271106851739" lon="10.192640592759668"><ele>2.0</ele><time>2026-05-02T08:12:48Z</time></trkpt><trkpt lat="43.96296959525127" lon="10.192349548176507"><ele>2.5</ele><time>2026-05-02T08:12:49Z</time></trkpt><trkpt lat="43.96323312848041" lon="10.19205187247821"><ele>3.0</ele><time>2026-05-02T08:12:50Z</time></trkpt><trkpt lat="43.963501892674095" lon="10.191750601170705"><ele>2.5</ele><time>2026-05-02T08:12:51Z</time></trkpt><trkpt lat="43.96377374801679" lon="10.191444803624123"><ele>2.0</ele><time>2026-05-02T08:12:52Z</time></trkpt><trkpt lat="43.96404848680161" lon="10.191136264798935"><ele>2.0</ele><time>2026-05-02T08:12:53Z</time></trkpt><trkpt lat="43.96431845163471" lon="10.190834199124177"><ele>2.0</ele><time>2026-05-02T08:12:54Z</time></trkpt><trkpt lat="43.96458412702095" lon="10.190536260268958"><ele>1.5</ele><time>2026-05-02T08:12:55Z</time></trkpt><trkpt lat="43.96485919064313" lon="10.190234193524338"><ele>1.0</ele><time>2026-05-02T08:12:56Z</time></trkpt><trkpt lat="43.965135278622725" lon="10.189928589292808"><ele>1.0</ele><time>2026-05-02T08:12:57Z</time></trkpt><trkpt lat="43.965408794140934" lon="10.189622770145457"><ele>1.0</ele><time>2026-05-02T08:12:58Z</time></trkpt><trkpt lat="43.965684135838494" lon="10.189314867614438"><ele>2.0</ele><time>2026-05-02T08:12:59Z</time></trkpt><trkpt lat="43.96596113225653" lon="10.189006545291674"><ele>3.0</ele><time>2026-05-02T08:13:00Z</time></trkpt><trkpt lat="43.966239510678946" lon="10.188694349644782"><ele>3.0</ele><time>2026-05-02T08:13:01Z</time></trkpt><trkpt lat="43.96653243431982" lon="10.188368535964406"><ele>3.0</ele><time>2026-05-02T08:13:02Z</time></trkpt><trkpt lat="43.96683764878748" lon="10.188032283037197"><ele>3.5</ele><time>2026-05-02T08:13:03Z</time></trkpt><trkpt lat="43.96715567550555" lon="10.187677092969441"><ele>4.0</ele><time>2026-05-02T08:13:04Z</time></trkpt><trkpt lat="43.96746366535025" lon="10.18732965079938"><ele>5.0</ele><time>2026-05-02T08:13:05Z</time></trkpt><trkpt lat="43.9677494919354" lon="10.18700026162218"><ele>6.0</ele><time>2026-05-02T08:13:06Z</time></trkpt><trkpt lat="43.968017615572265" lon="10.18668786909674"><ele>6.0</ele><time>2026-05-02T08:13:07Z</time></trkpt><trkpt lat="43.96827574727706" lon="10.186374736075749"><ele>6.0</ele><time>2026-05-02T08:13:08Z</time></trkpt><trkpt lat="43.9685304665729" lon="10.18605548226885"><ele>5.5</ele><time>2026-05-02T08:13:09Z</time></trkpt><trkpt lat="43.96876861527407" lon="10.18574433024799"><ele>5.0</ele><time>2026-05-02T08:13:09.999Z</time></trkpt><trkpt lat="43.96899613894745" lon="10.185430715814388"><ele>5.5</ele><time>2026-05-02T08:13:10.999Z</time></trkpt><trkpt lat="43.96922795178161" lon="10.185100264212013"><ele>6.0</ele><time>2026-05-02T08:13:11.999Z</time></trkpt><trkpt lat="43.96946293618789" lon="10.184749562988763"><ele>6.0</ele><time>2026-05-02T08:13:12.999Z</time></trkpt><trkpt lat="43.96969239268858" lon="10.184397314087743"><ele>6.0</ele><time>2026-05-02T08:13:13.999Z</time></trkpt><trkpt lat="43.96992446333853" lon="10.184030963988214"><ele>7.0</ele><time>2026-05-02T08:13:14.999Z</time></trkpt><trkpt lat="43.97015649978309" lon="10.18364897792591"><ele>8.0</ele><time>2026-05-02T08:13:15.999Z</time></trkpt><trkpt lat="43.97038484001352" lon="10.183257772746607"><ele>7.0</ele><time>2026-05-02T08:13:16.999Z</time></trkpt><trkpt lat="43.97061494601266" lon="10.18284694915141"><ele>6.0</ele><time>2026-05-02T08:13:17.999Z</time></trkpt><trkpt lat="43.9708542292443" lon="10.182422864479419"><ele>5.0</ele><time>2026-05-02T08:13:18.999Z</time></trkpt><trkpt lat="43.97109291653799" lon="10.181986785500591"><ele>4.0</ele><time>2026-05-02T08:13:19.999Z</time></trkpt><trkpt lat="43.97134691619064" lon="10.181543745210242"><ele>3.5</ele><time>2026-05-02T08:13:20.999Z</time></trkpt><trkpt lat="43.971598560423395" lon="10.181111729028368"><ele>3.0</ele><time>2026-05-02T08:13:21.999Z</time></trkpt><trkpt lat="43.97184824933279" lon="10.18066952436107"><ele>3.0</ele><time>2026-05-02T08:13:22.999Z</time></trkpt><trkpt lat="43.97210001994557" lon="10.180224184357293"><ele>3.0</ele><time>2026-05-02T08:13:23.999Z</time></trkpt><trkpt lat="43.972348477332574" lon="10.179789551606254"><ele>3.5</ele><time>2026-05-02T08:13:24.999Z</time></trkpt><trkpt lat="43.97259386105967" lon="10.179356525776795"><ele>4.0</ele><time>2026-05-02T08:13:25.999Z</time></trkpt><trkpt lat="43.97284683915712" lon="10.17891457817983"><ele>4.0</ele><time>2026-05-02T08:13:26.999Z</time></trkpt><trkpt lat="43.97310496663068" lon="10.17845893300754"><ele>4.0</ele><time>2026-05-02T08:13:27.999Z</time></trkpt><trkpt lat="43.97336833765679" lon="10.177999813103469"><ele>3.5</ele><time>2026-05-02T08:13:28.999Z</time></trkpt><trkpt lat="43.973633299958124" lon="10.177538773877998"><ele>3.0</ele><time>2026-05-02T08:13:29.999Z</time></trkpt><trkpt lat="43.973903448659044" lon="10.177067998972877"><ele>2.5</ele><time>2026-05-02T08:13:30.999Z</time></trkpt><trkpt lat="43.974181150980634" lon="10.176586853643247"><ele>2.0</ele><time>2026-05-02T08:13:31.999Z</time></trkpt><trkpt lat="43.97447152535982" lon="10.176096890491888"><ele>0.0</ele><time>2026-05-02T08:13:32.999Z</time></trkpt><trkpt lat="43.974773294536924" lon="10.175606140101015"><ele>2.0</ele><time>2026-05-02T08:13:33.999Z</time></trkpt><trkpt lat="43.97508458613782" lon="10.17511084272875"><ele>3.0</ele><time>2026-05-02T08:13:34.999Z</time></trkpt><trkpt lat="43.97540361584027" lon="10.17461636328096"><ele>3.0</ele><time>2026-05-02T08:13:35.999Z</time></trkpt><trkpt lat="43.97571751324061" lon="10.174134206448969"><ele>1.0</ele><time>2026-05-02T08:13:36.999Z</time></trkpt><trkpt lat="43.976033233321" lon="10.173653460072321"><ele>3.0</ele><time>2026-05-02T08:13:37.999Z</time></trkpt><trkpt lat="43.976349374166055" lon="10.173176139999049"><ele>3.0</ele><time>2026-05-02T08:13:38.999Z</time></trkpt><trkpt lat="43.97666559086501" lon="10.172708623977698"><ele>2.0</ele><time>2026-05-02T08:13:39.999Z</time></trkpt><trkpt lat="43.97697870137366" lon="10.172252296450715"><ele>2.0</ele><time>2026-05-02T08:13:40.999Z</time></trkpt><trkpt lat="43.977278464142145" lon="10.171815316320497"><ele>2.0</ele><time>2026-05-02T08:13:41.999Z</time></trkpt><trkpt lat="43.97756800104592" lon="10.171393767647254"><ele>2.0</ele><time>2026-05-02T08:13:42.999Z</time></trkpt><trkpt lat="43.97783563230947" lon="10.171006823963229"><ele>2.0</ele><time>2026-05-02T08:13:43.999Z</time></trkpt><trkpt lat="43.97809702658372" lon="10.170631025487507"><ele>3.0</ele><time>2026-05-02T08:13:44.999Z</time></trkpt><trkpt lat="43.97835531961258" lon="10.170260275697398"><ele>4.0</ele><time>2026-05-02T08:13:45.999Z</time></trkpt><trkpt lat="43.97859091304516" lon="10.169915691945414"><ele>3.5</ele><time>2026-05-02T08:13:46.999Z</time></trkpt><trkpt lat="43.978816402771656" lon="10.169594646082123"><ele>3.0</ele><time>2026-05-02T08:13:47.999Z</time></trkpt><trkpt lat="43.97903691353947" lon="10.169275692189194"><ele>2.5</ele><time>2026-05-02T08:13:48.999Z</time></trkpt><trkpt lat="43.97925515997631" lon="10.16895947739527"><ele>2.0</ele><time>2026-05-02T08:13:49.999Z</time></trkpt><trkpt lat="43.97954288532866" lon="10.168561661676359"><ele>2.0</ele><time>2026-05-02T08:13:50.999Z</time></trkpt><trkpt lat="43.97980376404779" lon="10.168181000274949"><ele>2.0</ele><time>2026-05-02T08:13:51.999Z</time></trkpt><trkpt lat="43.9800721453954" lon="10.167796312660734"><ele>2.5</ele><time>2026-05-02T08:13:52.999Z</time></trkpt><trkpt lat="43.98034633505398" lon="10.1674012159194"><ele>3.0</ele><time>2026-05-02T08:13:53.999Z</time></trkpt><trkpt lat="43.98062312387259" lon="10.167006070740685"><ele>3.5</ele><time>2026-05-02T08:13:54.999Z</time></trkpt><trkpt lat="43.98090324999389" lon="10.166597958562077"><ele>4.0</ele><time>2026-05-02T08:13:55.999Z</time></trkpt><trkpt lat="43.981186911555916" lon="10.166192476265541"><ele>4.0</ele><time>2026-05-02T08:13:56.999Z</time></trkpt><trkpt lat="43.98147185660425" lon="10.165780048513664"><ele>4.0</ele><time>2026-05-02T08:13:57.999Z</time></trkpt><trkpt lat="43.981758958200736" lon="10.165364266819855"><ele>3.5</ele><time>2026-05-02T08:13:58.999Z</time></trkpt><trkpt lat="43.982048862099425" lon="10.164943183104015"><ele>3.0</ele><time>2026-05-02T08:13:59.999Z</time></trkpt><trkpt lat="43.98233958837423" lon="10.164522734208688"><ele>2.5</ele><time>2026-05-02T08:14:00.999Z</time></trkpt><trkpt lat="43.9826276995796" lon="10.16409761469158"><ele>2.0</ele><time>2026-05-02T08:14:01.999Z</time></trkpt><trkpt lat="43.98292130637704" lon="10.163673653029228"><ele>2.0</ele><time>2026-05-02T08:14:02.999Z</time></trkpt><trkpt lat="43.983217980755455" lon="10.163243579473125"><ele>2.0</ele><time>2026-05-02T08:14:03.999Z</time></trkpt><trkpt lat="43.98351709414185" lon="10.162812497807963"><ele>2.0</ele><time>2026-05-02T08:14:04.999Z</time></trkpt><trkpt lat="43.983816709947796" lon="10.162380347532194"><ele>2.0</ele><time>2026-05-02T08:14:05.999Z</time></trkpt><trkpt lat="43.98411649251837" lon="10.161949697767412"><ele>1.0</ele><time>2026-05-02T08:14:06.999Z</time></trkpt><trkpt lat="43.98441869034593" lon="10.161520254305243"><ele>0.0</ele><time>2026-05-02T08:14:07.999Z</time></trkpt><trkpt lat="43.98471896142847" lon="10.161092824098303"><ele>0.0</ele><time>2026-05-02T08:14:08.999Z</time></trkpt><trkpt lat="43.98501389143468" lon="10.160662262253581"><ele>0.0</ele><time>2026-05-02T08:14:09.999Z</time></trkpt><trkpt lat="43.98531408791768" lon="10.160234272530067"><ele>0.5</ele><time>2026-05-02T08:14:10.999Z</time></trkpt><trkpt lat="43.98561497810941" lon="10.159803278870434"><ele>1.0</ele><time>2026-05-02T08:14:11.999Z</time></trkpt><trkpt lat="43.98591435793524" lon="10.159373372991812"><ele>1.0</ele><time>2026-05-02T08:14:12.999Z</time></trkpt><trkpt lat="43.98621000800467" lon="10.15894538112518"><ele>1.0</ele><time>2026-05-02T08:14:13.999Z</time></trkpt><trkpt lat="43.986506935961174" lon="10.158514812683773"><ele>0.5</ele><time>2026-05-02T08:14:14.999Z</time></trkpt><trkpt lat="43.98680381839172" lon="10.158086088587972"><ele>0.0</ele><time>2026-05-02T08:14:15.999Z</time></trkpt><trkpt lat="43.987100482593085" lon="10.15765458143843"><ele>0.5</ele><time>2026-05-02T08:14:16.999Z</time></trkpt><trkpt lat="43.987397017455265" lon="10.157221358053725"><ele>1.0</ele><time>2026-05-02T08:14:17.999Z</time></trkpt><trkpt lat="43.98769638557372" lon="10.156790035085228"><ele>1.0</ele><time>2026-05-02T08:14:18.999Z</time></trkpt><trkpt lat="43.98799484315193" lon="10.156360331727322"><ele>1.0</ele><time>2026-05-02T08:14:19.999Z</time></trkpt><trkpt lat="43.98829180688762" lon="10.155932605055396"><ele>1.0</ele><time>2026-05-02T08:14:20.999Z</time></trkpt><trkpt lat="43.9885871219095" lon="10.155503725412258"><ele>1.0</ele><time>2026-05-02T08:14:21.999Z</time></trkpt><trkpt lat="43.9888843264652" lon="10.155077592520128"><ele>1.5</ele><time>2026-05-02T08:14:22.999Z</time></trkpt><trkpt lat="43.989179130742734" lon="10.154652251025288"><ele>2.0</ele><time>2026-05-02T08:14:23.999Z</time></trkpt><trkpt lat="43.98947361241458" lon="10.154224024108007"><ele>2.0</ele><time>2026-05-02T08:14:24.999Z</time></trkpt><trkpt lat="43.98977011778828" lon="10.153796025157547"><ele>2.0</ele><time>2026-05-02T08:14:25.999Z</time></trkpt><trkpt lat="43.99006229993582" lon="10.15337360416276"><ele>3.0</ele><time>2026-05-02T08:14:26.999Z</time></trkpt><trkpt lat="43.99035755015733" lon="10.152960042255826"><ele>4.0</ele><time>2026-05-02T08:14:27.999Z</time></trkpt><trkpt lat="43.990658349356245" lon="10.152555738572419"><ele>4.0</ele><time>2026-05-02T08:14:28.998Z</time></trkpt><trkpt lat="43.99096488988217" lon="10.152162902060272"><ele>4.0</ele><time>2026-05-02T08:14:29.998Z</time></trkpt><trkpt lat="43.991283317463115" lon="10.15178376545021"><ele>4.0</ele><time>2026-05-02T08:14:30.998Z</time></trkpt><trkpt lat="43.99160511743623" lon="10.151420966861249"><ele>4.0</ele><time>2026-05-02T08:14:31.998Z</time></trkpt><trkpt lat="43.991940559121744" lon="10.151067603970283"><ele>4.0</ele><time>2026-05-02T08:14:32.998Z</time></trkpt><trkpt lat="43.992285351873264" lon="10.150724199846742"><ele>4.0</ele><time>2026-05-02T08:14:33.998Z</time></trkpt><trkpt lat="43.99263429597153" lon="10.150397954330897"><ele>4.0</ele><time>2026-05-02T08:14:34.998Z</time></trkpt><trkpt lat="43.99298998385143" lon="10.150084837188167"><ele>4.0</ele><time>2026-05-02T08:14:35.998Z</time></trkpt><trkpt lat="43.99334785344193" lon="10.149794347693517"><ele>4.5</ele><time>2026-05-02T08:14:36.998Z</time></trkpt><trkpt lat="43.993712235433385" lon="10.149518162076692"><ele>5.0</ele><time>2026-05-02T08:14:37.998Z</time></trkpt><trkpt lat="43.99407637640199" lon="10.149262771615335"><ele>4.5</ele><time>2026-05-02T08:14:38.998Z</time></trkpt><trkpt lat="43.994446169802906" lon="10.149017018707742"><ele>4.0</ele><time>2026-05-02T08:14:40Z</time></trkpt><trkpt lat="43.99481703907093" lon="10.148779029827493"><ele>4.0</ele><time>2026-05-02T08:14:41Z</time></trkpt><trkpt lat="43.995189388598305" lon="10.148537301694132"><ele>4.0</ele><time>2026-05-02T08:14:42Z</time></trkpt><trkpt lat="43.995566156337865" lon="10.14829511876602"><ele>3.5</ele><time>2026-05-02T08:14:43Z</time></trkpt><trkpt lat="43.995944523698626" lon="10.148050622950581"><ele>3.0</ele><time>2026-05-02T08:14:44Z</time></trkpt><trkpt lat="43.996326935780914" lon="10.147805543954895"><ele>3.5</ele><time>2026-05-02T08:14:45Z</time></trkpt><trkpt lat="43.99671011699577" lon="10.147558242540644"><ele>4.0</ele><time>2026-05-02T08:14:46Z</time></trkpt><trkpt lat="43.997092424320826" lon="10.147314298977271"><ele>4.0</ele><time>2026-05-02T08:14:47Z</time></trkpt><trkpt lat="43.99747440993798" lon="10.147069955854318"><ele>4.0</ele><time>2026-05-02T08:14:48Z</time></trkpt><trkpt lat="43.99785387506843" lon="10.146825511280296"><ele>3.5</ele><time>2026-05-02T08:14:49Z</time></trkpt><trkpt lat="43.99823696628858" lon="10.146578832508274"><ele>3.0</ele><time>2026-05-02T08:14:50Z</time></trkpt><trkpt lat="43.99861793782912" lon="10.14632870324422"><ele>3.0</ele><time>2026-05-02T08:14:51Z</time></trkpt><trkpt lat="43.99899779410498" lon="10.146068374814522"><ele>3.0</ele><time>2026-05-02T08:14:52Z</time></trkpt><trkpt lat="43.99936875959088" lon="10.145788453925821"><ele>3.0</ele><time>2026-05-02T08:14:53Z</time></trkpt><trkpt lat="43.99973140471546" lon="10.14548725351583"><ele>3.0</ele><time>2026-05-02T08:14:54Z</time></trkpt><trkpt lat="44.00008835848743" lon="10.145169830536165"><ele>2.5</ele><time>2026-05-02T08:14:55Z</time></trkpt><trkpt lat="44.00043356898066" lon="10.144839917425093"><ele>2.0</ele><time>2026-05-02T08:14:56Z</time></trkpt><trkpt lat="44.00077124092447" lon="10.144491216217382"><ele>2.0</ele><time>2026-05-02T08:14:57Z</time></trkpt><trkpt lat="44.00109786371604" lon="10.144135204846977"><ele>2.0</ele><time>2026-05-02T08:14:58Z</time></trkpt><trkpt lat="44.001416896520524" lon="10.143763019447293"><ele>2.5</ele><time>2026-05-02T08:14:59Z</time></trkpt><trkpt lat="44.00172596814646" lon="10.143377753614681"><ele>3.0</ele><time>2026-05-02T08:15:00Z</time></trkpt><trkpt lat="44.00202436677629" lon="10.1429839877667"><ele>2.5</ele><time>2026-05-02T08:15:01Z</time></trkpt><trkpt lat="44.00231637557021" lon="10.142579699646335"><ele>2.0</ele><time>2026-05-02T08:15:02Z</time></trkpt><trkpt lat="44.00260239058988" lon="10.142164347675907"><ele>2.0</ele><time>2026-05-02T08:15:03Z</time></trkpt><trkpt lat="44.002887716970484" lon="10.141746283627658"><ele>2.0</ele><time>2026-05-02T08:15:04Z</time></trkpt><trkpt lat="44.00317465551253" lon="10.14132890016706"><ele>2.5</ele><time>2026-05-02T08:15:05Z</time></trkpt><trkpt lat="44.003462105465324" lon="10.14091397467413"><ele>3.0</ele><time>2026-05-02T08:15:06Z</time></trkpt><trkpt lat="44.00375136977041" lon="10.140495943757655"><ele>3.0</ele><time>2026-05-02T08:15:07Z</time></trkpt><trkpt lat="44.004040065750175" lon="10.140079583873634"><ele>3.0</ele><time>2026-05-02T08:15:08Z</time></trkpt><trkpt lat="44.00432947174903" lon="10.13966437400204"><ele>2.0</ele><time>2026-05-02T08:15:09Z</time></trkpt><trkpt lat="44.00461670029445" lon="10.13924748261907"><ele>1.0</ele><time>2026-05-02T08:15:10Z</time></trkpt><trkpt lat="44.00490462650957" lon="10.138830216262425"><ele>2.0</ele><time>2026-05-02T08:15:11Z</time></trkpt><trkpt lat="44.005194156957344" lon="10.138408348284871"><ele>3.0</ele><time>2026-05-02T08:15:12Z</time></trkpt><trkpt lat="44.00548118090367" lon="10.137986667343782"><ele>3.0</ele><time>2026-05-02T08:15:13Z</time></trkpt><trkpt lat="44.00576881177153" lon="10.137567437546634"><ele>3.0</ele><time>2026-05-02T08:15:14Z</time></trkpt><trkpt lat="44.00605912731162" lon="10.137145769252163"><ele>3.0</ele><time>2026-05-02T08:15:15Z</time></trkpt><trkpt lat="44.00634943313216" lon="10.13672522649843"><ele>3.0</ele><time>2026-05-02T08:15:16Z</time></trkpt><trkpt lat="44.006642492679255" lon="10.136301527671321"><ele>2.5</ele><time>2026-05-02T08:15:17Z</time></trkpt><trkpt lat="44.006933588246255" lon="10.13588171362632"><ele>2.0</ele><time>2026-05-02T08:15:18Z</time></trkpt><trkpt lat="44.007223890474876" lon="10.135468263712417"><ele>2.5</ele><time>2026-05-02T08:15:19Z</time></trkpt><trkpt lat="44.00751135149923" lon="10.135057639305899"><ele>3.0</ele><time>2026-05-02T08:15:19.999Z</time></trkpt><trkpt lat="44.00779290538613" lon="10.134650145302855"><ele>3.0</ele><time>2026-05-02T08:15:20.999Z</time></trkpt><trkpt lat="44.00807501165046" lon="10.134242161719209"><ele>3.0</ele><time>2026-05-02T08:15:21.999Z</time></trkpt><trkpt lat="44.00835528828869" lon="10.133835662061603"><ele>2.5</ele><time>2026-05-02T08:15:22.999Z</time></trkpt><trkpt lat="44.00863413786978" lon="10.133428687761343"><ele>2.0</ele><time>2026-05-02T08:15:23.999Z</time></trkpt><trkpt lat="44.00891268939911" lon="10.13302472551324"><ele>2.0</ele><time>2026-05-02T08:15:24.999Z</time></trkpt><trkpt lat="44.00919423473428" lon="10.132616162071033"><ele>2.0</ele><time>2026-05-02T08:15:25.999Z</time></trkpt><trkpt lat="44.00948131249123" lon="10.13220050733715"><ele>2.0</ele><time>2026-05-02T08:15:26.999Z</time></trkpt><trkpt lat="44.00977075275543" lon="10.131782754111697"><ele>2.0</ele><time>2026-05-02T08:15:27.999Z</time></trkpt><trkpt lat="44.0100614017584" lon="10.131360389420829"><ele>2.5</ele><time>2026-05-02T08:15:28.999Z</time></trkpt><trkpt lat="44.010350514824204" lon="10.130942056541395"><ele>3.0</ele><time>2026-05-02T08:15:29.999Z</time></trkpt><trkpt lat="44.01063694056015" lon="10.130526867416972"><ele>3.5</ele><time>2026-05-02T08:15:30.999Z</time></trkpt><trkpt lat="44.01091946477211" lon="10.130118539920241"><ele>4.0</ele><time>2026-05-02T08:15:31.999Z</time></trkpt><trkpt lat="44.01120071382617" lon="10.129713407479228"><ele>4.0</ele><time>2026-05-02T08:15:32.999Z</time></trkpt><trkpt lat="44.01147950638154" lon="10.129307814822768"><ele>4.0</ele><time>2026-05-02T08:15:33.999Z</time></trkpt><trkpt lat="44.011749681984455" lon="10.12889821345639"><ele>3.5</ele><time>2026-05-02T08:15:34.999Z</time></trkpt><trkpt lat="44.01201131666083" lon="10.128479104965031"><ele>3.0</ele><time>2026-05-02T08:15:35.999Z</time></trkpt><trkpt lat="44.012265151118605" lon="10.128052237288601"><ele>3.0</ele><time>2026-05-02T08:15:36.999Z</time></trkpt><trkpt lat="44.012512708387746" lon="10.127615866036573"><ele>3.0</ele><time>2026-05-02T08:15:37.999Z</time></trkpt><trkpt lat="44.012752041192286" lon="10.127168638999624"><ele>3.0</ele><time>2026-05-02T08:15:38.999Z</time></trkpt><trkpt lat="44.012986280947835" lon="10.12670772439229"><ele>3.0</ele><time>2026-05-02T08:15:39.999Z</time></trkpt><trkpt lat="44.0132204035861" lon="10.12624199186574"><ele>3.0</ele><time>2026-05-02T08:15:40.999Z</time></trkpt><trkpt lat="44.01345313217139" lon="10.125774475800027"><ele>3.0</ele><time>2026-05-02T08:15:41.999Z</time></trkpt><trkpt lat="44.01368842837761" lon="10.12531168406291"><ele>2.5</ele><time>2026-05-02T08:15:42.999Z</time></trkpt><trkpt lat="44.013924325980476" lon="10.12484565720428"><ele>2.0</ele><time>2026-05-02T08:15:43.999Z</time></trkpt><trkpt lat="44.014160728143274" lon="10.124375264683646"><ele>2.5</ele><time>2026-05-02T08:15:44.999Z</time></trkpt><trkpt lat="44.01439654676998" lon="10.123906173658701"><ele>3.0</ele><time>2026-05-02T08:15:45.999Z</time></trkpt><trkpt lat="44.01463534455877" lon="10.123434538420787"><ele>2.5</ele><time>2026-05-02T08:15:46.999Z</time></trkpt><trkpt lat="44.01487535147955" lon="10.122961944641268"><ele>2.0</ele><time>2026-05-02T08:15:47.999Z</time></trkpt><trkpt lat="44.015115332787644" lon="10.122488198490046"><ele>2.5</ele><time>2026-05-02T08:15:48.999Z</time></trkpt><trkpt lat="44.015356538294604" lon="10.122011393022811"><ele>3.0</ele><time>2026-05-02T08:15:49.999Z</time></trkpt><trkpt lat="44.01559527667755" lon="10.121533542970514"><ele>5.0</ele><time>2026-05-02T08:15:50.999Z</time></trkpt><trkpt lat="44.01583655791038" lon="10.121053008446323"><ele>7.0</ele><time>2026-05-02T08:15:51.999Z</time></trkpt><trkpt lat="44.016077673897854" lon="10.120572187635362"><ele>7.0</ele><time>2026-05-02T08:15:52.999Z</time></trkpt><trkpt lat="44.016322360412644" lon="10.12009107812539"><ele>7.0</ele><time>2026-05-02T08:15:53.999Z</time></trkpt><trkpt lat="44.01656515126849" lon="10.119612579879302"><ele>7.5</ele><time>2026-05-02T08:15:54.999Z</time></trkpt><trkpt lat="44.016808947145385" lon="10.119133477908395"><ele>8.0</ele><time>2026-05-02T08:15:55.999Z</time></trkpt><trkpt lat="44.01705427962604" lon="10.118651410811946"><ele>8.0</ele><time>2026-05-02T08:15:56.999Z</time></trkpt><trkpt lat="44.01729939344527" lon="10.118170181065274"><ele>8.0</ele><time>2026-05-02T08:15:57.999Z</time></trkpt><trkpt lat="44.01754011970231" lon="10.117690264108868"><ele>7.5</ele><time>2026-05-02T08:15:58.999Z</time></trkpt><trkpt lat="44.01778227685156" lon="10.117211397031678"><ele>7.0</ele><time>2026-05-02T08:15:59.999Z</time></trkpt><trkpt lat="44.01802270340724" lon="10.116732261526945"><ele>7.0</ele><time>2026-05-02T08:16:00.999Z</time></trkpt><trkpt lat="44.01825991654081" lon="10.116257417188953"><ele>7.0</ele><time>2026-05-02T08:16:01.999Z</time></trkpt><trkpt lat="44.018493480211546" lon="10.115786071378007"><ele>6.5</ele><time>2026-05-02T08:16:02.999Z</time></trkpt><trkpt lat="44.01872218690608" lon="10.11531207530816"><ele>6.0</ele><time>2026-05-02T08:16:03.999Z</time></trkpt><trkpt lat="44.01894044902101" lon="10.114833466268855"><ele>6.0</ele><time>2026-05-02T08:16:04.999Z</time></trkpt><trkpt lat="44.019142123768994" lon="10.11435009332537"><ele>6.0</ele><time>2026-05-02T08:16:05.999Z</time></trkpt><trkpt lat="44.01933230554996" lon="10.113858184696426"><ele>6.0</ele><time>2026-05-02T08:16:06.999Z</time></trkpt><trkpt lat="44.01950845203652" lon="10.113356561912061"><ele>6.0</ele><time>2026-05-02T08:16:07.999Z</time></trkpt><trkpt lat="44.019679092562086" lon="10.11284797215741"><ele>5.0</ele><time>2026-05-02T08:16:08.999Z</time></trkpt><trkpt lat="44.019837669707115" lon="10.112332620857032"><ele>4.0</ele><time>2026-05-02T08:16:09.999Z</time></trkpt><trkpt lat="44.01998491271133" lon="10.11181392565722"><ele>3.5</ele><time>2026-05-02T08:16:10.999Z</time></trkpt><trkpt lat="44.0201202695988" lon="10.111290771073467"><ele>3.0</ele><time>2026-05-02T08:16:11.999Z</time></trkpt><trkpt lat="44.020242420403186" lon="10.110765260168112"><ele>3.0</ele><time>2026-05-02T08:16:12.999Z</time></trkpt><trkpt lat="44.02035730836762" lon="10.11023761171708"><ele>3.0</ele><time>2026-05-02T08:16:13.999Z</time></trkpt><trkpt lat="44.02047152837077" lon="10.109701798063712"><ele>3.5</ele><time>2026-05-02T08:16:14.999Z</time></trkpt><trkpt lat="44.02058726580333" lon="10.10916369015461"><ele>4.0</ele><time>2026-05-02T08:16:15.999Z</time></trkpt><trkpt lat="44.020705290716315" lon="10.108633071372315"><ele>4.0</ele><time>2026-05-02T08:16:16.999Z</time></trkpt><trkpt lat="44.020825825637054" lon="10.108102879688591"><ele>4.0</ele><time>2026-05-02T08:16:17.999Z</time></trkpt><trkpt lat="44.020943321843575" lon="10.107579939952249"><ele>4.0</ele><time>2026-05-02T08:16:18.999Z</time></trkpt><trkpt lat="44.02105512367125" lon="10.107072144187788"><ele>4.0</ele><time>2026-05-02T08:16:19.999Z</time></trkpt><trkpt lat="44.02116692418044" lon="10.106582452596054"><ele>4.0</ele><time>2026-05-02T08:16:20.999Z</time></trkpt><trkpt lat="44.0212693219795" lon="10.106125393460344"><ele>4.0</ele><time>2026-05-02T08:16:21.999Z</time></trkpt><trkpt lat="44.021372130779625" lon="10.10564048225525"><ele>4.0</ele><time>2026-05-02T08:16:22.999Z</time></trkpt><trkpt lat="44.02147259235208" lon="10.105159667967488"><ele>4.0</ele><time>2026-05-02T08:16:23.999Z</time></trkpt><trkpt lat="44.0215723077816" lon="10.104697969847388"><ele>3.5</ele><time>2026-05-02T08:16:24.999Z</time></trkpt><trkpt lat="44.021684664570095" lon="10.104217464745371"><ele>3.0</ele><time>2026-05-02T08:16:25.999Z</time></trkpt><trkpt lat="44.02180350523906" lon="10.103736469807115"><ele>2.5</ele><time>2026-05-02T08:16:26.999Z</time></trkpt><trkpt lat="44.021942713537506" lon="10.103238047111896"><ele>2.0</ele><time>2026-05-02T08:16:27.999Z</time></trkpt><trkpt lat="44.02209606118058" lon="10.1027341746029"><ele>2.5</ele><time>2026-05-02T08:16:28.999Z</time></trkpt><trkpt lat="44.02226229638421" lon="10.102240615102897"><ele>3.0</ele><time>2026-05-02T08:16:29.999Z</time></trkpt><trkpt lat="44.022437067306555" lon="10.101747601855156"><ele>2.5</ele><time>2026-05-02T08:16:30.999Z</time></trkpt><trkpt lat="44.022628791000955" lon="10.10126284602839"><ele>2.0</ele><time>2026-05-02T08:16:31.999Z</time></trkpt><trkpt lat="44.0228302486285" lon="10.10078947288701"><ele>2.0</ele><time>2026-05-02T08:16:32.999Z</time></trkpt><trkpt lat="44.02303581436814" lon="10.10032232116735"><ele>2.0</ele><time>2026-05-02T08:16:33.999Z</time></trkpt><trkpt lat="44.02324537551179" lon="10.099875947881294"><ele>3.0</ele><time>2026-05-02T08:16:34.999Z</time></trkpt><trkpt lat="44.02346401792203" lon="10.099434073717363"><ele>4.0</ele><time>2026-05-02T08:16:35.999Z</time></trkpt><trkpt lat="44.02369435892392" lon="10.098992077119995"><ele>4.0</ele><time>2026-05-02T08:16:36.999Z</time></trkpt><trkpt lat="44.023946675807956" lon="10.098531644704064"><ele>4.0</ele><time>2026-05-02T08:16:37.999Z</time></trkpt><trkpt lat="44.0242171060518" lon="10.09807346819542"><ele>3.0</ele><time>2026-05-02T08:16:38.999Z</time></trkpt><trkpt lat="44.02449788827346" lon="10.09760850115016"><ele>2.0</ele><time>2026-05-02T08:16:39.999Z</time></trkpt><trkpt lat="44.02479360447929" lon="10.097132549624112"><ele>2.0</ele><time>2026-05-02T08:16:40.999Z</time></trkpt><trkpt lat="44.02509641508501" lon="10.096650935236436"><ele>2.0</ele><time>2026-05-02T08:16:41.999Z</time></trkpt><trkpt lat="44.02538994022641" lon="10.096221406427219"><ele>2.0</ele><time>2026-05-02T08:16:43.998Z</time></trkpt><trkpt lat="44.02564173062658" lon="10.095842966967892"><ele>3.0</ele><time>2026-05-02T08:16:44.998Z</time></trkpt><trkpt lat="44.02588864159886" lon="10.095471059333738"><ele>4.0</ele><time>2026-05-02T08:16:46Z</time></trkpt><trkpt lat="44.02613228669522" lon="10.095102009620787"><ele>3.5</ele><time>2026-05-02T08:16:47Z</time></trkpt><trkpt lat="44.026377372784935" lon="10.094733646363228"><ele>3.0</ele><time>2026-05-02T08:16:48Z</time></trkpt><trkpt lat="44.026615662844144" lon="10.094359993418259"><ele>3.0</ele><time>2026-05-02T08:16:49Z</time></trkpt><trkpt lat="44.02685103838861" lon="10.093996544179968"><ele>3.0</ele><time>2026-05-02T08:16:50Z</time></trkpt><trkpt lat="44.02709179746192" lon="10.093636440010906"><ele>3.0</ele><time>2026-05-02T08:16:51Z</time></trkpt><trkpt lat="44.02733377357518" lon="10.093262558865638"><ele>3.0</ele><time>2026-05-02T08:16:52Z</time></trkpt><trkpt lat="44.027583034696846" lon="10.092880352862238"><ele>4.0</ele><time>2026-05-02T08:16:53Z</time></trkpt><trkpt lat="44.027847880725886" lon="10.092486683681715"><ele>5.0</ele><time>2026-05-02T08:16:54Z</time></trkpt><trkpt lat="44.02811609937249" lon="10.092081856171859"><ele>5.5</ele><time>2026-05-02T08:16:55Z</time></trkpt><trkpt lat="44.02838681983069" lon="10.091667692904942"><ele>6.0</ele><time>2026-05-02T08:16:56Z</time></trkpt><trkpt lat="44.02865859831284" lon="10.091252144295865"><ele>6.0</ele><time>2026-05-02T08:16:57Z</time></trkpt><trkpt lat="44.028929468757106" lon="10.09083739481776"><ele>6.0</ele><time>2026-05-02T08:16:58Z</time></trkpt><trkpt lat="44.02919716966114" lon="10.090424142253198"><ele>6.0</ele><time>2026-05-02T08:16:59Z</time></trkpt><trkpt lat="44.02946217672967" lon="10.090012486918202"><ele>6.0</ele><time>2026-05-02T08:17:00Z</time></trkpt><trkpt lat="44.02972670477025" lon="10.08960317580334"><ele>5.5</ele><time>2026-05-02T08:17:01Z</time></trkpt><trkpt lat="44.02999013386261" lon="10.089190868717234"><ele>5.0</ele><time>2026-05-02T08:17:02Z</time></trkpt><trkpt lat="44.03024948496241" lon="10.088777659301186"><ele>3.5</ele><time>2026-05-02T08:17:03Z</time></trkpt><trkpt lat="44.030503622603554" lon="10.088354916583475"><ele>2.0</ele><time>2026-05-02T08:17:04Z</time></trkpt><trkpt lat="44.030748161650905" lon="10.087916948263713"><ele>1.5</ele><time>2026-05-02T08:17:05Z</time></trkpt><trkpt lat="44.03098552240632" lon="10.087473647396846"><ele>1.0</ele><time>2026-05-02T08:17:06Z</time></trkpt><trkpt lat="44.03120448052729" lon="10.087011041513893"><ele>1.5</ele><time>2026-05-02T08:17:07Z</time></trkpt><trkpt lat="44.03141753853276" lon="10.086542981801687"><ele>2.0</ele><time>2026-05-02T08:17:08Z</time></trkpt><trkpt lat="44.03161875708762" lon="10.086073281194338"><ele>3.5</ele><time>2026-05-02T08:17:09Z</time></trkpt><trkpt lat="44.031808891008055" lon="10.085604035716635"><ele>5.0</ele><time>2026-05-02T08:17:10Z</time></trkpt><trkpt lat="44.0319878262057" lon="10.085134399812118"><ele>4.0</ele><time>2026-05-02T08:17:11Z</time></trkpt><trkpt lat="44.03215257106112" lon="10.084653989459389"><ele>3.0</ele><time>2026-05-02T08:17:12Z</time></trkpt><trkpt lat="44.03229662235963" lon="10.084193476846714"><ele>3.0</ele><time>2026-05-02T08:17:13Z</time></trkpt><trkpt lat="44.03243010823997" lon="10.083743930095581"><ele>3.0</ele><time>2026-05-02T08:17:14Z</time></trkpt><trkpt lat="44.03255248776255" lon="10.08330836040261"><ele>4.0</ele><time>2026-05-02T08:17:15Z</time></trkpt><trkpt lat="44.03266226141794" lon="10.082881912630935"><ele>5.0</ele><time>2026-05-02T08:17:16Z</time></trkpt><trkpt lat="44.032757965990776" lon="10.082484950119124"><ele>4.5</ele><time>2026-05-02T08:17:17Z</time></trkpt><trkpt lat="44.03284602554021" lon="10.082101590529472"><ele>4.0</ele><time>2026-05-02T08:17:18Z</time></trkpt><trkpt lat="44.03292491502598" lon="10.081724717757796"><ele>3.0</ele><time>2026-05-02T08:17:19Z</time></trkpt><trkpt lat="44.032996266409754" lon="10.081351834432818"><ele>2.0</ele><time>2026-05-02T08:17:20Z</time></trkpt><trkpt lat="44.033062433371214" lon="10.080973903501462"><ele>2.5</ele><time>2026-05-02T08:17:21Z</time></trkpt><trkpt lat="44.03312447129283" lon="10.080596181032895"><ele>3.0</ele><time>2026-05-02T08:17:22Z</time></trkpt><trkpt lat="44.033181049566736" lon="10.08020998224735"><ele>2.5</ele><time>2026-05-02T08:17:23Z</time></trkpt><trkpt lat="44.03323532584227" lon="10.07983865818319"><ele>2.0</ele><time>2026-05-02T08:17:24Z</time></trkpt><trkpt lat="44.03328353674494" lon="10.079464345083778"><ele>2.0</ele><time>2026-05-02T08:17:25Z</time></trkpt><trkpt lat="44.03333769296859" lon="10.079079742810721"><ele>2.0</ele><time>2026-05-02T08:17:26Z</time></trkpt><trkpt lat="44.03339134071133" lon="10.078663896357106"><ele>2.0</ele><time>2026-05-02T08:17:27Z</time></trkpt><trkpt lat="44.03345520823576" lon="10.078220575520673"><ele>2.0</ele><time>2026-05-02T08:17:28Z</time></trkpt><trkpt lat="44.0335215556825" lon="10.077760310150335"><ele>2.5</ele><time>2026-05-02T08:17:29Z</time></trkpt><trkpt lat="44.03358891910103" lon="10.077283988239895"><ele>3.0</ele><time>2026-05-02T08:17:30Z</time></trkpt><trkpt lat="44.03366092818052" lon="10.076794353656563"><ele>3.0</ele><time>2026-05-02T08:17:31Z</time></trkpt><trkpt lat="44.03372910245537" lon="10.07629320359421"><ele>3.0</ele><time>2026-05-02T08:17:32Z</time></trkpt><trkpt lat="44.03380247699723" lon="10.075791510027766"><ele>3.0</ele><time>2026-05-02T08:17:33Z</time></trkpt><trkpt lat="44.033877738589126" lon="10.075280135695923"><ele>3.0</ele><time>2026-05-02T08:17:34Z</time></trkpt><trkpt lat="44.033955619201066" lon="10.074775404683788"><ele>2.5</ele><time>2026-05-02T08:17:34.999Z</time></trkpt><trkpt lat="44.03404811382596" lon="10.074272677019112"><ele>2.0</ele><time>2026-05-02T08:17:35.999Z</time></trkpt><trkpt lat="44.0341516989074" lon="10.073774437505568"><ele>2.0</ele><time>2026-05-02T08:17:36.999Z</time></trkpt><trkpt lat="44.03426956024541" lon="10.073281682737786"><ele>2.0</ele><time>2026-05-02T08:17:37.999Z</time></trkpt><trkpt lat="44.03439428989065" lon="10.072787444345371"><ele>2.5</ele><time>2026-05-02T08:17:38.999Z</time></trkpt><trkpt lat="44.03452595200301" lon="10.072299354829832"><ele>3.0</ele><time>2026-05-02T08:17:39.999Z</time></trkpt><trkpt lat="44.03466626172061" lon="10.071820318157185"><ele>3.0</ele><time>2026-05-02T08:17:40.999Z</time></trkpt><trkpt lat="44.03481549795366" lon="10.071356509145957"><ele>3.0</ele><time>2026-05-02T08:17:41.999Z</time></trkpt><trkpt lat="44.03497083155019" lon="10.070903431531042"><ele>3.5</ele><time>2026-05-02T08:17:42.999Z</time></trkpt><trkpt lat="44.03513219769461" lon="10.070456942706976"><ele>4.0</ele><time>2026-05-02T08:17:43.999Z</time></trkpt><trkpt lat="44.03530267297039" lon="10.070025031822171"><ele>3.5</ele><time>2026-05-02T08:17:44.999Z</time></trkpt><trkpt lat="44.03547687809298" lon="10.069602615298088"><ele>3.0</ele><time>2026-05-02T08:17:45.999Z</time></trkpt><trkpt lat="44.03565689927728" lon="10.0691893218481"><ele>3.0</ele><time>2026-05-02T08:17:46.999Z</time></trkpt><trkpt lat="44.03583884936654" lon="10.068776929411086"><ele>3.0</ele><time>2026-05-02T08:17:47.999Z</time></trkpt><trkpt lat="44.036024553898" lon="10.068358310401921"><ele>4.0</ele><time>2026-05-02T08:17:48.999Z</time></trkpt><trkpt lat="44.03621358080221" lon="10.067936883301902"><ele>5.0</ele><time>2026-05-02T08:17:49.999Z</time></trkpt><trkpt lat="44.03639826581359" lon="10.067515398252157"><ele>5.0</ele><time>2026-05-02T08:17:50.999Z</time></trkpt><trkpt lat="44.03658241465972" lon="10.067094148298978"><ele>5.0</ele><time>2026-05-02T08:17:51.999Z</time></trkpt><trkpt lat="44.03676396901759" lon="10.066676734810237"><ele>4.0</ele><time>2026-05-02T08:17:52.999Z</time></trkpt><trkpt lat="44.036952982610195" lon="10.066252982240217"><ele>3.0</ele><time>2026-05-02T08:17:53.999Z</time></trkpt><trkpt lat="44.03714561877225" lon="10.065817407580402"><ele>3.0</ele><time>2026-05-02T08:17:54.999Z</time></trkpt><trkpt lat="44.0373419379129" lon="10.065375084232501"><ele>3.0</ele><time>2026-05-02T08:17:55.999Z</time></trkpt><trkpt lat="44.037538890430945" lon="10.064927765003784"><ele>3.0</ele><time>2026-05-02T08:17:56.999Z</time></trkpt><trkpt lat="44.03773065456434" lon="10.064489681197164"><ele>3.0</ele><time>2026-05-02T08:17:57.999Z</time></trkpt><trkpt lat="44.03791059927995" lon="10.064079699821448"><ele>3.0</ele><time>2026-05-02T08:17:58.999Z</time></trkpt><trkpt lat="44.03808964996752" lon="10.063669718487557"><ele>3.0</ele><time>2026-05-02T08:17:59.999Z</time></trkpt><trkpt lat="44.03827184224765" lon="10.06325023642072"><ele>3.5</ele><time>2026-05-02T08:18:00.999Z</time></trkpt><trkpt lat="44.03845626603863" lon="10.062837387004738"><ele>4.0</ele><time>2026-05-02T08:18:01.999Z</time></trkpt><trkpt lat="44.03863739306242" lon="10.062428415676102"><ele>4.0</ele><time>2026-05-02T08:18:02.999Z</time></trkpt><trkpt lat="44.03881690424091" lon="10.062026053779435"><ele>4.0</ele><time>2026-05-02T08:18:03.999Z</time></trkpt><trkpt lat="44.038994040875316" lon="10.061626766496284"><ele>5.5</ele><time>2026-05-02T08:18:04.999Z</time></trkpt><trkpt lat="44.039173024652754" lon="10.061222482701284"><ele>7.0</ele><time>2026-05-02T08:18:05.999Z</time></trkpt><trkpt lat="44.03935193015412" lon="10.060818714462718"><ele>6.0</ele><time>2026-05-02T08:18:06.999Z</time></trkpt><trkpt lat="44.03953488928886" lon="10.0604073094451"><ele>5.0</ele><time>2026-05-02T08:18:07.999Z</time></trkpt><trkpt lat="44.03972838741784" lon="10.059969520102777"><ele>5.0</ele><time>2026-05-02T08:18:08.999Z</time></trkpt><trkpt lat="44.039938797528144" lon="10.05951548945934"><ele>5.0</ele><time>2026-05-02T08:18:09.999Z</time></trkpt><trkpt lat="44.04013853526754" lon="10.059059807189596"><ele>5.0</ele><time>2026-05-02T08:18:10.999Z</time></trkpt><trkpt lat="44.04033934308054" lon="10.05860094409516"><ele>5.0</ele><time>2026-05-02T08:18:11.999Z</time></trkpt><trkpt lat="44.04053804584036" lon="10.058140966353669"><ele>4.0</ele><time>2026-05-02T08:18:12.999Z</time></trkpt><trkpt lat="44.04073975564346" lon="10.057675831298042"><ele>3.0</ele><time>2026-05-02T08:18:13.999Z</time></trkpt><trkpt lat="44.040947355409344" lon="10.057204183657417"><ele>3.0</ele><time>2026-05-02T08:18:14.999Z</time></trkpt><trkpt lat="44.04115802071933" lon="10.056731610884738"><ele>3.0</ele><time>2026-05-02T08:18:15.999Z</time></trkpt><trkpt lat="44.04136745946331" lon="10.056257078554788"><ele>2.5</ele><time>2026-05-02T08:18:16.999Z</time></trkpt><trkpt lat="44.0415773269279" lon="10.0557797671793"><ele>2.0</ele><time>2026-05-02T08:18:17.999Z</time></trkpt><trkpt lat="44.041789713273566" lon="10.055301383990223"><ele>2.5</ele><time>2026-05-02T08:18:18.999Z</time></trkpt><trkpt lat="44.04200149580209" lon="10.054823767990808"><ele>3.0</ele><time>2026-05-02T08:18:19.999Z</time></trkpt><trkpt lat="44.042212317890495" lon="10.05434256784904"><ele>2.5</ele><time>2026-05-02T08:18:20.999Z</time></trkpt><trkpt lat="44.042422506135914" lon="10.053865773036897"><ele>2.0</ele><time>2026-05-02T08:18:21.999Z</time></trkpt><trkpt lat="44.04263225081981" lon="10.053394236781454"><ele>4.0</ele><time>2026-05-02T08:18:22.999Z</time></trkpt><trkpt lat="44.04284052164247" lon="10.052925948769929"><ele>6.0</ele><time>2026-05-02T08:18:23.999Z</time></trkpt><trkpt lat="44.043052317989364" lon="10.052462142859369"><ele>6.5</ele><time>2026-05-02T08:18:24.999Z</time></trkpt><trkpt lat="44.04326644169923" lon="10.052002584582599"><ele>7.0</ele><time>2026-05-02T08:18:25.999Z</time></trkpt><trkpt lat="44.04349038994377" lon="10.051555070845652"><ele>6.0</ele><time>2026-05-02T08:18:26.999Z</time></trkpt><trkpt lat="44.04371726596121" lon="10.051112360703868"><ele>5.0</ele><time>2026-05-02T08:18:27.999Z</time></trkpt><trkpt lat="44.04395511145965" lon="10.050674820961271"><ele>5.0</ele><time>2026-05-02T08:18:28.999Z</time></trkpt><trkpt lat="44.04418962524279" lon="10.05024394368333"><ele>5.0</ele><time>2026-05-02T08:18:29.999Z</time></trkpt><trkpt lat="44.04441883706653" lon="10.049813337031816"><ele>4.5</ele><time>2026-05-02T08:18:30.999Z</time></trkpt><trkpt lat="44.04464216493141" lon="10.049384491932162"><ele>4.0</ele><time>2026-05-02T08:18:31.999Z</time></trkpt><trkpt lat="44.04486973259935" lon="10.04895420357658"><ele>4.5</ele><time>2026-05-02T08:18:32.999Z</time></trkpt><trkpt lat="44.04509551379113" lon="10.048526628821199"><ele>5.0</ele><time>2026-05-02T08:18:33.999Z</time></trkpt><trkpt lat="44.0453163620718" lon="10.04811037052736"><ele>5.0</ele><time>2026-05-02T08:18:34.999Z</time></trkpt><trkpt lat="44.0455353363885" lon="10.047701281358192"><ele>5.0</ele><time>2026-05-02T08:18:35.999Z</time></trkpt><trkpt lat="44.04574881046754" lon="10.047290198059237"><ele>4.5</ele><time>2026-05-02T08:18:36.999Z</time></trkpt><trkpt lat="44.04596127860278" lon="10.046893727959896"><ele>4.0</ele><time>2026-05-02T08:18:37.999Z</time></trkpt><trkpt lat="44.0461698233737" lon="10.04650026804146"><ele>4.0</ele><time>2026-05-02T08:18:38.999Z</time></trkpt><trkpt lat="44.04637742370705" lon="10.046110358588006"><ele>4.0</ele><time>2026-05-02T08:18:39.999Z</time></trkpt><trkpt lat="44.04657838963891" lon="10.045728375387595"><ele>4.5</ele><time>2026-05-02T08:18:40.999Z</time></trkpt><trkpt lat="44.04678212320257" lon="10.045348804425355"><ele>5.0</ele><time>2026-05-02T08:18:41.999Z</time></trkpt><trkpt lat="44.04698441154543" lon="10.044964577143631"><ele>4.0</ele><time>2026-05-02T08:18:42.999Z</time></trkpt><trkpt lat="44.047192042482514" lon="10.04457694469223"><ele>3.0</ele><time>2026-05-02T08:18:43.999Z</time></trkpt><trkpt lat="44.04739801478403" lon="10.044187357020904"><ele>4.0</ele><time>2026-05-02T08:18:44.999Z</time></trkpt><trkpt lat="44.047599714612254" lon="10.043804691605223"><ele>5.0</ele><time>2026-05-02T08:18:45.999Z</time></trkpt><trkpt lat="44.047803391196965" lon="10.043420086679053"><ele>5.5</ele><time>2026-05-02T08:18:46.999Z</time></trkpt><trkpt lat="44.04800378174082" lon="10.04304256928954"><ele>6.0</ele><time>2026-05-02T08:18:47.999Z</time></trkpt><trkpt lat="44.04820174698708" lon="10.042663219405124"><ele>5.0</ele><time>2026-05-02T08:18:48.999Z</time></trkpt><trkpt lat="44.048398476615795" lon="10.04228503617243"><ele>4.0</ele><time>2026-05-02T08:18:49.999Z</time></trkpt><trkpt lat="44.04859277566262" lon="10.041914477608929"><ele>3.5</ele><time>2026-05-02T08:18:50.999Z</time></trkpt><trkpt lat="44.04878609864941" lon="10.04154487740115"><ele>3.0</ele><time>2026-05-02T08:18:52Z</time></trkpt><trkpt lat="44.04898580963693" lon="10.041176958119575"><ele>3.0</ele><time>2026-05-02T08:18:53Z</time></trkpt><trkpt lat="44.04917791661421" lon="10.04081287188936"><ele>3.0</ele><time>2026-05-02T08:18:54Z</time></trkpt><trkpt lat="44.049368588478735" lon="10.040453654061693"><ele>2.0</ele><time>2026-05-02T08:18:55Z</time></trkpt><trkpt lat="44.04956285743186" lon="10.040087614323278"><ele>1.0</ele><time>2026-05-02T08:18:56Z</time></trkpt><trkpt lat="44.049763222690444" lon="10.039718596065844"><ele>1.5</ele><time>2026-05-02T08:18:57Z</time></trkpt><trkpt lat="44.04996700586088" lon="10.039341042238755"><ele>2.0</ele><time>2026-05-02T08:18:58Z</time></trkpt><trkpt lat="44.050173405535716" lon="10.038963716380287"><ele>2.0</ele><time>2026-05-02T08:18:59Z</time></trkpt><trkpt lat="44.050376451874186" lon="10.0385828379219"><ele>2.0</ele><time>2026-05-02T08:19:00Z</time></trkpt><trkpt lat="44.05058367490711" lon="10.038195127958689"><ele>2.0</ele><time>2026-05-02T08:19:01Z</time></trkpt><trkpt lat="44.05078966870849" lon="10.037804191546089"><ele>2.0</ele><time>2026-05-02T08:19:02Z</time></trkpt><trkpt lat="44.05100157938726" lon="10.03741070843231"><ele>2.0</ele><time>2026-05-02T08:19:03Z</time></trkpt><trkpt lat="44.051217387175114" lon="10.037018134907399"><ele>2.0</ele><time>2026-05-02T08:19:04Z</time></trkpt><trkpt lat="44.051422586184316" lon="10.0366217282238"><ele>2.0</ele><time>2026-05-02T08:19:05Z</time></trkpt><trkpt lat="44.05161433490318" lon="10.036231543515372"><ele>2.0</ele><time>2026-05-02T08:19:06Z</time></trkpt><trkpt lat="44.05179032754864" lon="10.035846358073956"><ele>1.0</ele><time>2026-05-02T08:19:07Z</time></trkpt><trkpt lat="44.0519616931802" lon="10.035456222746616"><ele>0.0</ele><time>2026-05-02T08:19:08Z</time></trkpt><trkpt lat="44.052128984559744" lon="10.035062705273516"><ele>0.5</ele><time>2026-05-02T08:19:09Z</time></trkpt><trkpt lat="44.05229029570342" lon="10.034663879980748"><ele>1.0</ele><time>2026-05-02T08:19:10Z</time></trkpt><trkpt lat="44.052445222696306" lon="10.034264128173746"><ele>1.5</ele><time>2026-05-02T08:19:11Z</time></trkpt><trkpt lat="44.05259567813729" lon="10.033860635756605"><ele>2.0</ele><time>2026-05-02T08:19:12Z</time></trkpt><trkpt lat="44.052746118100295" lon="10.033455097094686"><ele>3.5</ele><time>2026-05-02T08:19:13Z</time></trkpt><trkpt lat="44.05288774356247" lon="10.03303677620924"><ele>5.0</ele><time>2026-05-02T08:19:14Z</time></trkpt><trkpt lat="44.05302426957979" lon="10.032618804976869"><ele>4.0</ele><time>2026-05-02T08:19:15Z</time></trkpt><trkpt lat="44.0531543656797" lon="10.032216809340447"><ele>3.0</ele><time>2026-05-02T08:19:16Z</time></trkpt><trkpt lat="44.053276623947426" lon="10.031784196928516"><ele>3.0</ele><time>2026-05-02T08:19:17Z</time></trkpt><trkpt lat="44.0534047205266" lon="10.031338482199072"><ele>3.0</ele><time>2026-05-02T08:19:18Z</time></trkpt><trkpt lat="44.05353529783493" lon="10.030869314051042"><ele>3.0</ele><time>2026-05-02T08:19:19Z</time></trkpt><trkpt lat="44.05366799724429" lon="10.030394782897465"><ele>3.0</ele><time>2026-05-02T08:19:20Z</time></trkpt><trkpt lat="44.05381062392536" lon="10.029920615028262"><ele>3.0</ele><time>2026-05-02T08:19:21Z</time></trkpt><trkpt lat="44.05394726573088" lon="10.029448722444572"><ele>3.0</ele><time>2026-05-02T08:19:22Z</time></trkpt><trkpt lat="44.054083699949615" lon="10.028980510722027"><ele>2.5</ele><time>2026-05-02T08:19:23Z</time></trkpt><trkpt lat="44.054218345399335" lon="10.028520804395706"><ele>2.0</ele><time>2026-05-02T08:19:24Z</time></trkpt><trkpt lat="44.054348077371635" lon="10.028068293115844"><ele>2.0</ele><time>2026-05-02T08:19:25Z</time></trkpt><trkpt lat="44.05447518622697" lon="10.027627448766593"><ele>2.0</ele><time>2026-05-02T08:19:26Z</time></trkpt><trkpt lat="44.054597005043206" lon="10.027199980488504"><ele>1.5</ele><time>2026-05-02T08:19:27Z</time></trkpt><trkpt lat="44.054716674761146" lon="10.026786129241751"><ele>1.0</ele><time>2026-05-02T08:19:28Z</time></trkpt><trkpt lat="44.054837502435" lon="10.026375918812608"><ele>2.0</ele><time>2026-05-02T08:19:29Z</time></trkpt><trkpt lat="44.0549618784227" lon="10.02594745539345"><ele>3.0</ele><time>2026-05-02T08:19:30Z</time></trkpt><trkpt lat="44.05508329833211" lon="10.025524322491307"><ele>3.0</ele><time>2026-05-02T08:19:31Z</time></trkpt><trkpt lat="44.055205882489894" lon="10.025101817864941"><ele>3.0</ele><time>2026-05-02T08:19:32Z</time></trkpt><trkpt lat="44.05532863652884" lon="10.024677895936705"><ele>3.0</ele><time>2026-05-02T08:19:33Z</time></trkpt><trkpt lat="44.05545725529136" lon="10.024244710425924"><ele>3.0</ele><time>2026-05-02T08:19:34Z</time></trkpt><trkpt lat="44.055582667393004" lon="10.02380217774378"><ele>2.5</ele><time>2026-05-02T08:19:35Z</time></trkpt><trkpt lat="44.05571259093366" lon="10.023362479914438"><ele>2.0</ele><time>2026-05-02T08:19:36Z</time></trkpt><trkpt lat="44.055838355539755" lon="10.022926238365777"><ele>2.0</ele><time>2026-05-02T08:19:37Z</time></trkpt><trkpt lat="44.05596118287218" lon="10.022494991087095"><ele>2.0</ele><time>2026-05-02T08:19:38Z</time></trkpt><trkpt lat="44.05608592294321" lon="10.022066535540276"><ele>1.0</ele><time>2026-05-02T08:19:39Z</time></trkpt><trkpt lat="44.05620633720992" lon="10.02163732596358"><ele>0.0</ele><time>2026-05-02T08:19:40Z</time></trkpt><trkpt lat="44.05632940434287" lon="10.021212472792095"><ele>0.5</ele><time>2026-05-02T08:19:41Z</time></trkpt><trkpt lat="44.05645254388009" lon="10.020789916262567"><ele>1.0</ele><time>2026-05-02T08:19:41.999Z</time></trkpt><trkpt lat="44.05657553614924" lon="10.02038337940478"><ele>1.0</ele><time>2026-05-02T08:19:42.999Z</time></trkpt><trkpt lat="44.0566979155151" lon="10.019970388041894"><ele>1.0</ele><time>2026-05-02T08:19:43.999Z</time></trkpt><trkpt lat="44.05682115705465" lon="10.019559471039392"><ele>1.0</ele><time>2026-05-02T08:19:44.999Z</time></trkpt><trkpt lat="44.05693710992195" lon="10.019154926205054"><ele>1.0</ele><time>2026-05-02T08:19:45.999Z</time></trkpt><trkpt lat="44.05705259964197" lon="10.018747365334837"><ele>1.0</ele><time>2026-05-02T08:19:46.999Z</time></trkpt><trkpt lat="44.05717141925987" lon="10.018338452602173"><ele>1.0</ele><time>2026-05-02T08:19:47.999Z</time></trkpt><trkpt lat="44.057290443385824" lon="10.017940955263079"><ele>1.0</ele><time>2026-05-02T08:19:48.999Z</time></trkpt><trkpt lat="44.05741156331842" lon="10.01755090119792"><ele>1.0</ele><time>2026-05-02T08:19:49.999Z</time></trkpt><trkpt lat="44.057531418754195" lon="10.017151337070915"><ele>1.0</ele><time>2026-05-02T08:19:50.999Z</time></trkpt><trkpt lat="44.05765626110801" lon="10.016714187786796"><ele>1.0</ele><time>2026-05-02T08:19:51.999Z</time></trkpt><trkpt lat="44.05777598502651" lon="10.016277276605095"><ele>1.0</ele><time>2026-05-02T08:19:52.999Z</time></trkpt><trkpt lat="44.05789650976653" lon="10.015857686314183"><ele>1.0</ele><time>2026-05-02T08:19:53.999Z</time></trkpt><trkpt lat="44.058024105771274" lon="10.015443029498263"><ele>1.0</ele><time>2026-05-02T08:19:54.999Z</time></trkpt><trkpt lat="44.05814120150003" lon="10.015026358863267"><ele>1.0</ele><time>2026-05-02T08:19:55.999Z</time></trkpt><trkpt lat="44.058261852086204" lon="10.014608317480397"><ele>0.5</ele><time>2026-05-02T08:19:56.999Z</time></trkpt><trkpt lat="44.05838518611731" lon="10.014191796940194"><ele>0.0</ele><time>2026-05-02T08:19:57.999Z</time></trkpt><trkpt lat="44.05851060392706" lon="10.01376829876277"><ele>-0.5</ele><time>2026-05-02T08:19:58.999Z</time></trkpt><trkpt lat="44.05863557735851" lon="10.013350535721317"><ele>-1.0</ele><time>2026-05-02T08:19:59.999Z</time></trkpt><trkpt lat="44.0587632094998" lon="10.012947689131229"><ele>-1.0</ele><time>2026-05-02T08:20:00.999Z</time></trkpt><trkpt lat="44.05889275317588" lon="10.01255565180413"><ele>-1.0</ele><time>2026-05-02T08:20:01.999Z</time></trkpt><trkpt lat="44.059024980662734" lon="10.012173911512203"><ele>1.0</ele><time>2026-05-02T08:20:02.999Z</time></trkpt><trkpt lat="44.05916319943401" lon="10.01181007074694"><ele>3.0</ele><time>2026-05-02T08:20:03.999Z</time></trkpt><trkpt lat="44.059299746130534" lon="10.011460425657097"><ele>3.5</ele><time>2026-05-02T08:20:04.999Z</time></trkpt><trkpt lat="44.05944094443565" lon="10.011093142421464"><ele>4.0</ele><time>2026-05-02T08:20:05.999Z</time></trkpt><trkpt lat="44.05959463326751" lon="10.010713141832241"><ele>4.0</ele><time>2026-05-02T08:20:06.999Z</time></trkpt><trkpt lat="44.05975216367174" lon="10.010338771457711"><ele>4.0</ele><time>2026-05-02T08:20:07.999Z</time></trkpt><trkpt lat="44.05991127818639" lon="10.009975229991486"><ele>3.0</ele><time>2026-05-02T08:20:08.999Z</time></trkpt><trkpt lat="44.0600739869482" lon="10.00960957075665"><ele>2.0</ele><time>2026-05-02T08:20:09.999Z</time></trkpt><trkpt lat="44.06023987164229" lon="10.009254071083811"><ele>3.0</ele><time>2026-05-02T08:20:10.999Z</time></trkpt><trkpt lat="44.06040832448939" lon="10.008924344540917"><ele>4.0</ele><time>2026-05-02T08:20:11.999Z</time></trkpt><trkpt lat="44.06057974906012" lon="10.008597328043997"><ele>4.0</ele><time>2026-05-02T08:20:12.999Z</time></trkpt><trkpt lat="44.060748714211975" lon="10.008276241239313"><ele>4.0</ele><time>2026-05-02T08:20:13.999Z</time></trkpt><trkpt lat="44.06092057558698" lon="10.007961714447006"><ele>4.0</ele><time>2026-05-02T08:20:14.999Z</time></trkpt><trkpt lat="44.06109408125407" lon="10.007653553505124"><ele>4.0</ele><time>2026-05-02T08:20:15.999Z</time></trkpt><trkpt lat="44.061271906952804" lon="10.00734779915256"><ele>4.0</ele><time>2026-05-02T08:20:16.999Z</time></trkpt><trkpt lat="44.06145760671713" lon="10.007041381329186"><ele>4.0</ele><time>2026-05-02T08:20:17.999Z</time></trkpt><trkpt lat="44.061637304014795" lon="10.006744744382354"><ele>3.5</ele><time>2026-05-02T08:20:18.999Z</time></trkpt><trkpt lat="44.06181628418788" lon="10.006448011077062"><ele>3.0</ele><time>2026-05-02T08:20:19.999Z</time></trkpt><trkpt lat="44.06199954979042" lon="10.006131112844757"><ele>3.5</ele><time>2026-05-02T08:20:20.999Z</time></trkpt><trkpt lat="44.06218790053687" lon="10.005802999836742"><ele>4.0</ele><time>2026-05-02T08:20:21.999Z</time></trkpt><trkpt lat="44.06238149797706" lon="10.005485826824787"><ele>2.5</ele><time>2026-05-02T08:20:22.999Z</time></trkpt><trkpt lat="44.062577069222186" lon="10.005166462476367"><ele>1.0</ele><time>2026-05-02T08:20:23.999Z</time></trkpt><trkpt lat="44.06277150646411" lon="10.00484508837952"><ele>1.0</ele><time>2026-05-02T08:20:24.999Z</time></trkpt><trkpt lat="44.06296959416302" lon="10.004519559188434"><ele>1.0</ele><time>2026-05-02T08:20:25.999Z</time></trkpt><trkpt lat="44.06317069944518" lon="10.004192380200728"><ele>0.5</ele><time>2026-05-02T08:20:26.999Z</time></trkpt><trkpt lat="44.06337285357725" lon="10.00386023331222"><ele>0.0</ele><time>2026-05-02T08:20:27.999Z</time></trkpt><trkpt lat="44.06357757099725" lon="10.003524488039655"><ele>-0.5</ele><time>2026-05-02T08:20:28.999Z</time></trkpt><trkpt lat="44.063782733143285" lon="10.003186434377543"><ele>-1.0</ele><time>2026-05-02T08:20:29.999Z</time></trkpt><trkpt lat="44.06398895109775" lon="10.002845641881796"><ele>0.0</ele><time>2026-05-02T08:20:30.999Z</time></trkpt><trkpt lat="44.06419826268321" lon="10.002503281541236"><ele>1.0</ele><time>2026-05-02T08:20:31.999Z</time></trkpt><trkpt lat="44.06441014797306" lon="10.002151689407617"><ele>1.0</ele><time>2026-05-02T08:20:32.999Z</time></trkpt><trkpt lat="44.06461989597955" lon="10.001805753015958"><ele>1.0</ele><time>2026-05-02T08:20:33.999Z</time></trkpt><trkpt lat="44.064831676838516" lon="10.001459226101913"><ele>1.0</ele><time>2026-05-02T08:20:34.999Z</time></trkpt><trkpt lat="44.06504395327069" lon="10.001109696494115"><ele>1.0</ele><time>2026-05-02T08:20:35.999Z</time></trkpt><trkpt lat="44.06525530239713" lon="10.0007600882055"><ele>0.5</ele><time>2026-05-02T08:20:36.999Z</time></trkpt><trkpt lat="44.065467405060794" lon="10.000410986762304"><ele>0.0</ele><time>2026-05-02T08:20:37.999Z</time></trkpt><trkpt lat="44.065681901852535" lon="10.000055801790065"><ele>1.5</ele><time>2026-05-02T08:20:38.999Z</time></trkpt><trkpt lat="44.06589565043145" lon="9.999703696551473"><ele>3.0</ele><time>2026-05-02T08:20:39.999Z</time></trkpt><trkpt lat="44.06611175207306" lon="9.999349548586359"><ele>2.5</ele><time>2026-05-02T08:20:40.999Z</time></trkpt><trkpt lat="44.06633127418994" lon="9.998990547365882"><ele>2.0</ele><time>2026-05-02T08:20:41.999Z</time></trkpt><trkpt lat="44.066550293271845" lon="9.998631595438109"><ele>3.0</ele><time>2026-05-02T08:20:42.999Z</time></trkpt><trkpt lat="44.06677084001272" lon="9.998269724043597"><ele>4.0</ele><time>2026-05-02T08:20:43.999Z</time></trkpt><trkpt lat="44.06699040086763" lon="9.997910379553774"><ele>4.0</ele><time>2026-05-02T08:20:44.999Z</time></trkpt><trkpt lat="44.067191260461" lon="9.997587150559594"><ele>4.0</ele><time>2026-05-02T08:20:45.999Z</time></trkpt><trkpt lat="44.067413071114196" lon="9.99721252667877"><ele>3.0</ele><time>2026-05-02T08:20:46.999Z</time></trkpt><trkpt lat="44.067631338519696" lon="9.996855530693983"><ele>2.0</ele><time>2026-05-02T08:20:47.999Z</time></trkpt><trkpt lat="44.06784888989225" lon="9.996498994965128"><ele>1.5</ele><time>2026-05-02T08:20:48.999Z</time></trkpt><trkpt lat="44.06806369725395" lon="9.996142310329336"><ele>1.0</ele><time>2026-05-02T08:20:49.999Z</time></trkpt><trkpt lat="44.06828187762304" lon="9.995781919415741"><ele>2.0</ele><time>2026-05-02T08:20:50.999Z</time></trkpt><trkpt lat="44.0685027940925" lon="9.99541913296715"><ele>3.0</ele><time>2026-05-02T08:20:51.999Z</time></trkpt><trkpt lat="44.06872865323388" lon="9.99504895910169"><ele>3.0</ele><time>2026-05-02T08:20:52.999Z</time></trkpt><trkpt lat="44.06896604771952" lon="9.994665032482686"><ele>3.0</ele><time>2026-05-02T08:20:53.999Z</time></trkpt><trkpt lat="44.069213961895244" lon="9.994266603583043"><ele>2.5</ele><time>2026-05-02T08:20:54.999Z</time></trkpt><trkpt lat="44.06946689984374" lon="9.993850247904497"><ele>2.0</ele><time>2026-05-02T08:20:55.999Z</time></trkpt><trkpt lat="44.06972793915886" lon="9.993418158091545"><ele>2.5</ele><time>2026-05-02T08:20:56.999Z</time></trkpt><trkpt lat="44.069973177024" lon="9.993003467658548"><ele>3.0</ele><time>2026-05-02T08:20:58Z</time></trkpt><trkpt lat="44.070205787343525" lon="9.992611037375244"><ele>2.5</ele><time>2026-05-02T08:20:59Z</time></trkpt><trkpt lat="44.070439397163454" lon="9.992224095363383"><ele>2.0</ele><time>2026-05-02T08:21:00Z</time></trkpt><trkpt lat="44.07067499025561" lon="9.991845634729064"><ele>2.0</ele><time>2026-05-02T08:21:01Z</time></trkpt><trkpt lat="44.07090167109044" lon="9.991476308362914"><ele>2.0</ele><time>2026-05-02T08:21:02Z</time></trkpt><trkpt lat="44.07112229451935" lon="9.991111547544707"><ele>2.5</ele><time>2026-05-02T08:21:03Z</time></trkpt><trkpt lat="44.07134575666693" lon="9.9907455777279"><ele>3.0</ele><time>2026-05-02T08:21:04Z</time></trkpt><trkpt lat="44.07156696735758" lon="9.99038172512433"><ele>2.5</ele><time>2026-05-02T08:21:05Z</time></trkpt><trkpt lat="44.071780488322474" lon="9.990026904328648"><ele>2.0</ele><time>2026-05-02T08:21:06Z</time></trkpt><trkpt lat="44.0720030269035" lon="9.989663506659507"><ele>1.5</ele><time>2026-05-02T08:21:07Z</time></trkpt><trkpt lat="44.07224240834154" lon="9.989272243803994"><ele>1.0</ele><time>2026-05-02T08:21:08Z</time></trkpt><trkpt lat="44.07249163502308" lon="9.988862664305804"><ele>0.5</ele><time>2026-05-02T08:21:09Z</time></trkpt><trkpt lat="44.07275113856112" lon="9.988438894824348"><ele>0.0</ele><time>2026-05-02T08:21:10Z</time></trkpt><trkpt lat="44.07301532685447" lon="9.988003463537858"><ele>1.0</ele><time>2026-05-02T08:21:11Z</time></trkpt><trkpt lat="44.07327064022777" lon="9.987580758816915"><ele>2.0</ele><time>2026-05-02T08:21:12Z</time></trkpt><trkpt lat="44.07351361496593" lon="9.987175168834382"><ele>2.0</ele><time>2026-05-02T08:21:13Z</time></trkpt><trkpt lat="44.073755201605586" lon="9.98677620963638"><ele>2.0</ele><time>2026-05-02T08:21:14Z</time></trkpt><trkpt lat="44.07400074835681" lon="9.986374018135889"><ele>1.5</ele><time>2026-05-02T08:21:15Z</time></trkpt><trkpt lat="44.07423582964189" lon="9.98598535930253"><ele>1.0</ele><time>2026-05-02T08:21:16Z</time></trkpt><trkpt lat="44.07446281478291" lon="9.985612776120211"><ele>2.0</ele><time>2026-05-02T08:21:17Z</time></trkpt><trkpt lat="44.074690119232436" lon="9.985238999846757"><ele>3.0</ele><time>2026-05-02T08:21:18Z</time></trkpt><trkpt lat="44.07491804871379" lon="9.984864957803769"><ele>3.0</ele><time>2026-05-02T08:21:19Z</time></trkpt><trkpt lat="44.07513894806219" lon="9.984502781950184"><ele>3.0</ele><time>2026-05-02T08:21:20Z</time></trkpt><trkpt lat="44.0753507485997" lon="9.984153157629956"><ele>3.0</ele><time>2026-05-02T08:21:21Z</time></trkpt><trkpt lat="44.075560423594276" lon="9.983810214914065"><ele>3.0</ele><time>2026-05-02T08:21:22Z</time></trkpt><trkpt lat="44.075764869209706" lon="9.983502777697483"><ele>3.0</ele><time>2026-05-02T08:21:23Z</time></trkpt><trkpt lat="44.07597238437788" lon="9.983194159195412"><ele>3.0</ele><time>2026-05-02T08:21:24Z</time></trkpt><trkpt lat="44.076175634480364" lon="9.982885833797598"><ele>3.0</ele><time>2026-05-02T08:21:25Z</time></trkpt><trkpt lat="44.076382164793046" lon="9.982591811321885"><ele>3.0</ele><time>2026-05-02T08:21:26Z</time></trkpt><trkpt lat="44.07658990807897" lon="9.98230444612713"><ele>3.0</ele><time>2026-05-02T08:21:27Z</time></trkpt><trkpt lat="44.076797042776484" lon="9.982032185517028"><ele>3.0</ele><time>2026-05-02T08:21:28Z</time></trkpt><trkpt lat="44.077004730987895" lon="9.981762008816892"><ele>3.5</ele><time>2026-05-02T08:21:29Z</time></trkpt><trkpt lat="44.07721880979776" lon="9.981490966250226"><ele>4.0</ele><time>2026-05-02T08:21:30Z</time></trkpt><trkpt lat="44.077434470627345" lon="9.98123280152025"><ele>3.5</ele><time>2026-05-02T08:21:31Z</time></trkpt><trkpt lat="44.0776491037336" lon="9.980981358723549"><ele>3.0</ele><time>2026-05-02T08:21:32Z</time></trkpt><trkpt lat="44.07786506388207" lon="9.980741450551568"><ele>3.0</ele><time>2026-05-02T08:21:33Z</time></trkpt><trkpt lat="44.07808606216679" lon="9.980501589529343"><ele>3.0</ele><time>2026-05-02T08:21:34Z</time></trkpt><trkpt lat="44.07830462441807" lon="9.98026844888218"><ele>2.5</ele><time>2026-05-02T08:21:35Z</time></trkpt><trkpt lat="44.078527408059166" lon="9.980038756382948"><ele>2.0</ele><time>2026-05-02T08:21:36Z</time></trkpt><trkpt lat="44.07875522095238" lon="9.979807712232878"><ele>1.5</ele><time>2026-05-02T08:21:37Z</time></trkpt><trkpt lat="44.07898798454967" lon="9.979586547438737"><ele>1.0</ele><time>2026-05-02T08:21:38Z</time></trkpt><trkpt lat="44.07922442320676" lon="9.97936451658604"><ele>1.5</ele><time>2026-05-02T08:21:39Z</time></trkpt><trkpt lat="44.07946276101909" lon="9.979153491949994"><ele>2.0</ele><time>2026-05-02T08:21:40Z</time></trkpt><trkpt lat="44.07969971692978" lon="9.978949220090788"><ele>2.5</ele><time>2026-05-02T08:21:41Z</time></trkpt><trkpt lat="44.07994458614277" lon="9.978745760378741"><ele>3.0</ele><time>2026-05-02T08:21:42Z</time></trkpt><trkpt lat="44.08019265035981" lon="9.97853994961017"><ele>2.5</ele><time>2026-05-02T08:21:43Z</time></trkpt><trkpt lat="44.08044894244618" lon="9.978337700125824"><ele>2.0</ele><time>2026-05-02T08:21:44Z</time></trkpt><trkpt lat="44.080706626487355" lon="9.97813710614959"><ele>2.5</ele><time>2026-05-02T08:21:45Z</time></trkpt><trkpt lat="44.08096458254576" lon="9.977935626079761"><ele>3.0</ele><time>2026-05-02T08:21:46Z</time></trkpt><trkpt lat="44.0812221894535" lon="9.977733211371895"><ele>3.0</ele><time>2026-05-02T08:21:47Z</time></trkpt><trkpt lat="44.0814751289932" lon="9.97753177532595"><ele>3.0</ele><time>2026-05-02T08:21:48Z</time></trkpt><trkpt lat="44.08172381879961" lon="9.977333712298432"><ele>2.5</ele><time>2026-05-02T08:21:49Z</time></trkpt><trkpt lat="44.0819649958107" lon="9.977139157388788"><ele>2.0</ele><time>2026-05-02T08:21:50Z</time></trkpt><trkpt lat="44.082199671536806" lon="9.976957062403494"><ele>2.0</ele><time>2026-05-02T08:21:51Z</time></trkpt><trkpt lat="44.082434509727776" lon="9.97677361123925"><ele>2.0</ele><time>2026-05-02T08:21:52Z</time></trkpt><trkpt lat="44.08266851256882" lon="9.976584250326555"><ele>2.5</ele><time>2026-05-02T08:21:53Z</time></trkpt><trkpt lat="44.082910040770884" lon="9.976395013231826"><ele>3.0</ele><time>2026-05-02T08:21:54Z</time></trkpt><trkpt lat="44.08314848556442" lon="9.976208737704068"><ele>3.0</ele><time>2026-05-02T08:21:55Z</time></trkpt><trkpt lat="44.08338921755309" lon="9.976018795300456"><ele>3.0</ele><time>2026-05-02T08:21:55.999Z</time></trkpt><trkpt lat="44.08362221699192" lon="9.975835129434946"><ele>3.5</ele><time>2026-05-02T08:21:56.999Z</time></trkpt><trkpt lat="44.08385349419556" lon="9.975656762761407"><ele>4.0</ele><time>2026-05-02T08:21:57.999Z</time></trkpt><trkpt lat="44.084084721447454" lon="9.975471710495052"><ele>2.5</ele><time>2026-05-02T08:21:58.999Z</time></trkpt><trkpt lat="44.08431161860152" lon="9.97529027540139"><ele>1.0</ele><time>2026-05-02T08:21:59.999Z</time></trkpt><trkpt lat="44.08454582804484" lon="9.975108038114984"><ele>2.0</ele><time>2026-05-02T08:22:00.999Z</time></trkpt><trkpt lat="44.08478502790708" lon="9.974921857845086"><ele>3.0</ele><time>2026-05-02T08:22:01.999Z</time></trkpt><trkpt lat="44.08502514900314" lon="9.974734357479656"><ele>3.0</ele><time>2026-05-02T08:22:02.999Z</time></trkpt><trkpt lat="44.08526720591627" lon="9.974540916492614"><ele>3.0</ele><time>2026-05-02T08:22:03.999Z</time></trkpt><trkpt lat="44.085516209251516" lon="9.974345361307037"><ele>2.0</ele><time>2026-05-02T08:22:04.999Z</time></trkpt><trkpt lat="44.085763069232506" lon="9.974146939667484"><ele>1.0</ele><time>2026-05-02T08:22:05.999Z</time></trkpt><trkpt lat="44.08601993686658" lon="9.973946134462244"><ele>1.0</ele><time>2026-05-02T08:22:06.999Z</time></trkpt><trkpt lat="44.08627724293426" lon="9.97374563375904"><ele>1.0</ele><time>2026-05-02T08:22:07.999Z</time></trkpt><trkpt lat="44.086536097312504" lon="9.973539613970349"><ele>2.5</ele><time>2026-05-02T08:22:08.999Z</time></trkpt><trkpt lat="44.08680981929329" lon="9.973324462432425"><ele>4.0</ele><time>2026-05-02T08:22:09.999Z</time></trkpt><trkpt lat="44.087084814471645" lon="9.97310445293111"><ele>4.0</ele><time>2026-05-02T08:22:10.999Z</time></trkpt><trkpt lat="44.087368501368815" lon="9.972876869583722"><ele>4.0</ele><time>2026-05-02T08:22:11.999Z</time></trkpt><trkpt lat="44.08764883068773" lon="9.972649930673082"><ele>4.0</ele><time>2026-05-02T08:22:12.999Z</time></trkpt><trkpt lat="44.08793191796911" lon="9.972427957285438"><ele>4.0</ele><time>2026-05-02T08:22:13.999Z</time></trkpt><trkpt lat="44.08821500970566" lon="9.972201635693297"><ele>5.0</ele><time>2026-05-02T08:22:14.999Z</time></trkpt><trkpt lat="44.088510906707036" lon="9.971964101256605"><ele>6.0</ele><time>2026-05-02T08:22:15.999Z</time></trkpt><trkpt lat="44.088821792633794" lon="9.971705320471996"><ele>6.0</ele><time>2026-05-02T08:22:16.999Z</time></trkpt><trkpt lat="44.08913309980896" lon="9.971441769408838"><ele>6.0</ele><time>2026-05-02T08:22:17.999Z</time></trkpt><trkpt lat="44.08945017984243" lon="9.97115844491045"><ele>6.0</ele><time>2026-05-02T08:22:18.999Z</time></trkpt><trkpt lat="44.08975855512108" lon="9.970880168868392"><ele>6.0</ele><time>2026-05-02T08:22:19.999Z</time></trkpt><trkpt lat="44.090057837370175" lon="9.970599197910685"><ele>6.0</ele><time>2026-05-02T08:22:20.999Z</time></trkpt><trkpt lat="44.09035239902214" lon="9.970314114539137"><ele>6.0</ele><time>2026-05-02T08:22:21.999Z</time></trkpt><trkpt lat="44.09064546942174" lon="9.970023736644187"><ele>5.0</ele><time>2026-05-02T08:22:22.999Z</time></trkpt><trkpt lat="44.09093585844694" lon="9.96972781440182"><ele>4.0</ele><time>2026-05-02T08:22:23.999Z</time></trkpt><trkpt lat="44.09122168214866" lon="9.969425821082332"><ele>3.5</ele><time>2026-05-02T08:22:24.999Z</time></trkpt><trkpt lat="44.09150232511849" lon="9.969121532140056"><ele>3.0</ele><time>2026-05-02T08:22:25.999Z</time></trkpt><trkpt lat="44.09177938908736" lon="9.968813958749907"><ele>3.0</ele><time>2026-05-02T08:22:26.999Z</time></trkpt><trkpt lat="44.09205223887236" lon="9.968501317486261"><ele>3.0</ele><time>2026-05-02T08:22:27.999Z</time></trkpt><trkpt lat="44.09231909176628" lon="9.968190139938773"><ele>3.0</ele><time>2026-05-02T08:22:28.999Z</time></trkpt><trkpt lat="44.09258334290484" lon="9.967878346905016"><ele>3.0</ele><time>2026-05-02T08:22:29.999Z</time></trkpt><trkpt lat="44.0928443449939" lon="9.96756436638662"><ele>3.5</ele><time>2026-05-02T08:22:30.999Z</time></trkpt><trkpt lat="44.09309974575943" lon="9.967244102748975"><ele>4.0</ele><time>2026-05-02T08:22:31.999Z</time></trkpt><trkpt lat="44.09335319763751" lon="9.966916576974507"><ele>4.5</ele><time>2026-05-02T08:22:32.999Z</time></trkpt><trkpt lat="44.093605422118166" lon="9.96657974666401"><ele>5.0</ele><time>2026-05-02T08:22:33.999Z</time></trkpt><trkpt lat="44.0938592068782" lon="9.966229604025584"><ele>5.0</ele><time>2026-05-02T08:22:34.999Z</time></trkpt><trkpt lat="44.09411498230205" lon="9.965868467285372"><ele>5.0</ele><time>2026-05-02T08:22:35.999Z</time></trkpt><trkpt lat="44.0943679539724" lon="9.965505126887063"><ele>5.0</ele><time>2026-05-02T08:22:36.999Z</time></trkpt><trkpt lat="44.094617120263706" lon="9.965138731469768"><ele>5.0</ele><time>2026-05-02T08:22:37.999Z</time></trkpt><trkpt lat="44.09486121701907" lon="9.964764332750578"><ele>5.0</ele><time>2026-05-02T08:22:38.999Z</time></trkpt><trkpt lat="44.095106117904606" lon="9.964380361823327"><ele>5.0</ele><time>2026-05-02T08:22:39.999Z</time></trkpt><trkpt lat="44.095348624920696" lon="9.96398973805443"><ele>5.0</ele><time>2026-05-02T08:22:40.999Z</time></trkpt><trkpt lat="44.09559175079373" lon="9.963590498971666"><ele>5.0</ele><time>2026-05-02T08:22:41.999Z</time></trkpt><trkpt lat="44.095833691755026" lon="9.963182767525264"><ele>5.0</ele><time>2026-05-02T08:22:42.999Z</time></trkpt><trkpt lat="44.09607227504498" lon="9.962766655386552"><ele>5.0</ele><time>2026-05-02T08:22:43.999Z</time></trkpt><trkpt lat="44.09630642021317" lon="9.96234229016101"><ele>5.0</ele><time>2026-05-02T08:22:44.999Z</time></trkpt><trkpt lat="44.09653806376057" lon="9.961910688868809"><ele>5.0</ele><time>2026-05-02T08:22:45.999Z</time></trkpt><trkpt lat="44.09677334847324" lon="9.961450912076002"><ele>5.0</ele><time>2026-05-02T08:22:46.999Z</time></trkpt><trkpt lat="44.09702265882315" lon="9.960958647860378"><ele>5.0</ele><time>2026-05-02T08:22:47.999Z</time></trkpt><trkpt lat="44.09727913182992" lon="9.960432441667335"><ele>4.0</ele><time>2026-05-02T08:22:48.999Z</time></trkpt><trkpt lat="44.09754666062909" lon="9.95990247261637"><ele>4.0</ele><time>2026-05-02T08:22:49.999Z</time></trkpt><trkpt lat="44.09780790097349" lon="9.959372347143749"><ele>3.0</ele><time>2026-05-02T08:22:50.999Z</time></trkpt><trkpt lat="44.09807808831754" lon="9.958833426225974"><ele>3.0</ele><time>2026-05-02T08:22:51.999Z</time></trkpt><trkpt lat="44.09821456065928" lon="9.958543096872368"><ele>3.0</ele><time>2026-05-02T08:22:52.999Z</time></trkpt><trkpt lat="44.09844974792386" lon="9.958069472864647"><ele>3.5</ele><time>2026-05-02T08:22:53.999Z</time></trkpt><trkpt lat="44.098679255293725" lon="9.95760872082864"><ele>4.0</ele><time>2026-05-02T08:22:54.999Z</time></trkpt><trkpt lat="44.0989002604439" lon="9.957159507361581"><ele>4.0</ele><time>2026-05-02T08:22:55.999Z</time></trkpt><trkpt lat="44.09911454660873" lon="9.956721168304691"><ele>4.0</ele><time>2026-05-02T08:22:56.999Z</time></trkpt><trkpt lat="44.0993219423817" lon="9.956293903984037"><ele>4.0</ele><time>2026-05-02T08:22:57.999Z</time></trkpt><trkpt lat="44.0995215582267" lon="9.955895075748472"><ele>4.0</ele><time>2026-05-02T08:22:58.999Z</time></trkpt><trkpt lat="44.09971355554023" lon="9.955523044056477"><ele>4.0</ele><time>2026-05-02T08:22:59.999Z</time></trkpt><trkpt lat="44.09989740564269" lon="9.955152512524746"><ele>4.0</ele><time>2026-05-02T08:23:00.999Z</time></trkpt><trkpt lat="44.10007818106508" lon="9.954791596066526"><ele>4.0</ele><time>2026-05-02T08:23:01.999Z</time></trkpt><trkpt lat="44.10025224407616" lon="9.954433565004907"><ele>4.0</ele><time>2026-05-02T08:23:02.999Z</time></trkpt><trkpt lat="44.100422259085065" lon="9.954076887869405"><ele>4.5</ele><time>2026-05-02T08:23:04Z</time></trkpt><trkpt lat="44.10058448003171" lon="9.95374560556469"><ele>5.0</ele><time>2026-05-02T08:23:05Z</time></trkpt><trkpt lat="44.100740676525454" lon="9.953426495326134"><ele>6.0</ele><time>2026-05-02T08:23:06Z</time></trkpt><trkpt lat="44.10089865399921" lon="9.953108421468459"><ele>7.0</ele><time>2026-05-02T08:23:07Z</time></trkpt><trkpt lat="44.10105833710648" lon="9.952783974549305"><ele>8.5</ele><time>2026-05-02T08:23:08Z</time></trkpt><trkpt lat="44.10121699185726" lon="9.952461901908901"><ele>10.0</ele><time>2026-05-02T08:23:09Z</time></trkpt><trkpt lat="44.10137873015471" lon="9.95214026693767"><ele>10.0</ele><time>2026-05-02T08:23:10Z</time></trkpt><trkpt lat="44.10153863029897" lon="9.951813329046175"><ele>10.0</ele><time>2026-05-02T08:23:11Z</time></trkpt><trkpt lat="44.10170503646865" lon="9.951483781592568"><ele>9.5</ele><time>2026-05-02T08:23:12Z</time></trkpt><trkpt lat="44.10186816849505" lon="9.951147513280677"><ele>9.0</ele><time>2026-05-02T08:23:13Z</time></trkpt><trkpt lat="44.10203322619291" lon="9.950811722526954"><ele>9.0</ele><time>2026-05-02T08:23:14Z</time></trkpt><trkpt lat="44.10220607737208" lon="9.950473977588208"><ele>9.0</ele><time>2026-05-02T08:23:15Z</time></trkpt><trkpt lat="44.10238857678834" lon="9.950142145641317"><ele>7.5</ele><time>2026-05-02T08:23:16Z</time></trkpt><trkpt lat="44.10258249597982" lon="9.949815728508664"><ele>6.0</ele><time>2026-05-02T08:23:17Z</time></trkpt><trkpt lat="44.102778307863396" lon="9.94950556830837"><ele>5.5</ele><time>2026-05-02T08:23:18Z</time></trkpt><trkpt lat="44.10297747797945" lon="9.949208392632332"><ele>5.0</ele><time>2026-05-02T08:23:19Z</time></trkpt><trkpt lat="44.10318263823135" lon="9.94891724658269"><ele>5.5</ele><time>2026-05-02T08:23:20Z</time></trkpt><trkpt lat="44.1033810208441" lon="9.948639276997866"><ele>6.0</ele><time>2026-05-02T08:23:21Z</time></trkpt><trkpt lat="44.10357527655656" lon="9.948380085005617"><ele>7.0</ele><time>2026-05-02T08:23:22Z</time></trkpt><trkpt lat="44.1037777034032" lon="9.94812416405446"><ele>8.0</ele><time>2026-05-02T08:23:23Z</time></trkpt><trkpt lat="44.103983461092646" lon="9.947868465942117"><ele>7.0</ele><time>2026-05-02T08:23:24Z</time></trkpt><trkpt lat="44.10419264192295" lon="9.947618777700805"><ele>6.0</ele><time>2026-05-02T08:23:25Z</time></trkpt><trkpt lat="44.104411701514714" lon="9.947361157130477"><ele>8.0</ele><time>2026-05-02T08:23:26Z</time></trkpt><trkpt lat="44.104643283087015" lon="9.947103033166877"><ele>10.0</ele><time>2026-05-02T08:23:27Z</time></trkpt><trkpt lat="44.10488253595684" lon="9.94685176049164"><ele>9.5</ele><time>2026-05-02T08:23:28Z</time></trkpt><trkpt lat="44.10512337080186" lon="9.946605354286627"><ele>9.0</ele><time>2026-05-02T08:23:29Z</time></trkpt><trkpt lat="44.10536330334618" lon="9.94637350270711"><ele>9.0</ele><time>2026-05-02T08:23:30Z</time></trkpt><trkpt lat="44.10560463980525" lon="9.946142544167671"><ele>9.0</ele><time>2026-05-02T08:23:31Z</time></trkpt><trkpt lat="44.10584564583524" lon="9.945939310717398"><ele>8.0</ele><time>2026-05-02T08:23:32Z</time></trkpt><trkpt lat="44.10609531225579" lon="9.945729492125778"><ele>7.0</ele><time>2026-05-02T08:23:33Z</time></trkpt><trkpt lat="44.106351763833516" lon="9.9455245359053"><ele>7.0</ele><time>2026-05-02T08:23:34Z</time></trkpt><trkpt lat="44.106613233206225" lon="9.945327994478308"><ele>7.0</ele><time>2026-05-02T08:23:35Z</time></trkpt><trkpt lat="44.106883541034925" lon="9.945137835732297"><ele>7.0</ele><time>2026-05-02T08:23:36Z</time></trkpt><trkpt lat="44.107157906052244" lon="9.944951552400003"><ele>7.0</ele><time>2026-05-02T08:23:37Z</time></trkpt><trkpt lat="44.107434610573875" lon="9.944778232917018"><ele>7.5</ele><time>2026-05-02T08:23:38Z</time></trkpt><trkpt lat="44.107711045068115" lon="9.944613915386835"><ele>8.0</ele><time>2026-05-02T08:23:39Z</time></trkpt><trkpt lat="44.10798269942807" lon="9.944455236018657"><ele>8.5</ele><time>2026-05-02T08:23:40Z</time></trkpt><trkpt lat="44.108259021754606" lon="9.944295378658314"><ele>9.0</ele><time>2026-05-02T08:23:41Z</time></trkpt><trkpt lat="44.10853961916867" lon="9.9441372961526"><ele>9.0</ele><time>2026-05-02T08:23:42Z</time></trkpt><trkpt lat="44.108816810923585" lon="9.943973079573004"><ele>9.0</ele><time>2026-05-02T08:23:43Z</time></trkpt><trkpt lat="44.10909134470198" lon="9.943807573891297"><ele>9.5</ele><time>2026-05-02T08:23:44Z</time></trkpt><trkpt lat="44.10936433441138" lon="9.943647730040427"><ele>10.0</ele><time>2026-05-02T08:23:45Z</time></trkpt><trkpt lat="44.1096390454561" lon="9.943487520887128"><ele>11.0</ele><time>2026-05-02T08:23:46Z</time></trkpt><trkpt lat="44.1099192265306" lon="9.943324821030535"><ele>12.0</ele><time>2026-05-02T08:23:47Z</time></trkpt><trkpt lat="44.11020140468015" lon="9.943158518112174"><ele>12.0</ele><time>2026-05-02T08:23:48Z</time></trkpt><trkpt lat="44.11047726046197" lon="9.942994238851393"><ele>12.0</ele><time>2026-05-02T08:23:49Z</time></trkpt><trkpt lat="44.11075301862337" lon="9.942833053042387"><ele>11.0</ele><time>2026-05-02T08:23:50Z</time></trkpt><trkpt lat="44.11103139729615" lon="9.942668694591317"><ele>10.0</ele><time>2026-05-02T08:23:51Z</time></trkpt><trkpt lat="44.111313698044924" lon="9.942504681269831"><ele>10.0</ele><time>2026-05-02T08:23:52Z</time></trkpt><trkpt lat="44.11159711838602" lon="9.94234215302881"><ele>10.0</ele><time>2026-05-02T08:23:53Z</time></trkpt><trkpt lat="44.11188912521111" lon="9.942169034984923"><ele>10.0</ele><time>2026-05-02T08:23:54Z</time></trkpt><trkpt lat="44.11218830116354" lon="9.941996593056366"><ele>10.0</ele><time>2026-05-02T08:23:55Z</time></trkpt><trkpt lat="44.1124918351656" lon="9.941820595393027"><ele>9.0</ele><time>2026-05-02T08:23:56Z</time></trkpt><trkpt lat="44.112804613146324" lon="9.94163869169912"><ele>8.0</ele><time>2026-05-02T08:23:57Z</time></trkpt><trkpt lat="44.113119914308385" lon="9.941456792427946"><ele>8.0</ele><time>2026-05-02T08:23:58Z</time></trkpt><trkpt lat="44.11343946440282" lon="9.941270731153395"><ele>8.0</ele><time>2026-05-02T08:23:59Z</time></trkpt><trkpt lat="44.11376361962113" lon="9.941080334317897"><ele>8.0</ele><time>2026-05-02T08:24:00Z</time></trkpt><trkpt lat="44.11409327643326" lon="9.940889045529438"><ele>8.0</ele><time>2026-05-02T08:24:01Z</time></trkpt><trkpt lat="44.114428421162486" lon="9.940693916946609"><ele>7.5</ele><time>2026-05-02T08:24:02Z</time></trkpt><trkpt lat="44.11476349780586" lon="9.940496961384659"><ele>7.0</ele><time>2026-05-02T08:24:02.999Z</time></trkpt><trkpt lat="44.11510290562995" lon="9.940298648626914"><ele>7.0</ele><time>2026-05-02T08:24:03.999Z</time></trkpt><trkpt lat="44.11544509816909" lon="9.940095047138056"><ele>7.0</ele><time>2026-05-02T08:24:04.999Z</time></trkpt><trkpt lat="44.11578854278107" lon="9.939893071935566"><ele>8.0</ele><time>2026-05-02T08:24:05.999Z</time></trkpt><trkpt lat="44.116132776931046" lon="9.939693156635363"><ele>9.0</ele><time>2026-05-02T08:24:06.999Z</time></trkpt><trkpt lat="44.11647726599926" lon="9.939493892294957"><ele>9.0</ele><time>2026-05-02T08:24:07.999Z</time></trkpt><trkpt lat="44.116820878327175" lon="9.939292890230785"><ele>9.0</ele><time>2026-05-02T08:24:08.999Z</time></trkpt><trkpt lat="44.11716355639493" lon="9.939089382763676"><ele>9.5</ele><time>2026-05-02T08:24:09.999Z</time></trkpt><trkpt lat="44.11750178039942" lon="9.938892049461987"><ele>10.0</ele><time>2026-05-02T08:24:10.999Z</time></trkpt><trkpt lat="44.117838743944795" lon="9.938692671050815"><ele>10.0</ele><time>2026-05-02T08:24:11.999Z</time></trkpt><trkpt lat="44.11817673379871" lon="9.938491709241337"><ele>10.0</ele><time>2026-05-02T08:24:12.999Z</time></trkpt><trkpt lat="44.118511650749355" lon="9.938293410730308"><ele>10.0</ele><time>2026-05-02T08:24:13.999Z</time></trkpt><trkpt lat="44.11885120931892" lon="9.938094844357364"><ele>10.0</ele><time>2026-05-02T08:24:14.999Z</time></trkpt><trkpt lat="44.119190214459245" lon="9.937898773580894"><ele>10.5</ele><time>2026-05-02T08:24:15.999Z</time></trkpt><trkpt lat="44.11953360131489" lon="9.937695808344722"><ele>11.0</ele><time>2026-05-02T08:24:16.999Z</time></trkpt><trkpt lat="44.11986316285505" lon="9.937497710145701"><ele>10.0</ele><time>2026-05-02T08:24:17.999Z</time></trkpt><trkpt lat="44.12020202375787" lon="9.937284812011814"><ele>9.0</ele><time>2026-05-02T08:24:18.999Z</time></trkpt><trkpt lat="44.12053114963446" lon="9.937067959239991"><ele>9.0</ele><time>2026-05-02T08:24:19.999Z</time></trkpt><trkpt lat="44.1208499022362" lon="9.936840717782049"><ele>9.0</ele><time>2026-05-02T08:24:20.999Z</time></trkpt><trkpt lat="44.12116910555375" lon="9.936601384254743"><ele>9.0</ele><time>2026-05-02T08:24:21.999Z</time></trkpt><trkpt lat="44.12148563025713" lon="9.936354234485279"><ele>9.0</ele><time>2026-05-02T08:24:22.999Z</time></trkpt><trkpt lat="44.121801057107184" lon="9.936096575503466"><ele>9.0</ele><time>2026-05-02T08:24:23.999Z</time></trkpt><trkpt lat="44.12211423379953" lon="9.935827247711664"><ele>9.0</ele><time>2026-05-02T08:24:24.999Z</time></trkpt><trkpt lat="44.122420099260815" lon="9.935552614803312"><ele>9.0</ele><time>2026-05-02T08:24:25.999Z</time></trkpt><trkpt lat="44.12272778636645" lon="9.935262661905101"><ele>9.0</ele><time>2026-05-02T08:24:26.999Z</time></trkpt><trkpt lat="44.12303375341152" lon="9.934967756384975"><ele>9.5</ele><time>2026-05-02T08:24:27.999Z</time></trkpt><trkpt lat="44.12333970915843" lon="9.934655837887028"><ele>10.0</ele><time>2026-05-02T08:24:28.999Z</time></trkpt><trkpt lat="44.12365604467036" lon="9.934325612036583"><ele>10.0</ele><time>2026-05-02T08:24:29.999Z</time></trkpt><trkpt lat="44.12397879526868" lon="9.933966559893646"><ele>10.0</ele><time>2026-05-02T08:24:30.999Z</time></trkpt><trkpt lat="44.124300348529886" lon="9.933591539434962"><ele>10.0</ele><time>2026-05-02T08:24:31.999Z</time></trkpt><trkpt lat="44.12462300436056" lon="9.933186700708356"><ele>10.0</ele><time>2026-05-02T08:24:32.999Z</time></trkpt><trkpt lat="44.12494927812855" lon="9.932768163863054"><ele>9.0</ele><time>2026-05-02T08:24:33.999Z</time></trkpt><trkpt lat="44.1252812487533" lon="9.932335028370465"><ele>9.0</ele><time>2026-05-02T08:24:34.999Z</time></trkpt><trkpt lat="44.12561963320331" lon="9.93189869680653"><ele>12.0</ele><time>2026-05-02T08:24:35.999Z</time></trkpt><trkpt lat="44.12595311519209" lon="9.931470182642856"><ele>12.0</ele><time>2026-05-02T08:24:36.999Z</time></trkpt><trkpt lat="44.12628984740667" lon="9.931040443290202"><ele>13.0</ele><time>2026-05-02T08:24:37.999Z</time></trkpt><trkpt lat="44.126629135278364" lon="9.930600372656126"><ele>13.0</ele><time>2026-05-02T08:24:38.999Z</time></trkpt><trkpt lat="44.126971359135524" lon="9.930158325913785"><ele>11.0</ele><time>2026-05-02T08:24:39.999Z</time></trkpt><trkpt lat="44.127312575058056" lon="9.9297161395285"><ele>11.0</ele><time>2026-05-02T08:24:40.999Z</time></trkpt><trkpt lat="44.12765113066928" lon="9.929279295602722"><ele>9.0</ele><time>2026-05-02T08:24:41.999Z</time></trkpt><trkpt lat="44.1279865561166" lon="9.928851585510916"><ele>11.0</ele><time>2026-05-02T08:24:42.999Z</time></trkpt><trkpt lat="44.1283178691849" lon="9.928426041768171"><ele>11.5</ele><time>2026-05-02T08:24:43.999Z</time></trkpt><trkpt lat="44.12864578350306" lon="9.92800451266495"><ele>12.0</ele><time>2026-05-02T08:24:44.999Z</time></trkpt><trkpt lat="44.128967592550744" lon="9.927591340563566"><ele>12.0</ele><time>2026-05-02T08:24:45.999Z</time></trkpt><trkpt lat="44.12928284785682" lon="9.927186901440265"><ele>12.0</ele><time>2026-05-02T08:24:46.999Z</time></trkpt><trkpt lat="44.12959043746967" lon="9.926795654288583"><ele>12.0</ele><time>2026-05-02T08:24:47.999Z</time></trkpt><trkpt lat="44.12987483191359" lon="9.926432321781993"><ele>12.0</ele><time>2026-05-02T08:24:48.999Z</time></trkpt><trkpt lat="44.130140740491804" lon="9.926089462789033"><ele>11.5</ele><time>2026-05-02T08:24:49.999Z</time></trkpt><trkpt lat="44.13040155986302" lon="9.925758959645524"><ele>11.0</ele><time>2026-05-02T08:24:50.999Z</time></trkpt><trkpt lat="44.130661924272296" lon="9.92542585852891"><ele>11.0</ele><time>2026-05-02T08:24:51.999Z</time></trkpt><trkpt lat="44.130922472542125" lon="9.925096202034016"><ele>11.0</ele><time>2026-05-02T08:24:52.999Z</time></trkpt><trkpt lat="44.131172644846984" lon="9.924778556929091"><ele>11.5</ele><time>2026-05-02T08:24:53.999Z</time></trkpt><trkpt lat="44.131413411244125" lon="9.924474147756168"><ele>12.0</ele><time>2026-05-02T08:24:54.999Z</time></trkpt><trkpt lat="44.131655819557416" lon="9.924163765502641"><ele>12.5</ele><time>2026-05-02T08:24:55.999Z</time></trkpt><trkpt lat="44.13189960074368" lon="9.923850560012603"><ele>13.0</ele><time>2026-05-02T08:24:56.999Z</time></trkpt><trkpt lat="44.13213447735908" lon="9.923550446951765"><ele>12.5</ele><time>2026-05-02T08:24:57.999Z</time></trkpt><trkpt lat="44.132366866159074" lon="9.923257961185229"><ele>12.0</ele><time>2026-05-02T08:24:58.999Z</time></trkpt><trkpt lat="44.13259863660097" lon="9.92297350245465"><ele>12.0</ele><time>2026-05-02T08:24:59.999Z</time></trkpt><trkpt lat="44.132831609511825" lon="9.922690676100604"><ele>12.0</ele><time>2026-05-02T08:25:00.999Z</time></trkpt><trkpt lat="44.13306765401314" lon="9.92240548656885"><ele>11.5</ele><time>2026-05-02T08:25:01.999Z</time></trkpt><trkpt lat="44.13329589802968" lon="9.922116216357068"><ele>11.0</ele><time>2026-05-02T08:25:02.999Z</time></trkpt><trkpt lat="44.13352134444722" lon="9.9218253308101"><ele>10.5</ele><time>2026-05-02T08:25:03.999Z</time></trkpt><trkpt lat="44.13373743531046" lon="9.92154915153323"><ele>10.0</ele><time>2026-05-02T08:25:04.999Z</time></trkpt><trkpt lat="44.13394552144123" lon="9.92128405200042"><ele>9.5</ele><time>2026-05-02T08:25:05.999Z</time></trkpt><trkpt lat="44.134138815676174" lon="9.92103615862504"><ele>9.0</ele><time>2026-05-02T08:25:06.999Z</time></trkpt><trkpt lat="44.13432521712163" lon="9.920796054969044"><ele>9.0</ele><time>2026-05-02T08:25:07.999Z</time></trkpt><trkpt lat="44.13451184257535" lon="9.920556824538744"><ele>9.0</ele><time>2026-05-02T08:25:08.999Z</time></trkpt><trkpt lat="44.13469122040235" lon="9.920328712117849"><ele>9.0</ele><time>2026-05-02T08:25:10Z</time></trkpt><trkpt lat="44.13486568716878" lon="9.920109599157401"><ele>9.0</ele><time>2026-05-02T08:25:11Z</time></trkpt><trkpt lat="44.13503402540353" lon="9.91990380394551"><ele>10.666666666666668</ele><time>2026-05-02T08:25:12Z</time></trkpt><trkpt lat="44.13519394639168" lon="9.919705287376797"><ele>12.333333333333334</ele><time>2026-05-02T08:25:13Z</time></trkpt><trkpt lat="44.135354060140344" lon="9.919506911982516"><ele>14.0</ele><time>2026-05-02T08:25:14Z</time></trkpt><trkpt lat="44.13550415929751" lon="9.919312544559741"><ele>14.0</ele><time>2026-05-02T08:25:15Z</time></trkpt><trkpt lat="44.13564634273675" lon="9.919135178299664"><ele>14.0</ele><time>2026-05-02T08:25:16Z</time></trkpt><trkpt lat="44.13577828621921" lon="9.91897065348416"><ele>14.0</ele><time>2026-05-02T08:25:17Z</time></trkpt><trkpt lat="44.13590207586495" lon="9.918813238345018"><ele>13.25</ele><time>2026-05-02T08:25:18Z</time></trkpt><trkpt lat="44.136015056721554" lon="9.918670286354956"><ele>12.5</ele><time>2026-05-02T08:25:19Z</time></trkpt><trkpt lat="44.13612597370474" lon="9.91853788175567"><ele>11.75</ele><time>2026-05-02T08:25:20Z</time></trkpt><trkpt lat="44.13623139123252" lon="9.918421184196916"><ele>11.0</ele><time>2026-05-02T08:25:21Z</time></trkpt><trkpt lat="44.1363289353617" lon="9.91832477699512"><ele>11.0</ele><time>2026-05-02T08:25:22Z</time></trkpt><trkpt lat="44.136422268232316" lon="9.918254625615884"><ele>11.0</ele><time>2026-05-02T08:25:23Z</time></trkpt><trkpt lat="44.13651292465466" lon="9.91819709554656"><ele>11.0</ele><time>2026-05-02T08:25:24Z</time></trkpt><trkpt lat="44.13659800952819" lon="9.918145668711162"><ele>11.0</ele><time>2026-05-02T08:25:25Z</time></trkpt><trkpt lat="44.13667686074086" lon="9.918089259972156"><ele>11.0</ele><time>2026-05-02T08:25:26Z</time></trkpt><trkpt lat="44.13674424789182" lon="9.918027789231845"><ele>11.166666666666666</ele><time>2026-05-02T08:25:27Z</time></trkpt><trkpt lat="44.1368109475494" lon="9.917957760633763"><ele>11.333333333333332</ele><time>2026-05-02T08:25:28Z</time></trkpt><trkpt lat="44.136868427074056" lon="9.91789373913777"><ele>11.5</ele><time>2026-05-02T08:25:29Z</time></trkpt><trkpt lat="44.13692344335222" lon="9.917840027915208"><ele>11.666666666666666</ele><time>2026-05-02T08:25:30Z</time></trkpt><trkpt lat="44.13701301733582" lon="9.917774557174148"><ele>11.833333333333334</ele><time>2026-05-02T08:25:32Z</time></trkpt><trkpt lat="44.13708660044272" lon="9.917710323349345"><ele>12.0</ele><time>2026-05-02T08:25:34Z</time></trkpt><trkpt lat="44.13713615795171" lon="9.917634499035312"><ele>12.166666666666666</ele><time>2026-05-02T08:25:36Z</time></trkpt><trkpt lat="44.137185966425015" lon="9.917562779083559"><ele>12.333333333333332</ele><time>2026-05-02T08:25:38Z</time></trkpt><trkpt lat="44.13723990637256" lon="9.917478560525344"><ele>12.5</ele><time>2026-05-02T08:25:40Z</time></trkpt><trkpt lat="44.137288925220396" lon="9.917411926686766"><ele>12.666666666666666</ele><time>2026-05-02T08:25:42Z</time></trkpt><trkpt lat="44.137344578040654" lon="9.917343804479835"><ele>12.833333333333332</ele><time>2026-05-02T08:25:45Z</time></trkpt><trkpt lat="44.137429898387374" lon="9.91727921670816"><ele>13.0</ele><time>2026-05-02T08:25:48Z</time></trkpt><trkpt lat="44.137505609704576" lon="9.91715385816005"><ele>13.2</ele><time>2026-05-02T08:25:50Z</time></trkpt><trkpt lat="44.13758074666124" lon="9.917063246924204"><ele>13.4</ele><time>2026-05-02T08:25:52Z</time></trkpt><trkpt lat="44.13764047032343" lon="9.916997525673866"><ele>13.599999999999998</ele><time>2026-05-02T08:25:54Z</time></trkpt><trkpt lat="44.13769987164276" lon="9.916920503528422"><ele>13.799999999999999</ele><time>2026-05-02T08:25:56Z</time></trkpt><trkpt lat="44.13781879836563" lon="9.916903008506242"><ele>14.0</ele><time>2026-05-02T08:25:58Z</time></trkpt><trkpt lat="44.13791774984366" lon="9.91685305387426"><ele>14.0</ele><time>2026-05-02T08:26:00Z</time></trkpt><trkpt lat="44.13800410553659" lon="9.916851850394657"><ele>13.999999999999998</ele><time>2026-05-02T08:26:02Z</time></trkpt><trkpt lat="44.1380628478797" lon="9.916793488270427"><ele>13.999999999999998</ele><time>2026-05-02T08:26:05Z</time></trkpt><trkpt lat="44.13806790163224" lon="9.916666476060003"><ele>14.0</ele><time>2026-05-02T08:36:47.999Z</time></trkpt><trkpt lat="44.13802587575037" lon="9.916547630730824"><ele>14.0</ele><time>2026-05-02T08:36:49.999Z</time></trkpt><trkpt lat="44.13809015231531" lon="9.916399350866667"><ele>14.000000000000002</ele><time>2026-05-02T08:36:51.999Z</time></trkpt><trkpt lat="44.13815438393231" lon="9.91632776861601"><ele>14.0</ele><time>2026-05-02T08:36:52.999Z</time></trkpt><trkpt lat="44.138223388459366" lon="9.916253151652283"><ele>14.0</ele><time>2026-05-02T08:36:53.999Z</time></trkpt><trkpt lat="44.1382894714736" lon="9.916167020538037"><ele>14.0</ele><time>2026-05-02T08:36:54.999Z</time></trkpt><trkpt lat="44.138346991085356" lon="9.916088159530515"><ele>14.000000000000002</ele><time>2026-05-02T08:36:55.999Z</time></trkpt><trkpt lat="44.13839786806605" lon="9.915992380631872"><ele>14.0</ele><time>2026-05-02T08:36:56.999Z</time></trkpt><trkpt lat="44.138447375880276" lon="9.915868619241978"><ele>14.0</ele><time>2026-05-02T08:36:57.999Z</time></trkpt><trkpt lat="44.138489847943006" lon="9.915727207164757"><ele>14.0</ele><time>2026-05-02T08:36:58.999Z</time></trkpt><trkpt lat="44.13852551492633" lon="9.915564823798846"><ele>14.0</ele><time>2026-05-02T08:36:59.999Z</time></trkpt><trkpt lat="44.13859560173615" lon="9.915396223950923"><ele>14.0</ele><time>2026-05-02T08:37:00.999Z</time></trkpt><trkpt lat="44.13868437367404" lon="9.915252245463622"><ele>14.0</ele><time>2026-05-02T08:37:01.999Z</time></trkpt><trkpt lat="44.1387835994953" lon="9.915106908529454"><ele>14.0</ele><time>2026-05-02T08:37:02.999Z</time></trkpt><trkpt lat="44.138906703142645" lon="9.914951423840893"><ele>14.0</ele><time>2026-05-02T08:37:03.999Z</time></trkpt><trkpt lat="44.139050821149425" lon="9.914775496716594"><ele>13.0</ele><time>2026-05-02T08:37:04.999Z</time></trkpt><trkpt lat="44.13922805807075" lon="9.91456213316975"><ele>12.0</ele><time>2026-05-02T08:37:05.999Z</time></trkpt><trkpt lat="44.139426875549454" lon="9.914326982927536"><ele>13.0</ele><time>2026-05-02T08:37:06.999Z</time></trkpt><trkpt lat="44.13965122608132" lon="9.914069030624052"><ele>14.0</ele><time>2026-05-02T08:37:07.999Z</time></trkpt><trkpt lat="44.139884293037355" lon="9.913794979986418"><ele>14.5</ele><time>2026-05-02T08:37:08.999Z</time></trkpt><trkpt lat="44.140133849768056" lon="9.91351225454513"><ele>15.0</ele><time>2026-05-02T08:37:09.999Z</time></trkpt><trkpt lat="44.14037823625148" lon="9.91326108998645"><ele>15.5</ele><time>2026-05-02T08:37:10.999Z</time></trkpt><trkpt lat="44.140616617501934" lon="9.913027913789218"><ele>16.0</ele><time>2026-05-02T08:37:11.999Z</time></trkpt><trkpt lat="44.140851947875696" lon="9.91279928330577"><ele>15.5</ele><time>2026-05-02T08:37:12.999Z</time></trkpt><trkpt lat="44.1410828864303" lon="9.912586885360257"><ele>15.0</ele><time>2026-05-02T08:37:13.999Z</time></trkpt><trkpt lat="44.14130676117597" lon="9.912386978691597"><ele>15.0</ele><time>2026-05-02T08:37:14.999Z</time></trkpt><trkpt lat="44.141526100940965" lon="9.912198056257612"><ele>15.0</ele><time>2026-05-02T08:37:15.999Z</time></trkpt><trkpt lat="44.14175685117027" lon="9.911990091301817"><ele>14.5</ele><time>2026-05-02T08:37:16.999Z</time></trkpt><trkpt lat="44.14200714268086" lon="9.911763032981554"><ele>14.0</ele><time>2026-05-02T08:37:17.999Z</time></trkpt><trkpt lat="44.14228212234531" lon="9.911536598352344"><ele>16.0</ele><time>2026-05-02T08:37:18.999Z</time></trkpt><trkpt lat="44.142573326835006" lon="9.911309192445444"><ele>18.0</ele><time>2026-05-02T08:37:19.999Z</time></trkpt><trkpt lat="44.14287098251415" lon="9.911079165417041"><ele>17.0</ele><time>2026-05-02T08:37:20.999Z</time></trkpt><trkpt lat="44.143173208054456" lon="9.910849489884443"><ele>16.0</ele><time>2026-05-02T08:37:21.999Z</time></trkpt><trkpt lat="44.14347466160957" lon="9.910623202969775"><ele>16.0</ele><time>2026-05-02T08:37:22.999Z</time></trkpt><trkpt lat="44.14377572731038" lon="9.910396362896615"><ele>16.0</ele><time>2026-05-02T08:37:23.999Z</time></trkpt><trkpt lat="44.14407787082192" lon="9.910165282723701"><ele>16.0</ele><time>2026-05-02T08:37:24.999Z</time></trkpt><trkpt lat="44.1443769574602" lon="9.909940938271152"><ele>16.0</ele><time>2026-05-02T08:37:25.999Z</time></trkpt><trkpt lat="44.14467193657548" lon="9.909720781147241"><ele>15.5</ele><time>2026-05-02T08:37:26.999Z</time></trkpt><trkpt lat="44.144965661503726" lon="9.90949759335622"><ele>15.0</ele><time>2026-05-02T08:37:27.999Z</time></trkpt><trkpt lat="44.14525337958211" lon="9.909274108392333"><ele>15.0</ele><time>2026-05-02T08:37:28.999Z</time></trkpt><trkpt lat="44.14553764686439" lon="9.909050661675836"><ele>15.0</ele><time>2026-05-02T08:37:29.999Z</time></trkpt><trkpt lat="44.14581776706612" lon="9.908823581066164"><ele>14.0</ele><time>2026-05-02T08:37:30.999Z</time></trkpt><trkpt lat="44.14609743266847" lon="9.908604507402275"><ele>13.0</ele><time>2026-05-02T08:37:31.999Z</time></trkpt><trkpt lat="44.14638215698306" lon="9.908381836181464"><ele>13.5</ele><time>2026-05-02T08:37:32.999Z</time></trkpt><trkpt lat="44.14666985669711" lon="9.908156429151672"><ele>14.0</ele><time>2026-05-02T08:37:33.999Z</time></trkpt><trkpt lat="44.146962729113405" lon="9.907931600701486"><ele>14.0</ele><time>2026-05-02T08:37:34.999Z</time></trkpt><trkpt lat="44.14725817241062" lon="9.907704357667814"><ele>14.0</ele><time>2026-05-02T08:37:35.999Z</time></trkpt><trkpt lat="44.14755470674547" lon="9.907478396333513"><ele>14.5</ele><time>2026-05-02T08:37:36.999Z</time></trkpt><trkpt lat="44.14784328073447" lon="9.907254196529427"><ele>15.0</ele><time>2026-05-02T08:37:37.999Z</time></trkpt><trkpt lat="44.14813345190343" lon="9.907031449392138"><ele>15.0</ele><time>2026-05-02T08:37:38.999Z</time></trkpt><trkpt lat="44.148425561151925" lon="9.90682109070531"><ele>15.0</ele><time>2026-05-02T08:37:39.999Z</time></trkpt><trkpt lat="44.14871479077708" lon="9.906617947812004"><ele>15.0</ele><time>2026-05-02T08:37:40.999Z</time></trkpt><trkpt lat="44.14899649865638" lon="9.90641531598237"><ele>15.0</ele><time>2026-05-02T08:37:41.999Z</time></trkpt><trkpt lat="44.149274132086425" lon="9.90621240468786"><ele>15.0</ele><time>2026-05-02T08:37:42.999Z</time></trkpt><trkpt lat="44.14954331124698" lon="9.906008561485727"><ele>15.0</ele><time>2026-05-02T08:37:43.999Z</time></trkpt><trkpt lat="44.1498110107199" lon="9.905807687774054"><ele>16.0</ele><time>2026-05-02T08:37:44.999Z</time></trkpt><trkpt lat="44.150078667849236" lon="9.905599099267603"><ele>17.0</ele><time>2026-05-02T08:37:45.998Z</time></trkpt><trkpt lat="44.1503356569931" lon="9.905403102533406"><ele>17.0</ele><time>2026-05-02T08:37:46.998Z</time></trkpt><trkpt lat="44.150580254154136" lon="9.90521223857873"><ele>17.0</ele><time>2026-05-02T08:37:47.998Z</time></trkpt><trkpt lat="44.150808235229285" lon="9.905032427149632"><ele>17.5</ele><time>2026-05-02T08:37:48.999Z</time></trkpt><trkpt lat="44.151023834857845" lon="9.904868375053816"><ele>18.0</ele><time>2026-05-02T08:37:49.999Z</time></trkpt><trkpt lat="44.151251491166775" lon="9.90472242732663"><ele>18.0</ele><time>2026-05-02T08:37:50.999Z</time></trkpt><trkpt lat="44.15149648940086" lon="9.90461899713901"><ele>18.0</ele><time>2026-05-02T08:37:51.999Z</time></trkpt><trkpt lat="44.1517575258182" lon="9.904548449630301"><ele>18.5</ele><time>2026-05-02T08:37:52.999Z</time></trkpt><trkpt lat="44.15203266135421" lon="9.904504978057238"><ele>19.0</ele><time>2026-05-02T08:37:53.999Z</time></trkpt><trkpt lat="44.15231113952376" lon="9.904462190739931"><ele>18.5</ele><time>2026-05-02T08:37:54.999Z</time></trkpt><trkpt lat="44.15259544593117" lon="9.904409662656553"><ele>18.0</ele><time>2026-05-02T08:37:55.999Z</time></trkpt><trkpt lat="44.1528806040313" lon="9.904354714773602"><ele>18.0</ele><time>2026-05-02T08:37:56.999Z</time></trkpt><trkpt lat="44.15316743904293" lon="9.904303938913923"><ele>18.0</ele><time>2026-05-02T08:37:57.999Z</time></trkpt><trkpt lat="44.15345263011969" lon="9.904251473268044"><ele>16.5</ele><time>2026-05-02T08:37:58.999Z</time></trkpt><trkpt lat="44.153737311025566" lon="9.904200651922663"><ele>15.0</ele><time>2026-05-02T08:37:59.999Z</time></trkpt><trkpt lat="44.15402316277821" lon="9.904148500255323"><ele>17.5</ele><time>2026-05-02T08:38:00.999Z</time></trkpt><trkpt lat="44.15429723037081" lon="9.90409974251935"><ele>20.0</ele><time>2026-05-02T08:38:01.999Z</time></trkpt><trkpt lat="44.154558623802686" lon="9.904060665389844"><ele>20.0</ele><time>2026-05-02T08:38:02.999Z</time></trkpt><trkpt lat="44.154809829325025" lon="9.904042994561177"><ele>20.0</ele><time>2026-05-02T08:38:03.999Z</time></trkpt><trkpt lat="44.15506099163317" lon="9.904051732789869"><ele>18.5</ele><time>2026-05-02T08:38:04.999Z</time></trkpt><trkpt lat="44.15531613130134" lon="9.904097448627645"><ele>17.0</ele><time>2026-05-02T08:38:05.999Z</time></trkpt><trkpt lat="44.155571295171185" lon="9.904176333694345"><ele>19.0</ele><time>2026-05-02T08:38:06.999Z</time></trkpt><trkpt lat="44.15582976701565" lon="9.904285717768557"><ele>21.0</ele><time>2026-05-02T08:38:07.999Z</time></trkpt><trkpt lat="44.15608464406354" lon="9.904413724157038"><ele>21.0</ele><time>2026-05-02T08:38:08.999Z</time></trkpt><trkpt lat="44.156345941694376" lon="9.904540327647329"><ele>21.0</ele><time>2026-05-02T08:38:09.999Z</time></trkpt><trkpt lat="44.156614543385984" lon="9.904662809533866"><ele>21.0</ele><time>2026-05-02T08:38:10.999Z</time></trkpt><trkpt lat="44.15689149471556" lon="9.904790724712607"><ele>21.0</ele><time>2026-05-02T08:38:11.999Z</time></trkpt><trkpt lat="44.15717054103543" lon="9.904925165704032"><ele>20.0</ele><time>2026-05-02T08:38:12.999Z</time></trkpt><trkpt lat="44.15745496516554" lon="9.905058851717824"><ele>19.0</ele><time>2026-05-02T08:38:13.999Z</time></trkpt><trkpt lat="44.15774288427788" lon="9.905194086655325"><ele>19.0</ele><time>2026-05-02T08:38:14.999Z</time></trkpt><trkpt lat="44.1580379754818" lon="9.905331187369622"><ele>19.0</ele><time>2026-05-02T08:38:15.999Z</time></trkpt><trkpt lat="44.15833286574787" lon="9.905471373600978"><ele>20.5</ele><time>2026-05-02T08:38:16.999Z</time></trkpt><trkpt lat="44.158633341055236" lon="9.905608801238513"><ele>22.0</ele><time>2026-05-02T08:38:17.999Z</time></trkpt><trkpt lat="44.15893280528129" lon="9.905746781321175"><ele>22.0</ele><time>2026-05-02T08:38:18.999Z</time></trkpt><trkpt lat="44.159230040721226" lon="9.905891417629794"><ele>22.0</ele><time>2026-05-02T08:38:19.999Z</time></trkpt><trkpt lat="44.15952333121091" lon="9.906047767976933"><ele>22.0</ele><time>2026-05-02T08:38:20.999Z</time></trkpt><trkpt lat="44.15981483962914" lon="9.906216666620399"><ele>22.0</ele><time>2026-05-02T08:38:21.999Z</time></trkpt><trkpt lat="44.160105510078814" lon="9.906391750982428"><ele>22.0</ele><time>2026-05-02T08:38:22.999Z</time></trkpt><trkpt lat="44.1603942184775" lon="9.906577474105683"><ele>22.0</ele><time>2026-05-02T08:38:23.999Z</time></trkpt><trkpt lat="44.160679041578334" lon="9.906782170479662"><ele>24.0</ele><time>2026-05-02T08:38:24.999Z</time></trkpt><trkpt lat="44.16095576461936" lon="9.90700416552374"><ele>26.0</ele><time>2026-05-02T08:38:25.999Z</time></trkpt><trkpt lat="44.16122689808738" lon="9.907240102515814"><ele>26.0</ele><time>2026-05-02T08:38:26.999Z</time></trkpt><trkpt lat="44.161489718956716" lon="9.90749279051264"><ele>26.0</ele><time>2026-05-02T08:38:27.999Z</time></trkpt><trkpt lat="44.16174448821218" lon="9.907760496405727"><ele>27.0</ele><time>2026-05-02T08:38:28.999Z</time></trkpt><trkpt lat="44.161989830138396" lon="9.908041597191806"><ele>28.0</ele><time>2026-05-02T08:38:29.999Z</time></trkpt><trkpt lat="44.162221581945296" lon="9.908345250270795"><ele>29.0</ele><time>2026-05-02T08:38:30.999Z</time></trkpt><trkpt lat="44.16244311941898" lon="9.908662297437752"><ele>30.0</ele><time>2026-05-02T08:38:31.999Z</time></trkpt><trkpt lat="44.162656728432715" lon="9.908991649270398"><ele>29.0</ele><time>2026-05-02T08:38:32.999Z</time></trkpt><trkpt lat="44.16286426306617" lon="9.90932724614591"><ele>28.0</ele><time>2026-05-02T08:38:33.999Z</time></trkpt><trkpt lat="44.163068057438394" lon="9.909669671178959"><ele>30.0</ele><time>2026-05-02T08:38:34.999Z</time></trkpt><trkpt lat="44.163272322241596" lon="9.910010893022237"><ele>32.0</ele><time>2026-05-02T08:38:35.999Z</time></trkpt><trkpt lat="44.163479562349494" lon="9.910353781092198"><ele>32.5</ele><time>2026-05-02T08:38:36.999Z</time></trkpt><trkpt lat="44.163686757863296" lon="9.910697222872544"><ele>33.0</ele><time>2026-05-02T08:38:37.999Z</time></trkpt><trkpt lat="44.163894538784085" lon="9.911046421481165"><ele>35.0</ele><time>2026-05-02T08:38:38.999Z</time></trkpt><trkpt lat="44.16410354191423" lon="9.911395994648567"><ele>37.0</ele><time>2026-05-02T08:38:39.999Z</time></trkpt><trkpt lat="44.164311926532356" lon="9.911746366658742"><ele>40.0</ele><time>2026-05-02T08:38:40.999Z</time></trkpt><trkpt lat="44.16452222208622" lon="9.912094370922738"><ele>43.0</ele><time>2026-05-02T08:38:41.999Z</time></trkpt><trkpt lat="44.16473325225985" lon="9.912445442669062"><ele>43.0</ele><time>2026-05-02T08:38:42.999Z</time></trkpt><trkpt lat="44.164945338349355" lon="9.912795763816144"><ele>43.0</ele><time>2026-05-02T08:38:43.999Z</time></trkpt><trkpt lat="44.16515750968096" lon="9.913145679841081"><ele>45.5</ele><time>2026-05-02T08:38:44.999Z</time></trkpt><trkpt lat="44.16537587693511" lon="9.91349441710923"><ele>48.0</ele><time>2026-05-02T08:38:45.999Z</time></trkpt><trkpt lat="44.16560185680104" lon="9.913831373938827"><ele>45.5</ele><time>2026-05-02T08:38:46.999Z</time></trkpt><trkpt lat="44.1658325611474" lon="9.91415527070355"><ele>43.0</ele><time>2026-05-02T08:38:47.999Z</time></trkpt><trkpt lat="44.16607387433723" lon="9.914469108797858"><ele>43.0</ele><time>2026-05-02T08:38:48.999Z</time></trkpt><trkpt lat="44.166327658062094" lon="9.914765925555226"><ele>43.0</ele><time>2026-05-02T08:38:49.999Z</time></trkpt><trkpt lat="44.166590426572085" lon="9.915046312318376"><ele>38.5</ele><time>2026-05-02T08:38:50.999Z</time></trkpt><trkpt lat="44.166865860248954" lon="9.915309207578701"><ele>34.0</ele><time>2026-05-02T08:38:51.999Z</time></trkpt><trkpt lat="44.16714645322533" lon="9.915542561640688"><ele>33.5</ele><time>2026-05-02T08:38:52.999Z</time></trkpt><trkpt lat="44.16743562747923" lon="9.915765774389897"><ele>33.0</ele><time>2026-05-02T08:38:53.999Z</time></trkpt><trkpt lat="44.167727869974975" lon="9.915978778379236"><ele>31.5</ele><time>2026-05-02T08:38:54.999Z</time></trkpt><trkpt lat="44.16802234098779" lon="9.916190723510711"><ele>30.0</ele><time>2026-05-02T08:38:55.999Z</time></trkpt><trkpt lat="44.16831320185718" lon="9.916408474690153"><ele>30.0</ele><time>2026-05-02T08:38:56.999Z</time></trkpt><trkpt lat="44.16861083614026" lon="9.916623649806228"><ele>30.0</ele><time>2026-05-02T08:38:57.999Z</time></trkpt><trkpt lat="44.16890970843179" lon="9.916834881606075"><ele>29.5</ele><time>2026-05-02T08:38:58.999Z</time></trkpt><trkpt lat="44.169206669561326" lon="9.91705167381261"><ele>29.0</ele><time>2026-05-02T08:38:59.999Z</time></trkpt><trkpt lat="44.1695031690149" lon="9.917275651973188"><ele>29.0</ele><time>2026-05-02T08:39:00.999Z</time></trkpt><trkpt lat="44.16980057328325" lon="9.91750308637633"><ele>29.0</ele><time>2026-05-02T08:39:01.999Z</time></trkpt><trkpt lat="44.170097366901004" lon="9.917731834829087"><ele>28.0</ele><time>2026-05-02T08:39:02.999Z</time></trkpt><trkpt lat="44.170395655318224" lon="9.917963140356413"><ele>27.0</ele><time>2026-05-02T08:39:03.999Z</time></trkpt><trkpt lat="44.17069111347472" lon="9.918199225823187"><ele>27.0</ele><time>2026-05-02T08:39:04.999Z</time></trkpt><trkpt lat="44.17098582738221" lon="9.918432804067294"><ele>27.0</ele><time>2026-05-02T08:39:05.999Z</time></trkpt><trkpt lat="44.17128008745203" lon="9.918662700818121"><ele>28.5</ele><time>2026-05-02T08:39:06.999Z</time></trkpt><trkpt lat="44.17157644005247" lon="9.918889954741198"><ele>30.0</ele><time>2026-05-02T08:39:07.999Z</time></trkpt><trkpt lat="44.17187396301606" lon="9.919116925868506"><ele>30.0</ele><time>2026-05-02T08:39:08.999Z</time></trkpt><trkpt lat="44.17217065284336" lon="9.919342650379383"><ele>30.0</ele><time>2026-05-02T08:39:09.999Z</time></trkpt><trkpt lat="44.172466725166835" lon="9.919569200256728"><ele>30.0</ele><time>2026-05-02T08:39:10.999Z</time></trkpt><trkpt lat="44.17276411907515" lon="9.919795187000808"><ele>30.0</ele><time>2026-05-02T08:39:11.999Z</time></trkpt><trkpt lat="44.17306287543269" lon="9.920013773345948"><ele>31.5</ele><time>2026-05-02T08:39:12.999Z</time></trkpt><trkpt lat="44.173367480567364" lon="9.920223746990729"><ele>33.0</ele><time>2026-05-02T08:39:13.999Z</time></trkpt><trkpt lat="44.17368417867212" lon="9.920415688981906"><ele>33.0</ele><time>2026-05-02T08:39:14.999Z</time></trkpt><trkpt lat="44.17400774373806" lon="9.920587011941024"><ele>33.0</ele><time>2026-05-02T08:39:15.999Z</time></trkpt><trkpt lat="44.17433269374138" lon="9.920742188242082"><ele>34.0</ele><time>2026-05-02T08:39:16.999Z</time></trkpt><trkpt lat="44.17466187250842" lon="9.920882191681729"><ele>35.0</ele><time>2026-05-02T08:39:17.999Z</time></trkpt><trkpt lat="44.174996034989825" lon="9.921005791424562"><ele>39.0</ele><time>2026-05-02T08:39:18.999Z</time></trkpt><trkpt lat="44.17532808621793" lon="9.92111747841558"><ele>43.0</ele><time>2026-05-02T08:39:19.999Z</time></trkpt><trkpt lat="44.17566744681007" lon="9.921225198223029"><ele>49.0</ele><time>2026-05-02T08:39:20.999Z</time></trkpt><trkpt lat="44.17600462526961" lon="9.921334581967702"><ele>55.0</ele><time>2026-05-02T08:39:21.999Z</time></trkpt><trkpt lat="44.176345861451864" lon="9.921449606954335"><ele>61.0</ele><time>2026-05-02T08:39:22.999Z</time></trkpt><trkpt lat="44.17668815404266" lon="9.921562666071168"><ele>67.0</ele><time>2026-05-02T08:39:23.999Z</time></trkpt><trkpt lat="44.17703344054181" lon="9.921670759837724"><ele>67.5</ele><time>2026-05-02T08:39:24.999Z</time></trkpt><trkpt lat="44.17738794450129" lon="9.92177972597903"><ele>68.0</ele><time>2026-05-02T08:39:26.018Z</time></trkpt><trkpt lat="44.1777377855816" lon="9.921886911740017"><ele>68.0</ele><time>2026-05-02T08:39:27.013Z</time></trkpt><trkpt lat="44.1780916680576" lon="9.92199459887109"><ele>68.0</ele><time>2026-05-02T08:39:28.017Z</time></trkpt><trkpt lat="44.178447537417355" lon="9.922101122621672"><ele>64.5</ele><time>2026-05-02T08:39:29.024Z</time></trkpt><trkpt lat="44.17879917285576" lon="9.922205356779745"><ele>61.0</ele><time>2026-05-02T08:39:30.018Z</time></trkpt><trkpt lat="44.1791221686119" lon="9.922375604519548"><ele>54.0</ele><time>2026-05-02T08:39:30.999Z</time></trkpt><trkpt lat="44.17946952970577" lon="9.922493367627448"><ele>47.0</ele><time>2026-05-02T08:39:31.999Z</time></trkpt><trkpt lat="44.1798152976733" lon="9.922610043108799"><ele>43.5</ele><time>2026-05-02T08:39:32.999Z</time></trkpt><trkpt lat="44.18016167599263" lon="9.922724260203902"><ele>40.0</ele><time>2026-05-02T08:39:33.999Z</time></trkpt><trkpt lat="44.18050761649166" lon="9.92283433318108"><ele>39.5</ele><time>2026-05-02T08:39:34.999Z</time></trkpt><trkpt lat="44.18084856333995" lon="9.922944956172671"><ele>39.0</ele><time>2026-05-02T08:39:35.999Z</time></trkpt><trkpt lat="44.18118782583934" lon="9.923062005756835"><ele>38.0</ele><time>2026-05-02T08:39:36.999Z</time></trkpt><trkpt lat="44.18152736873038" lon="9.923175258306074"><ele>37.0</ele><time>2026-05-02T08:39:37.999Z</time></trkpt><trkpt lat="44.18186409094614" lon="9.92328532339992"><ele>37.0</ele><time>2026-05-02T08:39:38.999Z</time></trkpt><trkpt lat="44.18219945827178" lon="9.923394845527017"><ele>37.0</ele><time>2026-05-02T08:39:39.999Z</time></trkpt><trkpt lat="44.18253505808366" lon="9.923504528532128"><ele>36.0</ele><time>2026-05-02T08:39:40.999Z</time></trkpt><trkpt lat="44.18286886703589" lon="9.923616944117503"><ele>35.0</ele><time>2026-05-02T08:39:41.999Z</time></trkpt><trkpt lat="44.1832000985491" lon="9.923730378224878"><ele>35.0</ele><time>2026-05-02T08:39:42.999Z</time></trkpt><trkpt lat="44.18352871215184" lon="9.923848926998119"><ele>35.0</ele><time>2026-05-02T08:39:43.999Z</time></trkpt><trkpt lat="44.18385074559287" lon="9.923993752297424"><ele>38.5</ele><time>2026-05-02T08:39:44.999Z</time></trkpt><trkpt lat="44.18415802430866" lon="9.924178833251633"><ele>42.0</ele><time>2026-05-02T08:39:45.999Z</time></trkpt><trkpt lat="44.184449008778465" lon="9.924398013822524"><ele>45.5</ele><time>2026-05-02T08:39:46.999Z</time></trkpt><trkpt lat="44.184722306392736" lon="9.924641996919407"><ele>49.0</ele><time>2026-05-02T08:39:47.999Z</time></trkpt><trkpt lat="44.18497686971222" lon="9.924914067841243"><ele>51.0</ele><time>2026-05-02T08:39:48.998Z</time></trkpt><trkpt lat="44.185205655518295" lon="9.92522044377096"><ele>53.0</ele><time>2026-05-02T08:39:49.998Z</time></trkpt><trkpt lat="44.18541343854253" lon="9.92555038601141"><ele>51.5</ele><time>2026-05-02T08:39:50.998Z</time></trkpt><trkpt lat="44.18559116023414" lon="9.925917613664616"><ele>50.0</ele><time>2026-05-02T08:39:51.999Z</time></trkpt><trkpt lat="44.185748229302035" lon="9.926301142733767"><ele>45.5</ele><time>2026-05-02T08:39:52.999Z</time></trkpt><trkpt lat="44.18588158201284" lon="9.92671519631291"><ele>41.0</ele><time>2026-05-02T08:39:53.999Z</time></trkpt><trkpt lat="44.185992875264645" lon="9.927150517154837"><ele>40.0</ele><time>2026-05-02T08:39:54.999Z</time></trkpt><trkpt lat="44.18610740968074" lon="9.927597032399232"><ele>39.0</ele><time>2026-05-02T08:39:55.999Z</time></trkpt><trkpt lat="44.18622371481613" lon="9.928043293545358"><ele>39.0</ele><time>2026-05-02T08:39:56.999Z</time></trkpt><trkpt lat="44.18633967359279" lon="9.928484053946132"><ele>39.0</ele><time>2026-05-02T08:39:57.999Z</time></trkpt><trkpt lat="44.18645428191784" lon="9.928922903355595"><ele>45.0</ele><time>2026-05-02T08:39:58.999Z</time></trkpt><trkpt lat="44.18656743738006" lon="9.929354990757062"><ele>51.0</ele><time>2026-05-02T08:39:59.999Z</time></trkpt><trkpt lat="44.18668036826389" lon="9.929783845640122"><ele>50.5</ele><time>2026-05-02T08:40:00.999Z</time></trkpt><trkpt lat="44.18679537588967" lon="9.930220242234045"><ele>50.0</ele><time>2026-05-02T08:40:01.999Z</time></trkpt><trkpt lat="44.18691234439926" lon="9.930652991105545"><ele>48.5</ele><time>2026-05-02T08:40:02.999Z</time></trkpt><trkpt lat="44.187040825432945" lon="9.931081613701945"><ele>47.0</ele><time>2026-05-02T08:40:03.999Z</time></trkpt><trkpt lat="44.18718737787663" lon="9.931500184223333"><ele>53.0</ele><time>2026-05-02T08:40:05Z</time></trkpt><trkpt lat="44.187348243551924" lon="9.93190360875215"><ele>59.0</ele><time>2026-05-02T08:40:06Z</time></trkpt><trkpt lat="44.187516938714566" lon="9.932295008548419"><ele>58.5</ele><time>2026-05-02T08:40:07Z</time></trkpt><trkpt lat="44.1876955194342" lon="9.932667450874884"><ele>58.0</ele><time>2026-05-02T08:40:08Z</time></trkpt><trkpt lat="44.187875602319046" lon="9.933003361014997"><ele>58.0</ele><time>2026-05-02T08:40:09Z</time></trkpt><trkpt lat="44.18806119099393" lon="9.933329037196481"><ele>58.0</ele><time>2026-05-02T08:40:10Z</time></trkpt><trkpt lat="44.18825665810883" lon="9.933642481322288"><ele>64.5</ele><time>2026-05-02T08:40:11Z</time></trkpt><trkpt lat="44.18845382385188" lon="9.933939589899522"><ele>71.0</ele><time>2026-05-02T08:40:12Z</time></trkpt><trkpt lat="44.18865314627981" lon="9.93422212740019"><ele>71.5</ele><time>2026-05-02T08:40:13Z</time></trkpt><trkpt lat="44.18885615891693" lon="9.93450931328046"><ele>72.0</ele><time>2026-05-02T08:40:14Z</time></trkpt><trkpt lat="44.18904879069485" lon="9.93479085374651"><ele>70.0</ele><time>2026-05-02T08:40:15Z</time></trkpt><trkpt lat="44.18924403369696" lon="9.935076265319376"><ele>68.0</ele><time>2026-05-02T08:40:16Z</time></trkpt><trkpt lat="44.189441148195016" lon="9.935362473976932"><ele>68.0</ele><time>2026-05-02T08:40:17Z</time></trkpt><trkpt lat="44.18964120195223" lon="9.935652248777624"><ele>68.0</ele><time>2026-05-02T08:40:18Z</time></trkpt><trkpt lat="44.189844879946804" lon="9.935942701787633"><ele>65.5</ele><time>2026-05-02T08:40:19Z</time></trkpt><trkpt lat="44.190056090242265" lon="9.9362338499364"><ele>63.0</ele><time>2026-05-02T08:40:20Z</time></trkpt><trkpt lat="44.19026892984208" lon="9.936534412911062"><ele>63.0</ele><time>2026-05-02T08:40:21Z</time></trkpt><trkpt lat="44.19048624829488" lon="9.936843953245095"><ele>63.0</ele><time>2026-05-02T08:40:22Z</time></trkpt><trkpt lat="44.19070343287107" lon="9.937156898712168"><ele>63.0</ele><time>2026-05-02T08:40:23Z</time></trkpt><trkpt lat="44.19092564480902" lon="9.937471715752581"><ele>63.0</ele><time>2026-05-02T08:40:24Z</time></trkpt><trkpt lat="44.19115132800707" lon="9.937792558346356"><ele>58.5</ele><time>2026-05-02T08:40:25Z</time></trkpt><trkpt lat="44.191372815770734" lon="9.938113606232289"><ele>54.0</ele><time>2026-05-02T08:40:26Z</time></trkpt><trkpt lat="44.191591847814294" lon="9.938433435966664"><ele>54.0</ele><time>2026-05-02T08:40:27Z</time></trkpt><trkpt lat="44.1918119145234" lon="9.938750960223153"><ele>54.0</ele><time>2026-05-02T08:40:28Z</time></trkpt><trkpt lat="44.19203117472111" lon="9.939067012684225"><ele>53.5</ele><time>2026-05-02T08:40:29Z</time></trkpt><trkpt lat="44.19224984152413" lon="9.93938177096198"><ele>53.0</ele><time>2026-05-02T08:40:30Z</time></trkpt><trkpt lat="44.19246726193869" lon="9.939694244295618"><ele>53.0</ele><time>2026-05-02T08:40:31Z</time></trkpt><trkpt lat="44.19268277954331" lon="9.940007337403173"><ele>53.0</ele><time>2026-05-02T08:40:32Z</time></trkpt><trkpt lat="44.19289548705348" lon="9.94031927018303"><ele>50.5</ele><time>2026-05-02T08:40:33Z</time></trkpt><trkpt lat="44.193107105249815" lon="9.940630367483058"><ele>48.0</ele><time>2026-05-02T08:40:34Z</time></trkpt><trkpt lat="44.19331962198602" lon="9.940927911435187"><ele>48.0</ele><time>2026-05-02T08:40:35Z</time></trkpt><trkpt lat="44.19353118117355" lon="9.941235699997744"><ele>48.0</ele><time>2026-05-02T08:40:36Z</time></trkpt><trkpt lat="44.193740719273926" lon="9.941540595434764"><ele>51.0</ele><time>2026-05-02T08:40:37Z</time></trkpt><trkpt lat="44.19394940603806" lon="9.941849860472562"><ele>54.0</ele><time>2026-05-02T08:40:38Z</time></trkpt><trkpt lat="44.19415246433082" lon="9.942163823166924"><ele>54.0</ele><time>2026-05-02T08:40:39Z</time></trkpt><trkpt lat="44.1943459264934" lon="9.942497502930884"><ele>54.0</ele><time>2026-05-02T08:40:40Z</time></trkpt><trkpt lat="44.19453215322371" lon="9.942842220198576"><ele>56.5</ele><time>2026-05-02T08:40:41Z</time></trkpt><trkpt lat="44.194710827898895" lon="9.943193486975444"><ele>59.0</ele><time>2026-05-02T08:40:42Z</time></trkpt><trkpt lat="44.19488678411752" lon="9.943545747716929"><ele>59.0</ele><time>2026-05-02T08:40:43Z</time></trkpt><trkpt lat="44.1950641196508" lon="9.943901707995934"><ele>59.0</ele><time>2026-05-02T08:40:44Z</time></trkpt><trkpt lat="44.195248987990595" lon="9.944265870285122"><ele>55.5</ele><time>2026-05-02T08:40:45Z</time></trkpt><trkpt lat="44.19543646527332" lon="9.94462827893457"><ele>52.0</ele><time>2026-05-02T08:40:45.999Z</time></trkpt><trkpt lat="44.19562465743007" lon="9.944991219437584"><ele>54.0</ele><time>2026-05-02T08:40:46.999Z</time></trkpt><trkpt lat="44.1958074272873" lon="9.945345859269718"><ele>56.0</ele><time>2026-05-02T08:40:47.999Z</time></trkpt><trkpt lat="44.19598474668663" lon="9.945698183750912"><ele>55.5</ele><time>2026-05-02T08:40:48.999Z</time></trkpt><trkpt lat="44.19616359624685" lon="9.946051218272586"><ele>55.0</ele><time>2026-05-02T08:40:49.999Z</time></trkpt><trkpt lat="44.19634555564644" lon="9.946408906789523"><ele>57.5</ele><time>2026-05-02T08:40:50.999Z</time></trkpt><trkpt lat="44.19652919146972" lon="9.946759568522786"><ele>60.0</ele><time>2026-05-02T08:40:51.999Z</time></trkpt><trkpt lat="44.19671517280526" lon="9.94709323667218"><ele>60.0</ele><time>2026-05-02T08:40:52.999Z</time></trkpt><trkpt lat="44.196908628388215" lon="9.947389785508683"><ele>60.0</ele><time>2026-05-02T08:40:53.999Z</time></trkpt><trkpt lat="44.197107707940816" lon="9.947670487075369"><ele>57.0</ele><time>2026-05-02T08:40:54.999Z</time></trkpt><trkpt lat="44.197314184428706" lon="9.947944081702552"><ele>54.0</ele><time>2026-05-02T08:40:55.999Z</time></trkpt><trkpt lat="44.19753769305306" lon="9.948221689315382"><ele>54.5</ele><time>2026-05-02T08:40:56.999Z</time></trkpt><trkpt lat="44.19776863261913" lon="9.948490620779696"><ele>55.0</ele><time>2026-05-02T08:40:57.999Z</time></trkpt><trkpt lat="44.198008761995276" lon="9.948742664600148"><ele>59.5</ele><time>2026-05-02T08:40:58.999Z</time></trkpt><trkpt lat="44.1982551928346" lon="9.948982340177382"><ele>64.0</ele><time>2026-05-02T08:40:59.999Z</time></trkpt><trkpt lat="44.198502453882725" lon="9.949222772330259"><ele>64.0</ele><time>2026-05-02T08:41:00.999Z</time></trkpt><trkpt lat="44.19874846911061" lon="9.949469923754444"><ele>64.0</ele><time>2026-05-02T08:41:01.999Z</time></trkpt><trkpt lat="44.19899390770848" lon="9.94971463936236"><ele>64.0</ele><time>2026-05-02T08:41:02.999Z</time></trkpt><trkpt lat="44.19923045091425" lon="9.949948629237339"><ele>64.0</ele><time>2026-05-02T08:41:03.999Z</time></trkpt><trkpt lat="44.19945936461064" lon="9.950194227338852"><ele>64.0</ele><time>2026-05-02T08:41:04.999Z</time></trkpt><trkpt lat="44.19967659917642" lon="9.950459188408061"><ele>64.0</ele><time>2026-05-02T08:41:05.999Z</time></trkpt><trkpt lat="44.199876830429815" lon="9.950748852008488"><ele>67.0</ele><time>2026-05-02T08:41:06.999Z</time></trkpt><trkpt lat="44.20005936016071" lon="9.951062978091135"><ele>70.0</ele><time>2026-05-02T08:41:07.999Z</time></trkpt><trkpt lat="44.20022514582764" lon="9.951399638674651"><ele>65.5</ele><time>2026-05-02T08:41:08.999Z</time></trkpt><trkpt lat="44.20036993798241" lon="9.951758733387559"><ele>61.0</ele><time>2026-05-02T08:41:09.999Z</time></trkpt><trkpt lat="44.2004997987507" lon="9.952137869803963"><ele>61.0</ele><time>2026-05-02T08:41:10.999Z</time></trkpt><trkpt lat="44.20060690445755" lon="9.952532978775599"><ele>61.0</ele><time>2026-05-02T08:41:11.999Z</time></trkpt><trkpt lat="44.20068928938315" lon="9.952942071853581"><ele>71.5</ele><time>2026-05-02T08:41:12.999Z</time></trkpt><trkpt lat="44.20075333777643" lon="9.95335612640385"><ele>82.0</ele><time>2026-05-02T08:41:13.999Z</time></trkpt><trkpt lat="44.20080989397358" lon="9.953773340647253"><ele>82.0</ele><time>2026-05-02T08:41:14.999Z</time></trkpt><trkpt lat="44.200873107493564" lon="9.954187156223695"><ele>82.0</ele><time>2026-05-02T08:41:15.999Z</time></trkpt><trkpt lat="44.20093887184548" lon="9.954600118395577"><ele>77.5</ele><time>2026-05-02T08:41:16.999Z</time></trkpt><trkpt lat="44.20100439882235" lon="9.955005150654811"><ele>73.0</ele><time>2026-05-02T08:41:17.999Z</time></trkpt><trkpt lat="44.20106866505333" lon="9.955402104345389"><ele>69.5</ele><time>2026-05-02T08:41:18.999Z</time></trkpt><trkpt lat="44.20113495388388" lon="9.955801346619026"><ele>66.0</ele><time>2026-05-02T08:41:19.999Z</time></trkpt><trkpt lat="44.20120043509048" lon="9.956198812384452"><ele>65.5</ele><time>2026-05-02T08:41:20.999Z</time></trkpt><trkpt lat="44.20126379338847" lon="9.956589850107154"><ele>65.0</ele><time>2026-05-02T08:41:21.999Z</time></trkpt><trkpt lat="44.20133088807588" lon="9.95697098024296"><ele>68.0</ele><time>2026-05-02T08:41:22.999Z</time></trkpt><trkpt lat="44.20141038967671" lon="9.957347149812366"><ele>71.0</ele><time>2026-05-02T08:41:23.999Z</time></trkpt><trkpt lat="44.201527227914426" lon="9.957714141100553"><ele>77.5</ele><time>2026-05-02T08:41:24.999Z</time></trkpt><trkpt lat="44.20166505161125" lon="9.958074011467588"><ele>84.0</ele><time>2026-05-02T08:41:25.999Z</time></trkpt><trkpt lat="44.2018237935375" lon="9.958425966033754"><ele>84.0</ele><time>2026-05-02T08:41:26.999Z</time></trkpt><trkpt lat="44.20199520338399" lon="9.95875590973553"><ele>84.0</ele><time>2026-05-02T08:41:27.999Z</time></trkpt><trkpt lat="44.20219136156042" lon="9.959060430707913"><ele>82.5</ele><time>2026-05-02T08:41:28.999Z</time></trkpt><trkpt lat="44.2024023831996" lon="9.959341456913581"><ele>81.0</ele><time>2026-05-02T08:41:29.999Z</time></trkpt><trkpt lat="44.202627582766425" lon="9.959603718356355"><ele>81.0</ele><time>2026-05-02T08:41:30.999Z</time></trkpt><trkpt lat="44.20286556918508" lon="9.959838047969352"><ele>81.0</ele><time>2026-05-02T08:41:31.999Z</time></trkpt><trkpt lat="44.2031163751693" lon="9.960037034530957"><ele>80.0</ele><time>2026-05-02T08:41:32.999Z</time></trkpt><trkpt lat="44.20336789294006" lon="9.960215044186507"><ele>79.0</ele><time>2026-05-02T08:41:33.999Z</time></trkpt><trkpt lat="44.203623629710364" lon="9.960380363778052"><ele>79.0</ele><time>2026-05-02T08:41:34.999Z</time></trkpt><trkpt lat="44.203879579263244" lon="9.96055421603418"><ele>79.0</ele><time>2026-05-02T08:41:35.999Z</time></trkpt><trkpt lat="44.204141934651986" lon="9.96073959116338"><ele>75.0</ele><time>2026-05-02T08:41:36.999Z</time></trkpt><trkpt lat="44.20440657240207" lon="9.960920160371282"><ele>71.0</ele><time>2026-05-02T08:41:37.999Z</time></trkpt><trkpt lat="44.204672204293736" lon="9.961102610813496"><ele>75.5</ele><time>2026-05-02T08:41:38.999Z</time></trkpt><trkpt lat="44.20493722303208" lon="9.961288485998015"><ele>80.0</ele><time>2026-05-02T08:41:39.999Z</time></trkpt><trkpt lat="44.205213509231804" lon="9.96147677445791"><ele>80.0</ele><time>2026-05-02T08:41:40.999Z</time></trkpt><trkpt lat="44.205505636789674" lon="9.961676500320737"><ele>80.0</ele><time>2026-05-02T08:41:41.999Z</time></trkpt><trkpt lat="44.20579747995782" lon="9.961875030297259"><ele>74.0</ele><time>2026-05-02T08:41:42.999Z</time></trkpt><trkpt lat="44.20608181012828" lon="9.962068115965637"><ele>68.0</ele><time>2026-05-02T08:41:43.999Z</time></trkpt><trkpt lat="44.20635756235014" lon="9.962259711609136"><ele>67.5</ele><time>2026-05-02T08:41:44.999Z</time></trkpt><trkpt lat="44.206634505236075" lon="9.962449141712174"><ele>67.0</ele><time>2026-05-02T08:41:45.999Z</time></trkpt><trkpt lat="44.20690387780637" lon="9.962632953224633"><ele>67.0</ele><time>2026-05-02T08:41:46.999Z</time></trkpt><trkpt lat="44.207167942604876" lon="9.96280972751714"><ele>67.0</ele><time>2026-05-02T08:41:47.999Z</time></trkpt><trkpt lat="44.20743088142858" lon="9.962972553511426"><ele>78.0</ele><time>2026-05-02T08:41:48.999Z</time></trkpt><trkpt lat="44.207707788186326" lon="9.96311288062413"><ele>89.0</ele><time>2026-05-02T08:41:49.999Z</time></trkpt><trkpt lat="44.207993127421744" lon="9.963221961881843"><ele>94.0</ele><time>2026-05-02T08:41:50.999Z</time></trkpt><trkpt lat="44.2082775962509" lon="9.9633043297929"><ele>99.0</ele><time>2026-05-02T08:41:51.999Z</time></trkpt><trkpt lat="44.20857277250077" lon="9.963363591491708"><ele>87.0</ele><time>2026-05-02T08:41:53.02Z</time></trkpt><trkpt lat="44.20886226673093" lon="9.963391503961551"><ele>75.0</ele><time>2026-05-02T08:41:54.022Z</time></trkpt><trkpt lat="44.20915737007557" lon="9.96339395468554"><ele>81.5</ele><time>2026-05-02T08:41:54.999Z</time></trkpt><trkpt lat="44.20941443872321" lon="9.963338889819028"><ele>88.0</ele><time>2026-05-02T08:41:55.999Z</time></trkpt><trkpt lat="44.20971468912161" lon="9.963281998684945"><ele>83.5</ele><time>2026-05-02T08:41:56.999Z</time></trkpt><trkpt lat="44.21004155340423" lon="9.96322764586627"><ele>79.0</ele><time>2026-05-02T08:41:57.999Z</time></trkpt><trkpt lat="44.21036379423388" lon="9.96317956109813"><ele>76.0</ele><time>2026-05-02T08:41:58.999Z</time></trkpt><trkpt lat="44.21067399728323" lon="9.963136760613192"><ele>73.0</ele><time>2026-05-02T08:42:00.001Z</time></trkpt><trkpt lat="44.21097218342725" lon="9.963096492373744"><ele>73.0</ele><time>2026-05-02T08:42:01.001Z</time></trkpt><trkpt lat="44.211274711424636" lon="9.963069916766816"><ele>73.0</ele><time>2026-05-02T08:42:02.001Z</time></trkpt><trkpt lat="44.21157155361783" lon="9.963044975546852"><ele>70.5</ele><time>2026-05-02T08:42:03.001Z</time></trkpt><trkpt lat="44.21186331482532" lon="9.963016114746031"><ele>68.0</ele><time>2026-05-02T08:42:04.001Z</time></trkpt><trkpt lat="44.21215780768195" lon="9.962973341018282"><ele>66.5</ele><time>2026-05-02T08:42:05.001Z</time></trkpt><trkpt lat="44.21245205348808" lon="9.962911894995056"><ele>65.0</ele><time>2026-05-02T08:42:06.001Z</time></trkpt><trkpt lat="44.21274522525065" lon="9.962829473107588"><ele>65.0</ele><time>2026-05-02T08:42:07.001Z</time></trkpt><trkpt lat="44.2130251333325" lon="9.962738193137236"><ele>65.0</ele><time>2026-05-02T08:42:08.001Z</time></trkpt><trkpt lat="44.21329810087828" lon="9.962637985653254"><ele>72.5</ele><time>2026-05-02T08:42:09Z</time></trkpt><trkpt lat="44.21356725970565" lon="9.962519714778114"><ele>80.0</ele><time>2026-05-02T08:42:10Z</time></trkpt><trkpt lat="44.21382136854673" lon="9.962387210159692"><ele>76.5</ele><time>2026-05-02T08:42:11Z</time></trkpt><trkpt lat="44.21406557041152" lon="9.962246333965034"><ele>73.0</ele><time>2026-05-02T08:42:12Z</time></trkpt><trkpt lat="44.2142923061648" lon="9.962111440689897"><ele>73.0</ele><time>2026-05-02T08:42:13Z</time></trkpt><trkpt lat="44.2145064991787" lon="9.961993645009413"><ele>73.0</ele><time>2026-05-02T08:42:14Z</time></trkpt><trkpt lat="44.21472039288991" lon="9.961887158883785"><ele>70.33333333333333</ele><time>2026-05-02T08:42:15Z</time></trkpt><trkpt lat="44.21492564148008" lon="9.96178730499215"><ele>67.66666666666667</ele><time>2026-05-02T08:42:16Z</time></trkpt><trkpt lat="44.21511766410003" lon="9.961702813443944"><ele>65.0</ele><time>2026-05-02T08:42:17Z</time></trkpt><trkpt lat="44.215306917862314" lon="9.961618897298228"><ele>68.33333333333334</ele><time>2026-05-02T08:42:18Z</time></trkpt><trkpt lat="44.215489624032806" lon="9.961538469458759"><ele>71.66666666666667</ele><time>2026-05-02T08:42:19Z</time></trkpt><trkpt lat="44.21568130446754" lon="9.961457802461988"><ele>75.0</ele><time>2026-05-02T08:42:20Z</time></trkpt><trkpt lat="44.21587299147153" lon="9.961386437008425"><ele>75.0</ele><time>2026-05-02T08:42:21Z</time></trkpt><trkpt lat="44.21607872789199" lon="9.961341669002033"><ele>75.0</ele><time>2026-05-02T08:42:22Z</time></trkpt><trkpt lat="44.216288993806764" lon="9.961330004570724"><ele>75.0</ele><time>2026-05-02T08:42:23Z</time></trkpt><trkpt lat="44.21649177897797" lon="9.96134109337529"><ele>74.25</ele><time>2026-05-02T08:42:24Z</time></trkpt><trkpt lat="44.21668965056607" lon="9.961378943389692"><ele>73.5</ele><time>2026-05-02T08:42:25Z</time></trkpt><trkpt lat="44.216693386260694" lon="9.961479115591404"><ele>72.75</ele><time>2026-05-02T08:42:26Z</time></trkpt><trkpt lat="44.21683595160974" lon="9.961526281910295"><ele>72.0</ele><time>2026-05-02T08:42:27Z</time></trkpt><trkpt lat="44.216968459000555" lon="9.9615621117497"><ele>72.0</ele><time>2026-05-02T08:42:28Z</time></trkpt><trkpt lat="44.21708748028643" lon="9.961591285816386"><ele>72.0</ele><time>2026-05-02T08:42:29Z</time></trkpt><trkpt lat="44.21719754528909" lon="9.96160380600913"><ele>72.0</ele><time>2026-05-02T08:42:30Z</time></trkpt><trkpt lat="44.21729907225137" lon="9.96158667996289"><ele>72.0</ele><time>2026-05-02T08:42:31Z</time></trkpt><trkpt lat="44.217385335857124" lon="9.961536565773908"><ele>72.0</ele><time>2026-05-02T08:42:32Z</time></trkpt><trkpt lat="44.21745481117465" lon="9.961468961316942"><ele>71.2</ele><time>2026-05-02T08:42:33Z</time></trkpt><trkpt lat="44.217511256937236" lon="9.961407399033627"><ele>70.4</ele><time>2026-05-02T08:42:34Z</time></trkpt><trkpt lat="44.217593794795924" lon="9.961303300924104"><ele>69.6</ele><time>2026-05-02T08:42:36Z</time></trkpt><trkpt lat="44.21766026338283" lon="9.961222731686139"><ele>68.8</ele><time>2026-05-02T08:42:38Z</time></trkpt><trkpt lat="44.217714027170246" lon="9.961149866514702"><ele>68.0</ele><time>2026-05-02T08:42:40Z</time></trkpt><trkpt lat="44.21779234712801" lon="9.96104422631941"><ele>68.0</ele><time>2026-05-02T08:42:42Z</time></trkpt><trkpt lat="44.21788724808388" lon="9.960920657283252"><ele>68.0</ele><time>2026-05-02T08:42:44Z</time></trkpt><trkpt lat="44.21795461815884" lon="9.960865365335046"><ele>68.0</ele><time>2026-05-02T08:42:45Z</time></trkpt><trkpt lat="44.21801259850334" lon="9.96080001674311"><ele>68.0</ele><time>2026-05-02T08:42:46Z</time></trkpt><trkpt lat="44.21809753867584" lon="9.960732761762651"><ele>68.0</ele><time>2026-05-02T08:42:48Z</time></trkpt><trkpt lat="44.218195800533465" lon="9.960689761932956"><ele>67.66666666666667</ele><time>2026-05-02T08:42:50Z</time></trkpt><trkpt lat="44.218259769923094" lon="9.960678801987562"><ele>67.33333333333334</ele><time>2026-05-02T08:42:51Z</time></trkpt><trkpt lat="44.218334300446756" lon="9.9606917541115"><ele>67.0</ele><time>2026-05-02T08:42:52Z</time></trkpt><trkpt lat="44.218407269064016" lon="9.960738493630654"><ele>66.66666666666667</ele><time>2026-05-02T08:42:53Z</time></trkpt><trkpt lat="44.218464294425964" lon="9.960825155666761"><ele>66.33333333333333</ele><time>2026-05-02T08:42:54Z</time></trkpt><trkpt lat="44.21850921063361" lon="9.96094445221301"><ele>66.0</ele><time>2026-05-02T08:42:55Z</time></trkpt><trkpt lat="44.21854279648556" lon="9.961083820822747"><ele>64.6</ele><time>2026-05-02T08:42:56Z</time></trkpt><trkpt lat="44.21856785911585" lon="9.961234658723079"><ele>63.199999999999996</ele><time>2026-05-02T08:42:57Z</time></trkpt><trkpt lat="44.218584438617555" lon="9.961383129663393"><ele>61.800000000000004</ele><time>2026-05-02T08:42:58Z</time></trkpt><trkpt lat="44.218607029974535" lon="9.961538982230822"><ele>60.400000000000006</ele><time>2026-05-02T08:42:59Z</time></trkpt><trkpt lat="44.21863383605402" lon="9.961697401635247"><ele>59.0</ele><time>2026-05-02T08:43:00Z</time></trkpt><trkpt lat="44.21866463012341" lon="9.961867512840566"><ele>58.75</ele><time>2026-05-02T08:43:01Z</time></trkpt><trkpt lat="44.218694152300216" lon="9.962052763217278"><ele>58.5</ele><time>2026-05-02T08:43:02Z</time></trkpt><trkpt lat="44.21872563603342" lon="9.962248807679625"><ele>58.25</ele><time>2026-05-02T08:43:03Z</time></trkpt><trkpt lat="44.218762753252115" lon="9.9624492134899"><ele>58.0</ele><time>2026-05-02T08:43:04Z</time></trkpt><trkpt lat="44.21879621477049" lon="9.962640252906848"><ele>58.0</ele><time>2026-05-02T08:43:05Z</time></trkpt><trkpt lat="44.218829824908205" lon="9.962833616818864"><ele>58.0</ele><time>2026-05-02T08:43:06Z</time></trkpt><trkpt lat="44.21886225117375" lon="9.963031851066228"><ele>58.0</ele><time>2026-05-02T08:43:07Z</time></trkpt><trkpt lat="44.218894911195484" lon="9.963233773962644"><ele>58.0</ele><time>2026-05-02T08:43:08Z</time></trkpt><trkpt lat="44.218927590313605" lon="9.963424334214798"><ele>58.0</ele><time>2026-05-02T08:43:09Z</time></trkpt><trkpt lat="44.21895747806534" lon="9.963616919932228"><ele>58.0</ele><time>2026-05-02T08:43:10Z</time></trkpt><trkpt lat="44.218990108562735" lon="9.96381174394899"><ele>58.0</ele><time>2026-05-02T08:43:11Z</time></trkpt><trkpt lat="44.2190229358091" lon="9.964007073119872"><ele>58.0</ele><time>2026-05-02T08:43:12Z</time></trkpt><trkpt lat="44.21905429469013" lon="9.964203614072717"><ele>58.75</ele><time>2026-05-02T08:43:13Z</time></trkpt><trkpt lat="44.219084729315455" lon="9.964394186418552"><ele>59.5</ele><time>2026-05-02T08:43:14Z</time></trkpt><trkpt lat="44.21911559941356" lon="9.96457675892846"><ele>60.25</ele><time>2026-05-02T08:43:15Z</time></trkpt><trkpt lat="44.2191456131184" lon="9.964751203863013"><ele>61.0</ele><time>2026-05-02T08:43:16Z</time></trkpt><trkpt lat="44.219173452386926" lon="9.964915583167626"><ele>60.99999999999999</ele><time>2026-05-02T08:43:17Z</time></trkpt><trkpt lat="44.21919759172068" lon="9.965059146832111"><ele>61.0</ele><time>2026-05-02T08:43:18Z</time></trkpt><trkpt lat="44.21921624807504" lon="9.96517624584815"><ele>61.0</ele><time>2026-05-02T08:43:19Z</time></trkpt><trkpt lat="44.21923159553798" lon="9.965285783337013"><ele>61.0</ele><time>2026-05-02T08:43:20Z</time></trkpt><trkpt lat="44.21923496673231" lon="9.965391303357286"><ele>60.99999999999999</ele><time>2026-05-02T08:43:21Z</time></trkpt><trkpt lat="44.21923508547145" lon="9.965497035631039"><ele>61.0</ele><time>2026-05-02T08:43:22Z</time></trkpt><trkpt lat="44.21922654605065" lon="9.96559664764077"><ele>61.0</ele><time>2026-05-02T08:43:23Z</time></trkpt><trkpt lat="44.219199557594095" lon="9.965696493905059"><ele>60.99999999999999</ele><time>2026-05-02T08:43:24Z</time></trkpt><trkpt lat="44.21916574290698" lon="9.965773700003071"><ele>60.99999999999999</ele><time>2026-05-02T08:43:25Z</time></trkpt><trkpt lat="44.21908320678442" lon="9.965909311827847"><ele>61.0</ele><time>2026-05-02T08:43:27Z</time></trkpt><trkpt lat="44.21898469271516" lon="9.966012859719136"><ele>61.0</ele><time>2026-05-02T08:43:29Z</time></trkpt><trkpt lat="44.21886823736347" lon="9.966064895151334"><ele>60.83333333333333</ele><time>2026-05-02T08:43:31Z</time></trkpt><trkpt lat="44.21873960822048" lon="9.966134870287936"><ele>60.666666666666664</ele><time>2026-05-02T08:43:33Z</time></trkpt><trkpt lat="44.21864838013235" lon="9.966092653423315"><ele>60.5</ele><time>2026-05-02T08:43:34Z</time></trkpt><trkpt lat="44.218571449255016" lon="9.966086409677654"><ele>60.33333333333333</ele><time>2026-05-02T08:43:35Z</time></trkpt><trkpt lat="44.21849986782663" lon="9.966087353498246"><ele>60.166666666666664</ele><time>2026-05-02T08:43:36Z</time></trkpt><trkpt lat="44.21843542654176" lon="9.966091696728869"><ele>60.0</ele><time>2026-05-02T08:43:37Z</time></trkpt><trkpt lat="44.21837191545564" lon="9.966097471270404"><ele>60.0</ele><time>2026-05-02T08:43:38Z</time></trkpt><trkpt lat="44.2182502218734" lon="9.966122512548132"><ele>60.0</ele><time>2026-05-02T08:43:40Z</time></trkpt><trkpt lat="44.21818466731179" lon="9.966114375084791"><ele>60.0</ele><time>2026-05-02T08:43:41Z</time></trkpt><trkpt lat="44.218111614298394" lon="9.966133251886113"><ele>60.0</ele><time>2026-05-02T08:43:42Z</time></trkpt><trkpt lat="44.2180317796437" lon="9.966155075975609"><ele>60.0</ele><time>2026-05-02T08:43:43Z</time></trkpt><trkpt lat="44.21795353764825" lon="9.966174936671685"><ele>60.0</ele><time>2026-05-02T08:43:44Z</time></trkpt><trkpt lat="44.21787453413661" lon="9.966213397997837"><ele>59.833333333333336</ele><time>2026-05-02T08:43:44.999Z</time></trkpt><trkpt lat="44.21778811134557" lon="9.966235924398966"><ele>59.66666666666667</ele><time>2026-05-02T08:43:45.999Z</time></trkpt><trkpt lat="44.21770744883465" lon="9.966259397394593"><ele>59.5</ele><time>2026-05-02T08:43:46.999Z</time></trkpt><trkpt lat="44.21762485011565" lon="9.96628250590181"><ele>59.333333333333336</ele><time>2026-05-02T08:43:47.999Z</time></trkpt><trkpt lat="44.21754268632759" lon="9.966299839734654"><ele>59.16666666666667</ele><time>2026-05-02T08:43:48.999Z</time></trkpt><trkpt lat="44.21746672913709" lon="9.966319017485628"><ele>59.0</ele><time>2026-05-02T08:43:49.999Z</time></trkpt><trkpt lat="44.2173901528022" lon="9.966314259242436"><ele>59.00000000000001</ele><time>2026-05-02T08:43:50.999Z</time></trkpt><trkpt lat="44.21732287877554" lon="9.966357770855959"><ele>59.0</ele><time>2026-05-02T08:43:51.999Z</time></trkpt><trkpt lat="44.217250218098" lon="9.966376453906271"><ele>59.0</ele><time>2026-05-02T08:43:52.999Z</time></trkpt><trkpt lat="44.21716996628465" lon="9.966393502112588"><ele>59.0</ele><time>2026-05-02T08:43:53.999Z</time></trkpt><trkpt lat="44.21708295862451" lon="9.96641782899347"><ele>59.00000000000001</ele><time>2026-05-02T08:43:54.999Z</time></trkpt><trkpt lat="44.21699043907874" lon="9.966438247632107"><ele>59.0</ele><time>2026-05-02T08:43:55.999Z</time></trkpt><trkpt lat="44.21690460262216" lon="9.966432744116792"><ele>59.00000000000001</ele><time>2026-05-02T08:43:56.999Z</time></trkpt><trkpt lat="44.21682077680118" lon="9.966454047412908"><ele>59.0</ele><time>2026-05-02T08:43:57.999Z</time></trkpt><trkpt lat="44.21674350375908" lon="9.966474291275533"><ele>59.0</ele><time>2026-05-02T08:43:58.999Z</time></trkpt><trkpt lat="44.216662645811375" lon="9.966518528001858"><ele>59.0</ele><time>2026-05-02T08:43:59.999Z</time></trkpt><trkpt lat="44.2165751519175" lon="9.966518165254802"><ele>59.00000000000001</ele><time>2026-05-02T08:44:00.999Z</time></trkpt><trkpt lat="44.216496620963376" lon="9.96653638445331"><ele>59.0</ele><time>2026-05-02T08:44:01.999Z</time></trkpt><trkpt lat="44.216429784532565" lon="9.966578897713456"><ele>59.00000000000001</ele><time>2026-05-02T08:44:02.999Z</time></trkpt><trkpt lat="44.21632940979797" lon="9.966604238400722"><ele>59.0</ele><time>2026-05-02T08:44:04.999Z</time></trkpt><trkpt lat="44.21624869614074" lon="9.96660061045059"><ele>59.0</ele><time>2026-05-02T08:44:07.001Z</time></trkpt><trkpt lat="44.216160238527216" lon="9.966618199801673"><ele>59.0</ele><time>2026-05-02T08:44:10.001Z</time></trkpt><trkpt lat="44.21609377710019" lon="9.966638658827671"><ele>59.00000000000001</ele><time>2026-05-02T08:44:12.001Z</time></trkpt><trkpt lat="44.216038248981214" lon="9.966681942640026"><ele>59.0</ele><time>2026-05-02T08:44:14.001Z</time></trkpt><trkpt lat="44.21595615654128" lon="9.966704528774036"><ele>58.800000000000004</ele><time>2026-05-02T08:44:16.001Z</time></trkpt><trkpt lat="44.21585724455614" lon="9.96674059312683"><ele>58.60000000000001</ele><time>2026-05-02T08:44:18.001Z</time></trkpt><trkpt lat="44.215768948775235" lon="9.966772774547353"><ele>58.4</ele><time>2026-05-02T08:44:20.001Z</time></trkpt><trkpt lat="44.21568469751575" lon="9.966799182689495"><ele>58.2</ele><time>2026-05-02T08:44:22.001Z</time></trkpt><trkpt lat="44.21558931997029" lon="9.96682396637074"><ele>58.0</ele><time>2026-05-02T08:44:24.001Z</time></trkpt><trkpt lat="44.21549855390627" lon="9.966843885469876"><ele>58.33333333333333</ele><time>2026-05-02T08:44:26.001Z</time></trkpt><trkpt lat="44.215415479900436" lon="9.966865474729872"><ele>58.666666666666664</ele><time>2026-05-02T08:44:28Z</time></trkpt><trkpt lat="44.215336730528726" lon="9.966878865868123"><ele>59.0</ele><time>2026-05-02T08:44:30Z</time></trkpt><trkpt lat="44.215245254931276" lon="9.96690115139608"><ele>59.33333333333333</ele><time>2026-05-02T08:44:32Z</time></trkpt><trkpt lat="44.21518433815672" lon="9.966964077200958"><ele>59.666666666666664</ele><time>2026-05-02T08:44:34Z</time></trkpt><trkpt lat="44.21513219445302" lon="9.967046151505839"><ele>60.0</ele><time>2026-05-02T08:44:36Z</time></trkpt><trkpt lat="44.21514528383948" lon="9.96714679771802"><ele>60.0</ele><time>2026-05-02T08:44:38Z</time></trkpt><trkpt lat="44.21515148899063" lon="9.967264278154449"><ele>60.0</ele><time>2026-05-02T08:44:40Z</time></trkpt><trkpt lat="44.21516717270077" lon="9.967415941953615"><ele>60.0</ele><time>2026-05-02T08:44:42Z</time></trkpt><trkpt lat="44.21518897483288" lon="9.967582252157413"><ele>60.0</ele><time>2026-05-02T08:44:44Z</time></trkpt><trkpt lat="44.21517334783348" lon="9.967724642552698"><ele>60.0</ele><time>2026-05-02T08:44:46Z</time></trkpt><trkpt lat="44.21523607861781" lon="9.96782582751661"><ele>60.166666666666664</ele><time>2026-05-02T08:44:48Z</time></trkpt><trkpt lat="44.21531650980114" lon="9.9678849415136"><ele>60.33333333333333</ele><time>2026-05-02T08:44:50Z</time></trkpt><trkpt lat="44.215410972113" lon="9.96786956173908"><ele>60.5</ele><time>2026-05-02T08:44:52Z</time></trkpt><trkpt lat="44.21550253458872" lon="9.967838235496219"><ele>60.666666666666664</ele><time>2026-05-02T08:44:54Z</time></trkpt><trkpt lat="44.21556744781356" lon="9.967816001947687"><ele>60.83333333333333</ele><time>2026-05-02T08:44:56Z</time></trkpt><trkpt lat="44.215630926146495" lon="9.967801002682243"><ele>61.0</ele><time>2026-05-02T08:44:58Z</time></trkpt><trkpt lat="44.215698934070836" lon="9.96777737288783"><ele>61.166666666666664</ele><time>2026-05-02T08:45:00Z</time></trkpt><trkpt lat="44.2157627790433" lon="9.967767271528817"><ele>61.33333333333333</ele><time>2026-05-02T08:45:02Z</time></trkpt><trkpt lat="44.2158504574389" lon="9.967753668581027"><ele>61.5</ele><time>2026-05-02T08:45:04Z</time></trkpt><trkpt lat="44.21594455530509" lon="9.967736333599618"><ele>61.66666666666667</ele><time>2026-05-02T08:45:06Z</time></trkpt><trkpt lat="44.216050384477136" lon="9.967728326608372"><ele>61.833333333333336</ele><time>2026-05-02T08:45:08Z</time></trkpt><trkpt lat="44.2161357788097" lon="9.967726599285976"><ele>62.0</ele><time>2026-05-02T08:45:10Z</time></trkpt><trkpt lat="44.21620923001025" lon="9.967694208806558"><ele>62.00000000000001</ele><time>2026-05-02T08:45:13Z</time></trkpt><trkpt lat="44.216273643393635" lon="9.967673245169902"><ele>62.0</ele><time>2026-05-02T08:46:17.001Z</time></trkpt><trkpt lat="44.216338589089425" lon="9.967649395200736"><ele>62.0</ele><time>2026-05-02T08:46:18.001Z</time></trkpt><trkpt lat="44.21642342133205" lon="9.967640213379568"><ele>62.0</ele><time>2026-05-02T08:46:19.001Z</time></trkpt><trkpt lat="44.21650165774806" lon="9.967624863176248"><ele>62.00000000000001</ele><time>2026-05-02T08:46:20.001Z</time></trkpt><trkpt lat="44.21659334434635" lon="9.967697110251434"><ele>62.0</ele><time>2026-05-02T08:46:21.001Z</time></trkpt><trkpt lat="44.21667322258176" lon="9.967776664336235"><ele>61.8</ele><time>2026-05-02T08:46:22.001Z</time></trkpt><trkpt lat="44.21674634573972" lon="9.967871897148116"><ele>61.6</ele><time>2026-05-02T08:46:23Z</time></trkpt><trkpt lat="44.216810978008255" lon="9.967974131767892"><ele>61.39999999999999</ele><time>2026-05-02T08:46:24Z</time></trkpt><trkpt lat="44.216870590559424" lon="9.968068010552072"><ele>61.199999999999996</ele><time>2026-05-02T08:46:25Z</time></trkpt><trkpt lat="44.21693216951856" lon="9.968165996846366"><ele>61.0</ele><time>2026-05-02T08:46:26Z</time></trkpt><trkpt lat="44.21698891809961" lon="9.968265660344443"><ele>60.99999999999999</ele><time>2026-05-02T08:46:27Z</time></trkpt><trkpt lat="44.21705767115603" lon="9.968330315041735"><ele>61.0</ele><time>2026-05-02T08:46:28Z</time></trkpt><trkpt lat="44.217141952619606" lon="9.96833260783461"><ele>61.0</ele><time>2026-05-02T08:46:29Z</time></trkpt><trkpt lat="44.217205092317855" lon="9.96836300907386"><ele>61.0</ele><time>2026-05-02T08:46:30Z</time></trkpt><trkpt lat="44.21728955541975" lon="9.96848161036531"><ele>60.99999999999999</ele><time>2026-05-02T08:46:32Z</time></trkpt><trkpt lat="44.21732658693677" lon="9.968577415750032"><ele>61.0</ele><time>2026-05-02T08:46:33Z</time></trkpt><trkpt lat="44.217371230281316" lon="9.968681990122517"><ele>61.49999999999999</ele><time>2026-05-02T08:46:34Z</time></trkpt><trkpt lat="44.21741221186789" lon="9.968771126155074"><ele>62.0</ele><time>2026-05-02T08:46:35Z</time></trkpt><trkpt lat="44.21745209489461" lon="9.968861952700362"><ele>62.5</ele><time>2026-05-02T08:46:36Z</time></trkpt><trkpt lat="44.21749706245272" lon="9.968964969084587"><ele>63.0</ele><time>2026-05-02T08:46:37Z</time></trkpt><trkpt lat="44.21754694113533" lon="9.96907317113208"><ele>63.49999999999999</ele><time>2026-05-02T08:46:38Z</time></trkpt><trkpt lat="44.21759201893361" lon="9.969182890870098"><ele>64.0</ele><time>2026-05-02T08:46:39Z</time></trkpt><trkpt lat="44.217636001342655" lon="9.969305301928065"><ele>65.0</ele><time>2026-05-02T08:46:40Z</time></trkpt><trkpt lat="44.21767834865048" lon="9.969423261641513"><ele>66.0</ele><time>2026-05-02T08:46:41Z</time></trkpt><trkpt lat="44.21773786629354" lon="9.969529876708688"><ele>67.0</ele><time>2026-05-02T08:46:42Z</time></trkpt><trkpt lat="44.217824506574004" lon="9.969615773311794"><ele>68.0</ele><time>2026-05-02T08:46:43Z</time></trkpt><trkpt lat="44.21792608065317" lon="9.969697770120282"><ele>69.0</ele><time>2026-05-02T08:46:44Z</time></trkpt><trkpt lat="44.21803769749772" lon="9.969766517520583"><ele>69.0</ele><time>2026-05-02T08:46:45Z</time></trkpt><trkpt lat="44.21815068866683" lon="9.96982675347598"><ele>69.0</ele><time>2026-05-02T08:46:46Z</time></trkpt><trkpt lat="44.2182665160682" lon="9.969892015990698"><ele>69.0</ele><time>2026-05-02T08:46:47Z</time></trkpt><trkpt lat="44.21838358301881" lon="9.969965178956285"><ele>69.0</ele><time>2026-05-02T08:46:48Z</time></trkpt><trkpt lat="44.218454018501454" lon="9.970021844988564"><ele>68.0</ele><time>2026-05-02T08:46:49Z</time></trkpt><trkpt lat="44.21852105278039" lon="9.970015582773687"><ele>67.0</ele><time>2026-05-02T08:46:50Z</time></trkpt><trkpt lat="44.21860781961619" lon="9.970030309057673"><ele>66.0</ele><time>2026-05-02T08:46:51Z</time></trkpt><trkpt lat="44.21869819667828" lon="9.970031493672543"><ele>65.0</ele><time>2026-05-02T08:46:52Z</time></trkpt><trkpt lat="44.21877768956344" lon="9.970021826551761"><ele>64.0</ele><time>2026-05-02T08:46:53Z</time></trkpt><trkpt lat="44.21885695890006" lon="9.97000399746713"><ele>63.0</ele><time>2026-05-02T08:46:54Z</time></trkpt><trkpt lat="44.21893995601765" lon="9.969966272323047"><ele>62.833333333333336</ele><time>2026-05-02T08:46:55Z</time></trkpt><trkpt lat="44.219026711703066" lon="9.969918758336144"><ele>62.66666666666667</ele><time>2026-05-02T08:46:56Z</time></trkpt><trkpt lat="44.219117829785134" lon="9.969910868415546"><ele>62.5</ele><time>2026-05-02T08:46:57Z</time></trkpt><trkpt lat="44.21919891589202" lon="9.969874412082488"><ele>62.333333333333336</ele><time>2026-05-02T08:46:58Z</time></trkpt><trkpt lat="44.219270714760675" lon="9.96984213125004"><ele>62.16666666666667</ele><time>2026-05-02T08:46:59Z</time></trkpt><trkpt lat="44.21934260653782" lon="9.969792650375219"><ele>62.0</ele><time>2026-05-02T08:47:00Z</time></trkpt><trkpt lat="44.21951409650435" lon="9.969736501967787"><ele>62.0</ele><time>2026-05-02T08:47:01Z</time></trkpt><trkpt lat="44.21958742407654" lon="9.969657772728903"><ele>62.0</ele><time>2026-05-02T08:47:02Z</time></trkpt><trkpt lat="44.21967074970022" lon="9.969586792955544"><ele>62.0</ele><time>2026-05-02T08:47:03Z</time></trkpt><trkpt lat="44.2197563058053" lon="9.969528306052789"><ele>62.0</ele><time>2026-05-02T08:47:04Z</time></trkpt><trkpt lat="44.21984064005074" lon="9.969473785273397"><ele>62.0</ele><time>2026-05-02T08:47:05Z</time></trkpt><trkpt lat="44.21993093443674" lon="9.96943499266372"><ele>62.0</ele><time>2026-05-02T08:47:06Z</time></trkpt><trkpt lat="44.22002503886778" lon="9.96941283569378"><ele>62.0</ele><time>2026-05-02T08:47:07Z</time></trkpt><trkpt lat="44.22013545291983" lon="9.969418437116305"><ele>62.0</ele><time>2026-05-02T08:47:08Z</time></trkpt><trkpt lat="44.22024908238714" lon="9.969440228809102"><ele>62.0</ele><time>2026-05-02T08:47:09Z</time></trkpt><trkpt lat="44.22036441083921" lon="9.969482781725423"><ele>62.0</ele><time>2026-05-02T08:47:10Z</time></trkpt><trkpt lat="44.22046972088051" lon="9.969538960478957"><ele>62.00000000000001</ele><time>2026-05-02T08:47:11Z</time></trkpt><trkpt lat="44.22056230183547" lon="9.969587369622054"><ele>62.0</ele><time>2026-05-02T08:47:12Z</time></trkpt><trkpt lat="44.220633596840464" lon="9.969626412221436"><ele>62.0</ele><time>2026-05-02T08:47:13Z</time></trkpt><trkpt lat="44.22070027678158" lon="9.969661286337343"><ele>62.0</ele><time>2026-05-02T08:47:14Z</time></trkpt><trkpt lat="44.220793740139456" lon="9.969712052779558"><ele>62.00000000000001</ele><time>2026-05-02T08:47:16Z</time></trkpt><trkpt lat="44.220857743010185" lon="9.969750143751604"><ele>62.0</ele><time>2026-05-02T08:47:18Z</time></trkpt><trkpt lat="44.22093086494372" lon="9.969789576023071"><ele>62.16666666666667</ele><time>2026-05-02T08:47:20.999Z</time></trkpt><trkpt lat="44.22101626313346" lon="9.969836279978695"><ele>62.333333333333336</ele><time>2026-05-02T08:47:23.999Z</time></trkpt><trkpt lat="44.22109571825467" lon="9.969867659502993"><ele>62.5</ele><time>2026-05-02T08:47:25.999Z</time></trkpt><trkpt lat="44.221157965629374" lon="9.969887539448914"><ele>62.66666666666667</ele><time>2026-05-02T08:47:26.999Z</time></trkpt><trkpt lat="44.221229876624285" lon="9.969918088961215"><ele>62.833333333333336</ele><time>2026-05-02T08:47:27.999Z</time></trkpt><trkpt lat="44.221303859827884" lon="9.96994005920864"><ele>63.0</ele><time>2026-05-02T08:47:28.999Z</time></trkpt><trkpt lat="44.221385030201866" lon="9.969956932841967"><ele>63.0</ele><time>2026-05-02T08:47:29.999Z</time></trkpt><trkpt lat="44.221477947063434" lon="9.969978565563002"><ele>63.0</ele><time>2026-05-02T08:47:30.999Z</time></trkpt><trkpt lat="44.22155693665759" lon="9.969993626823962"><ele>63.0</ele><time>2026-05-02T08:47:31.999Z</time></trkpt><trkpt lat="44.22163840828625" lon="9.970012638100387"><ele>63.0</ele><time>2026-05-02T08:47:32.999Z</time></trkpt><trkpt lat="44.22173235252573" lon="9.970021122780436"><ele>63.0</ele><time>2026-05-02T08:47:33.999Z</time></trkpt><trkpt lat="44.22182833281307" lon="9.970029375893672"><ele>63.0</ele><time>2026-05-02T08:47:34.999Z</time></trkpt><trkpt lat="44.22192474076523" lon="9.970032657603689"><ele>63.2</ele><time>2026-05-02T08:47:35.999Z</time></trkpt><trkpt lat="44.22201950371037" lon="9.970031776840282"><ele>63.4</ele><time>2026-05-02T08:47:36.999Z</time></trkpt><trkpt lat="44.222114306094774" lon="9.970028739721165"><ele>63.60000000000001</ele><time>2026-05-02T08:47:37.999Z</time></trkpt><trkpt lat="44.22220002597671" lon="9.970025164154036"><ele>63.800000000000004</ele><time>2026-05-02T08:47:38.999Z</time></trkpt><trkpt lat="44.222288016040615" lon="9.970013606101974"><ele>64.0</ele><time>2026-05-02T08:47:39.999Z</time></trkpt><trkpt lat="44.22237863168751" lon="9.970002633455842"><ele>64.16666666666666</ele><time>2026-05-02T08:47:40.999Z</time></trkpt><trkpt lat="44.222468327985226" lon="9.969983472888588"><ele>64.33333333333333</ele><time>2026-05-02T08:47:41.999Z</time></trkpt><trkpt lat="44.22255486108093" lon="9.96997618055733"><ele>64.5</ele><time>2026-05-02T08:47:42.999Z</time></trkpt><trkpt lat="44.22264118445414" lon="9.969953230178405"><ele>64.66666666666667</ele><time>2026-05-02T08:47:43.999Z</time></trkpt><trkpt lat="44.22272771962109" lon="9.969930910244367"><ele>64.83333333333334</ele><time>2026-05-02T08:47:44.999Z</time></trkpt><trkpt lat="44.222808907103854" lon="9.969911697927254"><ele>65.0</ele><time>2026-05-02T08:47:45.999Z</time></trkpt><trkpt lat="44.2228838128086" lon="9.969886640058936"><ele>65.0</ele><time>2026-05-02T08:47:46.999Z</time></trkpt><trkpt lat="44.22294643282953" lon="9.969862075735234"><ele>65.0</ele><time>2026-05-02T08:47:47.999Z</time></trkpt><trkpt lat="44.223008117687485" lon="9.969837210589823"><ele>65.0</ele><time>2026-05-02T08:47:48.999Z</time></trkpt><trkpt lat="44.223071876824804" lon="9.96980616793972"><ele>65.0</ele><time>2026-05-02T08:47:49.999Z</time></trkpt><trkpt lat="44.22314218037809" lon="9.969778300048581"><ele>65.0</ele><time>2026-05-02T08:47:50.999Z</time></trkpt><trkpt lat="44.22323421202448" lon="9.969732842275526"><ele>65.0</ele><time>2026-05-02T08:47:51.999Z</time></trkpt><trkpt lat="44.223345091223635" lon="9.969690322753246"><ele>65.5</ele><time>2026-05-02T08:47:52.999Z</time></trkpt><trkpt lat="44.22345564735548" lon="9.969634396914628"><ele>66.0</ele><time>2026-05-02T08:47:53.999Z</time></trkpt><trkpt lat="44.223569537881886" lon="9.969574566469005"><ele>66.5</ele><time>2026-05-02T08:47:54.999Z</time></trkpt><trkpt lat="44.22368532663202" lon="9.969516409183468"><ele>67.0</ele><time>2026-05-02T08:47:55.999Z</time></trkpt><trkpt lat="44.223812292250706" lon="9.96945683962924"><ele>67.0</ele><time>2026-05-02T08:47:56.999Z</time></trkpt><trkpt lat="44.22394502739999" lon="9.969396537916012"><ele>67.0</ele><time>2026-05-02T08:47:57.999Z</time></trkpt><trkpt lat="44.2240727443349" lon="9.969333635980709"><ele>67.0</ele><time>2026-05-02T08:47:58.999Z</time></trkpt><trkpt lat="44.224198449700125" lon="9.969268066721826"><ele>67.0</ele><time>2026-05-02T08:47:59.999Z</time></trkpt><trkpt lat="44.22431659782154" lon="9.969205328665442"><ele>66.75</ele><time>2026-05-02T08:48:00.999Z</time></trkpt><trkpt lat="44.22443142075773" lon="9.969144462657383"><ele>66.5</ele><time>2026-05-02T08:48:01.999Z</time></trkpt><trkpt lat="44.224535373087754" lon="9.969085366836008"><ele>66.25</ele><time>2026-05-02T08:48:02.999Z</time></trkpt><trkpt lat="44.22463487255781" lon="9.969025916253694"><ele>66.0</ele><time>2026-05-02T08:48:03.999Z</time></trkpt><trkpt lat="44.224739662269045" lon="9.968952841085128"><ele>66.25</ele><time>2026-05-02T08:48:04.999Z</time></trkpt><trkpt lat="44.22484814976913" lon="9.96888121485214"><ele>66.5</ele><time>2026-05-02T08:48:05.999Z</time></trkpt><trkpt lat="44.22495829088191" lon="9.968800863742443"><ele>66.75</ele><time>2026-05-02T08:48:06.999Z</time></trkpt><trkpt lat="44.22506030929462" lon="9.96871602546275"><ele>67.0</ele><time>2026-05-02T08:48:07.999Z</time></trkpt><trkpt lat="44.22515756846098" lon="9.968632601297543"><ele>67.0</ele><time>2026-05-02T08:48:08.999Z</time></trkpt><trkpt lat="44.22525257276594" lon="9.968553440347897"><ele>67.0</ele><time>2026-05-02T08:48:09.999Z</time></trkpt><trkpt lat="44.22533544652932" lon="9.968477857679805"><ele>67.0</ele><time>2026-05-02T08:48:10.999Z</time></trkpt><trkpt lat="44.22542030770605" lon="9.96840140331466"><ele>67.0</ele><time>2026-05-02T08:48:11.999Z</time></trkpt><trkpt lat="44.225506319129835" lon="9.96832127880215"><ele>67.0</ele><time>2026-05-02T08:48:12.999Z</time></trkpt><trkpt lat="44.225588791687485" lon="9.968240484002019"><ele>67.0</ele><time>2026-05-02T08:48:13.999Z</time></trkpt><trkpt lat="44.22566376568401" lon="9.968163332813353"><ele>67.0</ele><time>2026-05-02T08:48:14.999Z</time></trkpt><trkpt lat="44.22573448468122" lon="9.968087263595416"><ele>67.0</ele><time>2026-05-02T08:48:15.999Z</time></trkpt><trkpt lat="44.22580210397335" lon="9.968011077809793"><ele>67.0</ele><time>2026-05-02T08:48:16.999Z</time></trkpt><trkpt lat="44.22587418037779" lon="9.967923868282897"><ele>67.0</ele><time>2026-05-02T08:48:18Z</time></trkpt><trkpt lat="44.22594993162454" lon="9.967837499336374"><ele>67.0</ele><time>2026-05-02T08:48:19Z</time></trkpt><trkpt lat="44.22601505049158" lon="9.96774699461928"><ele>67.0</ele><time>2026-05-02T08:48:20Z</time></trkpt><trkpt lat="44.22607211394095" lon="9.967661802957176"><ele>67.0</ele><time>2026-05-02T08:48:21Z</time></trkpt><trkpt lat="44.22612356302632" lon="9.967582406226503"><ele>67.0</ele><time>2026-05-02T08:48:22Z</time></trkpt><trkpt lat="44.22617030000749" lon="9.967505861747632"><ele>67.0</ele><time>2026-05-02T08:48:23Z</time></trkpt><trkpt lat="44.22622884212748" lon="9.967410279816384"><ele>67.0</ele><time>2026-05-02T08:48:24Z</time></trkpt><trkpt lat="44.22629404882821" lon="9.96731132190659"><ele>66.83333333333333</ele><time>2026-05-02T08:48:25Z</time></trkpt><trkpt lat="44.22635161031355" lon="9.967225043180918"><ele>66.66666666666666</ele><time>2026-05-02T08:48:26Z</time></trkpt><trkpt lat="44.22640057876741" lon="9.967151850464143"><ele>66.5</ele><time>2026-05-02T08:48:27Z</time></trkpt><trkpt lat="44.22644104194463" lon="9.967078305460468"><ele>66.33333333333333</ele><time>2026-05-02T08:48:28Z</time></trkpt><trkpt lat="44.22648260732664" lon="9.967008410969664"><ele>66.16666666666667</ele><time>2026-05-02T08:48:29Z</time></trkpt><trkpt lat="44.226524065884256" lon="9.966938346719333"><ele>66.0</ele><time>2026-05-02T08:48:30Z</time></trkpt><trkpt lat="44.22658651198104" lon="9.966829959188644"><ele>65.33333333333333</ele><time>2026-05-02T08:48:31Z</time></trkpt><trkpt lat="44.226692812594976" lon="9.966686549533383"><ele>64.66666666666666</ele><time>2026-05-02T08:48:32Z</time></trkpt><trkpt lat="44.22679988452896" lon="9.966505466733292"><ele>64.0</ele><time>2026-05-02T08:48:33Z</time></trkpt><trkpt lat="44.22692096486976" lon="9.966305662539245"><ele>64.0</ele><time>2026-05-02T08:48:34Z</time></trkpt><trkpt lat="44.22704571469063" lon="9.966124685584463"><ele>64.0</ele><time>2026-05-02T08:48:35Z</time></trkpt><trkpt lat="44.22717178283836" lon="9.965978515897298"><ele>64.0</ele><time>2026-05-02T08:48:36Z</time></trkpt><trkpt lat="44.22730623602528" lon="9.965867033090504"><ele>64.66666666666666</ele><time>2026-05-02T08:48:37Z</time></trkpt><trkpt lat="44.227458238297" lon="9.965794964454169"><ele>65.33333333333333</ele><time>2026-05-02T08:48:38Z</time></trkpt><trkpt lat="44.22762770634704" lon="9.965733346458247"><ele>66.0</ele><time>2026-05-02T08:48:39Z</time></trkpt><trkpt lat="44.22778013819842" lon="9.965678969929325"><ele>66.0</ele><time>2026-05-02T08:48:40Z</time></trkpt><trkpt lat="44.22792851098578" lon="9.96563013569182"><ele>66.0</ele><time>2026-05-02T08:48:41Z</time></trkpt><trkpt lat="44.22806966701266" lon="9.96557334809086"><ele>66.0</ele><time>2026-05-02T08:48:42Z</time></trkpt><trkpt lat="44.22820081068157" lon="9.965522725615562"><ele>66.0</ele><time>2026-05-02T08:48:43Z</time></trkpt><trkpt lat="44.228326983588005" lon="9.96546940624282"><ele>66.25</ele><time>2026-05-02T08:48:44Z</time></trkpt><trkpt lat="44.228446489471814" lon="9.965423226096231"><ele>66.5</ele><time>2026-05-02T08:48:45Z</time></trkpt><trkpt lat="44.22856645028306" lon="9.965381799095885"><ele>66.75</ele><time>2026-05-02T08:48:46Z</time></trkpt><trkpt lat="44.22867954123475" lon="9.965339657319653"><ele>67.0</ele><time>2026-05-02T08:48:47Z</time></trkpt><trkpt lat="44.22878890892649" lon="9.96529620398796"><ele>67.0</ele><time>2026-05-02T08:48:48Z</time></trkpt><trkpt lat="44.22889802809422" lon="9.965252864853515"><ele>67.0</ele><time>2026-05-02T08:48:49Z</time></trkpt><trkpt lat="44.229007568313136" lon="9.965210930550743"><ele>67.0</ele><time>2026-05-02T08:48:50Z</time></trkpt><trkpt lat="44.22910801340281" lon="9.965176905469985"><ele>67.0</ele><time>2026-05-02T08:48:51Z</time></trkpt><trkpt lat="44.22920694804632" lon="9.965148321452991"><ele>67.0</ele><time>2026-05-02T08:48:52Z</time></trkpt><trkpt lat="44.22930114415065" lon="9.965122324492825"><ele>67.0</ele><time>2026-05-02T08:48:53Z</time></trkpt><trkpt lat="44.229388530402865" lon="9.965094770124399"><ele>67.0</ele><time>2026-05-02T08:48:54Z</time></trkpt><trkpt lat="44.22947558210488" lon="9.965066891104268"><ele>67.0</ele><time>2026-05-02T08:48:55Z</time></trkpt><trkpt lat="44.22955582544565" lon="9.965039719929553"><ele>67.0</ele><time>2026-05-02T08:48:56Z</time></trkpt><trkpt lat="44.22962708140785" lon="9.965009559235936"><ele>67.0</ele><time>2026-05-02T08:48:57Z</time></trkpt><trkpt lat="44.22968829166664" lon="9.96498245754827"><ele>67.0</ele><time>2026-05-02T08:48:58Z</time></trkpt><trkpt lat="44.22979508573838" lon="9.964944623417992"><ele>68.4</ele><time>2026-05-02T08:49:00Z</time></trkpt><trkpt lat="44.229895338261684" lon="9.96490790488804"><ele>69.80000000000001</ele><time>2026-05-02T08:49:02Z</time></trkpt><trkpt lat="44.22999430311694" lon="9.964869503777743"><ele>71.2</ele><time>2026-05-02T08:49:04Z</time></trkpt><trkpt lat="44.23006016605262" lon="9.964835984202452"><ele>72.60000000000001</ele><time>2026-05-02T08:49:05Z</time></trkpt><trkpt lat="44.23014927172226" lon="9.9647934168396"><ele>74.0</ele><time>2026-05-02T08:49:06Z</time></trkpt><trkpt lat="44.230247413065506" lon="9.964725182605779"><ele>74.0</ele><time>2026-05-02T08:49:07Z</time></trkpt><trkpt lat="44.230338310538095" lon="9.964649241617431"><ele>74.0</ele><time>2026-05-02T08:49:08Z</time></trkpt><trkpt lat="44.23041977817287" lon="9.964574311345153"><ele>74.0</ele><time>2026-05-02T08:49:09Z</time></trkpt><trkpt lat="44.23049251465067" lon="9.964479395756243"><ele>74.0</ele><time>2026-05-02T08:49:10Z</time></trkpt><trkpt lat="44.23056896443208" lon="9.964366601840297"><ele>74.0</ele><time>2026-05-02T08:49:11Z</time></trkpt><trkpt lat="44.23066252033045" lon="9.964253628733722"><ele>74.75</ele><time>2026-05-02T08:49:12Z</time></trkpt><trkpt lat="44.23071613225607" lon="9.964079708366649"><ele>75.5</ele><time>2026-05-02T08:49:13Z</time></trkpt><trkpt lat="44.230772776802034" lon="9.963911946070091"><ele>76.25</ele><time>2026-05-02T08:49:14Z</time></trkpt><trkpt lat="44.23080802342668" lon="9.963722209092655"><ele>77.0</ele><time>2026-05-02T08:49:15Z</time></trkpt><trkpt lat="44.2308417625007" lon="9.963509876208388"><ele>76.0</ele><time>2026-05-02T08:49:15.999Z</time></trkpt><trkpt lat="44.230877468225934" lon="9.963280435963851"><ele>75.0</ele><time>2026-05-02T08:49:16.999Z</time></trkpt><trkpt lat="44.230911527801744" lon="9.963056748636323"><ele>74.0</ele><time>2026-05-02T08:49:17.999Z</time></trkpt><trkpt lat="44.23094665752076" lon="9.962843964995137"><ele>74.0</ele><time>2026-05-02T08:49:18.999Z</time></trkpt><trkpt lat="44.23098047696858" lon="9.962629403921257"><ele>74.0</ele><time>2026-05-02T08:49:19.999Z</time></trkpt><trkpt lat="44.231030562723795" lon="9.962421893044189"><ele>74.0</ele><time>2026-05-02T08:49:20.999Z</time></trkpt><trkpt lat="44.231069216814106" lon="9.962224309417554"><ele>73.75</ele><time>2026-05-02T08:49:21.999Z</time></trkpt><trkpt lat="44.23111181475308" lon="9.962030841931329"><ele>73.5</ele><time>2026-05-02T08:49:22.999Z</time></trkpt><trkpt lat="44.231165578623674" lon="9.96184802406886"><ele>73.25</ele><time>2026-05-02T08:49:23.999Z</time></trkpt><trkpt lat="44.23123541027725" lon="9.961669433690366"><ele>73.0</ele><time>2026-05-02T08:49:24.999Z</time></trkpt><trkpt lat="44.23131995014071" lon="9.961495455656626"><ele>73.0</ele><time>2026-05-02T08:49:25.999Z</time></trkpt><trkpt lat="44.231407422862524" lon="9.961302789917843"><ele>73.0</ele><time>2026-05-02T08:49:26.999Z</time></trkpt><trkpt lat="44.231523143685486" lon="9.961141615709247"><ele>73.0</ele><time>2026-05-02T08:49:27.999Z</time></trkpt><trkpt lat="44.23166522899327" lon="9.961014012417886"><ele>73.66666666666666</ele><time>2026-05-02T08:49:28.999Z</time></trkpt><trkpt lat="44.231804684603986" lon="9.960884657735546"><ele>74.33333333333333</ele><time>2026-05-02T08:49:29.999Z</time></trkpt><trkpt lat="44.23195832069423" lon="9.960778904765027"><ele>75.0</ele><time>2026-05-02T08:49:30.999Z</time></trkpt><trkpt lat="44.23212185026478" lon="9.96068663972183"><ele>75.0</ele><time>2026-05-02T08:49:31.999Z</time></trkpt><trkpt lat="44.23229294881882" lon="9.960627842758042"><ele>75.0</ele><time>2026-05-02T08:49:32.999Z</time></trkpt><trkpt lat="44.23246940938977" lon="9.960585415773448"><ele>75.0</ele><time>2026-05-02T08:49:33.999Z</time></trkpt><trkpt lat="44.23265610702733" lon="9.960546103460755"><ele>76.66666666666667</ele><time>2026-05-02T08:49:34.999Z</time></trkpt><trkpt lat="44.23285156156676" lon="9.960519402617823"><ele>78.33333333333334</ele><time>2026-05-02T08:49:35.999Z</time></trkpt><trkpt lat="44.23304756196508" lon="9.960497149127795"><ele>80.0</ele><time>2026-05-02T08:49:36.999Z</time></trkpt><trkpt lat="44.23324469604819" lon="9.960475554581917"><ele>81.33333333333334</ele><time>2026-05-02T08:49:37.999Z</time></trkpt><trkpt lat="44.23344277515672" lon="9.960455233548391"><ele>82.66666666666667</ele><time>2026-05-02T08:49:38.999Z</time></trkpt><trkpt lat="44.23364684103868" lon="9.960432026746867"><ele>84.0</ele><time>2026-05-02T08:49:39.999Z</time></trkpt><trkpt lat="44.23384756058207" lon="9.960412179024186"><ele>85.66666666666667</ele><time>2026-05-02T08:49:40.999Z</time></trkpt><trkpt lat="44.23405128915198" lon="9.960384513873896"><ele>87.33333333333334</ele><time>2026-05-02T08:49:41.999Z</time></trkpt><trkpt lat="44.2342518573596" lon="9.960356415714301"><ele>89.0</ele><time>2026-05-02T08:49:42.999Z</time></trkpt><trkpt lat="44.23445706050853" lon="9.960332098895682"><ele>89.0</ele><time>2026-05-02T08:49:43.999Z</time></trkpt><trkpt lat="44.23466181106462" lon="9.960307719517479"><ele>89.0</ele><time>2026-05-02T08:49:44.999Z</time></trkpt><trkpt lat="44.23486633821769" lon="9.960282109807526"><ele>89.0</ele><time>2026-05-02T08:49:45.999Z</time></trkpt><trkpt lat="44.235077161565805" lon="9.96025234557693"><ele>89.66666666666667</ele><time>2026-05-02T08:49:46.999Z</time></trkpt><trkpt lat="44.23528862162016" lon="9.960223048688393"><ele>90.33333333333333</ele><time>2026-05-02T08:49:47.999Z</time></trkpt><trkpt lat="44.235496872036855" lon="9.960201229593267"><ele>91.0</ele><time>2026-05-02T08:49:48.999Z</time></trkpt><trkpt lat="44.23570290317245" lon="9.960178658892493"><ele>92.66666666666666</ele><time>2026-05-02T08:49:49.999Z</time></trkpt><trkpt lat="44.235915337619716" lon="9.960159339463535"><ele>94.33333333333333</ele><time>2026-05-02T08:49:50.999Z</time></trkpt><trkpt lat="44.23612738151695" lon="9.960134660233944"><ele>96.0</ele><time>2026-05-02T08:49:51.999Z</time></trkpt><trkpt lat="44.236337138614815" lon="9.960106613684179"><ele>97.0</ele><time>2026-05-02T08:49:52.999Z</time></trkpt><trkpt lat="44.23653705586538" lon="9.960078510179736"><ele>98.0</ele><time>2026-05-02T08:49:53.999Z</time></trkpt><trkpt lat="44.23674205735519" lon="9.960058645221459"><ele>99.0</ele><time>2026-05-02T08:49:54.999Z</time></trkpt><trkpt lat="44.236944999949266" lon="9.960041276589559"><ele>93.33333333333333</ele><time>2026-05-02T08:49:55.999Z</time></trkpt><trkpt lat="44.23715435003601" lon="9.960020349275814"><ele>87.66666666666666</ele><time>2026-05-02T08:49:56.999Z</time></trkpt><trkpt lat="44.23736724150488" lon="9.959998271217026"><ele>82.0</ele><time>2026-05-02T08:49:57.999Z</time></trkpt><trkpt lat="44.23757729774197" lon="9.959976350844679"><ele>82.0</ele><time>2026-05-02T08:49:58.999Z</time></trkpt><trkpt lat="44.23778622507799" lon="9.959946149150998"><ele>82.0</ele><time>2026-05-02T08:49:59.999Z</time></trkpt><trkpt lat="44.23799675790751" lon="9.959919514711201"><ele>82.0</ele><time>2026-05-02T08:50:00.999Z</time></trkpt><trkpt lat="44.238198082687106" lon="9.959897508860431"><ele>82.0</ele><time>2026-05-02T08:50:01.999Z</time></trkpt><trkpt lat="44.23835236335362" lon="9.959874766515357"><ele>82.0</ele><time>2026-05-02T08:50:02.999Z</time></trkpt><trkpt lat="44.23851141110705" lon="9.959857935321638"><ele>82.0</ele><time>2026-05-02T08:50:03.999Z</time></trkpt><trkpt lat="44.23867208434262" lon="9.959839574511482"><ele>82.0</ele><time>2026-05-02T08:50:04.999Z</time></trkpt><trkpt lat="44.23882721785805" lon="9.959822990181683"><ele>82.0</ele><time>2026-05-02T08:50:05.999Z</time></trkpt><trkpt lat="44.23897199981622" lon="9.959803452872535"><ele>82.0</ele><time>2026-05-02T08:50:06.999Z</time></trkpt><trkpt lat="44.239112659846235" lon="9.959783334784552"><ele>82.0</ele><time>2026-05-02T08:50:07.999Z</time></trkpt><trkpt lat="44.239251871282384" lon="9.959772229688573"><ele>82.0</ele><time>2026-05-02T08:50:08.999Z</time></trkpt><trkpt lat="44.2393956307797" lon="9.95975379123573"><ele>82.0</ele><time>2026-05-02T08:50:09.999Z</time></trkpt><trkpt lat="44.239542202490476" lon="9.95973988027829"><ele>82.0</ele><time>2026-05-02T08:50:10.999Z</time></trkpt><trkpt lat="44.23969453947685" lon="9.95971967565593"><ele>82.0</ele><time>2026-05-02T08:50:11.999Z</time></trkpt><trkpt lat="44.23985218921354" lon="9.959698352319737"><ele>82.66666666666666</ele><time>2026-05-02T08:50:12.999Z</time></trkpt><trkpt lat="44.24001407639634" lon="9.959678819487753"><ele>83.33333333333333</ele><time>2026-05-02T08:50:13.999Z</time></trkpt><trkpt lat="44.24018609979924" lon="9.959657053248756"><ele>84.0</ele><time>2026-05-02T08:50:14.999Z</time></trkpt><trkpt lat="44.24036671619209" lon="9.959636553884689"><ele>84.0</ele><time>2026-05-02T08:50:15.999Z</time></trkpt><trkpt lat="44.24054923300996" lon="9.959607684269441"><ele>84.0</ele><time>2026-05-02T08:50:16.999Z</time></trkpt><trkpt lat="44.240738234302015" lon="9.959588197173506"><ele>84.0</ele><time>2026-05-02T08:50:17.999Z</time></trkpt><trkpt lat="44.24092236870992" lon="9.959553381206884"><ele>85.0</ele><time>2026-05-02T08:50:18.999Z</time></trkpt><trkpt lat="44.241104568646655" lon="9.959528721865512"><ele>86.0</ele><time>2026-05-02T08:50:19.999Z</time></trkpt><trkpt lat="44.241295403820445" lon="9.959516771483612"><ele>87.0</ele><time>2026-05-02T08:50:20.999Z</time></trkpt><trkpt lat="44.24148354480591" lon="9.959493765543511"><ele>88.33333333333333</ele><time>2026-05-02T08:50:21.999Z</time></trkpt><trkpt lat="44.2416707484973" lon="9.95946534680392"><ele>89.66666666666666</ele><time>2026-05-02T08:50:22.999Z</time></trkpt><trkpt lat="44.24185782474671" lon="9.959435825074461"><ele>91.0</ele><time>2026-05-02T08:50:24Z</time></trkpt><trkpt lat="44.242041016988715" lon="9.959412346146674"><ele>91.0</ele><time>2026-05-02T08:50:25Z</time></trkpt><trkpt lat="44.24222985207976" lon="9.959384022199695"><ele>91.0</ele><time>2026-05-02T08:50:26Z</time></trkpt><trkpt lat="44.24242494678057" lon="9.959360433176089"><ele>91.0</ele><time>2026-05-02T08:50:27Z</time></trkpt><trkpt lat="44.242619491493016" lon="9.959339361475626"><ele>92.66666666666666</ele><time>2026-05-02T08:50:28Z</time></trkpt><trkpt lat="44.24280131054318" lon="9.9593203245941"><ele>94.33333333333333</ele><time>2026-05-02T08:50:29Z</time></trkpt><trkpt lat="44.24296953152704" lon="9.959296150862674"><ele>96.0</ele><time>2026-05-02T08:50:30Z</time></trkpt><trkpt lat="44.243123863865776" lon="9.959286321246928"><ele>96.33333333333334</ele><time>2026-05-02T08:50:31Z</time></trkpt><trkpt lat="44.243262101789576" lon="9.959375091171696"><ele>96.66666666666667</ele><time>2026-05-02T08:50:32Z</time></trkpt><trkpt lat="44.24339292800023" lon="9.959475160102754"><ele>97.0</ele><time>2026-05-02T08:50:33Z</time></trkpt><trkpt lat="44.24352141899945" lon="9.959633633928364"><ele>97.0</ele><time>2026-05-02T08:50:34Z</time></trkpt><trkpt lat="44.243663598980746" lon="9.959799219680644"><ele>97.0</ele><time>2026-05-02T08:50:35Z</time></trkpt><trkpt lat="44.24381767288405" lon="9.959955264556642"><ele>97.0</ele><time>2026-05-02T08:50:36Z</time></trkpt><trkpt lat="44.24396837709033" lon="9.960122410518165"><ele>97.33333333333334</ele><time>2026-05-02T08:50:37Z</time></trkpt><trkpt lat="44.244116898975825" lon="9.960271680596952"><ele>97.66666666666666</ele><time>2026-05-02T08:50:38Z</time></trkpt><trkpt lat="44.24424968389602" lon="9.960412934380107"><ele>98.0</ele><time>2026-05-02T08:50:39Z</time></trkpt><trkpt lat="44.244376468827795" lon="9.960559671864385"><ele>98.0</ele><time>2026-05-02T08:50:40Z</time></trkpt><trkpt lat="44.24450937520963" lon="9.960684622238329"><ele>98.0</ele><time>2026-05-02T08:50:41Z</time></trkpt><trkpt lat="44.24466255322292" lon="9.960754448416141"><ele>98.0</ele><time>2026-05-02T08:50:42Z</time></trkpt><trkpt lat="44.24483009241836" lon="9.960772111432556"><ele>95.33333333333333</ele><time>2026-05-02T08:50:43Z</time></trkpt><trkpt lat="44.244998256781756" lon="9.960730227821715"><ele>92.66666666666666</ele><time>2026-05-02T08:50:44Z</time></trkpt><trkpt lat="44.2451693482339" lon="9.96068219290382"><ele>90.0</ele><time>2026-05-02T08:50:45Z</time></trkpt><trkpt lat="44.24533276837864" lon="9.960638593331222"><ele>90.0</ele><time>2026-05-02T08:50:46Z</time></trkpt><trkpt lat="44.24549170503405" lon="9.960611558922134"><ele>90.0</ele><time>2026-05-02T08:50:47Z</time></trkpt><trkpt lat="44.245648694285315" lon="9.960606753052822"><ele>90.0</ele><time>2026-05-02T08:50:48Z</time></trkpt><trkpt lat="44.24580061744037" lon="9.960623060692603"><ele>90.0</ele><time>2026-05-02T08:50:49Z</time></trkpt><trkpt lat="44.245943875655826" lon="9.960639696613411"><ele>90.0</ele><time>2026-05-02T08:50:50Z</time></trkpt><trkpt lat="44.246079611392275" lon="9.960606284264236"><ele>90.0</ele><time>2026-05-02T08:50:51Z</time></trkpt><trkpt lat="44.24621499504215" lon="9.96052168997754"><ele>90.0</ele><time>2026-05-02T08:50:52Z</time></trkpt><trkpt lat="44.24634137539709" lon="9.960395289221397"><ele>90.0</ele><time>2026-05-02T08:50:53Z</time></trkpt><trkpt lat="44.24644533025754" lon="9.960223443981342"><ele>90.0</ele><time>2026-05-02T08:50:54Z</time></trkpt><trkpt lat="44.24651723077687" lon="9.96001171604304"><ele>90.0</ele><time>2026-05-02T08:50:55Z</time></trkpt><trkpt lat="44.24656503334744" lon="9.959771652190522"><ele>90.0</ele><time>2026-05-02T08:50:56Z</time></trkpt><trkpt lat="44.246604574940235" lon="9.959540608903627"><ele>90.0</ele><time>2026-05-02T08:50:57Z</time></trkpt><trkpt lat="44.24665763685745" lon="9.959317541435544"><ele>90.0</ele><time>2026-05-02T08:50:58Z</time></trkpt><trkpt lat="44.24672800036655" lon="9.959120328987948"><ele>91.33333333333333</ele><time>2026-05-02T08:50:59Z</time></trkpt><trkpt lat="44.24683599549098" lon="9.958957454580935"><ele>92.66666666666666</ele><time>2026-05-02T08:51:00Z</time></trkpt><trkpt lat="44.246953085527586" lon="9.958780920770069"><ele>94.0</ele><time>2026-05-02T08:51:01Z</time></trkpt><trkpt lat="44.24710080308059" lon="9.9586301629125"><ele>94.0</ele><time>2026-05-02T08:51:02Z</time></trkpt><trkpt lat="44.247256142535356" lon="9.958470400380383"><ele>94.0</ele><time>2026-05-02T08:51:03Z</time></trkpt><trkpt lat="44.2474128877703" lon="9.958310954766091"><ele>94.0</ele><time>2026-05-02T08:51:04Z</time></trkpt><trkpt lat="44.24756964773595" lon="9.958155425394395"><ele>96.0</ele><time>2026-05-02T08:51:05Z</time></trkpt><trkpt lat="44.24772536505793" lon="9.958000836188246"><ele>98.0</ele><time>2026-05-02T08:51:06Z</time></trkpt><trkpt lat="44.247881624594385" lon="9.957847738760849"><ele>100.0</ele><time>2026-05-02T08:51:07Z</time></trkpt><trkpt lat="44.24803713165027" lon="9.95769641647062"><ele>100.0</ele><time>2026-05-02T08:51:08Z</time></trkpt><trkpt lat="44.248185275666344" lon="9.957544952148144"><ele>100.0</ele><time>2026-05-02T08:51:09Z</time></trkpt><trkpt lat="44.24832534601969" lon="9.95739102947697"><ele>100.0</ele><time>2026-05-02T08:51:10Z</time></trkpt><trkpt lat="44.24847264411662" lon="9.957247122151186"><ele>100.0</ele><time>2026-05-02T08:51:11Z</time></trkpt><trkpt lat="44.248622358639565" lon="9.957098439646954"><ele>100.0</ele><time>2026-05-02T08:51:12Z</time></trkpt><trkpt lat="44.24876450133466" lon="9.956949059078227"><ele>100.0</ele><time>2026-05-02T08:51:13Z</time></trkpt><trkpt lat="44.24891250245476" lon="9.956806363148456"><ele>102.66666666666667</ele><time>2026-05-02T08:51:14Z</time></trkpt><trkpt lat="44.24906031275192" lon="9.956667092890052"><ele>105.33333333333334</ele><time>2026-05-02T08:51:15Z</time></trkpt><trkpt lat="44.24921096647698" lon="9.956536190765094"><ele>108.0</ele><time>2026-05-02T08:51:16Z</time></trkpt><trkpt lat="44.249368603173465" lon="9.956430364438441"><ele>108.0</ele><time>2026-05-02T08:51:17Z</time></trkpt><trkpt lat="44.249527302495466" lon="9.95632728009444"><ele>108.0</ele><time>2026-05-02T08:51:18Z</time></trkpt><trkpt lat="44.24969107732136" lon="9.956203220811293"><ele>108.0</ele><time>2026-05-02T08:51:19Z</time></trkpt><trkpt lat="44.249844673793994" lon="9.956034064884573"><ele>108.33333333333334</ele><time>2026-05-02T08:51:20Z</time></trkpt><trkpt lat="44.24997380891536" lon="9.955846970829613"><ele>108.66666666666667</ele><time>2026-05-02T08:51:21Z</time></trkpt><trkpt lat="44.25007424547366" lon="9.955674462131826"><ele>109.0</ele><time>2026-05-02T08:51:22Z</time></trkpt><trkpt lat="44.25021213763903" lon="9.955474460145716"><ele>109.0</ele><time>2026-05-02T08:51:23Z</time></trkpt><trkpt lat="44.25036358282317" lon="9.955256875969859"><ele>109.0</ele><time>2026-05-02T08:51:24Z</time></trkpt><trkpt lat="44.25047408606516" lon="9.955068647505948"><ele>109.0</ele><time>2026-05-02T08:51:25Z</time></trkpt><trkpt lat="44.25058047077416" lon="9.954898779764076"><ele>111.0</ele><time>2026-05-02T08:51:25.999Z</time></trkpt><trkpt lat="44.25068250439413" lon="9.954739771981398"><ele>113.0</ele><time>2026-05-02T08:51:26.999Z</time></trkpt><trkpt lat="44.25078676366602" lon="9.954596420372631"><ele>115.0</ele><time>2026-05-02T08:51:27.999Z</time></trkpt><trkpt lat="44.25090573683074" lon="9.95447300158856"><ele>117.0</ele><time>2026-05-02T08:51:28.999Z</time></trkpt><trkpt lat="44.25104438491037" lon="9.954366639670289"><ele>117.0</ele><time>2026-05-02T08:51:29.999Z</time></trkpt><trkpt lat="44.2511787572586" lon="9.95428096722071"><ele>117.0</ele><time>2026-05-02T08:51:30.999Z</time></trkpt><trkpt lat="44.25129526090662" lon="9.954191893885985"><ele>117.0</ele><time>2026-05-02T08:51:31.999Z</time></trkpt><trkpt lat="44.25141595842551" lon="9.954105423751406"><ele>117.0</ele><time>2026-05-02T08:51:32.999Z</time></trkpt><trkpt lat="44.25154249279266" lon="9.954019177817688"><ele>117.75</ele><time>2026-05-02T08:51:33.999Z</time></trkpt><trkpt lat="44.25166309008452" lon="9.953938781043453"><ele>118.5</ele><time>2026-05-02T08:51:34.999Z</time></trkpt><trkpt lat="44.25177273124252" lon="9.953874077239401"><ele>119.25</ele><time>2026-05-02T08:51:35.999Z</time></trkpt><trkpt lat="44.2518789638148" lon="9.953843764663995"><ele>120.0</ele><time>2026-05-02T08:51:36.999Z</time></trkpt><trkpt lat="44.25198114495677" lon="9.9538714002033"><ele>120.0</ele><time>2026-05-02T08:51:37.999Z</time></trkpt><trkpt lat="44.25206440088015" lon="9.953955316401887"><ele>120.0</ele><time>2026-05-02T08:51:38.999Z</time></trkpt><trkpt lat="44.252120151189324" lon="9.954081954923629"><ele>120.0</ele><time>2026-05-02T08:51:39.999Z</time></trkpt><trkpt lat="44.25214365337463" lon="9.954242424307898"><ele>120.0</ele><time>2026-05-02T08:51:40.999Z</time></trkpt><trkpt lat="44.25215773151081" lon="9.954426034541557"><ele>122.75</ele><time>2026-05-02T08:51:41.999Z</time></trkpt><trkpt lat="44.25215774167223" lon="9.954612750956079"><ele>125.5</ele><time>2026-05-02T08:51:42.999Z</time></trkpt><trkpt lat="44.25216974908872" lon="9.95479647823781"><ele>128.25</ele><time>2026-05-02T08:51:43.999Z</time></trkpt><trkpt lat="44.252192897947175" lon="9.954985249871795"><ele>131.0</ele><time>2026-05-02T08:51:44.999Z</time></trkpt><trkpt lat="44.25223068288077" lon="9.955176926723542"><ele>132.0</ele><time>2026-05-02T08:51:45.999Z</time></trkpt><trkpt lat="44.25227944778334" lon="9.95536099871455"><ele>133.0</ele><time>2026-05-02T08:51:46.999Z</time></trkpt><trkpt lat="44.252329472842206" lon="9.955543854725432"><ele>134.0</ele><time>2026-05-02T08:51:47.999Z</time></trkpt><trkpt lat="44.25234463638411" lon="9.95574522051426"><ele>135.0</ele><time>2026-05-02T08:51:48.999Z</time></trkpt><trkpt lat="44.25234560062419" lon="9.95592489452388"><ele>133.0</ele><time>2026-05-02T08:51:49.999Z</time></trkpt><trkpt lat="44.25235737571418" lon="9.956097421032055"><ele>131.0</ele><time>2026-05-02T08:51:50.999Z</time></trkpt><trkpt lat="44.25236300034032" lon="9.956260333172525"><ele>129.0</ele><time>2026-05-02T08:51:51.999Z</time></trkpt><trkpt lat="44.252400961645336" lon="9.956415529233242"><ele>127.0</ele><time>2026-05-02T08:51:52.999Z</time></trkpt><trkpt lat="44.25245246633585" lon="9.956561493475089"><ele>128.25</ele><time>2026-05-02T08:51:53.999Z</time></trkpt><trkpt lat="44.25251860385045" lon="9.956706572298923"><ele>129.5</ele><time>2026-05-02T08:51:54.999Z</time></trkpt><trkpt lat="44.252586543785895" lon="9.95685693238736"><ele>130.75</ele><time>2026-05-02T08:51:55.999Z</time></trkpt><trkpt lat="44.25265875586806" lon="9.95699922346542"><ele>132.0</ele><time>2026-05-02T08:51:56.999Z</time></trkpt><trkpt lat="44.25274750485506" lon="9.957119314914596"><ele>132.0</ele><time>2026-05-02T08:51:57.999Z</time></trkpt><trkpt lat="44.25284276001123" lon="9.95723055010821"><ele>132.0</ele><time>2026-05-02T08:51:58.999Z</time></trkpt><trkpt lat="44.25293396496621" lon="9.957333898932326"><ele>132.0</ele><time>2026-05-02T08:51:59.999Z</time></trkpt><trkpt lat="44.253015546773675" lon="9.957434223857039"><ele>132.0</ele><time>2026-05-02T08:52:00.999Z</time></trkpt><trkpt lat="44.25309771804847" lon="9.957522606866616"><ele>131.79999999999998</ele><time>2026-05-02T08:52:01.999Z</time></trkpt><trkpt lat="44.25317653872413" lon="9.957608383057142"><ele>131.6</ele><time>2026-05-02T08:52:02.999Z</time></trkpt><trkpt lat="44.253252938231675" lon="9.957699063298934"><ele>131.39999999999998</ele><time>2026-05-02T08:52:03.999Z</time></trkpt><trkpt lat="44.25333324343597" lon="9.957793878509602"><ele>131.2</ele><time>2026-05-02T08:52:04.999Z</time></trkpt><trkpt lat="44.25341227980725" lon="9.957885144394801"><ele>131.0</ele><time>2026-05-02T08:52:05.999Z</time></trkpt><trkpt lat="44.25348560916806" lon="9.957968901024552"><ele>131.0</ele><time>2026-05-02T08:52:06.999Z</time></trkpt><trkpt lat="44.25355229693859" lon="9.95804687056389"><ele>131.0</ele><time>2026-05-02T08:52:07.999Z</time></trkpt><trkpt lat="44.25362214365761" lon="9.95812241912969"><ele>131.0</ele><time>2026-05-02T08:52:08.999Z</time></trkpt><trkpt lat="44.253709193826566" lon="9.958166202076539"><ele>131.0</ele><time>2026-05-02T08:52:09.999Z</time></trkpt><trkpt lat="44.25380926818266" lon="9.9581892022703"><ele>131.0</ele><time>2026-05-02T08:52:10.999Z</time></trkpt><trkpt lat="44.25392175217576" lon="9.958176553136179"><ele>132.4</ele><time>2026-05-02T08:52:11.999Z</time></trkpt><trkpt lat="44.254029941645136" lon="9.958147916149214"><ele>133.8</ele><time>2026-05-02T08:52:12.999Z</time></trkpt><trkpt lat="44.25412529248639" lon="9.958104428265566"><ele>135.20000000000002</ele><time>2026-05-02T08:52:13.999Z</time></trkpt><trkpt lat="44.254222387795856" lon="9.958038891315248"><ele>136.6</ele><time>2026-05-02T08:52:14.999Z</time></trkpt><trkpt lat="44.25431533009886" lon="9.957956643875924"><ele>138.0</ele><time>2026-05-02T08:52:15.999Z</time></trkpt><trkpt lat="44.254401634630014" lon="9.957855468071116"><ele>138.0</ele><time>2026-05-02T08:52:16.999Z</time></trkpt><trkpt lat="44.25449229492243" lon="9.957766495055083"><ele>138.0</ele><time>2026-05-02T08:52:17.999Z</time></trkpt><trkpt lat="44.25459497481707" lon="9.957670441969093"><ele>138.0</ele><time>2026-05-02T08:52:18.999Z</time></trkpt><trkpt lat="44.2547166661175" lon="9.957576396977322"><ele>138.0</ele><time>2026-05-02T08:52:19.999Z</time></trkpt><trkpt lat="44.25483867679004" lon="9.957487797731348"><ele>137.75</ele><time>2026-05-02T08:52:20.999Z</time></trkpt><trkpt lat="44.25494718750952" lon="9.957390421343993"><ele>137.5</ele><time>2026-05-02T08:52:21.999Z</time></trkpt><trkpt lat="44.2550616327961" lon="9.957328484677099"><ele>137.25</ele><time>2026-05-02T08:52:22.999Z</time></trkpt><trkpt lat="44.255164531112015" lon="9.957254773450657"><ele>137.0</ele><time>2026-05-02T08:52:23.999Z</time></trkpt><trkpt lat="44.25527455872738" lon="9.957174775705182"><ele>137.0</ele><time>2026-05-02T08:52:24.999Z</time></trkpt><trkpt lat="44.2553842645939" lon="9.957095374375292"><ele>137.0</ele><time>2026-05-02T08:52:25.999Z</time></trkpt><trkpt lat="44.25549633354744" lon="9.957014057802496"><ele>137.0</ele><time>2026-05-02T08:52:26.999Z</time></trkpt><trkpt lat="44.25561329104919" lon="9.956929058285935"><ele>137.0</ele><time>2026-05-02T08:52:27.999Z</time></trkpt><trkpt lat="44.25572448898531" lon="9.956852352040741"><ele>135.25</ele><time>2026-05-02T08:52:28.999Z</time></trkpt><trkpt lat="44.25583862595558" lon="9.95677265527509"><ele>133.5</ele><time>2026-05-02T08:52:30Z</time></trkpt><trkpt lat="44.25594683873015" lon="9.95669687830032"><ele>131.75</ele><time>2026-05-02T08:52:31Z</time></trkpt><trkpt lat="44.25605434144557" lon="9.95662640289978"><ele>130.0</ele><time>2026-05-02T08:52:32Z</time></trkpt><trkpt lat="44.256166373311515" lon="9.956572557444947"><ele>130.0</ele><time>2026-05-02T08:52:33Z</time></trkpt><trkpt lat="44.25627897318295" lon="9.956516688718747"><ele>130.0</ele><time>2026-05-02T08:52:34Z</time></trkpt><trkpt lat="44.25639063324212" lon="9.956483363735286"><ele>130.0</ele><time>2026-05-02T08:52:35Z</time></trkpt><trkpt lat="44.25650291637363" lon="9.956458194120422"><ele>130.0</ele><time>2026-05-02T08:52:36Z</time></trkpt><trkpt lat="44.25661356291569" lon="9.95642554621049"><ele>133.0</ele><time>2026-05-02T08:52:37Z</time></trkpt><trkpt lat="44.25672434129937" lon="9.956371154118706"><ele>136.0</ele><time>2026-05-02T08:52:38Z</time></trkpt><trkpt lat="44.25682738220013" lon="9.956298564374805"><ele>139.0</ele><time>2026-05-02T08:52:39Z</time></trkpt><trkpt lat="44.25691639329616" lon="9.956210728354966"><ele>142.0</ele><time>2026-05-02T08:52:40Z</time></trkpt><trkpt lat="44.25699875675148" lon="9.956106301920316"><ele>142.0</ele><time>2026-05-02T08:52:41Z</time></trkpt><trkpt lat="44.257074414526265" lon="9.956003738387844"><ele>142.0</ele><time>2026-05-02T08:52:42Z</time></trkpt><trkpt lat="44.25714861684457" lon="9.955908722422395"><ele>142.0</ele><time>2026-05-02T08:52:43Z</time></trkpt><trkpt lat="44.25722913256793" lon="9.955814898501888"><ele>142.0</ele><time>2026-05-02T08:52:44Z</time></trkpt><trkpt lat="44.25729892782735" lon="9.955729157714728"><ele>142.0</ele><time>2026-05-02T08:52:45Z</time></trkpt><trkpt lat="44.25736914098141" lon="9.955648212048667"><ele>141.4</ele><time>2026-05-02T08:52:46Z</time></trkpt><trkpt lat="44.25744971835363" lon="9.955575927556119"><ele>140.79999999999998</ele><time>2026-05-02T08:52:47Z</time></trkpt><trkpt lat="44.25754171288115" lon="9.955514921189943"><ele>140.2</ele><time>2026-05-02T08:52:48Z</time></trkpt><trkpt lat="44.25764918531167" lon="9.95546956539005"><ele>139.6</ele><time>2026-05-02T08:52:49Z</time></trkpt><trkpt lat="44.25775877738324" lon="9.955448416779987"><ele>139.0</ele><time>2026-05-02T08:52:50Z</time></trkpt><trkpt lat="44.25787097098208" lon="9.955427389445937"><ele>139.0</ele><time>2026-05-02T08:52:51Z</time></trkpt><trkpt lat="44.25801804577095" lon="9.955372078941956"><ele>139.0</ele><time>2026-05-02T08:52:52Z</time></trkpt><trkpt lat="44.25814509363407" lon="9.955324055244603"><ele>139.0</ele><time>2026-05-02T08:52:53Z</time></trkpt><trkpt lat="44.2582747698534" lon="9.955266620656479"><ele>139.0</ele><time>2026-05-02T08:52:54Z</time></trkpt><trkpt lat="44.2584067569927" lon="9.955201876534252"><ele>143.25</ele><time>2026-05-02T08:52:55Z</time></trkpt><trkpt lat="44.25853923436336" lon="9.955129372037023"><ele>147.5</ele><time>2026-05-02T08:52:56Z</time></trkpt><trkpt lat="44.25866627920027" lon="9.955070248747482"><ele>151.75</ele><time>2026-05-02T08:52:57Z</time></trkpt><trkpt lat="44.25878524275289" lon="9.954988937212532"><ele>156.0</ele><time>2026-05-02T08:52:58Z</time></trkpt><trkpt lat="44.2588861615156" lon="9.95489300420718"><ele>152.25</ele><time>2026-05-02T08:52:59Z</time></trkpt><trkpt lat="44.25898088155779" lon="9.954772105757717"><ele>148.5</ele><time>2026-05-02T08:53:00Z</time></trkpt><trkpt lat="44.25906723125024" lon="9.954645057552002"><ele>144.75</ele><time>2026-05-02T08:53:01Z</time></trkpt><trkpt lat="44.259150823030986" lon="9.954513687508701"><ele>141.0</ele><time>2026-05-02T08:53:02Z</time></trkpt><trkpt lat="44.25924163955552" lon="9.95438642037972"><ele>141.0</ele><time>2026-05-02T08:53:03Z</time></trkpt><trkpt lat="44.25936249889835" lon="9.954307385905663"><ele>141.0</ele><time>2026-05-02T08:53:04Z</time></trkpt><trkpt lat="44.25947496015621" lon="9.954215591115252"><ele>141.0</ele><time>2026-05-02T08:53:05Z</time></trkpt><trkpt lat="44.25959846384351" lon="9.954148150611786"><ele>141.0</ele><time>2026-05-02T08:53:06Z</time></trkpt><trkpt lat="44.25972124490907" lon="9.954090970232706"><ele>138.5</ele><time>2026-05-02T08:53:07Z</time></trkpt><trkpt lat="44.25985832079044" lon="9.95406423276504"><ele>136.0</ele><time>2026-05-02T08:53:08Z</time></trkpt><trkpt lat="44.259986081315674" lon="9.954062728593373"><ele>133.5</ele><time>2026-05-02T08:53:09Z</time></trkpt><trkpt lat="44.26010344869419" lon="9.95406162733027"><ele>131.0</ele><time>2026-05-02T08:53:10Z</time></trkpt><trkpt lat="44.2602109889706" lon="9.954046296353239"><ele>131.0</ele><time>2026-05-02T08:53:11Z</time></trkpt><trkpt lat="44.26031047209136" lon="9.954013743539532"><ele>131.0</ele><time>2026-05-02T08:53:12Z</time></trkpt><trkpt lat="44.26040901793213" lon="9.95395030494392"><ele>131.0</ele><time>2026-05-02T08:53:13Z</time></trkpt><trkpt lat="44.26050549657745" lon="9.953862884638246"><ele>131.0</ele><time>2026-05-02T08:53:14Z</time></trkpt><trkpt lat="44.26059891622319" lon="9.953783148841756"><ele>131.0</ele><time>2026-05-02T08:53:15Z</time></trkpt><trkpt lat="44.26070238758864" lon="9.953728175636298"><ele>132.75</ele><time>2026-05-02T08:53:16Z</time></trkpt><trkpt lat="44.26080357564888" lon="9.95367874442995"><ele>134.5</ele><time>2026-05-02T08:53:17Z</time></trkpt><trkpt lat="44.260917995067366" lon="9.953643005448333"><ele>136.25</ele><time>2026-05-02T08:53:18Z</time></trkpt><trkpt lat="44.26104328435063" lon="9.953612832444913"><ele>138.0</ele><time>2026-05-02T08:53:19Z</time></trkpt><trkpt lat="44.2611588253861" lon="9.953593051001702"><ele>138.0</ele><time>2026-05-02T08:53:20Z</time></trkpt><trkpt lat="44.26126951594964" lon="9.953577175232711"><ele>138.0</ele><time>2026-05-02T08:53:20.999Z</time></trkpt><trkpt lat="44.26138725017367" lon="9.953570208294318"><ele>138.0</ele><time>2026-05-02T08:53:21.999Z</time></trkpt><trkpt lat="44.261507148497685" lon="9.953574554093029"><ele>138.0</ele><time>2026-05-02T08:53:22.999Z</time></trkpt><trkpt lat="44.26162848188175" lon="9.953567031018125"><ele>139.33333333333334</ele><time>2026-05-02T08:53:23.999Z</time></trkpt><trkpt lat="44.261752621408" lon="9.95359100354669"><ele>140.66666666666669</ele><time>2026-05-02T08:53:24.999Z</time></trkpt><trkpt lat="44.261894662987395" lon="9.953663330706675"><ele>142.0</ele><time>2026-05-02T08:53:25.999Z</time></trkpt><trkpt lat="44.26205845285806" lon="9.95376460615467"><ele>142.0</ele><time>2026-05-02T08:53:26.999Z</time></trkpt><trkpt lat="44.26225302138541" lon="9.953885999443568"><ele>142.0</ele><time>2026-05-02T08:53:27.999Z</time></trkpt><trkpt lat="44.26248961285857" lon="9.954032763084157"><ele>144.0</ele><time>2026-05-02T08:53:28.999Z</time></trkpt><trkpt lat="44.26261171046311" lon="9.954108837742336"><ele>146.0</ele><time>2026-05-02T08:53:30.999Z</time></trkpt><trkpt lat="44.26273940970966" lon="9.954168224035877"><ele>148.0</ele><time>2026-05-02T08:53:31.999Z</time></trkpt><trkpt lat="44.26284816784307" lon="9.954235527345329"><ele>150.0</ele><time>2026-05-02T08:53:32.999Z</time></trkpt><trkpt lat="44.26296770085107" lon="9.954323463446258"><ele>147.33333333333334</ele><time>2026-05-02T08:53:33.999Z</time></trkpt><trkpt lat="44.263153660762825" lon="9.954406787047207"><ele>144.66666666666669</ele><time>2026-05-02T08:53:34.999Z</time></trkpt><trkpt lat="44.26338685847865" lon="9.954507834049256"><ele>142.0</ele><time>2026-05-02T08:53:35.999Z</time></trkpt><trkpt lat="44.263664738403946" lon="9.954588428459338"><ele>142.0</ele><time>2026-05-02T08:53:36.999Z</time></trkpt><trkpt lat="44.263904431309356" lon="9.954679005799237"><ele>142.0</ele><time>2026-05-02T08:53:37.999Z</time></trkpt><trkpt lat="44.26408112257535" lon="9.954804525287573"><ele>142.0</ele><time>2026-05-02T08:53:38.999Z</time></trkpt><trkpt lat="44.26423636911742" lon="9.954888384834087"><ele>140.66666666666669</ele><time>2026-05-02T08:53:39.999Z</time></trkpt><trkpt lat="44.26437656389867" lon="9.954910188257784"><ele>139.33333333333334</ele><time>2026-05-02T08:53:40.999Z</time></trkpt><trkpt lat="44.2645307752377" lon="9.95486673870901"><ele>138.0</ele><time>2026-05-02T08:53:41.999Z</time></trkpt><trkpt lat="44.264679506239155" lon="9.954759654241462"><ele>140.0</ele><time>2026-05-02T08:53:42.999Z</time></trkpt><trkpt lat="44.264823019185876" lon="9.954655774303646"><ele>142.0</ele><time>2026-05-02T08:53:43.999Z</time></trkpt><trkpt lat="44.26494989233808" lon="9.95458077541346"><ele>144.0</ele><time>2026-05-02T08:53:44.999Z</time></trkpt><trkpt lat="44.265064027531736" lon="9.954521669705604"><ele>146.0</ele><time>2026-05-02T08:53:45.999Z</time></trkpt><trkpt lat="44.26517217435374" lon="9.954467189337473"><ele>146.0</ele><time>2026-05-02T08:53:46.999Z</time></trkpt><trkpt lat="44.26527602311161" lon="9.954414908298595"><ele>146.0</ele><time>2026-05-02T08:53:47.999Z</time></trkpt><trkpt lat="44.265391878489986" lon="9.954418985827003"><ele>146.0</ele><time>2026-05-02T08:53:48.999Z</time></trkpt><trkpt lat="44.265516999259525" lon="9.95441393521627"><ele>146.0</ele><time>2026-05-02T08:53:49.999Z</time></trkpt><trkpt lat="44.26564255742882" lon="9.954415359368772"><ele>149.75</ele><time>2026-05-02T08:53:50.999Z</time></trkpt><trkpt lat="44.26577021676835" lon="9.954425489820434"><ele>153.5</ele><time>2026-05-02T08:53:51.999Z</time></trkpt><trkpt lat="44.265899557938724" lon="9.954434326763703"><ele>157.25</ele><time>2026-05-02T08:53:52.999Z</time></trkpt><trkpt lat="44.266025074447185" lon="9.954430252863897"><ele>161.0</ele><time>2026-05-02T08:53:53.999Z</time></trkpt><trkpt lat="44.266145158866955" lon="9.954409335411706"><ele>161.0</ele><time>2026-05-02T08:53:54.999Z</time></trkpt><trkpt lat="44.26626875106074" lon="9.954381000407711"><ele>161.0</ele><time>2026-05-02T08:53:55.999Z</time></trkpt><trkpt lat="44.26638651219194" lon="9.95432984674533"><ele>161.0</ele><time>2026-05-02T08:53:56.999Z</time></trkpt><trkpt lat="44.26649888375288" lon="9.954273532925768"><ele>161.0</ele><time>2026-05-02T08:53:57.999Z</time></trkpt><trkpt lat="44.26661275693026" lon="9.954232666752953"><ele>155.0</ele><time>2026-05-02T08:53:58.999Z</time></trkpt><trkpt lat="44.26671844756897" lon="9.954198473136211"><ele>149.0</ele><time>2026-05-02T08:53:59.999Z</time></trkpt><trkpt lat="44.26682281087005" lon="9.954175567909672"><ele>143.0</ele><time>2026-05-02T08:54:00.999Z</time></trkpt><trkpt lat="44.26693379184977" lon="9.954140965117565"><ele>137.0</ele><time>2026-05-02T08:54:01.999Z</time></trkpt><trkpt lat="44.26704452556645" lon="9.954080324527759"><ele>131.0</ele><time>2026-05-02T08:54:02.999Z</time></trkpt><trkpt lat="44.267140533645495" lon="9.953970842948733"><ele>131.0</ele><time>2026-05-02T08:54:03.999Z</time></trkpt><trkpt lat="44.26721676626957" lon="9.953837895743515"><ele>131.0</ele><time>2026-05-02T08:54:04.999Z</time></trkpt><trkpt lat="44.26728479072793" lon="9.95370960939842"><ele>131.0</ele><time>2026-05-02T08:54:05.999Z</time></trkpt><trkpt lat="44.2673554135026" lon="9.953578725326297"><ele>131.0</ele><time>2026-05-02T08:54:06.999Z</time></trkpt><trkpt lat="44.26743016457235" lon="9.953466137277212"><ele>130.8</ele><time>2026-05-02T08:54:07.999Z</time></trkpt><trkpt lat="44.2675043874095" lon="9.953351647771845"><ele>130.6</ele><time>2026-05-02T08:54:08.999Z</time></trkpt><trkpt lat="44.26758233261203" lon="9.953236025848714"><ele>130.4</ele><time>2026-05-02T08:54:09.999Z</time></trkpt><trkpt lat="44.267664356825904" lon="9.953162893708384"><ele>130.2</ele><time>2026-05-02T08:54:10.999Z</time></trkpt><trkpt lat="44.26773892004652" lon="9.953089841527168"><ele>130.0</ele><time>2026-05-02T08:54:11.999Z</time></trkpt><trkpt lat="44.26782881540686" lon="9.953034711808517"><ele>130.0</ele><time>2026-05-02T08:54:12.999Z</time></trkpt><trkpt lat="44.267933313204175" lon="9.9530046782727"><ele>130.0</ele><time>2026-05-02T08:54:13.999Z</time></trkpt><trkpt lat="44.26804203048718" lon="9.953004669770095"><ele>130.0</ele><time>2026-05-02T08:54:14.999Z</time></trkpt><trkpt lat="44.268145852178954" lon="9.9530435220335"><ele>130.0</ele><time>2026-05-02T08:54:15.999Z</time></trkpt><trkpt lat="44.26823787549944" lon="9.953114052573495"><ele>130.0</ele><time>2026-05-02T08:54:16.999Z</time></trkpt><trkpt lat="44.268337381514634" lon="9.953182521481745"><ele>131.6</ele><time>2026-05-02T08:54:17.999Z</time></trkpt><trkpt lat="44.268441811546154" lon="9.953253948661292"><ele>133.2</ele><time>2026-05-02T08:54:18.999Z</time></trkpt><trkpt lat="44.268542947226074" lon="9.953323122372254"><ele>134.8</ele><time>2026-05-02T08:54:19.999Z</time></trkpt><trkpt lat="44.26863565378208" lon="9.953384600854449"><ele>136.4</ele><time>2026-05-02T08:54:20.999Z</time></trkpt><trkpt lat="44.26873214360789" lon="9.953436165679292"><ele>138.0</ele><time>2026-05-02T08:54:21.999Z</time></trkpt><trkpt lat="44.268831159914534" lon="9.953462265871286"><ele>136.75</ele><time>2026-05-02T08:54:22.999Z</time></trkpt><trkpt lat="44.268949359565404" lon="9.953445787174173"><ele>135.5</ele><time>2026-05-02T08:54:23.999Z</time></trkpt><trkpt lat="44.26905830733488" lon="9.953352778181948"><ele>134.25</ele><time>2026-05-02T08:54:24.999Z</time></trkpt><trkpt lat="44.26915211152747" lon="9.953256845549532"><ele>133.0</ele><time>2026-05-02T08:54:25.999Z</time></trkpt><trkpt lat="44.2692601632008" lon="9.953155698200437"><ele>133.0</ele><time>2026-05-02T08:54:26.999Z</time></trkpt><trkpt lat="44.269349847494304" lon="9.953074998831989"><ele>133.0</ele><time>2026-05-02T08:54:27.999Z</time></trkpt><trkpt lat="44.26943178980313" lon="9.952994795609586"><ele>133.0</ele><time>2026-05-02T08:54:28.999Z</time></trkpt><trkpt lat="44.26952336544964" lon="9.952921399941305"><ele>133.0</ele><time>2026-05-02T08:54:29.999Z</time></trkpt><trkpt lat="44.26963549670005" lon="9.952870517218946"><ele>133.0</ele><time>2026-05-02T08:54:30.999Z</time></trkpt><trkpt lat="44.26975541631687" lon="9.952837956461813"><ele>134.75</ele><time>2026-05-02T08:54:31.999Z</time></trkpt><trkpt lat="44.2698799186335" lon="9.95283822774018"><ele>136.5</ele><time>2026-05-02T08:54:32.999Z</time></trkpt><trkpt lat="44.27001392914338" lon="9.952865368079703"><ele>138.25</ele><time>2026-05-02T08:54:33.999Z</time></trkpt><trkpt lat="44.270134091810654" lon="9.95293037951684"><ele>140.0</ele><time>2026-05-02T08:54:34.999Z</time></trkpt><trkpt lat="44.27024448157467" lon="9.953025575110258"><ele>140.0</ele><time>2026-05-02T08:54:36Z</time></trkpt><trkpt lat="44.27034616549518" lon="9.95313661459558"><ele>140.0</ele><time>2026-05-02T08:54:37Z</time></trkpt><trkpt lat="44.270445696081616" lon="9.953250420857357"><ele>140.0</ele><time>2026-05-02T08:54:38Z</time></trkpt><trkpt lat="44.270570369913756" lon="9.95336841464517"><ele>140.0</ele><time>2026-05-02T08:54:39Z</time></trkpt><trkpt lat="44.270736540764396" lon="9.95352131800156"><ele>152.0</ele><time>2026-05-02T08:54:40Z</time></trkpt><trkpt lat="44.270970259920475" lon="9.953656353432532"><ele>164.0</ele><time>2026-05-02T08:54:41Z</time></trkpt><trkpt lat="44.271176701587684" lon="9.95378378685523"><ele>164.0</ele><time>2026-05-02T08:54:42Z</time></trkpt><trkpt lat="44.27135992447915" lon="9.95386800472434"><ele>164.0</ele><time>2026-05-02T08:54:43Z</time></trkpt><trkpt lat="44.2715120717148" lon="9.95392402242859"><ele>164.0</ele><time>2026-05-02T08:54:44Z</time></trkpt><trkpt lat="44.271632849925" lon="9.95399644869679"><ele>158.0</ele><time>2026-05-02T08:54:45Z</time></trkpt><trkpt lat="44.27172239808571" lon="9.954117919713326"><ele>152.0</ele><time>2026-05-02T08:54:46Z</time></trkpt><trkpt lat="44.27177701793064" lon="9.95429546189365"><ele>146.0</ele><time>2026-05-02T08:54:47Z</time></trkpt><trkpt lat="44.27181902281389" lon="9.9544929779209"><ele>140.0</ele><time>2026-05-02T08:54:48Z</time></trkpt><trkpt lat="44.2719048242909" lon="9.954641325772855"><ele>140.0</ele><time>2026-05-02T08:54:49Z</time></trkpt><trkpt lat="44.27204551164726" lon="9.954728089829661"><ele>140.0</ele><time>2026-05-02T08:54:50Z</time></trkpt><trkpt lat="44.27221086889522" lon="9.95478585868741"><ele>140.0</ele><time>2026-05-02T08:54:51Z</time></trkpt><trkpt lat="44.27238415471493" lon="9.954799917386538"><ele>139.33333333333331</ele><time>2026-05-02T08:54:52Z</time></trkpt><trkpt lat="44.272561695844374" lon="9.954808703239497"><ele>138.66666666666666</ele><time>2026-05-02T08:54:53Z</time></trkpt><trkpt lat="44.27274254171753" lon="9.954844591939736"><ele>138.0</ele><time>2026-05-02T08:54:54Z</time></trkpt><trkpt lat="44.27292897428876" lon="9.954871457424765"><ele>137.33333333333334</ele><time>2026-05-02T08:54:55Z</time></trkpt><trkpt lat="44.27311513956365" lon="9.954874909572995"><ele>136.66666666666669</ele><time>2026-05-02T08:54:56Z</time></trkpt><trkpt lat="44.27329525909597" lon="9.954922356394778"><ele>136.0</ele><time>2026-05-02T08:54:57Z</time></trkpt><trkpt lat="44.273476014333156" lon="9.954930549284239"><ele>136.0</ele><time>2026-05-02T08:54:58Z</time></trkpt><trkpt lat="44.27365487356375" lon="9.954941077507927"><ele>136.0</ele><time>2026-05-02T08:54:59Z</time></trkpt><trkpt lat="44.27383360914647" lon="9.954906877571842"><ele>136.0</ele><time>2026-05-02T08:55:00Z</time></trkpt><trkpt lat="44.2740150494583" lon="9.954848399910128"><ele>135.0</ele><time>2026-05-02T08:55:01Z</time></trkpt><trkpt lat="44.27420633963359" lon="9.954810161633928"><ele>134.0</ele><time>2026-05-02T08:55:02Z</time></trkpt><trkpt lat="44.27440688517957" lon="9.954738892032964"><ele>133.0</ele><time>2026-05-02T08:55:03Z</time></trkpt><trkpt lat="44.27459621222283" lon="9.954616359860275"><ele>137.0</ele><time>2026-05-02T08:55:04Z</time></trkpt><trkpt lat="44.27479449052557" lon="9.954523997429028"><ele>141.0</ele><time>2026-05-02T08:55:05Z</time></trkpt><trkpt lat="44.274992556645536" lon="9.95440755075667"><ele>145.0</ele><time>2026-05-02T08:55:06Z</time></trkpt><trkpt lat="44.27519720300486" lon="9.954287106726088"><ele>137.5</ele><time>2026-05-02T08:55:07Z</time></trkpt><trkpt lat="44.27540454631283" lon="9.95416666850902"><ele>130.0</ele><time>2026-05-02T08:55:08Z</time></trkpt><trkpt lat="44.275615822203946" lon="9.954044192602279"><ele>130.0</ele><time>2026-05-02T08:55:09Z</time></trkpt><trkpt lat="44.27582792643583" lon="9.953918152425226"><ele>130.0</ele><time>2026-05-02T08:55:10Z</time></trkpt><trkpt lat="44.27603944766165" lon="9.953790954776837"><ele>130.0</ele><time>2026-05-02T08:55:11Z</time></trkpt><trkpt lat="44.27625385190978" lon="9.953662023402112"><ele>130.0</ele><time>2026-05-02T08:55:12Z</time></trkpt><trkpt lat="44.27646684906709" lon="9.953533739142088"><ele>123.5</ele><time>2026-05-02T08:55:13Z</time></trkpt><trkpt lat="44.27667999075583" lon="9.953405301738256"><ele>117.0</ele><time>2026-05-02T08:55:14Z</time></trkpt><trkpt lat="44.276885311509446" lon="9.953260024958999"><ele>117.0</ele><time>2026-05-02T08:55:15Z</time></trkpt><trkpt lat="44.2771001068161" lon="9.95313901344828"><ele>117.0</ele><time>2026-05-02T08:55:16Z</time></trkpt><trkpt lat="44.277309365781576" lon="9.953011591406813"><ele>120.66666666666666</ele><time>2026-05-02T08:55:17Z</time></trkpt><trkpt lat="44.277517416227205" lon="9.95288575858513"><ele>124.33333333333333</ele><time>2026-05-02T08:55:18Z</time></trkpt><trkpt lat="44.277715273312566" lon="9.952763676162263"><ele>128.0</ele><time>2026-05-02T08:55:19Z</time></trkpt><trkpt lat="44.27791313779775" lon="9.952648646361979"><ele>126.66666666666666</ele><time>2026-05-02T08:55:20Z</time></trkpt><trkpt lat="44.27811500298617" lon="9.952532302653864"><ele>125.33333333333334</ele><time>2026-05-02T08:55:21Z</time></trkpt><trkpt lat="44.27832160204063" lon="9.952413410712786"><ele>124.0</ele><time>2026-05-02T08:55:22Z</time></trkpt><trkpt lat="44.27853098947499" lon="9.952296530178936"><ele>124.0</ele><time>2026-05-02T08:55:23Z</time></trkpt><trkpt lat="44.278741350458134" lon="9.952189310026212"><ele>124.0</ele><time>2026-05-02T08:55:24Z</time></trkpt><trkpt lat="44.278952210794394" lon="9.952090650041947"><ele>124.0</ele><time>2026-05-02T08:55:25Z</time></trkpt><trkpt lat="44.279150953712225" lon="9.951992796504932"><ele>126.0</ele><time>2026-05-02T08:55:26Z</time></trkpt><trkpt lat="44.279341994456914" lon="9.951894785402022"><ele>128.0</ele><time>2026-05-02T08:55:27Z</time></trkpt><trkpt lat="44.279522727155964" lon="9.951805330716818"><ele>130.0</ele><time>2026-05-02T08:55:28Z</time></trkpt><trkpt lat="44.27970417969072" lon="9.951756753514605"><ele>130.66666666666669</ele><time>2026-05-02T08:55:29Z</time></trkpt><trkpt lat="44.27988660939802" lon="9.951736145356557"><ele>131.33333333333334</ele><time>2026-05-02T08:55:30Z</time></trkpt><trkpt lat="44.28005335794304" lon="9.95169352284358"><ele>132.0</ele><time>2026-05-02T08:55:31Z</time></trkpt><trkpt lat="44.28022380889319" lon="9.95163089947417"><ele>128.33333333333334</ele><time>2026-05-02T08:55:32Z</time></trkpt><trkpt lat="44.28039214798973" lon="9.95152272380946"><ele>124.66666666666667</ele><time>2026-05-02T08:55:33Z</time></trkpt><trkpt lat="44.28055256631211" lon="9.951404758988087"><ele>121.0</ele><time>2026-05-02T08:55:34Z</time></trkpt><trkpt lat="44.28071153451913" lon="9.951296431384135"><ele>121.0</ele><time>2026-05-02T08:55:35Z</time></trkpt><trkpt lat="44.28087116585049" lon="9.951186806619633"><ele>121.0</ele><time>2026-05-02T08:55:36Z</time></trkpt><trkpt lat="44.28102749800236" lon="9.95108262867289"><ele>121.0</ele><time>2026-05-02T08:55:37Z</time></trkpt><trkpt lat="44.28118131918744" lon="9.950988410947316"><ele>121.0</ele><time>2026-05-02T08:55:37.999Z</time></trkpt><trkpt lat="44.28133236793264" lon="9.950906416403322"><ele>121.0</ele><time>2026-05-02T08:55:38.999Z</time></trkpt><trkpt lat="44.28149245768185" lon="9.95084525123758"><ele>121.0</ele><time>2026-05-02T08:55:39.999Z</time></trkpt><trkpt lat="44.28166424729768" lon="9.950809002570995"><ele>119.66666666666667</ele><time>2026-05-02T08:55:40.999Z</time></trkpt><trkpt lat="44.281845283568686" lon="9.950788718722503"><ele>118.33333333333334</ele><time>2026-05-02T08:55:41.999Z</time></trkpt><trkpt lat="44.282022300448205" lon="9.950785164184284"><ele>117.0</ele><time>2026-05-02T08:55:42.999Z</time></trkpt><trkpt lat="44.2821901570977" lon="9.95077891390769"><ele>117.0</ele><time>2026-05-02T08:55:43.999Z</time></trkpt><trkpt lat="44.28234350990152" lon="9.95074199536672"><ele>117.0</ele><time>2026-05-02T08:55:44.999Z</time></trkpt><trkpt lat="44.28248516727153" lon="9.950675345385104"><ele>117.0</ele><time>2026-05-02T08:55:45.999Z</time></trkpt><trkpt lat="44.282617206019744" lon="9.950595438785312"><ele>117.0</ele><time>2026-05-02T08:55:46.999Z</time></trkpt><trkpt lat="44.28273691659634" lon="9.95050466883633"><ele>117.0</ele><time>2026-05-02T08:55:47.999Z</time></trkpt><trkpt lat="44.28283810078049" lon="9.950400155748111"><ele>117.0</ele><time>2026-05-02T08:55:48.999Z</time></trkpt><trkpt lat="44.282929598882575" lon="9.95028202519297"><ele>117.0</ele><time>2026-05-02T08:55:49.999Z</time></trkpt><trkpt lat="44.28302821019272" lon="9.950166894635393"><ele>117.0</ele><time>2026-05-02T08:55:50.999Z</time></trkpt><trkpt lat="44.28313049392332" lon="9.950055177182351"><ele>118.25</ele><time>2026-05-02T08:55:51.999Z</time></trkpt><trkpt lat="44.283235282903725" lon="9.949952655373076"><ele>119.5</ele><time>2026-05-02T08:55:52.999Z</time></trkpt><trkpt lat="44.28334857353235" lon="9.949862169416724"><ele>120.75</ele><time>2026-05-02T08:55:53.999Z</time></trkpt><trkpt lat="44.2834647579497" lon="9.949782159023314"><ele>122.0</ele><time>2026-05-02T08:55:54.999Z</time></trkpt><trkpt lat="44.283589462490724" lon="9.949713545646741"><ele>122.0</ele><time>2026-05-02T08:55:55.999Z</time></trkpt><trkpt lat="44.283718059352" lon="9.949650124141284"><ele>122.0</ele><time>2026-05-02T08:55:56.999Z</time></trkpt><trkpt lat="44.28384348485289" lon="9.94958572230581"><ele>122.0</ele><time>2026-05-02T08:55:57.999Z</time></trkpt><trkpt lat="44.28397445828215" lon="9.949534799154586"><ele>122.0</ele><time>2026-05-02T08:55:58.999Z</time></trkpt><trkpt lat="44.284103246656436" lon="9.949484489707894"><ele>123.75</ele><time>2026-05-02T08:55:59.999Z</time></trkpt><trkpt lat="44.28422994938819" lon="9.94943580148897"><ele>125.5</ele><time>2026-05-02T08:56:00.999Z</time></trkpt><trkpt lat="44.28435612196871" lon="9.94939202117132"><ele>127.25</ele><time>2026-05-02T08:56:01.999Z</time></trkpt><trkpt lat="44.28447917437316" lon="9.949346358395532"><ele>129.0</ele><time>2026-05-02T08:56:02.999Z</time></trkpt><trkpt lat="44.28459732669651" lon="9.949303284012123"><ele>129.0</ele><time>2026-05-02T08:56:03.999Z</time></trkpt><trkpt lat="44.284713990219" lon="9.949256373224987"><ele>129.0</ele><time>2026-05-02T08:56:04.999Z</time></trkpt><trkpt lat="44.28482917629347" lon="9.949209901548663"><ele>129.0</ele><time>2026-05-02T08:56:05.999Z</time></trkpt><trkpt lat="44.284945705446184" lon="9.949162661871968"><ele>129.0</ele><time>2026-05-02T08:56:06.999Z</time></trkpt><trkpt lat="44.285059361873344" lon="9.94911886731453"><ele>129.25</ele><time>2026-05-02T08:56:07.999Z</time></trkpt><trkpt lat="44.28517394860474" lon="9.949077298297883"><ele>129.5</ele><time>2026-05-02T08:56:08.999Z</time></trkpt><trkpt lat="44.285289065464134" lon="9.949036450552665"><ele>129.75</ele><time>2026-05-02T08:56:09.999Z</time></trkpt><trkpt lat="44.28540464131536" lon="9.948994171015093"><ele>130.0</ele><time>2026-05-02T08:56:10.999Z</time></trkpt><trkpt lat="44.28552571658362" lon="9.948944232578116"><ele>131.75</ele><time>2026-05-02T08:56:11.999Z</time></trkpt><trkpt lat="44.285656107750576" lon="9.94889340154164"><ele>133.5</ele><time>2026-05-02T08:56:12.999Z</time></trkpt><trkpt lat="44.28579533972744" lon="9.948838972441873"><ele>135.25</ele><time>2026-05-02T08:56:13.999Z</time></trkpt><trkpt lat="44.28594763796685" lon="9.948785940152584"><ele>137.0</ele><time>2026-05-02T08:56:14.999Z</time></trkpt><trkpt lat="44.286113375697404" lon="9.948734749451793"><ele>137.0</ele><time>2026-05-02T08:56:15.999Z</time></trkpt><trkpt lat="44.28629802990288" lon="9.948698940871775"><ele>137.0</ele><time>2026-05-02T08:56:16.999Z</time></trkpt><trkpt lat="44.286494288102354" lon="9.948661053056782"><ele>137.0</ele><time>2026-05-02T08:56:17.999Z</time></trkpt><trkpt lat="44.28668643655903" lon="9.94861039713386"><ele>140.66666666666666</ele><time>2026-05-02T08:56:18.999Z</time></trkpt><trkpt lat="44.28688574596049" lon="9.94856576895101"><ele>144.33333333333334</ele><time>2026-05-02T08:56:19.999Z</time></trkpt><trkpt lat="44.28709045696339" lon="9.94852510862866"><ele>148.0</ele><time>2026-05-02T08:56:20.999Z</time></trkpt><trkpt lat="44.287297594818405" lon="9.948486415352775"><ele>151.66666666666669</ele><time>2026-05-02T08:56:21.999Z</time></trkpt><trkpt lat="44.28749810564513" lon="9.948443260162687"><ele>155.33333333333334</ele><time>2026-05-02T08:56:22.999Z</time></trkpt><trkpt lat="44.28770129100714" lon="9.948385065700563"><ele>159.0</ele><time>2026-05-02T08:56:23.999Z</time></trkpt><trkpt lat="44.287891730247516" lon="9.948306000874693"><ele>152.33333333333334</ele><time>2026-05-02T08:56:24.999Z</time></trkpt><trkpt lat="44.28808065503322" lon="9.948221100229452"><ele>145.66666666666669</ele><time>2026-05-02T08:56:25.999Z</time></trkpt><trkpt lat="44.288262901990166" lon="9.94814692198441"><ele>139.0</ele><time>2026-05-02T08:56:26.999Z</time></trkpt><trkpt lat="44.28843449333213" lon="9.948073526100925"><ele>139.0</ele><time>2026-05-02T08:56:27.999Z</time></trkpt><trkpt lat="44.28860347055362" lon="9.948013378569412"><ele>139.0</ele><time>2026-05-02T08:56:28.999Z</time></trkpt><trkpt lat="44.28875404077897" lon="9.947969549022238"><ele>139.0</ele><time>2026-05-02T08:56:29.999Z</time></trkpt><trkpt lat="44.28889755727391" lon="9.947969032639671"><ele>137.75</ele><time>2026-05-02T08:56:30.999Z</time></trkpt><trkpt lat="44.28903427099406" lon="9.948022771475463"><ele>136.5</ele><time>2026-05-02T08:56:31.999Z</time></trkpt><trkpt lat="44.289156085718986" lon="9.948115840875673"><ele>135.25</ele><time>2026-05-02T08:56:32.999Z</time></trkpt><trkpt lat="44.28926476245086" lon="9.948241698022306"><ele>134.0</ele><time>2026-05-02T08:56:33.999Z</time></trkpt><trkpt lat="44.289357538736645" lon="9.948394239705593"><ele>134.0</ele><time>2026-05-02T08:56:34.999Z</time></trkpt><trkpt lat="44.289427602492665" lon="9.948576939747374"><ele>134.0</ele><time>2026-05-02T08:56:35.999Z</time></trkpt><trkpt lat="44.28949168486597" lon="9.948757515530605"><ele>134.0</ele><time>2026-05-02T08:56:36.999Z</time></trkpt><trkpt lat="44.28955394700753" lon="9.948914574350873"><ele>134.0</ele><time>2026-05-02T08:56:37.999Z</time></trkpt><trkpt lat="44.28962725141838" lon="9.94906035060264"><ele>134.0</ele><time>2026-05-02T08:56:38.999Z</time></trkpt><trkpt lat="44.289688468129036" lon="9.949206054518374"><ele>134.0</ele><time>2026-05-02T08:56:39.999Z</time></trkpt><trkpt lat="44.2897508178753" lon="9.949348809130136"><ele>134.0</ele><time>2026-05-02T08:56:40.999Z</time></trkpt><trkpt lat="44.289809851373775" lon="9.94949338196661"><ele>134.0</ele><time>2026-05-02T08:56:42.001Z</time></trkpt><trkpt lat="44.28986624771288" lon="9.949625902104914"><ele>133.8</ele><time>2026-05-02T08:56:43.001Z</time></trkpt><trkpt lat="44.28991913782816" lon="9.949751244889795"><ele>133.60000000000002</ele><time>2026-05-02T08:56:44.001Z</time></trkpt><trkpt lat="44.289971385954665" lon="9.949865624798866"><ele>133.4</ele><time>2026-05-02T08:56:45.001Z</time></trkpt><trkpt lat="44.29002210906282" lon="9.949973745455242"><ele>133.20000000000002</ele><time>2026-05-02T08:56:46.001Z</time></trkpt><trkpt lat="44.290066921454226" lon="9.950081874808657"><ele>133.0</ele><time>2026-05-02T08:56:47Z</time></trkpt><trkpt lat="44.29011186362289" lon="9.950183939764313"><ele>133.5</ele><time>2026-05-02T08:56:48Z</time></trkpt><trkpt lat="44.2901606837045" lon="9.95029078096402"><ele>134.0</ele><time>2026-05-02T08:56:49Z</time></trkpt><trkpt lat="44.29019882681942" lon="9.950400147672902"><ele>134.5</ele><time>2026-05-02T08:56:50Z</time></trkpt><trkpt lat="44.290239277703584" lon="9.95050030340449"><ele>135.0</ele><time>2026-05-02T08:56:51Z</time></trkpt><trkpt lat="44.290287223897934" lon="9.950590285397436"><ele>135.5</ele><time>2026-05-02T08:56:52Z</time></trkpt><trkpt lat="44.29032528208057" lon="9.95068337683656"><ele>136.0</ele><time>2026-05-02T08:56:53Z</time></trkpt><trkpt lat="44.29036727168634" lon="9.950787632408808"><ele>135.4</ele><time>2026-05-02T08:56:54Z</time></trkpt><trkpt lat="44.290417892445745" lon="9.950886561570885"><ele>134.8</ele><time>2026-05-02T08:56:55Z</time></trkpt><trkpt lat="44.29045920550143" lon="9.950998400208828"><ele>134.20000000000002</ele><time>2026-05-02T08:56:56Z</time></trkpt><trkpt lat="44.29050718673031" lon="9.951114593572756"><ele>133.6</ele><time>2026-05-02T08:56:57Z</time></trkpt><trkpt lat="44.2905656728068" lon="9.951239909746675"><ele>133.0</ele><time>2026-05-02T08:56:58Z</time></trkpt><trkpt lat="44.290636288529875" lon="9.95135759313697"><ele>133.0</ele><time>2026-05-02T08:56:59Z</time></trkpt><trkpt lat="44.290715400629814" lon="9.951452978618146"><ele>133.0</ele><time>2026-05-02T08:57:00Z</time></trkpt><trkpt lat="44.29080889108486" lon="9.951528835481646"><ele>133.0</ele><time>2026-05-02T08:57:01Z</time></trkpt><trkpt lat="44.290920200340274" lon="9.951581222070148"><ele>133.0</ele><time>2026-05-02T08:57:02Z</time></trkpt><trkpt lat="44.29103956077094" lon="9.951613670139583"><ele>133.0</ele><time>2026-05-02T08:57:03Z</time></trkpt><trkpt lat="44.29116246814967" lon="9.951652349389262"><ele>133.0</ele><time>2026-05-02T08:57:04Z</time></trkpt><trkpt lat="44.29128739160515" lon="9.951664680061038"><ele>133.0</ele><time>2026-05-02T08:57:05Z</time></trkpt><trkpt lat="44.29141111330811" lon="9.95170063389248"><ele>133.0</ele><time>2026-05-02T08:57:06Z</time></trkpt><trkpt lat="44.291531158648574" lon="9.951728735120858"><ele>131.5</ele><time>2026-05-02T08:57:07Z</time></trkpt><trkpt lat="44.2916530859536" lon="9.951756256375274"><ele>130.0</ele><time>2026-05-02T08:57:08Z</time></trkpt><trkpt lat="44.291777365864974" lon="9.951779316742293"><ele>128.5</ele><time>2026-05-02T08:57:09Z</time></trkpt><trkpt lat="44.291904761064444" lon="9.951801717094185"><ele>127.0</ele><time>2026-05-02T08:57:10Z</time></trkpt><trkpt lat="44.29203403722546" lon="9.951804905327387"><ele>127.0</ele><time>2026-05-02T08:57:11Z</time></trkpt><trkpt lat="44.292166031187875" lon="9.951797342743363"><ele>127.0</ele><time>2026-05-02T08:57:12Z</time></trkpt><trkpt lat="44.292296145577595" lon="9.951774374176674"><ele>127.0</ele><time>2026-05-02T08:57:13Z</time></trkpt><trkpt lat="44.29242382787826" lon="9.951741828671672"><ele>127.0</ele><time>2026-05-02T08:57:14Z</time></trkpt><trkpt lat="44.29254579722317" lon="9.951707067329277"><ele>127.25</ele><time>2026-05-02T08:57:15Z</time></trkpt><trkpt lat="44.29266424504718" lon="9.951666484345418"><ele>127.5</ele><time>2026-05-02T08:57:16Z</time></trkpt><trkpt lat="44.292774154602455" lon="9.951627145869985"><ele>127.75</ele><time>2026-05-02T08:57:17Z</time></trkpt><trkpt lat="44.29287878068712" lon="9.951590008320386"><ele>128.0</ele><time>2026-05-02T08:57:18Z</time></trkpt><trkpt lat="44.292986565173784" lon="9.951551515703324"><ele>128.25</ele><time>2026-05-02T08:57:19Z</time></trkpt><trkpt lat="44.293097880099864" lon="9.951509841415941"><ele>128.5</ele><time>2026-05-02T08:57:20Z</time></trkpt><trkpt lat="44.293207345586126" lon="9.95146891111106"><ele>128.75</ele><time>2026-05-02T08:57:21Z</time></trkpt><trkpt lat="44.29331953351266" lon="9.951431644988505"><ele>129.0</ele><time>2026-05-02T08:57:22Z</time></trkpt><trkpt lat="44.293429684555335" lon="9.951395744685188"><ele>129.0</ele><time>2026-05-02T08:57:23Z</time></trkpt><trkpt lat="44.293532096518916" lon="9.951356646916384"><ele>129.0</ele><time>2026-05-02T08:57:24Z</time></trkpt><trkpt lat="44.29363793617421" lon="9.951320209247172"><ele>129.0</ele><time>2026-05-02T08:57:25Z</time></trkpt><trkpt lat="44.293745583506" lon="9.951283146609992"><ele>129.0</ele><time>2026-05-02T08:57:26Z</time></trkpt><trkpt lat="44.29385192154176" lon="9.95124621910003"><ele>129.0</ele><time>2026-05-02T08:57:27Z</time></trkpt><trkpt lat="44.29395532657347" lon="9.95120930382399"><ele>129.8</ele><time>2026-05-02T08:57:28Z</time></trkpt><trkpt lat="44.294058861249624" lon="9.951174883004189"><ele>130.60000000000002</ele><time>2026-05-02T08:57:29Z</time></trkpt><trkpt lat="44.29416293756459" lon="9.951135329056056"><ele>131.4</ele><time>2026-05-02T08:57:30Z</time></trkpt><trkpt lat="44.29426488188225" lon="9.951096982811414"><ele>132.20000000000002</ele><time>2026-05-02T08:57:31Z</time></trkpt><trkpt lat="44.294366628752435" lon="9.951055807056289"><ele>133.0</ele><time>2026-05-02T08:57:32Z</time></trkpt><trkpt lat="44.294467626558465" lon="9.951020865122029"><ele>133.0</ele><time>2026-05-02T08:57:33Z</time></trkpt><trkpt lat="44.29456505670249" lon="9.950980558157195"><ele>133.0</ele><time>2026-05-02T08:57:34Z</time></trkpt><trkpt lat="44.294662105343484" lon="9.950945319444777"><ele>133.0</ele><time>2026-05-02T08:57:35Z</time></trkpt><trkpt lat="44.29475155586438" lon="9.950914608651257"><ele>133.0</ele><time>2026-05-02T08:57:36Z</time></trkpt><trkpt lat="44.29483381226609" lon="9.950884922324377"><ele>133.0</ele><time>2026-05-02T08:57:37Z</time></trkpt><trkpt lat="44.29490136671473" lon="9.950863770231503"><ele>133.0</ele><time>2026-05-02T08:57:37.999Z</time></trkpt><trkpt lat="44.29498330938092" lon="9.950832819906942"><ele>133.6</ele><time>2026-05-02T08:57:39.999Z</time></trkpt><trkpt lat="44.295101064749744" lon="9.950829432835485"><ele>134.20000000000002</ele><time>2026-05-02T08:58:18.999Z</time></trkpt><trkpt lat="44.29516835256664" lon="9.95080483736852"><ele>134.8</ele><time>2026-05-02T08:58:19.999Z</time></trkpt><trkpt lat="44.29524711278977" lon="9.950775300911525"><ele>135.4</ele><time>2026-05-02T08:58:20.999Z</time></trkpt><trkpt lat="44.295350308806256" lon="9.950736356425441"><ele>136.0</ele><time>2026-05-02T08:58:21.999Z</time></trkpt><trkpt lat="44.29546380865362" lon="9.95069048488908"><ele>136.0</ele><time>2026-05-02T08:58:22.999Z</time></trkpt><trkpt lat="44.29557199542206" lon="9.950642970643239"><ele>136.0</ele><time>2026-05-02T08:58:23.999Z</time></trkpt><trkpt lat="44.29568755131672" lon="9.950588421875363"><ele>136.0</ele><time>2026-05-02T08:58:24.999Z</time></trkpt><trkpt lat="44.295812836402355" lon="9.950516075401353"><ele>136.0</ele><time>2026-05-02T08:58:25.999Z</time></trkpt><trkpt lat="44.29594974574396" lon="9.950406178376243"><ele>137.0</ele><time>2026-05-02T08:58:26.999Z</time></trkpt><trkpt lat="44.29607169856524" lon="9.95026273840905"><ele>138.0</ele><time>2026-05-02T08:58:27.999Z</time></trkpt><trkpt lat="44.296181955835586" lon="9.95013640872523"><ele>139.0</ele><time>2026-05-02T08:58:28.999Z</time></trkpt><trkpt lat="44.296297093233214" lon="9.950027276555469"><ele>140.0</ele><time>2026-05-02T08:58:29.999Z</time></trkpt><trkpt lat="44.29642889045458" lon="9.949901130136926"><ele>140.0</ele><time>2026-05-02T08:58:30.999Z</time></trkpt><trkpt lat="44.29635974418492" lon="9.949908151610588"><ele>140.0</ele><time>2026-05-02T08:58:31.999Z</time></trkpt><trkpt lat="44.29646204418681" lon="9.949804971651966"><ele>140.0</ele><time>2026-05-02T08:58:32.999Z</time></trkpt><trkpt lat="44.29657614089443" lon="9.94971108581359"><ele>140.0</ele><time>2026-05-02T08:58:33.999Z</time></trkpt><trkpt lat="44.29670217096474" lon="9.949671015595696"><ele>140.5</ele><time>2026-05-02T08:58:34.999Z</time></trkpt><trkpt lat="44.29682680620332" lon="9.949612009307115"><ele>141.0</ele><time>2026-05-02T08:58:35.999Z</time></trkpt><trkpt lat="44.29695452665178" lon="9.949542192999905"><ele>141.5</ele><time>2026-05-02T08:58:36.999Z</time></trkpt><trkpt lat="44.297089272978155" lon="9.949481041231206"><ele>142.0</ele><time>2026-05-02T08:58:37.999Z</time></trkpt><trkpt lat="44.29721733136912" lon="9.949418806226982"><ele>142.25</ele><time>2026-05-02T08:58:38.999Z</time></trkpt><trkpt lat="44.297341483061345" lon="9.949359597833197"><ele>142.5</ele><time>2026-05-02T08:58:39.999Z</time></trkpt><trkpt lat="44.297459884769836" lon="9.949301894869754"><ele>142.75</ele><time>2026-05-02T08:58:40.999Z</time></trkpt><trkpt lat="44.297576597214785" lon="9.949240543292271"><ele>143.0</ele><time>2026-05-02T08:58:41.999Z</time></trkpt><trkpt lat="44.29770052780938" lon="9.94917808439621"><ele>143.0</ele><time>2026-05-02T08:58:42.999Z</time></trkpt><trkpt lat="44.297826784005714" lon="9.94912826533416"><ele>143.0</ele><time>2026-05-02T08:58:43.998Z</time></trkpt><trkpt lat="44.29795196983832" lon="9.949097023213481"><ele>143.0</ele><time>2026-05-02T08:58:44.998Z</time></trkpt><trkpt lat="44.29808532291887" lon="9.949075296884775"><ele>143.0</ele><time>2026-05-02T08:58:45.998Z</time></trkpt><trkpt lat="44.2982062583446" lon="9.949060132369219"><ele>143.0</ele><time>2026-05-02T08:58:46.998Z</time></trkpt><trkpt lat="44.29831890279398" lon="9.94905108799914"><ele>143.0</ele><time>2026-05-02T08:58:48Z</time></trkpt><trkpt lat="44.29842357949442" lon="9.94904026721623"><ele>143.0</ele><time>2026-05-02T08:58:49Z</time></trkpt><trkpt lat="44.29852652597535" lon="9.949036034171188"><ele>143.0</ele><time>2026-05-02T08:58:50Z</time></trkpt><trkpt lat="44.29863650421256" lon="9.949021761096493"><ele>143.0</ele><time>2026-05-02T08:58:51Z</time></trkpt><trkpt lat="44.29875524168284" lon="9.949019830638251"><ele>143.0</ele><time>2026-05-02T08:58:52Z</time></trkpt><trkpt lat="44.2988707108007" lon="9.949009979804718"><ele>143.0</ele><time>2026-05-02T08:58:53Z</time></trkpt><trkpt lat="44.29900232042975" lon="9.949002437608756"><ele>143.0</ele><time>2026-05-02T08:58:54Z</time></trkpt><trkpt lat="44.29914153811482" lon="9.94898919927378"><ele>143.0</ele><time>2026-05-02T08:58:55Z</time></trkpt><trkpt lat="44.2992827908238" lon="9.948972211698457"><ele>142.75</ele><time>2026-05-02T08:58:56Z</time></trkpt><trkpt lat="44.29941011612006" lon="9.948953617431066"><ele>142.5</ele><time>2026-05-02T08:58:57Z</time></trkpt><trkpt lat="44.29952992066818" lon="9.948942823964785"><ele>142.25</ele><time>2026-05-02T08:58:58Z</time></trkpt><trkpt lat="44.299651983512746" lon="9.948933163667943"><ele>142.0</ele><time>2026-05-02T08:58:59Z</time></trkpt><trkpt lat="44.29976018728893" lon="9.948914150716416"><ele>141.75</ele><time>2026-05-02T08:59:00Z</time></trkpt><trkpt lat="44.299857753069865" lon="9.948882494602431"><ele>141.5</ele><time>2026-05-02T08:59:01Z</time></trkpt><trkpt lat="44.29997868410096" lon="9.948845014644712"><ele>141.25</ele><time>2026-05-02T08:59:02Z</time></trkpt><trkpt lat="44.30009931686695" lon="9.948804468055892"><ele>141.0</ele><time>2026-05-02T08:59:03Z</time></trkpt><trkpt lat="44.30021656688082" lon="9.948771740011045"><ele>141.0</ele><time>2026-05-02T08:59:04Z</time></trkpt><trkpt lat="44.300336328889465" lon="9.948738130269204"><ele>141.0</ele><time>2026-05-02T08:59:05Z</time></trkpt><trkpt lat="44.30045035403526" lon="9.948705898347415"><ele>141.0</ele><time>2026-05-02T08:59:06Z</time></trkpt><trkpt lat="44.30055382550901" lon="9.94867162188627"><ele>141.0</ele><time>2026-05-02T08:59:07Z</time></trkpt><trkpt lat="44.30065281773898" lon="9.94861922574473"><ele>141.25</ele><time>2026-05-02T08:59:08Z</time></trkpt><trkpt lat="44.30075446711966" lon="9.948494004688685"><ele>141.5</ele><time>2026-05-02T08:59:09Z</time></trkpt><trkpt lat="44.30090138416867" lon="9.948528043482623"><ele>141.75</ele><time>2026-05-02T08:59:10Z</time></trkpt><trkpt lat="44.30102581387561" lon="9.948476021124524"><ele>142.0</ele><time>2026-05-02T08:59:11Z</time></trkpt><trkpt lat="44.301153252348215" lon="9.948437385898567"><ele>142.0</ele><time>2026-05-02T08:59:12Z</time></trkpt><trkpt lat="44.30128604274099" lon="9.948416281954481"><ele>142.0</ele><time>2026-05-02T08:59:13Z</time></trkpt><trkpt lat="44.30141281811004" lon="9.94833073799249"><ele>142.0</ele><time>2026-05-02T08:59:14Z</time></trkpt><trkpt lat="44.30154441036897" lon="9.948278240707733"><ele>142.0</ele><time>2026-05-02T08:59:15Z</time></trkpt><trkpt lat="44.3016870720378" lon="9.948223714928933"><ele>143.0</ele><time>2026-05-02T08:59:16Z</time></trkpt><trkpt lat="44.301811771764314" lon="9.948166665084605"><ele>144.0</ele><time>2026-05-02T08:59:17Z</time></trkpt><trkpt lat="44.301903511935734" lon="9.948126195507921"><ele>145.0</ele><time>2026-05-02T08:59:18Z</time></trkpt><trkpt lat="44.30201500770096" lon="9.948073085385522"><ele>146.0</ele><time>2026-05-02T08:59:19Z</time></trkpt><trkpt lat="44.30216448594272" lon="9.948037160915959"><ele>145.66666666666666</ele><time>2026-05-02T08:59:20Z</time></trkpt><trkpt lat="44.30232783485754" lon="9.947982627326729"><ele>145.33333333333334</ele><time>2026-05-02T08:59:21Z</time></trkpt><trkpt lat="44.30248844120359" lon="9.947920734461269"><ele>145.0</ele><time>2026-05-02T08:59:22Z</time></trkpt><trkpt lat="44.30265237342157" lon="9.94787399190205"><ele>145.0</ele><time>2026-05-02T08:59:23Z</time></trkpt><trkpt lat="44.30281489163882" lon="9.947835131920652"><ele>145.0</ele><time>2026-05-02T08:59:24Z</time></trkpt><trkpt lat="44.302988499528425" lon="9.94778231229851"><ele>145.0</ele><time>2026-05-02T08:59:25Z</time></trkpt><trkpt lat="44.303143537053835" lon="9.947742662959618"><ele>145.33333333333334</ele><time>2026-05-02T08:59:26Z</time></trkpt><trkpt lat="44.30329068267374" lon="9.947696076540156"><ele>145.66666666666666</ele><time>2026-05-02T08:59:27Z</time></trkpt><trkpt lat="44.30344235240839" lon="9.947654582009498"><ele>146.0</ele><time>2026-05-02T08:59:28Z</time></trkpt><trkpt lat="44.303612336074316" lon="9.947600076726305"><ele>146.0</ele><time>2026-05-02T08:59:29Z</time></trkpt><trkpt lat="44.303788967348545" lon="9.947567898691576"><ele>146.0</ele><time>2026-05-02T08:59:30Z</time></trkpt><trkpt lat="44.30397300898406" lon="9.947519147303538"><ele>146.0</ele><time>2026-05-02T08:59:31Z</time></trkpt><trkpt lat="44.304166077902124" lon="9.94746800474007"><ele>145.33333333333331</ele><time>2026-05-02T08:59:32Z</time></trkpt><trkpt lat="44.3043607353785" lon="9.947409637768702"><ele>144.66666666666666</ele><time>2026-05-02T08:59:33Z</time></trkpt><trkpt lat="44.30454398169411" lon="9.947373971746318"><ele>144.0</ele><time>2026-05-02T08:59:34Z</time></trkpt><trkpt lat="44.304717784840406" lon="9.947328224539854"><ele>144.66666666666666</ele><time>2026-05-02T08:59:35Z</time></trkpt><trkpt lat="44.304899439518856" lon="9.947272135560144"><ele>145.33333333333331</ele><time>2026-05-02T08:59:36Z</time></trkpt><trkpt lat="44.30508330109826" lon="9.947222592122886"><ele>146.0</ele><time>2026-05-02T08:59:37Z</time></trkpt><trkpt lat="44.305268265613414" lon="9.947173930425182"><ele>146.0</ele><time>2026-05-02T08:59:37.999Z</time></trkpt><trkpt lat="44.3054450876037" lon="9.947111957309671"><ele>146.0</ele><time>2026-05-02T08:59:38.999Z</time></trkpt><trkpt lat="44.305617345134536" lon="9.94703008957962"><ele>146.0</ele><time>2026-05-02T08:59:39.999Z</time></trkpt><trkpt lat="44.305785996503126" lon="9.946931918785383"><ele>146.0</ele><time>2026-05-02T08:59:40.999Z</time></trkpt><trkpt lat="44.30595337554351" lon="9.946824430124671"><ele>146.0</ele><time>2026-05-02T08:59:41.999Z</time></trkpt><trkpt lat="44.3061201868215" lon="9.946714486671532"><ele>146.0</ele><time>2026-05-02T08:59:42.999Z</time></trkpt><trkpt lat="44.306291486995526" lon="9.94661761895117"><ele>145.0</ele><time>2026-05-02T08:59:43.999Z</time></trkpt><trkpt lat="44.30646337049776" lon="9.94655176379348"><ele>144.0</ele><time>2026-05-02T08:59:44.999Z</time></trkpt><trkpt lat="44.30665147316541" lon="9.946565897328021"><ele>143.0</ele><time>2026-05-02T08:59:45.999Z</time></trkpt><trkpt lat="44.30684839516077" lon="9.946570930328914"><ele>143.0</ele><time>2026-05-02T08:59:46.999Z</time></trkpt><trkpt lat="44.30704671689687" lon="9.946609488096719"><ele>143.0</ele><time>2026-05-02T08:59:47.999Z</time></trkpt><trkpt lat="44.30724691902685" lon="9.946630369736523"><ele>143.0</ele><time>2026-05-02T08:59:48.999Z</time></trkpt><trkpt lat="44.30744323508106" lon="9.946651652618787"><ele>143.0</ele><time>2026-05-02T08:59:49.999Z</time></trkpt><trkpt lat="44.307641071565385" lon="9.946666596402562"><ele>143.0</ele><time>2026-05-02T08:59:50.999Z</time></trkpt><trkpt lat="44.307843166270125" lon="9.946667127576402"><ele>143.0</ele><time>2026-05-02T08:59:51.999Z</time></trkpt><trkpt lat="44.30804442806756" lon="9.946639864312132"><ele>143.0</ele><time>2026-05-02T08:59:52.999Z</time></trkpt><trkpt lat="44.308247017392254" lon="9.946593709581613"><ele>143.0</ele><time>2026-05-02T08:59:53.999Z</time></trkpt><trkpt lat="44.3084451946493" lon="9.946546892966998"><ele>143.0</ele><time>2026-05-02T08:59:54.999Z</time></trkpt><trkpt lat="44.30864183184516" lon="9.946504936039537"><ele>143.0</ele><time>2026-05-02T08:59:55.999Z</time></trkpt><trkpt lat="44.30883742068962" lon="9.946473633833477"><ele>143.0</ele><time>2026-05-02T08:59:56.999Z</time></trkpt><trkpt lat="44.30904629231217" lon="9.94646647612435"><ele>143.0</ele><time>2026-05-02T08:59:57.999Z</time></trkpt><trkpt lat="44.30925545532232" lon="9.94648327784272"><ele>142.66666666666666</ele><time>2026-05-02T08:59:58.999Z</time></trkpt><trkpt lat="44.30946970178054" lon="9.946511092515879"><ele>142.33333333333334</ele><time>2026-05-02T08:59:59.999Z</time></trkpt><trkpt lat="44.30968174443611" lon="9.946545860668007"><ele>142.0</ele><time>2026-05-02T09:00:00.999Z</time></trkpt><trkpt lat="44.30989654908336" lon="9.946588244310473"><ele>142.0</ele><time>2026-05-02T09:00:01.999Z</time></trkpt><trkpt lat="44.31010980421016" lon="9.946634809039088"><ele>142.0</ele><time>2026-05-02T09:00:02.999Z</time></trkpt><trkpt lat="44.31031005633692" lon="9.946663750589776"><ele>142.0</ele><time>2026-05-02T09:00:03.999Z</time></trkpt><trkpt lat="44.31050394152352" lon="9.94670220277498"><ele>142.66666666666669</ele><time>2026-05-02T09:00:04.999Z</time></trkpt><trkpt lat="44.3106909952962" lon="9.946748866119885"><ele>143.33333333333334</ele><time>2026-05-02T09:00:05.999Z</time></trkpt><trkpt lat="44.310872004105335" lon="9.946761612548473"><ele>144.0</ele><time>2026-05-02T09:00:06.999Z</time></trkpt><trkpt lat="44.31104883429666" lon="9.946744158994246"><ele>142.66666666666666</ele><time>2026-05-02T09:00:07.999Z</time></trkpt><trkpt lat="44.311220305395814" lon="9.946671745230693"><ele>141.33333333333331</ele><time>2026-05-02T09:00:08.999Z</time></trkpt><trkpt lat="44.31138714811411" lon="9.946540767509228"><ele>140.0</ele><time>2026-05-02T09:00:09.999Z</time></trkpt><trkpt lat="44.311545920000185" lon="9.946379754636226"><ele>140.0</ele><time>2026-05-02T09:00:10.999Z</time></trkpt><trkpt lat="44.31171012922477" lon="9.94622851378226"><ele>140.0</ele><time>2026-05-02T09:00:11.999Z</time></trkpt><trkpt lat="44.3118835476209" lon="9.946100952073076"><ele>140.0</ele><time>2026-05-02T09:00:12.999Z</time></trkpt><trkpt lat="44.312073533975884" lon="9.94600023540801"><ele>139.66666666666666</ele><time>2026-05-02T09:00:13.999Z</time></trkpt><trkpt lat="44.31226844585833" lon="9.945917971427455"><ele>139.33333333333334</ele><time>2026-05-02T09:00:14.999Z</time></trkpt><trkpt lat="44.312467702093144" lon="9.94583844222206"><ele>139.0</ele><time>2026-05-02T09:00:15.999Z</time></trkpt><trkpt lat="44.312668925383434" lon="9.945755903395241"><ele>139.0</ele><time>2026-05-02T09:00:16.999Z</time></trkpt><trkpt lat="44.3128658444773" lon="9.945669553754724"><ele>139.0</ele><time>2026-05-02T09:00:17.999Z</time></trkpt><trkpt lat="44.31306369642086" lon="9.94557920960759"><ele>139.0</ele><time>2026-05-02T09:00:18.999Z</time></trkpt><trkpt lat="44.31326422764469" lon="9.945491121705727"><ele>139.33333333333334</ele><time>2026-05-02T09:00:19.999Z</time></trkpt><trkpt lat="44.31347089287548" lon="9.945410282974283"><ele>139.66666666666666</ele><time>2026-05-02T09:00:20.999Z</time></trkpt><trkpt lat="44.313674123174444" lon="9.945322865106336"><ele>140.0</ele><time>2026-05-02T09:00:21.999Z</time></trkpt><trkpt lat="44.31388406882275" lon="9.945250002303489"><ele>139.66666666666666</ele><time>2026-05-02T09:00:22.999Z</time></trkpt><trkpt lat="44.314095328203585" lon="9.945137790933067"><ele>139.33333333333334</ele><time>2026-05-02T09:00:23.999Z</time></trkpt><trkpt lat="44.31430760384149" lon="9.945050036782256"><ele>139.0</ele><time>2026-05-02T09:00:24.999Z</time></trkpt><trkpt lat="44.314515194953145" lon="9.944953607817633"><ele>138.33333333333334</ele><time>2026-05-02T09:00:25.999Z</time></trkpt><trkpt lat="44.314719576849605" lon="9.944851984358131"><ele>137.66666666666666</ele><time>2026-05-02T09:00:26.999Z</time></trkpt><trkpt lat="44.31492514352474" lon="9.944750021821221"><ele>137.0</ele><time>2026-05-02T09:00:27.999Z</time></trkpt><trkpt lat="44.31513215744398" lon="9.944652042688084"><ele>137.0</ele><time>2026-05-02T09:00:28.999Z</time></trkpt><trkpt lat="44.315347552452806" lon="9.944560183638531"><ele>137.0</ele><time>2026-05-02T09:00:29.999Z</time></trkpt><trkpt lat="44.315563275164834" lon="9.94447542669314"><ele>137.0</ele><time>2026-05-02T09:00:30.999Z</time></trkpt><trkpt lat="44.31578368562913" lon="9.944394559490782"><ele>138.0</ele><time>2026-05-02T09:00:31.999Z</time></trkpt><trkpt lat="44.31600153397914" lon="9.944302720627027"><ele>139.0</ele><time>2026-05-02T09:00:32.999Z</time></trkpt><trkpt lat="44.3162206095754" lon="9.944204432632509"><ele>138.5</ele><time>2026-05-02T09:00:33.999Z</time></trkpt><trkpt lat="44.31644266214306" lon="9.944104194939047"><ele>138.0</ele><time>2026-05-02T09:00:34.999Z</time></trkpt><trkpt lat="44.316658927345955" lon="9.944002307220266"><ele>138.0</ele><time>2026-05-02T09:00:35.999Z</time></trkpt><trkpt lat="44.316876063953785" lon="9.943896766534591"><ele>138.0</ele><time>2026-05-02T09:00:36.999Z</time></trkpt><trkpt lat="44.31710162927454" lon="9.943812154409502"><ele>139.5</ele><time>2026-05-02T09:00:37.999Z</time></trkpt><trkpt lat="44.31731799168498" lon="9.943690246250318"><ele>141.0</ele><time>2026-05-02T09:00:38.999Z</time></trkpt><trkpt lat="44.317535107676136" lon="9.943592558713556"><ele>141.0</ele><time>2026-05-02T09:00:39.999Z</time></trkpt><trkpt lat="44.31775343492336" lon="9.94349236928473"><ele>141.0</ele><time>2026-05-02T09:00:40.999Z</time></trkpt><trkpt lat="44.3179644087608" lon="9.94339231610704"><ele>141.0</ele><time>2026-05-02T09:00:41.999Z</time></trkpt><trkpt lat="44.318168619142526" lon="9.943293625343928"><ele>141.0</ele><time>2026-05-02T09:00:42.999Z</time></trkpt><trkpt lat="44.31837356541694" lon="9.943192874843803"><ele>141.0</ele><time>2026-05-02T09:00:43.999Z</time></trkpt><trkpt lat="44.31857990179545" lon="9.943098424238094"><ele>141.0</ele><time>2026-05-02T09:00:44.998Z</time></trkpt><trkpt lat="44.31877474884241" lon="9.943004744951235"><ele>141.0</ele><time>2026-05-02T09:00:45.998Z</time></trkpt><trkpt lat="44.31896122615934" lon="9.942915288533321"><ele>141.0</ele><time>2026-05-02T09:00:46.998Z</time></trkpt><trkpt lat="44.319143681577096" lon="9.942828077186725"><ele>141.33333333333334</ele><time>2026-05-02T09:00:47.998Z</time></trkpt><trkpt lat="44.31932396155995" lon="9.942743784429046"><ele>141.66666666666669</ele><time>2026-05-02T09:00:48.998Z</time></trkpt><trkpt lat="44.319498180967166" lon="9.942657177643982"><ele>142.0</ele><time>2026-05-02T09:00:49.998Z</time></trkpt><trkpt lat="44.31969397867048" lon="9.942584983401115"><ele>142.0</ele><time>2026-05-02T09:00:50.998Z</time></trkpt><trkpt lat="44.319861835296344" lon="9.942487299447407"><ele>142.0</ele><time>2026-05-02T09:00:51.998Z</time></trkpt><trkpt lat="44.32003321288279" lon="9.942404888649454"><ele>142.0</ele><time>2026-05-02T09:00:52.998Z</time></trkpt><trkpt lat="44.32020067427056" lon="9.942329066016269"><ele>142.0</ele><time>2026-05-02T09:00:54Z</time></trkpt><trkpt lat="44.32036723303473" lon="9.942252297239145"><ele>142.0</ele><time>2026-05-02T09:00:55Z</time></trkpt><trkpt lat="44.320534517114176" lon="9.942173159549386"><ele>142.0</ele><time>2026-05-02T09:00:56Z</time></trkpt><trkpt lat="44.320703643860796" lon="9.942091594499278"><ele>142.0</ele><time>2026-05-02T09:00:57Z</time></trkpt><trkpt lat="44.3208739735876" lon="9.942010569340782"><ele>142.0</ele><time>2026-05-02T09:00:58Z</time></trkpt><trkpt lat="44.32104671805379" lon="9.941929636932853"><ele>142.0</ele><time>2026-05-02T09:00:59Z</time></trkpt><trkpt lat="44.32122806664045" lon="9.941869182061328"><ele>142.33333333333334</ele><time>2026-05-02T09:01:00Z</time></trkpt><trkpt lat="44.321423516854374" lon="9.941777425137978"><ele>142.66666666666666</ele><time>2026-05-02T09:01:01Z</time></trkpt><trkpt lat="44.321636232109334" lon="9.941677930854263"><ele>143.0</ele><time>2026-05-02T09:01:02Z</time></trkpt><trkpt lat="44.32185806171653" lon="9.941573590935914"><ele>143.0</ele><time>2026-05-02T09:01:03Z</time></trkpt><trkpt lat="44.322093438504204" lon="9.941462879007007"><ele>143.0</ele><time>2026-05-02T09:01:04Z</time></trkpt><trkpt lat="44.32231688582059" lon="9.941357778173884"><ele>143.5</ele><time>2026-05-02T09:01:05Z</time></trkpt><trkpt lat="44.3225358781372" lon="9.94125477283465"><ele>144.0</ele><time>2026-05-02T09:01:06Z</time></trkpt><trkpt lat="44.322750310937" lon="9.941153912106847"><ele>144.0</ele><time>2026-05-02T09:01:07Z</time></trkpt><trkpt lat="44.32296421312534" lon="9.94105330174311"><ele>144.0</ele><time>2026-05-02T09:01:08Z</time></trkpt><trkpt lat="44.323166754898324" lon="9.940932451212918"><ele>144.0</ele><time>2026-05-02T09:01:09Z</time></trkpt><trkpt lat="44.32338050902979" lon="9.94085558697293"><ele>144.66666666666666</ele><time>2026-05-02T09:01:10Z</time></trkpt><trkpt lat="44.32358208462647" lon="9.940737440192583"><ele>145.33333333333331</ele><time>2026-05-02T09:01:11Z</time></trkpt><trkpt lat="44.32378081574958" lon="9.940646172276626"><ele>146.0</ele><time>2026-05-02T09:01:12Z</time></trkpt><trkpt lat="44.32397663071053" lon="9.94055823070715"><ele>146.0</ele><time>2026-05-02T09:01:13Z</time></trkpt><trkpt lat="44.324164087568185" lon="9.94047359126058"><ele>146.0</ele><time>2026-05-02T09:01:14Z</time></trkpt><trkpt lat="44.32434375243644" lon="9.940391731059892"><ele>146.0</ele><time>2026-05-02T09:01:15Z</time></trkpt><trkpt lat="44.32453084340737" lon="9.940303186042403"><ele>146.0</ele><time>2026-05-02T09:01:16Z</time></trkpt><trkpt lat="44.324724031998564" lon="9.940211694924747"><ele>146.0</ele><time>2026-05-02T09:01:17Z</time></trkpt><trkpt lat="44.32492489410338" lon="9.940110906526725"><ele>146.0</ele><time>2026-05-02T09:01:18Z</time></trkpt><trkpt lat="44.32513096475159" lon="9.94001259110467"><ele>146.0</ele><time>2026-05-02T09:01:19Z</time></trkpt><trkpt lat="44.32537240727506" lon="9.939900267592826"><ele>146.0</ele><time>2026-05-02T09:01:20Z</time></trkpt><trkpt lat="44.325624472777825" lon="9.939785170707223"><ele>148.66666666666666</ele><time>2026-05-02T09:01:21Z</time></trkpt><trkpt lat="44.325748612053786" lon="9.939677244350126"><ele>151.33333333333334</ele><time>2026-05-02T09:01:23Z</time></trkpt><trkpt lat="44.32591347596516" lon="9.939585082172625"><ele>154.0</ele><time>2026-05-02T09:01:24Z</time></trkpt><trkpt lat="44.32607994381724" lon="9.939491946144843"><ele>154.0</ele><time>2026-05-02T09:01:25Z</time></trkpt><trkpt lat="44.32623581631714" lon="9.939394706392408"><ele>154.0</ele><time>2026-05-02T09:01:26Z</time></trkpt><trkpt lat="44.32639284819916" lon="9.939302446329933"><ele>154.0</ele><time>2026-05-02T09:01:27Z</time></trkpt><trkpt lat="44.326550674146716" lon="9.939214803542301"><ele>153.0</ele><time>2026-05-02T09:01:28Z</time></trkpt><trkpt lat="44.32670646271829" lon="9.939124178529244"><ele>152.0</ele><time>2026-05-02T09:01:29Z</time></trkpt><trkpt lat="44.32685136724904" lon="9.939045841231554"><ele>151.0</ele><time>2026-05-02T09:01:30Z</time></trkpt><trkpt lat="44.32698358363683" lon="9.938969190087542"><ele>151.0</ele><time>2026-05-02T09:01:31Z</time></trkpt><trkpt lat="44.32711552591137" lon="9.938888574724643"><ele>151.0</ele><time>2026-05-02T09:01:32Z</time></trkpt><trkpt lat="44.32725034719107" lon="9.938802637775426"><ele>151.0</ele><time>2026-05-02T09:01:33Z</time></trkpt><trkpt lat="44.327381866277136" lon="9.938707395306052"><ele>151.0</ele><time>2026-05-02T09:01:34Z</time></trkpt><trkpt lat="44.32750371001812" lon="9.938582719700268"><ele>151.33333333333334</ele><time>2026-05-02T09:01:35Z</time></trkpt><trkpt lat="44.327616601686685" lon="9.938426336026485"><ele>151.66666666666666</ele><time>2026-05-02T09:01:36Z</time></trkpt><trkpt lat="44.32771194366173" lon="9.938257528599856"><ele>152.0</ele><time>2026-05-02T09:01:37Z</time></trkpt><trkpt lat="44.32779863194886" lon="9.9380921125451"><ele>152.0</ele><time>2026-05-02T09:01:37.999Z</time></trkpt><trkpt lat="44.32788256186166" lon="9.93792542672674"><ele>152.0</ele><time>2026-05-02T09:01:38.999Z</time></trkpt><trkpt lat="44.32797398794004" lon="9.937755882877244"><ele>152.0</ele><time>2026-05-02T09:01:39.999Z</time></trkpt><trkpt lat="44.3280612191888" lon="9.937593183516572"><ele>152.0</ele><time>2026-05-02T09:01:40.999Z</time></trkpt><trkpt lat="44.32814704977253" lon="9.937427090107395"><ele>152.66666666666666</ele><time>2026-05-02T09:01:41.999Z</time></trkpt><trkpt lat="44.328237957943216" lon="9.937257004693917"><ele>153.33333333333334</ele><time>2026-05-02T09:01:42.999Z</time></trkpt><trkpt lat="44.328331527110265" lon="9.937091316851241"><ele>154.0</ele><time>2026-05-02T09:01:43.999Z</time></trkpt><trkpt lat="44.32842582001863" lon="9.936923718374619"><ele>154.0</ele><time>2026-05-02T09:01:44.999Z</time></trkpt><trkpt lat="44.32852410460931" lon="9.936751135724199"><ele>154.0</ele><time>2026-05-02T09:01:45.999Z</time></trkpt><trkpt lat="44.328623869633866" lon="9.93657209642469"><ele>154.0</ele><time>2026-05-02T09:01:46.999Z</time></trkpt><trkpt lat="44.328725512629745" lon="9.93638927248081"><ele>153.66666666666669</ele><time>2026-05-02T09:01:47.999Z</time></trkpt><trkpt lat="44.32882468893423" lon="9.936207912144464"><ele>153.33333333333334</ele><time>2026-05-02T09:01:48.999Z</time></trkpt><trkpt lat="44.32892491432948" lon="9.936034330243833"><ele>153.0</ele><time>2026-05-02T09:01:49.999Z</time></trkpt><trkpt lat="44.329025756042775" lon="9.935855837033996"><ele>153.0</ele><time>2026-05-02T09:01:50.999Z</time></trkpt><trkpt lat="44.329122025533216" lon="9.935675915953672"><ele>153.0</ele><time>2026-05-02T09:01:51.999Z</time></trkpt><trkpt lat="44.32922189024426" lon="9.935503213095972"><ele>153.0</ele><time>2026-05-02T09:01:52.999Z</time></trkpt><trkpt lat="44.329321148006336" lon="9.935328106091353"><ele>153.0</ele><time>2026-05-02T09:01:53.999Z</time></trkpt><trkpt lat="44.32942276567608" lon="9.935151435818552"><ele>153.0</ele><time>2026-05-02T09:01:54.999Z</time></trkpt><trkpt lat="44.329527989744385" lon="9.93496953428168"><ele>153.0</ele><time>2026-05-02T09:01:55.999Z</time></trkpt><trkpt lat="44.32963549783188" lon="9.934783987147522"><ele>154.33333333333334</ele><time>2026-05-02T09:01:56.999Z</time></trkpt><trkpt lat="44.3297361945588" lon="9.93460102894681"><ele>155.66666666666669</ele><time>2026-05-02T09:01:57.999Z</time></trkpt><trkpt lat="44.32983453408426" lon="9.934422614350327"><ele>157.0</ele><time>2026-05-02T09:01:58.999Z</time></trkpt><trkpt lat="44.329920879761126" lon="9.934245908431894"><ele>156.75</ele><time>2026-05-02T09:01:59.999Z</time></trkpt><trkpt lat="44.33000288565537" lon="9.934080047274135"><ele>156.5</ele><time>2026-05-02T09:02:00.999Z</time></trkpt><trkpt lat="44.330080360889966" lon="9.933922772714563"><ele>156.25</ele><time>2026-05-02T09:02:01.999Z</time></trkpt><trkpt lat="44.330156404372005" lon="9.933763736653123"><ele>156.0</ele><time>2026-05-02T09:02:02.999Z</time></trkpt><trkpt lat="44.33023330507489" lon="9.933600596519298"><ele>156.0</ele><time>2026-05-02T09:02:03.999Z</time></trkpt><trkpt lat="44.33031185978977" lon="9.933435504133618"><ele>156.0</ele><time>2026-05-02T09:02:04.999Z</time></trkpt><trkpt lat="44.33038829048522" lon="9.933269880597514"><ele>156.0</ele><time>2026-05-02T09:02:05.999Z</time></trkpt><trkpt lat="44.33046336018102" lon="9.933107400133396"><ele>156.0</ele><time>2026-05-02T09:02:06.999Z</time></trkpt><trkpt lat="44.3305447550992" lon="9.93294728224494"><ele>156.25</ele><time>2026-05-02T09:02:07.999Z</time></trkpt><trkpt lat="44.33061508880286" lon="9.932787154028622"><ele>156.5</ele><time>2026-05-02T09:02:08.999Z</time></trkpt><trkpt lat="44.330687869639036" lon="9.932632128004812"><ele>156.75</ele><time>2026-05-02T09:02:09.999Z</time></trkpt><trkpt lat="44.33076445115358" lon="9.932479581294999"><ele>157.0</ele><time>2026-05-02T09:02:10.999Z</time></trkpt><trkpt lat="44.33083770147904" lon="9.932320157162312"><ele>156.33333333333334</ele><time>2026-05-02T09:02:11.999Z</time></trkpt><trkpt lat="44.33091421783937" lon="9.932155044958881"><ele>155.66666666666666</ele><time>2026-05-02T09:02:12.999Z</time></trkpt><trkpt lat="44.33099719386306" lon="9.931966134639197"><ele>155.0</ele><time>2026-05-02T09:02:13.999Z</time></trkpt><trkpt lat="44.33109009466379" lon="9.931768850736058"><ele>154.66666666666666</ele><time>2026-05-02T09:02:14.999Z</time></trkpt><trkpt lat="44.33118976578503" lon="9.931555535553228"><ele>154.33333333333334</ele><time>2026-05-02T09:02:15.999Z</time></trkpt><trkpt lat="44.331286140557204" lon="9.931373057215097"><ele>154.0</ele><time>2026-05-02T09:02:16.999Z</time></trkpt><trkpt lat="44.33136518640403" lon="9.931214392640296"><ele>154.0</ele><time>2026-05-02T09:02:17.999Z</time></trkpt><trkpt lat="44.33143293656087" lon="9.931077009459266"><ele>154.0</ele><time>2026-05-02T09:02:18.999Z</time></trkpt><trkpt lat="44.331488584632126" lon="9.930963113172414"><ele>154.0</ele><time>2026-05-02T09:02:19.999Z</time></trkpt><trkpt lat="44.331542033539" lon="9.930846931968391"><ele>154.0</ele><time>2026-05-02T09:02:20.999Z</time></trkpt><trkpt lat="44.33159395545732" lon="9.930731170630084"><ele>154.0</ele><time>2026-05-02T09:02:21.999Z</time></trkpt><trkpt lat="44.33164224475421" lon="9.93062360350523"><ele>154.0</ele><time>2026-05-02T09:02:22.999Z</time></trkpt><trkpt lat="44.33168711164821" lon="9.930533796025923"><ele>154.0</ele><time>2026-05-02T09:02:23.999Z</time></trkpt><trkpt lat="44.33173003080616" lon="9.930455337998216"><ele>154.0</ele><time>2026-05-02T09:02:24.999Z</time></trkpt><trkpt lat="44.33177368934443" lon="9.93038449137189"><ele>154.0</ele><time>2026-05-02T09:02:25.999Z</time></trkpt><trkpt lat="44.33181823959002" lon="9.93032149839869"><ele>154.0</ele><time>2026-05-02T09:02:26.999Z</time></trkpt><trkpt lat="44.33192317901811" lon="9.930257678706992"><ele>154.0</ele><time>2026-05-02T09:02:28.999Z</time></trkpt><trkpt lat="44.332019190678146" lon="9.930151898113426"><ele>154.0</ele><time>2026-05-02T09:02:30.999Z</time></trkpt><trkpt lat="44.33203576238075" lon="9.930047336402126"><ele>154.0</ele><time>2026-05-02T09:02:31.999Z</time></trkpt><trkpt lat="44.33204843170707" lon="9.929897065732764"><ele>154.0</ele><time>2026-05-02T09:02:32.999Z</time></trkpt><trkpt lat="44.33208345023443" lon="9.929712427099892"><ele>154.0</ele><time>2026-05-02T09:02:33.999Z</time></trkpt><trkpt lat="44.332169299742375" lon="9.929514365276926"><ele>155.66666666666669</ele><time>2026-05-02T09:02:34.999Z</time></trkpt><trkpt lat="44.33228363052317" lon="9.929310629232228"><ele>157.33333333333334</ele><time>2026-05-02T09:02:35.999Z</time></trkpt><trkpt lat="44.33238672805344" lon="9.929093808536498"><ele>159.0</ele><time>2026-05-02T09:02:36.999Z</time></trkpt><trkpt lat="44.3324763088487" lon="9.92886813813005"><ele>159.0</ele><time>2026-05-02T09:02:37.999Z</time></trkpt><trkpt lat="44.332563994531554" lon="9.928637188896749"><ele>159.0</ele><time>2026-05-02T09:02:38.999Z</time></trkpt><trkpt lat="44.33264768806895" lon="9.928390164592308"><ele>159.0</ele><time>2026-05-02T09:02:39.999Z</time></trkpt><trkpt lat="44.33273273013731" lon="9.928146342469992"><ele>158.66666666666666</ele><time>2026-05-02T09:02:40.999Z</time></trkpt><trkpt lat="44.332821339556965" lon="9.927927749725395"><ele>158.33333333333331</ele><time>2026-05-02T09:02:41.999Z</time></trkpt><trkpt lat="44.33289908671466" lon="9.927719382127448"><ele>158.0</ele><time>2026-05-02T09:02:42.999Z</time></trkpt><trkpt lat="44.332970021046606" lon="9.927516952187478"><ele>157.5</ele><time>2026-05-02T09:02:43.999Z</time></trkpt><trkpt lat="44.33301962587147" lon="9.927317039993502"><ele>157.0</ele><time>2026-05-02T09:02:44.999Z</time></trkpt><trkpt lat="44.33303754572102" lon="9.927119419444429"><ele>156.5</ele><time>2026-05-02T09:02:45.999Z</time></trkpt><trkpt lat="44.33303994580303" lon="9.92692284484924"><ele>156.0</ele><time>2026-05-02T09:02:46.998Z</time></trkpt><trkpt lat="44.33303603213692" lon="9.926723284316628"><ele>157.33333333333334</ele><time>2026-05-02T09:02:47.998Z</time></trkpt><trkpt lat="44.33305659944955" lon="9.926515851394322"><ele>158.66666666666669</ele><time>2026-05-02T09:02:48.998Z</time></trkpt><trkpt lat="44.3330657836568" lon="9.926285051259864"><ele>160.0</ele><time>2026-05-02T09:02:49.998Z</time></trkpt><trkpt lat="44.333076246751865" lon="9.926056638971344"><ele>160.0</ele><time>2026-05-02T09:02:50.998Z</time></trkpt><trkpt lat="44.33308925694489" lon="9.925830970026816"><ele>160.0</ele><time>2026-05-02T09:02:51.998Z</time></trkpt><trkpt lat="44.3331021597311" lon="9.925608394976049"><ele>160.0</ele><time>2026-05-02T09:02:52.998Z</time></trkpt><trkpt lat="44.33313624703283" lon="9.92539223256645"><ele>160.0</ele><time>2026-05-02T09:02:53.998Z</time></trkpt><trkpt lat="44.333190093632304" lon="9.925178562478578"><ele>160.0</ele><time>2026-05-02T09:02:54.998Z</time></trkpt><trkpt lat="44.333266449390294" lon="9.924965797785196"><ele>160.0</ele><time>2026-05-02T09:02:55.998Z</time></trkpt><trkpt lat="44.333359611149035" lon="9.9247567654971"><ele>160.0</ele><time>2026-05-02T09:02:56.998Z</time></trkpt><trkpt lat="44.33344863194716" lon="9.924546141473467"><ele>160.0</ele><time>2026-05-02T09:02:57.998Z</time></trkpt><trkpt lat="44.3335292413638" lon="9.924335169079317"><ele>160.0</ele><time>2026-05-02T09:02:58.998Z</time></trkpt><trkpt lat="44.33360285936901" lon="9.924140775099978"><ele>160.0</ele><time>2026-05-02T09:03:00Z</time></trkpt><trkpt lat="44.333671879098624" lon="9.923949075978022"><ele>160.0</ele><time>2026-05-02T09:03:01Z</time></trkpt><trkpt lat="44.33373252735709" lon="9.923773322364973"><ele>160.0</ele><time>2026-05-02T09:03:02Z</time></trkpt><trkpt lat="44.333788634148625" lon="9.923598230568638"><ele>160.0</ele><time>2026-05-02T09:03:03Z</time></trkpt><trkpt lat="44.333863279226605" lon="9.92343942901179"><ele>161.33333333333334</ele><time>2026-05-02T09:03:04Z</time></trkpt><trkpt lat="44.33397638205441" lon="9.92329401759188"><ele>162.66666666666666</ele><time>2026-05-02T09:03:05Z</time></trkpt><trkpt lat="44.33411263869085" lon="9.923150306459931"><ele>164.0</ele><time>2026-05-02T09:03:06Z</time></trkpt><trkpt lat="44.33424265666837" lon="9.92298508541586"><ele>164.0</ele><time>2026-05-02T09:03:07Z</time></trkpt><trkpt lat="44.33436477354312" lon="9.922804238551294"><ele>164.0</ele><time>2026-05-02T09:03:08Z</time></trkpt><trkpt lat="44.33448349395792" lon="9.922615970909797"><ele>164.0</ele><time>2026-05-02T09:03:09Z</time></trkpt><trkpt lat="44.334599458889635" lon="9.922424932660817"><ele>164.0</ele><time>2026-05-02T09:03:10Z</time></trkpt><trkpt lat="44.33471661466039" lon="9.922236852412125"><ele>164.0</ele><time>2026-05-02T09:03:11Z</time></trkpt><trkpt lat="44.33483316382963" lon="9.922051706381854"><ele>164.0</ele><time>2026-05-02T09:03:12Z</time></trkpt><trkpt lat="44.33494956972094" lon="9.92186631053912"><ele>164.0</ele><time>2026-05-02T09:03:13Z</time></trkpt><trkpt lat="44.335067508554594" lon="9.921681824634216"><ele>164.0</ele><time>2026-05-02T09:03:14Z</time></trkpt><trkpt lat="44.33517992765404" lon="9.921498842394055"><ele>164.0</ele><time>2026-05-02T09:03:15Z</time></trkpt><trkpt lat="44.335291959065266" lon="9.921316390315065"><ele>164.0</ele><time>2026-05-02T09:03:16Z</time></trkpt><trkpt lat="44.33540472362874" lon="9.921130827358803"><ele>164.0</ele><time>2026-05-02T09:03:17Z</time></trkpt><trkpt lat="44.3355178540306" lon="9.920930066334439"><ele>164.0</ele><time>2026-05-02T09:03:18Z</time></trkpt><trkpt lat="44.33562304361933" lon="9.920711203512324"><ele>164.0</ele><time>2026-05-02T09:03:19Z</time></trkpt><trkpt lat="44.335718089583885" lon="9.92047526959478"><ele>164.0</ele><time>2026-05-02T09:03:20Z</time></trkpt><trkpt lat="44.33580500396254" lon="9.920230692988714"><ele>164.0</ele><time>2026-05-02T09:03:21Z</time></trkpt><trkpt lat="44.335890497821005" lon="9.919975296532378"><ele>163.66666666666666</ele><time>2026-05-02T09:03:22Z</time></trkpt><trkpt lat="44.335976865561186" lon="9.919719744222654"><ele>163.33333333333334</ele><time>2026-05-02T09:03:23Z</time></trkpt><trkpt lat="44.33606528092858" lon="9.91946133660504"><ele>163.0</ele><time>2026-05-02T09:03:24Z</time></trkpt><trkpt lat="44.33615354210862" lon="9.91920112752037"><ele>163.0</ele><time>2026-05-02T09:03:25Z</time></trkpt><trkpt lat="44.336240619473955" lon="9.918939746291487"><ele>163.0</ele><time>2026-05-02T09:03:26Z</time></trkpt><trkpt lat="44.33632782181724" lon="9.91867920369822"><ele>163.0</ele><time>2026-05-02T09:03:27Z</time></trkpt><trkpt lat="44.33641583084628" lon="9.918424112581357"><ele>163.33333333333334</ele><time>2026-05-02T09:03:28Z</time></trkpt><trkpt lat="44.3365058882638" lon="9.918162254712785"><ele>163.66666666666666</ele><time>2026-05-02T09:03:29Z</time></trkpt><trkpt lat="44.33659335022162" lon="9.917905320724332"><ele>164.0</ele><time>2026-05-02T09:03:30Z</time></trkpt><trkpt lat="44.33668057908109" lon="9.91764185529731"><ele>164.33333333333331</ele><time>2026-05-02T09:03:31Z</time></trkpt><trkpt lat="44.33676527153403" lon="9.91738189327888"><ele>164.66666666666666</ele><time>2026-05-02T09:03:32Z</time></trkpt><trkpt lat="44.33684738663855" lon="9.917129389813429"><ele>165.0</ele><time>2026-05-02T09:03:33Z</time></trkpt><trkpt lat="44.33693115249365" lon="9.916883772468372"><ele>165.33333333333334</ele><time>2026-05-02T09:03:34Z</time></trkpt><trkpt lat="44.33701052085268" lon="9.916652436234894"><ele>165.66666666666669</ele><time>2026-05-02T09:03:35Z</time></trkpt><trkpt lat="44.337098502219966" lon="9.916411208630146"><ele>166.0</ele><time>2026-05-02T09:03:36Z</time></trkpt><trkpt lat="44.33719278555445" lon="9.916185208138382"><ele>167.0</ele><time>2026-05-02T09:03:37Z</time></trkpt><trkpt lat="44.337298959272864" lon="9.915969239338931"><ele>168.0</ele><time>2026-05-02T09:03:38Z</time></trkpt><trkpt lat="44.33740374407445" lon="9.915771765946282"><ele>169.0</ele><time>2026-05-02T09:03:39Z</time></trkpt><trkpt lat="44.337508199682546" lon="9.915578903086962"><ele>169.0</ele><time>2026-05-02T09:03:40Z</time></trkpt><trkpt lat="44.33761161270057" lon="9.915391663189906"><ele>169.0</ele><time>2026-05-02T09:03:41Z</time></trkpt><trkpt lat="44.33772096345734" lon="9.915200809317554"><ele>169.0</ele><time>2026-05-02T09:03:41.999Z</time></trkpt><trkpt lat="44.33783118941141" lon="9.915001882407736"><ele>169.33333333333334</ele><time>2026-05-02T09:03:42.999Z</time></trkpt><trkpt lat="44.33793931447499" lon="9.91480811373423"><ele>169.66666666666666</ele><time>2026-05-02T09:03:43.999Z</time></trkpt><trkpt lat="44.33804178350936" lon="9.914624236067398"><ele>170.0</ele><time>2026-05-02T09:03:44.999Z</time></trkpt><trkpt lat="44.33813418647114" lon="9.914457411504957"><ele>171.0</ele><time>2026-05-02T09:03:45.999Z</time></trkpt><trkpt lat="44.33822066966571" lon="9.9143026752531"><ele>172.0</ele><time>2026-05-02T09:03:46.999Z</time></trkpt><trkpt lat="44.33829720460014" lon="9.91416548225587"><ele>173.0</ele><time>2026-05-02T09:03:47.999Z</time></trkpt><trkpt lat="44.33836337176511" lon="9.914026991235254"><ele>174.0</ele><time>2026-05-02T09:03:48.999Z</time></trkpt><trkpt lat="44.33844031929769" lon="9.913889593532645"><ele>174.25</ele><time>2026-05-02T09:03:49.999Z</time></trkpt><trkpt lat="44.33852212677088" lon="9.913748956853432"><ele>174.5</ele><time>2026-05-02T09:03:50.999Z</time></trkpt><trkpt lat="44.33859629505189" lon="9.913615794274229"><ele>174.75</ele><time>2026-05-02T09:03:51.999Z</time></trkpt><trkpt lat="44.33866427711825" lon="9.913500331029349"><ele>175.0</ele><time>2026-05-02T09:03:52.999Z</time></trkpt><trkpt lat="44.33872656621873" lon="9.91338872657187"><ele>175.0</ele><time>2026-05-02T09:03:53.999Z</time></trkpt><trkpt lat="44.33877103957733" lon="9.91328745892714"><ele>175.0</ele><time>2026-05-02T09:03:54.999Z</time></trkpt><trkpt lat="44.33886142415682" lon="9.913147803986762"><ele>175.0</ele><time>2026-05-02T09:03:55.999Z</time></trkpt><trkpt lat="44.33893304672447" lon="9.913024923019389"><ele>175.0</ele><time>2026-05-02T09:03:56.999Z</time></trkpt><trkpt lat="44.33899946512365" lon="9.912899103651688"><ele>175.0</ele><time>2026-05-02T09:03:57.999Z</time></trkpt><trkpt lat="44.33907239753406" lon="9.912782279496046"><ele>176.25</ele><time>2026-05-02T09:03:58.999Z</time></trkpt><trkpt lat="44.339148779998325" lon="9.912666809493853"><ele>177.5</ele><time>2026-05-02T09:03:59.999Z</time></trkpt><trkpt lat="44.33923872651372" lon="9.91254682611585"><ele>178.75</ele><time>2026-05-02T09:04:00.999Z</time></trkpt><trkpt lat="44.33934186260769" lon="9.912432684638324"><ele>180.0</ele><time>2026-05-02T09:04:01.999Z</time></trkpt><trkpt lat="44.33944805724084" lon="9.912328206169796"><ele>180.0</ele><time>2026-05-02T09:04:02.999Z</time></trkpt><trkpt lat="44.33956601853889" lon="9.912209530046937"><ele>180.0</ele><time>2026-05-02T09:04:03.999Z</time></trkpt><trkpt lat="44.33972295817642" lon="9.912066946373548"><ele>180.0</ele><time>2026-05-02T09:04:04.999Z</time></trkpt><trkpt lat="44.339869027205" lon="9.911965359458199"><ele>180.66666666666666</ele><time>2026-05-02T09:04:05.999Z</time></trkpt><trkpt lat="44.340003010218574" lon="9.911867538177425"><ele>181.33333333333331</ele><time>2026-05-02T09:04:06.999Z</time></trkpt><trkpt lat="44.34014198948346" lon="9.911760384170067"><ele>182.0</ele><time>2026-05-02T09:04:07.999Z</time></trkpt><trkpt lat="44.340310627190405" lon="9.911646573583544"><ele>182.0</ele><time>2026-05-02T09:04:08.999Z</time></trkpt><trkpt lat="44.3405094527907" lon="9.911552948838347"><ele>182.0</ele><time>2026-05-02T09:04:09.999Z</time></trkpt><trkpt lat="44.340706786147564" lon="9.91147714995345"><ele>182.0</ele><time>2026-05-02T09:04:10.999Z</time></trkpt><trkpt lat="44.34090316270687" lon="9.911389387034216"><ele>182.0</ele><time>2026-05-02T09:04:11.999Z</time></trkpt><trkpt lat="44.34110045707296" lon="9.911307186637982"><ele>182.0</ele><time>2026-05-02T09:04:12.999Z</time></trkpt><trkpt lat="44.341298776670484" lon="9.911243522520218"><ele>182.0</ele><time>2026-05-02T09:04:13.999Z</time></trkpt><trkpt lat="44.34149981555742" lon="9.911198666407325"><ele>182.0</ele><time>2026-05-02T09:04:14.999Z</time></trkpt><trkpt lat="44.34170711513272" lon="9.911169253073991"><ele>182.0</ele><time>2026-05-02T09:04:15.999Z</time></trkpt><trkpt lat="44.34190646485314" lon="9.911146168677897"><ele>182.0</ele><time>2026-05-02T09:04:16.999Z</time></trkpt><trkpt lat="44.34209932025509" lon="9.911137083471768"><ele>182.66666666666666</ele><time>2026-05-02T09:04:17.999Z</time></trkpt><trkpt lat="44.34229626025558" lon="9.911131228740302"><ele>183.33333333333334</ele><time>2026-05-02T09:04:18.999Z</time></trkpt><trkpt lat="44.34249932041619" lon="9.91115087339489"><ele>184.0</ele><time>2026-05-02T09:04:19.999Z</time></trkpt><trkpt lat="44.34270511979763" lon="9.911191406114913"><ele>184.0</ele><time>2026-05-02T09:04:20.999Z</time></trkpt><trkpt lat="44.34291609551739" lon="9.911249869015597"><ele>184.0</ele><time>2026-05-02T09:04:21.999Z</time></trkpt><trkpt lat="44.34312699062299" lon="9.911314733424039"><ele>184.0</ele><time>2026-05-02T09:04:22.999Z</time></trkpt><trkpt lat="44.34333434002117" lon="9.911383731269671"><ele>184.0</ele><time>2026-05-02T09:04:23.999Z</time></trkpt><trkpt lat="44.343534337927544" lon="9.911446395657293"><ele>184.0</ele><time>2026-05-02T09:04:24.999Z</time></trkpt><trkpt lat="44.34373511540427" lon="9.911504880842594"><ele>184.0</ele><time>2026-05-02T09:04:25.999Z</time></trkpt><trkpt lat="44.34392941402814" lon="9.911568279584314"><ele>185.0</ele><time>2026-05-02T09:04:26.999Z</time></trkpt><trkpt lat="44.3441196955997" lon="9.911626932069762"><ele>186.0</ele><time>2026-05-02T09:04:27.999Z</time></trkpt><trkpt lat="44.34430686168094" lon="9.911679421433563"><ele>187.0</ele><time>2026-05-02T09:04:28.999Z</time></trkpt><trkpt lat="44.34448177228949" lon="9.911725779413707"><ele>187.66666666666669</ele><time>2026-05-02T09:04:29.999Z</time></trkpt><trkpt lat="44.34465140843507" lon="9.911772025788617"><ele>188.33333333333334</ele><time>2026-05-02T09:04:30.999Z</time></trkpt><trkpt lat="44.34481493981753" lon="9.911801685293659"><ele>189.0</ele><time>2026-05-02T09:04:31.999Z</time></trkpt><trkpt lat="44.34497524986429" lon="9.911811961679925"><ele>189.33333333333334</ele><time>2026-05-02T09:04:32.999Z</time></trkpt><trkpt lat="44.345135976477195" lon="9.91180464757524"><ele>189.66666666666669</ele><time>2026-05-02T09:04:33.999Z</time></trkpt><trkpt lat="44.34528441419011" lon="9.911792586967302"><ele>190.0</ele><time>2026-05-02T09:04:34.999Z</time></trkpt><trkpt lat="44.345431699756745" lon="9.911781650593326"><ele>190.66666666666669</ele><time>2026-05-02T09:04:35.999Z</time></trkpt><trkpt lat="44.34558890292851" lon="9.911766882805242"><ele>191.33333333333334</ele><time>2026-05-02T09:04:36.999Z</time></trkpt><trkpt lat="44.34575522701853" lon="9.91174962138547"><ele>192.0</ele><time>2026-05-02T09:04:37.999Z</time></trkpt><trkpt lat="44.34592391788831" lon="9.911728504193084"><ele>190.66666666666666</ele><time>2026-05-02T09:04:38.999Z</time></trkpt><trkpt lat="44.346087703496686" lon="9.911684923712786"><ele>189.33333333333331</ele><time>2026-05-02T09:04:39.999Z</time></trkpt><trkpt lat="44.34623640721459" lon="9.911625139684183"><ele>188.0</ele><time>2026-05-02T09:04:40.999Z</time></trkpt><trkpt lat="44.34637189590049" lon="9.911544984864204"><ele>189.0</ele><time>2026-05-02T09:04:41.999Z</time></trkpt><trkpt lat="44.34649710905194" lon="9.911446218015413"><ele>190.0</ele><time>2026-05-02T09:04:42.999Z</time></trkpt><trkpt lat="44.34662499125436" lon="9.911320603055698"><ele>191.0</ele><time>2026-05-02T09:04:43.999Z</time></trkpt><trkpt lat="44.346753275089874" lon="9.911175375929146"><ele>191.0</ele><time>2026-05-02T09:04:44.999Z</time></trkpt><trkpt lat="44.346873212512584" lon="9.911006486186219"><ele>191.0</ele><time>2026-05-02T09:04:45.999Z</time></trkpt><trkpt lat="44.34698416396993" lon="9.910810448900804"><ele>191.0</ele><time>2026-05-02T09:04:46.999Z</time></trkpt><trkpt lat="44.34708453440227" lon="9.910602274588491"><ele>189.33333333333331</ele><time>2026-05-02T09:04:47.999Z</time></trkpt><trkpt lat="44.34718490701864" lon="9.9103963368316"><ele>187.66666666666666</ele><time>2026-05-02T09:04:48.999Z</time></trkpt><trkpt lat="44.347283862802755" lon="9.910197065826573"><ele>186.0</ele><time>2026-05-02T09:04:49.999Z</time></trkpt><trkpt lat="44.34738383271372" lon="9.910006638991963"><ele>185.33333333333334</ele><time>2026-05-02T09:04:50.999Z</time></trkpt><trkpt lat="44.347486969996694" lon="9.90981096453461"><ele>184.66666666666669</ele><time>2026-05-02T09:04:51.998Z</time></trkpt><trkpt lat="44.34759420334591" lon="9.909611697992561"><ele>184.0</ele><time>2026-05-02T09:04:52.998Z</time></trkpt><trkpt lat="44.34770105774064" lon="9.909401035352728"><ele>184.0</ele><time>2026-05-02T09:04:53.998Z</time></trkpt><trkpt lat="44.34781352328591" lon="9.909207562568769"><ele>184.0</ele><time>2026-05-02T09:04:54.998Z</time></trkpt><trkpt lat="44.34792737875451" lon="9.909013758111128"><ele>184.0</ele><time>2026-05-02T09:04:55.998Z</time></trkpt><trkpt lat="44.34803906559673" lon="9.908824719850944"><ele>184.0</ele><time>2026-05-02T09:04:56.998Z</time></trkpt><trkpt lat="44.34815099030996" lon="9.908657398968346"><ele>184.0</ele><time>2026-05-02T09:04:57.998Z</time></trkpt><trkpt lat="44.34826613077299" lon="9.908501084929858"><ele>184.0</ele><time>2026-05-02T09:04:58.998Z</time></trkpt><trkpt lat="44.348364557789175" lon="9.908365547240834"><ele>184.0</ele><time>2026-05-02T09:04:59.998Z</time></trkpt><trkpt lat="44.34844734695953" lon="9.908308746529578"><ele>184.0</ele><time>2026-05-02T09:05:00.998Z</time></trkpt><trkpt lat="44.34853689367879" lon="9.908205875316192"><ele>184.0</ele><time>2026-05-02T09:05:01.998Z</time></trkpt><trkpt lat="44.34863461049777" lon="9.90810277291398"><ele>184.0</ele><time>2026-05-02T09:05:02.998Z</time></trkpt><trkpt lat="44.34873168923871" lon="9.908001693155514"><ele>184.0</ele><time>2026-05-02T09:05:03.998Z</time></trkpt><trkpt lat="44.3488301669069" lon="9.907919809949872"><ele>184.0</ele><time>2026-05-02T09:05:04.998Z</time></trkpt><trkpt lat="44.3489314528775" lon="9.907840667298412"><ele>184.0</ele><time>2026-05-02T09:05:06Z</time></trkpt><trkpt lat="44.34902831965768" lon="9.907763139073861"><ele>184.0</ele><time>2026-05-02T09:05:07Z</time></trkpt><trkpt lat="44.34913129413214" lon="9.907684770242097"><ele>184.5</ele><time>2026-05-02T09:05:08Z</time></trkpt><trkpt lat="44.349233730996275" lon="9.907603587759084"><ele>185.0</ele><time>2026-05-02T09:05:09Z</time></trkpt><trkpt lat="44.34933362754291" lon="9.907529507125899"><ele>185.5</ele><time>2026-05-02T09:05:10Z</time></trkpt><trkpt lat="44.349432773299654" lon="9.907451571738992"><ele>186.0</ele><time>2026-05-02T09:05:11Z</time></trkpt><trkpt lat="44.349534862723345" lon="9.907372790967662"><ele>186.0</ele><time>2026-05-02T09:05:12Z</time></trkpt><trkpt lat="44.34964737010092" lon="9.907307035336295"><ele>186.0</ele><time>2026-05-02T09:05:13Z</time></trkpt><trkpt lat="44.34975513666865" lon="9.907240410944526"><ele>186.0</ele><time>2026-05-02T09:05:14Z</time></trkpt><trkpt lat="44.349866352830645" lon="9.907177912114241"><ele>186.0</ele><time>2026-05-02T09:05:15Z</time></trkpt><trkpt lat="44.34998680244205" lon="9.907122268070426"><ele>186.5</ele><time>2026-05-02T09:05:16Z</time></trkpt><trkpt lat="44.35011793633739" lon="9.907065863888489"><ele>187.0</ele><time>2026-05-02T09:05:17Z</time></trkpt><trkpt lat="44.350256178260366" lon="9.907005106343538"><ele>187.5</ele><time>2026-05-02T09:05:18Z</time></trkpt><trkpt lat="44.35040866018233" lon="9.90694153315171"><ele>188.0</ele><time>2026-05-02T09:05:19Z</time></trkpt><trkpt lat="44.350567539481496" lon="9.906885939095949"><ele>188.33333333333331</ele><time>2026-05-02T09:05:20Z</time></trkpt><trkpt lat="44.35073086823706" lon="9.906827705694566"><ele>188.66666666666666</ele><time>2026-05-02T09:05:21Z</time></trkpt><trkpt lat="44.350898735645835" lon="9.906767588450267"><ele>189.0</ele><time>2026-05-02T09:05:22Z</time></trkpt><trkpt lat="44.351074277005935" lon="9.906701529045566"><ele>189.0</ele><time>2026-05-02T09:05:23Z</time></trkpt><trkpt lat="44.351242472693635" lon="9.906630919521929"><ele>189.0</ele><time>2026-05-02T09:05:24Z</time></trkpt><trkpt lat="44.351412716542754" lon="9.906560274010749"><ele>189.0</ele><time>2026-05-02T09:05:25Z</time></trkpt><trkpt lat="44.3515791589711" lon="9.906488963909759"><ele>190.0</ele><time>2026-05-02T09:05:26Z</time></trkpt><trkpt lat="44.35174624247731" lon="9.90641746383713"><ele>191.0</ele><time>2026-05-02T09:05:27Z</time></trkpt><trkpt lat="44.35191597235854" lon="9.906343640388071"><ele>192.0</ele><time>2026-05-02T09:05:28Z</time></trkpt><trkpt lat="44.352085055277556" lon="9.906276582399338"><ele>192.33333333333331</ele><time>2026-05-02T09:05:29Z</time></trkpt><trkpt lat="44.352251965272" lon="9.906204912110429"><ele>192.66666666666666</ele><time>2026-05-02T09:05:30Z</time></trkpt><trkpt lat="44.35241526697535" lon="9.906134552601907"><ele>193.0</ele><time>2026-05-02T09:05:31Z</time></trkpt><trkpt lat="44.35257801519949" lon="9.906050351527607"><ele>193.0</ele><time>2026-05-02T09:05:32Z</time></trkpt><trkpt lat="44.35273213459904" lon="9.90595347661041"><ele>193.0</ele><time>2026-05-02T09:05:33Z</time></trkpt><trkpt lat="44.35288169914782" lon="9.905846282502822"><ele>193.0</ele><time>2026-05-02T09:05:34Z</time></trkpt><trkpt lat="44.35302834063326" lon="9.905730635245652"><ele>194.0</ele><time>2026-05-02T09:05:35Z</time></trkpt><trkpt lat="44.35316919232282" lon="9.905613741496367"><ele>195.0</ele><time>2026-05-02T09:05:36Z</time></trkpt><trkpt lat="44.353314435644414" lon="9.905495086748362"><ele>196.0</ele><time>2026-05-02T09:05:37Z</time></trkpt><trkpt lat="44.35346413978832" lon="9.905374164071985"><ele>196.0</ele><time>2026-05-02T09:05:38Z</time></trkpt><trkpt lat="44.35361544829164" lon="9.905253285193021"><ele>196.0</ele><time>2026-05-02T09:05:39Z</time></trkpt><trkpt lat="44.35376587621122" lon="9.905132738286786"><ele>196.0</ele><time>2026-05-02T09:05:40Z</time></trkpt><trkpt lat="44.35391848294028" lon="9.905007144694162"><ele>196.66666666666666</ele><time>2026-05-02T09:05:41Z</time></trkpt><trkpt lat="44.35406706739967" lon="9.904883233891692"><ele>197.33333333333331</ele><time>2026-05-02T09:05:42Z</time></trkpt><trkpt lat="44.354222501227426" lon="9.904756056677606"><ele>198.0</ele><time>2026-05-02T09:05:43Z</time></trkpt><trkpt lat="44.35437512548824" lon="9.904631058566496"><ele>198.0</ele><time>2026-05-02T09:05:44Z</time></trkpt><trkpt lat="44.3545270442324" lon="9.904503809601273"><ele>198.0</ele><time>2026-05-02T09:05:45Z</time></trkpt><trkpt lat="44.354672010042506" lon="9.904384355341293"><ele>198.0</ele><time>2026-05-02T09:05:46Z</time></trkpt><trkpt lat="44.3548262149892" lon="9.904265765467668"><ele>198.33333333333331</ele><time>2026-05-02T09:05:47Z</time></trkpt><trkpt lat="44.35497248397194" lon="9.904140009460939"><ele>198.66666666666666</ele><time>2026-05-02T09:05:48Z</time></trkpt><trkpt lat="44.355121377374225" lon="9.904019910880445"><ele>199.0</ele><time>2026-05-02T09:05:48.999Z</time></trkpt><trkpt lat="44.35526736994535" lon="9.903902057890443"><ele>199.0</ele><time>2026-05-02T09:05:49.999Z</time></trkpt><trkpt lat="44.355409433967324" lon="9.903788548019579"><ele>199.0</ele><time>2026-05-02T09:05:50.999Z</time></trkpt><trkpt lat="44.35554988291225" lon="9.903678430476624"><ele>199.0</ele><time>2026-05-02T09:05:51.999Z</time></trkpt><trkpt lat="44.35569797572008" lon="9.903580337480628"><ele>198.66666666666666</ele><time>2026-05-02T09:05:52.999Z</time></trkpt><trkpt lat="44.35585012528302" lon="9.903497137315194"><ele>198.33333333333331</ele><time>2026-05-02T09:05:53.999Z</time></trkpt><trkpt lat="44.35600035347222" lon="9.90341414249541"><ele>198.0</ele><time>2026-05-02T09:05:54.999Z</time></trkpt><trkpt lat="44.35615361183681" lon="9.903329617382706"><ele>199.0</ele><time>2026-05-02T09:05:55.999Z</time></trkpt><trkpt lat="44.35631192448356" lon="9.903237498985801"><ele>200.0</ele><time>2026-05-02T09:05:56.999Z</time></trkpt><trkpt lat="44.356467666647866" lon="9.903151137759217"><ele>201.0</ele><time>2026-05-02T09:05:57.999Z</time></trkpt><trkpt lat="44.35662291368206" lon="9.903064912362435"><ele>201.33333333333331</ele><time>2026-05-02T09:05:58.999Z</time></trkpt><trkpt lat="44.35676923423473" lon="9.902985474284879"><ele>201.66666666666666</ele><time>2026-05-02T09:05:59.999Z</time></trkpt><trkpt lat="44.35690850113763" lon="9.902905796821003"><ele>202.0</ele><time>2026-05-02T09:06:00.999Z</time></trkpt><trkpt lat="44.357043920872506" lon="9.902830975337805"><ele>202.0</ele><time>2026-05-02T09:06:01.999Z</time></trkpt><trkpt lat="44.3571713863698" lon="9.902759867928754"><ele>202.0</ele><time>2026-05-02T09:06:02.999Z</time></trkpt><trkpt lat="44.357295212254776" lon="9.902694932047895"><ele>202.0</ele><time>2026-05-02T09:06:03.999Z</time></trkpt><trkpt lat="44.35741238026966" lon="9.902632175683264"><ele>202.0</ele><time>2026-05-02T09:06:04.999Z</time></trkpt><trkpt lat="44.357524791519566" lon="9.902570557677617"><ele>202.0</ele><time>2026-05-02T09:06:05.999Z</time></trkpt><trkpt lat="44.357631850274494" lon="9.902509531758692"><ele>202.0</ele><time>2026-05-02T09:06:06.999Z</time></trkpt><trkpt lat="44.35773147224313" lon="9.902444126875356"><ele>202.0</ele><time>2026-05-02T09:06:07.999Z</time></trkpt><trkpt lat="44.35782391622434" lon="9.902377949326866"><ele>202.0</ele><time>2026-05-02T09:06:08.999Z</time></trkpt><trkpt lat="44.35790020841173" lon="9.902317561111817"><ele>202.0</ele><time>2026-05-02T09:06:09.999Z</time></trkpt><trkpt lat="44.35796367840545" lon="9.902273155110432"><ele>202.2</ele><time>2026-05-02T09:06:10.999Z</time></trkpt><trkpt lat="44.358049011519924" lon="9.902233266047904"><ele>202.39999999999998</ele><time>2026-05-02T09:06:12.999Z</time></trkpt><trkpt lat="44.35807290929539" lon="9.902151434251044"><ele>202.60000000000002</ele><time>2026-05-02T09:06:47.999Z</time></trkpt><trkpt lat="44.35816632880505" lon="9.902027931880921"><ele>202.8</ele><time>2026-05-02T09:06:49.999Z</time></trkpt><trkpt lat="44.35823610677543" lon="9.901955132304895"><ele>203.0</ele><time>2026-05-02T09:06:50.999Z</time></trkpt><trkpt lat="44.35831084474853" lon="9.90187382772928"><ele>203.0</ele><time>2026-05-02T09:06:51.999Z</time></trkpt><trkpt lat="44.3583893472357" lon="9.901779307612228"><ele>203.0</ele><time>2026-05-02T09:06:52.999Z</time></trkpt><trkpt lat="44.35848170495617" lon="9.901668432093683"><ele>203.0</ele><time>2026-05-02T09:06:53.999Z</time></trkpt><trkpt lat="44.35857526791236" lon="9.901559887725512"><ele>203.0</ele><time>2026-05-02T09:06:54.999Z</time></trkpt><trkpt lat="44.3586618971306" lon="9.901464221872828"><ele>203.0</ele><time>2026-05-02T09:06:55.999Z</time></trkpt><trkpt lat="44.35874481379877" lon="9.901372049002568"><ele>203.0</ele><time>2026-05-02T09:06:56.999Z</time></trkpt><trkpt lat="44.358833797994826" lon="9.90126925171495"><ele>203.0</ele><time>2026-05-02T09:06:57.999Z</time></trkpt><trkpt lat="44.35892201968921" lon="9.901162110475015"><ele>203.0</ele><time>2026-05-02T09:06:58.999Z</time></trkpt><trkpt lat="44.359013987214745" lon="9.901053288690601"><ele>203.0</ele><time>2026-05-02T09:06:59.999Z</time></trkpt><trkpt lat="44.35910533227836" lon="9.90094601531885"><ele>203.0</ele><time>2026-05-02T09:07:00.999Z</time></trkpt><trkpt lat="44.35919217934097" lon="9.900844838394637"><ele>203.0</ele><time>2026-05-02T09:07:01.999Z</time></trkpt><trkpt lat="44.35928150339068" lon="9.900743898671749"><ele>203.0</ele><time>2026-05-02T09:07:02.998Z</time></trkpt><trkpt lat="44.35937147921637" lon="9.900640938050763"><ele>202.75</ele><time>2026-05-02T09:07:03.998Z</time></trkpt><trkpt lat="44.359463210223616" lon="9.900536114283438"><ele>202.5</ele><time>2026-05-02T09:07:04.998Z</time></trkpt><trkpt lat="44.35954960317552" lon="9.900429878992883"><ele>202.25</ele><time>2026-05-02T09:07:05.998Z</time></trkpt><trkpt lat="44.35963685152558" lon="9.900338767731329"><ele>202.0</ele><time>2026-05-02T09:07:06.998Z</time></trkpt><trkpt lat="44.3597241822793" lon="9.90024373000171"><ele>202.39999999999998</ele><time>2026-05-02T09:07:07.998Z</time></trkpt><trkpt lat="44.35980974676656" lon="9.900148566237702"><ele>202.79999999999998</ele><time>2026-05-02T09:07:08.998Z</time></trkpt><trkpt lat="44.359893275085916" lon="9.900051918288268"><ele>203.2</ele><time>2026-05-02T09:07:09.998Z</time></trkpt><trkpt lat="44.35997639434397" lon="9.899958051615947"><ele>203.6</ele><time>2026-05-02T09:07:10.998Z</time></trkpt><trkpt lat="44.360056732203766" lon="9.899864136660856"><ele>204.0</ele><time>2026-05-02T09:07:12Z</time></trkpt><trkpt lat="44.360135853669554" lon="9.899772075350974"><ele>204.0</ele><time>2026-05-02T09:07:13Z</time></trkpt><trkpt lat="44.36021190672952" lon="9.899685156497592"><ele>204.0</ele><time>2026-05-02T09:07:14Z</time></trkpt><trkpt lat="44.36028730551371" lon="9.899600543155747"><ele>204.0</ele><time>2026-05-02T09:07:15Z</time></trkpt><trkpt lat="44.36036170924507" lon="9.899513875988877"><ele>204.0</ele><time>2026-05-02T09:07:16Z</time></trkpt><trkpt lat="44.36043611261372" lon="9.899429659003973"><ele>204.0</ele><time>2026-05-02T09:07:17Z</time></trkpt><trkpt lat="44.36050175203054" lon="9.899351984388874"><ele>204.39999999999998</ele><time>2026-05-02T09:07:18Z</time></trkpt><trkpt lat="44.36056191838787" lon="9.899280278596128"><ele>204.8</ele><time>2026-05-02T09:07:19Z</time></trkpt><trkpt lat="44.36062592205676" lon="9.89920178507406"><ele>205.2</ele><time>2026-05-02T09:07:20Z</time></trkpt><trkpt lat="44.36070176193393" lon="9.89911513554367"><ele>205.60000000000002</ele><time>2026-05-02T09:07:21Z</time></trkpt><trkpt lat="44.360786447790446" lon="9.899024410938418"><ele>206.0</ele><time>2026-05-02T09:07:22Z</time></trkpt><trkpt lat="44.36087384892735" lon="9.898922712898274"><ele>206.0</ele><time>2026-05-02T09:07:23Z</time></trkpt><trkpt lat="44.3609651864265" lon="9.89881457942058"><ele>206.0</ele><time>2026-05-02T09:07:24Z</time></trkpt><trkpt lat="44.36105627162662" lon="9.898707385633216"><ele>206.0</ele><time>2026-05-02T09:07:25Z</time></trkpt><trkpt lat="44.36115024606022" lon="9.898599423718057"><ele>206.0</ele><time>2026-05-02T09:07:26Z</time></trkpt><trkpt lat="44.361241815240945" lon="9.898495883801262"><ele>206.0</ele><time>2026-05-02T09:07:27Z</time></trkpt><trkpt lat="44.36133808181098" lon="9.898389646304958"><ele>206.0</ele><time>2026-05-02T09:07:28Z</time></trkpt><trkpt lat="44.36143839084716" lon="9.89827654444709"><ele>206.0</ele><time>2026-05-02T09:07:29Z</time></trkpt><trkpt lat="44.361525001432504" lon="9.89817915292809"><ele>206.0</ele><time>2026-05-02T09:07:30Z</time></trkpt><trkpt lat="44.36162531673189" lon="9.898062723564813"><ele>206.25</ele><time>2026-05-02T09:07:31Z</time></trkpt><trkpt lat="44.36172955643545" lon="9.89794608583228"><ele>206.5</ele><time>2026-05-02T09:07:32Z</time></trkpt><trkpt lat="44.36183486588247" lon="9.897825486917442"><ele>206.75</ele><time>2026-05-02T09:07:33Z</time></trkpt><trkpt lat="44.36194494307768" lon="9.897696396110172"><ele>207.0</ele><time>2026-05-02T09:07:34Z</time></trkpt><trkpt lat="44.362060421709856" lon="9.897563701388936"><ele>207.0</ele><time>2026-05-02T09:07:35Z</time></trkpt><trkpt lat="44.36217474248989" lon="9.897426431336912"><ele>207.0</ele><time>2026-05-02T09:07:36Z</time></trkpt><trkpt lat="44.36229678414935" lon="9.897287143382844"><ele>207.0</ele><time>2026-05-02T09:07:37Z</time></trkpt><trkpt lat="44.36242128307142" lon="9.897142854955861"><ele>207.66666666666669</ele><time>2026-05-02T09:07:38Z</time></trkpt><trkpt lat="44.36254548718678" lon="9.897001007576696"><ele>208.33333333333334</ele><time>2026-05-02T09:07:39Z</time></trkpt><trkpt lat="44.362669997445735" lon="9.896856617889302"><ele>209.0</ele><time>2026-05-02T09:07:40Z</time></trkpt><trkpt lat="44.36279860312956" lon="9.896713039949057"><ele>209.66666666666669</ele><time>2026-05-02T09:07:41Z</time></trkpt><trkpt lat="44.36292663557928" lon="9.89656917220473"><ele>210.33333333333331</ele><time>2026-05-02T09:07:42Z</time></trkpt><trkpt lat="44.363050227989184" lon="9.896427318375437"><ele>211.0</ele><time>2026-05-02T09:07:43Z</time></trkpt><trkpt lat="44.36317244227521" lon="9.896293731491685"><ele>211.0</ele><time>2026-05-02T09:07:44Z</time></trkpt><trkpt lat="44.363296150136755" lon="9.896153394801319"><ele>211.0</ele><time>2026-05-02T09:07:45Z</time></trkpt><trkpt lat="44.36341155175801" lon="9.895990099144942"><ele>211.0</ele><time>2026-05-02T09:07:45.999Z</time></trkpt><trkpt lat="44.36350537162547" lon="9.895793455441963"><ele>209.66666666666666</ele><time>2026-05-02T09:07:46.999Z</time></trkpt><trkpt lat="44.36358665882594" lon="9.89558189557568"><ele>208.33333333333331</ele><time>2026-05-02T09:07:47.999Z</time></trkpt><trkpt lat="44.363673252066" lon="9.895376805301133"><ele>207.0</ele><time>2026-05-02T09:07:48.999Z</time></trkpt><trkpt lat="44.363757500519256" lon="9.895171100315997"><ele>207.33333333333331</ele><time>2026-05-02T09:07:49.999Z</time></trkpt><trkpt lat="44.36384107095863" lon="9.894964655321282"><ele>207.66666666666666</ele><time>2026-05-02T09:07:50.999Z</time></trkpt><trkpt lat="44.363925410414474" lon="9.894752944001535"><ele>208.0</ele><time>2026-05-02T09:07:51.999Z</time></trkpt><trkpt lat="44.36401746632291" lon="9.894559510681272"><ele>209.33333333333331</ele><time>2026-05-02T09:07:52.999Z</time></trkpt><trkpt lat="44.36410275642551" lon="9.89437145120727"><ele>210.66666666666669</ele><time>2026-05-02T09:07:53.999Z</time></trkpt><trkpt lat="44.36417764856808" lon="9.89418481817375"><ele>212.0</ele><time>2026-05-02T09:07:54.999Z</time></trkpt><trkpt lat="44.36425216532114" lon="9.893983274107931"><ele>212.0</ele><time>2026-05-02T09:07:55.999Z</time></trkpt><trkpt lat="44.364317979446184" lon="9.8937732091162"><ele>212.0</ele><time>2026-05-02T09:07:56.999Z</time></trkpt><trkpt lat="44.364370694745205" lon="9.893563371212286"><ele>212.0</ele><time>2026-05-02T09:07:57.999Z</time></trkpt><trkpt lat="44.364410094562594" lon="9.89335276068507"><ele>211.75</ele><time>2026-05-02T09:07:58.999Z</time></trkpt><trkpt lat="44.36443331434516" lon="9.893153042064503"><ele>211.5</ele><time>2026-05-02T09:07:59.999Z</time></trkpt><trkpt lat="44.36444514073194" lon="9.892952017122118"><ele>211.25</ele><time>2026-05-02T09:08:00.999Z</time></trkpt><trkpt lat="44.3644456771732" lon="9.89276697267006"><ele>211.0</ele><time>2026-05-02T09:08:01.999Z</time></trkpt><trkpt lat="44.36444737897242" lon="9.892584159654309"><ele>211.0</ele><time>2026-05-02T09:08:02.999Z</time></trkpt><trkpt lat="44.36444361997239" lon="9.89240415591872"><ele>211.0</ele><time>2026-05-02T09:08:03.999Z</time></trkpt><trkpt lat="44.3644317951792" lon="9.892214603530608"><ele>211.0</ele><time>2026-05-02T09:08:04.999Z</time></trkpt><trkpt lat="44.364419335874146" lon="9.892006890907956"><ele>211.0</ele><time>2026-05-02T09:08:05.999Z</time></trkpt><trkpt lat="44.36440560602711" lon="9.891786559239899"><ele>211.0</ele><time>2026-05-02T09:08:06.999Z</time></trkpt><trkpt lat="44.36439133196019" lon="9.89157157828915"><ele>211.0</ele><time>2026-05-02T09:08:07.999Z</time></trkpt><trkpt lat="44.36437893933047" lon="9.891370700613635"><ele>211.0</ele><time>2026-05-02T09:08:08.999Z</time></trkpt><trkpt lat="44.364370503167116" lon="9.891172513236901"><ele>211.0</ele><time>2026-05-02T09:08:09.999Z</time></trkpt><trkpt lat="44.36436086745665" lon="9.890976780118072"><ele>211.5</ele><time>2026-05-02T09:08:10.999Z</time></trkpt><trkpt lat="44.36435505194791" lon="9.890782565691893"><ele>212.0</ele><time>2026-05-02T09:08:11.999Z</time></trkpt><trkpt lat="44.36434434172812" lon="9.890590966221204"><ele>212.5</ele><time>2026-05-02T09:08:12.999Z</time></trkpt><trkpt lat="44.364326815768344" lon="9.890403373651191"><ele>213.0</ele><time>2026-05-02T09:08:13.999Z</time></trkpt><trkpt lat="44.36430260885373" lon="9.890219184088155"><ele>213.5</ele><time>2026-05-02T09:08:14.999Z</time></trkpt><trkpt lat="44.36427685524942" lon="9.890043476713698"><ele>214.0</ele><time>2026-05-02T09:08:15.999Z</time></trkpt><trkpt lat="44.3642433623416" lon="9.889885345594196"><ele>214.5</ele><time>2026-05-02T09:08:16.999Z</time></trkpt><trkpt lat="44.36420246030577" lon="9.889737902195067"><ele>215.0</ele><time>2026-05-02T09:08:17.999Z</time></trkpt><trkpt lat="44.36416339502467" lon="9.889587201924353"><ele>215.0</ele><time>2026-05-02T09:08:18.999Z</time></trkpt><trkpt lat="44.364116599245726" lon="9.88942278648132"><ele>215.0</ele><time>2026-05-02T09:08:19.999Z</time></trkpt><trkpt lat="44.36407552645384" lon="9.889255154553442"><ele>215.0</ele><time>2026-05-02T09:08:20.999Z</time></trkpt><trkpt lat="44.36402959654228" lon="9.889090371063979"><ele>215.0</ele><time>2026-05-02T09:08:21.999Z</time></trkpt><trkpt lat="44.36398465236503" lon="9.888917546040702"><ele>214.0</ele><time>2026-05-02T09:08:22.999Z</time></trkpt><trkpt lat="44.36393883582313" lon="9.888769696018741"><ele>213.0</ele><time>2026-05-02T09:08:23.999Z</time></trkpt><trkpt lat="44.363901925005514" lon="9.888613439062718"><ele>212.0</ele><time>2026-05-02T09:08:24.999Z</time></trkpt><trkpt lat="44.3638613998706" lon="9.888473889294936"><ele>211.0</ele><time>2026-05-02T09:08:25.999Z</time></trkpt><trkpt lat="44.36380811190027" lon="9.888339958372288"><ele>211.0</ele><time>2026-05-02T09:08:26.999Z</time></trkpt><trkpt lat="44.36375280673293" lon="9.888209365919545"><ele>211.0</ele><time>2026-05-02T09:08:27.999Z</time></trkpt><trkpt lat="44.363690373392245" lon="9.88810828925479"><ele>211.0</ele><time>2026-05-02T09:08:28.999Z</time></trkpt><trkpt lat="44.36364208157998" lon="9.887980312408853"><ele>211.0</ele><time>2026-05-02T09:08:29.999Z</time></trkpt><trkpt lat="44.36362424888036" lon="9.887836907002459"><ele>211.0</ele><time>2026-05-02T09:08:30.999Z</time></trkpt><trkpt lat="44.36362255144722" lon="9.88767633917578"><ele>211.75</ele><time>2026-05-02T09:08:31.999Z</time></trkpt><trkpt lat="44.36361385699676" lon="9.88751031276095"><ele>212.5</ele><time>2026-05-02T09:08:32.999Z</time></trkpt><trkpt lat="44.36360359126878" lon="9.88734575514839"><ele>213.25</ele><time>2026-05-02T09:08:33.999Z</time></trkpt><trkpt lat="44.36359948857264" lon="9.88717410760446"><ele>214.0</ele><time>2026-05-02T09:08:34.999Z</time></trkpt><trkpt lat="44.3636047596697" lon="9.88700915405966"><ele>214.0</ele><time>2026-05-02T09:08:35.999Z</time></trkpt><trkpt lat="44.36363545768061" lon="9.88685959908603"><ele>214.0</ele><time>2026-05-02T09:08:36.999Z</time></trkpt><trkpt lat="44.36369719896366" lon="9.88672326941593"><ele>214.0</ele><time>2026-05-02T09:08:37.999Z</time></trkpt><trkpt lat="44.36377273082559" lon="9.886593816910766"><ele>214.0</ele><time>2026-05-02T09:08:38.999Z</time></trkpt><trkpt lat="44.36384789028653" lon="9.886466403194005"><ele>218.5</ele><time>2026-05-02T09:08:39.999Z</time></trkpt><trkpt lat="44.36391797007615" lon="9.886330664931423"><ele>223.0</ele><time>2026-05-02T09:08:40.999Z</time></trkpt><trkpt lat="44.36399612011246" lon="9.886203949688545"><ele>227.5</ele><time>2026-05-02T09:08:41.999Z</time></trkpt><trkpt lat="44.36406834519712" lon="9.886075555958435"><ele>232.0</ele><time>2026-05-02T09:08:42.999Z</time></trkpt><trkpt lat="44.364142990905364" lon="9.885943569502883"><ele>230.0</ele><time>2026-05-02T09:08:43.999Z</time></trkpt><trkpt lat="44.36421866201931" lon="9.88581162179618"><ele>228.0</ele><time>2026-05-02T09:08:44.999Z</time></trkpt><trkpt lat="44.36428991962514" lon="9.885671464852226"><ele>226.0</ele><time>2026-05-02T09:08:45.999Z</time></trkpt><trkpt lat="44.3643729728729" lon="9.88553615450012"><ele>224.0</ele><time>2026-05-02T09:08:46.999Z</time></trkpt><trkpt lat="44.36446877363834" lon="9.885400604884822"><ele>224.0</ele><time>2026-05-02T09:08:47.999Z</time></trkpt><trkpt lat="44.36457636139125" lon="9.885278613456205"><ele>224.0</ele><time>2026-05-02T09:08:48.999Z</time></trkpt><trkpt lat="44.36469245040453" lon="9.885180986627576"><ele>224.0</ele><time>2026-05-02T09:08:49.999Z</time></trkpt><trkpt lat="44.364815670352485" lon="9.885106396989807"><ele>224.0</ele><time>2026-05-02T09:08:50.999Z</time></trkpt><trkpt lat="44.36494374601243" lon="9.885056259724847"><ele>223.75</ele><time>2026-05-02T09:08:51.999Z</time></trkpt><trkpt lat="44.36507275306545" lon="9.885010013813284"><ele>223.5</ele><time>2026-05-02T09:08:52.999Z</time></trkpt><trkpt lat="44.36520868965302" lon="9.885032615485727"><ele>223.25</ele><time>2026-05-02T09:08:53.999Z</time></trkpt><trkpt lat="44.36534365888233" lon="9.885037163271296"><ele>223.0</ele><time>2026-05-02T09:08:54.999Z</time></trkpt><trkpt lat="44.365478530009575" lon="9.885041075086797"><ele>224.5</ele><time>2026-05-02T09:08:55.999Z</time></trkpt><trkpt lat="44.365609521473225" lon="9.88507142541322"><ele>226.0</ele><time>2026-05-02T09:08:56.999Z</time></trkpt><trkpt lat="44.36572945611018" lon="9.885100008719698"><ele>227.5</ele><time>2026-05-02T09:08:57.999Z</time></trkpt><trkpt lat="44.36584587177342" lon="9.885121959024211"><ele>229.0</ele><time>2026-05-02T09:08:58.999Z</time></trkpt><trkpt lat="44.36595726907052" lon="9.885136361681045"><ele>233.25</ele><time>2026-05-02T09:08:59.999Z</time></trkpt><trkpt lat="44.366077220815995" lon="9.885171896692773"><ele>237.5</ele><time>2026-05-02T09:09:00.999Z</time></trkpt><trkpt lat="44.366203017489575" lon="9.885196008911809"><ele>241.75</ele><time>2026-05-02T09:09:01.999Z</time></trkpt><trkpt lat="44.36632578834428" lon="9.885193057451268"><ele>246.0</ele><time>2026-05-02T09:09:02.999Z</time></trkpt><trkpt lat="44.36644710813336" lon="9.885191840300646"><ele>246.0</ele><time>2026-05-02T09:09:03.999Z</time></trkpt><trkpt lat="44.36656072937556" lon="9.885193216521502"><ele>246.00000000000003</ele><time>2026-05-02T09:09:04.999Z</time></trkpt><trkpt lat="44.36666816735338" lon="9.885188890669806"><ele>246.00000000000003</ele><time>2026-05-02T09:09:05.999Z</time></trkpt><trkpt lat="44.36677115690569" lon="9.885188700866468"><ele>246.0</ele><time>2026-05-02T09:09:06.998Z</time></trkpt><trkpt lat="44.36687570809442" lon="9.885192082146936"><ele>246.0</ele><time>2026-05-02T09:09:07.998Z</time></trkpt><trkpt lat="44.36697400370719" lon="9.885198097094136"><ele>246.0</ele><time>2026-05-02T09:09:08.998Z</time></trkpt><trkpt lat="44.36707290117314" lon="9.885201317802153"><ele>246.00000000000003</ele><time>2026-05-02T09:09:09.998Z</time></trkpt><trkpt lat="44.36716458532395" lon="9.885203129555657"><ele>246.00000000000003</ele><time>2026-05-02T09:09:10.998Z</time></trkpt><trkpt lat="44.36725605427493" lon="9.885204674951048"><ele>246.0</ele><time>2026-05-02T09:09:11.998Z</time></trkpt><trkpt lat="44.367352127710454" lon="9.885207150411807"><ele>246.0</ele><time>2026-05-02T09:09:12.998Z</time></trkpt><trkpt lat="44.367447246165554" lon="9.885208555693175"><ele>243.5</ele><time>2026-05-02T09:09:13.998Z</time></trkpt><trkpt lat="44.36753952017367" lon="9.885209439758626"><ele>241.0</ele><time>2026-05-02T09:09:14.998Z</time></trkpt><trkpt lat="44.36763164372861" lon="9.885214784093044"><ele>238.5</ele><time>2026-05-02T09:09:15.998Z</time></trkpt><trkpt lat="44.36772252704148" lon="9.88521808934237"><ele>236.0</ele><time>2026-05-02T09:09:16.998Z</time></trkpt><trkpt lat="44.36780664112152" lon="9.88522106188223"><ele>233.5</ele><time>2026-05-02T09:09:18Z</time></trkpt><trkpt lat="44.36788192517509" lon="9.885221553714329"><ele>231.0</ele><time>2026-05-02T09:09:19Z</time></trkpt><trkpt lat="44.367960415593515" lon="9.885228479065685"><ele>230.83333333333334</ele><time>2026-05-02T09:09:20Z</time></trkpt><trkpt lat="44.36804264884067" lon="9.885243783385627"><ele>230.66666666666669</ele><time>2026-05-02T09:09:21Z</time></trkpt><trkpt lat="44.36813538557333" lon="9.88527204633642"><ele>230.5</ele><time>2026-05-02T09:09:22Z</time></trkpt><trkpt lat="44.36821992902833" lon="9.885308223021637"><ele>230.33333333333334</ele><time>2026-05-02T09:09:23Z</time></trkpt><trkpt lat="44.368286788245435" lon="9.885345215450895"><ele>230.16666666666669</ele><time>2026-05-02T09:09:24Z</time></trkpt><trkpt lat="44.36834991207008" lon="9.885377981357186"><ele>230.0</ele><time>2026-05-02T09:09:25Z</time></trkpt><trkpt lat="44.368407470025865" lon="9.885414031968585"><ele>230.0</ele><time>2026-05-02T09:09:26Z</time></trkpt><trkpt lat="44.36851585891572" lon="9.885478150908416"><ele>230.0</ele><time>2026-05-02T09:09:28Z</time></trkpt><trkpt lat="44.36861543592055" lon="9.885545438868053"><ele>230.0</ele><time>2026-05-02T09:09:30Z</time></trkpt><trkpt lat="44.368677638470075" lon="9.885583529777277"><ele>230.0</ele><time>2026-05-02T09:09:31Z</time></trkpt><trkpt lat="44.36876530621626" lon="9.88564230281581"><ele>230.0</ele><time>2026-05-02T09:09:32Z</time></trkpt><trkpt lat="44.36886904223704" lon="9.88571056147507"><ele>230.25</ele><time>2026-05-02T09:09:33Z</time></trkpt><trkpt lat="44.36898442433075" lon="9.88578675801699"><ele>230.5</ele><time>2026-05-02T09:09:34Z</time></trkpt><trkpt lat="44.36909376153455" lon="9.885857921759298"><ele>230.75</ele><time>2026-05-02T09:09:35Z</time></trkpt><trkpt lat="44.36919728935923" lon="9.885922651571606"><ele>231.0</ele><time>2026-05-02T09:09:36Z</time></trkpt><trkpt lat="44.36929333637392" lon="9.885984246935944"><ele>231.0</ele><time>2026-05-02T09:09:37Z</time></trkpt><trkpt lat="44.36938343319512" lon="9.88604492546499"><ele>231.00000000000003</ele><time>2026-05-02T09:09:38Z</time></trkpt><trkpt lat="44.36946844861378" lon="9.886102167917274"><ele>231.00000000000003</ele><time>2026-05-02T09:09:39Z</time></trkpt><trkpt lat="44.369547541137194" lon="9.886156366076385"><ele>231.0</ele><time>2026-05-02T09:09:40Z</time></trkpt><trkpt lat="44.369605744050496" lon="9.886210739732078"><ele>231.0</ele><time>2026-05-02T09:09:41Z</time></trkpt><trkpt lat="44.36971645528318" lon="9.886279441716148"><ele>231.0</ele><time>2026-05-02T09:09:43Z</time></trkpt><trkpt lat="44.36980045715495" lon="9.886337381035013"><ele>231.00000000000003</ele><time>2026-05-02T09:09:44Z</time></trkpt><trkpt lat="44.36990506975149" lon="9.88641222507519"><ele>231.00000000000003</ele><time>2026-05-02T09:09:45Z</time></trkpt><trkpt lat="44.370008284372375" lon="9.886495885041699"><ele>231.0</ele><time>2026-05-02T09:09:46Z</time></trkpt><trkpt lat="44.3701087065909" lon="9.886574447210975"><ele>231.0</ele><time>2026-05-02T09:09:47Z</time></trkpt><trkpt lat="44.37020375160047" lon="9.886641518511594"><ele>231.0</ele><time>2026-05-02T09:09:48Z</time></trkpt><trkpt lat="44.37029334444854" lon="9.886720466000975"><ele>231.0</ele><time>2026-05-02T09:09:49Z</time></trkpt><trkpt lat="44.3703958558159" lon="9.886795892364454"><ele>231.0</ele><time>2026-05-02T09:09:50Z</time></trkpt><trkpt lat="44.37050734900368" lon="9.88686322550157"><ele>231.0</ele><time>2026-05-02T09:09:51Z</time></trkpt><trkpt lat="44.37062024470713" lon="9.886939081272256"><ele>231.25</ele><time>2026-05-02T09:09:52Z</time></trkpt><trkpt lat="44.37074252603467" lon="9.887005699947583"><ele>231.5</ele><time>2026-05-02T09:09:53Z</time></trkpt><trkpt lat="44.37086976474494" lon="9.887067226010846"><ele>231.75</ele><time>2026-05-02T09:09:54Z</time></trkpt><trkpt lat="44.371008799185105" lon="9.887126013675184"><ele>232.0</ele><time>2026-05-02T09:09:55Z</time></trkpt><trkpt lat="44.3711633473248" lon="9.887177960571918"><ele>232.0</ele><time>2026-05-02T09:09:55.999Z</time></trkpt><trkpt lat="44.3713179876908" lon="9.887211503705618"><ele>232.0</ele><time>2026-05-02T09:09:56.999Z</time></trkpt><trkpt lat="44.37147752236798" lon="9.887228487045826"><ele>232.0</ele><time>2026-05-02T09:09:57.999Z</time></trkpt><trkpt lat="44.3716397373302" lon="9.887238406251761"><ele>232.66666666666666</ele><time>2026-05-02T09:09:58.999Z</time></trkpt><trkpt lat="44.371820732746" lon="9.887226852356761"><ele>233.33333333333331</ele><time>2026-05-02T09:09:59.999Z</time></trkpt><trkpt lat="44.37199148432584" lon="9.887193275806037"><ele>234.0</ele><time>2026-05-02T09:10:00.999Z</time></trkpt><trkpt lat="44.37216313079584" lon="9.887159383580746"><ele>234.33333333333331</ele><time>2026-05-02T09:10:01.999Z</time></trkpt><trkpt lat="44.3723346348478" lon="9.88712318841941"><ele>234.66666666666666</ele><time>2026-05-02T09:10:02.999Z</time></trkpt><trkpt lat="44.37251309525173" lon="9.887057795059134"><ele>235.0</ele><time>2026-05-02T09:10:03.999Z</time></trkpt><trkpt lat="44.37269049007034" lon="9.886997393402906"><ele>235.0</ele><time>2026-05-02T09:10:04.999Z</time></trkpt><trkpt lat="44.372872614423585" lon="9.886944182430582"><ele>235.0</ele><time>2026-05-02T09:10:05.999Z</time></trkpt><trkpt lat="44.37305268321775" lon="9.886880469393759"><ele>235.0</ele><time>2026-05-02T09:10:06.999Z</time></trkpt><trkpt lat="44.373234496994655" lon="9.88681890409342"><ele>235.33333333333331</ele><time>2026-05-02T09:10:07.999Z</time></trkpt><trkpt lat="44.37341657944294" lon="9.886763743005273"><ele>235.66666666666669</ele><time>2026-05-02T09:10:08.999Z</time></trkpt><trkpt lat="44.37358727705336" lon="9.886707321584085"><ele>236.0</ele><time>2026-05-02T09:10:09.999Z</time></trkpt><trkpt lat="44.37375090840181" lon="9.886658123184237"><ele>235.66666666666669</ele><time>2026-05-02T09:10:10.999Z</time></trkpt><trkpt lat="44.373906370593076" lon="9.88660971659691"><ele>235.33333333333331</ele><time>2026-05-02T09:10:11.999Z</time></trkpt><trkpt lat="44.3740555715336" lon="9.886569299196722"><ele>235.0</ele><time>2026-05-02T09:10:12.999Z</time></trkpt><trkpt lat="44.37419646236913" lon="9.886528429564075"><ele>235.0</ele><time>2026-05-02T09:10:13.999Z</time></trkpt><trkpt lat="44.37433028453389" lon="9.886487099963453"><ele>235.0</ele><time>2026-05-02T09:10:14.999Z</time></trkpt><trkpt lat="44.37447428767783" lon="9.88644409671262"><ele>235.0</ele><time>2026-05-02T09:10:15.999Z</time></trkpt><trkpt lat="44.37461892507106" lon="9.886401267629454"><ele>235.0</ele><time>2026-05-02T09:10:16.999Z</time></trkpt><trkpt lat="44.37476058189506" lon="9.886363971767802"><ele>236.0</ele><time>2026-05-02T09:10:17.999Z</time></trkpt><trkpt lat="44.37490267137281" lon="9.886318393961773"><ele>237.0</ele><time>2026-05-02T09:10:18.999Z</time></trkpt><trkpt lat="44.37503788165852" lon="9.88627594105977"><ele>238.0</ele><time>2026-05-02T09:10:19.999Z</time></trkpt><trkpt lat="44.375163936670276" lon="9.886229406150047"><ele>239.0</ele><time>2026-05-02T09:10:20.999Z</time></trkpt><trkpt lat="44.37528291113141" lon="9.88616074550254"><ele>239.0</ele><time>2026-05-02T09:10:21.999Z</time></trkpt><trkpt lat="44.37538235799707" lon="9.886061694493403"><ele>239.0</ele><time>2026-05-02T09:10:22.999Z</time></trkpt><trkpt lat="44.37548411598295" lon="9.885954494615042"><ele>239.0</ele><time>2026-05-02T09:10:23.999Z</time></trkpt><trkpt lat="44.375584608207895" lon="9.885859537663611"><ele>239.0</ele><time>2026-05-02T09:10:24.999Z</time></trkpt><trkpt lat="44.37568092598527" lon="9.88578052553946"><ele>240.0</ele><time>2026-05-02T09:10:25.999Z</time></trkpt><trkpt lat="44.37576731569848" lon="9.88571603102522"><ele>240.99999999999997</ele><time>2026-05-02T09:10:26.999Z</time></trkpt><trkpt lat="44.37585274108749" lon="9.88565424004454"><ele>241.99999999999997</ele><time>2026-05-02T09:10:27.999Z</time></trkpt><trkpt lat="44.375949591415036" lon="9.885593664925926"><ele>243.0</ele><time>2026-05-02T09:10:28.999Z</time></trkpt><trkpt lat="44.3760554781443" lon="9.885540965446397"><ele>244.0</ele><time>2026-05-02T09:10:29.999Z</time></trkpt><trkpt lat="44.37616187202547" lon="9.885486795989232"><ele>244.0</ele><time>2026-05-02T09:10:30.999Z</time></trkpt><trkpt lat="44.37626513456542" lon="9.885431371760077"><ele>243.99999999999997</ele><time>2026-05-02T09:10:31.999Z</time></trkpt><trkpt lat="44.37635921522067" lon="9.885384877778238"><ele>243.99999999999997</ele><time>2026-05-02T09:10:32.999Z</time></trkpt><trkpt lat="44.37644761429725" lon="9.885343362372009"><ele>244.0</ele><time>2026-05-02T09:10:33.999Z</time></trkpt><trkpt lat="44.37654003223124" lon="9.885303097141735"><ele>244.0</ele><time>2026-05-02T09:10:34.999Z</time></trkpt><trkpt lat="44.37665131993982" lon="9.885259616189645"><ele>244.0</ele><time>2026-05-02T09:10:35.999Z</time></trkpt><trkpt lat="44.376775544648225" lon="9.885215882588696"><ele>244.0</ele><time>2026-05-02T09:10:36.999Z</time></trkpt><trkpt lat="44.37690700169139" lon="9.885171219248106"><ele>244.0</ele><time>2026-05-02T09:10:37.999Z</time></trkpt><trkpt lat="44.37704441748816" lon="9.885131358093355"><ele>244.0</ele><time>2026-05-02T09:10:38.999Z</time></trkpt><trkpt lat="44.37718861738396" lon="9.885087915262778"><ele>244.0</ele><time>2026-05-02T09:10:39.999Z</time></trkpt><trkpt lat="44.377336840682474" lon="9.885033852050476"><ele>244.0</ele><time>2026-05-02T09:10:40.999Z</time></trkpt><trkpt lat="44.37748706152976" lon="9.884964009051355"><ele>244.0</ele><time>2026-05-02T09:10:41.999Z</time></trkpt><trkpt lat="44.37764242884423" lon="9.884924696149005"><ele>244.0</ele><time>2026-05-02T09:10:42.999Z</time></trkpt><trkpt lat="44.377788765196144" lon="9.884858363894132"><ele>244.0</ele><time>2026-05-02T09:10:43.999Z</time></trkpt><trkpt lat="44.377949898650854" lon="9.884815938789242"><ele>244.0</ele><time>2026-05-02T09:10:44.999Z</time></trkpt><trkpt lat="44.378110498786064" lon="9.884753518740043"><ele>245.33333333333331</ele><time>2026-05-02T09:10:45.999Z</time></trkpt><trkpt lat="44.37826537596843" lon="9.884689182115673"><ele>246.66666666666669</ele><time>2026-05-02T09:10:46.999Z</time></trkpt><trkpt lat="44.37841514974016" lon="9.884629682103288"><ele>248.0</ele><time>2026-05-02T09:10:47.999Z</time></trkpt><trkpt lat="44.378563158411986" lon="9.884576285166336"><ele>248.0</ele><time>2026-05-02T09:10:48.999Z</time></trkpt><trkpt lat="44.37870953999419" lon="9.884519066029377"><ele>248.0</ele><time>2026-05-02T09:10:49.999Z</time></trkpt><trkpt lat="44.37885605258525" lon="9.884441286863135"><ele>248.0</ele><time>2026-05-02T09:10:50.999Z</time></trkpt><trkpt lat="44.37900072395741" lon="9.884365866438927"><ele>249.66666666666669</ele><time>2026-05-02T09:10:51.999Z</time></trkpt><trkpt lat="44.37914196208926" lon="9.884285903662535"><ele>251.33333333333331</ele><time>2026-05-02T09:10:52.999Z</time></trkpt><trkpt lat="44.37928743031824" lon="9.884211902710883"><ele>253.0</ele><time>2026-05-02T09:10:53.999Z</time></trkpt><trkpt lat="44.379428867070104" lon="9.884140598319535"><ele>251.66666666666666</ele><time>2026-05-02T09:10:54.999Z</time></trkpt><trkpt lat="44.37957275604314" lon="9.884077868732327"><ele>250.33333333333331</ele><time>2026-05-02T09:10:55.999Z</time></trkpt><trkpt lat="44.379727607498666" lon="9.884052940539618"><ele>249.0</ele><time>2026-05-02T09:10:56.999Z</time></trkpt><trkpt lat="44.379878949319476" lon="9.884071740741433"><ele>249.0</ele><time>2026-05-02T09:10:57.999Z</time></trkpt><trkpt lat="44.38002428612171" lon="9.88410643049039"><ele>249.0</ele><time>2026-05-02T09:10:58.999Z</time></trkpt><trkpt lat="44.38016469494437" lon="9.884134042576738"><ele>249.0</ele><time>2026-05-02T09:11:00.021Z</time></trkpt><trkpt lat="44.380302688266006" lon="9.884162466770386"><ele>249.0</ele><time>2026-05-02T09:11:01.02Z</time></trkpt><trkpt lat="44.38044105195292" lon="9.884200397470652"><ele>252.66666666666669</ele><time>2026-05-02T09:11:02.021Z</time></trkpt><trkpt lat="44.380568210727105" lon="9.884287399127919"><ele>256.33333333333337</ele><time>2026-05-02T09:11:03.018Z</time></trkpt><trkpt lat="44.38070073877296" lon="9.884369840069875"><ele>260.0</ele><time>2026-05-02T09:11:04.024Z</time></trkpt><trkpt lat="44.38173477076402" lon="9.884738009432223"><ele>260.0</ele><time>2026-05-02T09:11:09.999Z</time></trkpt><trkpt lat="44.38188338566146" lon="9.884749464933316"><ele>260.0</ele><time>2026-05-02T09:11:10.999Z</time></trkpt><trkpt lat="44.38201270101903" lon="9.8845740388994"><ele>260.0</ele><time>2026-05-02T09:11:11.999Z</time></trkpt><trkpt lat="44.38214005088765" lon="9.884491680865624"><ele>258.5</ele><time>2026-05-02T09:11:12.999Z</time></trkpt><trkpt lat="44.38224886111636" lon="9.884374995436943"><ele>257.0</ele><time>2026-05-02T09:11:13.999Z</time></trkpt><trkpt lat="44.382373281361794" lon="9.884268633363769"><ele>255.5</ele><time>2026-05-02T09:11:14.999Z</time></trkpt><trkpt lat="44.38249643460306" lon="9.884130997264256"><ele>254.0</ele><time>2026-05-02T09:11:15.999Z</time></trkpt><trkpt lat="44.38262470329393" lon="9.884010272049524"><ele>252.33333333333334</ele><time>2026-05-02T09:11:16.999Z</time></trkpt><trkpt lat="44.38276066195122" lon="9.883906712283968"><ele>250.66666666666669</ele><time>2026-05-02T09:11:17.999Z</time></trkpt><trkpt lat="44.382912921336" lon="9.883842141897619"><ele>249.0</ele><time>2026-05-02T09:11:18.999Z</time></trkpt><trkpt lat="44.38307787524717" lon="9.883820428833003"><ele>249.0</ele><time>2026-05-02T09:11:19.999Z</time></trkpt><trkpt lat="44.383239684362" lon="9.883800224937914"><ele>249.0</ele><time>2026-05-02T09:11:20.999Z</time></trkpt><trkpt lat="44.38340366945659" lon="9.883779992902637"><ele>249.0</ele><time>2026-05-02T09:11:21.999Z</time></trkpt><trkpt lat="44.38356869268421" lon="9.883766679686145"><ele>249.0</ele><time>2026-05-02T09:11:22.999Z</time></trkpt><trkpt lat="44.38372556009723" lon="9.883741418982668"><ele>249.0</ele><time>2026-05-02T09:11:24Z</time></trkpt><trkpt lat="44.38388199374692" lon="9.88373671129583"><ele>249.0</ele><time>2026-05-02T09:11:25Z</time></trkpt><trkpt lat="44.38403918079095" lon="9.88373037913084"><ele>250.33333333333331</ele><time>2026-05-02T09:11:26Z</time></trkpt><trkpt lat="44.38419654812565" lon="9.88372881007708"><ele>251.66666666666666</ele><time>2026-05-02T09:11:27Z</time></trkpt><trkpt lat="44.384345455434264" lon="9.883743602437438"><ele>253.0</ele><time>2026-05-02T09:11:28Z</time></trkpt><trkpt lat="44.38449111667656" lon="9.883757619127447"><ele>253.0</ele><time>2026-05-02T09:11:29Z</time></trkpt><trkpt lat="44.38464083465559" lon="9.883771753738861"><ele>253.0</ele><time>2026-05-02T09:11:30Z</time></trkpt><trkpt lat="44.38479460858199" lon="9.883791366649232"><ele>253.0</ele><time>2026-05-02T09:11:31Z</time></trkpt><trkpt lat="44.38494596161478" lon="9.883812452535357"><ele>253.75</ele><time>2026-05-02T09:11:32Z</time></trkpt><trkpt lat="44.385096259866124" lon="9.883836946941615"><ele>254.5</ele><time>2026-05-02T09:11:33Z</time></trkpt><trkpt lat="44.38524046031937" lon="9.883865919971996"><ele>255.25</ele><time>2026-05-02T09:11:34Z</time></trkpt><trkpt lat="44.38538751481797" lon="9.88388631151875"><ele>256.0</ele><time>2026-05-02T09:11:35Z</time></trkpt><trkpt lat="44.38553306409542" lon="9.883909262650308"><ele>256.5</ele><time>2026-05-02T09:11:36Z</time></trkpt><trkpt lat="44.38568087070844" lon="9.88392746365289"><ele>257.0</ele><time>2026-05-02T09:11:37Z</time></trkpt><trkpt lat="44.385826406654026" lon="9.883943182482637"><ele>257.5</ele><time>2026-05-02T09:11:38Z</time></trkpt><trkpt lat="44.38597309078549" lon="9.883968239337811"><ele>258.0</ele><time>2026-05-02T09:11:39Z</time></trkpt><trkpt lat="44.38612367824617" lon="9.883992479564107"><ele>258.0</ele><time>2026-05-02T09:11:40Z</time></trkpt><trkpt lat="44.38626973388515" lon="9.884013495532692"><ele>258.0</ele><time>2026-05-02T09:11:41Z</time></trkpt><trkpt lat="44.38640502800427" lon="9.884028834363885"><ele>258.0</ele><time>2026-05-02T09:11:42Z</time></trkpt><trkpt lat="44.38653465879339" lon="9.884046260687137"><ele>258.0</ele><time>2026-05-02T09:11:43Z</time></trkpt><trkpt lat="44.38666062382562" lon="9.884068143635824"><ele>258.75</ele><time>2026-05-02T09:11:44Z</time></trkpt><trkpt lat="44.386789188352225" lon="9.884093011983218"><ele>259.5</ele><time>2026-05-02T09:11:45Z</time></trkpt><trkpt lat="44.38691779142037" lon="9.884116182600168"><ele>260.25</ele><time>2026-05-02T09:11:46Z</time></trkpt><trkpt lat="44.387049177325245" lon="9.884133777931032"><ele>261.0</ele><time>2026-05-02T09:11:47Z</time></trkpt><trkpt lat="44.38717966158425" lon="9.884150804422713"><ele>262.0</ele><time>2026-05-02T09:11:48Z</time></trkpt><trkpt lat="44.387311521454095" lon="9.884167458133387"><ele>263.0</ele><time>2026-05-02T09:11:49Z</time></trkpt><trkpt lat="44.38744168760076" lon="9.88418684391458"><ele>264.0</ele><time>2026-05-02T09:11:50Z</time></trkpt><trkpt lat="44.38758240753757" lon="9.88420708707868"><ele>265.0</ele><time>2026-05-02T09:11:51Z</time></trkpt><trkpt lat="44.38772909909804" lon="9.884221968412438"><ele>265.0</ele><time>2026-05-02T09:11:52Z</time></trkpt><trkpt lat="44.38788987622791" lon="9.884249156593715"><ele>265.0</ele><time>2026-05-02T09:11:53Z</time></trkpt><trkpt lat="44.38805471523137" lon="9.884274905014228"><ele>265.0</ele><time>2026-05-02T09:11:54Z</time></trkpt><trkpt lat="44.38823103917105" lon="9.884307870279248"><ele>265.0</ele><time>2026-05-02T09:11:55Z</time></trkpt><trkpt lat="44.38841046606179" lon="9.88433419585916"><ele>265.0</ele><time>2026-05-02T09:11:56Z</time></trkpt><trkpt lat="44.38860478504365" lon="9.884355037054453"><ele>265.0</ele><time>2026-05-02T09:11:57Z</time></trkpt><trkpt lat="44.38881079128137" lon="9.884392745997223"><ele>265.0</ele><time>2026-05-02T09:11:58Z</time></trkpt><trkpt lat="44.389012194725396" lon="9.884405665761943"><ele>265.0</ele><time>2026-05-02T09:11:59Z</time></trkpt><trkpt lat="44.389216948588" lon="9.88443111938335"><ele>265.0</ele><time>2026-05-02T09:12:00Z</time></trkpt><trkpt lat="44.38946439258098" lon="9.884450330669925"><ele>265.0</ele><time>2026-05-02T09:12:01Z</time></trkpt><trkpt lat="44.38963242202669" lon="9.88440764494695"><ele>265.0</ele><time>2026-05-02T09:12:02Z</time></trkpt><trkpt lat="44.389834729558835" lon="9.88437671974725"><ele>265.0</ele><time>2026-05-02T09:12:03Z</time></trkpt><trkpt lat="44.39003218507176" lon="9.884312889631998"><ele>269.0</ele><time>2026-05-02T09:12:04Z</time></trkpt><trkpt lat="44.39022937886209" lon="9.884228949334108"><ele>273.0</ele><time>2026-05-02T09:12:05Z</time></trkpt><trkpt lat="44.39041846545893" lon="9.884128162510084"><ele>277.0</ele><time>2026-05-02T09:12:06Z</time></trkpt><trkpt lat="44.390599876786816" lon="9.884011766812572"><ele>277.0</ele><time>2026-05-02T09:12:07Z</time></trkpt><trkpt lat="44.39077148577315" lon="9.883872079664886"><ele>277.0</ele><time>2026-05-02T09:12:08Z</time></trkpt><trkpt lat="44.39093497518362" lon="9.883717426208692"><ele>277.0</ele><time>2026-05-02T09:12:09Z</time></trkpt><trkpt lat="44.39109457469106" lon="9.883553719677762"><ele>278.66666666666663</ele><time>2026-05-02T09:12:10Z</time></trkpt><trkpt lat="44.39124993694007" lon="9.883391026250592"><ele>280.3333333333333</ele><time>2026-05-02T09:12:11Z</time></trkpt><trkpt lat="44.391409033742505" lon="9.883228367613677"><ele>282.0</ele><time>2026-05-02T09:12:12Z</time></trkpt><trkpt lat="44.39155617513613" lon="9.88307071182168"><ele>282.0</ele><time>2026-05-02T09:12:13Z</time></trkpt><trkpt lat="44.391685219453606" lon="9.88295209595517"><ele>282.0</ele><time>2026-05-02T09:12:13.999Z</time></trkpt><trkpt lat="44.39186971115378" lon="9.882760440446225"><ele>282.0</ele><time>2026-05-02T09:12:14.999Z</time></trkpt><trkpt lat="44.39202970556437" lon="9.88260405256534"><ele>284.0</ele><time>2026-05-02T09:12:15.999Z</time></trkpt><trkpt lat="44.392183634149276" lon="9.88244663292895"><ele>286.0</ele><time>2026-05-02T09:12:16.999Z</time></trkpt><trkpt lat="44.392336001982805" lon="9.882293220518592"><ele>288.0</ele><time>2026-05-02T09:12:17.999Z</time></trkpt><trkpt lat="44.39248768692445" lon="9.882142720053386"><ele>288.0</ele><time>2026-05-02T09:12:18.999Z</time></trkpt><trkpt lat="44.39264617136842" lon="9.882004486290645"><ele>288.0</ele><time>2026-05-02T09:12:19.999Z</time></trkpt><trkpt lat="44.3927997647704" lon="9.881846840651178"><ele>288.0</ele><time>2026-05-02T09:12:20.999Z</time></trkpt><trkpt lat="44.39295126136984" lon="9.881692059505788"><ele>286.6666666666667</ele><time>2026-05-02T09:12:21.999Z</time></trkpt><trkpt lat="44.393097880891595" lon="9.88154224223547"><ele>285.33333333333337</ele><time>2026-05-02T09:12:22.999Z</time></trkpt><trkpt lat="44.39321872881771" lon="9.881409929338133"><ele>284.0</ele><time>2026-05-02T09:12:23.999Z</time></trkpt><trkpt lat="44.39332759902533" lon="9.881320569378616"><ele>284.0</ele><time>2026-05-02T09:12:24.999Z</time></trkpt><trkpt lat="44.3934234755778" lon="9.881281355415455"><ele>284.0</ele><time>2026-05-02T09:12:25.999Z</time></trkpt><trkpt lat="44.39352251963895" lon="9.881288975974828"><ele>284.0</ele><time>2026-05-02T09:12:26.999Z</time></trkpt><trkpt lat="44.39361874576282" lon="9.88136094074664"><ele>284.0</ele><time>2026-05-02T09:12:27.999Z</time></trkpt><trkpt lat="44.393700827074184" lon="9.881501494297812"><ele>284.0</ele><time>2026-05-02T09:12:28.999Z</time></trkpt><trkpt lat="44.39381055119959" lon="9.881661048477387"><ele>284.33333333333337</ele><time>2026-05-02T09:12:29.999Z</time></trkpt><trkpt lat="44.39391538331763" lon="9.881851586218533"><ele>284.6666666666667</ele><time>2026-05-02T09:12:30.999Z</time></trkpt><trkpt lat="44.3940206431732" lon="9.882026537427594"><ele>285.0</ele><time>2026-05-02T09:12:31.999Z</time></trkpt><trkpt lat="44.39413238140058" lon="9.88220821422052"><ele>285.0</ele><time>2026-05-02T09:12:32.999Z</time></trkpt><trkpt lat="44.39426948363857" lon="9.882406356804692"><ele>285.0</ele><time>2026-05-02T09:12:33.999Z</time></trkpt><trkpt lat="44.39445068550429" lon="9.882580847684292"><ele>285.0</ele><time>2026-05-02T09:12:34.999Z</time></trkpt><trkpt lat="44.39468098482203" lon="9.882776426432372"><ele>284.25</ele><time>2026-05-02T09:12:35.999Z</time></trkpt><trkpt lat="44.39467287812736" lon="9.882648450094086"><ele>283.5</ele><time>2026-05-02T09:12:36.999Z</time></trkpt><trkpt lat="44.394846265755014" lon="9.882640151282445"><ele>282.75</ele><time>2026-05-02T09:12:37.999Z</time></trkpt><trkpt lat="44.395022685798565" lon="9.882608217472193"><ele>282.0</ele><time>2026-05-02T09:12:38.999Z</time></trkpt><trkpt lat="44.39519808705223" lon="9.882595901715776"><ele>282.0</ele><time>2026-05-02T09:12:39.999Z</time></trkpt><trkpt lat="44.39537622790705" lon="9.882629517703089"><ele>282.0</ele><time>2026-05-02T09:12:40.999Z</time></trkpt><trkpt lat="44.39555752122804" lon="9.882680455766605"><ele>282.0</ele><time>2026-05-02T09:12:41.999Z</time></trkpt><trkpt lat="44.395730415992325" lon="9.882743042564481"><ele>286.6666666666667</ele><time>2026-05-02T09:12:42.999Z</time></trkpt><trkpt lat="44.395912322568066" lon="9.882799406057302"><ele>291.33333333333337</ele><time>2026-05-02T09:12:43.999Z</time></trkpt><trkpt lat="44.39610006574371" lon="9.88285841124754"><ele>296.0</ele><time>2026-05-02T09:12:44.999Z</time></trkpt><trkpt lat="44.3962797758212" lon="9.882920606123971"><ele>303.33333333333337</ele><time>2026-05-02T09:12:45.999Z</time></trkpt><trkpt lat="44.39643652876336" lon="9.883037580436568"><ele>310.6666666666667</ele><time>2026-05-02T09:12:46.999Z</time></trkpt><trkpt lat="44.39656908403924" lon="9.883169647573656"><ele>318.0</ele><time>2026-05-02T09:12:47.999Z</time></trkpt><trkpt lat="44.39666424386799" lon="9.883308952510044"><ele>314.6666666666667</ele><time>2026-05-02T09:12:48.999Z</time></trkpt><trkpt lat="44.396718322376074" lon="9.883494238164728"><ele>311.33333333333337</ele><time>2026-05-02T09:12:49.999Z</time></trkpt><trkpt lat="44.396794050791165" lon="9.883715830771218"><ele>308.0</ele><time>2026-05-02T09:12:50.999Z</time></trkpt><trkpt lat="44.39687317343909" lon="9.88394691786192"><ele>308.0</ele><time>2026-05-02T09:12:51.999Z</time></trkpt><trkpt lat="44.39696512752465" lon="9.884182255111774"><ele>308.0</ele><time>2026-05-02T09:12:52.999Z</time></trkpt><trkpt lat="44.397082293643116" lon="9.88441189359367"><ele>308.0</ele><time>2026-05-02T09:12:53.999Z</time></trkpt><trkpt lat="44.3972013486172" lon="9.884637027096586"><ele>309.6666666666667</ele><time>2026-05-02T09:12:54.999Z</time></trkpt><trkpt lat="44.397314194579224" lon="9.884852278511854"><ele>311.3333333333333</ele><time>2026-05-02T09:12:55.999Z</time></trkpt><trkpt lat="44.39742490632963" lon="9.88506192442413"><ele>313.0</ele><time>2026-05-02T09:12:56.999Z</time></trkpt><trkpt lat="44.397546821783926" lon="9.885254115493838"><ele>313.0</ele><time>2026-05-02T09:12:57.999Z</time></trkpt><trkpt lat="44.39765504037119" lon="9.885429635086881"><ele>313.0</ele><time>2026-05-02T09:12:58.999Z</time></trkpt><trkpt lat="44.39776570834605" lon="9.885563310174039"><ele>313.0</ele><time>2026-05-02T09:12:59.999Z</time></trkpt><trkpt lat="44.39787245254391" lon="9.885671392682504"><ele>313.0</ele><time>2026-05-02T09:13:00.999Z</time></trkpt><trkpt lat="44.39797482367474" lon="9.885723859925283"><ele>316.75</ele><time>2026-05-02T09:13:01.999Z</time></trkpt><trkpt lat="44.39810336633613" lon="9.885692663123274"><ele>320.5</ele><time>2026-05-02T09:13:02.999Z</time></trkpt><trkpt lat="44.3982230661264" lon="9.885599243255298"><ele>324.25</ele><time>2026-05-02T09:13:03.999Z</time></trkpt><trkpt lat="44.39835909637921" lon="9.885565575370931"><ele>328.0</ele><time>2026-05-02T09:13:04.999Z</time></trkpt><trkpt lat="44.3984921736068" lon="9.885622787311931"><ele>328.0</ele><time>2026-05-02T09:13:05.999Z</time></trkpt><trkpt lat="44.398643398371945" lon="9.88569832937273"><ele>328.0</ele><time>2026-05-02T09:13:06.999Z</time></trkpt><trkpt lat="44.398783443836436" lon="9.885700123631626"><ele>328.0</ele><time>2026-05-02T09:13:07.999Z</time></trkpt><trkpt lat="44.39891121042865" lon="9.885705760768438"><ele>328.0</ele><time>2026-05-02T09:13:08.999Z</time></trkpt><trkpt lat="44.399014078562004" lon="9.885804543362957"><ele>324.0</ele><time>2026-05-02T09:13:09.999Z</time></trkpt><trkpt lat="44.39908581636141" lon="9.88594977938806"><ele>320.0</ele><time>2026-05-02T09:13:10.999Z</time></trkpt><trkpt lat="44.399181629739694" lon="9.886048081836263"><ele>316.0</ele><time>2026-05-02T09:13:11.999Z</time></trkpt><trkpt lat="44.399295643804145" lon="9.88611484420402"><ele>312.0</ele><time>2026-05-02T09:13:12.999Z</time></trkpt><trkpt lat="44.39944325886343" lon="9.886128864770185"><ele>312.0</ele><time>2026-05-02T09:13:13.999Z</time></trkpt><trkpt lat="44.39959066074534" lon="9.886142720069634"><ele>312.0</ele><time>2026-05-02T09:13:14.999Z</time></trkpt><trkpt lat="44.39972440257805" lon="9.886171639689286"><ele>312.0</ele><time>2026-05-02T09:13:15.999Z</time></trkpt><trkpt lat="44.3998428698676" lon="9.886229679708247"><ele>312.0</ele><time>2026-05-02T09:13:16.999Z</time></trkpt><trkpt lat="44.399955122003114" lon="9.88632340523482"><ele>317.25</ele><time>2026-05-02T09:13:17.999Z</time></trkpt><trkpt lat="44.400054124996934" lon="9.886459101684542"><ele>322.5</ele><time>2026-05-02T09:13:18.999Z</time></trkpt><trkpt lat="44.4001232261022" lon="9.886641994772347"><ele>327.75</ele><time>2026-05-02T09:13:19.999Z</time></trkpt><trkpt lat="44.400175666672446" lon="9.886844338418754"><ele>333.0</ele><time>2026-05-02T09:13:20.999Z</time></trkpt><trkpt lat="44.40021641861608" lon="9.887054285236271"><ele>333.0</ele><time>2026-05-02T09:13:21.999Z</time></trkpt><trkpt lat="44.40025905486275" lon="9.887259547771794"><ele>333.0</ele><time>2026-05-02T09:13:22.999Z</time></trkpt><trkpt lat="44.4003198363131" lon="9.887453102206054"><ele>333.0</ele><time>2026-05-02T09:13:23.999Z</time></trkpt><trkpt lat="44.40041444129925" lon="9.887600567138964"><ele>333.0</ele><time>2026-05-02T09:13:24.999Z</time></trkpt><trkpt lat="44.40054849691174" lon="9.88771533248682"><ele>337.6666666666667</ele><time>2026-05-02T09:13:25.999Z</time></trkpt><trkpt lat="44.40068741428883" lon="9.887824168307587"><ele>342.33333333333337</ele><time>2026-05-02T09:13:26.999Z</time></trkpt><trkpt lat="44.40083333032207" lon="9.887946583127388"><ele>347.0</ele><time>2026-05-02T09:13:27.999Z</time></trkpt><trkpt lat="44.4009520615639" lon="9.888073930869005"><ele>347.0</ele><time>2026-05-02T09:13:28.999Z</time></trkpt><trkpt lat="44.401064641364506" lon="9.888181452969018"><ele>347.0</ele><time>2026-05-02T09:13:30Z</time></trkpt><trkpt lat="44.40115284824253" lon="9.888265766630427"><ele>347.0</ele><time>2026-05-02T09:13:31Z</time></trkpt><trkpt lat="44.40123000535828" lon="9.888324083936737"><ele>347.0</ele><time>2026-05-02T09:13:32Z</time></trkpt><trkpt lat="44.40130846244315" lon="9.888349630587573"><ele>347.0</ele><time>2026-05-02T09:13:33Z</time></trkpt><trkpt lat="44.4013663618707" lon="9.888299734828296"><ele>347.0</ele><time>2026-05-02T09:13:34Z</time></trkpt><trkpt lat="44.4013997772891" lon="9.88821861246355"><ele>347.0</ele><time>2026-05-02T09:13:35Z</time></trkpt><trkpt lat="44.40136866848996" lon="9.888083242838347"><ele>347.0</ele><time>2026-05-02T09:13:36Z</time></trkpt><trkpt lat="44.4012635761672" lon="9.887981935102587"><ele>347.0</ele><time>2026-05-02T09:13:37Z</time></trkpt><trkpt lat="44.40115912414947" lon="9.887883166724032"><ele>347.0</ele><time>2026-05-02T09:13:38Z</time></trkpt><trkpt lat="44.4010522647726" lon="9.887745833011806"><ele>347.0</ele><time>2026-05-02T09:13:39Z</time></trkpt><trkpt lat="44.400943953298714" lon="9.8876195249363"><ele>347.0</ele><time>2026-05-02T09:13:40Z</time></trkpt><trkpt lat="44.400846109761716" lon="9.887497011129124"><ele>347.0</ele><time>2026-05-02T09:13:41Z</time></trkpt><trkpt lat="44.40074692265829" lon="9.8873861592981"><ele>347.0</ele><time>2026-05-02T09:13:42Z</time></trkpt><trkpt lat="44.4006859646776" lon="9.887250573798848"><ele>351.75</ele><time>2026-05-02T09:13:43Z</time></trkpt><trkpt lat="44.40067657984002" lon="9.887046190327476"><ele>356.5</ele><time>2026-05-02T09:13:44Z</time></trkpt><trkpt lat="44.40066225762853" lon="9.88685854532383"><ele>361.25</ele><time>2026-05-02T09:13:45Z</time></trkpt><trkpt lat="44.40064324013008" lon="9.886639725309642"><ele>366.0</ele><time>2026-05-02T09:13:46Z</time></trkpt><trkpt lat="44.40061739186653" lon="9.886436932941736"><ele>368.3333333333333</ele><time>2026-05-02T09:13:47Z</time></trkpt><trkpt lat="44.40056297103209" lon="9.88624672411292"><ele>370.66666666666663</ele><time>2026-05-02T09:13:48Z</time></trkpt><trkpt lat="44.400471453354655" lon="9.886061286454776"><ele>373.0</ele><time>2026-05-02T09:13:49Z</time></trkpt><trkpt lat="44.400366050626516" lon="9.885886029495541"><ele>373.0</ele><time>2026-05-02T09:13:50Z</time></trkpt><trkpt lat="44.40025689143853" lon="9.88571313992612"><ele>373.0</ele><time>2026-05-02T09:13:51Z</time></trkpt><trkpt lat="44.40012710144905" lon="9.885570451385387"><ele>373.0</ele><time>2026-05-02T09:13:52Z</time></trkpt><trkpt lat="44.39998647054262" lon="9.885464555231641"><ele>373.0</ele><time>2026-05-02T09:13:53Z</time></trkpt><trkpt lat="44.39984256131098" lon="9.885393600322324"><ele>373.0</ele><time>2026-05-02T09:13:54Z</time></trkpt><trkpt lat="44.39970811801169" lon="9.885354802228367"><ele>373.0</ele><time>2026-05-02T09:13:55Z</time></trkpt><trkpt lat="44.39960590571201" lon="9.885258191448065"><ele>373.0</ele><time>2026-05-02T09:13:56Z</time></trkpt><trkpt lat="44.39953932063577" lon="9.885125022209733"><ele>374.66666666666663</ele><time>2026-05-02T09:13:57Z</time></trkpt><trkpt lat="44.39946145262101" lon="9.884952761018033"><ele>376.3333333333333</ele><time>2026-05-02T09:13:58Z</time></trkpt><trkpt lat="44.39936491307395" lon="9.884764659300384"><ele>378.0</ele><time>2026-05-02T09:13:59Z</time></trkpt><trkpt lat="44.39927595078542" lon="9.884561809559742"><ele>378.0</ele><time>2026-05-02T09:14:00Z</time></trkpt><trkpt lat="44.399185012106905" lon="9.884369571690918"><ele>378.0</ele><time>2026-05-02T09:14:01Z</time></trkpt><trkpt lat="44.3990816425178" lon="9.884216844609488"><ele>378.0</ele><time>2026-05-02T09:14:02Z</time></trkpt><trkpt lat="44.3990141078531" lon="9.88409838663545"><ele>378.0</ele><time>2026-05-02T09:14:03Z</time></trkpt><trkpt lat="44.39890347789182" lon="9.883944396760517"><ele>378.6666666666667</ele><time>2026-05-02T09:14:04Z</time></trkpt><trkpt lat="44.398806845479825" lon="9.883744944252351"><ele>379.33333333333337</ele><time>2026-05-02T09:14:05Z</time></trkpt><trkpt lat="44.39876152741311" lon="9.883524623959934"><ele>380.0</ele><time>2026-05-02T09:14:06Z</time></trkpt><trkpt lat="44.39876977438322" lon="9.883302426306798"><ele>380.0</ele><time>2026-05-02T09:14:07Z</time></trkpt><trkpt lat="44.398774001817074" lon="9.88307462032422"><ele>380.0</ele><time>2026-05-02T09:14:08Z</time></trkpt><trkpt lat="44.39878033531758" lon="9.882842930352616"><ele>380.0</ele><time>2026-05-02T09:14:09Z</time></trkpt><trkpt lat="44.39873371486471" lon="9.882627093910047"><ele>383.6666666666667</ele><time>2026-05-02T09:14:10Z</time></trkpt><trkpt lat="44.398646652430635" lon="9.882434278155799"><ele>387.33333333333337</ele><time>2026-05-02T09:14:11Z</time></trkpt><trkpt lat="44.39853186206656" lon="9.882277565226214"><ele>391.0</ele><time>2026-05-02T09:14:12Z</time></trkpt><trkpt lat="44.398456855486565" lon="9.882111165410885"><ele>391.0</ele><time>2026-05-02T09:14:13Z</time></trkpt><trkpt lat="44.39839678367293" lon="9.88195943091892"><ele>391.0</ele><time>2026-05-02T09:14:14Z</time></trkpt><trkpt lat="44.39837480683893" lon="9.881835712337697"><ele>391.0</ele><time>2026-05-02T09:14:15Z</time></trkpt><trkpt lat="44.398369451090545" lon="9.881741054821271"><ele>391.0</ele><time>2026-05-02T09:14:16Z</time></trkpt><trkpt lat="44.39846953861691" lon="9.881667628373993"><ele>391.0</ele><time>2026-05-02T09:14:18Z</time></trkpt><trkpt lat="44.39852838617559" lon="9.881719878290996"><ele>391.0</ele><time>2026-05-02T09:14:19Z</time></trkpt><trkpt lat="44.398548563981436" lon="9.881849752842118"><ele>391.0</ele><time>2026-05-02T09:14:20Z</time></trkpt><trkpt lat="44.398616888319154" lon="9.88199344015253"><ele>391.0</ele><time>2026-05-02T09:14:21Z</time></trkpt><trkpt lat="44.39865471502442" lon="9.88215399529517"><ele>391.0</ele><time>2026-05-02T09:14:22Z</time></trkpt><trkpt lat="44.39871112157742" lon="9.882300300005554"><ele>391.0</ele><time>2026-05-02T09:14:23Z</time></trkpt><trkpt lat="44.3987940704608" lon="9.882421213850368"><ele>391.0</ele><time>2026-05-02T09:14:24Z</time></trkpt><trkpt lat="44.39891335349879" lon="9.882495073099884"><ele>391.0</ele><time>2026-05-02T09:14:25Z</time></trkpt><trkpt lat="44.39905326254215" lon="9.88254445383584"><ele>391.0</ele><time>2026-05-02T09:14:26Z</time></trkpt><trkpt lat="44.399184180308424" lon="9.882608593862784"><ele>396.25</ele><time>2026-05-02T09:14:27Z</time></trkpt><trkpt lat="44.39929569455743" lon="9.88269724121679"><ele>401.5</ele><time>2026-05-02T09:14:28Z</time></trkpt><trkpt lat="44.399372475418375" lon="9.882837302253664"><ele>406.75</ele><time>2026-05-02T09:14:29Z</time></trkpt><trkpt lat="44.39935733612329" lon="9.883021442629694"><ele>412.0</ele><time>2026-05-02T09:14:30Z</time></trkpt><trkpt lat="44.399344071165125" lon="9.88321238332432"><ele>412.0</ele><time>2026-05-02T09:14:31Z</time></trkpt><trkpt lat="44.39937405956863" lon="9.883380736400866"><ele>412.0</ele><time>2026-05-02T09:14:31.999Z</time></trkpt><trkpt lat="44.39944044207935" lon="9.883525963550372"><ele>412.0</ele><time>2026-05-02T09:14:32.999Z</time></trkpt><trkpt lat="44.39956473177944" lon="9.883640591100697"><ele>412.0</ele><time>2026-05-02T09:14:33.999Z</time></trkpt><trkpt lat="44.399693204095726" lon="9.883749608003296"><ele>416.0</ele><time>2026-05-02T09:14:34.999Z</time></trkpt><trkpt lat="44.399819874477046" lon="9.883871931583588"><ele>420.0</ele><time>2026-05-02T09:14:35.999Z</time></trkpt><trkpt lat="44.3999468912995" lon="9.884014374136557"><ele>424.0</ele><time>2026-05-02T09:14:36.999Z</time></trkpt><trkpt lat="44.400070085151306" lon="9.884150776320185"><ele>424.0</ele><time>2026-05-02T09:14:37.999Z</time></trkpt><trkpt lat="44.40020931923144" lon="9.884250603120607"><ele>424.0</ele><time>2026-05-02T09:14:38.999Z</time></trkpt><trkpt lat="44.400368676423106" lon="9.884313325136734"><ele>424.0</ele><time>2026-05-02T09:14:39.999Z</time></trkpt><trkpt lat="44.400525634989336" lon="9.884372806592234"><ele>423.6666666666667</ele><time>2026-05-02T09:14:40.999Z</time></trkpt><trkpt lat="44.400637110335836" lon="9.884514820408528"><ele>423.33333333333337</ele><time>2026-05-02T09:14:41.999Z</time></trkpt><trkpt lat="44.40076089622071" lon="9.884654830280251"><ele>423.0</ele><time>2026-05-02T09:14:42.999Z</time></trkpt><trkpt lat="44.40088017725969" lon="9.884758316145323"><ele>423.0</ele><time>2026-05-02T09:14:43.999Z</time></trkpt><trkpt lat="44.401012677065935" lon="9.884861862054063"><ele>423.0</ele><time>2026-05-02T09:14:44.999Z</time></trkpt><trkpt lat="44.40116703787778" lon="9.884924714765651"><ele>423.0</ele><time>2026-05-02T09:14:45.999Z</time></trkpt><trkpt lat="44.40132798658318" lon="9.884991490818127"><ele>423.33333333333337</ele><time>2026-05-02T09:14:46.999Z</time></trkpt><trkpt lat="44.40149138162912" lon="9.885060381169971"><ele>423.6666666666667</ele><time>2026-05-02T09:14:47.999Z</time></trkpt><trkpt lat="44.401664343898155" lon="9.88513494260027"><ele>424.0</ele><time>2026-05-02T09:14:48.999Z</time></trkpt><trkpt lat="44.40185510511164" lon="9.885177643823454"><ele>424.0</ele><time>2026-05-02T09:14:49.999Z</time></trkpt><trkpt lat="44.402055105550616" lon="9.88521005241751"><ele>424.0</ele><time>2026-05-02T09:14:50.999Z</time></trkpt><trkpt lat="44.402251161046124" lon="9.885247891467287"><ele>424.0</ele><time>2026-05-02T09:14:51.999Z</time></trkpt><trkpt lat="44.40242881793452" lon="9.885282799952579"><ele>430.6666666666667</ele><time>2026-05-02T09:14:52.999Z</time></trkpt><trkpt lat="44.40260314203307" lon="9.88531932239517"><ele>437.33333333333337</ele><time>2026-05-02T09:14:53.999Z</time></trkpt><trkpt lat="44.402763980214964" lon="9.885380347202188"><ele>444.0</ele><time>2026-05-02T09:14:54.999Z</time></trkpt><trkpt lat="44.40291297429958" lon="9.885487752561199"><ele>444.0</ele><time>2026-05-02T09:14:55.999Z</time></trkpt><trkpt lat="44.40303713406024" lon="9.885672013129296"><ele>444.0</ele><time>2026-05-02T09:14:56.999Z</time></trkpt><trkpt lat="44.403175681090836" lon="9.88584388777707"><ele>444.0</ele><time>2026-05-02T09:14:57.999Z</time></trkpt><trkpt lat="44.403307367243535" lon="9.886027737365959"><ele>444.0</ele><time>2026-05-02T09:14:58.999Z</time></trkpt><trkpt lat="44.40345904444475" lon="9.886169249187912"><ele>444.0</ele><time>2026-05-02T09:14:59.999Z</time></trkpt><trkpt lat="44.40363878109557" lon="9.886277001275703"><ele>444.0</ele><time>2026-05-02T09:15:00.999Z</time></trkpt><trkpt lat="44.403804289158025" lon="9.886405296057418"><ele>447.75</ele><time>2026-05-02T09:15:01.999Z</time></trkpt><trkpt lat="44.403952245221255" lon="9.8865209203772"><ele>451.5</ele><time>2026-05-02T09:15:02.999Z</time></trkpt><trkpt lat="44.40406851817782" lon="9.88661679668195"><ele>455.25</ele><time>2026-05-02T09:15:03.999Z</time></trkpt><trkpt lat="44.404155913705814" lon="9.886687078329286"><ele>459.0</ele><time>2026-05-02T09:15:04.999Z</time></trkpt><trkpt lat="44.40422408203157" lon="9.886719132770414"><ele>459.0</ele><time>2026-05-02T09:15:05.999Z</time></trkpt><trkpt lat="44.40428766376424" lon="9.886678535224183"><ele>459.0</ele><time>2026-05-02T09:15:06.999Z</time></trkpt><trkpt lat="44.404341583455796" lon="9.886586714372314"><ele>459.0</ele><time>2026-05-02T09:15:07.999Z</time></trkpt><trkpt lat="44.40429407708752" lon="9.886426644380977"><ele>459.0</ele><time>2026-05-02T09:15:08.999Z</time></trkpt><trkpt lat="44.40419675642011" lon="9.88635076339405"><ele>459.0</ele><time>2026-05-02T09:15:09.999Z</time></trkpt><trkpt lat="44.40408520197034" lon="9.886291967558915"><ele>459.0</ele><time>2026-05-02T09:15:10.999Z</time></trkpt><trkpt lat="44.40396469281783" lon="9.88620037243085"><ele>459.0</ele><time>2026-05-02T09:15:11.999Z</time></trkpt><trkpt lat="44.403840293607345" lon="9.886115655541095"><ele>459.0</ele><time>2026-05-02T09:15:12.999Z</time></trkpt><trkpt lat="44.40372254439174" lon="9.88601959714067"><ele>459.0</ele><time>2026-05-02T09:15:13.999Z</time></trkpt><trkpt lat="44.40361603004623" lon="9.885923537548523"><ele>459.66666666666663</ele><time>2026-05-02T09:15:14.999Z</time></trkpt><trkpt lat="44.403517008216284" lon="9.885790392352288"><ele>460.3333333333333</ele><time>2026-05-02T09:15:15.999Z</time></trkpt><trkpt lat="44.403436258685346" lon="9.885599180738971"><ele>461.0</ele><time>2026-05-02T09:15:16.999Z</time></trkpt><trkpt lat="44.40336934556728" lon="9.88539388871372"><ele>461.0</ele><time>2026-05-02T09:15:17.999Z</time></trkpt><trkpt lat="44.403288992660215" lon="9.885231937713508"><ele>461.0</ele><time>2026-05-02T09:15:18.999Z</time></trkpt><trkpt lat="44.403174648525756" lon="9.885088996328145"><ele>461.0</ele><time>2026-05-02T09:15:19.999Z</time></trkpt><trkpt lat="44.40303974982995" lon="9.88497366675796"><ele>461.66666666666663</ele><time>2026-05-02T09:15:20.999Z</time></trkpt><trkpt lat="44.40288006269997" lon="9.884862837265505"><ele>462.33333333333337</ele><time>2026-05-02T09:15:21.999Z</time></trkpt><trkpt lat="44.402719490043246" lon="9.884743808483687"><ele>463.0</ele><time>2026-05-02T09:15:22.999Z</time></trkpt><trkpt lat="44.402526147829875" lon="9.884615023438386"><ele>463.0</ele><time>2026-05-02T09:15:23.999Z</time></trkpt><trkpt lat="44.4023262715005" lon="9.884498007096525"><ele>463.0</ele><time>2026-05-02T09:15:24.999Z</time></trkpt><trkpt lat="44.40214745291965" lon="9.884395704603245"><ele>463.0</ele><time>2026-05-02T09:15:25.999Z</time></trkpt><trkpt lat="44.401971924511734" lon="9.884240624210536"><ele>464.25</ele><time>2026-05-02T09:15:27.999Z</time></trkpt><trkpt lat="44.401873854701684" lon="9.884098221088344"><ele>465.5</ele><time>2026-05-02T09:15:28.999Z</time></trkpt><trkpt lat="44.40179960795422" lon="9.883925499017076"><ele>466.75</ele><time>2026-05-02T09:15:29.999Z</time></trkpt><trkpt lat="44.40172311456848" lon="9.883727242179635"><ele>468.0</ele><time>2026-05-02T09:15:30.999Z</time></trkpt><trkpt lat="44.401643102305336" lon="9.88352615868027"><ele>471.0</ele><time>2026-05-02T09:15:31.999Z</time></trkpt><trkpt lat="44.4015608397231" lon="9.883322424292796"><ele>474.0</ele><time>2026-05-02T09:15:32.999Z</time></trkpt><trkpt lat="44.401472153080334" lon="9.88315357971518"><ele>477.0</ele><time>2026-05-02T09:15:33.999Z</time></trkpt><trkpt lat="44.40140858645392" lon="9.883004041966355"><ele>480.0</ele><time>2026-05-02T09:15:34.999Z</time></trkpt><trkpt lat="44.40134405186965" lon="9.882917537781868"><ele>480.0</ele><time>2026-05-02T09:15:36Z</time></trkpt><trkpt lat="44.40129353031929" lon="9.882859036692821"><ele>480.0</ele><time>2026-05-02T09:15:37Z</time></trkpt><trkpt lat="44.4012982189393" lon="9.882757953334483"><ele>480.0</ele><time>2026-05-02T09:15:38Z</time></trkpt><trkpt lat="44.40137268660805" lon="9.882669824647685"><ele>480.0</ele><time>2026-05-02T09:15:39Z</time></trkpt><trkpt lat="44.40146551965749" lon="9.882667085853234"><ele>480.0</ele><time>2026-05-02T09:15:40Z</time></trkpt><trkpt lat="44.40154724679854" lon="9.88271467292481"><ele>480.0</ele><time>2026-05-02T09:15:41Z</time></trkpt><trkpt lat="44.4015855707275" lon="9.882877835659041"><ele>480.0</ele><time>2026-05-02T09:15:42Z</time></trkpt><trkpt lat="44.401648437706534" lon="9.883058437647515"><ele>480.0</ele><time>2026-05-02T09:15:43Z</time></trkpt><trkpt lat="44.401715205636826" lon="9.883227206605056"><ele>480.0</ele><time>2026-05-02T09:15:44Z</time></trkpt><trkpt lat="44.40180428478463" lon="9.883396525927148"><ele>480.0</ele><time>2026-05-02T09:15:45Z</time></trkpt><trkpt lat="44.40189788971431" lon="9.88356052304124"><ele>480.5</ele><time>2026-05-02T09:15:46Z</time></trkpt><trkpt lat="44.40200999710925" lon="9.883706615005119"><ele>481.0</ele><time>2026-05-02T09:15:47Z</time></trkpt><trkpt lat="44.402137924793465" lon="9.883805316902723"><ele>481.5</ele><time>2026-05-02T09:15:48Z</time></trkpt><trkpt lat="44.40227328552237" lon="9.88386575080497"><ele>482.0</ele><time>2026-05-02T09:15:49Z</time></trkpt><trkpt lat="44.40244261641751" lon="9.883852668817937"><ele>482.0</ele><time>2026-05-02T09:15:50Z</time></trkpt><trkpt lat="44.40259321976304" lon="9.883830406304972"><ele>482.0</ele><time>2026-05-02T09:15:51Z</time></trkpt><trkpt lat="44.402746079587054" lon="9.883816471792509"><ele>482.0</ele><time>2026-05-02T09:15:52Z</time></trkpt><trkpt lat="44.40290001389461" lon="9.883830339758116"><ele>486.3333333333333</ele><time>2026-05-02T09:15:53Z</time></trkpt><trkpt lat="44.403051545478284" lon="9.88389117771033"><ele>490.66666666666663</ele><time>2026-05-02T09:15:54Z</time></trkpt><trkpt lat="44.40319361247239" lon="9.883981246443255"><ele>495.0</ele><time>2026-05-02T09:15:55Z</time></trkpt><trkpt lat="44.40334871650061" lon="9.884039277213343"><ele>495.0</ele><time>2026-05-02T09:15:56Z</time></trkpt><trkpt lat="44.40349982768608" lon="9.884079776960384"><ele>495.0</ele><time>2026-05-02T09:15:57Z</time></trkpt><trkpt lat="44.403652457403545" lon="9.884132681275503"><ele>495.0</ele><time>2026-05-02T09:15:58Z</time></trkpt><trkpt lat="44.403789501251744" lon="9.884263695040985"><ele>495.0</ele><time>2026-05-02T09:15:59Z</time></trkpt><trkpt lat="44.4039149776479" lon="9.88442780523481"><ele>495.0</ele><time>2026-05-02T09:16:00Z</time></trkpt><trkpt lat="44.404050805457764" lon="9.884557013636838"><ele>495.0</ele><time>2026-05-02T09:16:01Z</time></trkpt><trkpt lat="44.4041891816379" lon="9.884685255671302"><ele>495.0</ele><time>2026-05-02T09:16:02Z</time></trkpt><trkpt lat="44.4043333323345" lon="9.884801375398016"><ele>495.0</ele><time>2026-05-02T09:16:03Z</time></trkpt><trkpt lat="44.404477011520555" lon="9.884908072286951"><ele>495.0</ele><time>2026-05-02T09:16:04Z</time></trkpt><trkpt lat="44.40459048689827" lon="9.885012961503746"><ele>495.2</ele><time>2026-05-02T09:16:05Z</time></trkpt><trkpt lat="44.40468232613076" lon="9.885103461356776"><ele>495.4</ele><time>2026-05-02T09:16:06Z</time></trkpt><trkpt lat="44.40475270563536" lon="9.88517197871651"><ele>495.6</ele><time>2026-05-02T09:16:07Z</time></trkpt><trkpt lat="44.40483213089067" lon="9.885181516132594"><ele>495.8</ele><time>2026-05-02T09:16:08Z</time></trkpt><trkpt lat="44.404908167577624" lon="9.885107683938076"><ele>496.0</ele><time>2026-05-02T09:16:09Z</time></trkpt><trkpt lat="44.404947558190244" lon="9.884973756025822"><ele>495.75</ele><time>2026-05-02T09:16:10Z</time></trkpt><trkpt lat="44.40492243282341" lon="9.884826988658372"><ele>495.5</ele><time>2026-05-02T09:16:11Z</time></trkpt><trkpt lat="44.40482127371986" lon="9.884693121980932"><ele>495.25</ele><time>2026-05-02T09:16:12Z</time></trkpt><trkpt lat="44.4046931745492" lon="9.884590900647632"><ele>495.0</ele><time>2026-05-02T09:16:13Z</time></trkpt><trkpt lat="44.404588687603905" lon="9.884438289584429"><ele>499.66666666666663</ele><time>2026-05-02T09:16:14Z</time></trkpt><trkpt lat="44.404472357746094" lon="9.88426294115629"><ele>504.3333333333333</ele><time>2026-05-02T09:16:15Z</time></trkpt><trkpt lat="44.40434333795505" lon="9.884089498823537"><ele>509.0</ele><time>2026-05-02T09:16:16Z</time></trkpt><trkpt lat="44.40422564348295" lon="9.883895692235333"><ele>509.0</ele><time>2026-05-02T09:16:17Z</time></trkpt><trkpt lat="44.40409627581519" lon="9.883756984725972"><ele>509.0</ele><time>2026-05-02T09:16:18Z</time></trkpt><trkpt lat="44.40396882653764" lon="9.883650325860266"><ele>509.0</ele><time>2026-05-02T09:16:19Z</time></trkpt><trkpt lat="44.403854626350764" lon="9.883577896707985"><ele>509.0</ele><time>2026-05-02T09:16:20Z</time></trkpt><trkpt lat="44.40376297448672" lon="9.883513791775226"><ele>509.3333333333333</ele><time>2026-05-02T09:16:21Z</time></trkpt><trkpt lat="44.40369402273658" lon="9.88346048302346"><ele>509.66666666666663</ele><time>2026-05-02T09:16:22Z</time></trkpt><trkpt lat="44.40367929173679" lon="9.883362201529936"><ele>510.0</ele><time>2026-05-02T09:16:23Z</time></trkpt><trkpt lat="44.40373278166525" lon="9.883265525265452"><ele>510.33333333333337</ele><time>2026-05-02T09:16:24Z</time></trkpt><trkpt lat="44.40381546821274" lon="9.883238429039917"><ele>510.6666666666667</ele><time>2026-05-02T09:16:25Z</time></trkpt><trkpt lat="44.4039100207267" lon="9.88332886207355"><ele>511.0</ele><time>2026-05-02T09:16:26Z</time></trkpt><trkpt lat="44.40403933485528" lon="9.883401779241307"><ele>510.33333333333337</ele><time>2026-05-02T09:16:27Z</time></trkpt><trkpt lat="44.40419105829644" lon="9.883497433566362"><ele>509.66666666666663</ele><time>2026-05-02T09:16:28Z</time></trkpt><trkpt lat="44.40434446487162" lon="9.883573213850996"><ele>509.0</ele><time>2026-05-02T09:16:29Z</time></trkpt><trkpt lat="44.40451026458886" lon="9.883653031313067"><ele>514.3333333333333</ele><time>2026-05-02T09:16:30Z</time></trkpt><trkpt lat="44.40467881034547" lon="9.88373949658987"><ele>519.6666666666666</ele><time>2026-05-02T09:16:31Z</time></trkpt><trkpt lat="44.404837505770985" lon="9.883828466126362"><ele>525.0</ele><time>2026-05-02T09:16:32Z</time></trkpt><trkpt lat="44.40498745698165" lon="9.883935837597113"><ele>525.0</ele><time>2026-05-02T09:16:33Z</time></trkpt><trkpt lat="44.40513080234059" lon="9.884081646087747"><ele>525.0</ele><time>2026-05-02T09:16:34Z</time></trkpt><trkpt lat="44.40526958081457" lon="9.884226283123848"><ele>525.0</ele><time>2026-05-02T09:16:35Z</time></trkpt><trkpt lat="44.40540765370086" lon="9.884368252338716"><ele>527.6666666666666</ele><time>2026-05-02T09:16:36Z</time></trkpt><trkpt lat="44.405539213152856" lon="9.884521333513058"><ele>530.3333333333333</ele><time>2026-05-02T09:16:37Z</time></trkpt><trkpt lat="44.40565564075476" lon="9.884708744620726"><ele>533.0</ele><time>2026-05-02T09:16:37.999Z</time></trkpt><trkpt lat="44.4057650154578" lon="9.884904726041727"><ele>526.6666666666666</ele><time>2026-05-02T09:16:38.999Z</time></trkpt><trkpt lat="44.40585465857496" lon="9.885100179064118"><ele>520.3333333333334</ele><time>2026-05-02T09:16:39.999Z</time></trkpt><trkpt lat="44.40594637798219" lon="9.885281757386108"><ele>514.0</ele><time>2026-05-02T09:16:40.999Z</time></trkpt><trkpt lat="44.40607273776395" lon="9.885422601458265"><ele>514.0</ele><time>2026-05-02T09:16:41.999Z</time></trkpt><trkpt lat="44.40622333823019" lon="9.885537002545075"><ele>514.0</ele><time>2026-05-02T09:16:42.999Z</time></trkpt><trkpt lat="44.40637207082323" lon="9.885671468973056"><ele>514.0</ele><time>2026-05-02T09:16:43.999Z</time></trkpt><trkpt lat="44.406522550261094" lon="9.885797163524552"><ele>513.3333333333334</ele><time>2026-05-02T09:16:44.999Z</time></trkpt><trkpt lat="44.406686778916075" lon="9.885906676799689"><ele>512.6666666666666</ele><time>2026-05-02T09:16:45.999Z</time></trkpt><trkpt lat="44.406863213727924" lon="9.885990667135696"><ele>512.0</ele><time>2026-05-02T09:16:46.999Z</time></trkpt><trkpt lat="44.407041167662385" lon="9.886049249357702"><ele>519.0</ele><time>2026-05-02T09:16:47.999Z</time></trkpt><trkpt lat="44.40721540220012" lon="9.886121289666468"><ele>526.0</ele><time>2026-05-02T09:16:48.999Z</time></trkpt><trkpt lat="44.407395816960516" lon="9.88619913030941"><ele>533.0</ele><time>2026-05-02T09:16:49.999Z</time></trkpt><trkpt lat="44.40756613110153" lon="9.886287445918198"><ele>533.0</ele><time>2026-05-02T09:16:50.999Z</time></trkpt><trkpt lat="44.40772275275384" lon="9.886401381997004"><ele>533.0</ele><time>2026-05-02T09:16:51.999Z</time></trkpt><trkpt lat="44.40787191597218" lon="9.886555674894723"><ele>533.0</ele><time>2026-05-02T09:16:52.999Z</time></trkpt><trkpt lat="44.408022471300285" lon="9.886719857895475"><ele>535.3333333333333</ele><time>2026-05-02T09:16:53.999Z</time></trkpt><trkpt lat="44.4081677349485" lon="9.886911472087064"><ele>537.6666666666666</ele><time>2026-05-02T09:16:54.999Z</time></trkpt><trkpt lat="44.40830184606233" lon="9.887104082860295"><ele>540.0</ele><time>2026-05-02T09:16:55.999Z</time></trkpt><trkpt lat="44.40845929772112" lon="9.88728540804089"><ele>540.0</ele><time>2026-05-02T09:16:56.999Z</time></trkpt><trkpt lat="44.40862682869806" lon="9.887435169646778"><ele>540.0</ele><time>2026-05-02T09:16:57.999Z</time></trkpt><trkpt lat="44.40879793547906" lon="9.88756396531623"><ele>540.0</ele><time>2026-05-02T09:16:58.999Z</time></trkpt><trkpt lat="44.408959022384344" lon="9.887684253096323"><ele>546.0</ele><time>2026-05-02T09:16:59.999Z</time></trkpt><trkpt lat="44.409081747502846" lon="9.887851742805076"><ele>552.0</ele><time>2026-05-02T09:17:00.999Z</time></trkpt><trkpt lat="44.409197249454806" lon="9.88802597531398"><ele>558.0</ele><time>2026-05-02T09:17:01.999Z</time></trkpt><trkpt lat="44.40930720228051" lon="9.888181621686893"><ele>558.0</ele><time>2026-05-02T09:17:02.999Z</time></trkpt><trkpt lat="44.40939519870527" lon="9.88830494964967"><ele>558.0</ele><time>2026-05-02T09:17:03.999Z</time></trkpt><trkpt lat="44.409463397711846" lon="9.888407729682122"><ele>558.0</ele><time>2026-05-02T09:17:04.999Z</time></trkpt><trkpt lat="44.409487941965835" lon="9.888514710265154"><ele>558.0</ele><time>2026-05-02T09:17:05.999Z</time></trkpt><trkpt lat="44.40941741231847" lon="9.88863615091939"><ele>558.0</ele><time>2026-05-02T09:17:06.999Z</time></trkpt><trkpt lat="44.409331667182165" lon="9.88878237463736"><ele>560.6666666666666</ele><time>2026-05-02T09:17:07.999Z</time></trkpt><trkpt lat="44.409237809049095" lon="9.888959767825662"><ele>563.3333333333333</ele><time>2026-05-02T09:17:08.999Z</time></trkpt><trkpt lat="44.409137261614696" lon="9.88913828756418"><ele>566.0</ele><time>2026-05-02T09:17:09.999Z</time></trkpt><trkpt lat="44.409048047265415" lon="9.889315021166883"><ele>568.0</ele><time>2026-05-02T09:17:10.999Z</time></trkpt><trkpt lat="44.408960988996945" lon="9.889482115938094"><ele>570.0</ele><time>2026-05-02T09:17:11.999Z</time></trkpt><trkpt lat="44.40889271530145" lon="9.88965388202912"><ele>572.0</ele><time>2026-05-02T09:17:12.999Z</time></trkpt><trkpt lat="44.40886870392034" lon="9.889846769142121"><ele>574.0</ele><time>2026-05-02T09:17:13.999Z</time></trkpt><trkpt lat="44.408871792381355" lon="9.890058642897925"><ele>570.0</ele><time>2026-05-02T09:17:14.999Z</time></trkpt><trkpt lat="44.408907780703636" lon="9.8902662322635"><ele>566.0</ele><time>2026-05-02T09:17:15.999Z</time></trkpt><trkpt lat="44.4089848107905" lon="9.890459361982783"><ele>562.0</ele><time>2026-05-02T09:17:16.999Z</time></trkpt><trkpt lat="44.40911062949472" lon="9.890647459983015"><ele>562.0</ele><time>2026-05-02T09:17:17.999Z</time></trkpt><trkpt lat="44.409222180296645" lon="9.890818014671806"><ele>562.0</ele><time>2026-05-02T09:17:18.999Z</time></trkpt><trkpt lat="44.40933066956032" lon="9.890980586128858"><ele>562.0</ele><time>2026-05-02T09:17:19.999Z</time></trkpt><trkpt lat="44.409448620878756" lon="9.891105858462693"><ele>566.3333333333334</ele><time>2026-05-02T09:17:20.999Z</time></trkpt><trkpt lat="44.40960713779597" lon="9.891190025144114"><ele>570.6666666666666</ele><time>2026-05-02T09:17:21.999Z</time></trkpt><trkpt lat="44.409784718217956" lon="9.891273666535557"><ele>575.0</ele><time>2026-05-02T09:17:22.999Z</time></trkpt><trkpt lat="44.409962646855185" lon="9.891371361739942"><ele>575.0</ele><time>2026-05-02T09:17:23.999Z</time></trkpt><trkpt lat="44.41014460963259" lon="9.891472310499186"><ele>575.0</ele><time>2026-05-02T09:17:24.999Z</time></trkpt><trkpt lat="44.410334678848706" lon="9.891584206687195"><ele>575.0</ele><time>2026-05-02T09:17:25.999Z</time></trkpt><trkpt lat="44.410524205538465" lon="9.891697338716702"><ele>580.3333333333333</ele><time>2026-05-02T09:17:26.999Z</time></trkpt><trkpt lat="44.41071174682932" lon="9.89181050184407"><ele>585.6666666666666</ele><time>2026-05-02T09:17:27.999Z</time></trkpt><trkpt lat="44.41090078044109" lon="9.891926446987075"><ele>591.0</ele><time>2026-05-02T09:17:28.999Z</time></trkpt><trkpt lat="44.411092855232994" lon="9.892032803799909"><ele>591.0</ele><time>2026-05-02T09:17:29.999Z</time></trkpt><trkpt lat="44.41127378319872" lon="9.892131310690946"><ele>591.0</ele><time>2026-05-02T09:17:30.999Z</time></trkpt><trkpt lat="44.41143564625365" lon="9.892239671228364"><ele>591.0</ele><time>2026-05-02T09:17:31.999Z</time></trkpt><trkpt lat="44.41159046113619" lon="9.89235267824391"><ele>592.0</ele><time>2026-05-02T09:17:32.999Z</time></trkpt><trkpt lat="44.411725731295476" lon="9.892530330157287"><ele>593.0</ele><time>2026-05-02T09:17:33.999Z</time></trkpt><trkpt lat="44.41186024251244" lon="9.892713685071932"><ele>594.0</ele><time>2026-05-02T09:17:34.999Z</time></trkpt><trkpt lat="44.41197473805561" lon="9.892886104829929"><ele>595.0</ele><time>2026-05-02T09:17:35.999Z</time></trkpt><trkpt lat="44.41207150572532" lon="9.893096770920826"><ele>596.0</ele><time>2026-05-02T09:17:36.999Z</time></trkpt><trkpt lat="44.41216577178562" lon="9.893325282348748"><ele>597.0</ele><time>2026-05-02T09:17:37.999Z</time></trkpt><trkpt lat="44.412286506146664" lon="9.89354036990771"><ele>602.3333333333334</ele><time>2026-05-02T09:17:38.999Z</time></trkpt><trkpt lat="44.412411042198734" lon="9.893757020233943"><ele>607.6666666666667</ele><time>2026-05-02T09:17:39.999Z</time></trkpt><trkpt lat="44.41254254623054" lon="9.893951667429906"><ele>613.0</ele><time>2026-05-02T09:17:40.999Z</time></trkpt><trkpt lat="44.41267714361351" lon="9.894113153615777"><ele>613.0</ele><time>2026-05-02T09:17:42Z</time></trkpt><trkpt lat="44.412803337280735" lon="9.894244389762354"><ele>613.0</ele><time>2026-05-02T09:17:43Z</time></trkpt><trkpt lat="44.41290482027534" lon="9.894386819914297"><ele>613.0</ele><time>2026-05-02T09:17:44Z</time></trkpt><trkpt lat="44.41297712662313" lon="9.894556903790413"><ele>613.0</ele><time>2026-05-02T09:17:45Z</time></trkpt><trkpt lat="44.413028203378474" lon="9.894774661650949"><ele>614.3333333333334</ele><time>2026-05-02T09:17:46Z</time></trkpt><trkpt lat="44.41306132512284" lon="9.895022208067553"><ele>615.6666666666666</ele><time>2026-05-02T09:17:47Z</time></trkpt><trkpt lat="44.41309509370101" lon="9.89527865919125"><ele>617.0</ele><time>2026-05-02T09:17:48Z</time></trkpt><trkpt lat="44.41312844159895" lon="9.895546059236386"><ele>617.0</ele><time>2026-05-02T09:17:49Z</time></trkpt><trkpt lat="44.41317510039315" lon="9.895814693035952"><ele>617.0</ele><time>2026-05-02T09:17:50Z</time></trkpt><trkpt lat="44.41320214509422" lon="9.89608147593565"><ele>617.0</ele><time>2026-05-02T09:17:51Z</time></trkpt><trkpt lat="44.41323213425357" lon="9.89634222790056"><ele>615.3333333333333</ele><time>2026-05-02T09:17:52Z</time></trkpt><trkpt lat="44.413271992473035" lon="9.89657914268803"><ele>613.6666666666666</ele><time>2026-05-02T09:17:53Z</time></trkpt><trkpt lat="44.413321170406284" lon="9.896790151123755"><ele>612.0</ele><time>2026-05-02T09:17:54Z</time></trkpt><trkpt lat="44.41337746267666" lon="9.89697564493256"><ele>605.6666666666666</ele><time>2026-05-02T09:17:55Z</time></trkpt><trkpt lat="44.41346458912411" lon="9.89712571369159"><ele>599.3333333333333</ele><time>2026-05-02T09:17:56Z</time></trkpt><trkpt lat="44.413589940598065" lon="9.897241169734794"><ele>593.0</ele><time>2026-05-02T09:17:57Z</time></trkpt><trkpt lat="44.413754489584086" lon="9.897322370078612"><ele>597.6666666666666</ele><time>2026-05-02T09:17:58Z</time></trkpt><trkpt lat="44.413923515403376" lon="9.897391197872581"><ele>602.3333333333334</ele><time>2026-05-02T09:17:59Z</time></trkpt><trkpt lat="44.414077178509096" lon="9.897511159213238"><ele>607.0</ele><time>2026-05-02T09:18:00Z</time></trkpt><trkpt lat="44.414195539889285" lon="9.897677656319487"><ele>607.0</ele><time>2026-05-02T09:18:01Z</time></trkpt><trkpt lat="44.41428209720224" lon="9.897878554928852"><ele>607.0</ele><time>2026-05-02T09:18:02Z</time></trkpt><trkpt lat="44.414331925983824" lon="9.898115523611612"><ele>607.0</ele><time>2026-05-02T09:18:03Z</time></trkpt><trkpt lat="44.41436038840249" lon="9.898378747578853"><ele>603.3333333333334</ele><time>2026-05-02T09:18:04Z</time></trkpt><trkpt lat="44.414389575340614" lon="9.898654854382823"><ele>599.6666666666666</ele><time>2026-05-02T09:18:05Z</time></trkpt><trkpt lat="44.41442121592479" lon="9.898935935571814"><ele>596.0</ele><time>2026-05-02T09:18:06Z</time></trkpt><trkpt lat="44.414453529197814" lon="9.899226299302342"><ele>593.0</ele><time>2026-05-02T09:18:07Z</time></trkpt><trkpt lat="44.41449634540671" lon="9.899449040435373"><ele>590.0</ele><time>2026-05-02T09:18:08Z</time></trkpt><trkpt lat="44.41453200488067" lon="9.89968535980415"><ele>587.0</ele><time>2026-05-02T09:18:09Z</time></trkpt><trkpt lat="44.41459932027945" lon="9.899906354581269"><ele>593.6666666666666</ele><time>2026-05-02T09:18:10Z</time></trkpt><trkpt lat="44.41471530097128" lon="9.90009120933208"><ele>600.3333333333334</ele><time>2026-05-02T09:18:11Z</time></trkpt><trkpt lat="44.414847501638405" lon="9.900257715719915"><ele>607.0</ele><time>2026-05-02T09:18:12Z</time></trkpt><trkpt lat="44.414915354168286" lon="9.90047544079241"><ele>607.0</ele><time>2026-05-02T09:18:13Z</time></trkpt><trkpt lat="44.41500071656103" lon="9.900689532618673"><ele>607.0</ele><time>2026-05-02T09:18:14Z</time></trkpt><trkpt lat="44.41510901223245" lon="9.900889481869664"><ele>607.0</ele><time>2026-05-02T09:18:15Z</time></trkpt><trkpt lat="44.415241343820696" lon="9.90105518444489"><ele>600.0</ele><time>2026-05-02T09:18:16Z</time></trkpt><trkpt lat="44.41536308690695" lon="9.901213798533915"><ele>593.0</ele><time>2026-05-02T09:18:17Z</time></trkpt><trkpt lat="44.41541527028497" lon="9.901434462384744"><ele>586.0</ele><time>2026-05-02T09:18:18Z</time></trkpt><trkpt lat="44.41547585218512" lon="9.901658922877594"><ele>590.3333333333334</ele><time>2026-05-02T09:18:19Z</time></trkpt><trkpt lat="44.41555344525039" lon="9.901862805886326"><ele>594.6666666666666</ele><time>2026-05-02T09:18:20Z</time></trkpt><trkpt lat="44.415631199168644" lon="9.902052287733737"><ele>599.0</ele><time>2026-05-02T09:18:21Z</time></trkpt><trkpt lat="44.415732470906676" lon="9.902194511788029"><ele>599.0</ele><time>2026-05-02T09:18:22Z</time></trkpt><trkpt lat="44.41587447058838" lon="9.902285621218395"><ele>599.0</ele><time>2026-05-02T09:18:23Z</time></trkpt><trkpt lat="44.41604046631198" lon="9.902323746461457"><ele>599.0</ele><time>2026-05-02T09:18:24Z</time></trkpt><trkpt lat="44.4162335949413" lon="9.902314413666929"><ele>600.6666666666666</ele><time>2026-05-02T09:18:25Z</time></trkpt><trkpt lat="44.41642809789814" lon="9.902335580372718"><ele>602.3333333333334</ele><time>2026-05-02T09:18:26Z</time></trkpt><trkpt lat="44.4166236790219" lon="9.90236331902295"><ele>604.0</ele><time>2026-05-02T09:18:27Z</time></trkpt><trkpt lat="44.41680243668645" lon="9.902392261869924"><ele>604.0</ele><time>2026-05-02T09:18:28Z</time></trkpt><trkpt lat="44.41697874656854" lon="9.902429675235163"><ele>604.0</ele><time>2026-05-02T09:18:29Z</time></trkpt><trkpt lat="44.417129187018844" lon="9.902453949061258"><ele>604.0</ele><time>2026-05-02T09:18:30Z</time></trkpt><trkpt lat="44.417235853506" lon="9.902536917235127"><ele>601.5</ele><time>2026-05-02T09:18:31Z</time></trkpt><trkpt lat="44.41730643040338" lon="9.902677885421133"><ele>599.0</ele><time>2026-05-02T09:18:32Z</time></trkpt><trkpt lat="44.41738517945821" lon="9.902855558960837"><ele>596.5</ele><time>2026-05-02T09:18:33Z</time></trkpt><trkpt lat="44.417496187615505" lon="9.903005994358104"><ele>594.0</ele><time>2026-05-02T09:18:34Z</time></trkpt><trkpt lat="44.41760386579863" lon="9.90314358459947"><ele>594.0</ele><time>2026-05-02T09:18:35Z</time></trkpt><trkpt lat="44.41774826204121" lon="9.903207315323584"><ele>594.0</ele><time>2026-05-02T09:18:36Z</time></trkpt><trkpt lat="44.41791077002641" lon="9.903264665522455"><ele>594.0</ele><time>2026-05-02T09:18:37Z</time></trkpt><trkpt lat="44.41806750219796" lon="9.903317516894742"><ele>595.0</ele><time>2026-05-02T09:18:38Z</time></trkpt><trkpt lat="44.418211743910796" lon="9.90335552002781"><ele>596.0</ele><time>2026-05-02T09:18:39Z</time></trkpt><trkpt lat="44.41835500099193" lon="9.90336346795611"><ele>597.0</ele><time>2026-05-02T09:18:40Z</time></trkpt><trkpt lat="44.418506293903974" lon="9.903324305322386"><ele>598.0</ele><time>2026-05-02T09:18:41Z</time></trkpt><trkpt lat="44.418651765295714" lon="9.903266824458548"><ele>598.0</ele><time>2026-05-02T09:18:42Z</time></trkpt><trkpt lat="44.418789182687405" lon="9.903210203817002"><ele>598.0</ele><time>2026-05-02T09:18:43Z</time></trkpt><trkpt lat="44.41891960200019" lon="9.90317137472125"><ele>598.0</ele><time>2026-05-02T09:18:43.999Z</time></trkpt><trkpt lat="44.41904375063697" lon="9.903208884907944"><ele>598.0</ele><time>2026-05-02T09:18:44.999Z</time></trkpt><trkpt lat="44.41916531846762" lon="9.903299576834264"><ele>599.3333333333334</ele><time>2026-05-02T09:18:45.999Z</time></trkpt><trkpt lat="44.419287802489364" lon="9.903430916671958"><ele>600.6666666666666</ele><time>2026-05-02T09:18:46.999Z</time></trkpt><trkpt lat="44.419420691029345" lon="9.903573101283762"><ele>602.0</ele><time>2026-05-02T09:18:47.999Z</time></trkpt><trkpt lat="44.419568180478976" lon="9.903697697029026"><ele>605.6666666666666</ele><time>2026-05-02T09:18:48.999Z</time></trkpt><trkpt lat="44.419720836459824" lon="9.903808964828418"><ele>609.3333333333334</ele><time>2026-05-02T09:18:49.999Z</time></trkpt><trkpt lat="44.41985255489314" lon="9.903902077259385"><ele>613.0</ele><time>2026-05-02T09:18:50.999Z</time></trkpt><trkpt lat="44.41997648703809" lon="9.904026015884163"><ele>613.0</ele><time>2026-05-02T09:18:51.999Z</time></trkpt><trkpt lat="44.42007979210008" lon="9.90417712099025"><ele>613.0</ele><time>2026-05-02T09:18:52.999Z</time></trkpt><trkpt lat="44.42018098742825" lon="9.904372754457"><ele>613.0</ele><time>2026-05-02T09:18:53.999Z</time></trkpt><trkpt lat="44.42029832921199" lon="9.904541550333123"><ele>612.3333333333334</ele><time>2026-05-02T09:18:54.999Z</time></trkpt><trkpt lat="44.42041666885998" lon="9.904708450422559"><ele>611.6666666666666</ele><time>2026-05-02T09:18:55.999Z</time></trkpt><trkpt lat="44.42055959822418" lon="9.904846375412603"><ele>611.0</ele><time>2026-05-02T09:18:56.999Z</time></trkpt><trkpt lat="44.420715265476346" lon="9.904933591802854"><ele>612.3333333333333</ele><time>2026-05-02T09:18:57.999Z</time></trkpt><trkpt lat="44.42088121541375" lon="9.904971057055196"><ele>613.6666666666666</ele><time>2026-05-02T09:18:58.999Z</time></trkpt><trkpt lat="44.421051035502444" lon="9.904954273658863"><ele>615.0</ele><time>2026-05-02T09:18:59.999Z</time></trkpt><trkpt lat="44.42121825945879" lon="9.904888616364374"><ele>618.6666666666666</ele><time>2026-05-02T09:19:00.999Z</time></trkpt><trkpt lat="44.42139141059078" lon="9.904833030158583"><ele>622.3333333333333</ele><time>2026-05-02T09:19:01.999Z</time></trkpt><trkpt lat="44.42157175694236" lon="9.904786768364573"><ele>626.0</ele><time>2026-05-02T09:19:02.999Z</time></trkpt><trkpt lat="44.4217561812067" lon="9.904783983681789"><ele>626.0</ele><time>2026-05-02T09:19:03.999Z</time></trkpt><trkpt lat="44.42194330109754" lon="9.904761554969424"><ele>626.0</ele><time>2026-05-02T09:19:04.999Z</time></trkpt><trkpt lat="44.422116436626204" lon="9.904728744513744"><ele>626.0</ele><time>2026-05-02T09:19:05.999Z</time></trkpt><trkpt lat="44.42229054413725" lon="9.904669960371907"><ele>627.0</ele><time>2026-05-02T09:19:06.999Z</time></trkpt><trkpt lat="44.42243636488986" lon="9.904544571808167"><ele>628.0</ele><time>2026-05-02T09:19:07.999Z</time></trkpt><trkpt lat="44.42256587474118" lon="9.904374403677053"><ele>629.0</ele><time>2026-05-02T09:19:08.999Z</time></trkpt><trkpt lat="44.422686566298374" lon="9.904213318160728"><ele>629.0</ele><time>2026-05-02T09:19:09.999Z</time></trkpt><trkpt lat="44.422821827418865" lon="9.904121149198078"><ele>629.0</ele><time>2026-05-02T09:19:10.999Z</time></trkpt><trkpt lat="44.42296991871696" lon="9.904074148935695"><ele>629.0</ele><time>2026-05-02T09:19:11.999Z</time></trkpt><trkpt lat="44.42313375209494" lon="9.90405980458157"><ele>631.0</ele><time>2026-05-02T09:19:12.999Z</time></trkpt><trkpt lat="44.42330574017992" lon="9.904063515030238"><ele>633.0</ele><time>2026-05-02T09:19:13.999Z</time></trkpt><trkpt lat="44.42346887619238" lon="9.904102170071978"><ele>635.0</ele><time>2026-05-02T09:19:14.999Z</time></trkpt><trkpt lat="44.423646169251846" lon="9.90415516452065"><ele>636.6666666666666</ele><time>2026-05-02T09:19:15.999Z</time></trkpt><trkpt lat="44.423815035444655" lon="9.904243586393315"><ele>638.3333333333334</ele><time>2026-05-02T09:19:16.999Z</time></trkpt><trkpt lat="44.42397361287096" lon="9.904336074142664"><ele>640.0</ele><time>2026-05-02T09:19:17.999Z</time></trkpt><trkpt lat="44.424102429497225" lon="9.904440597471156"><ele>640.0</ele><time>2026-05-02T09:19:18.999Z</time></trkpt><trkpt lat="44.424189222781244" lon="9.9045857383103"><ele>640.0</ele><time>2026-05-02T09:19:19.999Z</time></trkpt><trkpt lat="44.42420294872802" lon="9.904780177345874"><ele>640.0</ele><time>2026-05-02T09:19:20.999Z</time></trkpt><trkpt lat="44.424257734906874" lon="9.90498798999486"><ele>640.0</ele><time>2026-05-02T09:19:21.999Z</time></trkpt><trkpt lat="44.42428989682026" lon="9.905208379914235"><ele>635.6666666666667</ele><time>2026-05-02T09:19:22.999Z</time></trkpt><trkpt lat="44.42438908972306" lon="9.905416222857982"><ele>631.3333333333334</ele><time>2026-05-02T09:19:23.999Z</time></trkpt><trkpt lat="44.424504311360685" lon="9.905608983120047"><ele>627.0</ele><time>2026-05-02T09:19:24.999Z</time></trkpt><trkpt lat="44.424628072853075" lon="9.905784808963524"><ele>629.3333333333334</ele><time>2026-05-02T09:19:25.999Z</time></trkpt><trkpt lat="44.424768697011864" lon="9.905929414911443"><ele>631.6666666666667</ele><time>2026-05-02T09:19:26.999Z</time></trkpt><trkpt lat="44.42492501130778" lon="9.90604779528437"><ele>634.0</ele><time>2026-05-02T09:19:27.999Z</time></trkpt><trkpt lat="44.42508806227037" lon="9.906153759466756"><ele>634.0</ele><time>2026-05-02T09:19:28.999Z</time></trkpt><trkpt lat="44.42524808871204" lon="9.906261752106698"><ele>634.0</ele><time>2026-05-02T09:19:29.999Z</time></trkpt><trkpt lat="44.42536275064163" lon="9.906428845444868"><ele>634.0</ele><time>2026-05-02T09:19:30.999Z</time></trkpt><trkpt lat="44.425481932035005" lon="9.906615774568714"><ele>638.6666666666667</ele><time>2026-05-02T09:19:31.999Z</time></trkpt><trkpt lat="44.42560625750056" lon="9.906806051971275"><ele>643.3333333333334</ele><time>2026-05-02T09:19:32.999Z</time></trkpt><trkpt lat="44.42571987739415" lon="9.90700152648631"><ele>648.0</ele><time>2026-05-02T09:19:33.999Z</time></trkpt><trkpt lat="44.42579896259699" lon="9.907216989822329"><ele>648.0</ele><time>2026-05-02T09:19:34.999Z</time></trkpt><trkpt lat="44.42586634990847" lon="9.907425191236719"><ele>648.0</ele><time>2026-05-02T09:19:35.999Z</time></trkpt><trkpt lat="44.42594100133544" lon="9.907605500938253"><ele>648.0</ele><time>2026-05-02T09:19:36.999Z</time></trkpt><trkpt lat="44.42601397808545" lon="9.907753355952643"><ele>648.0</ele><time>2026-05-02T09:19:37.999Z</time></trkpt><trkpt lat="44.42610025187753" lon="9.907849518401012"><ele>647.5</ele><time>2026-05-02T09:19:38.999Z</time></trkpt><trkpt lat="44.42621233936393" lon="9.907877929083496"><ele>647.0</ele><time>2026-05-02T09:19:39.999Z</time></trkpt><trkpt lat="44.426348871861755" lon="9.90782635904596"><ele>646.5</ele><time>2026-05-02T09:19:40.999Z</time></trkpt><trkpt lat="44.426489728626294" lon="9.90773134417625"><ele>646.0</ele><time>2026-05-02T09:19:41.999Z</time></trkpt><trkpt lat="44.42663387436575" lon="9.907648085226388"><ele>646.0</ele><time>2026-05-02T09:19:42.999Z</time></trkpt><trkpt lat="44.426779592683275" lon="9.90764626688247"><ele>646.0</ele><time>2026-05-02T09:19:43.999Z</time></trkpt><trkpt lat="44.42691451822581" lon="9.907708169827279"><ele>646.0</ele><time>2026-05-02T09:19:44.999Z</time></trkpt><trkpt lat="44.42708109794689" lon="9.907760220880592"><ele>649.3333333333334</ele><time>2026-05-02T09:19:45.999Z</time></trkpt><trkpt lat="44.427241405851944" lon="9.90783995568858"><ele>652.6666666666666</ele><time>2026-05-02T09:19:46.999Z</time></trkpt><trkpt lat="44.427419965752044" lon="9.907925740032297"><ele>656.0</ele><time>2026-05-02T09:19:48Z</time></trkpt><trkpt lat="44.427595588730725" lon="9.90800387195317"><ele>656.0</ele><time>2026-05-02T09:19:49Z</time></trkpt><trkpt lat="44.42775770477985" lon="9.908073708315472"><ele>656.0</ele><time>2026-05-02T09:19:50Z</time></trkpt><trkpt lat="44.42792073041259" lon="9.908118772962002"><ele>656.0</ele><time>2026-05-02T09:19:51Z</time></trkpt><trkpt lat="44.42807544996955" lon="9.908187514357433"><ele>656.3333333333333</ele><time>2026-05-02T09:19:52Z</time></trkpt><trkpt lat="44.428228950178884" lon="9.908289481559011"><ele>656.6666666666666</ele><time>2026-05-02T09:19:53Z</time></trkpt><trkpt lat="44.42838435102301" lon="9.908377882708228"><ele>657.0</ele><time>2026-05-02T09:19:54Z</time></trkpt><trkpt lat="44.428534740852136" lon="9.908461254226014"><ele>657.0</ele><time>2026-05-02T09:19:55Z</time></trkpt><trkpt lat="44.42868581183249" lon="9.908513185565065"><ele>657.0</ele><time>2026-05-02T09:19:56Z</time></trkpt><trkpt lat="44.42884089113697" lon="9.90852391490887"><ele>657.0</ele><time>2026-05-02T09:19:57Z</time></trkpt><trkpt lat="44.42900515858548" lon="9.908490200318486"><ele>657.3333333333334</ele><time>2026-05-02T09:19:58Z</time></trkpt><trkpt lat="44.42917351559303" lon="9.90843212688043"><ele>657.6666666666667</ele><time>2026-05-02T09:19:59Z</time></trkpt><trkpt lat="44.429332602198905" lon="9.908381055121314"><ele>658.0</ele><time>2026-05-02T09:20:00Z</time></trkpt><trkpt lat="44.429480173403306" lon="9.908364026693748"><ele>658.0</ele><time>2026-05-02T09:20:01Z</time></trkpt><trkpt lat="44.42961654334841" lon="9.90841522347941"><ele>658.0</ele><time>2026-05-02T09:20:02Z</time></trkpt><trkpt lat="44.4296980902935" lon="9.908572969497383"><ele>658.0</ele><time>2026-05-02T09:20:03Z</time></trkpt><trkpt lat="44.429797541917914" lon="9.908678223917278"><ele>658.0</ele><time>2026-05-02T09:20:04Z</time></trkpt><trkpt lat="44.42990984390092" lon="9.90874828544611"><ele>659.0</ele><time>2026-05-02T09:20:05Z</time></trkpt><trkpt lat="44.4300611519642" lon="9.908743160377817"><ele>660.0</ele><time>2026-05-02T09:20:06Z</time></trkpt><trkpt lat="44.43020155543164" lon="9.908719094760267"><ele>661.0</ele><time>2026-05-02T09:20:07Z</time></trkpt><trkpt lat="44.43032846469742" lon="9.90863028926886"><ele>662.0</ele><time>2026-05-02T09:20:08Z</time></trkpt><trkpt lat="44.43045235825189" lon="9.908493902215465"><ele>666.3333333333333</ele><time>2026-05-02T09:20:09Z</time></trkpt><trkpt lat="44.430586051997444" lon="9.908363560277566"><ele>670.6666666666666</ele><time>2026-05-02T09:20:10Z</time></trkpt><trkpt lat="44.430733715397416" lon="9.90824908056468"><ele>675.0</ele><time>2026-05-02T09:20:11Z</time></trkpt><trkpt lat="44.430882069624076" lon="9.908141515085934"><ele>675.0</ele><time>2026-05-02T09:20:12Z</time></trkpt><trkpt lat="44.43101962619968" lon="9.90805372422182"><ele>675.0</ele><time>2026-05-02T09:20:13Z</time></trkpt><trkpt lat="44.431163880410196" lon="9.908048041751147"><ele>675.0</ele><time>2026-05-02T09:20:14Z</time></trkpt><trkpt lat="44.43131585238646" lon="9.908025500110776"><ele>675.0</ele><time>2026-05-02T09:20:15Z</time></trkpt><trkpt lat="44.4314627539608" lon="9.90803686707873"><ele>674.0</ele><time>2026-05-02T09:20:16Z</time></trkpt><trkpt lat="44.431587343183" lon="9.908045088065665"><ele>673.0</ele><time>2026-05-02T09:20:17Z</time></trkpt><trkpt lat="44.43171290291712" lon="9.908058618435666"><ele>672.0</ele><time>2026-05-02T09:20:18Z</time></trkpt><trkpt lat="44.43184652380849" lon="9.908061218906004"><ele>671.0</ele><time>2026-05-02T09:20:19Z</time></trkpt><trkpt lat="44.43199842582677" lon="9.908057454923"><ele>674.3333333333333</ele><time>2026-05-02T09:20:20Z</time></trkpt><trkpt lat="44.43215115581196" lon="9.908064038016045"><ele>677.6666666666666</ele><time>2026-05-02T09:20:21Z</time></trkpt><trkpt lat="44.43231169403845" lon="9.9080869401795"><ele>681.0</ele><time>2026-05-02T09:20:22Z</time></trkpt><trkpt lat="44.43247053391451" lon="9.908165575752443"><ele>681.0</ele><time>2026-05-02T09:20:23Z</time></trkpt><trkpt lat="44.43261696884454" lon="9.90826892425442"><ele>681.0</ele><time>2026-05-02T09:20:24Z</time></trkpt><trkpt lat="44.43275069480028" lon="9.908364455664755"><ele>681.0</ele><time>2026-05-02T09:20:25Z</time></trkpt><trkpt lat="44.4328820453898" lon="9.908431714478436"><ele>681.75</ele><time>2026-05-02T09:20:26Z</time></trkpt><trkpt lat="44.433011239171435" lon="9.908438322799638"><ele>682.5</ele><time>2026-05-02T09:20:27Z</time></trkpt><trkpt lat="44.43312967702325" lon="9.908354924127888"><ele>683.25</ele><time>2026-05-02T09:20:28Z</time></trkpt><trkpt lat="44.433237908472805" lon="9.908224670996146"><ele>684.0</ele><time>2026-05-02T09:20:29Z</time></trkpt><trkpt lat="44.43329767645159" lon="9.908061501870892"><ele>684.0</ele><time>2026-05-02T09:20:30Z</time></trkpt><trkpt lat="44.43337819913318" lon="9.90792316106735"><ele>684.0</ele><time>2026-05-02T09:20:31Z</time></trkpt><trkpt lat="44.4334681844583" lon="9.907877422540999"><ele>684.0</ele><time>2026-05-02T09:20:32Z</time></trkpt><trkpt lat="44.43356276414398" lon="9.907857911911941"><ele>684.0</ele><time>2026-05-02T09:20:33Z</time></trkpt><trkpt lat="44.433654333724455" lon="9.907976779727493"><ele>684.0</ele><time>2026-05-02T09:20:34Z</time></trkpt><trkpt lat="44.43374546922007" lon="9.90812241146149"><ele>683.6666666666666</ele><time>2026-05-02T09:20:35Z</time></trkpt><trkpt lat="44.433831282306016" lon="9.908327391166049"><ele>683.3333333333333</ele><time>2026-05-02T09:20:36Z</time></trkpt><trkpt lat="44.43392418961649" lon="9.908511779672615"><ele>683.0</ele><time>2026-05-02T09:20:37Z</time></trkpt><trkpt lat="44.43401876929806" lon="9.908680815026852"><ele>685.6666666666666</ele><time>2026-05-02T09:20:38Z</time></trkpt><trkpt lat="44.43411918043349" lon="9.908843550175876"><ele>688.3333333333334</ele><time>2026-05-02T09:20:39Z</time></trkpt><trkpt lat="44.43424067969019" lon="9.908967014862121"><ele>691.0</ele><time>2026-05-02T09:20:40Z</time></trkpt><trkpt lat="44.43439047483153" lon="9.909040126178668"><ele>691.0</ele><time>2026-05-02T09:20:41Z</time></trkpt><trkpt lat="44.434553132359035" lon="9.909058206554729"><ele>691.0</ele><time>2026-05-02T09:20:42Z</time></trkpt><trkpt lat="44.434702585760895" lon="9.909044931371275"><ele>691.0</ele><time>2026-05-02T09:20:43Z</time></trkpt><trkpt lat="44.434836300976926" lon="9.909065762665922"><ele>691.0</ele><time>2026-05-02T09:20:44Z</time></trkpt><trkpt lat="44.4349496631127" lon="9.909146605716728"><ele>693.25</ele><time>2026-05-02T09:20:45Z</time></trkpt><trkpt lat="44.43504005389196" lon="9.9093115343284"><ele>695.5</ele><time>2026-05-02T09:20:46Z</time></trkpt><trkpt lat="44.43511180226749" lon="9.909489181148002"><ele>697.75</ele><time>2026-05-02T09:20:46.999Z</time></trkpt><trkpt lat="44.43520719160726" lon="9.909642159098125"><ele>700.0</ele><time>2026-05-02T09:20:47.999Z</time></trkpt><trkpt lat="44.43534200760325" lon="9.909765795737847"><ele>699.6666666666667</ele><time>2026-05-02T09:20:48.999Z</time></trkpt><trkpt lat="44.43549543583007" lon="9.909859827887507"><ele>699.3333333333334</ele><time>2026-05-02T09:20:49.999Z</time></trkpt><trkpt lat="44.435659818570876" lon="9.909957987975966"><ele>699.0</ele><time>2026-05-02T09:20:50.999Z</time></trkpt><trkpt lat="44.435831641781164" lon="9.910054014007855"><ele>703.0</ele><time>2026-05-02T09:20:51.999Z</time></trkpt><trkpt lat="44.435986125940396" lon="9.91014277517467"><ele>707.0</ele><time>2026-05-02T09:20:52.999Z</time></trkpt><trkpt lat="44.43614258111212" lon="9.910234581940887"><ele>711.0</ele><time>2026-05-02T09:20:53.999Z</time></trkpt><trkpt lat="44.43629882330187" lon="9.9103289272748"><ele>711.0</ele><time>2026-05-02T09:20:54.999Z</time></trkpt><trkpt lat="44.43644703151229" lon="9.910406624079187"><ele>711.0</ele><time>2026-05-02T09:20:55.999Z</time></trkpt><trkpt lat="44.436594804370145" lon="9.910451738164067"><ele>711.0</ele><time>2026-05-02T09:20:56.999Z</time></trkpt><trkpt lat="44.436737818780635" lon="9.910438426130911"><ele>711.0</ele><time>2026-05-02T09:20:57.999Z</time></trkpt><trkpt lat="44.436881069566546" lon="9.910370621225528"><ele>711.0</ele><time>2026-05-02T09:20:58.999Z</time></trkpt><trkpt lat="44.43701962214057" lon="9.910261855496456"><ele>711.0</ele><time>2026-05-02T09:20:59.999Z</time></trkpt><trkpt lat="44.4371444263029" lon="9.910121014051983"><ele>710.0</ele><time>2026-05-02T09:21:00.999Z</time></trkpt><trkpt lat="44.43727859141164" lon="9.909949747645339"><ele>709.0</ele><time>2026-05-02T09:21:01.999Z</time></trkpt><trkpt lat="44.43743296621088" lon="9.909790297219015"><ele>708.0</ele><time>2026-05-02T09:21:02.999Z</time></trkpt><trkpt lat="44.43763337292132" lon="9.909659818807873"><ele>708.0</ele><time>2026-05-02T09:21:03.999Z</time></trkpt><trkpt lat="44.43781765204211" lon="9.909659646982611"><ele>708.0</ele><time>2026-05-02T09:21:05.999Z</time></trkpt><trkpt lat="44.43798991763952" lon="9.909736547444146"><ele>708.0</ele><time>2026-05-02T09:21:06.999Z</time></trkpt><trkpt lat="44.43817176935917" lon="9.90975647023743"><ele>709.3333333333334</ele><time>2026-05-02T09:21:07.999Z</time></trkpt><trkpt lat="44.43836258490273" lon="9.909793743059094"><ele>710.6666666666667</ele><time>2026-05-02T09:21:08.999Z</time></trkpt><trkpt lat="44.43854674485479" lon="9.909833239111396"><ele>712.0</ele><time>2026-05-02T09:21:09.999Z</time></trkpt><trkpt lat="44.43872450403574" lon="9.90985953700799"><ele>711.75</ele><time>2026-05-02T09:21:10.999Z</time></trkpt><trkpt lat="44.43888313693642" lon="9.909856902362081"><ele>711.5</ele><time>2026-05-02T09:21:11.999Z</time></trkpt><trkpt lat="44.43903200969472" lon="9.90985126229246"><ele>711.25</ele><time>2026-05-02T09:21:12.999Z</time></trkpt><trkpt lat="44.43916335948292" lon="9.909908406542478"><ele>711.0</ele><time>2026-05-02T09:21:13.999Z</time></trkpt><trkpt lat="44.43926905237126" lon="9.910001390653466"><ele>712.0</ele><time>2026-05-02T09:21:14.999Z</time></trkpt><trkpt lat="44.439349154385646" lon="9.910130417825629"><ele>713.0</ele><time>2026-05-02T09:21:15.999Z</time></trkpt><trkpt lat="44.43938883596868" lon="9.910319663115606"><ele>714.0</ele><time>2026-05-02T09:21:16.999Z</time></trkpt><trkpt lat="44.43946584294857" lon="9.91046382994556"><ele>715.0</ele><time>2026-05-02T09:21:17.999Z</time></trkpt><trkpt lat="44.439599063480905" lon="9.910540036352941"><ele>715.3333333333334</ele><time>2026-05-02T09:21:18.999Z</time></trkpt><trkpt lat="44.439752034914484" lon="9.910557356196495"><ele>715.6666666666666</ele><time>2026-05-02T09:21:19.999Z</time></trkpt><trkpt lat="44.439926152987596" lon="9.910502684380337"><ele>716.0</ele><time>2026-05-02T09:21:20.999Z</time></trkpt><trkpt lat="44.44009797197998" lon="9.91047271504831"><ele>716.0</ele><time>2026-05-02T09:21:21.999Z</time></trkpt><trkpt lat="44.44026194863476" lon="9.910456840293204"><ele>716.0</ele><time>2026-05-02T09:21:22.999Z</time></trkpt><trkpt lat="44.440420455997355" lon="9.910436109333423"><ele>716.0</ele><time>2026-05-02T09:21:23.999Z</time></trkpt><trkpt lat="44.44057800259364" lon="9.91039827116227"><ele>720.3333333333333</ele><time>2026-05-02T09:21:24.999Z</time></trkpt><trkpt lat="44.440731447848194" lon="9.910344922139606"><ele>724.6666666666666</ele><time>2026-05-02T09:21:25.999Z</time></trkpt><trkpt lat="44.44087815297662" lon="9.910288357235913"><ele>729.0</ele><time>2026-05-02T09:21:26.999Z</time></trkpt><trkpt lat="44.441021909996785" lon="9.910223201314304"><ele>729.0</ele><time>2026-05-02T09:21:27.999Z</time></trkpt><trkpt lat="44.44116238324546" lon="9.910137193554924"><ele>729.0</ele><time>2026-05-02T09:21:28.999Z</time></trkpt><trkpt lat="44.44129109259359" lon="9.910016599409483"><ele>729.0</ele><time>2026-05-02T09:21:29.999Z</time></trkpt><trkpt lat="44.44141520321543" lon="9.909860638770704"><ele>730.6666666666666</ele><time>2026-05-02T09:21:30.999Z</time></trkpt><trkpt lat="44.44153799239373" lon="9.90971011294955"><ele>732.3333333333333</ele><time>2026-05-02T09:21:31.999Z</time></trkpt><trkpt lat="44.441658926016316" lon="9.909565360027065"><ele>734.0</ele><time>2026-05-02T09:21:32.999Z</time></trkpt><trkpt lat="44.44176332158543" lon="9.909441113143908"><ele>734.0</ele><time>2026-05-02T09:21:33.999Z</time></trkpt><trkpt lat="44.44185045669805" lon="9.909351560186995"><ele>734.0</ele><time>2026-05-02T09:21:34.999Z</time></trkpt><trkpt lat="44.44195079849694" lon="9.90934990724324"><ele>734.0</ele><time>2026-05-02T09:21:35.999Z</time></trkpt><trkpt lat="44.442043764494095" lon="9.909406307431633"><ele>734.0</ele><time>2026-05-02T09:21:36.999Z</time></trkpt><trkpt lat="44.44212092902528" lon="9.909538643803401"><ele>734.0</ele><time>2026-05-02T09:21:37.999Z</time></trkpt><trkpt lat="44.44220952320983" lon="9.90970219168893"><ele>735.25</ele><time>2026-05-02T09:21:38.999Z</time></trkpt><trkpt lat="44.44231651601634" lon="9.90984543093913"><ele>736.5</ele><time>2026-05-02T09:21:39.999Z</time></trkpt><trkpt lat="44.44244775743569" lon="9.90994746152971"><ele>737.75</ele><time>2026-05-02T09:21:40.999Z</time></trkpt><trkpt lat="44.44259276169039" lon="9.909989872928529"><ele>739.0</ele><time>2026-05-02T09:21:41.999Z</time></trkpt><trkpt lat="44.44273870153772" lon="9.909987116313546"><ele>739.0</ele><time>2026-05-02T09:21:42.999Z</time></trkpt><trkpt lat="44.442884227646246" lon="9.909956862854628"><ele>739.0</ele><time>2026-05-02T09:21:43.999Z</time></trkpt><trkpt lat="44.44303616381067" lon="9.909903791499408"><ele>739.0</ele><time>2026-05-02T09:21:44.999Z</time></trkpt><trkpt lat="44.44317891892217" lon="9.909838165892536"><ele>742.25</ele><time>2026-05-02T09:21:45.999Z</time></trkpt><trkpt lat="44.44331836022343" lon="9.90977664254566"><ele>745.5</ele><time>2026-05-02T09:21:46.999Z</time></trkpt><trkpt lat="44.44344971339119" lon="9.909703626196597"><ele>748.75</ele><time>2026-05-02T09:21:47.999Z</time></trkpt><trkpt lat="44.4435630423871" lon="9.909585723163577"><ele>752.0</ele><time>2026-05-02T09:21:48.999Z</time></trkpt><trkpt lat="44.44365638602314" lon="9.909427947397186"><ele>752.0</ele><time>2026-05-02T09:21:49.999Z</time></trkpt><trkpt lat="44.44374311451097" lon="9.909253006005088"><ele>752.0</ele><time>2026-05-02T09:21:50.999Z</time></trkpt><trkpt lat="44.443823396044465" lon="9.909060264294007"><ele>752.0</ele><time>2026-05-02T09:21:51.999Z</time></trkpt><trkpt lat="44.44388958550019" lon="9.908852387036072"><ele>755.3333333333333</ele><time>2026-05-02T09:21:52.999Z</time></trkpt><trkpt lat="44.44393397560055" lon="9.90862716377034"><ele>758.6666666666666</ele><time>2026-05-02T09:21:54Z</time></trkpt><trkpt lat="44.443958375990086" lon="9.908406199309729"><ele>762.0</ele><time>2026-05-02T09:21:55Z</time></trkpt><trkpt lat="44.44397128617642" lon="9.908193352169949"><ele>763.0</ele><time>2026-05-02T09:21:56Z</time></trkpt><trkpt lat="44.444066927750924" lon="9.908037944733328"><ele>764.0</ele><time>2026-05-02T09:21:57Z</time></trkpt><trkpt lat="44.444165264523164" lon="9.907876733385942"><ele>765.0</ele><time>2026-05-02T09:21:58Z</time></trkpt><trkpt lat="44.44428762254797" lon="9.907718739088153"><ele>762.75</ele><time>2026-05-02T09:21:59Z</time></trkpt><trkpt lat="44.44439244495959" lon="9.907559382927216"><ele>760.5</ele><time>2026-05-02T09:22:00Z</time></trkpt><trkpt lat="44.444476965225604" lon="9.907394289675608"><ele>758.25</ele><time>2026-05-02T09:22:01Z</time></trkpt><trkpt lat="44.4445340784385" lon="9.90721011735554"><ele>756.0</ele><time>2026-05-02T09:22:02Z</time></trkpt><trkpt lat="44.444541457565165" lon="9.907009275653689"><ele>756.0</ele><time>2026-05-02T09:22:03Z</time></trkpt><trkpt lat="44.44450749434832" lon="9.906806843971305"><ele>756.0</ele><time>2026-05-02T09:22:04Z</time></trkpt><trkpt lat="44.444432955876735" lon="9.906632579675083"><ele>756.0</ele><time>2026-05-02T09:22:05Z</time></trkpt><trkpt lat="44.44437225253043" lon="9.90645698017831"><ele>756.0</ele><time>2026-05-02T09:22:06Z</time></trkpt><trkpt lat="44.444379746406504" lon="9.90626853109938"><ele>755.75</ele><time>2026-05-02T09:22:07Z</time></trkpt><trkpt lat="44.44442252803034" lon="9.906082627511081"><ele>755.5</ele><time>2026-05-02T09:22:08Z</time></trkpt><trkpt lat="44.444468423236295" lon="9.905900329669635"><ele>755.25</ele><time>2026-05-02T09:22:09Z</time></trkpt><trkpt lat="44.44454811050769" lon="9.905765019367593"><ele>755.0</ele><time>2026-05-02T09:22:10Z</time></trkpt><trkpt lat="44.44463554575217" lon="9.905675650515342"><ele>759.75</ele><time>2026-05-02T09:22:11Z</time></trkpt><trkpt lat="44.44473584692177" lon="9.90563868943932"><ele>764.5</ele><time>2026-05-02T09:22:12Z</time></trkpt><trkpt lat="44.44485447580778" lon="9.90566388601075"><ele>769.25</ele><time>2026-05-02T09:22:13Z</time></trkpt><trkpt lat="44.44496784612165" lon="9.905753043959459"><ele>774.0</ele><time>2026-05-02T09:22:14Z</time></trkpt><trkpt lat="44.445083885036965" lon="9.905871883370553"><ele>777.3333333333333</ele><time>2026-05-02T09:22:15Z</time></trkpt><trkpt lat="44.445220223347974" lon="9.905957237521166"><ele>780.6666666666666</ele><time>2026-05-02T09:22:16Z</time></trkpt><trkpt lat="44.44537152340375" lon="9.906016100374556"><ele>784.0</ele><time>2026-05-02T09:22:17Z</time></trkpt><trkpt lat="44.445535932517075" lon="9.906063331826292"><ele>788.0</ele><time>2026-05-02T09:22:18Z</time></trkpt><trkpt lat="44.4457022927381" lon="9.90611189020436"><ele>792.0</ele><time>2026-05-02T09:22:19Z</time></trkpt><trkpt lat="44.44586790801913" lon="9.906163204365619"><ele>796.0</ele><time>2026-05-02T09:22:20Z</time></trkpt><trkpt lat="44.44603375718709" lon="9.90621500994484"><ele>796.0</ele><time>2026-05-02T09:22:21Z</time></trkpt><trkpt lat="44.44619449661346" lon="9.906268894937076"><ele>796.0</ele><time>2026-05-02T09:22:22Z</time></trkpt><trkpt lat="44.44632679321167" lon="9.90630852852733"><ele>796.0</ele><time>2026-05-02T09:22:23Z</time></trkpt><trkpt lat="44.44645219526835" lon="9.906326899733195"><ele>796.0</ele><time>2026-05-02T09:22:24Z</time></trkpt><trkpt lat="44.44656171561666" lon="9.906341568950664"><ele>796.1666666666666</ele><time>2026-05-02T09:22:25Z</time></trkpt><trkpt lat="44.44664821837119" lon="9.906370164390177"><ele>796.3333333333333</ele><time>2026-05-02T09:22:26Z</time></trkpt><trkpt lat="44.446709832708194" lon="9.90643426569904"><ele>796.5</ele><time>2026-05-02T09:22:27Z</time></trkpt><trkpt lat="44.446713791752856" lon="9.906542618776799"><ele>796.6666666666667</ele><time>2026-05-02T09:22:28Z</time></trkpt><trkpt lat="44.446660510938685" lon="9.90663593890395"><ele>796.8333333333334</ele><time>2026-05-02T09:22:29Z</time></trkpt><trkpt lat="44.446558424912695" lon="9.906679362910335"><ele>797.0</ele><time>2026-05-02T09:22:30Z</time></trkpt><trkpt lat="44.44642671145289" lon="9.906631690948265"><ele>796.75</ele><time>2026-05-02T09:22:31Z</time></trkpt><trkpt lat="44.44629213800937" lon="9.906634521201255"><ele>796.5</ele><time>2026-05-02T09:22:32Z</time></trkpt><trkpt lat="44.44616817732837" lon="9.906614815134066"><ele>796.25</ele><time>2026-05-02T09:22:33Z</time></trkpt><trkpt lat="44.44602787829148" lon="9.906602703846117"><ele>796.0</ele><time>2026-05-02T09:22:34Z</time></trkpt><trkpt lat="44.445880283966815" lon="9.906596395221177"><ele>796.0</ele><time>2026-05-02T09:22:35Z</time></trkpt><trkpt lat="44.445736634475715" lon="9.906594341359863"><ele>796.0</ele><time>2026-05-02T09:22:36Z</time></trkpt><trkpt lat="44.44561629089333" lon="9.906605602112888"><ele>796.0</ele><time>2026-05-02T09:22:37Z</time></trkpt><trkpt lat="44.44551298730738" lon="9.906655708524118"><ele>796.0</ele><time>2026-05-02T09:22:38Z</time></trkpt><trkpt lat="44.445432713997334" lon="9.906753616723849"><ele>795.25</ele><time>2026-05-02T09:22:39Z</time></trkpt><trkpt lat="44.445396047613706" lon="9.906911347246702"><ele>794.5</ele><time>2026-05-02T09:22:40Z</time></trkpt><trkpt lat="44.44540616598084" lon="9.907098782738816"><ele>793.75</ele><time>2026-05-02T09:22:41Z</time></trkpt><trkpt lat="44.445426722910824" lon="9.90730168463792"><ele>793.0</ele><time>2026-05-02T09:22:42Z</time></trkpt><trkpt lat="44.44541807539948" lon="9.907727959052927"><ele>793.0</ele><time>2026-05-02T09:22:44Z</time></trkpt><trkpt lat="44.44541191570208" lon="9.907945026716712"><ele>793.0</ele><time>2026-05-02T09:22:45Z</time></trkpt><trkpt lat="44.44541003857859" lon="9.908142388133127"><ele>793.0</ele><time>2026-05-02T09:22:46Z</time></trkpt><trkpt lat="44.44540687897967" lon="9.908324944274987"><ele>793.0</ele><time>2026-05-02T09:22:47Z</time></trkpt><trkpt lat="44.44540350986838" lon="9.908496085111006"><ele>792.75</ele><time>2026-05-02T09:22:48Z</time></trkpt><trkpt lat="44.44542068642198" lon="9.908662068645878"><ele>792.5</ele><time>2026-05-02T09:22:49Z</time></trkpt><trkpt lat="44.44547685871589" lon="9.908799794292332"><ele>792.25</ele><time>2026-05-02T09:22:50Z</time></trkpt><trkpt lat="44.44557281765562" lon="9.908882641620023"><ele>792.0</ele><time>2026-05-02T09:22:51Z</time></trkpt><trkpt lat="44.44571016743003" lon="9.90890327671676"><ele>795.25</ele><time>2026-05-02T09:22:52Z</time></trkpt><trkpt lat="44.44585457713794" lon="9.908896714565653"><ele>798.5</ele><time>2026-05-02T09:22:52.999Z</time></trkpt><trkpt lat="44.44599406463703" lon="9.908891982170054"><ele>801.75</ele><time>2026-05-02T09:22:53.999Z</time></trkpt><trkpt lat="44.44612020903857" lon="9.908856305098288"><ele>805.0</ele><time>2026-05-02T09:22:54.999Z</time></trkpt><trkpt lat="44.44623025066113" lon="9.908763830499133"><ele>807.0</ele><time>2026-05-02T09:22:55.999Z</time></trkpt><trkpt lat="44.446333287598556" lon="9.908663815811465"><ele>809.0</ele><time>2026-05-02T09:22:56.999Z</time></trkpt><trkpt lat="44.44644234917384" lon="9.90861600892756"><ele>811.0</ele><time>2026-05-02T09:22:57.999Z</time></trkpt><trkpt lat="44.44656026790433" lon="9.908682382663516"><ele>813.0</ele><time>2026-05-02T09:22:58.999Z</time></trkpt><trkpt lat="44.446698501001286" lon="9.908745212284533"><ele>813.0</ele><time>2026-05-02T09:22:59.999Z</time></trkpt><trkpt lat="44.44683634477103" lon="9.9088094728621"><ele>813.0</ele><time>2026-05-02T09:23:00.999Z</time></trkpt><trkpt lat="44.44695351130046" lon="9.908846840252433"><ele>813.0</ele><time>2026-05-02T09:23:01.999Z</time></trkpt><trkpt lat="44.44705955830216" lon="9.908825097229267"><ele>813.0</ele><time>2026-05-02T09:23:02.999Z</time></trkpt><trkpt lat="44.44716282065798" lon="9.908756014790116"><ele>815.0</ele><time>2026-05-02T09:23:03.999Z</time></trkpt><trkpt lat="44.44725743855785" lon="9.908675025577434"><ele>817.0</ele><time>2026-05-02T09:23:04.999Z</time></trkpt><trkpt lat="44.447358970419415" lon="9.908603366058907"><ele>819.0</ele><time>2026-05-02T09:23:05.999Z</time></trkpt><trkpt lat="44.44746813774094" lon="9.90852249258572"><ele>821.0</ele><time>2026-05-02T09:23:06.999Z</time></trkpt><trkpt lat="44.4475812545569" lon="9.908419784060987"><ele>823.25</ele><time>2026-05-02T09:23:07.999Z</time></trkpt><trkpt lat="44.447701965953286" lon="9.908312822862875"><ele>825.5</ele><time>2026-05-02T09:23:08.999Z</time></trkpt><trkpt lat="44.44782925464892" lon="9.90821305618003"><ele>827.75</ele><time>2026-05-02T09:23:09.999Z</time></trkpt><trkpt lat="44.44795365091161" lon="9.90809391434553"><ele>830.0</ele><time>2026-05-02T09:23:10.999Z</time></trkpt><trkpt lat="44.44806568025228" lon="9.907967813826051"><ele>832.5</ele><time>2026-05-02T09:23:11.999Z</time></trkpt><trkpt lat="44.44813896874678" lon="9.907807410314977"><ele>835.0</ele><time>2026-05-02T09:23:12.999Z</time></trkpt><trkpt lat="44.448192637990964" lon="9.907637886564043"><ele>837.5</ele><time>2026-05-02T09:23:13.999Z</time></trkpt><trkpt lat="44.44823440941148" lon="9.907442245599496"><ele>840.0</ele><time>2026-05-02T09:23:14.999Z</time></trkpt><trkpt lat="44.44831253741983" lon="9.907287286364099"><ele>840.0</ele><time>2026-05-02T09:23:15.999Z</time></trkpt><trkpt lat="44.44841128410945" lon="9.907159065463528"><ele>840.0</ele><time>2026-05-02T09:23:16.999Z</time></trkpt><trkpt lat="44.44851538100008" lon="9.907021067961448"><ele>840.0</ele><time>2026-05-02T09:23:17.999Z</time></trkpt><trkpt lat="44.44863942094935" lon="9.90688813694756"><ele>840.0</ele><time>2026-05-02T09:23:18.999Z</time></trkpt><trkpt lat="44.448763291376274" lon="9.90676425167244"><ele>842.3333333333333</ele><time>2026-05-02T09:23:19.999Z</time></trkpt><trkpt lat="44.448906629302066" lon="9.906653499465042"><ele>844.6666666666666</ele><time>2026-05-02T09:23:20.999Z</time></trkpt><trkpt lat="44.44906571766904" lon="9.90657260048025"><ele>847.0</ele><time>2026-05-02T09:23:21.999Z</time></trkpt><trkpt lat="44.44921782977456" lon="9.906488105549194"><ele>847.0</ele><time>2026-05-02T09:23:22.999Z</time></trkpt><trkpt lat="44.44934537585106" lon="9.906412126111672"><ele>847.0</ele><time>2026-05-02T09:23:23.999Z</time></trkpt><trkpt lat="44.44944327158484" lon="9.906349894396318"><ele>847.0</ele><time>2026-05-02T09:23:24.999Z</time></trkpt><trkpt lat="44.449518967343266" lon="9.90629965338333"><ele>847.0</ele><time>2026-05-02T09:23:25.999Z</time></trkpt><trkpt lat="44.449614909335" lon="9.906400467603582"><ele>847.0</ele><time>2026-05-02T09:23:27.999Z</time></trkpt><trkpt lat="44.44960293271803" lon="9.906515526090681"><ele>847.0</ele><time>2026-05-02T09:23:28.999Z</time></trkpt><trkpt lat="44.44950616718026" lon="9.906572575578753"><ele>847.0</ele><time>2026-05-02T09:23:29.999Z</time></trkpt><trkpt lat="44.44939008879466" lon="9.906629209148738"><ele>847.0</ele><time>2026-05-02T09:23:30.999Z</time></trkpt><trkpt lat="44.449269377371245" lon="9.906703574618128"><ele>847.0</ele><time>2026-05-02T09:23:31.999Z</time></trkpt><trkpt lat="44.44915770413777" lon="9.906784459332052"><ele>850.0</ele><time>2026-05-02T09:23:32.999Z</time></trkpt><trkpt lat="44.449041739333275" lon="9.906910551834429"><ele>853.0</ele><time>2026-05-02T09:23:33.999Z</time></trkpt><trkpt lat="44.44894083999235" lon="9.907061060489772"><ele>856.0</ele><time>2026-05-02T09:23:34.999Z</time></trkpt><trkpt lat="44.44886169251872" lon="9.907190053159765"><ele>859.0</ele><time>2026-05-02T09:23:35.999Z</time></trkpt><trkpt lat="44.44880121682053" lon="9.907296524813493"><ele>859.0</ele><time>2026-05-02T09:23:36.999Z</time></trkpt><trkpt lat="44.44877553333052" lon="9.907390450504106"><ele>859.0000000000001</ele><time>2026-05-02T09:23:37.999Z</time></trkpt><trkpt lat="44.448803963521456" lon="9.907496297420538"><ele>859.0000000000001</ele><time>2026-05-02T09:23:38.999Z</time></trkpt><trkpt lat="44.44888620091363" lon="9.907561703285387"><ele>859.0</ele><time>2026-05-02T09:23:39.999Z</time></trkpt><trkpt lat="44.44899361474756" lon="9.907538240855287"><ele>859.0</ele><time>2026-05-02T09:23:40.999Z</time></trkpt><trkpt lat="44.449091373285825" lon="9.907428132562506"><ele>859.0</ele><time>2026-05-02T09:23:41.999Z</time></trkpt><trkpt lat="44.449179450142125" lon="9.907284122063938"><ele>859.0</ele><time>2026-05-02T09:23:42.999Z</time></trkpt><trkpt lat="44.44927784798153" lon="9.90717689264977"><ele>859.0</ele><time>2026-05-02T09:23:43.999Z</time></trkpt><trkpt lat="44.44938599302457" lon="9.907111785660199"><ele>859.0</ele><time>2026-05-02T09:23:44.999Z</time></trkpt><trkpt lat="44.44949040745619" lon="9.907127273894742"><ele>859.0</ele><time>2026-05-02T09:23:45.999Z</time></trkpt><trkpt lat="44.4495649279986" lon="9.90722651540512"><ele>859.0</ele><time>2026-05-02T09:23:46.999Z</time></trkpt><trkpt lat="44.44958438959407" lon="9.907409052778037"><ele>859.0</ele><time>2026-05-02T09:23:47.999Z</time></trkpt><trkpt lat="44.44959345371651" lon="9.907594102854691"><ele>859.0</ele><time>2026-05-02T09:23:48.999Z</time></trkpt><trkpt lat="44.449538438887764" lon="9.907798190207133"><ele>860.0</ele><time>2026-05-02T09:23:49.999Z</time></trkpt><trkpt lat="44.44946110411913" lon="9.907975767742368"><ele>861.0</ele><time>2026-05-02T09:23:50.999Z</time></trkpt><trkpt lat="44.44936390670771" lon="9.908099217615595"><ele>862.0</ele><time>2026-05-02T09:23:51.999Z</time></trkpt><trkpt lat="44.44924716232442" lon="9.908165914683204"><ele>863.0</ele><time>2026-05-02T09:23:52.999Z</time></trkpt><trkpt lat="44.449152470621996" lon="9.908256019908848"><ele>863.0</ele><time>2026-05-02T09:23:53.999Z</time></trkpt><trkpt lat="44.449093159062066" lon="9.908379370338452"><ele>863.0</ele><time>2026-05-02T09:23:54.999Z</time></trkpt><trkpt lat="44.4490886225641" lon="9.908554239871926"><ele>863.0</ele><time>2026-05-02T09:23:55.999Z</time></trkpt><trkpt lat="44.449125437755534" lon="9.90873842036638"><ele>863.0</ele><time>2026-05-02T09:23:56.999Z</time></trkpt><trkpt lat="44.44919513656683" lon="9.908878720474934"><ele>864.0</ele><time>2026-05-02T09:23:57.998Z</time></trkpt><trkpt lat="44.44929150375972" lon="9.908967468629212"><ele>865.0</ele><time>2026-05-02T09:23:58.998Z</time></trkpt><trkpt lat="44.44943320980675" lon="9.908987944041254"><ele>866.0</ele><time>2026-05-02T09:24:00Z</time></trkpt><trkpt lat="44.44958933583613" lon="9.908991330782946"><ele>867.0</ele><time>2026-05-02T09:24:01Z</time></trkpt><trkpt lat="44.44974276611253" lon="9.909020503650828"><ele>867.0</ele><time>2026-05-02T09:24:02Z</time></trkpt><trkpt lat="44.449897409684475" lon="9.90905279073484"><ele>867.0</ele><time>2026-05-02T09:24:03Z</time></trkpt><trkpt lat="44.45003301575306" lon="9.909068437866656"><ele>867.0</ele><time>2026-05-02T09:24:04Z</time></trkpt><trkpt lat="44.450153842533176" lon="9.909077410240295"><ele>867.0</ele><time>2026-05-02T09:24:05Z</time></trkpt><trkpt lat="44.45026173936034" lon="9.909044237655156"><ele>867.0</ele><time>2026-05-02T09:24:06Z</time></trkpt><trkpt lat="44.450362756009135" lon="9.90894729214494"><ele>867.0</ele><time>2026-05-02T09:24:07Z</time></trkpt><trkpt lat="44.45045210479897" lon="9.90877767064384"><ele>867.0</ele><time>2026-05-02T09:24:08Z</time></trkpt><trkpt lat="44.45053405313027" lon="9.908600617940435"><ele>867.0</ele><time>2026-05-02T09:24:09Z</time></trkpt><trkpt lat="44.45065120604097" lon="9.908461121878831"><ele>873.3333333333333</ele><time>2026-05-02T09:24:10Z</time></trkpt><trkpt lat="44.45079919518832" lon="9.90836569411712"><ele>879.6666666666666</ele><time>2026-05-02T09:24:11Z</time></trkpt><trkpt lat="44.450958902772555" lon="9.908288425866019"><ele>886.0</ele><time>2026-05-02T09:24:12Z</time></trkpt><trkpt lat="44.45110795396793" lon="9.908196891736758"><ele>886.0</ele><time>2026-05-02T09:24:13Z</time></trkpt><trkpt lat="44.451249893188034" lon="9.908094241051158"><ele>886.0</ele><time>2026-05-02T09:24:14Z</time></trkpt><trkpt lat="44.4514010827411" lon="9.907997073900384"><ele>886.0</ele><time>2026-05-02T09:24:15Z</time></trkpt><trkpt lat="44.451536877988026" lon="9.907923910630746"><ele>887.25</ele><time>2026-05-02T09:24:16Z</time></trkpt><trkpt lat="44.451668967574506" lon="9.907884275445422"><ele>888.5</ele><time>2026-05-02T09:24:17Z</time></trkpt><trkpt lat="44.451800933737495" lon="9.907910214228965"><ele>889.75</ele><time>2026-05-02T09:24:18Z</time></trkpt><trkpt lat="44.45190605702257" lon="9.908054643598652"><ele>891.0</ele><time>2026-05-02T09:24:19Z</time></trkpt><trkpt lat="44.452006821925856" lon="9.908219666674533"><ele>891.0</ele><time>2026-05-02T09:24:20Z</time></trkpt><trkpt lat="44.45211889343849" lon="9.908386848629611"><ele>891.0</ele><time>2026-05-02T09:24:21Z</time></trkpt><trkpt lat="44.452224398509195" lon="9.908569001068358"><ele>891.0</ele><time>2026-05-02T09:24:22Z</time></trkpt><trkpt lat="44.45231938599253" lon="9.908740525156276"><ele>895.0</ele><time>2026-05-02T09:24:23Z</time></trkpt><trkpt lat="44.45239610661388" lon="9.908914703638855"><ele>899.0</ele><time>2026-05-02T09:24:24Z</time></trkpt><trkpt lat="44.4524585757248" lon="9.90907774806431"><ele>903.0</ele><time>2026-05-02T09:24:25Z</time></trkpt><trkpt lat="44.45244136807387" lon="9.90927236909248"><ele>907.0</ele><time>2026-05-02T09:24:26Z</time></trkpt><trkpt lat="44.45234627875869" lon="9.909444217315805"><ele>906.75</ele><time>2026-05-02T09:24:27Z</time></trkpt><trkpt lat="44.45227323748348" lon="9.909613348339105"><ele>906.5</ele><time>2026-05-02T09:24:28Z</time></trkpt><trkpt lat="44.45222692504516" lon="9.909763947715001"><ele>906.25</ele><time>2026-05-02T09:24:29Z</time></trkpt><trkpt lat="44.4522470196691" lon="9.909947882297912"><ele>906.0</ele><time>2026-05-02T09:24:30Z</time></trkpt><trkpt lat="44.45233022921319" lon="9.910128387529516"><ele>906.0</ele><time>2026-05-02T09:24:31Z</time></trkpt><trkpt lat="44.452448731920356" lon="9.91028162875553"><ele>906.0</ele><time>2026-05-02T09:24:32Z</time></trkpt><trkpt lat="44.45256998358164" lon="9.910426947279047"><ele>906.0</ele><time>2026-05-02T09:24:33Z</time></trkpt><trkpt lat="44.45268128278258" lon="9.910601469892804"><ele>906.0</ele><time>2026-05-02T09:24:34Z</time></trkpt><trkpt lat="44.452787125676316" lon="9.910797023053957"><ele>906.0</ele><time>2026-05-02T09:24:35Z</time></trkpt><trkpt lat="44.452892935014454" lon="9.911000956245857"><ele>906.0</ele><time>2026-05-02T09:24:36Z</time></trkpt><trkpt lat="44.45299997260239" lon="9.911202869076254"><ele>911.6666666666667</ele><time>2026-05-02T09:24:37Z</time></trkpt><trkpt lat="44.453093198528975" lon="9.911417355249426"><ele>917.3333333333334</ele><time>2026-05-02T09:24:38Z</time></trkpt><trkpt lat="44.453177094515496" lon="9.91163618548978"><ele>923.0</ele><time>2026-05-02T09:24:39Z</time></trkpt><trkpt lat="44.453254179622576" lon="9.911853444443269"><ele>923.0</ele><time>2026-05-02T09:24:40Z</time></trkpt><trkpt lat="44.45332277435926" lon="9.912066464953579"><ele>923.0</ele><time>2026-05-02T09:24:41Z</time></trkpt><trkpt lat="44.45338125584581" lon="9.91225706872841"><ele>923.0</ele><time>2026-05-02T09:24:42Z</time></trkpt><trkpt lat="44.453437518368716" lon="9.91242793452309"><ele>923.0</ele><time>2026-05-02T09:24:43Z</time></trkpt><trkpt lat="44.45349169673691" lon="9.91258340701495"><ele>923.4</ele><time>2026-05-02T09:24:44Z</time></trkpt><trkpt lat="44.453524672441596" lon="9.912742155905498"><ele>923.8</ele><time>2026-05-02T09:24:45Z</time></trkpt><trkpt lat="44.45356569594991" lon="9.912880502281775"><ele>924.2</ele><time>2026-05-02T09:24:46Z</time></trkpt><trkpt lat="44.45356388943963" lon="9.912990840243818"><ele>924.6</ele><time>2026-05-02T09:24:47Z</time></trkpt><trkpt lat="44.45356152430928" lon="9.913123506655365"><ele>925.0</ele><time>2026-05-02T09:24:49Z</time></trkpt><trkpt lat="44.4535514768017" lon="9.913277875686996"><ele>924.9999999999999</ele><time>2026-05-02T09:25:32.999Z</time></trkpt><trkpt lat="44.4535521095911" lon="9.913378040611523"><ele>925.0</ele><time>2026-05-02T09:25:33.999Z</time></trkpt><trkpt lat="44.453555978769934" lon="9.913495315333074"><ele>925.0</ele><time>2026-05-02T09:25:34.999Z</time></trkpt><trkpt lat="44.45355825361398" lon="9.913628744917242"><ele>925.0</ele><time>2026-05-02T09:25:35.999Z</time></trkpt><trkpt lat="44.45355252759106" lon="9.913764087963882"><ele>924.9999999999999</ele><time>2026-05-02T09:25:36.999Z</time></trkpt><trkpt lat="44.45354998272127" lon="9.913898964179142"><ele>925.0</ele><time>2026-05-02T09:25:37.999Z</time></trkpt><trkpt lat="44.453544589753164" lon="9.914058349101982"><ele>926.2</ele><time>2026-05-02T09:25:38.999Z</time></trkpt><trkpt lat="44.45354142672979" lon="9.914231726033742"><ele>927.4</ele><time>2026-05-02T09:25:39.999Z</time></trkpt><trkpt lat="44.45353218392684" lon="9.91438994226122"><ele>928.5999999999999</ele><time>2026-05-02T09:25:40.999Z</time></trkpt><trkpt lat="44.453507937807494" lon="9.914523848688344"><ele>929.8</ele><time>2026-05-02T09:25:41.999Z</time></trkpt><trkpt lat="44.45347813130332" lon="9.91461428880966"><ele>931.0</ele><time>2026-05-02T09:25:42.999Z</time></trkpt><trkpt lat="44.45342221101174" lon="9.9146987876311"><ele>934.3333333333333</ele><time>2026-05-02T09:25:43.999Z</time></trkpt><trkpt lat="44.453328223664556" lon="9.915055342933716"><ele>937.6666666666667</ele><time>2026-05-02T09:25:44.999Z</time></trkpt><trkpt lat="44.4532277769387" lon="9.915213179991612"><ele>941.0</ele><time>2026-05-02T09:25:45.999Z</time></trkpt><trkpt lat="44.4531212791068" lon="9.915389681501425"><ele>940.0</ele><time>2026-05-02T09:25:46.999Z</time></trkpt><trkpt lat="44.45301733864328" lon="9.915592212785574"><ele>939.0</ele><time>2026-05-02T09:25:47.999Z</time></trkpt><trkpt lat="44.45289994529496" lon="9.91577817184399"><ele>938.0</ele><time>2026-05-02T09:25:48.999Z</time></trkpt><trkpt lat="44.452782603874994" lon="9.915970972678647"><ele>942.0</ele><time>2026-05-02T09:25:49.999Z</time></trkpt><trkpt lat="44.45266135778084" lon="9.916169028210648"><ele>946.0</ele><time>2026-05-02T09:25:50.999Z</time></trkpt><trkpt lat="44.45253808044331" lon="9.916370548067869"><ele>950.0</ele><time>2026-05-02T09:25:51.999Z</time></trkpt><trkpt lat="44.452416412411935" lon="9.916567504523655"><ele>948.6666666666667</ele><time>2026-05-02T09:25:52.999Z</time></trkpt><trkpt lat="44.45229894377188" lon="9.916760163347487"><ele>947.3333333333333</ele><time>2026-05-02T09:25:53.999Z</time></trkpt><trkpt lat="44.4521838686452" lon="9.916939366325822"><ele>946.0</ele><time>2026-05-02T09:25:54.999Z</time></trkpt><trkpt lat="44.45208084469709" lon="9.917112295274102"><ele>946.0</ele><time>2026-05-02T09:25:55.999Z</time></trkpt><trkpt lat="44.45199976468147" lon="9.917302281316466"><ele>946.0</ele><time>2026-05-02T09:25:56.998Z</time></trkpt><trkpt lat="44.45194984016315" lon="9.917517276728757"><ele>946.0</ele><time>2026-05-02T09:25:57.998Z</time></trkpt><trkpt lat="44.45193263357733" lon="9.91775683562494"><ele>949.0</ele><time>2026-05-02T09:25:58.998Z</time></trkpt><trkpt lat="44.451907533220606" lon="9.917993267636618"><ele>952.0</ele><time>2026-05-02T09:25:59.998Z</time></trkpt><trkpt lat="44.45182199711424" lon="9.918207334743844"><ele>955.0</ele><time>2026-05-02T09:26:00.998Z</time></trkpt><trkpt lat="44.45171544630661" lon="9.918402845336352"><ele>960.6666666666666</ele><time>2026-05-02T09:26:01.998Z</time></trkpt><trkpt lat="44.45158736316644" lon="9.918579711736397"><ele>966.3333333333333</ele><time>2026-05-02T09:26:02.998Z</time></trkpt><trkpt lat="44.45145281890469" lon="9.918754420004923"><ele>972.0</ele><time>2026-05-02T09:26:03.998Z</time></trkpt><trkpt lat="44.45131993835262" lon="9.918923762763626"><ele>971.0</ele><time>2026-05-02T09:26:04.998Z</time></trkpt><trkpt lat="44.45118648947554" lon="9.91906810180397"><ele>970.0</ele><time>2026-05-02T09:26:06Z</time></trkpt><trkpt lat="44.45105489575508" lon="9.91919822828324"><ele>969.0</ele><time>2026-05-02T09:26:07Z</time></trkpt><trkpt lat="44.45093957900499" lon="9.919330046226762"><ele>969.0</ele><time>2026-05-02T09:26:08Z</time></trkpt><trkpt lat="44.45083126316087" lon="9.919431441461004"><ele>969.0</ele><time>2026-05-02T09:26:09Z</time></trkpt><trkpt lat="44.450737766415976" lon="9.91953480058265"><ele>969.0</ele><time>2026-05-02T09:26:10Z</time></trkpt><trkpt lat="44.45068663842553" lon="9.91966375617192"><ele>969.0</ele><time>2026-05-02T09:26:11Z</time></trkpt><trkpt lat="44.45069437407486" lon="9.91981124125217"><ele>969.0</ele><time>2026-05-02T09:26:12Z</time></trkpt><trkpt lat="44.45076527479925" lon="9.919942993928219"><ele>969.0</ele><time>2026-05-02T09:26:13Z</time></trkpt><trkpt lat="44.45088249395904" lon="9.919989981902877"><ele>969.0</ele><time>2026-05-02T09:26:14Z</time></trkpt><trkpt lat="44.45099240569162" lon="9.919916867238648"><ele>969.0</ele><time>2026-05-02T09:26:15Z</time></trkpt><trkpt lat="44.45109328797949" lon="9.91976668262596"><ele>969.0</ele><time>2026-05-02T09:26:16Z</time></trkpt><trkpt lat="44.45119876970725" lon="9.919576330241473"><ele>969.0</ele><time>2026-05-02T09:26:17Z</time></trkpt><trkpt lat="44.45131507068772" lon="9.91939851362175"><ele>969.0</ele><time>2026-05-02T09:26:18Z</time></trkpt><trkpt lat="44.451435211677094" lon="9.919236789776305"><ele>970.0</ele><time>2026-05-02T09:26:19Z</time></trkpt><trkpt lat="44.45157667114751" lon="9.91913132997273"><ele>971.0</ele><time>2026-05-02T09:26:20Z</time></trkpt><trkpt lat="44.45172965646684" lon="9.919033152535802"><ele>972.0</ele><time>2026-05-02T09:26:21Z</time></trkpt><trkpt lat="44.451896561786384" lon="9.918952101101178"><ele>972.0</ele><time>2026-05-02T09:26:22Z</time></trkpt><trkpt lat="44.45206035863667" lon="9.918919180879097"><ele>972.0</ele><time>2026-05-02T09:26:23Z</time></trkpt><trkpt lat="44.45223829239064" lon="9.91889514790654"><ele>972.0</ele><time>2026-05-02T09:26:24Z</time></trkpt><trkpt lat="44.45237728777744" lon="9.918906674581471"><ele>972.3333333333333</ele><time>2026-05-02T09:26:25Z</time></trkpt><trkpt lat="44.45252471771196" lon="9.918854262978984"><ele>972.6666666666666</ele><time>2026-05-02T09:26:26Z</time></trkpt><trkpt lat="44.45267203646095" lon="9.918744194091254"><ele>973.0</ele><time>2026-05-02T09:26:27Z</time></trkpt><trkpt lat="44.45282437559341" lon="9.91861375110494"><ele>974.3333333333333</ele><time>2026-05-02T09:26:28Z</time></trkpt><trkpt lat="44.452958643294835" lon="9.918462311729897"><ele>975.6666666666667</ele><time>2026-05-02T09:26:29Z</time></trkpt><trkpt lat="44.45307596806415" lon="9.918279662983634"><ele>977.0</ele><time>2026-05-02T09:26:30Z</time></trkpt><trkpt lat="44.45317931361293" lon="9.918089941030315"><ele>977.0</ele><time>2026-05-02T09:26:31Z</time></trkpt><trkpt lat="44.45330107716113" lon="9.917948206420963"><ele>977.0</ele><time>2026-05-02T09:26:32Z</time></trkpt><trkpt lat="44.45346054278683" lon="9.9178523508153"><ele>977.0</ele><time>2026-05-02T09:26:33Z</time></trkpt><trkpt lat="44.45364069764153" lon="9.917820808532424"><ele>975.0</ele><time>2026-05-02T09:26:34Z</time></trkpt><trkpt lat="44.45381367879452" lon="9.917784054437002"><ele>973.0</ele><time>2026-05-02T09:26:35Z</time></trkpt><trkpt lat="44.453993252918124" lon="9.917808160211573"><ele>971.0</ele><time>2026-05-02T09:26:36Z</time></trkpt><trkpt lat="44.45417570707008" lon="9.917850313909026"><ele>971.0</ele><time>2026-05-02T09:26:37Z</time></trkpt><trkpt lat="44.45435843210578" lon="9.917918678291317"><ele>971.0</ele><time>2026-05-02T09:26:38Z</time></trkpt><trkpt lat="44.45453583968967" lon="9.918023560438753"><ele>971.0</ele><time>2026-05-02T09:26:39Z</time></trkpt><trkpt lat="44.4547181794728" lon="9.91815338731099"><ele>969.6666666666667</ele><time>2026-05-02T09:26:40Z</time></trkpt><trkpt lat="44.45490223104272" lon="9.91828579336649"><ele>968.3333333333333</ele><time>2026-05-02T09:26:41Z</time></trkpt><trkpt lat="44.45506383552009" lon="9.918441909950158"><ele>967.0</ele><time>2026-05-02T09:26:42Z</time></trkpt><trkpt lat="44.45517940038934" lon="9.918655229351998"><ele>967.0</ele><time>2026-05-02T09:26:43Z</time></trkpt><trkpt lat="44.45530483727098" lon="9.918846820391536"><ele>967.0</ele><time>2026-05-02T09:26:44Z</time></trkpt><trkpt lat="44.45539696056648" lon="9.919027783378267"><ele>967.0</ele><time>2026-05-02T09:26:45Z</time></trkpt><trkpt lat="44.45548693436036" lon="9.919178691402381"><ele>963.25</ele><time>2026-05-02T09:26:46Z</time></trkpt><trkpt lat="44.45558191058191" lon="9.919277788133172"><ele>959.5</ele><time>2026-05-02T09:26:47Z</time></trkpt><trkpt lat="44.45569158695346" lon="9.919298637076817"><ele>955.75</ele><time>2026-05-02T09:26:48Z</time></trkpt><trkpt lat="44.45582458632322" lon="9.919249484698161"><ele>952.0</ele><time>2026-05-02T09:26:49Z</time></trkpt><trkpt lat="44.455965809598354" lon="9.919126330938147"><ele>962.3333333333333</ele><time>2026-05-02T09:26:50Z</time></trkpt><trkpt lat="44.45612013949229" lon="9.919024371066351"><ele>972.6666666666667</ele><time>2026-05-02T09:26:51Z</time></trkpt><trkpt lat="44.456298865302976" lon="9.918995280658796"><ele>983.0</ele><time>2026-05-02T09:26:52Z</time></trkpt><trkpt lat="44.45647463590953" lon="9.919000843064262"><ele>983.6666666666667</ele><time>2026-05-02T09:26:52.999Z</time></trkpt><trkpt lat="44.45664543912961" lon="9.91901381517258"><ele>984.3333333333333</ele><time>2026-05-02T09:26:53.999Z</time></trkpt><trkpt lat="44.456816530844456" lon="9.919062224448401"><ele>985.0</ele><time>2026-05-02T09:26:54.999Z</time></trkpt><trkpt lat="44.456981024964115" lon="9.91915962926686"><ele>988.3333333333333</ele><time>2026-05-02T09:26:55.999Z</time></trkpt><trkpt lat="44.45714608000433" lon="9.919215679475439"><ele>991.6666666666667</ele><time>2026-05-02T09:26:56.999Z</time></trkpt><trkpt lat="44.45730197898733" lon="9.919241942282547"><ele>995.0</ele><time>2026-05-02T09:26:57.999Z</time></trkpt><trkpt lat="44.45744393382796" lon="9.919312252446327"><ele>988.0</ele><time>2026-05-02T09:26:58.999Z</time></trkpt><trkpt lat="44.45758120749822" lon="9.91945691186236"><ele>981.0</ele><time>2026-05-02T09:26:59.999Z</time></trkpt><trkpt lat="44.457670118965574" lon="9.919659113335634"><ele>974.0</ele><time>2026-05-02T09:27:00.999Z</time></trkpt><trkpt lat="44.45776104991192" lon="9.919800493929046"><ele>974.0</ele><time>2026-05-02T09:27:01.999Z</time></trkpt><trkpt lat="44.457836807530505" lon="9.919897706459851"><ele>974.0</ele><time>2026-05-02T09:27:02.999Z</time></trkpt><trkpt lat="44.45796903331103" lon="9.919944486159077"><ele>974.0</ele><time>2026-05-02T09:27:03.999Z</time></trkpt><trkpt lat="44.4581122635226" lon="9.919896795058332"><ele>974.0</ele><time>2026-05-02T09:27:04.999Z</time></trkpt><trkpt lat="44.45825197413412" lon="9.91978703902597"><ele>976.5</ele><time>2026-05-02T09:27:05.999Z</time></trkpt><trkpt lat="44.458376248390266" lon="9.919689529722055"><ele>979.0</ele><time>2026-05-02T09:27:06.999Z</time></trkpt><trkpt lat="44.45850229888572" lon="9.919687640034748"><ele>981.5</ele><time>2026-05-02T09:27:07.999Z</time></trkpt><trkpt lat="44.458607716714994" lon="9.919740835617558"><ele>984.0</ele><time>2026-05-02T09:27:08.999Z</time></trkpt><trkpt lat="44.45867582837262" lon="9.919933336894768"><ele>985.6666666666667</ele><time>2026-05-02T09:27:09.999Z</time></trkpt><trkpt lat="44.458789365434725" lon="9.920104659640458"><ele>987.3333333333334</ele><time>2026-05-02T09:27:10.999Z</time></trkpt><trkpt lat="44.45889081864124" lon="9.920298794432794"><ele>989.0</ele><time>2026-05-02T09:27:11.999Z</time></trkpt><trkpt lat="44.458996597627134" lon="9.920484322730609"><ele>989.0</ele><time>2026-05-02T09:27:12.999Z</time></trkpt><trkpt lat="44.45909869599911" lon="9.920683657836689"><ele>989.0</ele><time>2026-05-02T09:27:13.999Z</time></trkpt><trkpt lat="44.459183899016125" lon="9.920868726598268"><ele>989.0</ele><time>2026-05-02T09:27:14.999Z</time></trkpt><trkpt lat="44.45925976133967" lon="9.92103796042526"><ele>985.0</ele><time>2026-05-02T09:27:15.999Z</time></trkpt><trkpt lat="44.459358013201616" lon="9.921157706872568"><ele>981.0</ele><time>2026-05-02T09:27:16.999Z</time></trkpt><trkpt lat="44.459489350996805" lon="9.921208736437116"><ele>977.0</ele><time>2026-05-02T09:27:17.999Z</time></trkpt><trkpt lat="44.459639572025054" lon="9.921178330013365"><ele>973.0</ele><time>2026-05-02T09:27:18.999Z</time></trkpt><trkpt lat="44.45978765598556" lon="9.921075942846901"><ele>973.0</ele><time>2026-05-02T09:27:19.999Z</time></trkpt><trkpt lat="44.459935401332096" lon="9.920975626609405"><ele>973.0</ele><time>2026-05-02T09:27:20.999Z</time></trkpt><trkpt lat="44.46008401303385" lon="9.920880602366106"><ele>973.0</ele><time>2026-05-02T09:27:21.999Z</time></trkpt><trkpt lat="44.46019495001935" lon="9.920758409112922"><ele>978.0</ele><time>2026-05-02T09:27:22.999Z</time></trkpt><trkpt lat="44.46029729674814" lon="9.920639676042763"><ele>983.0</ele><time>2026-05-02T09:27:23.999Z</time></trkpt><trkpt lat="44.46043847145172" lon="9.920612440484518"><ele>988.0</ele><time>2026-05-02T09:27:24.999Z</time></trkpt><trkpt lat="44.460596182938204" lon="9.920642283227567"><ele>993.0</ele><time>2026-05-02T09:27:25.999Z</time></trkpt><trkpt lat="44.46077613041455" lon="9.920685419959339"><ele>993.0</ele><time>2026-05-02T09:27:26.999Z</time></trkpt><trkpt lat="44.46095836015343" lon="9.920726292847123"><ele>993.0</ele><time>2026-05-02T09:27:27.999Z</time></trkpt><trkpt lat="44.461123354582305" lon="9.920780447576123"><ele>993.0</ele><time>2026-05-02T09:27:28.999Z</time></trkpt><trkpt lat="44.46125260173919" lon="9.920914680794954"><ele>990.0</ele><time>2026-05-02T09:27:29.999Z</time></trkpt><trkpt lat="44.461389464515186" lon="9.921074642893352"><ele>987.0</ele><time>2026-05-02T09:27:30.999Z</time></trkpt><trkpt lat="44.46153164218007" lon="9.921222601449768"><ele>984.0</ele><time>2026-05-02T09:27:31.999Z</time></trkpt><trkpt lat="44.46167548362858" lon="9.921377946490262"><ele>984.0</ele><time>2026-05-02T09:27:32.999Z</time></trkpt><trkpt lat="44.461819266266716" lon="9.92150578613575"><ele>984.0</ele><time>2026-05-02T09:27:33.999Z</time></trkpt><trkpt lat="44.46194105476771" lon="9.921606150687428"><ele>984.0</ele><time>2026-05-02T09:27:34.999Z</time></trkpt><trkpt lat="44.462049437250506" lon="9.921673996416157"><ele>984.0</ele><time>2026-05-02T09:27:35.999Z</time></trkpt><trkpt lat="44.462161609272975" lon="9.921688760002915"><ele>985.5</ele><time>2026-05-02T09:27:36.999Z</time></trkpt><trkpt lat="44.46226733873932" lon="9.921624924490137"><ele>987.0</ele><time>2026-05-02T09:27:37.999Z</time></trkpt><trkpt lat="44.462352641764944" lon="9.921490788405508"><ele>988.5</ele><time>2026-05-02T09:27:38.999Z</time></trkpt><trkpt lat="44.462396538923315" lon="9.921300941715263"><ele>990.0</ele><time>2026-05-02T09:27:39.999Z</time></trkpt><trkpt lat="44.4624062503775" lon="9.921072963871095"><ele>994.0</ele><time>2026-05-02T09:27:40.999Z</time></trkpt><trkpt lat="44.4624191255635" lon="9.920842377342375"><ele>998.0</ele><time>2026-05-02T09:27:41.999Z</time></trkpt><trkpt lat="44.46244259164481" lon="9.920603755065656"><ele>1002.0</ele><time>2026-05-02T09:27:42.999Z</time></trkpt><trkpt lat="44.462478424903786" lon="9.920357602534372"><ele>1002.0</ele><time>2026-05-02T09:27:43.999Z</time></trkpt><trkpt lat="44.46252759287982" lon="9.920124492309583"><ele>1002.0</ele><time>2026-05-02T09:27:44.999Z</time></trkpt><trkpt lat="44.462605587614355" lon="9.919914958314981"><ele>1002.0</ele><time>2026-05-02T09:27:45.999Z</time></trkpt><trkpt lat="44.46271282510425" lon="9.91972991590597"><ele>1001.0</ele><time>2026-05-02T09:27:46.999Z</time></trkpt><trkpt lat="44.462824181170475" lon="9.919554884624862"><ele>1000.0</ele><time>2026-05-02T09:27:47.999Z</time></trkpt><trkpt lat="44.46291916836279" lon="9.91940001292941"><ele>999.0</ele><time>2026-05-02T09:27:48.999Z</time></trkpt><trkpt lat="44.462994295665865" lon="9.919274114378949"><ele>998.0</ele><time>2026-05-02T09:27:49.999Z</time></trkpt><trkpt lat="44.463071585212425" lon="9.919169541966617"><ele>998.0</ele><time>2026-05-02T09:27:50.999Z</time></trkpt><trkpt lat="44.46316732446912" lon="9.919127735822261"><ele>998.0</ele><time>2026-05-02T09:27:51.999Z</time></trkpt><trkpt lat="44.463284380263055" lon="9.919154098533749"><ele>998.0</ele><time>2026-05-02T09:27:52.998Z</time></trkpt><trkpt lat="44.46338805934896" lon="9.91927018188567"><ele>998.0</ele><time>2026-05-02T09:27:53.998Z</time></trkpt><trkpt lat="44.46345914581368" lon="9.919433146507494"><ele>998.0</ele><time>2026-05-02T09:27:54.998Z</time></trkpt><trkpt lat="44.463547808732464" lon="9.919598047706092"><ele>998.0</ele><time>2026-05-02T09:27:55.998Z</time></trkpt><trkpt lat="44.46364529712065" lon="9.919749449352684"><ele>998.0</ele><time>2026-05-02T09:27:56.998Z</time></trkpt><trkpt lat="44.46377496525172" lon="9.919849557027256"><ele>998.0</ele><time>2026-05-02T09:27:57.998Z</time></trkpt><trkpt lat="44.46392499355179" lon="9.919923810575927"><ele>995.3333333333334</ele><time>2026-05-02T09:27:58.998Z</time></trkpt><trkpt lat="44.46408655525475" lon="9.919988549228089"><ele>992.6666666666667</ele><time>2026-05-02T09:27:59.998Z</time></trkpt><trkpt lat="44.46424016084404" lon="9.920064550137115"><ele>990.0</ele><time>2026-05-02T09:28:00.998Z</time></trkpt><trkpt lat="44.46440333895691" lon="9.920167627983693"><ele>990.0</ele><time>2026-05-02T09:28:01.998Z</time></trkpt><trkpt lat="44.46455931074008" lon="9.920292379132107"><ele>990.0</ele><time>2026-05-02T09:28:02.998Z</time></trkpt><trkpt lat="44.464701978208154" lon="9.920428440668084"><ele>990.0</ele><time>2026-05-02T09:28:03.998Z</time></trkpt><trkpt lat="44.46483682755996" lon="9.920544051120059"><ele>993.6666666666667</ele><time>2026-05-02T09:28:04.998Z</time></trkpt><trkpt lat="44.46496665692142" lon="9.920645347396972"><ele>997.3333333333334</ele><time>2026-05-02T09:28:05.998Z</time></trkpt><trkpt lat="44.465104489717774" lon="9.920728937244196"><ele>1001.0</ele><time>2026-05-02T09:28:06.998Z</time></trkpt><trkpt lat="44.46525886195882" lon="9.92073538641277"><ele>1001.0</ele><time>2026-05-02T09:28:07.998Z</time></trkpt><trkpt lat="44.46541663808912" lon="9.920676316896097"><ele>1001.0</ele><time>2026-05-02T09:28:08.998Z</time></trkpt><trkpt lat="44.465568396921455" lon="9.920558886564606"><ele>1001.0</ele><time>2026-05-02T09:28:09.998Z</time></trkpt><trkpt lat="44.4657314881177" lon="9.920476217894254"><ele>1002.0</ele><time>2026-05-02T09:28:10.998Z</time></trkpt><trkpt lat="44.465886878134974" lon="9.92039911116143"><ele>1003.0</ele><time>2026-05-02T09:28:12Z</time></trkpt><trkpt lat="44.4660395551828" lon="9.920334509497106"><ele>1004.0</ele><time>2026-05-02T09:28:13Z</time></trkpt><trkpt lat="44.46619128081244" lon="9.920279834418574"><ele>1003.6666666666667</ele><time>2026-05-02T09:28:14Z</time></trkpt><trkpt lat="44.46635415466042" lon="9.920258174171849"><ele>1003.3333333333333</ele><time>2026-05-02T09:28:15Z</time></trkpt><trkpt lat="44.46652867631859" lon="9.920281874299443"><ele>1003.0</ele><time>2026-05-02T09:28:16Z</time></trkpt><trkpt lat="44.466713663460325" lon="9.920297811050563"><ele>1003.0</ele><time>2026-05-02T09:28:17Z</time></trkpt><trkpt lat="44.46689916113574" lon="9.920317721860732"><ele>1003.0</ele><time>2026-05-02T09:28:18Z</time></trkpt><trkpt lat="44.467082743543656" lon="9.920346862989302"><ele>1003.0</ele><time>2026-05-02T09:28:19Z</time></trkpt><trkpt lat="44.46726349979422" lon="9.92037032907614"><ele>1005.6666666666666</ele><time>2026-05-02T09:28:20Z</time></trkpt><trkpt lat="44.4674276847291" lon="9.920388663135792"><ele>1008.3333333333333</ele><time>2026-05-02T09:28:21Z</time></trkpt><trkpt lat="44.467596253869324" lon="9.920429363258062"><ele>1011.0</ele><time>2026-05-02T09:28:22Z</time></trkpt><trkpt lat="44.46772873313344" lon="9.920572325850921"><ele>1011.0</ele><time>2026-05-02T09:28:23Z</time></trkpt><trkpt lat="44.467869070291094" lon="9.920724849385705"><ele>1011.0</ele><time>2026-05-02T09:28:24Z</time></trkpt><trkpt lat="44.468023216768195" lon="9.920881200335495"><ele>1011.0</ele><time>2026-05-02T09:28:25Z</time></trkpt><trkpt lat="44.468162557353985" lon="9.921059372989063"><ele>1012.3333333333333</ele><time>2026-05-02T09:28:26Z</time></trkpt><trkpt lat="44.46830104409883" lon="9.921239535007805"><ele>1013.6666666666666</ele><time>2026-05-02T09:28:27Z</time></trkpt><trkpt lat="44.46842931708502" lon="9.921429783457326"><ele>1015.0</ele><time>2026-05-02T09:28:28Z</time></trkpt><trkpt lat="44.468543026948744" lon="9.921642863412009"><ele>1016.3333333333333</ele><time>2026-05-02T09:28:29Z</time></trkpt><trkpt lat="44.468651617147366" lon="9.921869085399862"><ele>1017.6666666666667</ele><time>2026-05-02T09:28:30Z</time></trkpt><trkpt lat="44.468760509805854" lon="9.92208209166131"><ele>1019.0</ele><time>2026-05-02T09:28:31Z</time></trkpt><trkpt lat="44.468860843370344" lon="9.922277369317266"><ele>1019.0</ele><time>2026-05-02T09:28:32Z</time></trkpt><trkpt lat="44.46895042079482" lon="9.922438584582352"><ele>1019.0</ele><time>2026-05-02T09:28:33Z</time></trkpt><trkpt lat="44.46903831008827" lon="9.922543443931783"><ele>1019.0</ele><time>2026-05-02T09:28:34Z</time></trkpt><trkpt lat="44.469163857449985" lon="9.922603401322183"><ele>1019.0</ele><time>2026-05-02T09:28:35Z</time></trkpt><trkpt lat="44.469284806643714" lon="9.922592564041816"><ele>1019.0</ele><time>2026-05-02T09:28:36Z</time></trkpt><trkpt lat="44.46938860516383" lon="9.922518079089851"><ele>1019.0</ele><time>2026-05-02T09:28:37Z</time></trkpt><trkpt lat="44.46944819208541" lon="9.922376179459025"><ele>1019.0</ele><time>2026-05-02T09:28:38Z</time></trkpt><trkpt lat="44.469482439893085" lon="9.922186911635073"><ele>1019.0</ele><time>2026-05-02T09:28:39Z</time></trkpt><trkpt lat="44.469520695822254" lon="9.921995240255315"><ele>1019.0</ele><time>2026-05-02T09:28:40Z</time></trkpt><trkpt lat="44.46959317219935" lon="9.921799863769396"><ele>1019.0</ele><time>2026-05-02T09:28:41Z</time></trkpt><trkpt lat="44.46966879709323" lon="9.921617694183803"><ele>1019.0</ele><time>2026-05-02T09:28:42Z</time></trkpt><trkpt lat="44.469721056836576" lon="9.921440404860222"><ele>1019.0</ele><time>2026-05-02T09:28:43Z</time></trkpt><trkpt lat="44.46977875434923" lon="9.921290627138372"><ele>1018.6666666666667</ele><time>2026-05-02T09:28:44Z</time></trkpt><trkpt lat="44.46983298495317" lon="9.921170035999893"><ele>1018.3333333333334</ele><time>2026-05-02T09:28:45Z</time></trkpt><trkpt lat="44.46986828630455" lon="9.921067750260985"><ele>1018.0</ele><time>2026-05-02T09:28:46Z</time></trkpt><trkpt lat="44.46990281853945" lon="9.920992206904529"><ele>1017.6666666666667</ele><time>2026-05-02T09:28:47Z</time></trkpt><trkpt lat="44.46994458041944" lon="9.920895670231788"><ele>1017.3333333333334</ele><time>2026-05-02T09:28:49Z</time></trkpt><trkpt lat="44.469966798535545" lon="9.920809967190392"><ele>1017.0</ele><time>2026-05-02T09:30:24Z</time></trkpt><trkpt lat="44.46999952444093" lon="9.92072161501076"><ele>1020.2</ele><time>2026-05-02T09:30:25Z</time></trkpt><trkpt lat="44.47004711861533" lon="9.920650103488041"><ele>1023.4000000000001</ele><time>2026-05-02T09:30:25.999Z</time></trkpt><trkpt lat="44.47011814769394" lon="9.920594270140912"><ele>1026.6</ele><time>2026-05-02T09:30:26.999Z</time></trkpt><trkpt lat="44.47019895207351" lon="9.920579005507912"><ele>1029.8</ele><time>2026-05-02T09:30:28Z</time></trkpt><trkpt lat="44.47030811306689" lon="9.920627492982401"><ele>1033.0</ele><time>2026-05-02T09:30:29Z</time></trkpt><trkpt lat="44.470396426246076" lon="9.920714667643592"><ele>1034.0</ele><time>2026-05-02T09:30:30Z</time></trkpt><trkpt lat="44.47050103684218" lon="9.92083988825009"><ele>1035.0</ele><time>2026-05-02T09:30:31Z</time></trkpt><trkpt lat="44.47060230255121" lon="9.920976587917652"><ele>1036.0</ele><time>2026-05-02T09:30:32Z</time></trkpt><trkpt lat="44.470701610171226" lon="9.92111609293868"><ele>1037.0</ele><time>2026-05-02T09:30:33Z</time></trkpt><trkpt lat="44.470811782335026" lon="9.921261858171434"><ele>1031.6666666666667</ele><time>2026-05-02T09:30:34Z</time></trkpt><trkpt lat="44.47092386647891" lon="9.921416120717524"><ele>1026.3333333333333</ele><time>2026-05-02T09:30:35Z</time></trkpt><trkpt lat="44.471028822380354" lon="9.921561390940681"><ele>1021.0</ele><time>2026-05-02T09:30:36Z</time></trkpt><trkpt lat="44.47113341998456" lon="9.921704782888751"><ele>1017.0</ele><time>2026-05-02T09:30:37Z</time></trkpt><trkpt lat="44.471223586882054" lon="9.921877002894774"><ele>1013.0</ele><time>2026-05-02T09:30:38Z</time></trkpt><trkpt lat="44.47126175589773" lon="9.922105034415312"><ele>1009.0</ele><time>2026-05-02T09:30:39Z</time></trkpt><trkpt lat="44.47125424184657" lon="9.922221591799966"><ele>1005.0</ele><time>2026-05-02T09:30:40Z</time></trkpt><trkpt lat="44.47124885422743" lon="9.92243653340753"><ele>1002.3333333333333</ele><time>2026-05-02T09:30:41Z</time></trkpt><trkpt lat="44.471269688411375" lon="9.922649186964378"><ele>999.6666666666666</ele><time>2026-05-02T09:30:42Z</time></trkpt><trkpt lat="44.471306701836426" lon="9.92286209522502"><ele>997.0</ele><time>2026-05-02T09:30:43Z</time></trkpt><trkpt lat="44.47138129392419" lon="9.923059384186441"><ele>1007.6666666666666</ele><time>2026-05-02T09:30:44Z</time></trkpt><trkpt lat="44.47148598816665" lon="9.923244404140071"><ele>1018.3333333333333</ele><time>2026-05-02T09:30:45Z</time></trkpt><trkpt lat="44.47158541681956" lon="9.92345287515202"><ele>1029.0</ele><time>2026-05-02T09:30:46Z</time></trkpt><trkpt lat="44.471669276749985" lon="9.923661401779428"><ele>1029.0</ele><time>2026-05-02T09:30:47Z</time></trkpt><trkpt lat="44.471743389430145" lon="9.92386112529357"><ele>1029.0</ele><time>2026-05-02T09:30:48Z</time></trkpt><trkpt lat="44.47178606009625" lon="9.924055112557857"><ele>1029.0</ele><time>2026-05-02T09:30:49Z</time></trkpt><trkpt lat="44.47180321764325" lon="9.924251241883619"><ele>1029.0</ele><time>2026-05-02T09:30:50Z</time></trkpt><trkpt lat="44.47178467536938" lon="9.92445708730499"><ele>1031.6666666666667</ele><time>2026-05-02T09:30:51Z</time></trkpt><trkpt lat="44.47172706997735" lon="9.92466894921957"><ele>1034.3333333333335</ele><time>2026-05-02T09:30:52Z</time></trkpt><trkpt lat="44.4716494222957" lon="9.924906477085173"><ele>1037.0</ele><time>2026-05-02T09:30:53Z</time></trkpt><trkpt lat="44.47156853731328" lon="9.925144869455538"><ele>1041.0</ele><time>2026-05-02T09:30:53.999Z</time></trkpt><trkpt lat="44.471501500514314" lon="9.92539153363066"><ele>1045.0</ele><time>2026-05-02T09:30:54.999Z</time></trkpt><trkpt lat="44.4714053105096" lon="9.925620458060001"><ele>1049.0</ele><time>2026-05-02T09:30:55.999Z</time></trkpt><trkpt lat="44.47134445240515" lon="9.925865082658527"><ele>1049.6666666666667</ele><time>2026-05-02T09:30:56.999Z</time></trkpt><trkpt lat="44.47130119442226" lon="9.926114065138362"><ele>1050.3333333333333</ele><time>2026-05-02T09:30:57.999Z</time></trkpt><trkpt lat="44.47129082234052" lon="9.926384449103749"><ele>1051.0</ele><time>2026-05-02T09:30:58.999Z</time></trkpt><trkpt lat="44.47131110325553" lon="9.926644375764116"><ele>1048.6666666666665</ele><time>2026-05-02T09:30:59.999Z</time></trkpt><trkpt lat="44.47135355860422" lon="9.926901471606055"><ele>1046.3333333333333</ele><time>2026-05-02T09:31:00.999Z</time></trkpt><trkpt lat="44.47134618971438" lon="9.927149316625735"><ele>1044.0</ele><time>2026-05-02T09:31:01.999Z</time></trkpt><trkpt lat="44.471319505948756" lon="9.927365131042192"><ele>1042.5</ele><time>2026-05-02T09:31:02.999Z</time></trkpt><trkpt lat="44.471317645876475" lon="9.927575090798857"><ele>1041.0</ele><time>2026-05-02T09:31:03.999Z</time></trkpt><trkpt lat="44.471319262998215" lon="9.927774865208544"><ele>1039.5</ele><time>2026-05-02T09:31:04.999Z</time></trkpt><trkpt lat="44.4713655627674" lon="9.927959154563474"><ele>1038.0</ele><time>2026-05-02T09:31:05.999Z</time></trkpt><trkpt lat="44.471423840328285" lon="9.928130627514777"><ele>1038.0</ele><time>2026-05-02T09:31:06.999Z</time></trkpt><trkpt lat="44.47148166886166" lon="9.928271935237088"><ele>1038.0</ele><time>2026-05-02T09:31:07.999Z</time></trkpt><trkpt lat="44.47152354740023" lon="9.928390402520904"><ele>1038.0</ele><time>2026-05-02T09:31:08.999Z</time></trkpt><trkpt lat="44.471568149596266" lon="9.928486127100037"><ele>1038.0</ele><time>2026-05-02T09:31:09.999Z</time></trkpt><trkpt lat="44.47160910659426" lon="9.92857426122424"><ele>1038.0</ele><time>2026-05-02T09:31:10.999Z</time></trkpt><trkpt lat="44.471644628576136" lon="9.928662371075497"><ele>1038.0</ele><time>2026-05-02T09:31:11.999Z</time></trkpt><trkpt lat="44.4716833492011" lon="9.928744715609454"><ele>1038.6666666666667</ele><time>2026-05-02T09:31:12.999Z</time></trkpt><trkpt lat="44.47171292162516" lon="9.928840118327063"><ele>1039.3333333333333</ele><time>2026-05-02T09:31:13.999Z</time></trkpt><trkpt lat="44.4717634396608" lon="9.928939131481316"><ele>1040.0</ele><time>2026-05-02T09:31:14.999Z</time></trkpt><trkpt lat="44.471804583352004" lon="9.92905591206826"><ele>1040.6666666666665</ele><time>2026-05-02T09:31:15.999Z</time></trkpt><trkpt lat="44.47185466581719" lon="9.92917210301404"><ele>1041.3333333333333</ele><time>2026-05-02T09:31:16.999Z</time></trkpt><trkpt lat="44.47190310651523" lon="9.929290328644603"><ele>1042.0</ele><time>2026-05-02T09:31:17.999Z</time></trkpt><trkpt lat="44.471952482887154" lon="9.929411241553511"><ele>1040.2</ele><time>2026-05-02T09:31:18.999Z</time></trkpt><trkpt lat="44.472003864872036" lon="9.92953393421347"><ele>1038.4</ele><time>2026-05-02T09:31:19.999Z</time></trkpt><trkpt lat="44.472056934922215" lon="9.929666608094344"><ele>1036.6</ele><time>2026-05-02T09:31:20.999Z</time></trkpt><trkpt lat="44.47210593096023" lon="9.9298050403158"><ele>1034.8</ele><time>2026-05-02T09:31:21.999Z</time></trkpt><trkpt lat="44.47216094429333" lon="9.929948432438472"><ele>1033.0</ele><time>2026-05-02T09:31:22.999Z</time></trkpt><trkpt lat="44.47222215647156" lon="9.930098891670003"><ele>1033.0</ele><time>2026-05-02T09:31:23.999Z</time></trkpt><trkpt lat="44.47228543355465" lon="9.930256943336428"><ele>1033.0</ele><time>2026-05-02T09:31:24.999Z</time></trkpt><trkpt lat="44.4723511184127" lon="9.930417730267376"><ele>1033.0</ele><time>2026-05-02T09:31:25.999Z</time></trkpt><trkpt lat="44.4724070851598" lon="9.930584671257858"><ele>1033.0</ele><time>2026-05-02T09:31:26.999Z</time></trkpt><trkpt lat="44.47245293649536" lon="9.930765355204603"><ele>1030.6666666666665</ele><time>2026-05-02T09:31:27.999Z</time></trkpt><trkpt lat="44.47247583616617" lon="9.930958259811433"><ele>1028.3333333333333</ele><time>2026-05-02T09:31:28.999Z</time></trkpt><trkpt lat="44.47248181190583" lon="9.93117154988165"><ele>1026.0</ele><time>2026-05-02T09:31:29.999Z</time></trkpt><trkpt lat="44.47246529054285" lon="9.931395955235052"><ele>1026.0</ele><time>2026-05-02T09:31:30.999Z</time></trkpt><trkpt lat="44.472415606607946" lon="9.931619011996673"><ele>1026.0</ele><time>2026-05-02T09:31:31.999Z</time></trkpt><trkpt lat="44.47235886137529" lon="9.931858575084808"><ele>1026.0</ele><time>2026-05-02T09:31:32.999Z</time></trkpt><trkpt lat="44.47231304942597" lon="9.932113438293836"><ele>1022.6666666666667</ele><time>2026-05-02T09:31:33.999Z</time></trkpt><trkpt lat="44.47225248501709" lon="9.932361287640923"><ele>1019.3333333333334</ele><time>2026-05-02T09:31:34.999Z</time></trkpt><trkpt lat="44.472195816115885" lon="9.932618139697544"><ele>1016.0</ele><time>2026-05-02T09:31:35.999Z</time></trkpt><trkpt lat="44.472110686306166" lon="9.932867068239553"><ele>1019.0</ele><time>2026-05-02T09:31:36.999Z</time></trkpt><trkpt lat="44.47201364533839" lon="9.933116132194716"><ele>1022.0</ele><time>2026-05-02T09:31:37.999Z</time></trkpt><trkpt lat="44.471920995965334" lon="9.933370657162694"><ele>1025.0</ele><time>2026-05-02T09:31:38.999Z</time></trkpt><trkpt lat="44.471831172545514" lon="9.933554950569961"><ele>1025.0</ele><time>2026-05-02T09:31:39.999Z</time></trkpt><trkpt lat="44.47173743209774" lon="9.933762108973763"><ele>1025.0</ele><time>2026-05-02T09:31:40.999Z</time></trkpt><trkpt lat="44.471646111776806" lon="9.933965847425757"><ele>1025.0</ele><time>2026-05-02T09:31:41.999Z</time></trkpt><trkpt lat="44.471555078037134" lon="9.934168918331547"><ele>1023.0</ele><time>2026-05-02T09:31:42.999Z</time></trkpt><trkpt lat="44.47147971709549" lon="9.934379533523034"><ele>1021.0</ele><time>2026-05-02T09:31:43.999Z</time></trkpt><trkpt lat="44.471435987320696" lon="9.934600192594159"><ele>1019.0</ele><time>2026-05-02T09:31:44.999Z</time></trkpt><trkpt lat="44.471421854141816" lon="9.934797526225914"><ele>1019.0</ele><time>2026-05-02T09:31:45.999Z</time></trkpt><trkpt lat="44.47141399768813" lon="9.934957631346801"><ele>1019.0000000000001</ele><time>2026-05-02T09:31:46.999Z</time></trkpt><trkpt lat="44.47143190372818" lon="9.93508855026803"><ele>1019.0000000000001</ele><time>2026-05-02T09:31:47.999Z</time></trkpt><trkpt lat="44.471490979054956" lon="9.935176560217604"><ele>1019.0</ele><time>2026-05-02T09:31:48.999Z</time></trkpt><trkpt lat="44.47156679618825" lon="9.935220153090972"><ele>1019.0</ele><time>2026-05-02T09:31:49.999Z</time></trkpt><trkpt lat="44.47165276646447" lon="9.935229885231433"><ele>1019.5</ele><time>2026-05-02T09:31:50.999Z</time></trkpt><trkpt lat="44.47175754199505" lon="9.935207817536961"><ele>1020.0</ele><time>2026-05-02T09:31:51.999Z</time></trkpt><trkpt lat="44.47187384380222" lon="9.93517990301442"><ele>1020.5</ele><time>2026-05-02T09:31:52.999Z</time></trkpt><trkpt lat="44.4719974669713" lon="9.935210196530065"><ele>1021.0</ele><time>2026-05-02T09:31:53.999Z</time></trkpt><trkpt lat="44.472110693716914" lon="9.935307304591543"><ele>1021.0</ele><time>2026-05-02T09:31:54.999Z</time></trkpt><trkpt lat="44.472219993175365" lon="9.935451701888514"><ele>1021.0</ele><time>2026-05-02T09:31:55.999Z</time></trkpt><trkpt lat="44.472326303434365" lon="9.935595436704993"><ele>1021.0</ele><time>2026-05-02T09:31:56.999Z</time></trkpt><trkpt lat="44.47244168543803" lon="9.935732562106699"><ele>1021.0</ele><time>2026-05-02T09:31:57.999Z</time></trkpt><trkpt lat="44.47255734983239" lon="9.935858922623138"><ele>1023.0</ele><time>2026-05-02T09:31:58.999Z</time></trkpt><trkpt lat="44.47266976124425" lon="9.935984179241698"><ele>1025.0</ele><time>2026-05-02T09:31:59.999Z</time></trkpt><trkpt lat="44.4727590206661" lon="9.936141294088296"><ele>1027.0</ele><time>2026-05-02T09:32:00.999Z</time></trkpt><trkpt lat="44.47282177368692" lon="9.936315136694938"><ele>1029.0</ele><time>2026-05-02T09:32:01.998Z</time></trkpt><trkpt lat="44.472834331956165" lon="9.93650621809288"><ele>1029.0</ele><time>2026-05-02T09:32:02.998Z</time></trkpt><trkpt lat="44.47280732913611" lon="9.93669729861077"><ele>1029.0</ele><time>2026-05-02T09:32:03.998Z</time></trkpt><trkpt lat="44.47274593558454" lon="9.936896943705015"><ele>1029.0</ele><time>2026-05-02T09:32:04.998Z</time></trkpt><trkpt lat="44.47269740395323" lon="9.937114785703058"><ele>1028.3333333333333</ele><time>2026-05-02T09:32:05.998Z</time></trkpt><trkpt lat="44.47265551059093" lon="9.937343213628642"><ele>1027.6666666666665</ele><time>2026-05-02T09:32:06.998Z</time></trkpt><trkpt lat="44.4726373562161" lon="9.93759015032494"><ele>1027.0</ele><time>2026-05-02T09:32:07.998Z</time></trkpt><trkpt lat="44.472621451006326" lon="9.937823936692059"><ele>1025.6666666666665</ele><time>2026-05-02T09:32:08.998Z</time></trkpt><trkpt lat="44.472595119585854" lon="9.938054987646446"><ele>1024.3333333333333</ele><time>2026-05-02T09:32:09.998Z</time></trkpt><trkpt lat="44.472570803012374" lon="9.938277015607765"><ele>1023.0</ele><time>2026-05-02T09:32:10.998Z</time></trkpt><trkpt lat="44.47255088248025" lon="9.938477908229322"><ele>1021.75</ele><time>2026-05-02T09:32:11.998Z</time></trkpt><trkpt lat="44.472513282487554" lon="9.938641391642317"><ele>1020.5</ele><time>2026-05-02T09:32:12.998Z</time></trkpt><trkpt lat="44.47241691033375" lon="9.938754873469259"><ele>1019.25</ele><time>2026-05-02T09:32:13.998Z</time></trkpt><trkpt lat="44.472311866054625" lon="9.938863350921947"><ele>1018.0</ele><time>2026-05-02T09:32:14.998Z</time></trkpt><trkpt lat="44.47222752035002" lon="9.938964813655744"><ele>1018.0</ele><time>2026-05-02T09:32:15.998Z</time></trkpt><trkpt lat="44.47215939835682" lon="9.939058317229522"><ele>1018.0</ele><time>2026-05-02T09:32:16.998Z</time></trkpt><trkpt lat="44.47213796276077" lon="9.93920700385058"><ele>1018.0</ele><time>2026-05-02T09:32:17.998Z</time></trkpt><trkpt lat="44.472156741699834" lon="9.939369801976817"><ele>1018.0</ele><time>2026-05-02T09:32:18.998Z</time></trkpt><trkpt lat="44.4722033099898" lon="9.939530442085186"><ele>1018.0</ele><time>2026-05-02T09:32:19.998Z</time></trkpt><trkpt lat="44.47223632416721" lon="9.93970417578001"><ele>1019.0</ele><time>2026-05-02T09:32:20.998Z</time></trkpt><trkpt lat="44.47228855595947" lon="9.939865760777634"><ele>1020.0</ele><time>2026-05-02T09:32:21.998Z</time></trkpt><trkpt lat="44.47232430352605" lon="9.9400050026786"><ele>1021.0</ele><time>2026-05-02T09:32:22.998Z</time></trkpt><trkpt lat="44.47240285639481" lon="9.940101407059041"><ele>1022.0</ele><time>2026-05-02T09:32:24Z</time></trkpt><trkpt lat="44.47252118008513" lon="9.940158076187222"><ele>1024.6666666666667</ele><time>2026-05-02T09:32:25Z</time></trkpt><trkpt lat="44.472663157999364" lon="9.940189257483096"><ele>1027.3333333333333</ele><time>2026-05-02T09:32:26Z</time></trkpt><trkpt lat="44.472813145541394" lon="9.940211999220713"><ele>1030.0</ele><time>2026-05-02T09:32:27Z</time></trkpt><trkpt lat="44.472973293902236" lon="9.940234745051074"><ele>1030.0</ele><time>2026-05-02T09:32:28Z</time></trkpt><trkpt lat="44.47312131935092" lon="9.940243163778774"><ele>1030.0</ele><time>2026-05-02T09:32:29Z</time></trkpt><trkpt lat="44.47326392358448" lon="9.940247676492831"><ele>1030.0</ele><time>2026-05-02T09:32:30Z</time></trkpt><trkpt lat="44.47339728859477" lon="9.940313771242113"><ele>1030.0</ele><time>2026-05-02T09:32:31Z</time></trkpt><trkpt lat="44.4735039747381" lon="9.94041322485443"><ele>1030.0</ele><time>2026-05-02T09:32:32Z</time></trkpt><trkpt lat="44.47358942229745" lon="9.940568112274486"><ele>1030.0</ele><time>2026-05-02T09:32:33Z</time></trkpt><trkpt lat="44.47368210401615" lon="9.940743099977981"><ele>1030.0</ele><time>2026-05-02T09:32:34Z</time></trkpt><trkpt lat="44.473788294548186" lon="9.940930261032337"><ele>1023.6666666666666</ele><time>2026-05-02T09:32:35Z</time></trkpt><trkpt lat="44.47389064303515" lon="9.941116761180947"><ele>1017.3333333333333</ele><time>2026-05-02T09:32:36Z</time></trkpt><trkpt lat="44.47400989378682" lon="9.941260315150483"><ele>1011.0</ele><time>2026-05-02T09:32:37Z</time></trkpt><trkpt lat="44.47412716837782" lon="9.941329264083057"><ele>1011.0</ele><time>2026-05-02T09:32:38Z</time></trkpt><trkpt lat="44.47422681660684" lon="9.941377635048283"><ele>1010.9999999999999</ele><time>2026-05-02T09:32:39Z</time></trkpt><trkpt lat="44.474297101162584" lon="9.941449697867247"><ele>1010.9999999999999</ele><time>2026-05-02T09:32:40Z</time></trkpt><trkpt lat="44.474313696473004" lon="9.941558661994158"><ele>1011.0</ele><time>2026-05-02T09:32:41Z</time></trkpt><trkpt lat="44.474268762074495" lon="9.941687512501877"><ele>1011.0</ele><time>2026-05-02T09:32:42Z</time></trkpt><trkpt lat="44.474154735839846" lon="9.941777340901789"><ele>1008.0</ele><time>2026-05-02T09:32:43Z</time></trkpt><trkpt lat="44.474049491611616" lon="9.941911079389463"><ele>1005.0</ele><time>2026-05-02T09:32:44Z</time></trkpt><trkpt lat="44.47393096529394" lon="9.942039819375163"><ele>1002.0</ele><time>2026-05-02T09:32:45Z</time></trkpt><trkpt lat="44.473820771604494" lon="9.942161397173779"><ele>999.0</ele><time>2026-05-02T09:32:46Z</time></trkpt><trkpt lat="44.47371073518433" lon="9.94228341589042"><ele>1004.25</ele><time>2026-05-02T09:32:47Z</time></trkpt><trkpt lat="44.47362747815924" lon="9.942417295878043"><ele>1009.5</ele><time>2026-05-02T09:32:48Z</time></trkpt><trkpt lat="44.47356565650787" lon="9.942599283201671"><ele>1014.75</ele><time>2026-05-02T09:32:49Z</time></trkpt><trkpt lat="44.47354237397999" lon="9.942802460811734"><ele>1020.0</ele><time>2026-05-02T09:32:50Z</time></trkpt><trkpt lat="44.47353273406015" lon="9.943021118563612"><ele>1020.0</ele><time>2026-05-02T09:32:51Z</time></trkpt><trkpt lat="44.47354398120895" lon="9.94322730843296"><ele>1020.0</ele><time>2026-05-02T09:32:52Z</time></trkpt><trkpt lat="44.47358328821507" lon="9.94342454392677"><ele>1020.0</ele><time>2026-05-02T09:32:53Z</time></trkpt><trkpt lat="44.47366280879515" lon="9.943613646298532"><ele>1019.3333333333333</ele><time>2026-05-02T09:32:53.999Z</time></trkpt><trkpt lat="44.47376329332402" lon="9.943811171154428"><ele>1018.6666666666666</ele><time>2026-05-02T09:32:54.999Z</time></trkpt><trkpt lat="44.47385943894613" lon="9.944000774454224"><ele>1018.0</ele><time>2026-05-02T09:32:55.999Z</time></trkpt><trkpt lat="44.47392599783192" lon="9.944214064771728"><ele>1014.0</ele><time>2026-05-02T09:32:56.999Z</time></trkpt><trkpt lat="44.47402082555638" lon="9.944421830162518"><ele>1010.0</ele><time>2026-05-02T09:32:57.999Z</time></trkpt><trkpt lat="44.47407224360994" lon="9.944652848207436"><ele>1006.0</ele><time>2026-05-02T09:32:58.999Z</time></trkpt><trkpt lat="44.47413865811121" lon="9.944840741276993"><ele>1006.0</ele><time>2026-05-02T09:32:59.999Z</time></trkpt><trkpt lat="44.47416279986611" lon="9.945031530210343"><ele>1006.0</ele><time>2026-05-02T09:33:00.999Z</time></trkpt><trkpt lat="44.47419520568303" lon="9.945221177921884"><ele>1006.0</ele><time>2026-05-02T09:33:01.999Z</time></trkpt><trkpt lat="44.474226372561354" lon="9.945406185427482"><ele>1006.0</ele><time>2026-05-02T09:33:02.999Z</time></trkpt><trkpt lat="44.47427489271169" lon="9.945592492392395"><ele>1006.75</ele><time>2026-05-02T09:33:03.999Z</time></trkpt><trkpt lat="44.47429063163396" lon="9.945781398279866"><ele>1007.5</ele><time>2026-05-02T09:33:04.999Z</time></trkpt><trkpt lat="44.47432387414268" lon="9.945959155348476"><ele>1008.25</ele><time>2026-05-02T09:33:05.999Z</time></trkpt><trkpt lat="44.47435976506685" lon="9.946105923943401"><ele>1009.0</ele><time>2026-05-02T09:33:06.999Z</time></trkpt><trkpt lat="44.47444952114946" lon="9.946217486526443"><ele>1007.75</ele><time>2026-05-02T09:33:07.999Z</time></trkpt><trkpt lat="44.47455384422561" lon="9.946317590582542"><ele>1006.5</ele><time>2026-05-02T09:33:08.999Z</time></trkpt><trkpt lat="44.474699235225046" lon="9.946373354390206"><ele>1005.25</ele><time>2026-05-02T09:33:09.999Z</time></trkpt><trkpt lat="44.474854912383414" lon="9.946414604615272"><ele>1004.0</ele><time>2026-05-02T09:33:10.999Z</time></trkpt><trkpt lat="44.475012031089534" lon="9.94646489717639"><ele>1004.0</ele><time>2026-05-02T09:33:11.999Z</time></trkpt><trkpt lat="44.47517157262422" lon="9.946500540228064"><ele>1004.0</ele><time>2026-05-02T09:33:12.999Z</time></trkpt><trkpt lat="44.47533387426155" lon="9.946512946597922"><ele>1004.0</ele><time>2026-05-02T09:33:13.999Z</time></trkpt><trkpt lat="44.47548559477927" lon="9.946542768906731"><ele>1006.0</ele><time>2026-05-02T09:33:14.999Z</time></trkpt><trkpt lat="44.4756424243738" lon="9.946595412401978"><ele>1008.0</ele><time>2026-05-02T09:33:15.999Z</time></trkpt><trkpt lat="44.47578099646835" lon="9.946666923393733"><ele>1010.0</ele><time>2026-05-02T09:33:16.999Z</time></trkpt><trkpt lat="44.47592274711778" lon="9.946750393351957"><ele>1010.0</ele><time>2026-05-02T09:33:17.999Z</time></trkpt><trkpt lat="44.47605869457642" lon="9.946827177970523"><ele>1010.0</ele><time>2026-05-02T09:33:18.999Z</time></trkpt><trkpt lat="44.47619360984898" lon="9.946908923923951"><ele>1010.0</ele><time>2026-05-02T09:33:19.999Z</time></trkpt><trkpt lat="44.47632222561192" lon="9.94698958303491"><ele>1010.0</ele><time>2026-05-02T09:33:20.999Z</time></trkpt><trkpt lat="44.47644087135519" lon="9.947082972482923"><ele>1009.0</ele><time>2026-05-02T09:33:21.999Z</time></trkpt><trkpt lat="44.476533463315675" lon="9.947211015818326"><ele>1008.0</ele><time>2026-05-02T09:33:22.999Z</time></trkpt><trkpt lat="44.4766015632811" lon="9.947372060465932"><ele>1007.0</ele><time>2026-05-02T09:33:23.999Z</time></trkpt><trkpt lat="44.4766674388381" lon="9.947533839673856"><ele>1006.0</ele><time>2026-05-02T09:33:24.999Z</time></trkpt><trkpt lat="44.476731988411174" lon="9.947682604045024"><ele>1006.0</ele><time>2026-05-02T09:33:25.999Z</time></trkpt><trkpt lat="44.47680728012934" lon="9.947818860823107"><ele>1006.0</ele><time>2026-05-02T09:33:26.999Z</time></trkpt><trkpt lat="44.476896583316744" lon="9.947932249179122"><ele>1006.0</ele><time>2026-05-02T09:33:27.999Z</time></trkpt><trkpt lat="44.47699472665161" lon="9.94802515247439"><ele>1006.0</ele><time>2026-05-02T09:33:28.999Z</time></trkpt><trkpt lat="44.47710642702585" lon="9.948107872684318"><ele>1003.25</ele><time>2026-05-02T09:33:29.999Z</time></trkpt><trkpt lat="44.47722546013983" lon="9.948171941041828"><ele>1000.5</ele><time>2026-05-02T09:33:30.999Z</time></trkpt><trkpt lat="44.4773475103203" lon="9.948213171620534"><ele>997.75</ele><time>2026-05-02T09:33:31.999Z</time></trkpt><trkpt lat="44.47745639591696" lon="9.948271360495895"><ele>995.0</ele><time>2026-05-02T09:33:32.999Z</time></trkpt><trkpt lat="44.477553737207366" lon="9.94839511581924"><ele>995.0</ele><time>2026-05-02T09:33:33.999Z</time></trkpt><trkpt lat="44.47762834118439" lon="9.948557967590325"><ele>995.0</ele><time>2026-05-02T09:33:34.999Z</time></trkpt><trkpt lat="44.477677292314674" lon="9.948742235921797"><ele>995.0</ele><time>2026-05-02T09:33:35.999Z</time></trkpt><trkpt lat="44.47770237780486" lon="9.948947574929294"><ele>995.0</ele><time>2026-05-02T09:33:36.999Z</time></trkpt><trkpt lat="44.47771044222933" lon="9.949160000406188"><ele>996.25</ele><time>2026-05-02T09:33:37.999Z</time></trkpt><trkpt lat="44.477694206972096" lon="9.949355216216407"><ele>997.5</ele><time>2026-05-02T09:33:38.999Z</time></trkpt><trkpt lat="44.477689054125825" lon="9.949521411568552"><ele>998.75</ele><time>2026-05-02T09:33:39.999Z</time></trkpt><trkpt lat="44.47770384547989" lon="9.949679057055587"><ele>1000.0</ele><time>2026-05-02T09:33:40.999Z</time></trkpt><trkpt lat="44.47778898448928" lon="9.949808327469551"><ele>1000.0</ele><time>2026-05-02T09:33:41.999Z</time></trkpt><trkpt lat="44.4778888140651" lon="9.949921781995204"><ele>1000.0</ele><time>2026-05-02T09:33:42.999Z</time></trkpt><trkpt lat="44.477998765542914" lon="9.95000886193663"><ele>1000.0</ele><time>2026-05-02T09:33:43.999Z</time></trkpt><trkpt lat="44.47811186198051" lon="9.950075246926808"><ele>1000.0</ele><time>2026-05-02T09:33:44.999Z</time></trkpt><trkpt lat="44.478224601974446" lon="9.950116666030112"><ele>1000.6</ele><time>2026-05-02T09:33:45.999Z</time></trkpt><trkpt lat="44.478334854744766" lon="9.950125671804138"><ele>1001.2</ele><time>2026-05-02T09:33:46.999Z</time></trkpt><trkpt lat="44.47844224446259" lon="9.9501063341332"><ele>1001.8</ele><time>2026-05-02T09:33:47.999Z</time></trkpt><trkpt lat="44.47854614795564" lon="9.950085802990287"><ele>1002.4</ele><time>2026-05-02T09:33:48.999Z</time></trkpt><trkpt lat="44.47864805152285" lon="9.950079691423433"><ele>1003.0</ele><time>2026-05-02T09:33:49.999Z</time></trkpt><trkpt lat="44.47873483157461" lon="9.950061366913543"><ele>1002.6666666666666</ele><time>2026-05-02T09:33:50.999Z</time></trkpt><trkpt lat="44.478821643299256" lon="9.950055336482995"><ele>1002.3333333333333</ele><time>2026-05-02T09:33:51.999Z</time></trkpt><trkpt lat="44.47890447571003" lon="9.950043384699924"><ele>1002.0</ele><time>2026-05-02T09:33:52.999Z</time></trkpt><trkpt lat="44.47898883148094" lon="9.950027428877295"><ele>1001.6666666666667</ele><time>2026-05-02T09:33:53.999Z</time></trkpt><trkpt lat="44.479079992376775" lon="9.950012256540985"><ele>1001.3333333333334</ele><time>2026-05-02T09:33:54.999Z</time></trkpt><trkpt lat="44.47917454037232" lon="9.94999491517375"><ele>1001.0</ele><time>2026-05-02T09:33:55.999Z</time></trkpt><trkpt lat="44.4792664865199" lon="9.949978141117324"><ele>997.5999999999999</ele><time>2026-05-02T09:33:56.999Z</time></trkpt><trkpt lat="44.47935752512934" lon="9.949960128017963"><ele>994.1999999999999</ele><time>2026-05-02T09:33:57.999Z</time></trkpt><trkpt lat="44.47944705091983" lon="9.949939520223714"><ele>990.8000000000001</ele><time>2026-05-02T09:33:58.999Z</time></trkpt><trkpt lat="44.47953582266223" lon="9.949924711624872"><ele>987.4000000000001</ele><time>2026-05-02T09:33:59.999Z</time></trkpt><trkpt lat="44.47962609702177" lon="9.94990724119536"><ele>984.0</ele><time>2026-05-02T09:34:00.999Z</time></trkpt><trkpt lat="44.479716661248936" lon="9.949895301107121"><ele>984.0</ele><time>2026-05-02T09:34:01.999Z</time></trkpt><trkpt lat="44.479809632076886" lon="9.949879239039682"><ele>984.0000000000001</ele><time>2026-05-02T09:34:02.998Z</time></trkpt><trkpt lat="44.4799058050376" lon="9.949869059488764"><ele>984.0000000000001</ele><time>2026-05-02T09:34:03.998Z</time></trkpt><trkpt lat="44.48001144753118" lon="9.949854167706553"><ele>984.0</ele><time>2026-05-02T09:34:04.998Z</time></trkpt><trkpt lat="44.480124059845764" lon="9.949836518268775"><ele>984.0</ele><time>2026-05-02T09:34:05.998Z</time></trkpt><trkpt lat="44.48023894578409" lon="9.949813779711473"><ele>984.0</ele><time>2026-05-02T09:34:06.998Z</time></trkpt><trkpt lat="44.48035394515098" lon="9.949793402951217"><ele>984.0</ele><time>2026-05-02T09:34:07.998Z</time></trkpt><trkpt lat="44.48047005430693" lon="9.9497815695726"><ele>984.0</ele><time>2026-05-02T09:34:08.998Z</time></trkpt><trkpt lat="44.48058389062297" lon="9.949732966758852"><ele>984.0</ele><time>2026-05-02T09:34:09.998Z</time></trkpt><trkpt lat="44.48068763672357" lon="9.949622721517052"><ele>984.3333333333333</ele><time>2026-05-02T09:34:10.998Z</time></trkpt><trkpt lat="44.48078252573347" lon="9.949471671944226"><ele>984.6666666666666</ele><time>2026-05-02T09:34:11.998Z</time></trkpt><trkpt lat="44.48088764962453" lon="9.949306430414465"><ele>985.0</ele><time>2026-05-02T09:34:12.998Z</time></trkpt><trkpt lat="44.48100815599746" lon="9.949133524009401"><ele>981.3333333333333</ele><time>2026-05-02T09:34:13.998Z</time></trkpt><trkpt lat="44.481128136750804" lon="9.948976214609386"><ele>977.6666666666667</ele><time>2026-05-02T09:34:14.998Z</time></trkpt><trkpt lat="44.48125667059144" lon="9.948820663596917"><ele>974.0</ele><time>2026-05-02T09:34:15.998Z</time></trkpt><trkpt lat="44.4813758046281" lon="9.94865326091224"><ele>974.0</ele><time>2026-05-02T09:34:16.998Z</time></trkpt><trkpt lat="44.48147157163699" lon="9.948523960149599"><ele>974.0000000000001</ele><time>2026-05-02T09:34:17.998Z</time></trkpt><trkpt lat="44.481558495503606" lon="9.948454022073285"><ele>974.0000000000001</ele><time>2026-05-02T09:34:18.998Z</time></trkpt><trkpt lat="44.48163784423393" lon="9.948394958744961"><ele>974.0</ele><time>2026-05-02T09:34:19.998Z</time></trkpt><trkpt lat="44.481731474068475" lon="9.948487408847845"><ele>974.0</ele><time>2026-05-02T09:34:20.998Z</time></trkpt><trkpt lat="44.48176977549984" lon="9.94861806725779"><ele>974.0</ele><time>2026-05-02T09:34:21.998Z</time></trkpt><trkpt lat="44.481796214237534" lon="9.948787817884787"><ele>974.0</ele><time>2026-05-02T09:34:22.998Z</time></trkpt><trkpt lat="44.48185885809628" lon="9.948987798854482"><ele>974.0</ele><time>2026-05-02T09:34:23.998Z</time></trkpt><trkpt lat="44.4819542380113" lon="9.949171408097584"><ele>974.0</ele><time>2026-05-02T09:34:24.998Z</time></trkpt><trkpt lat="44.482084584573734" lon="9.94930915151671"><ele>973.3333333333334</ele><time>2026-05-02T09:34:25.998Z</time></trkpt><trkpt lat="44.48222963226038" lon="9.949433391407617"><ele>972.6666666666667</ele><time>2026-05-02T09:34:26.998Z</time></trkpt><trkpt lat="44.4823807362597" lon="9.9495712454183"><ele>972.0</ele><time>2026-05-02T09:34:27.998Z</time></trkpt><trkpt lat="44.4825321678362" lon="9.94969913920556"><ele>972.0</ele><time>2026-05-02T09:34:28.998Z</time></trkpt><trkpt lat="44.48268131846377" lon="9.949836048847384"><ele>972.0</ele><time>2026-05-02T09:34:30Z</time></trkpt><trkpt lat="44.48279961308478" lon="9.949961495412998"><ele>972.0</ele><time>2026-05-02T09:34:31Z</time></trkpt><trkpt lat="44.48292116749644" lon="9.950040780529497"><ele>973.6666666666667</ele><time>2026-05-02T09:34:32Z</time></trkpt><trkpt lat="44.48307438705437" lon="9.950057699967745"><ele>975.3333333333334</ele><time>2026-05-02T09:34:33Z</time></trkpt><trkpt lat="44.48323566454008" lon="9.950008234534852"><ele>977.0</ele><time>2026-05-02T09:34:34Z</time></trkpt><trkpt lat="44.48340234809592" lon="9.949977041815496"><ele>977.0</ele><time>2026-05-02T09:34:35Z</time></trkpt><trkpt lat="44.483578243238235" lon="9.95001455762384"><ele>977.0</ele><time>2026-05-02T09:34:36Z</time></trkpt><trkpt lat="44.48372140524475" lon="9.950138110368465"><ele>977.0</ele><time>2026-05-02T09:34:37Z</time></trkpt><trkpt lat="44.48385014286197" lon="9.95027396592796"><ele>968.0</ele><time>2026-05-02T09:34:38Z</time></trkpt><trkpt lat="44.48395207534492" lon="9.950437587345743"><ele>959.0</ele><time>2026-05-02T09:34:39Z</time></trkpt><trkpt lat="44.484029238398804" lon="9.950615273238709"><ele>950.0</ele><time>2026-05-02T09:34:40Z</time></trkpt><trkpt lat="44.48408868143093" lon="9.950826110865606"><ele>952.3333333333334</ele><time>2026-05-02T09:34:41Z</time></trkpt><trkpt lat="44.4841447149034" lon="9.951073338604386"><ele>954.6666666666667</ele><time>2026-05-02T09:34:42Z</time></trkpt><trkpt lat="44.484205153348796" lon="9.951333389495957"><ele>957.0</ele><time>2026-05-02T09:34:43Z</time></trkpt><trkpt lat="44.48426475586941" lon="9.95158109482064"><ele>959.3333333333333</ele><time>2026-05-02T09:34:44Z</time></trkpt><trkpt lat="44.484333549431135" lon="9.951823429693848"><ele>961.6666666666666</ele><time>2026-05-02T09:34:45Z</time></trkpt><trkpt lat="44.48444259263119" lon="9.952031268354348"><ele>964.0</ele><time>2026-05-02T09:34:46Z</time></trkpt><trkpt lat="44.484559816697924" lon="9.952243190165063"><ele>954.6666666666666</ele><time>2026-05-02T09:34:47Z</time></trkpt><trkpt lat="44.484692575207816" lon="9.952457877863663"><ele>945.3333333333333</ele><time>2026-05-02T09:34:48Z</time></trkpt><trkpt lat="44.484772704948476" lon="9.952710708026146"><ele>936.0</ele><time>2026-05-02T09:34:49Z</time></trkpt><trkpt lat="44.484857088733335" lon="9.952955357029973"><ele>936.0</ele><time>2026-05-02T09:34:50Z</time></trkpt><trkpt lat="44.48493602912933" lon="9.953194020031859"><ele>936.0</ele><time>2026-05-02T09:34:51Z</time></trkpt><trkpt lat="44.48498481167771" lon="9.95341831224144"><ele>936.0</ele><time>2026-05-02T09:34:52Z</time></trkpt><trkpt lat="44.48500562607526" lon="9.953661658069903"><ele>935.6666666666667</ele><time>2026-05-02T09:34:53Z</time></trkpt><trkpt lat="44.4850150984115" lon="9.953929331057548"><ele>935.3333333333334</ele><time>2026-05-02T09:34:54Z</time></trkpt><trkpt lat="44.48499813209361" lon="9.954177842512774"><ele>935.0</ele><time>2026-05-02T09:34:55Z</time></trkpt><trkpt lat="44.48495522026856" lon="9.954423949100981"><ele>932.6666666666667</ele><time>2026-05-02T09:34:56Z</time></trkpt><trkpt lat="44.48490177002745" lon="9.954683417858163"><ele>930.3333333333333</ele><time>2026-05-02T09:34:57Z</time></trkpt><trkpt lat="44.484845856909516" lon="9.954954772128213"><ele>928.0</ele><time>2026-05-02T09:34:58Z</time></trkpt><trkpt lat="44.484789309981316" lon="9.955224296636061"><ele>927.6666666666666</ele><time>2026-05-02T09:34:59Z</time></trkpt><trkpt lat="44.48472771813625" lon="9.955487974036966"><ele>927.3333333333333</ele><time>2026-05-02T09:35:00Z</time></trkpt><trkpt lat="44.484649512035304" lon="9.955733289556257"><ele>927.0</ele><time>2026-05-02T09:35:01Z</time></trkpt><trkpt lat="44.48458736161794" lon="9.955992975335523"><ele>927.0</ele><time>2026-05-02T09:35:02Z</time></trkpt><trkpt lat="44.48454872939737" lon="9.956269593107832"><ele>927.0</ele><time>2026-05-02T09:35:03Z</time></trkpt><trkpt lat="44.48452080770581" lon="9.956568172953114"><ele>927.0</ele><time>2026-05-02T09:35:04Z</time></trkpt><trkpt lat="44.48449415240672" lon="9.956870463664897"><ele>926.3333333333333</ele><time>2026-05-02T09:35:05Z</time></trkpt><trkpt lat="44.48446708311798" lon="9.957171551237884"><ele>925.6666666666666</ele><time>2026-05-02T09:35:06Z</time></trkpt><trkpt lat="44.48444042537543" lon="9.957468061288585"><ele>925.0</ele><time>2026-05-02T09:35:07Z</time></trkpt><trkpt lat="44.48441518684834" lon="9.957751139221447"><ele>925.0</ele><time>2026-05-02T09:35:08Z</time></trkpt><trkpt lat="44.484392802780974" lon="9.958005907069577"><ele>925.0</ele><time>2026-05-02T09:35:09Z</time></trkpt><trkpt lat="44.48439066583302" lon="9.958222435562416"><ele>925.0</ele><time>2026-05-02T09:35:10Z</time></trkpt><trkpt lat="44.48438261347555" lon="9.958394607940289"><ele>927.5</ele><time>2026-05-02T09:35:11Z</time></trkpt><trkpt lat="44.48439888178282" lon="9.958536043137034"><ele>930.0</ele><time>2026-05-02T09:35:11.999Z</time></trkpt><trkpt lat="44.48446732616609" lon="9.958658866490703"><ele>932.5</ele><time>2026-05-02T09:35:12.999Z</time></trkpt><trkpt lat="44.484584842284875" lon="9.958737749438988"><ele>935.0</ele><time>2026-05-02T09:35:13.999Z</time></trkpt><trkpt lat="44.48473051151385" lon="9.958779058797"><ele>927.3333333333334</ele><time>2026-05-02T09:35:14.999Z</time></trkpt><trkpt lat="44.48489418539695" lon="9.958801956282244"><ele>919.6666666666667</ele><time>2026-05-02T09:35:15.999Z</time></trkpt><trkpt lat="44.48506724212842" lon="9.958819809354402"><ele>912.0</ele><time>2026-05-02T09:35:16.999Z</time></trkpt><trkpt lat="44.485226779595884" lon="9.958839563134783"><ele>912.0</ele><time>2026-05-02T09:35:17.999Z</time></trkpt><trkpt lat="44.4853561271233" lon="9.958871451374039"><ele>912.0</ele><time>2026-05-02T09:35:18.999Z</time></trkpt><trkpt lat="44.48546921581103" lon="9.958938135634323"><ele>912.0</ele><time>2026-05-02T09:35:19.999Z</time></trkpt><trkpt lat="44.48555488625429" lon="9.959081543659941"><ele>912.0</ele><time>2026-05-02T09:35:20.999Z</time></trkpt><trkpt lat="44.485610402541774" lon="9.959239246691903"><ele>905.0</ele><time>2026-05-02T09:35:21.999Z</time></trkpt><trkpt lat="44.48560849673295" lon="9.959419092555972"><ele>898.0</ele><time>2026-05-02T09:35:22.999Z</time></trkpt><trkpt lat="44.48561275258599" lon="9.959639667911507"><ele>891.0</ele><time>2026-05-02T09:35:23.999Z</time></trkpt><trkpt lat="44.48561611978013" lon="9.959892977788156"><ele>891.6666666666667</ele><time>2026-05-02T09:35:24.999Z</time></trkpt><trkpt lat="44.48562733307185" lon="9.960149982431735"><ele>892.3333333333334</ele><time>2026-05-02T09:35:25.999Z</time></trkpt><trkpt lat="44.485665309573946" lon="9.960410688228379"><ele>893.0</ele><time>2026-05-02T09:35:26.999Z</time></trkpt><trkpt lat="44.48571463969705" lon="9.960678863994803"><ele>892.6666666666667</ele><time>2026-05-02T09:35:27.999Z</time></trkpt><trkpt lat="44.4857467807014" lon="9.960948884930602"><ele>892.3333333333333</ele><time>2026-05-02T09:35:28.999Z</time></trkpt><trkpt lat="44.48579085014533" lon="9.961226500084228"><ele>892.0</ele><time>2026-05-02T09:35:29.999Z</time></trkpt><trkpt lat="44.485836245337" lon="9.961508037335072"><ele>892.3333333333333</ele><time>2026-05-02T09:35:30.999Z</time></trkpt><trkpt lat="44.48588343504156" lon="9.961800704069551"><ele>892.6666666666667</ele><time>2026-05-02T09:35:31.999Z</time></trkpt><trkpt lat="44.4859292932748" lon="9.962085113080159"><ele>893.0</ele><time>2026-05-02T09:35:32.999Z</time></trkpt><trkpt lat="44.485973331715" lon="9.96235275426039"><ele>892.3333333333334</ele><time>2026-05-02T09:35:33.999Z</time></trkpt><trkpt lat="44.48601387461348" lon="9.962589642069307"><ele>891.6666666666667</ele><time>2026-05-02T09:35:34.999Z</time></trkpt><trkpt lat="44.4860369177222" lon="9.962790278371248"><ele>891.0</ele><time>2026-05-02T09:35:35.999Z</time></trkpt><trkpt lat="44.486014914883796" lon="9.962978475526235"><ele>891.0</ele><time>2026-05-02T09:35:36.999Z</time></trkpt><trkpt lat="44.48595476106473" lon="9.96316759868779"><ele>891.0</ele><time>2026-05-02T09:35:37.999Z</time></trkpt><trkpt lat="44.485860879006395" lon="9.96337122219943"><ele>891.0</ele><time>2026-05-02T09:35:38.999Z</time></trkpt><trkpt lat="44.48576497663772" lon="9.963571027780135"><ele>891.0</ele><time>2026-05-02T09:35:39.999Z</time></trkpt><trkpt lat="44.48568327205037" lon="9.963754653046209"><ele>891.0</ele><time>2026-05-02T09:35:40.999Z</time></trkpt><trkpt lat="44.485627933043624" lon="9.96394894693357"><ele>891.0</ele><time>2026-05-02T09:35:41.999Z</time></trkpt><trkpt lat="44.485590226194674" lon="9.964144760919698"><ele>891.0</ele><time>2026-05-02T09:35:42.999Z</time></trkpt><trkpt lat="44.48558074472355" lon="9.964354359205593"><ele>891.0</ele><time>2026-05-02T09:35:43.999Z</time></trkpt><trkpt lat="44.48560130886492" lon="9.964559828127967"><ele>891.0</ele><time>2026-05-02T09:35:44.999Z</time></trkpt><trkpt lat="44.48565294927626" lon="9.96473846644181"><ele>891.0</ele><time>2026-05-02T09:35:45.999Z</time></trkpt><trkpt lat="44.48573191745923" lon="9.964867150411171"><ele>891.0</ele><time>2026-05-02T09:35:46.999Z</time></trkpt><trkpt lat="44.485832722559906" lon="9.964953950578828"><ele>891.0</ele><time>2026-05-02T09:35:47.999Z</time></trkpt><trkpt lat="44.48594907927084" lon="9.964987468737682"><ele>891.0</ele><time>2026-05-02T09:35:48.999Z</time></trkpt><trkpt lat="44.48608370141119" lon="9.964959654438976"><ele>891.0</ele><time>2026-05-02T09:35:49.999Z</time></trkpt><trkpt lat="44.486233942394804" lon="9.964885276410609"><ele>891.0</ele><time>2026-05-02T09:35:50.999Z</time></trkpt><trkpt lat="44.48639503861843" lon="9.964784072477938"><ele>886.6666666666667</ele><time>2026-05-02T09:35:51.999Z</time></trkpt><trkpt lat="44.48655028163575" lon="9.964699824733803"><ele>882.3333333333334</ele><time>2026-05-02T09:35:52.999Z</time></trkpt><trkpt lat="44.48670164920363" lon="9.964646459371293"><ele>878.0</ele><time>2026-05-02T09:35:53.999Z</time></trkpt><trkpt lat="44.48684485267677" lon="9.964662728909827"><ele>878.0</ele><time>2026-05-02T09:35:54.999Z</time></trkpt><trkpt lat="44.48698242886979" lon="9.964716060740166"><ele>878.0</ele><time>2026-05-02T09:35:55.999Z</time></trkpt><trkpt lat="44.48711467525805" lon="9.964816274308276"><ele>878.0</ele><time>2026-05-02T09:35:56.999Z</time></trkpt><trkpt lat="44.48723238084528" lon="9.964970746809094"><ele>875.3333333333334</ele><time>2026-05-02T09:35:57.999Z</time></trkpt><trkpt lat="44.48732252754609" lon="9.965152920166178"><ele>872.6666666666667</ele><time>2026-05-02T09:35:58.999Z</time></trkpt><trkpt lat="44.487418903809946" lon="9.965344400347734"><ele>870.0</ele><time>2026-05-02T09:35:59.999Z</time></trkpt><trkpt lat="44.48750941058568" lon="9.965518445923264"><ele>870.0</ele><time>2026-05-02T09:36:00.999Z</time></trkpt><trkpt lat="44.487601873917136" lon="9.965696254028376"><ele>870.0</ele><time>2026-05-02T09:36:01.999Z</time></trkpt><trkpt lat="44.487684993360396" lon="9.965868364851065"><ele>870.0</ele><time>2026-05-02T09:36:02.999Z</time></trkpt><trkpt lat="44.48776904301019" lon="9.966015339012296"><ele>870.0</ele><time>2026-05-02T09:36:03.999Z</time></trkpt><trkpt lat="44.48782977174706" lon="9.966154228242242"><ele>871.75</ele><time>2026-05-02T09:36:04.999Z</time></trkpt><trkpt lat="44.48791300634513" lon="9.966248993492986"><ele>873.5</ele><time>2026-05-02T09:36:05.999Z</time></trkpt><trkpt lat="44.48803414974543" lon="9.96629173217593"><ele>875.25</ele><time>2026-05-02T09:36:06.999Z</time></trkpt><trkpt lat="44.48817467742746" lon="9.966276670384284"><ele>877.0</ele><time>2026-05-02T09:36:07.999Z</time></trkpt><trkpt lat="44.48831170763802" lon="9.966196638427272"><ele>877.0</ele><time>2026-05-02T09:36:08.999Z</time></trkpt><trkpt lat="44.488433207789704" lon="9.966094087207395"><ele>877.0</ele><time>2026-05-02T09:36:09.999Z</time></trkpt><trkpt lat="44.48854892478969" lon="9.966041046019912"><ele>877.0</ele><time>2026-05-02T09:36:10.999Z</time></trkpt><trkpt lat="44.48867052763542" lon="9.966075579959206"><ele>877.0</ele><time>2026-05-02T09:36:11.999Z</time></trkpt><trkpt lat="44.4887840827517" lon="9.966157287777373"><ele>877.0</ele><time>2026-05-02T09:36:12.999Z</time></trkpt><trkpt lat="44.48888289409674" lon="9.966303881453802"><ele>877.0</ele><time>2026-05-02T09:36:13.999Z</time></trkpt><trkpt lat="44.48899996025612" lon="9.966460581983183"><ele>877.0</ele><time>2026-05-02T09:36:14.999Z</time></trkpt><trkpt lat="44.48908589290638" lon="9.96663416155915"><ele>880.5</ele><time>2026-05-02T09:36:15.999Z</time></trkpt><trkpt lat="44.48917983483075" lon="9.966761329476217"><ele>884.0</ele><time>2026-05-02T09:36:16.999Z</time></trkpt><trkpt lat="44.48927904712379" lon="9.966831533058185"><ele>887.5</ele><time>2026-05-02T09:36:17.999Z</time></trkpt><trkpt lat="44.48939462938668" lon="9.966835624962643"><ele>891.0</ele><time>2026-05-02T09:36:18.999Z</time></trkpt><trkpt lat="44.4895064973058" lon="9.966770101058374"><ele>886.3333333333333</ele><time>2026-05-02T09:36:19.999Z</time></trkpt><trkpt lat="44.48961915758056" lon="9.96663757188626"><ele>881.6666666666666</ele><time>2026-05-02T09:36:20.998Z</time></trkpt><trkpt lat="44.48973184591373" lon="9.966464390881262"><ele>877.0</ele><time>2026-05-02T09:36:21.998Z</time></trkpt><trkpt lat="44.48986470727911" lon="9.96630863672931"><ele>877.0</ele><time>2026-05-02T09:36:22.998Z</time></trkpt><trkpt lat="44.48997515609505" lon="9.96615136127417"><ele>877.0</ele><time>2026-05-02T09:36:23.998Z</time></trkpt><trkpt lat="44.490093689519426" lon="9.96602192660254"><ele>877.0</ele><time>2026-05-02T09:36:24.998Z</time></trkpt><trkpt lat="44.490230079853" lon="9.965958050227862"><ele>877.0</ele><time>2026-05-02T09:36:25.998Z</time></trkpt><trkpt lat="44.49037877951093" lon="9.965925341407976"><ele>877.0</ele><time>2026-05-02T09:36:26.998Z</time></trkpt><trkpt lat="44.49054822607581" lon="9.965907308786575"><ele>877.0</ele><time>2026-05-02T09:36:27.998Z</time></trkpt><trkpt lat="44.490730410416944" lon="9.965887352877944"><ele>878.0</ele><time>2026-05-02T09:36:28.998Z</time></trkpt><trkpt lat="44.490906276938716" lon="9.965891187450884"><ele>879.0</ele><time>2026-05-02T09:36:29.998Z</time></trkpt><trkpt lat="44.49107261005355" lon="9.965937708684413"><ele>880.0</ele><time>2026-05-02T09:36:30.998Z</time></trkpt><trkpt lat="44.49123488951865" lon="9.965998061291108"><ele>877.3333333333333</ele><time>2026-05-02T09:36:31.998Z</time></trkpt><trkpt lat="44.49139077471463" lon="9.966059953351905"><ele>874.6666666666667</ele><time>2026-05-02T09:36:32.998Z</time></trkpt><trkpt lat="44.491533576932554" lon="9.966146369433854"><ele>872.0</ele><time>2026-05-02T09:36:33.998Z</time></trkpt><trkpt lat="44.491671130207976" lon="9.966226593423729"><ele>872.0</ele><time>2026-05-02T09:36:34.998Z</time></trkpt><trkpt lat="44.4918101252845" lon="9.966300554079382"><ele>872.0</ele><time>2026-05-02T09:36:36Z</time></trkpt><trkpt lat="44.491949020355655" lon="9.96637184755231"><ele>872.0</ele><time>2026-05-02T09:36:37Z</time></trkpt><trkpt lat="44.49209029965562" lon="9.966447324909984"><ele>872.0</ele><time>2026-05-02T09:36:38Z</time></trkpt><trkpt lat="44.492225561718726" lon="9.966518020515675"><ele>871.0</ele><time>2026-05-02T09:36:39Z</time></trkpt><trkpt lat="44.49235318450362" lon="9.96658802291084"><ele>870.0</ele><time>2026-05-02T09:36:40Z</time></trkpt><trkpt lat="44.49246484446463" lon="9.966670384466752"><ele>869.0</ele><time>2026-05-02T09:36:41Z</time></trkpt><trkpt lat="44.492555378355874" lon="9.966800493056885"><ele>868.0</ele><time>2026-05-02T09:36:42Z</time></trkpt><trkpt lat="44.492608557585505" lon="9.966981354765846"><ele>868.0</ele><time>2026-05-02T09:36:43Z</time></trkpt><trkpt lat="44.49259285723571" lon="9.967189579344952"><ele>868.0</ele><time>2026-05-02T09:36:44Z</time></trkpt><trkpt lat="44.492607324778454" lon="9.96739333140046"><ele>868.0</ele><time>2026-05-02T09:36:45Z</time></trkpt><trkpt lat="44.4926101349834" lon="9.967595216676962"><ele>868.0</ele><time>2026-05-02T09:36:46Z</time></trkpt><trkpt lat="44.4926328419307" lon="9.96779225295431"><ele>868.5</ele><time>2026-05-02T09:36:47Z</time></trkpt><trkpt lat="44.492677483071965" lon="9.967974173661277"><ele>869.0</ele><time>2026-05-02T09:36:48Z</time></trkpt><trkpt lat="44.492735029773" lon="9.968140564535686"><ele>869.5</ele><time>2026-05-02T09:36:49Z</time></trkpt><trkpt lat="44.492788849648605" lon="9.968315066963655"><ele>870.0</ele><time>2026-05-02T09:36:50Z</time></trkpt><trkpt lat="44.492837524835075" lon="9.968482667812678"><ele>870.25</ele><time>2026-05-02T09:36:51Z</time></trkpt><trkpt lat="44.49288110302934" lon="9.968644437819291"><ele>870.5</ele><time>2026-05-02T09:36:52Z</time></trkpt><trkpt lat="44.49292577176872" lon="9.968797598560922"><ele>870.75</ele><time>2026-05-02T09:36:53Z</time></trkpt><trkpt lat="44.49297383448169" lon="9.968951648331519"><ele>871.0</ele><time>2026-05-02T09:36:54Z</time></trkpt><trkpt lat="44.49301788820627" lon="9.969106754414225"><ele>870.5999999999999</ele><time>2026-05-02T09:36:55Z</time></trkpt><trkpt lat="44.493062331312025" lon="9.969253751893584"><ele>870.1999999999999</ele><time>2026-05-02T09:36:56Z</time></trkpt><trkpt lat="44.49310829680092" lon="9.969401638371334"><ele>869.8000000000001</ele><time>2026-05-02T09:36:57Z</time></trkpt><trkpt lat="44.493147781511844" lon="9.969542642636224"><ele>869.4000000000001</ele><time>2026-05-02T09:36:58Z</time></trkpt><trkpt lat="44.49318818626882" lon="9.969677761631774"><ele>869.0</ele><time>2026-05-02T09:36:59Z</time></trkpt><trkpt lat="44.493229858326" lon="9.96981214219404"><ele>869.0</ele><time>2026-05-02T09:37:00Z</time></trkpt><trkpt lat="44.49327161967644" lon="9.96995737371119"><ele>869.0</ele><time>2026-05-02T09:37:01Z</time></trkpt><trkpt lat="44.4933120996935" lon="9.970105724883908"><ele>869.0</ele><time>2026-05-02T09:37:02Z</time></trkpt><trkpt lat="44.493357015199386" lon="9.970253257793928"><ele>869.0</ele><time>2026-05-02T09:37:03Z</time></trkpt><trkpt lat="44.493416285596304" lon="9.970390924097279"><ele>868.0</ele><time>2026-05-02T09:37:04Z</time></trkpt><trkpt lat="44.493492385131184" lon="9.9705246318655"><ele>867.0</ele><time>2026-05-02T09:37:05Z</time></trkpt><trkpt lat="44.493596963687004" lon="9.970633591557656"><ele>866.0</ele><time>2026-05-02T09:37:06Z</time></trkpt><trkpt lat="44.49371234606241" lon="9.970716412370091"><ele>865.0</ele><time>2026-05-02T09:37:07Z</time></trkpt><trkpt lat="44.493841906716504" lon="9.970807163366652"><ele>867.0</ele><time>2026-05-02T09:37:08Z</time></trkpt><trkpt lat="44.49395674841973" lon="9.970903803913862"><ele>869.0</ele><time>2026-05-02T09:37:09Z</time></trkpt><trkpt lat="44.49403805697362" lon="9.971025722134852"><ele>871.0</ele><time>2026-05-02T09:37:10Z</time></trkpt><trkpt lat="44.49411382114795" lon="9.971122468050815"><ele>873.0</ele><time>2026-05-02T09:37:11Z</time></trkpt><trkpt lat="44.49415194716593" lon="9.971274230832122"><ele>873.0</ele><time>2026-05-02T09:37:12Z</time></trkpt><trkpt lat="44.49412885708624" lon="9.971445059837873"><ele>873.0</ele><time>2026-05-02T09:37:13Z</time></trkpt><trkpt lat="44.494061624393744" lon="9.97159473411316"><ele>873.0</ele><time>2026-05-02T09:37:14Z</time></trkpt><trkpt lat="44.49399085375336" lon="9.971723484386857"><ele>873.0</ele><time>2026-05-02T09:37:15Z</time></trkpt><trkpt lat="44.49396561992096" lon="9.971897648378492"><ele>875.0</ele><time>2026-05-02T09:37:16Z</time></trkpt><trkpt lat="44.493954992132984" lon="9.972056433866918"><ele>877.0</ele><time>2026-05-02T09:37:17Z</time></trkpt><trkpt lat="44.493986686948766" lon="9.972227017952797"><ele>879.0</ele><time>2026-05-02T09:37:18Z</time></trkpt><trkpt lat="44.49403405370416" lon="9.972390760637513"><ele>881.0</ele><time>2026-05-02T09:37:19Z</time></trkpt><trkpt lat="44.49410198358763" lon="9.972529616621069"><ele>882.0</ele><time>2026-05-02T09:37:20Z</time></trkpt><trkpt lat="44.49420204326966" lon="9.972642629108911"><ele>883.0</ele><time>2026-05-02T09:37:21Z</time></trkpt><trkpt lat="44.494332981291635" lon="9.972736816581202"><ele>884.0</ele><time>2026-05-02T09:37:22Z</time></trkpt><trkpt lat="44.494489377213334" lon="9.97282619072749"><ele>885.0</ele><time>2026-05-02T09:37:23Z</time></trkpt><trkpt lat="44.49464175346843" lon="9.972926456421728"><ele>885.0</ele><time>2026-05-02T09:37:24Z</time></trkpt><trkpt lat="44.49479282062195" lon="9.973030168983794"><ele>885.0</ele><time>2026-05-02T09:37:25Z</time></trkpt><trkpt lat="44.494949891819026" lon="9.973128137564036"><ele>885.0</ele><time>2026-05-02T09:37:26Z</time></trkpt><trkpt lat="44.495105655191296" lon="9.973237580177107"><ele>885.0</ele><time>2026-05-02T09:37:27Z</time></trkpt><trkpt lat="44.495269620668495" lon="9.97334553507728"><ele>885.0</ele><time>2026-05-02T09:37:28Z</time></trkpt><trkpt lat="44.49543138947095" lon="9.973441705223292"><ele>885.0</ele><time>2026-05-02T09:37:28.999Z</time></trkpt><trkpt lat="44.495603826953285" lon="9.973517622463282"><ele>890.0</ele><time>2026-05-02T09:37:29.999Z</time></trkpt><trkpt lat="44.49578148235247" lon="9.973571641928501"><ele>895.0</ele><time>2026-05-02T09:37:30.999Z</time></trkpt><trkpt lat="44.49595585499729" lon="9.973618327481114"><ele>900.0</ele><time>2026-05-02T09:37:31.999Z</time></trkpt><trkpt lat="44.4961314660508" lon="9.973661383207725"><ele>895.3333333333333</ele><time>2026-05-02T09:37:32.999Z</time></trkpt><trkpt lat="44.496300570040866" lon="9.973715607089513"><ele>890.6666666666666</ele><time>2026-05-02T09:37:33.999Z</time></trkpt><trkpt lat="44.49647660401661" lon="9.973768943089679"><ele>886.0</ele><time>2026-05-02T09:37:34.999Z</time></trkpt><trkpt lat="44.49663433033559" lon="9.973853302636167"><ele>886.0</ele><time>2026-05-02T09:37:35.999Z</time></trkpt><trkpt lat="44.49676484107271" lon="9.973952560807508"><ele>886.0</ele><time>2026-05-02T09:37:36.999Z</time></trkpt><trkpt lat="44.49691151727966" lon="9.974028720923224"><ele>886.0</ele><time>2026-05-02T09:37:37.999Z</time></trkpt><trkpt lat="44.497057457246136" lon="9.974057240255854"><ele>889.25</ele><time>2026-05-02T09:37:38.999Z</time></trkpt><trkpt lat="44.497186536400996" lon="9.974061670796399"><ele>892.5</ele><time>2026-05-02T09:37:39.999Z</time></trkpt><trkpt lat="44.497306726123135" lon="9.974101233132494"><ele>895.75</ele><time>2026-05-02T09:37:40.999Z</time></trkpt><trkpt lat="44.497410475939766" lon="9.974184004556164"><ele>899.0</ele><time>2026-05-02T09:37:41.999Z</time></trkpt><trkpt lat="44.49751355687801" lon="9.974330979609919"><ele>899.0</ele><time>2026-05-02T09:37:42.999Z</time></trkpt><trkpt lat="44.49760935502535" lon="9.974482563759842"><ele>899.0</ele><time>2026-05-02T09:37:43.999Z</time></trkpt><trkpt lat="44.49770835694795" lon="9.974642378190698"><ele>899.0</ele><time>2026-05-02T09:37:44.999Z</time></trkpt><trkpt lat="44.497815707572016" lon="9.97480025062937"><ele>901.5</ele><time>2026-05-02T09:37:45.999Z</time></trkpt><trkpt lat="44.49794037700527" lon="9.974916741457506"><ele>904.0</ele><time>2026-05-02T09:37:46.999Z</time></trkpt><trkpt lat="44.49806938790815" lon="9.97501684551304"><ele>906.5</ele><time>2026-05-02T09:37:47.999Z</time></trkpt><trkpt lat="44.498212362421405" lon="9.97508422328687"><ele>909.0</ele><time>2026-05-02T09:37:48.999Z</time></trkpt><trkpt lat="44.498362360075525" lon="9.975146904395341"><ele>909.0</ele><time>2026-05-02T09:37:49.999Z</time></trkpt><trkpt lat="44.49851515750644" lon="9.975212720375666"><ele>909.0</ele><time>2026-05-02T09:37:50.999Z</time></trkpt><trkpt lat="44.49866097053686" lon="9.975279172729493"><ele>909.0</ele><time>2026-05-02T09:37:51.999Z</time></trkpt><trkpt lat="44.4988066312921" lon="9.975336691103294"><ele>902.25</ele><time>2026-05-02T09:37:52.999Z</time></trkpt><trkpt lat="44.498957450491545" lon="9.975371905530388"><ele>895.5</ele><time>2026-05-02T09:37:53.999Z</time></trkpt><trkpt lat="44.49909467719803" lon="9.975380178589226"><ele>888.75</ele><time>2026-05-02T09:37:54.999Z</time></trkpt><trkpt lat="44.49920636255204" lon="9.975375474352393"><ele>882.0</ele><time>2026-05-02T09:37:55.999Z</time></trkpt><trkpt lat="44.499302877426025" lon="9.975397441579153"><ele>882.0</ele><time>2026-05-02T09:37:56.999Z</time></trkpt><trkpt lat="44.499349671368186" lon="9.975532395876115"><ele>882.0</ele><time>2026-05-02T09:37:57.999Z</time></trkpt><trkpt lat="44.499345020068624" lon="9.975677425553242"><ele>882.0</ele><time>2026-05-02T09:37:58.999Z</time></trkpt><trkpt lat="44.49935472593042" lon="9.975859144286469"><ele>882.0</ele><time>2026-05-02T09:37:59.999Z</time></trkpt><trkpt lat="44.499374556966295" lon="9.976075144405076"><ele>888.3333333333333</ele><time>2026-05-02T09:38:00.999Z</time></trkpt><trkpt lat="44.49941599318705" lon="9.976305184440468"><ele>894.6666666666666</ele><time>2026-05-02T09:38:01.999Z</time></trkpt><trkpt lat="44.49949313239509" lon="9.976511304500196"><ele>901.0</ele><time>2026-05-02T09:38:02.999Z</time></trkpt><trkpt lat="44.49954451706909" lon="9.976733635173412"><ele>887.3333333333333</ele><time>2026-05-02T09:38:03.999Z</time></trkpt><trkpt lat="44.499611446003875" lon="9.976950472275933"><ele>873.6666666666667</ele><time>2026-05-02T09:38:04.999Z</time></trkpt><trkpt lat="44.49967953029886" lon="9.977171049607122"><ele>860.0</ele><time>2026-05-02T09:38:05.999Z</time></trkpt><trkpt lat="44.49973806130251" lon="9.977370807947564"><ele>860.75</ele><time>2026-05-02T09:38:06.999Z</time></trkpt><trkpt lat="44.49977133097304" lon="9.977573097981578"><ele>861.5</ele><time>2026-05-02T09:38:07.999Z</time></trkpt><trkpt lat="44.49977965390309" lon="9.977767426548318"><ele>862.25</ele><time>2026-05-02T09:38:08.999Z</time></trkpt><trkpt lat="44.49976831235266" lon="9.977989114289025"><ele>863.0</ele><time>2026-05-02T09:38:09.999Z</time></trkpt><trkpt lat="44.49975403423875" lon="9.978238264472441"><ele>863.3333333333334</ele><time>2026-05-02T09:38:10.999Z</time></trkpt><trkpt lat="44.49974238634491" lon="9.978482808404957"><ele>863.6666666666667</ele><time>2026-05-02T09:38:11.999Z</time></trkpt><trkpt lat="44.49976133439989" lon="9.978704362582631"><ele>864.0</ele><time>2026-05-02T09:38:12.999Z</time></trkpt><trkpt lat="44.49980070562766" lon="9.978912631875579"><ele>864.0</ele><time>2026-05-02T09:38:13.999Z</time></trkpt><trkpt lat="44.4998769154694" lon="9.979129318411655"><ele>864.0</ele><time>2026-05-02T09:38:14.999Z</time></trkpt><trkpt lat="44.49996363394572" lon="9.979355440140061"><ele>864.0</ele><time>2026-05-02T09:38:15.999Z</time></trkpt><trkpt lat="44.50004104181866" lon="9.97958876618355"><ele>865.0</ele><time>2026-05-02T09:38:16.999Z</time></trkpt><trkpt lat="44.50007339369337" lon="9.979807884830647"><ele>866.0</ele><time>2026-05-02T09:38:17.999Z</time></trkpt><trkpt lat="44.500072042206" lon="9.979994771813576"><ele>867.0</ele><time>2026-05-02T09:38:18.999Z</time></trkpt><trkpt lat="44.50005746604101" lon="9.980219253066295"><ele>867.6666666666667</ele><time>2026-05-02T09:38:19.999Z</time></trkpt><trkpt lat="44.50006014226267" lon="9.980467396047265"><ele>868.3333333333334</ele><time>2026-05-02T09:38:20.999Z</time></trkpt><trkpt lat="44.500064962145245" lon="9.980705218617803"><ele>869.0</ele><time>2026-05-02T09:38:21.999Z</time></trkpt><trkpt lat="44.50012197679163" lon="9.980937454150538"><ele>865.6666666666667</ele><time>2026-05-02T09:38:22.999Z</time></trkpt><trkpt lat="44.500224491508405" lon="9.981147103149212"><ele>862.3333333333333</ele><time>2026-05-02T09:38:23.999Z</time></trkpt><trkpt lat="44.500351494816755" lon="9.98134019167017"><ele>859.0</ele><time>2026-05-02T09:38:24.999Z</time></trkpt><trkpt lat="44.50048295412054" lon="9.981527281379043"><ele>864.6666666666666</ele><time>2026-05-02T09:38:25.999Z</time></trkpt><trkpt lat="44.50062312916398" lon="9.9817072623267"><ele>870.3333333333333</ele><time>2026-05-02T09:38:26.999Z</time></trkpt><trkpt lat="44.50076685083388" lon="9.981879535577011"><ele>876.0</ele><time>2026-05-02T09:38:27.999Z</time></trkpt><trkpt lat="44.5009104620649" lon="9.98203598999248"><ele>876.0</ele><time>2026-05-02T09:38:28.999Z</time></trkpt><trkpt lat="44.501061410741436" lon="9.982162005855937"><ele>876.0</ele><time>2026-05-02T09:38:29.999Z</time></trkpt><trkpt lat="44.501219852231564" lon="9.982251589229826"><ele>876.0</ele><time>2026-05-02T09:38:30.999Z</time></trkpt><trkpt lat="44.50136836227374" lon="9.982325077517396"><ele>873.25</ele><time>2026-05-02T09:38:31.999Z</time></trkpt><trkpt lat="44.50151137363469" lon="9.98239365546429"><ele>870.5</ele><time>2026-05-02T09:38:32.999Z</time></trkpt><trkpt lat="44.50162081926494" lon="9.982484749129286"><ele>867.75</ele><time>2026-05-02T09:38:33.999Z</time></trkpt><trkpt lat="44.50170640985761" lon="9.982612007413087"><ele>865.0</ele><time>2026-05-02T09:38:34.998Z</time></trkpt><trkpt lat="44.50174068210053" lon="9.98279975293781"><ele>865.0</ele><time>2026-05-02T09:38:35.998Z</time></trkpt><trkpt lat="44.50178976771864" lon="9.983018776452965"><ele>865.0</ele><time>2026-05-02T09:38:36.998Z</time></trkpt><trkpt lat="44.50184001561549" lon="9.98323553535447"><ele>865.0</ele><time>2026-05-02T09:38:37.998Z</time></trkpt><trkpt lat="44.501874128467236" lon="9.98344291955606"><ele>865.0</ele><time>2026-05-02T09:38:38.998Z</time></trkpt><trkpt lat="44.50185167500831" lon="9.983650048499712"><ele>865.0</ele><time>2026-05-02T09:38:39.998Z</time></trkpt><trkpt lat="44.501810741699856" lon="9.983871410406586"><ele>865.0</ele><time>2026-05-02T09:38:40.998Z</time></trkpt><trkpt lat="44.50175473336748" lon="9.984097760904426"><ele>862.6666666666666</ele><time>2026-05-02T09:38:42Z</time></trkpt><trkpt lat="44.50168203122841" lon="9.984306923043402"><ele>860.3333333333333</ele><time>2026-05-02T09:38:43Z</time></trkpt><trkpt lat="44.501590276952825" lon="9.984494630880638"><ele>858.0</ele><time>2026-05-02T09:38:44Z</time></trkpt><trkpt lat="44.501503793659474" lon="9.984682728840447"><ele>858.0</ele><time>2026-05-02T09:38:45Z</time></trkpt><trkpt lat="44.501428597024145" lon="9.984850479237323"><ele>858.0</ele><time>2026-05-02T09:38:46Z</time></trkpt><trkpt lat="44.50140177351951" lon="9.985018424552617"><ele>858.0</ele><time>2026-05-02T09:38:47Z</time></trkpt><trkpt lat="44.501434428673896" lon="9.98518904984775"><ele>858.0</ele><time>2026-05-02T09:38:48Z</time></trkpt><trkpt lat="44.50150793694356" lon="9.985363655009719"><ele>858.6666666666667</ele><time>2026-05-02T09:38:49Z</time></trkpt><trkpt lat="44.5016253658301" lon="9.98550461892443"><ele>859.3333333333334</ele><time>2026-05-02T09:38:50Z</time></trkpt><trkpt lat="44.50177223369955" lon="9.985619511958873"><ele>860.0</ele><time>2026-05-02T09:38:51Z</time></trkpt><trkpt lat="44.50190937099561" lon="9.985726268604294"><ele>860.3333333333334</ele><time>2026-05-02T09:38:52Z</time></trkpt><trkpt lat="44.50199759076125" lon="9.985895284843627"><ele>860.6666666666667</ele><time>2026-05-02T09:38:53Z</time></trkpt><trkpt lat="44.50209229603614" lon="9.986086594574571"><ele>861.0</ele><time>2026-05-02T09:38:54Z</time></trkpt><trkpt lat="44.5021766840753" lon="9.986287502159005"><ele>859.0</ele><time>2026-05-02T09:38:55Z</time></trkpt><trkpt lat="44.502220511875585" lon="9.98646068163178"><ele>857.0</ele><time>2026-05-02T09:38:56Z</time></trkpt><trkpt lat="44.50220607418831" lon="9.986617689700754"><ele>855.0</ele><time>2026-05-02T09:38:57Z</time></trkpt><trkpt lat="44.50214191423888" lon="9.986769195915205"><ele>853.0</ele><time>2026-05-02T09:38:58Z</time></trkpt><trkpt lat="44.50209548442855" lon="9.986965309969216"><ele>853.0</ele><time>2026-05-02T09:38:59Z</time></trkpt><trkpt lat="44.502043258422646" lon="9.987136079124832"><ele>853.0</ele><time>2026-05-02T09:39:00Z</time></trkpt><trkpt lat="44.502041516755995" lon="9.98728645433922"><ele>853.0</ele><time>2026-05-02T09:39:01Z</time></trkpt><trkpt lat="44.50208817795499" lon="9.987408151209458"><ele>853.0</ele><time>2026-05-02T09:39:02Z</time></trkpt><trkpt lat="44.502174688861146" lon="9.987512933207988"><ele>853.0</ele><time>2026-05-02T09:39:03Z</time></trkpt><trkpt lat="44.50228373963605" lon="9.98756495692197"><ele>853.0</ele><time>2026-05-02T09:39:04Z</time></trkpt><trkpt lat="44.502409229279294" lon="9.987566745413265"><ele>853.0</ele><time>2026-05-02T09:39:05Z</time></trkpt><trkpt lat="44.50253557120081" lon="9.98752741309873"><ele>853.0</ele><time>2026-05-02T09:39:06Z</time></trkpt><trkpt lat="44.50267849790756" lon="9.987488356306166"><ele>853.0</ele><time>2026-05-02T09:39:07Z</time></trkpt><trkpt lat="44.50282762323865" lon="9.987452714291482"><ele>853.0</ele><time>2026-05-02T09:39:08Z</time></trkpt><trkpt lat="44.50296202546901" lon="9.987431181322268"><ele>853.0</ele><time>2026-05-02T09:39:09Z</time></trkpt><trkpt lat="44.503072984781355" lon="9.987458750511575"><ele>853.0</ele><time>2026-05-02T09:39:10Z</time></trkpt><trkpt lat="44.503147931796626" lon="9.987582632844944"><ele>853.3333333333333</ele><time>2026-05-02T09:39:11Z</time></trkpt><trkpt lat="44.503208373735255" lon="9.987752865591467"><ele>853.6666666666667</ele><time>2026-05-02T09:39:12Z</time></trkpt><trkpt lat="44.50329756117052" lon="9.987940673033293"><ele>854.0</ele><time>2026-05-02T09:39:13Z</time></trkpt><trkpt lat="44.503400008035975" lon="9.988134814940981"><ele>854.0</ele><time>2026-05-02T09:39:14Z</time></trkpt><trkpt lat="44.50349940026414" lon="9.988316982567476"><ele>854.0</ele><time>2026-05-02T09:39:15Z</time></trkpt><trkpt lat="44.50360320151317" lon="9.988469158829487"><ele>854.0</ele><time>2026-05-02T09:39:16Z</time></trkpt><trkpt lat="44.50371380558768" lon="9.98859372981451"><ele>853.75</ele><time>2026-05-02T09:39:17Z</time></trkpt><trkpt lat="44.50382427611805" lon="9.988689771995642"><ele>853.5</ele><time>2026-05-02T09:39:18Z</time></trkpt><trkpt lat="44.50393169451458" lon="9.98876784520928"><ele>853.25</ele><time>2026-05-02T09:39:19Z</time></trkpt><trkpt lat="44.50404068455997" lon="9.98885015530433"><ele>853.0</ele><time>2026-05-02T09:39:20Z</time></trkpt><trkpt lat="44.504159859795294" lon="9.988920443464263"><ele>853.0</ele><time>2026-05-02T09:39:21Z</time></trkpt><trkpt lat="44.504293611977175" lon="9.988971148718583"><ele>853.0</ele><time>2026-05-02T09:39:22Z</time></trkpt><trkpt lat="44.50443048406834" lon="9.988994270673594"><ele>853.0</ele><time>2026-05-02T09:39:23Z</time></trkpt><trkpt lat="44.50457279368044" lon="9.988989047394416"><ele>853.0</ele><time>2026-05-02T09:39:24Z</time></trkpt><trkpt lat="44.50470645481592" lon="9.988995697222652"><ele>852.0</ele><time>2026-05-02T09:39:25Z</time></trkpt><trkpt lat="44.504830473176185" lon="9.989006543224107"><ele>851.0</ele><time>2026-05-02T09:39:26Z</time></trkpt><trkpt lat="44.504949372575865" lon="9.989020163448409"><ele>850.0</ele><time>2026-05-02T09:39:27Z</time></trkpt><trkpt lat="44.50506482475019" lon="9.989033690491583"><ele>849.0</ele><time>2026-05-02T09:39:28Z</time></trkpt><trkpt lat="44.50517609399709" lon="9.989079092933984"><ele>849.0</ele><time>2026-05-02T09:39:29Z</time></trkpt><trkpt lat="44.50527965896444" lon="9.989190514674085"><ele>849.0</ele><time>2026-05-02T09:39:30Z</time></trkpt><trkpt lat="44.50539485141927" lon="9.98928763187438"><ele>849.0</ele><time>2026-05-02T09:39:31Z</time></trkpt><trkpt lat="44.505489922983024" lon="9.989400015229466"><ele>849.0</ele><time>2026-05-02T09:39:32Z</time></trkpt><trkpt lat="44.50558033734762" lon="9.989507655187149"><ele>848.25</ele><time>2026-05-02T09:39:33Z</time></trkpt><trkpt lat="44.50567498536188" lon="9.989615590837408"><ele>847.5</ele><time>2026-05-02T09:39:34Z</time></trkpt><trkpt lat="44.50576889786888" lon="9.989722381635552"><ele>846.75</ele><time>2026-05-02T09:39:34.999Z</time></trkpt><trkpt lat="44.50586167445848" lon="9.989816149122872"><ele>846.0</ele><time>2026-05-02T09:39:35.999Z</time></trkpt><trkpt lat="44.50594715271191" lon="9.989903969716805"><ele>846.0</ele><time>2026-05-02T09:39:36.999Z</time></trkpt><trkpt lat="44.50602505962326" lon="9.990001964658505"><ele>846.0</ele><time>2026-05-02T09:39:37.999Z</time></trkpt><trkpt lat="44.50610847789007" lon="9.99010598442384"><ele>846.0</ele><time>2026-05-02T09:39:38.999Z</time></trkpt><trkpt lat="44.506186174033246" lon="9.99022430595006"><ele>846.0</ele><time>2026-05-02T09:39:39.999Z</time></trkpt><trkpt lat="44.50623017339294" lon="9.9903758471365"><ele>846.0</ele><time>2026-05-02T09:39:40.999Z</time></trkpt><trkpt lat="44.506290756190744" lon="9.990512453644063"><ele>845.4</ele><time>2026-05-02T09:39:41.999Z</time></trkpt><trkpt lat="44.5063321562841" lon="9.990660555022046"><ele>844.8</ele><time>2026-05-02T09:39:42.999Z</time></trkpt><trkpt lat="44.506379261219664" lon="9.990795288821461"><ele>844.1999999999999</ele><time>2026-05-02T09:39:43.999Z</time></trkpt><trkpt lat="44.506442986794546" lon="9.990910735746011"><ele>843.5999999999999</ele><time>2026-05-02T09:39:44.999Z</time></trkpt><trkpt lat="44.50652450579657" lon="9.991016430706"><ele>843.0</ele><time>2026-05-02T09:39:45.999Z</time></trkpt><trkpt lat="44.50661295655525" lon="9.991124542853205"><ele>843.0</ele><time>2026-05-02T09:39:46.999Z</time></trkpt><trkpt lat="44.50670273007689" lon="9.99122871220986"><ele>843.0</ele><time>2026-05-02T09:39:47.999Z</time></trkpt><trkpt lat="44.506794598326316" lon="9.9913313910641"><ele>843.0</ele><time>2026-05-02T09:39:48.999Z</time></trkpt><trkpt lat="44.506879373870305" lon="9.991428719313918"><ele>843.0</ele><time>2026-05-02T09:39:49.999Z</time></trkpt><trkpt lat="44.50695244356157" lon="9.99154790622694"><ele>843.0</ele><time>2026-05-02T09:39:50.999Z</time></trkpt><trkpt lat="44.507063416481024" lon="9.9916070618411"><ele>843.0</ele><time>2026-05-02T09:39:51.999Z</time></trkpt><trkpt lat="44.50716786633645" lon="9.991666004998736"><ele>843.0</ele><time>2026-05-02T09:39:52.999Z</time></trkpt><trkpt lat="44.5072778658646" lon="9.991722978852044"><ele>843.0</ele><time>2026-05-02T09:39:53.999Z</time></trkpt><trkpt lat="44.50737529005886" lon="9.991798963911783"><ele>843.0</ele><time>2026-05-02T09:39:54.999Z</time></trkpt><trkpt lat="44.50748173349385" lon="9.991875764246025"><ele>843.0</ele><time>2026-05-02T09:39:55.999Z</time></trkpt><trkpt lat="44.507588408452115" lon="9.991942003640652"><ele>843.0</ele><time>2026-05-02T09:39:56.999Z</time></trkpt><trkpt lat="44.50769283356143" lon="9.9920040285901"><ele>843.0</ele><time>2026-05-02T09:39:57.999Z</time></trkpt><trkpt lat="44.5077976076467" lon="9.992058769118977"><ele>842.25</ele><time>2026-05-02T09:39:58.999Z</time></trkpt><trkpt lat="44.50791260383541" lon="9.992092396080377"><ele>841.5</ele><time>2026-05-02T09:39:59.999Z</time></trkpt><trkpt lat="44.508024895334984" lon="9.992111094514902"><ele>840.75</ele><time>2026-05-02T09:40:00.999Z</time></trkpt><trkpt lat="44.508139964034626" lon="9.992106998126872"><ele>840.0</ele><time>2026-05-02T09:40:01.999Z</time></trkpt><trkpt lat="44.508258639173235" lon="9.992108083113614"><ele>840.0</ele><time>2026-05-02T09:40:02.999Z</time></trkpt><trkpt lat="44.508379293373295" lon="9.992107026788045"><ele>840.0</ele><time>2026-05-02T09:40:03.999Z</time></trkpt><trkpt lat="44.508504646258864" lon="9.992091924263557"><ele>840.0</ele><time>2026-05-02T09:40:04.999Z</time></trkpt><trkpt lat="44.50862719012117" lon="9.992083365194032"><ele>840.0</ele><time>2026-05-02T09:40:05.999Z</time></trkpt><trkpt lat="44.508757513218654" lon="9.992071805739126"><ele>839.2</ele><time>2026-05-02T09:40:06.999Z</time></trkpt><trkpt lat="44.50887902622974" lon="9.992063822666836"><ele>838.4</ele><time>2026-05-02T09:40:07.999Z</time></trkpt><trkpt lat="44.50898921548196" lon="9.992061813080047"><ele>837.5999999999999</ele><time>2026-05-02T09:40:08.999Z</time></trkpt><trkpt lat="44.50909130611695" lon="9.992064443535718"><ele>836.8</ele><time>2026-05-02T09:40:09.999Z</time></trkpt><trkpt lat="44.50918889919411" lon="9.992102426943957"><ele>836.0</ele><time>2026-05-02T09:40:10.999Z</time></trkpt><trkpt lat="44.50927104856063" lon="9.992192515537466"><ele>836.0</ele><time>2026-05-02T09:40:11.999Z</time></trkpt><trkpt lat="44.50934667213489" lon="9.992317176518208"><ele>836.0</ele><time>2026-05-02T09:40:12.999Z</time></trkpt><trkpt lat="44.50942684791121" lon="9.99243532917865"><ele>836.0</ele><time>2026-05-02T09:40:13.999Z</time></trkpt><trkpt lat="44.50950346453069" lon="9.992535473902814"><ele>836.0</ele><time>2026-05-02T09:40:14.999Z</time></trkpt><trkpt lat="44.50959843708125" lon="9.992592057197767"><ele>836.0</ele><time>2026-05-02T09:40:15.999Z</time></trkpt><trkpt lat="44.50970796421073" lon="9.992592178653481"><ele>836.4</ele><time>2026-05-02T09:40:16.999Z</time></trkpt><trkpt lat="44.509816131879994" lon="9.992561295721396"><ele>836.8</ele><time>2026-05-02T09:40:17.999Z</time></trkpt><trkpt lat="44.50992980659749" lon="9.99254448385835"><ele>837.1999999999999</ele><time>2026-05-02T09:40:18.999Z</time></trkpt><trkpt lat="44.510043421965015" lon="9.992536987113551"><ele>837.5999999999999</ele><time>2026-05-02T09:40:19.999Z</time></trkpt><trkpt lat="44.5101450519907" lon="9.99253783433813"><ele>838.0</ele><time>2026-05-02T09:40:20.999Z</time></trkpt><trkpt lat="44.510238480686155" lon="9.992520976458145"><ele>837.9999999999999</ele><time>2026-05-02T09:40:21.999Z</time></trkpt><trkpt lat="44.51032615239624" lon="9.992515055234005"><ele>838.0</ele><time>2026-05-02T09:40:22.999Z</time></trkpt><trkpt lat="44.51040430827419" lon="9.992520577355211"><ele>838.0</ele><time>2026-05-02T09:40:23.999Z</time></trkpt><trkpt lat="44.510506159486795" lon="9.992532258786468"><ele>838.0</ele><time>2026-05-02T09:40:25.999Z</time></trkpt><trkpt lat="44.51057108784072" lon="9.992507368567791"><ele>837.9999999999999</ele><time>2026-05-02T09:40:41.998Z</time></trkpt><trkpt lat="44.51064837618399" lon="9.99241059349999"><ele>838.0</ele><time>2026-05-02T09:40:43.998Z</time></trkpt><trkpt lat="44.510695058349235" lon="9.992349124987738"><ele>835.9999999999999</ele><time>2026-05-02T09:40:44.998Z</time></trkpt><trkpt lat="44.510739035147054" lon="9.992255443903783"><ele>834.0</ele><time>2026-05-02T09:40:45.998Z</time></trkpt><trkpt lat="44.51075758113447" lon="9.992139616193942"><ele>832.0</ele><time>2026-05-02T09:40:46.998Z</time></trkpt><trkpt lat="44.51075051627285" lon="9.992021387912818"><ele>830.0</ele><time>2026-05-02T09:40:48Z</time></trkpt><trkpt lat="44.51075101107393" lon="9.99190929542485"><ele>827.9999999999999</ele><time>2026-05-02T09:40:49Z</time></trkpt><trkpt lat="44.51073695796369" lon="9.991790980162728"><ele>826.0</ele><time>2026-05-02T09:40:51Z</time></trkpt><trkpt lat="44.51072846333673" lon="9.99168688221521"><ele>823.9999999999999</ele><time>2026-05-02T09:40:59Z</time></trkpt><trkpt lat="44.51071232491358" lon="9.991549621269096"><ele>822.0</ele><time>2026-05-02T09:41:01Z</time></trkpt><trkpt lat="44.51068402971629" lon="9.991433340894465"><ele>820.0</ele><time>2026-05-02T09:41:03Z</time></trkpt><trkpt lat="44.51066394037678" lon="9.99127616913955"><ele>818.0</ele><time>2026-05-02T09:41:05Z</time></trkpt><trkpt lat="44.51065350860876" lon="9.991173279463155"><ele>815.9999999999999</ele><time>2026-05-02T09:41:06Z</time></trkpt><trkpt lat="44.510647857313245" lon="9.991070035955977"><ele>814.0</ele><time>2026-05-02T09:41:07Z</time></trkpt><trkpt lat="44.51064032227209" lon="9.990973151468152"><ele>813.4000000000001</ele><time>2026-05-02T09:41:08Z</time></trkpt><trkpt lat="44.51062550284701" lon="9.990801153788121"><ele>812.8</ele><time>2026-05-02T09:41:10Z</time></trkpt><trkpt lat="44.51061609279678" lon="9.990658229814606"><ele>812.2</ele><time>2026-05-02T09:41:12Z</time></trkpt><trkpt lat="44.51061740339316" lon="9.990529084759462"><ele>811.5999999999999</ele><time>2026-05-02T09:41:14Z</time></trkpt><trkpt lat="44.510607138772166" lon="9.990392571666943"><ele>811.0</ele><time>2026-05-02T09:41:16Z</time></trkpt><trkpt lat="44.510594950267745" lon="9.990277544556736"><ele>811.0</ele><time>2026-05-02T09:41:18Z</time></trkpt><trkpt lat="44.51058121090553" lon="9.990190240228486"><ele>811.0</ele><time>2026-05-02T09:41:20Z</time></trkpt><trkpt lat="44.5105667737596" lon="9.99007672446041"><ele>811.0</ele><time>2026-05-02T09:41:22Z</time></trkpt><trkpt lat="44.510555474246594" lon="9.9899615834698"><ele>811.0</ele><time>2026-05-02T09:41:24Z</time></trkpt><trkpt lat="44.51055281158589" lon="9.98985529139331"><ele>811.0</ele><time>2026-05-02T09:41:26Z</time></trkpt><trkpt lat="44.51054633066863" lon="9.989765522869547"><ele>811.0</ele><time>2026-05-02T09:41:28Z</time></trkpt><trkpt lat="44.51053165144663" lon="9.989658583913847"><ele>811.0</ele><time>2026-05-02T09:41:31Z</time></trkpt><trkpt lat="44.5105203465325" lon="9.989570771139052"><ele>811.0</ele><time>2026-05-02T09:41:33Z</time></trkpt><trkpt lat="44.51050347899754" lon="9.989484168453437"><ele>811.0</ele><time>2026-05-02T09:41:34.999Z</time></trkpt><trkpt lat="44.5105162113698" lon="9.989357793963496"><ele>811.0</ele><time>2026-05-02T09:41:37.999Z</time></trkpt><trkpt lat="44.51057586447952" lon="9.989234476263423"><ele>811.0</ele><time>2026-05-02T09:41:39.999Z</time></trkpt><trkpt lat="44.510622850023104" lon="9.989097048600701"><ele>811.0</ele><time>2026-05-02T09:41:41.999Z</time></trkpt><trkpt lat="44.51067782022832" lon="9.988966580075047"><ele>810.0</ele><time>2026-05-02T09:41:43.999Z</time></trkpt><trkpt lat="44.510744462261485" lon="9.988823325855718"><ele>809.0</ele><time>2026-05-02T09:41:45.999Z</time></trkpt><trkpt lat="44.51080994612162" lon="9.988686715906086"><ele>808.0</ele><time>2026-05-02T09:41:47.999Z</time></trkpt><trkpt lat="44.51089673541504" lon="9.988613736990457"><ele>807.0</ele><time>2026-05-02T09:41:49.999Z</time></trkpt><trkpt lat="44.51100679484298" lon="9.988681091101338"><ele>807.0</ele><time>2026-05-02T09:41:51.999Z</time></trkpt><trkpt lat="44.511071813225314" lon="9.98873373430892"><ele>807.0</ele><time>2026-05-02T09:41:52.999Z</time></trkpt><trkpt lat="44.51113814647128" lon="9.988778640826151"><ele>807.0</ele><time>2026-05-02T09:41:53.999Z</time></trkpt><trkpt lat="44.51120235187241" lon="9.988819478587093"><ele>807.0</ele><time>2026-05-02T09:41:54.999Z</time></trkpt><trkpt lat="44.511260498978665" lon="9.988859600908766"><ele>807.0</ele><time>2026-05-02T09:41:55.999Z</time></trkpt><trkpt lat="44.51136801975148" lon="9.98892865677727"><ele>807.0</ele><time>2026-05-02T09:41:57.999Z</time></trkpt><trkpt lat="44.51147538961758" lon="9.988977469168551"><ele>806.5714285714287</ele><time>2026-05-02T09:41:59.999Z</time></trkpt><trkpt lat="44.51154430827575" lon="9.989007286526013"><ele>806.1428571428571</ele><time>2026-05-02T09:42:00.999Z</time></trkpt><trkpt lat="44.51161926355445" lon="9.989013057598726"><ele>805.7142857142858</ele><time>2026-05-02T09:42:01.999Z</time></trkpt><trkpt lat="44.51168707370748" lon="9.988998762265558"><ele>805.2857142857143</ele><time>2026-05-02T09:42:02.999Z</time></trkpt><trkpt lat="44.51174732243007" lon="9.988972610997003"><ele>804.8571428571429</ele><time>2026-05-02T09:42:03.999Z</time></trkpt><trkpt lat="44.511813260056414" lon="9.988973131253987"><ele>804.4285714285714</ele><time>2026-05-02T09:42:04.999Z</time></trkpt><trkpt lat="44.51188005320386" lon="9.988950668648922"><ele>804.0</ele><time>2026-05-02T09:42:05.999Z</time></trkpt><trkpt lat="44.51194681656315" lon="9.988926981951693"><ele>804.0</ele><time>2026-05-02T09:42:06.999Z</time></trkpt><trkpt lat="44.512011466628216" lon="9.988904044997627"><ele>804.0</ele><time>2026-05-02T09:42:07.999Z</time></trkpt><trkpt lat="44.512125310182476" lon="9.988863656792894"><ele>804.0</ele><time>2026-05-02T09:42:09.999Z</time></trkpt><trkpt lat="44.5122517606277" lon="9.988821830861303"><ele>804.0</ele><time>2026-05-02T09:42:11.999Z</time></trkpt><trkpt lat="44.51231960596672" lon="9.988801455533308"><ele>804.0</ele><time>2026-05-02T09:42:12.999Z</time></trkpt><trkpt lat="44.51238345308439" lon="9.988753065514887"><ele>804.0</ele><time>2026-05-02T09:42:13.999Z</time></trkpt><trkpt lat="44.512456110102384" lon="9.98873536584297"><ele>804.0</ele><time>2026-05-02T09:42:14.999Z</time></trkpt><trkpt lat="44.5125305899954" lon="9.988724109462728"><ele>804.0</ele><time>2026-05-02T09:42:15.999Z</time></trkpt><trkpt lat="44.51260818933335" lon="9.98871952196565"><ele>804.0</ele><time>2026-05-02T09:42:16.999Z</time></trkpt><trkpt lat="44.51268778822947" lon="9.98872512861517"><ele>804.0</ele><time>2026-05-02T09:42:17.999Z</time></trkpt><trkpt lat="44.51276798375121" lon="9.98874201274817"><ele>804.0</ele><time>2026-05-02T09:42:18.999Z</time></trkpt><trkpt lat="44.51285138839067" lon="9.988793662610354"><ele>802.25</ele><time>2026-05-02T09:42:19.999Z</time></trkpt><trkpt lat="44.5129370569237" lon="9.988834264331487"><ele>800.5</ele><time>2026-05-02T09:42:20.999Z</time></trkpt><trkpt lat="44.51302935410166" lon="9.988888861153788"><ele>798.75</ele><time>2026-05-02T09:42:21.999Z</time></trkpt><trkpt lat="44.51314228940345" lon="9.98897421629423"><ele>797.0</ele><time>2026-05-02T09:42:22.999Z</time></trkpt><trkpt lat="44.51329103479458" lon="9.989092154305082"><ele>798.0</ele><time>2026-05-02T09:42:23.999Z</time></trkpt><trkpt lat="44.51345679862288" lon="9.989224489649287"><ele>799.0</ele><time>2026-05-02T09:42:24.999Z</time></trkpt><trkpt lat="44.513598414638274" lon="9.989338358956948"><ele>800.0</ele><time>2026-05-02T09:42:25.999Z</time></trkpt><trkpt lat="44.51374167291048" lon="9.989429584382755"><ele>800.0</ele><time>2026-05-02T09:42:26.999Z</time></trkpt><trkpt lat="44.51387574335024" lon="9.989537903426974"><ele>800.0</ele><time>2026-05-02T09:42:27.999Z</time></trkpt><trkpt lat="44.513987038818925" lon="9.989670880553067"><ele>800.0</ele><time>2026-05-02T09:42:28.999Z</time></trkpt><trkpt lat="44.51409907620634" lon="9.989802792062111"><ele>800.0</ele><time>2026-05-02T09:42:29.999Z</time></trkpt><trkpt lat="44.514208498908" lon="9.989934786549007"><ele>805.3333333333334</ele><time>2026-05-02T09:42:30.999Z</time></trkpt><trkpt lat="44.5143291959322" lon="9.990050724504728"><ele>810.6666666666667</ele><time>2026-05-02T09:42:31.999Z</time></trkpt><trkpt lat="44.51444207282086" lon="9.990190252822721"><ele>816.0</ele><time>2026-05-02T09:42:32.999Z</time></trkpt><trkpt lat="44.514561605617175" lon="9.990325856689399"><ele>812.5</ele><time>2026-05-02T09:42:33.998Z</time></trkpt><trkpt lat="44.514643575415604" lon="9.99040215925939"><ele>809.0</ele><time>2026-05-02T09:42:34.998Z</time></trkpt><trkpt lat="44.514749356923694" lon="9.990453340459435"><ele>805.5</ele><time>2026-05-02T09:42:35.998Z</time></trkpt><trkpt lat="44.51486911711492" lon="9.990443024545915"><ele>802.0</ele><time>2026-05-02T09:42:36.998Z</time></trkpt><trkpt lat="44.51498626810695" lon="9.990344342367727"><ele>802.0</ele><time>2026-05-02T09:42:37.998Z</time></trkpt><trkpt lat="44.515122929843024" lon="9.990280145195296"><ele>802.0</ele><time>2026-05-02T09:42:38.998Z</time></trkpt><trkpt lat="44.515259774011085" lon="9.990195645110658"><ele>802.0</ele><time>2026-05-02T09:42:39.998Z</time></trkpt><trkpt lat="44.51539970789562" lon="9.99011864695873"><ele>802.0</ele><time>2026-05-02T09:42:40.998Z</time></trkpt><trkpt lat="44.51553765771785" lon="9.990048767753523"><ele>798.0</ele><time>2026-05-02T09:42:41.998Z</time></trkpt><trkpt lat="44.51567697418129" lon="9.989982372870157"><ele>794.0</ele><time>2026-05-02T09:42:42.998Z</time></trkpt><trkpt lat="44.51580998242499" lon="9.98991896365786"><ele>790.0</ele><time>2026-05-02T09:42:43.998Z</time></trkpt><trkpt lat="44.515938080388125" lon="9.989858661278326"><ele>786.0</ele><time>2026-05-02T09:42:44.998Z</time></trkpt><trkpt lat="44.51605108127225" lon="9.989791643316348"><ele>786.0</ele><time>2026-05-02T09:42:45.998Z</time></trkpt><trkpt lat="44.51611518138667" lon="9.989665477217837"><ele>786.0</ele><time>2026-05-02T09:42:46.998Z</time></trkpt><trkpt lat="44.51613770106015" lon="9.989536407079793"><ele>786.0</ele><time>2026-05-02T09:42:47.998Z</time></trkpt><trkpt lat="44.5161140606784" lon="9.989381033266353"><ele>786.0</ele><time>2026-05-02T09:42:48.998Z</time></trkpt><trkpt lat="44.51607575755798" lon="9.989206553389849"><ele>786.0</ele><time>2026-05-02T09:42:49.998Z</time></trkpt><trkpt lat="44.51597236316383" lon="9.989034956866652"><ele>783.6666666666667</ele><time>2026-05-02T09:42:50.998Z</time></trkpt><trkpt lat="44.51587195581944" lon="9.988854527596434"><ele>781.3333333333334</ele><time>2026-05-02T09:42:51.998Z</time></trkpt><trkpt lat="44.515783433024104" lon="9.988683124403975"><ele>779.0</ele><time>2026-05-02T09:42:52.998Z</time></trkpt><trkpt lat="44.51570424975655" lon="9.988525732032372"><ele>779.0</ele><time>2026-05-02T09:42:54Z</time></trkpt><trkpt lat="44.51563921990168" lon="9.988372789762371"><ele>779.0</ele><time>2026-05-02T09:42:55Z</time></trkpt><trkpt lat="44.51561814943241" lon="9.988212776879976"><ele>779.0</ele><time>2026-05-02T09:42:56Z</time></trkpt><trkpt lat="44.51561689351209" lon="9.988038759436835"><ele>779.0</ele><time>2026-05-02T09:42:57Z</time></trkpt><trkpt lat="44.51563681795185" lon="9.987836179643425"><ele>780.0</ele><time>2026-05-02T09:42:58Z</time></trkpt><trkpt lat="44.515696098423554" lon="9.987625885337334"><ele>781.0</ele><time>2026-05-02T09:42:59Z</time></trkpt><trkpt lat="44.515764633476735" lon="9.987391958660279"><ele>782.0</ele><time>2026-05-02T09:43:00Z</time></trkpt><trkpt lat="44.51581885707141" lon="9.987151844476704"><ele>779.6666666666667</ele><time>2026-05-02T09:43:01Z</time></trkpt><trkpt lat="44.51587281556742" lon="9.986916769696016"><ele>777.3333333333333</ele><time>2026-05-02T09:43:02Z</time></trkpt><trkpt lat="44.51592005229715" lon="9.986700686410746"><ele>775.0</ele><time>2026-05-02T09:43:03Z</time></trkpt><trkpt lat="44.515985826685785" lon="9.986493530447843"><ele>775.6666666666666</ele><time>2026-05-02T09:43:04Z</time></trkpt><trkpt lat="44.516079792242444" lon="9.986293725072356"><ele>776.3333333333333</ele><time>2026-05-02T09:43:05Z</time></trkpt><trkpt lat="44.516187638491324" lon="9.986121255845934"><ele>777.0</ele><time>2026-05-02T09:43:06Z</time></trkpt><trkpt lat="44.516293151899774" lon="9.985972075960204"><ele>774.5</ele><time>2026-05-02T09:43:07Z</time></trkpt><trkpt lat="44.516401622692015" lon="9.98584435817865"><ele>772.0</ele><time>2026-05-02T09:43:08Z</time></trkpt><trkpt lat="44.51650238434224" lon="9.985728621801783"><ele>769.5</ele><time>2026-05-02T09:43:09Z</time></trkpt><trkpt lat="44.5165869869859" lon="9.985625323056663"><ele>767.0</ele><time>2026-05-02T09:43:10Z</time></trkpt><trkpt lat="44.51666304854625" lon="9.985575061681866"><ele>767.0</ele><time>2026-05-02T09:43:11Z</time></trkpt><trkpt lat="44.516742422462826" lon="9.985584488032973"><ele>767.0</ele><time>2026-05-02T09:43:12Z</time></trkpt><trkpt lat="44.516825546350695" lon="9.985631277785098"><ele>767.0</ele><time>2026-05-02T09:43:13Z</time></trkpt><trkpt lat="44.516927650083844" lon="9.98570664502498"><ele>767.0</ele><time>2026-05-02T09:43:14Z</time></trkpt><trkpt lat="44.51704835695504" lon="9.985804535618195"><ele>767.0</ele><time>2026-05-02T09:43:15Z</time></trkpt><trkpt lat="44.51718133692469" lon="9.985905609483982"><ele>767.3333333333333</ele><time>2026-05-02T09:43:16Z</time></trkpt><trkpt lat="44.517318312840665" lon="9.986006445170034"><ele>767.6666666666666</ele><time>2026-05-02T09:43:17Z</time></trkpt><trkpt lat="44.5174629217417" lon="9.986110443139077"><ele>768.0</ele><time>2026-05-02T09:43:18Z</time></trkpt><trkpt lat="44.517603915402276" lon="9.986217286257535"><ele>768.0</ele><time>2026-05-02T09:43:19Z</time></trkpt><trkpt lat="44.51773660268525" lon="9.986321420144291"><ele>768.0</ele><time>2026-05-02T09:43:20Z</time></trkpt><trkpt lat="44.517867779836216" lon="9.986420436878436"><ele>768.0</ele><time>2026-05-02T09:43:21Z</time></trkpt><trkpt lat="44.51799253878482" lon="9.986516892996166"><ele>768.0</ele><time>2026-05-02T09:43:22Z</time></trkpt><trkpt lat="44.518111641443376" lon="9.986580327280553"><ele>767.75</ele><time>2026-05-02T09:43:23Z</time></trkpt><trkpt lat="44.518223612218634" lon="9.986565713207346"><ele>767.5</ele><time>2026-05-02T09:43:24Z</time></trkpt><trkpt lat="44.51834140324592" lon="9.986467776792248"><ele>767.25</ele><time>2026-05-02T09:43:25Z</time></trkpt><trkpt lat="44.51842705475338" lon="9.986291276588453"><ele>767.0</ele><time>2026-05-02T09:43:26Z</time></trkpt><trkpt lat="44.51845736208059" lon="9.986090720619202"><ele>767.0</ele><time>2026-05-02T09:43:27Z</time></trkpt><trkpt lat="44.518429966413905" lon="9.985859529060665"><ele>767.0</ele><time>2026-05-02T09:43:28Z</time></trkpt><trkpt lat="44.51838474877055" lon="9.985635992210451"><ele>767.0</ele><time>2026-05-02T09:43:29Z</time></trkpt><trkpt lat="44.51835429141519" lon="9.985429134443677"><ele>763.75</ele><time>2026-05-02T09:43:30Z</time></trkpt><trkpt lat="44.51833700289195" lon="9.985233989519605"><ele>760.5</ele><time>2026-05-02T09:43:31Z</time></trkpt><trkpt lat="44.51832639218611" lon="9.985060786875922"><ele>757.25</ele><time>2026-05-02T09:43:32Z</time></trkpt><trkpt lat="44.51831915324402" lon="9.98489042991585"><ele>754.0</ele><time>2026-05-02T09:43:33Z</time></trkpt><trkpt lat="44.51835795222493" lon="9.984732314711245"><ele>753.0</ele><time>2026-05-02T09:43:34Z</time></trkpt><trkpt lat="44.51842190300274" lon="9.984585206195753"><ele>752.0</ele><time>2026-05-02T09:43:35Z</time></trkpt><trkpt lat="44.51852113322669" lon="9.984447275526536"><ele>751.0</ele><time>2026-05-02T09:43:36Z</time></trkpt><trkpt lat="44.51864249520318" lon="9.98433582069577"><ele>750.0</ele><time>2026-05-02T09:43:37Z</time></trkpt><trkpt lat="44.51877991533504" lon="9.984252219863784"><ele>750.0</ele><time>2026-05-02T09:43:37.999Z</time></trkpt><trkpt lat="44.51892077739447" lon="9.984220607522891"><ele>750.0</ele><time>2026-05-02T09:43:38.999Z</time></trkpt><trkpt lat="44.519063652538094" lon="9.98425119389641"><ele>750.0</ele><time>2026-05-02T09:43:39.999Z</time></trkpt><trkpt lat="44.51920375143218" lon="9.984341440707402"><ele>750.0</ele><time>2026-05-02T09:43:40.999Z</time></trkpt><trkpt lat="44.51936312431689" lon="9.984422663975177"><ele>750.0</ele><time>2026-05-02T09:43:41.999Z</time></trkpt><trkpt lat="44.51950555601893" lon="9.984529027295027"><ele>750.0</ele><time>2026-05-02T09:43:42.999Z</time></trkpt><trkpt lat="44.51963413224701" lon="9.984616262784716"><ele>750.0</ele><time>2026-05-02T09:43:43.999Z</time></trkpt><trkpt lat="44.519737510546605" lon="9.984666786804928"><ele>750.0</ele><time>2026-05-02T09:43:44.999Z</time></trkpt><trkpt lat="44.51983764768215" lon="9.984666632511255"><ele>749.0</ele><time>2026-05-02T09:43:45.999Z</time></trkpt><trkpt lat="44.519926841269935" lon="9.984573597158564"><ele>748.0</ele><time>2026-05-02T09:43:46.999Z</time></trkpt><trkpt lat="44.51998730073116" lon="9.98440659526934"><ele>747.0</ele><time>2026-05-02T09:43:47.999Z</time></trkpt><trkpt lat="44.520003539516956" lon="9.98420342488295"><ele>746.0</ele><time>2026-05-02T09:43:48.999Z</time></trkpt><trkpt lat="44.520005013759885" lon="9.983976196479459"><ele>743.0</ele><time>2026-05-02T09:43:49.999Z</time></trkpt><trkpt lat="44.52002565703331" lon="9.98374586566564"><ele>740.0</ele><time>2026-05-02T09:43:50.999Z</time></trkpt><trkpt lat="44.52005767687634" lon="9.983509945016197"><ele>737.0</ele><time>2026-05-02T09:43:51.999Z</time></trkpt><trkpt lat="44.520088622743664" lon="9.98328877065616"><ele>735.75</ele><time>2026-05-02T09:43:52.999Z</time></trkpt><trkpt lat="44.52011622013143" lon="9.983068629255257"><ele>734.5</ele><time>2026-05-02T09:43:53.999Z</time></trkpt><trkpt lat="44.52014277276126" lon="9.98286874160534"><ele>733.25</ele><time>2026-05-02T09:43:54.999Z</time></trkpt><trkpt lat="44.52018213662816" lon="9.982705073275337"><ele>732.0</ele><time>2026-05-02T09:43:55.999Z</time></trkpt><trkpt lat="44.520271633872056" lon="9.982566515154158"><ele>730.0</ele><time>2026-05-02T09:43:56.999Z</time></trkpt><trkpt lat="44.5203859976127" lon="9.982458747903591"><ele>728.0</ele><time>2026-05-02T09:43:57.999Z</time></trkpt><trkpt lat="44.52053099267031" lon="9.982400538308772"><ele>726.0</ele><time>2026-05-02T09:43:58.999Z</time></trkpt><trkpt lat="44.5206859654357" lon="9.982410955425983"><ele>724.0</ele><time>2026-05-02T09:43:59.999Z</time></trkpt><trkpt lat="44.52085700799194" lon="9.982417786183897"><ele>724.0</ele><time>2026-05-02T09:44:00.999Z</time></trkpt><trkpt lat="44.52101170174571" lon="9.982456794013522"><ele>724.0</ele><time>2026-05-02T09:44:01.999Z</time></trkpt><trkpt lat="44.521145660448035" lon="9.98245476813688"><ele>724.0</ele><time>2026-05-02T09:44:02.999Z</time></trkpt><trkpt lat="44.52126186630564" lon="9.982422792647473"><ele>724.0</ele><time>2026-05-02T09:44:03.999Z</time></trkpt><trkpt lat="44.52135716136838" lon="9.98236970279046"><ele>729.75</ele><time>2026-05-02T09:44:04.999Z</time></trkpt><trkpt lat="44.52142859303026" lon="9.982296950806154"><ele>735.5</ele><time>2026-05-02T09:44:05.999Z</time></trkpt><trkpt lat="44.521483236537264" lon="9.982188256680521"><ele>741.25</ele><time>2026-05-02T09:44:06.999Z</time></trkpt><trkpt lat="44.52152459669285" lon="9.982028533893068"><ele>747.0</ele><time>2026-05-02T09:44:07.999Z</time></trkpt><trkpt lat="44.52156607949514" lon="9.981830587169071"><ele>739.3333333333334</ele><time>2026-05-02T09:44:08.999Z</time></trkpt><trkpt lat="44.52161634628215" lon="9.981618529255465"><ele>731.6666666666667</ele><time>2026-05-02T09:44:09.999Z</time></trkpt><trkpt lat="44.521677205485496" lon="9.981396130436195"><ele>724.0</ele><time>2026-05-02T09:44:10.999Z</time></trkpt><trkpt lat="44.52173994752383" lon="9.981171700838482"><ele>724.0</ele><time>2026-05-02T09:44:11.999Z</time></trkpt><trkpt lat="44.52180157116822" lon="9.980951284874756"><ele>724.0</ele><time>2026-05-02T09:44:12.999Z</time></trkpt><trkpt lat="44.52186658649302" lon="9.980730835959804"><ele>724.0</ele><time>2026-05-02T09:44:13.999Z</time></trkpt><trkpt lat="44.52193143137248" lon="9.9805218052542"><ele>724.25</ele><time>2026-05-02T09:44:14.999Z</time></trkpt><trkpt lat="44.52199360941089" lon="9.980334974289201"><ele>724.5</ele><time>2026-05-02T09:44:15.999Z</time></trkpt><trkpt lat="44.522052587206524" lon="9.980159017291156"><ele>724.75</ele><time>2026-05-02T09:44:16.999Z</time></trkpt><trkpt lat="44.522100600092635" lon="9.979997674201483"><ele>725.0</ele><time>2026-05-02T09:44:17.999Z</time></trkpt><trkpt lat="44.52212419583412" lon="9.979817844219323"><ele>725.0</ele><time>2026-05-02T09:44:18.999Z</time></trkpt><trkpt lat="44.52211465581493" lon="9.97961995445625"><ele>725.0</ele><time>2026-05-02T09:44:19.999Z</time></trkpt><trkpt lat="44.52207782811686" lon="9.97941241002702"><ele>725.0</ele><time>2026-05-02T09:44:20.999Z</time></trkpt><trkpt lat="44.52201366068958" lon="9.979208414718862"><ele>715.0</ele><time>2026-05-02T09:44:21.999Z</time></trkpt><trkpt lat="44.521912226856465" lon="9.979027080865162"><ele>705.0</ele><time>2026-05-02T09:44:22.999Z</time></trkpt><trkpt lat="44.521783681231696" lon="9.978864407245986"><ele>695.0</ele><time>2026-05-02T09:44:23.999Z</time></trkpt><trkpt lat="44.52167145560225" lon="9.97868531136221"><ele>695.0</ele><time>2026-05-02T09:44:24.999Z</time></trkpt><trkpt lat="44.52159755138863" lon="9.978495362070925"><ele>695.0</ele><time>2026-05-02T09:44:25.999Z</time></trkpt><trkpt lat="44.521544353916426" lon="9.978298640025985"><ele>695.0</ele><time>2026-05-02T09:44:26.999Z</time></trkpt><trkpt lat="44.52149131149189" lon="9.97808143375591"><ele>696.6666666666666</ele><time>2026-05-02T09:44:27.999Z</time></trkpt><trkpt lat="44.52143232032789" lon="9.97787540971217"><ele>698.3333333333334</ele><time>2026-05-02T09:44:28.999Z</time></trkpt><trkpt lat="44.52140283285763" lon="9.97766409372222"><ele>700.0</ele><time>2026-05-02T09:44:29.999Z</time></trkpt><trkpt lat="44.521415400825624" lon="9.977443588108514"><ele>702.0</ele><time>2026-05-02T09:44:30.999Z</time></trkpt><trkpt lat="44.52143791727819" lon="9.977203076267951"><ele>704.0</ele><time>2026-05-02T09:44:31.999Z</time></trkpt><trkpt lat="44.52146983870679" lon="9.976939445572128"><ele>706.0</ele><time>2026-05-02T09:44:32.999Z</time></trkpt><trkpt lat="44.52149305449035" lon="9.976692000758044"><ele>705.0</ele><time>2026-05-02T09:44:33.999Z</time></trkpt><trkpt lat="44.52152196112449" lon="9.976462942379852"><ele>704.0</ele><time>2026-05-02T09:44:34.999Z</time></trkpt><trkpt lat="44.52152680683412" lon="9.9762414822179"><ele>703.0</ele><time>2026-05-02T09:44:35.998Z</time></trkpt><trkpt lat="44.521516533770985" lon="9.976060986455435"><ele>703.0</ele><time>2026-05-02T09:44:36.998Z</time></trkpt><trkpt lat="44.52148320470767" lon="9.97588474598491"><ele>703.0</ele><time>2026-05-02T09:44:37.998Z</time></trkpt><trkpt lat="44.5214049349507" lon="9.975724248440056"><ele>703.0</ele><time>2026-05-02T09:44:38.998Z</time></trkpt><trkpt lat="44.5212857547577" lon="9.975579480214822"><ele>703.0</ele><time>2026-05-02T09:44:39.998Z</time></trkpt><trkpt lat="44.521155866051785" lon="9.975430226851836"><ele>695.75</ele><time>2026-05-02T09:44:40.998Z</time></trkpt><trkpt lat="44.521048668725676" lon="9.975283539914638"><ele>688.5</ele><time>2026-05-02T09:44:41.998Z</time></trkpt><trkpt lat="44.52097416792518" lon="9.97516895386361"><ele>681.25</ele><time>2026-05-02T09:44:42.998Z</time></trkpt><trkpt lat="44.520932010591956" lon="9.975033568621196"><ele>674.0</ele><time>2026-05-02T09:44:43.998Z</time></trkpt><trkpt lat="44.52088941128409" lon="9.974892027700772"><ele>672.25</ele><time>2026-05-02T09:44:44.998Z</time></trkpt><trkpt lat="44.52093409659483" lon="9.974732891455213"><ele>670.5</ele><time>2026-05-02T09:44:45.998Z</time></trkpt><trkpt lat="44.52100966701335" lon="9.974586438671535"><ele>668.75</ele><time>2026-05-02T09:44:46.998Z</time></trkpt><trkpt lat="44.52109267367426" lon="9.974407661019178"><ele>667.0</ele><time>2026-05-02T09:44:47.998Z</time></trkpt><trkpt lat="44.52117331794024" lon="9.974233182100704"><ele>665.0</ele><time>2026-05-02T09:44:48.998Z</time></trkpt><trkpt lat="44.52121752465234" lon="9.974030634182538"><ele>663.0</ele><time>2026-05-02T09:44:49.998Z</time></trkpt><trkpt lat="44.521204308733836" lon="9.973800199244144"><ele>661.0</ele><time>2026-05-02T09:44:50.998Z</time></trkpt><trkpt lat="44.52116774101001" lon="9.973563609848723"><ele>660.0</ele><time>2026-05-02T09:44:51.998Z</time></trkpt><trkpt lat="44.521136730006326" lon="9.973322787087815"><ele>659.0</ele><time>2026-05-02T09:44:52.998Z</time></trkpt><trkpt lat="44.52113103225594" lon="9.973046800966648"><ele>658.0</ele><time>2026-05-02T09:44:53.998Z</time></trkpt><trkpt lat="44.521093083779554" lon="9.97277336234708"><ele>658.0</ele><time>2026-05-02T09:44:54.998Z</time></trkpt><trkpt lat="44.521076560015274" lon="9.972509171966552"><ele>658.0</ele><time>2026-05-02T09:44:55.998Z</time></trkpt><trkpt lat="44.52105515752779" lon="9.972259073957414"><ele>658.0</ele><time>2026-05-02T09:44:56.998Z</time></trkpt><trkpt lat="44.521033185448225" lon="9.972017086333787"><ele>658.0</ele><time>2026-05-02T09:44:57.998Z</time></trkpt><trkpt lat="44.52101892986028" lon="9.971795024641757"><ele>658.0</ele><time>2026-05-02T09:44:58.998Z</time></trkpt><trkpt lat="44.52100415172688" lon="9.97160726390959"><ele>658.0</ele><time>2026-05-02T09:45:00Z</time></trkpt><trkpt lat="44.520997302776834" lon="9.971459431824758"><ele>658.0</ele><time>2026-05-02T09:45:01Z</time></trkpt><trkpt lat="44.52098683139514" lon="9.97134734975505"><ele>658.25</ele><time>2026-05-02T09:45:02Z</time></trkpt><trkpt lat="44.52094404733613" lon="9.971274257164536"><ele>658.5</ele><time>2026-05-02T09:45:03Z</time></trkpt><trkpt lat="44.52079134742407" lon="9.97129112793933"><ele>658.75</ele><time>2026-05-02T09:45:05Z</time></trkpt><trkpt lat="44.520749386724766" lon="9.971455723335723"><ele>659.0</ele><time>2026-05-02T09:45:06Z</time></trkpt><trkpt lat="44.520746362526346" lon="9.971631845636695"><ele>658.75</ele><time>2026-05-02T09:45:07Z</time></trkpt><trkpt lat="44.520764904598636" lon="9.971827915277293"><ele>658.5</ele><time>2026-05-02T09:45:08Z</time></trkpt><trkpt lat="44.52076033557068" lon="9.972013494566752"><ele>658.25</ele><time>2026-05-02T09:45:09Z</time></trkpt><trkpt lat="44.52075451224723" lon="9.972143287691956"><ele>658.0</ele><time>2026-05-02T09:45:10Z</time></trkpt><trkpt lat="44.520741073865544" lon="9.972321152848659"><ele>658.0</ele><time>2026-05-02T09:45:11Z</time></trkpt><trkpt lat="44.52067105447852" lon="9.97245070258052"><ele>658.0</ele><time>2026-05-02T09:45:12Z</time></trkpt><trkpt lat="44.52059851904226" lon="9.972537163248404"><ele>658.0</ele><time>2026-05-02T09:45:13Z</time></trkpt><trkpt lat="44.52050256834563" lon="9.97254270572616"><ele>658.0</ele><time>2026-05-02T09:45:14Z</time></trkpt><trkpt lat="44.520404404627946" lon="9.972507393829918"><ele>658.0</ele><time>2026-05-02T09:45:15Z</time></trkpt><trkpt lat="44.520322784895285" lon="9.972383054694996"><ele>653.0</ele><time>2026-05-02T09:45:16Z</time></trkpt><trkpt lat="44.52029190908734" lon="9.972230072403674"><ele>648.0</ele><time>2026-05-02T09:45:17Z</time></trkpt><trkpt lat="44.52027397993652" lon="9.972023153698185"><ele>643.0</ele><time>2026-05-02T09:45:18Z</time></trkpt><trkpt lat="44.52024628951525" lon="9.971809668005166"><ele>638.0</ele><time>2026-05-02T09:45:19Z</time></trkpt><trkpt lat="44.52020022185136" lon="9.971578545544403"><ele>637.3333333333333</ele><time>2026-05-02T09:45:20Z</time></trkpt><trkpt lat="44.52017081342109" lon="9.971319801344817"><ele>636.6666666666666</ele><time>2026-05-02T09:45:21Z</time></trkpt><trkpt lat="44.520144819143326" lon="9.971064485768267"><ele>636.0</ele><time>2026-05-02T09:45:22Z</time></trkpt><trkpt lat="44.52010959981774" lon="9.970825293928694"><ele>635.6666666666666</ele><time>2026-05-02T09:45:23Z</time></trkpt><trkpt lat="44.52007762168458" lon="9.97059659337314"><ele>635.3333333333333</ele><time>2026-05-02T09:45:24Z</time></trkpt><trkpt lat="44.52005238282963" lon="9.97037383999697"><ele>635.0</ele><time>2026-05-02T09:45:25Z</time></trkpt><trkpt lat="44.52002263981566" lon="9.970135216525778"><ele>634.0</ele><time>2026-05-02T09:45:26Z</time></trkpt><trkpt lat="44.51999556703134" lon="9.969893981013032"><ele>633.0</ele><time>2026-05-02T09:45:27Z</time></trkpt><trkpt lat="44.52002629292284" lon="9.969662779389541"><ele>632.0</ele><time>2026-05-02T09:45:28Z</time></trkpt><trkpt lat="44.5200442775646" lon="9.969430666451322"><ele>632.0</ele><time>2026-05-02T09:45:29Z</time></trkpt><trkpt lat="44.52001937087075" lon="9.96921114212603"><ele>632.0</ele><time>2026-05-02T09:45:30Z</time></trkpt><trkpt lat="44.51997066922575" lon="9.969013083516362"><ele>632.0</ele><time>2026-05-02T09:45:31Z</time></trkpt><trkpt lat="44.51990529334661" lon="9.968835957959271"><ele>631.25</ele><time>2026-05-02T09:45:32Z</time></trkpt><trkpt lat="44.519870333079986" lon="9.968665267176627"><ele>630.5</ele><time>2026-05-02T09:45:33Z</time></trkpt><trkpt lat="44.51986610534937" lon="9.968516581589805"><ele>629.75</ele><time>2026-05-02T09:45:34Z</time></trkpt><trkpt lat="44.51991837069385" lon="9.968376695291436"><ele>629.0</ele><time>2026-05-02T09:45:35Z</time></trkpt><trkpt lat="44.52000725023338" lon="9.96826518669588"><ele>626.75</ele><time>2026-05-02T09:45:35.999Z</time></trkpt><trkpt lat="44.52013573864769" lon="9.968168616055426"><ele>624.5</ele><time>2026-05-02T09:45:36.999Z</time></trkpt><trkpt lat="44.52023738020199" lon="9.968042890416944"><ele>622.25</ele><time>2026-05-02T09:45:37.999Z</time></trkpt><trkpt lat="44.520297909012555" lon="9.967891729081106"><ele>620.0</ele><time>2026-05-02T09:45:38.999Z</time></trkpt><trkpt lat="44.520307158021865" lon="9.967721433897573"><ele>620.0</ele><time>2026-05-02T09:45:39.999Z</time></trkpt><trkpt lat="44.52026247515167" lon="9.967540085719884"><ele>620.0</ele><time>2026-05-02T09:45:40.999Z</time></trkpt><trkpt lat="44.52018617369732" lon="9.967375970638532"><ele>620.0</ele><time>2026-05-02T09:45:41.999Z</time></trkpt><trkpt lat="44.52011197607612" lon="9.967223041436135"><ele>620.0</ele><time>2026-05-02T09:45:42.999Z</time></trkpt><trkpt lat="44.52004276363877" lon="9.967083457116521"><ele>618.8</ele><time>2026-05-02T09:45:43.999Z</time></trkpt><trkpt lat="44.519994383342386" lon="9.966980978681889"><ele>617.6</ele><time>2026-05-02T09:45:44.999Z</time></trkpt><trkpt lat="44.520022247783714" lon="9.966843830664198"><ele>616.4</ele><time>2026-05-02T09:45:45.999Z</time></trkpt><trkpt lat="44.52009855669857" lon="9.966714589820374"><ele>615.2</ele><time>2026-05-02T09:45:46.999Z</time></trkpt><trkpt lat="44.5202170656829" lon="9.96661727605364"><ele>614.0</ele><time>2026-05-02T09:45:47.999Z</time></trkpt><trkpt lat="44.520341168520645" lon="9.966466956214449"><ele>614.0</ele><time>2026-05-02T09:45:48.999Z</time></trkpt><trkpt lat="44.52043466672051" lon="9.966281185461101"><ele>614.0</ele><time>2026-05-02T09:45:49.999Z</time></trkpt><trkpt lat="44.520538240460546" lon="9.966099899735122"><ele>614.0</ele><time>2026-05-02T09:45:50.999Z</time></trkpt><trkpt lat="44.52064537336357" lon="9.96593983464436"><ele>614.0</ele><time>2026-05-02T09:45:51.999Z</time></trkpt><trkpt lat="44.52072796981465" lon="9.965821354487336"><ele>614.0</ele><time>2026-05-02T09:45:52.999Z</time></trkpt><trkpt lat="44.52081179277738" lon="9.96576799027377"><ele>614.0</ele><time>2026-05-02T09:45:53.999Z</time></trkpt><trkpt lat="44.520921513113386" lon="9.965739880753077"><ele>614.0</ele><time>2026-05-02T09:45:54.999Z</time></trkpt><trkpt lat="44.52104047762732" lon="9.965783881505516"><ele>614.0</ele><time>2026-05-02T09:45:55.999Z</time></trkpt><trkpt lat="44.52110962883502" lon="9.965925430011348"><ele>614.0</ele><time>2026-05-02T09:45:56.999Z</time></trkpt><trkpt lat="44.52119923241545" lon="9.966066932595552"><ele>614.0</ele><time>2026-05-02T09:45:57.999Z</time></trkpt><trkpt lat="44.521293708642304" lon="9.96617901924216"><ele>614.0</ele><time>2026-05-02T09:45:58.999Z</time></trkpt><trkpt lat="44.521395119238406" lon="9.966220616372174"><ele>614.0</ele><time>2026-05-02T09:45:59.999Z</time></trkpt><trkpt lat="44.521515707736874" lon="9.966199506833988"><ele>615.75</ele><time>2026-05-02T09:46:00.999Z</time></trkpt><trkpt lat="44.521613840736165" lon="9.96605731604083"><ele>617.5</ele><time>2026-05-02T09:46:01.999Z</time></trkpt><trkpt lat="44.521734615896186" lon="9.965924289022455"><ele>619.25</ele><time>2026-05-02T09:46:02.999Z</time></trkpt><trkpt lat="44.521847316631614" lon="9.965782894017003"><ele>621.0</ele><time>2026-05-02T09:46:03.999Z</time></trkpt><trkpt lat="44.521963868974346" lon="9.965645360995387"><ele>614.6666666666666</ele><time>2026-05-02T09:46:04.999Z</time></trkpt><trkpt lat="44.522089532970206" lon="9.96551660537081"><ele>608.3333333333333</ele><time>2026-05-02T09:46:05.999Z</time></trkpt><trkpt lat="44.522215992893365" lon="9.965381828692236"><ele>602.0</ele><time>2026-05-02T09:46:06.999Z</time></trkpt><trkpt lat="44.522342850950935" lon="9.965224546185418"><ele>602.0</ele><time>2026-05-02T09:46:07.999Z</time></trkpt><trkpt lat="44.52247937766895" lon="9.96505833841736"><ele>602.0</ele><time>2026-05-02T09:46:08.999Z</time></trkpt><trkpt lat="44.522622321623125" lon="9.964889268846719"><ele>602.0</ele><time>2026-05-02T09:46:09.999Z</time></trkpt><trkpt lat="44.52276918700316" lon="9.964724373058383"><ele>597.0</ele><time>2026-05-02T09:46:10.999Z</time></trkpt><trkpt lat="44.52291103654521" lon="9.96455903794942"><ele>592.0</ele><time>2026-05-02T09:46:11.999Z</time></trkpt><trkpt lat="44.52305149890688" lon="9.96440175365402"><ele>587.0</ele><time>2026-05-02T09:46:12.999Z</time></trkpt><trkpt lat="44.523188259415136" lon="9.964244382293327"><ele>585.0</ele><time>2026-05-02T09:46:13.999Z</time></trkpt><trkpt lat="44.523328963519724" lon="9.964085240692821"><ele>583.0</ele><time>2026-05-02T09:46:14.999Z</time></trkpt><trkpt lat="44.52347323232021" lon="9.963918693677282"><ele>581.0</ele><time>2026-05-02T09:46:15.999Z</time></trkpt><trkpt lat="44.523614252640826" lon="9.963762139552541"><ele>576.6666666666666</ele><time>2026-05-02T09:46:16.999Z</time></trkpt><trkpt lat="44.523755493826656" lon="9.963608441809772"><ele>572.3333333333334</ele><time>2026-05-02T09:46:17.999Z</time></trkpt><trkpt lat="44.523883458253614" lon="9.963459921298499"><ele>568.0</ele><time>2026-05-02T09:46:18.999Z</time></trkpt><trkpt lat="44.523987973553936" lon="9.963336471372514"><ele>568.0</ele><time>2026-05-02T09:46:19.999Z</time></trkpt><trkpt lat="44.52408161304859" lon="9.963226868758774"><ele>568.0</ele><time>2026-05-02T09:46:20.999Z</time></trkpt><trkpt lat="44.524151810011396" lon="9.96311212987183"><ele>568.0</ele><time>2026-05-02T09:46:21.999Z</time></trkpt><trkpt lat="44.52420121526263" lon="9.962978328100565"><ele>568.0</ele><time>2026-05-02T09:46:22.999Z</time></trkpt><trkpt lat="44.52418399285031" lon="9.962820933570972"><ele>568.0</ele><time>2026-05-02T09:46:23.999Z</time></trkpt><trkpt lat="44.52415907438278" lon="9.962647635633754"><ele>568.0</ele><time>2026-05-02T09:46:24.999Z</time></trkpt><trkpt lat="44.524104650995014" lon="9.962486080905686"><ele>568.0</ele><time>2026-05-02T09:46:25.999Z</time></trkpt><trkpt lat="44.52403281284536" lon="9.962376935738938"><ele>568.0</ele><time>2026-05-02T09:46:26.999Z</time></trkpt><trkpt lat="44.52390723693811" lon="9.962301673934693"><ele>567.5</ele><time>2026-05-02T09:46:27.999Z</time></trkpt><trkpt lat="44.52377684887166" lon="9.9622598223039"><ele>567.0</ele><time>2026-05-02T09:46:28.999Z</time></trkpt><trkpt lat="44.52362121814832" lon="9.96222933144897"><ele>566.5</ele><time>2026-05-02T09:46:29.999Z</time></trkpt><trkpt lat="44.523463937013624" lon="9.962208969692176"><ele>566.0</ele><time>2026-05-02T09:46:30.999Z</time></trkpt><trkpt lat="44.52333203135937" lon="9.962141165820197"><ele>567.0</ele><time>2026-05-02T09:46:31.999Z</time></trkpt><trkpt lat="44.52321643903291" lon="9.962043272553611"><ele>568.0</ele><time>2026-05-02T09:46:32.999Z</time></trkpt><trkpt lat="44.52311434443444" lon="9.96192055315759"><ele>569.0</ele><time>2026-05-02T09:46:33.999Z</time></trkpt><trkpt lat="44.5230294382801" lon="9.96177726404544"><ele>570.0</ele><time>2026-05-02T09:46:34.999Z</time></trkpt><trkpt lat="44.522989028198225" lon="9.961596244012709"><ele>567.0</ele><time>2026-05-02T09:46:35.999Z</time></trkpt><trkpt lat="44.522976743369775" lon="9.961398346377361"><ele>564.0</ele><time>2026-05-02T09:46:36.999Z</time></trkpt><trkpt lat="44.52301885535945" lon="9.96118995773815"><ele>561.0</ele><time>2026-05-02T09:46:37.999Z</time></trkpt><trkpt lat="44.523056911576006" lon="9.96096256605268"><ele>558.6666666666666</ele><time>2026-05-02T09:46:38.998Z</time></trkpt><trkpt lat="44.52312816147887" lon="9.960742893793764"><ele>556.3333333333333</ele><time>2026-05-02T09:46:39.998Z</time></trkpt><trkpt lat="44.52318573566787" lon="9.960496277135727"><ele>554.0</ele><time>2026-05-02T09:46:40.998Z</time></trkpt><trkpt lat="44.52322601248238" lon="9.96022888535324"><ele>551.6666666666666</ele><time>2026-05-02T09:46:41.998Z</time></trkpt><trkpt lat="44.523247285304976" lon="9.959959791993704"><ele>549.3333333333334</ele><time>2026-05-02T09:46:42.998Z</time></trkpt><trkpt lat="44.523246078347555" lon="9.95969761033165"><ele>547.0</ele><time>2026-05-02T09:46:43.998Z</time></trkpt><trkpt lat="44.523236777188416" lon="9.959441609940702"><ele>546.0</ele><time>2026-05-02T09:46:44.998Z</time></trkpt><trkpt lat="44.52323659251722" lon="9.959187229681506"><ele>545.0</ele><time>2026-05-02T09:46:45.998Z</time></trkpt><trkpt lat="44.52326843879288" lon="9.958940910104532"><ele>544.0</ele><time>2026-05-02T09:46:46.998Z</time></trkpt><trkpt lat="44.52332758501787" lon="9.958705189935209"><ele>544.0</ele><time>2026-05-02T09:46:47.998Z</time></trkpt><trkpt lat="44.52340921281985" lon="9.958482612921538"><ele>544.0</ele><time>2026-05-02T09:46:48.998Z</time></trkpt><trkpt lat="44.523514255995025" lon="9.95828597782615"><ele>544.0</ele><time>2026-05-02T09:46:49.998Z</time></trkpt><trkpt lat="44.52363637782183" lon="9.958113652486283"><ele>545.0</ele><time>2026-05-02T09:46:50.998Z</time></trkpt><trkpt lat="44.523780888848975" lon="9.95795373482532"><ele>546.0</ele><time>2026-05-02T09:46:51.998Z</time></trkpt><trkpt lat="44.523945138333495" lon="9.95780565213964"><ele>547.0</ele><time>2026-05-02T09:46:52.998Z</time></trkpt><trkpt lat="44.52411791071732" lon="9.957644349384756"><ele>546.0</ele><time>2026-05-02T09:46:53.998Z</time></trkpt><trkpt lat="44.524284751354244" lon="9.957486396898572"><ele>545.0</ele><time>2026-05-02T09:46:54.998Z</time></trkpt><trkpt lat="44.52445028838481" lon="9.957322870694329"><ele>544.0</ele><time>2026-05-02T09:46:55.998Z</time></trkpt><trkpt lat="44.524615107714844" lon="9.957181663050726"><ele>544.0</ele><time>2026-05-02T09:46:56.998Z</time></trkpt><trkpt lat="44.52478315486946" lon="9.957072764734837"><ele>544.0</ele><time>2026-05-02T09:46:57.998Z</time></trkpt><trkpt lat="44.5249464963955" lon="9.95696052765038"><ele>544.0</ele><time>2026-05-02T09:46:58.998Z</time></trkpt><trkpt lat="44.52509013717763" lon="9.956817720288923"><ele>536.6666666666667</ele><time>2026-05-02T09:46:59.998Z</time></trkpt><trkpt lat="44.525209130048644" lon="9.956631759214929"><ele>529.3333333333334</ele><time>2026-05-02T09:47:00.998Z</time></trkpt><trkpt lat="44.525284107227534" lon="9.956399440406472"><ele>522.0</ele><time>2026-05-02T09:47:01.998Z</time></trkpt><trkpt lat="44.52536004189146" lon="9.956171688003431"><ele>521.6666666666666</ele><time>2026-05-02T09:47:02.998Z</time></trkpt><trkpt lat="44.52540344267198" lon="9.955939680465091"><ele>521.3333333333333</ele><time>2026-05-02T09:47:03.998Z</time></trkpt><trkpt lat="44.525452838017756" lon="9.95572641060645"><ele>521.0</ele><time>2026-05-02T09:47:04.998Z</time></trkpt><trkpt lat="44.52550600764852" lon="9.955531797733055"><ele>521.0</ele><time>2026-05-02T09:47:06Z</time></trkpt><trkpt lat="44.525552995982714" lon="9.955363638416694"><ele>521.0</ele><time>2026-05-02T09:47:07Z</time></trkpt><trkpt lat="44.525594323930676" lon="9.955221083584911"><ele>521.0</ele><time>2026-05-02T09:47:08Z</time></trkpt><trkpt lat="44.52565823228218" lon="9.955094026592791"><ele>521.0</ele><time>2026-05-02T09:47:09Z</time></trkpt><trkpt lat="44.52575937801706" lon="9.95499670956011"><ele>521.0</ele><time>2026-05-02T09:47:10Z</time></trkpt><trkpt lat="44.52589734905972" lon="9.954968546932395"><ele>521.0</ele><time>2026-05-02T09:47:11Z</time></trkpt><trkpt lat="44.52603491392159" lon="9.954988911578498"><ele>521.0</ele><time>2026-05-02T09:47:12Z</time></trkpt><trkpt lat="44.52617468150838" lon="9.955050329534936"><ele>521.0</ele><time>2026-05-02T09:47:13Z</time></trkpt><trkpt lat="44.52629509413292" lon="9.95515711269381"><ele>516.0</ele><time>2026-05-02T09:47:14Z</time></trkpt><trkpt lat="44.52640699247745" lon="9.955320893783618"><ele>511.0</ele><time>2026-05-02T09:47:15Z</time></trkpt><trkpt lat="44.52652263678956" lon="9.955487061099129"><ele>506.0</ele><time>2026-05-02T09:47:16Z</time></trkpt><trkpt lat="44.52661285611494" lon="9.955671944220965"><ele>506.0</ele><time>2026-05-02T09:47:17Z</time></trkpt><trkpt lat="44.526697337353845" lon="9.95583514177442"><ele>506.0</ele><time>2026-05-02T09:47:18Z</time></trkpt><trkpt lat="44.526774994139394" lon="9.955967728332656"><ele>506.0</ele><time>2026-05-02T09:47:19Z</time></trkpt><trkpt lat="44.52685473926521" lon="9.956079120871717"><ele>506.0</ele><time>2026-05-02T09:47:20Z</time></trkpt><trkpt lat="44.52695819180088" lon="9.956162274150655"><ele>501.8</ele><time>2026-05-02T09:47:21Z</time></trkpt><trkpt lat="44.527081282488226" lon="9.956193294489525"><ele>497.6</ele><time>2026-05-02T09:47:22Z</time></trkpt><trkpt lat="44.527194023081684" lon="9.956173834357932"><ele>493.4</ele><time>2026-05-02T09:47:23Z</time></trkpt><trkpt lat="44.527270334328456" lon="9.956121428642025"><ele>489.2</ele><time>2026-05-02T09:47:24Z</time></trkpt><trkpt lat="44.52730531175105" lon="9.95603008507562"><ele>485.0</ele><time>2026-05-02T09:47:25Z</time></trkpt><trkpt lat="44.527303205808145" lon="9.955905304434044"><ele>486.2</ele><time>2026-05-02T09:47:26Z</time></trkpt><trkpt lat="44.527257805644275" lon="9.955770939121747"><ele>487.4</ele><time>2026-05-02T09:47:27Z</time></trkpt><trkpt lat="44.52717251588223" lon="9.955686540795293"><ele>488.6</ele><time>2026-05-02T09:47:28Z</time></trkpt><trkpt lat="44.5270674897269" lon="9.95563781813093"><ele>489.8</ele><time>2026-05-02T09:47:29Z</time></trkpt><trkpt lat="44.526976657709284" lon="9.955592917000756"><ele>491.0</ele><time>2026-05-02T09:47:30Z</time></trkpt><trkpt lat="44.52690308078235" lon="9.955516004969086"><ele>491.8</ele><time>2026-05-02T09:47:31Z</time></trkpt><trkpt lat="44.52684057955537" lon="9.955405891879217"><ele>492.6</ele><time>2026-05-02T09:47:32Z</time></trkpt><trkpt lat="44.526832321507115" lon="9.955254441554612"><ele>493.4</ele><time>2026-05-02T09:47:33Z</time></trkpt><trkpt lat="44.52679993118395" lon="9.955109803472835"><ele>494.2</ele><time>2026-05-02T09:47:34Z</time></trkpt><trkpt lat="44.52679115210464" lon="9.954958211094258"><ele>495.0</ele><time>2026-05-02T09:47:35Z</time></trkpt><trkpt lat="44.526773002169634" lon="9.954813064070818"><ele>495.0</ele><time>2026-05-02T09:47:36Z</time></trkpt><trkpt lat="44.52673889526079" lon="9.954673850334368"><ele>495.0</ele><time>2026-05-02T09:47:37Z</time></trkpt><trkpt lat="44.52669322402195" lon="9.954535693445314"><ele>495.0</ele><time>2026-05-02T09:47:38Z</time></trkpt><trkpt lat="44.52663899364615" lon="9.95439307309908"><ele>495.0</ele><time>2026-05-02T09:47:39Z</time></trkpt><trkpt lat="44.526579134208326" lon="9.954245735487246"><ele>492.0</ele><time>2026-05-02T09:47:40Z</time></trkpt><trkpt lat="44.52652102374051" lon="9.954084434101327"><ele>489.0</ele><time>2026-05-02T09:47:40.999Z</time></trkpt><trkpt lat="44.52646038118078" lon="9.953927277475248"><ele>486.0</ele><time>2026-05-02T09:47:41.999Z</time></trkpt><trkpt lat="44.526390408133096" lon="9.953780605788623"><ele>483.0</ele><time>2026-05-02T09:47:42.999Z</time></trkpt><trkpt lat="44.52631722758108" lon="9.953631786369776"><ele>483.0</ele><time>2026-05-02T09:47:43.999Z</time></trkpt><trkpt lat="44.52625251027761" lon="9.953486336774"><ele>482.99999999999994</ele><time>2026-05-02T09:47:44.999Z</time></trkpt><trkpt lat="44.5261865846335" lon="9.95335487466707"><ele>482.99999999999994</ele><time>2026-05-02T09:47:45.999Z</time></trkpt><trkpt lat="44.52611208059064" lon="9.953250819785632"><ele>483.0</ele><time>2026-05-02T09:47:46.999Z</time></trkpt><trkpt lat="44.52601466341263" lon="9.953193511207443"><ele>483.0</ele><time>2026-05-02T09:47:47.999Z</time></trkpt><trkpt lat="44.52590565800364" lon="9.953198808961233"><ele>481.4</ele><time>2026-05-02T09:47:48.999Z</time></trkpt><trkpt lat="44.52580745032033" lon="9.953259940198132"><ele>479.79999999999995</ele><time>2026-05-02T09:47:49.999Z</time></trkpt><trkpt lat="44.52574229125743" lon="9.953321103630007"><ele>478.2</ele><time>2026-05-02T09:47:50.999Z</time></trkpt><trkpt lat="44.52564632615529" lon="9.953215206348696"><ele>476.6</ele><time>2026-05-02T09:47:52.999Z</time></trkpt><trkpt lat="44.52566820062426" lon="9.953099325852996"><ele>475.0</ele><time>2026-05-02T09:47:53.999Z</time></trkpt><trkpt lat="44.52575145805515" lon="9.953018849956932"><ele>475.0</ele><time>2026-05-02T09:47:54.999Z</time></trkpt><trkpt lat="44.52587701034096" lon="9.952975984200961"><ele>475.0</ele><time>2026-05-02T09:47:55.999Z</time></trkpt><trkpt lat="44.525998177902295" lon="9.952972046656232"><ele>475.0</ele><time>2026-05-02T09:47:56.999Z</time></trkpt><trkpt lat="44.526129984576464" lon="9.952995670447107"><ele>475.0</ele><time>2026-05-02T09:47:57.999Z</time></trkpt><trkpt lat="44.526236674437996" lon="9.953098444119137"><ele>476.6</ele><time>2026-05-02T09:47:58.999Z</time></trkpt><trkpt lat="44.526308273138376" lon="9.953213674727493"><ele>478.2</ele><time>2026-05-02T09:47:59.999Z</time></trkpt><trkpt lat="44.52636326781355" lon="9.95334532154016"><ele>479.79999999999995</ele><time>2026-05-02T09:48:00.999Z</time></trkpt><trkpt lat="44.52641053728777" lon="9.953448804039297"><ele>481.4</ele><time>2026-05-02T09:48:01.999Z</time></trkpt><trkpt lat="44.52646798268604" lon="9.953498517930212"><ele>483.0</ele><time>2026-05-02T09:48:02.999Z</time></trkpt><trkpt lat="44.52654266390429" lon="9.953472391165564"><ele>483.0</ele><time>2026-05-02T09:48:03.999Z</time></trkpt><trkpt lat="44.52659593135127" lon="9.953375666817584"><ele>482.99999999999994</ele><time>2026-05-02T09:48:04.999Z</time></trkpt><trkpt lat="44.52659940561553" lon="9.953240617274275"><ele>482.99999999999994</ele><time>2026-05-02T09:48:05.999Z</time></trkpt><trkpt lat="44.52654459274845" lon="9.953095041378639"><ele>483.0</ele><time>2026-05-02T09:48:06.999Z</time></trkpt><trkpt lat="44.526458618331716" lon="9.952971904290436"><ele>483.0</ele><time>2026-05-02T09:48:07.999Z</time></trkpt><trkpt lat="44.52635126396983" lon="9.952871698560925"><ele>481.0</ele><time>2026-05-02T09:48:08.999Z</time></trkpt><trkpt lat="44.5262341810085" lon="9.952775053760881"><ele>479.0</ele><time>2026-05-02T09:48:09.999Z</time></trkpt><trkpt lat="44.526097835964386" lon="9.952672004643848"><ele>477.0</ele><time>2026-05-02T09:48:10.999Z</time></trkpt><trkpt lat="44.525951945021994" lon="9.952588785438598"><ele>475.0</ele><time>2026-05-02T09:48:11.999Z</time></trkpt><trkpt lat="44.52581795371765" lon="9.952524275450411"><ele>475.0</ele><time>2026-05-02T09:48:12.999Z</time></trkpt><trkpt lat="44.525706975933545" lon="9.95248277733277"><ele>475.0</ele><time>2026-05-02T09:48:13.999Z</time></trkpt><trkpt lat="44.52560143721979" lon="9.952488103165118"><ele>475.0</ele><time>2026-05-02T09:48:14.999Z</time></trkpt><trkpt lat="44.525491484220986" lon="9.952560746314026"><ele>475.0</ele><time>2026-05-02T09:48:15.999Z</time></trkpt><trkpt lat="44.525408085127346" lon="9.952686710575252"><ele>472.33333333333337</ele><time>2026-05-02T09:48:16.999Z</time></trkpt><trkpt lat="44.525379554606786" lon="9.952807164129824"><ele>469.6666666666667</ele><time>2026-05-02T09:48:17.999Z</time></trkpt><trkpt lat="44.525307720679045" lon="9.952891795712626"><ele>467.0</ele><time>2026-05-02T09:48:19.999Z</time></trkpt><trkpt lat="44.525261770242125" lon="9.952823918614065"><ele>464.33333333333337</ele><time>2026-05-02T09:48:20.999Z</time></trkpt><trkpt lat="44.52525758484162" lon="9.9527058999757"><ele>461.6666666666667</ele><time>2026-05-02T09:48:21.999Z</time></trkpt><trkpt lat="44.52531159062721" lon="9.952570598545819"><ele>459.0</ele><time>2026-05-02T09:48:22.999Z</time></trkpt><trkpt lat="44.52542485643772" lon="9.952474952088837"><ele>458.5</ele><time>2026-05-02T09:48:23.999Z</time></trkpt><trkpt lat="44.5255311474308" lon="9.952364965923376"><ele>458.0</ele><time>2026-05-02T09:48:24.999Z</time></trkpt><trkpt lat="44.525662351770826" lon="9.95227764139011"><ele>457.5</ele><time>2026-05-02T09:48:25.999Z</time></trkpt><trkpt lat="44.525791876210754" lon="9.952199290089371"><ele>457.0</ele><time>2026-05-02T09:48:26.999Z</time></trkpt><trkpt lat="44.52592993077556" lon="9.952147164503376"><ele>457.0</ele><time>2026-05-02T09:48:27.999Z</time></trkpt><trkpt lat="44.52607977257924" lon="9.95212831997323"><ele>457.0</ele><time>2026-05-02T09:48:28.999Z</time></trkpt><trkpt lat="44.52623395819891" lon="9.952142570156996"><ele>457.0</ele><time>2026-05-02T09:48:29.999Z</time></trkpt><trkpt lat="44.52638720715635" lon="9.95219693937312"><ele>454.33333333333337</ele><time>2026-05-02T09:48:30.999Z</time></trkpt><trkpt lat="44.52653901409657" lon="9.952291611017198"><ele>451.66666666666663</ele><time>2026-05-02T09:48:31.999Z</time></trkpt><trkpt lat="44.52666910607673" lon="9.952455134435292"><ele>449.0</ele><time>2026-05-02T09:48:32.999Z</time></trkpt><trkpt lat="44.526798261436724" lon="9.952612990654018"><ele>445.0</ele><time>2026-05-02T09:48:33.999Z</time></trkpt><trkpt lat="44.52692675058038" lon="9.952765888172665"><ele>441.0</ele><time>2026-05-02T09:48:34.999Z</time></trkpt><trkpt lat="44.52700336416628" lon="9.952969648676445"><ele>437.0</ele><time>2026-05-02T09:48:35.999Z</time></trkpt><trkpt lat="44.52706714926217" lon="9.953185176827807"><ele>440.0</ele><time>2026-05-02T09:48:36.999Z</time></trkpt><trkpt lat="44.52713958761506" lon="9.953395584823939"><ele>443.0</ele><time>2026-05-02T09:48:37.999Z</time></trkpt><trkpt lat="44.52719348841248" lon="9.953579753949084"><ele>446.0</ele><time>2026-05-02T09:48:38.999Z</time></trkpt><trkpt lat="44.52725945745567" lon="9.953700387430551"><ele>449.0</ele><time>2026-05-02T09:48:39.999Z</time></trkpt><trkpt lat="44.52733685664607" lon="9.953783709127666"><ele>449.0</ele><time>2026-05-02T09:48:40.999Z</time></trkpt><trkpt lat="44.52744457982645" lon="9.953786613746807"><ele>449.0</ele><time>2026-05-02T09:48:41.999Z</time></trkpt><trkpt lat="44.52756871998808" lon="9.953719659236421"><ele>449.0</ele><time>2026-05-02T09:48:42.999Z</time></trkpt><trkpt lat="44.52766003774428" lon="9.95360333545882"><ele>449.0</ele><time>2026-05-02T09:48:43.999Z</time></trkpt><trkpt lat="44.52772273285236" lon="9.953438264217764"><ele>446.0</ele><time>2026-05-02T09:48:44.999Z</time></trkpt><trkpt lat="44.5277322624646" lon="9.953260311477615"><ele>443.0</ele><time>2026-05-02T09:48:45.999Z</time></trkpt><trkpt lat="44.527697237556296" lon="9.953089404652323"><ele>440.0</ele><time>2026-05-02T09:48:46.998Z</time></trkpt><trkpt lat="44.52763153698252" lon="9.952957634945506"><ele>437.0</ele><time>2026-05-02T09:48:47.998Z</time></trkpt><trkpt lat="44.52758514437099" lon="9.952820730910728"><ele>437.0</ele><time>2026-05-02T09:48:48.998Z</time></trkpt><trkpt lat="44.52754063487819" lon="9.952704308342511"><ele>437.00000000000006</ele><time>2026-05-02T09:48:49.998Z</time></trkpt><trkpt lat="44.52756611654507" lon="9.952616059075565"><ele>437.00000000000006</ele><time>2026-05-02T09:48:50.998Z</time></trkpt><trkpt lat="44.52769887082626" lon="9.952581013328091"><ele>437.0</ele><time>2026-05-02T09:48:52.998Z</time></trkpt><trkpt lat="44.52779275033341" lon="9.952652969792728"><ele>437.0</ele><time>2026-05-02T09:48:53.998Z</time></trkpt><trkpt lat="44.527887078666616" lon="9.952727514987433"><ele>434.25</ele><time>2026-05-02T09:48:54.998Z</time></trkpt><trkpt lat="44.52798601076214" lon="9.952792986225223"><ele>431.5</ele><time>2026-05-02T09:48:55.998Z</time></trkpt><trkpt lat="44.528058852291544" lon="9.95285856671959"><ele>428.75</ele><time>2026-05-02T09:48:56.998Z</time></trkpt><trkpt lat="44.528167015374216" lon="9.952999367759315"><ele>426.0</ele><time>2026-05-02T09:48:57.998Z</time></trkpt><trkpt lat="44.52824405663384" lon="9.953169010250035"><ele>426.0</ele><time>2026-05-02T09:48:58.998Z</time></trkpt><trkpt lat="44.52830171483462" lon="9.953320641341488"><ele>426.0</ele><time>2026-05-02T09:48:59.998Z</time></trkpt><trkpt lat="44.52835902578395" lon="9.953434764541363"><ele>426.0</ele><time>2026-05-02T09:49:00.998Z</time></trkpt><trkpt lat="44.52843618700795" lon="9.953540382887264"><ele>426.0</ele><time>2026-05-02T09:49:01.998Z</time></trkpt><trkpt lat="44.52853050130426" lon="9.953578090583182"><ele>426.0</ele><time>2026-05-02T09:49:02.998Z</time></trkpt><trkpt lat="44.52863254142189" lon="9.953551361836492"><ele>426.0</ele><time>2026-05-02T09:49:03.998Z</time></trkpt><trkpt lat="44.528705420562076" lon="9.953444651210557"><ele>426.0</ele><time>2026-05-02T09:49:04.998Z</time></trkpt><trkpt lat="44.528749123827616" lon="9.953337926187869"><ele>426.0</ele><time>2026-05-02T09:49:05.998Z</time></trkpt><trkpt lat="44.52872580236995" lon="9.953189197308514"><ele>426.0</ele><time>2026-05-02T09:49:06.998Z</time></trkpt><trkpt lat="44.52863757136343" lon="9.95305853836785"><ele>426.0</ele><time>2026-05-02T09:49:07.998Z</time></trkpt><trkpt lat="44.52851114381467" lon="9.952941070912322"><ele>426.0</ele><time>2026-05-02T09:49:08.998Z</time></trkpt><trkpt lat="44.52839603605122" lon="9.952812958875874"><ele>426.0</ele><time>2026-05-02T09:49:09.998Z</time></trkpt><trkpt lat="44.52831172431717" lon="9.952643266003276"><ele>426.0</ele><time>2026-05-02T09:49:10.998Z</time></trkpt><trkpt lat="44.528238821627895" lon="9.95248329230772"><ele>426.0</ele><time>2026-05-02T09:49:11.998Z</time></trkpt><trkpt lat="44.528169371844704" lon="9.952334366547205"><ele>426.5</ele><time>2026-05-02T09:49:12.998Z</time></trkpt><trkpt lat="44.52810998040236" lon="9.952175559952986"><ele>427.0</ele><time>2026-05-02T09:49:13.998Z</time></trkpt><trkpt lat="44.52804972338591" lon="9.952017578541186"><ele>427.5</ele><time>2026-05-02T09:49:14.998Z</time></trkpt><trkpt lat="44.527969503849356" lon="9.951906598263333"><ele>428.0</ele><time>2026-05-02T09:49:15.998Z</time></trkpt><trkpt lat="44.52787461070179" lon="9.951825940374471"><ele>428.0</ele><time>2026-05-02T09:49:16.998Z</time></trkpt><trkpt lat="44.527768215637906" lon="9.951767609256507"><ele>428.0</ele><time>2026-05-02T09:49:17.998Z</time></trkpt><trkpt lat="44.527655985582605" lon="9.95171502325313"><ele>428.0</ele><time>2026-05-02T09:49:18.998Z</time></trkpt><trkpt lat="44.527551600970355" lon="9.951653623347203"><ele>428.0</ele><time>2026-05-02T09:49:19.998Z</time></trkpt><trkpt lat="44.52746490383076" lon="9.951571909447539"><ele>423.75</ele><time>2026-05-02T09:49:20.999Z</time></trkpt><trkpt lat="44.527394802434365" lon="9.951465936255943"><ele>419.5</ele><time>2026-05-02T09:49:21.999Z</time></trkpt><trkpt lat="44.527378128610145" lon="9.951312546913915"><ele>415.25</ele><time>2026-05-02T09:49:22.999Z</time></trkpt><trkpt lat="44.52735930333956" lon="9.95115785162274"><ele>411.0</ele><time>2026-05-02T09:49:23.999Z</time></trkpt><trkpt lat="44.527367129811765" lon="9.950977957871258"><ele>406.75</ele><time>2026-05-02T09:49:24.999Z</time></trkpt><trkpt lat="44.527404035882746" lon="9.950781678759546"><ele>402.5</ele><time>2026-05-02T09:49:25.999Z</time></trkpt><trkpt lat="44.52743586437024" lon="9.95059248539413"><ele>398.25</ele><time>2026-05-02T09:49:26.999Z</time></trkpt><trkpt lat="44.52746591826944" lon="9.950409011691058"><ele>394.0</ele><time>2026-05-02T09:49:27.999Z</time></trkpt><trkpt lat="44.52748500127429" lon="9.950243804422996"><ele>394.0</ele><time>2026-05-02T09:49:28.999Z</time></trkpt><trkpt lat="44.52753050215194" lon="9.950095850337917"><ele>394.0</ele><time>2026-05-02T09:49:29.999Z</time></trkpt><trkpt lat="44.52758199497838" lon="9.94996365240573"><ele>394.0</ele><time>2026-05-02T09:49:30.999Z</time></trkpt><trkpt lat="44.52767268824569" lon="9.949864647700956"><ele>394.0</ele><time>2026-05-02T09:49:31.999Z</time></trkpt><trkpt lat="44.52778789857687" lon="9.949799653386542"><ele>396.0</ele><time>2026-05-02T09:49:32.999Z</time></trkpt><trkpt lat="44.52791420075657" lon="9.949777468528477"><ele>398.0</ele><time>2026-05-02T09:49:33.999Z</time></trkpt><trkpt lat="44.528047694524595" lon="9.94976610923137"><ele>400.0</ele><time>2026-05-02T09:49:34.999Z</time></trkpt><trkpt lat="44.52818430886838" lon="9.94978050756778"><ele>402.0</ele><time>2026-05-02T09:49:35.999Z</time></trkpt><trkpt lat="44.52830473454261" lon="9.949815962778482"><ele>402.0</ele><time>2026-05-02T09:49:36.999Z</time></trkpt><trkpt lat="44.528411317529965" lon="9.949833827564941"><ele>402.0</ele><time>2026-05-02T09:49:37.999Z</time></trkpt><trkpt lat="44.52850456067782" lon="9.949818110503822"><ele>402.0</ele><time>2026-05-02T09:49:38.999Z</time></trkpt><trkpt lat="44.52858605442386" lon="9.94981866614668"><ele>402.0</ele><time>2026-05-02T09:49:39.999Z</time></trkpt><trkpt lat="44.52866681261909" lon="9.949711502716847"><ele>402.0</ele><time>2026-05-02T09:49:41.999Z</time></trkpt><trkpt lat="44.52865096425181" lon="9.949601798919636"><ele>402.0</ele><time>2026-05-02T09:49:42.999Z</time></trkpt><trkpt lat="44.52858476484438" lon="9.94954190451572"><ele>402.0</ele><time>2026-05-02T09:49:43.999Z</time></trkpt><trkpt lat="44.528494957373745" lon="9.949520880532775"><ele>402.0</ele><time>2026-05-02T09:49:44.999Z</time></trkpt><trkpt lat="44.52836699372638" lon="9.949536643559421"><ele>402.0</ele><time>2026-05-02T09:49:45.999Z</time></trkpt><trkpt lat="44.52822996960571" lon="9.949535558597885"><ele>402.0</ele><time>2026-05-02T09:49:46.999Z</time></trkpt><trkpt lat="44.52810490587549" lon="9.949522872060417"><ele>402.0</ele><time>2026-05-02T09:49:47.999Z</time></trkpt><trkpt lat="44.527980943803584" lon="9.949498198908081"><ele>402.0</ele><time>2026-05-02T09:49:48.999Z</time></trkpt><trkpt lat="44.52787944030837" lon="9.94942949424868"><ele>402.0</ele><time>2026-05-02T09:49:49.999Z</time></trkpt><trkpt lat="44.52777466151703" lon="9.949351412162521"><ele>402.0</ele><time>2026-05-02T09:49:50.999Z</time></trkpt><trkpt lat="44.52766123993924" lon="9.9492891675254"><ele>402.40000000000003</ele><time>2026-05-02T09:49:51.999Z</time></trkpt><trkpt lat="44.527562668480584" lon="9.949233090571164"><ele>402.8</ele><time>2026-05-02T09:49:52.999Z</time></trkpt><trkpt lat="44.52745436242529" lon="9.949247078050016"><ele>403.2</ele><time>2026-05-02T09:49:53.999Z</time></trkpt><trkpt lat="44.52735758504361" lon="9.949326882967123"><ele>403.6</ele><time>2026-05-02T09:49:54.999Z</time></trkpt><trkpt lat="44.52727666962141" lon="9.949439744607702"><ele>404.0</ele><time>2026-05-02T09:49:55.999Z</time></trkpt><trkpt lat="44.52722135424147" lon="9.949542381651591"><ele>403.99999999999994</ele><time>2026-05-02T09:49:56.999Z</time></trkpt><trkpt lat="44.52715326032634" lon="9.949568097105242"><ele>404.0</ele><time>2026-05-02T09:49:57.999Z</time></trkpt><trkpt lat="44.5270987234295" lon="9.949507043633567"><ele>404.0</ele><time>2026-05-02T09:49:58.999Z</time></trkpt><trkpt lat="44.52708308700363" lon="9.949392880950306"><ele>404.0</ele><time>2026-05-02T09:49:59.999Z</time></trkpt><trkpt lat="44.52712043337892" lon="9.949282719599566"><ele>403.99999999999994</ele><time>2026-05-02T09:50:00.999Z</time></trkpt><trkpt lat="44.52722033440254" lon="9.949210107728781"><ele>404.0</ele><time>2026-05-02T09:50:01.999Z</time></trkpt><trkpt lat="44.52733985261764" lon="9.949117129461046"><ele>410.25</ele><time>2026-05-02T09:50:02.999Z</time></trkpt><trkpt lat="44.52746433739364" lon="9.949033973130431"><ele>416.5</ele><time>2026-05-02T09:50:03.999Z</time></trkpt><trkpt lat="44.527596339713924" lon="9.948977363940308"><ele>422.75</ele><time>2026-05-02T09:50:04.999Z</time></trkpt><trkpt lat="44.52773473115701" lon="9.948974879186524"><ele>429.0</ele><time>2026-05-02T09:50:05.999Z</time></trkpt><trkpt lat="44.52784661848371" lon="9.948986098118297"><ele>428.2</ele><time>2026-05-02T09:50:06.999Z</time></trkpt><trkpt lat="44.527918344470606" lon="9.9489839016517"><ele>427.4</ele><time>2026-05-02T09:50:07.999Z</time></trkpt><trkpt lat="44.5280458680261" lon="9.948951447021297"><ele>426.6</ele><time>2026-05-02T09:50:09.999Z</time></trkpt><trkpt lat="44.528134985735996" lon="9.948894432183533"><ele>425.8</ele><time>2026-05-02T09:50:10.999Z</time></trkpt><trkpt lat="44.52823880420004" lon="9.948825371351084"><ele>425.0</ele><time>2026-05-02T09:50:11.999Z</time></trkpt><trkpt lat="44.528366246225964" lon="9.94876325366222"><ele>425.0</ele><time>2026-05-02T09:50:12.999Z</time></trkpt><trkpt lat="44.52847132123625" lon="9.948703147117685"><ele>425.0</ele><time>2026-05-02T09:50:13.999Z</time></trkpt><trkpt lat="44.52857066714689" lon="9.948619834070293"><ele>425.0</ele><time>2026-05-02T09:50:14.999Z</time></trkpt><trkpt lat="44.52866032659152" lon="9.948505743095634"><ele>425.0</ele><time>2026-05-02T09:50:15.999Z</time></trkpt><trkpt lat="44.52875181697032" lon="9.948376747901838"><ele>427.0</ele><time>2026-05-02T09:50:16.999Z</time></trkpt><trkpt lat="44.528838633389476" lon="9.948253389211493"><ele>429.0</ele><time>2026-05-02T09:50:17.999Z</time></trkpt><trkpt lat="44.52892112166917" lon="9.948141615869957"><ele>431.0</ele><time>2026-05-02T09:50:18.999Z</time></trkpt><trkpt lat="44.52900259481556" lon="9.948038349786614"><ele>433.0</ele><time>2026-05-02T09:50:19.999Z</time></trkpt><trkpt lat="44.52907781552334" lon="9.947931419717808"><ele>433.0</ele><time>2026-05-02T09:50:20.999Z</time></trkpt><trkpt lat="44.52916245885102" lon="9.947820006848788"><ele>433.0</ele><time>2026-05-02T09:50:21.999Z</time></trkpt><trkpt lat="44.52925217387993" lon="9.947705515993622"><ele>433.0</ele><time>2026-05-02T09:50:22.999Z</time></trkpt><trkpt lat="44.52934533171493" lon="9.947579146815485"><ele>433.0</ele><time>2026-05-02T09:50:23.999Z</time></trkpt><trkpt lat="44.52943311198645" lon="9.947461363971712"><ele>434.25</ele><time>2026-05-02T09:50:24.999Z</time></trkpt><trkpt lat="44.52951290255879" lon="9.947348637492771"><ele>435.5</ele><time>2026-05-02T09:50:25.999Z</time></trkpt><trkpt lat="44.529604445832916" lon="9.947209022463499"><ele>436.75</ele><time>2026-05-02T09:50:26.999Z</time></trkpt><trkpt lat="44.529700070506024" lon="9.947077483466513"><ele>438.0</ele><time>2026-05-02T09:50:27.999Z</time></trkpt><trkpt lat="44.52979891606776" lon="9.94696162851604"><ele>438.0</ele><time>2026-05-02T09:50:28.999Z</time></trkpt><trkpt lat="44.52990349408667" lon="9.946859846756434"><ele>438.0</ele><time>2026-05-02T09:50:29.999Z</time></trkpt><trkpt lat="44.530026072955906" lon="9.946823964561435"><ele>438.0</ele><time>2026-05-02T09:50:30.999Z</time></trkpt><trkpt lat="44.530147787140436" lon="9.946784975413212"><ele>438.0</ele><time>2026-05-02T09:50:31.999Z</time></trkpt><trkpt lat="44.53027872066974" lon="9.946736483605614"><ele>440.5</ele><time>2026-05-02T09:50:32.999Z</time></trkpt><trkpt lat="44.530420366126144" lon="9.946707526283477"><ele>443.0</ele><time>2026-05-02T09:50:33.999Z</time></trkpt><trkpt lat="44.530557498766385" lon="9.946667483808229"><ele>445.5</ele><time>2026-05-02T09:50:34.999Z</time></trkpt><trkpt lat="44.5306925423781" lon="9.946628297329065"><ele>448.0</ele><time>2026-05-02T09:50:35.999Z</time></trkpt><trkpt lat="44.53080661394421" lon="9.946596768614956"><ele>448.0</ele><time>2026-05-02T09:50:36.999Z</time></trkpt><trkpt lat="44.53088880391302" lon="9.946543555839801"><ele>447.99999999999994</ele><time>2026-05-02T09:50:37.999Z</time></trkpt><trkpt lat="44.5309447533396" lon="9.946436316347619"><ele>447.99999999999994</ele><time>2026-05-02T09:50:38.999Z</time></trkpt><trkpt lat="44.5309604139188" lon="9.94628607272116"><ele>448.0</ele><time>2026-05-02T09:50:39.999Z</time></trkpt><trkpt lat="44.53092867582704" lon="9.946127052363739"><ele>448.0</ele><time>2026-05-02T09:50:40.998Z</time></trkpt><trkpt lat="44.53088553070511" lon="9.945969210739161"><ele>450.79999999999995</ele><time>2026-05-02T09:50:41.998Z</time></trkpt><trkpt lat="44.530858050082145" lon="9.94580743040381"><ele>453.59999999999997</ele><time>2026-05-02T09:50:42.998Z</time></trkpt><trkpt lat="44.530840192398124" lon="9.945647317393808"><ele>456.40000000000003</ele><time>2026-05-02T09:50:43.998Z</time></trkpt><trkpt lat="44.53082418713577" lon="9.945499919699909"><ele>459.20000000000005</ele><time>2026-05-02T09:50:44.998Z</time></trkpt><trkpt lat="44.53080707665173" lon="9.945373473383347"><ele>462.0</ele><time>2026-05-02T09:50:45.998Z</time></trkpt><trkpt lat="44.530796025691515" lon="9.945274156578831"><ele>462.0</ele><time>2026-05-02T09:50:46.998Z</time></trkpt><trkpt lat="44.53078834005364" lon="9.94515452830691"><ele>462.0</ele><time>2026-05-02T09:50:48.998Z</time></trkpt><trkpt lat="44.53075451683791" lon="9.945035283396958"><ele>462.0</ele><time>2026-05-02T09:57:55.999Z</time></trkpt><trkpt lat="44.53073440820173" lon="9.944936249921792"><ele>462.0</ele><time>2026-05-02T09:57:56.999Z</time></trkpt><trkpt lat="44.530756879733715" lon="9.94484297478331"><ele>462.0</ele><time>2026-05-02T09:57:57.999Z</time></trkpt><trkpt lat="44.53081304553871" lon="9.944749775884986"><ele>462.0</ele><time>2026-05-02T09:57:58.999Z</time></trkpt><trkpt lat="44.53091093668867" lon="9.944686923813698"><ele>462.5</ele><time>2026-05-02T09:57:59.999Z</time></trkpt><trkpt lat="44.53098797429602" lon="9.944574422876808"><ele>463.0</ele><time>2026-05-02T09:58:00.999Z</time></trkpt><trkpt lat="44.53108013987941" lon="9.944470302407924"><ele>463.5</ele><time>2026-05-02T09:58:01.999Z</time></trkpt><trkpt lat="44.531174651969515" lon="9.94435540859503"><ele>464.0</ele><time>2026-05-02T09:58:02.999Z</time></trkpt><trkpt lat="44.531282308936845" lon="9.944225762684265"><ele>463.5</ele><time>2026-05-02T09:58:03.999Z</time></trkpt><trkpt lat="44.53138821146515" lon="9.944096938612825"><ele>463.0</ele><time>2026-05-02T09:58:04.999Z</time></trkpt><trkpt lat="44.53149434218847" lon="9.94396926020315"><ele>462.5</ele><time>2026-05-02T09:58:05.999Z</time></trkpt><trkpt lat="44.53159442244232" lon="9.943846927226534"><ele>462.0</ele><time>2026-05-02T09:58:06.999Z</time></trkpt><trkpt lat="44.531679313572056" lon="9.943736624782993"><ele>462.0</ele><time>2026-05-02T09:58:07.999Z</time></trkpt><trkpt lat="44.53174236006798" lon="9.943608049389272"><ele>462.0</ele><time>2026-05-02T09:58:08.999Z</time></trkpt><trkpt lat="44.531767188714966" lon="9.943442769478859"><ele>462.0</ele><time>2026-05-02T09:58:09.999Z</time></trkpt><trkpt lat="44.53175742219878" lon="9.943252753380639"><ele>462.0</ele><time>2026-05-02T09:58:10.999Z</time></trkpt><trkpt lat="44.53175619903183" lon="9.943063262245994"><ele>461.20000000000005</ele><time>2026-05-02T09:58:11.999Z</time></trkpt><trkpt lat="44.53175796520746" lon="9.942906909949755"><ele>460.40000000000003</ele><time>2026-05-02T09:58:12.999Z</time></trkpt><trkpt lat="44.531765014766926" lon="9.942777158094126"><ele>459.59999999999997</ele><time>2026-05-02T09:58:13.999Z</time></trkpt><trkpt lat="44.53186478262506" lon="9.942699658840997"><ele>458.79999999999995</ele><time>2026-05-02T09:58:14.999Z</time></trkpt><trkpt lat="44.53198557287181" lon="9.942633358506635"><ele>458.0</ele><time>2026-05-02T09:58:15.999Z</time></trkpt><trkpt lat="44.5321269673016" lon="9.942551055593277"><ele>463.66666666666663</ele><time>2026-05-02T09:58:16.999Z</time></trkpt><trkpt lat="44.532290101599095" lon="9.942478223529564"><ele>469.33333333333337</ele><time>2026-05-02T09:58:17.999Z</time></trkpt><trkpt lat="44.532454434962155" lon="9.942368134785204"><ele>475.0</ele><time>2026-05-02T09:58:18.999Z</time></trkpt><trkpt lat="44.53259627598357" lon="9.942220511205157"><ele>475.0</ele><time>2026-05-02T09:58:19.999Z</time></trkpt><trkpt lat="44.532724881380545" lon="9.942063406660937"><ele>475.0</ele><time>2026-05-02T09:58:20.999Z</time></trkpt><trkpt lat="44.53284943740545" lon="9.941921732725168"><ele>475.0</ele><time>2026-05-02T09:58:21.999Z</time></trkpt><trkpt lat="44.5329593566059" lon="9.94181182456"><ele>475.5</ele><time>2026-05-02T09:58:22.999Z</time></trkpt><trkpt lat="44.53306020431623" lon="9.941713831162875"><ele>476.0</ele><time>2026-05-02T09:58:23.999Z</time></trkpt><trkpt lat="44.533131030896804" lon="9.941587137952373"><ele>476.5</ele><time>2026-05-02T09:58:24.999Z</time></trkpt><trkpt lat="44.533156465767526" lon="9.94141549044982"><ele>477.0</ele><time>2026-05-02T09:58:25.999Z</time></trkpt><trkpt lat="44.533134284721214" lon="9.941237056450985"><ele>477.0</ele><time>2026-05-02T09:58:26.999Z</time></trkpt><trkpt lat="44.53309717654392" lon="9.941083838775546"><ele>477.0</ele><time>2026-05-02T09:58:27.999Z</time></trkpt><trkpt lat="44.53312689447618" lon="9.940949155086606"><ele>477.0</ele><time>2026-05-02T09:58:28.999Z</time></trkpt><trkpt lat="44.53319549474675" lon="9.940825402613957"><ele>477.0</ele><time>2026-05-02T09:58:29.999Z</time></trkpt><trkpt lat="44.5332895411171" lon="9.940685292986"><ele>479.75</ele><time>2026-05-02T09:58:30.999Z</time></trkpt><trkpt lat="44.533383257245895" lon="9.940523076282215"><ele>482.5</ele><time>2026-05-02T09:58:31.999Z</time></trkpt><trkpt lat="44.533487819853114" lon="9.940406778402357"><ele>485.25</ele><time>2026-05-02T09:58:32.999Z</time></trkpt><trkpt lat="44.533584154814086" lon="9.940329378391924"><ele>488.0</ele><time>2026-05-02T09:58:33.999Z</time></trkpt><trkpt lat="44.53369829334476" lon="9.940300167672262"><ele>486.5</ele><time>2026-05-02T09:58:34.999Z</time></trkpt><trkpt lat="44.53382877921889" lon="9.940324545175011"><ele>485.0</ele><time>2026-05-02T09:58:35.999Z</time></trkpt><trkpt lat="44.53397158591458" lon="9.940371957378934"><ele>483.5</ele><time>2026-05-02T09:58:36.999Z</time></trkpt><trkpt lat="44.534099946130645" lon="9.940449941390733"><ele>482.0</ele><time>2026-05-02T09:58:37.999Z</time></trkpt><trkpt lat="44.53421375758324" lon="9.940475672893685"><ele>482.0</ele><time>2026-05-02T09:58:38.999Z</time></trkpt><trkpt lat="44.53430822389052" lon="9.940443675073961"><ele>482.0</ele><time>2026-05-02T09:58:39.999Z</time></trkpt><trkpt lat="44.534384650576285" lon="9.940338089273794"><ele>482.0</ele><time>2026-05-02T09:58:40.999Z</time></trkpt><trkpt lat="44.53442967880829" lon="9.940173739644226"><ele>482.0</ele><time>2026-05-02T09:58:41.999Z</time></trkpt><trkpt lat="44.53444322748558" lon="9.9399788553741"><ele>486.75</ele><time>2026-05-02T09:58:42.999Z</time></trkpt><trkpt lat="44.53442864063023" lon="9.939755634382374"><ele>491.5</ele><time>2026-05-02T09:58:43.999Z</time></trkpt><trkpt lat="44.534416921323" lon="9.939540731296304"><ele>496.25</ele><time>2026-05-02T09:58:44.999Z</time></trkpt><trkpt lat="44.53441880848723" lon="9.939369474034406"><ele>501.0</ele><time>2026-05-02T09:58:45.999Z</time></trkpt><trkpt lat="44.53445901160854" lon="9.939216319264077"><ele>502.0</ele><time>2026-05-02T09:58:46.999Z</time></trkpt><trkpt lat="44.534542593830636" lon="9.939085022658805"><ele>503.0</ele><time>2026-05-02T09:58:47.999Z</time></trkpt><trkpt lat="44.53465097394576" lon="9.938981284158224"><ele>504.0</ele><time>2026-05-02T09:58:48.999Z</time></trkpt><trkpt lat="44.53479268922213" lon="9.938919476138734"><ele>505.0</ele><time>2026-05-02T09:58:49.999Z</time></trkpt><trkpt lat="44.53494239668215" lon="9.938834071589861"><ele>505.0</ele><time>2026-05-02T09:58:50.999Z</time></trkpt><trkpt lat="44.53510801429742" lon="9.938770190629555"><ele>505.0</ele><time>2026-05-02T09:58:51.999Z</time></trkpt><trkpt lat="44.5352674448754" lon="9.938700279398192"><ele>505.0</ele><time>2026-05-02T09:58:52.999Z</time></trkpt><trkpt lat="44.53540525529173" lon="9.938637624089637"><ele>505.75</ele><time>2026-05-02T09:58:53.999Z</time></trkpt><trkpt lat="44.53553264429155" lon="9.93858586359808"><ele>506.5</ele><time>2026-05-02T09:58:54.999Z</time></trkpt><trkpt lat="44.53564827840627" lon="9.938572095169013"><ele>507.25</ele><time>2026-05-02T09:58:55.999Z</time></trkpt><trkpt lat="44.53576645490434" lon="9.938607669684094"><ele>508.0</ele><time>2026-05-02T09:58:56.999Z</time></trkpt><trkpt lat="44.535873842548504" lon="9.93874422790497"><ele>508.0</ele><time>2026-05-02T09:58:57.999Z</time></trkpt><trkpt lat="44.53600773846842" lon="9.938878863101761"><ele>508.0</ele><time>2026-05-02T09:58:58.999Z</time></trkpt><trkpt lat="44.53613323269574" lon="9.939032886421733"><ele>508.0</ele><time>2026-05-02T09:58:59.999Z</time></trkpt><trkpt lat="44.53624102267194" lon="9.939172956085361"><ele>509.5</ele><time>2026-05-02T09:59:00.999Z</time></trkpt><trkpt lat="44.53633160182389" lon="9.939274083408876"><ele>511.0</ele><time>2026-05-02T09:59:01.999Z</time></trkpt><trkpt lat="44.536432839495774" lon="9.93930251566231"><ele>512.5</ele><time>2026-05-02T09:59:02.999Z</time></trkpt><trkpt lat="44.536539684137715" lon="9.939258694343268"><ele>514.0</ele><time>2026-05-02T09:59:03.999Z</time></trkpt><trkpt lat="44.536638804181" lon="9.939143906288187"><ele>514.0</ele><time>2026-05-02T09:59:04.999Z</time></trkpt><trkpt lat="44.53671294761029" lon="9.938975033284958"><ele>514.0</ele><time>2026-05-02T09:59:05.999Z</time></trkpt><trkpt lat="44.536775719903915" lon="9.938777321983409"><ele>514.0</ele><time>2026-05-02T09:59:06.999Z</time></trkpt><trkpt lat="44.53685255496514" lon="9.938574976113918"><ele>514.0</ele><time>2026-05-02T09:59:07.999Z</time></trkpt><trkpt lat="44.53693402245517" lon="9.938388282633017"><ele>514.0</ele><time>2026-05-02T09:59:08.999Z</time></trkpt><trkpt lat="44.53698795308885" lon="9.938223930124297"><ele>514.0</ele><time>2026-05-02T09:59:09.999Z</time></trkpt><trkpt lat="44.53698420741305" lon="9.938061414957371"><ele>514.0</ele><time>2026-05-02T09:59:10.999Z</time></trkpt><trkpt lat="44.53693948717816" lon="9.937909516347588"><ele>517.6666666666667</ele><time>2026-05-02T09:59:11.999Z</time></trkpt><trkpt lat="44.53684944292628" lon="9.937763803999273"><ele>521.3333333333334</ele><time>2026-05-02T09:59:12.999Z</time></trkpt><trkpt lat="44.53673406007795" lon="9.9376070815389"><ele>525.0</ele><time>2026-05-02T09:59:13.999Z</time></trkpt><trkpt lat="44.536635090175146" lon="9.93740418498881"><ele>525.0</ele><time>2026-05-02T09:59:14.999Z</time></trkpt><trkpt lat="44.53651006529705" lon="9.93721335366281"><ele>525.0</ele><time>2026-05-02T09:59:15.999Z</time></trkpt><trkpt lat="44.53640679057452" lon="9.937016661032782"><ele>525.0</ele><time>2026-05-02T09:59:16.999Z</time></trkpt><trkpt lat="44.53630994400898" lon="9.936817808248193"><ele>518.3333333333334</ele><time>2026-05-02T09:59:17.999Z</time></trkpt><trkpt lat="44.53624022777287" lon="9.936600344731872"><ele>511.6666666666667</ele><time>2026-05-02T09:59:18.999Z</time></trkpt><trkpt lat="44.53619516918547" lon="9.936342750878477"><ele>505.0</ele><time>2026-05-02T09:59:19.999Z</time></trkpt><trkpt lat="44.53615107846247" lon="9.936074173941876"><ele>519.0</ele><time>2026-05-02T09:59:20.999Z</time></trkpt><trkpt lat="44.53610644397365" lon="9.935792789930217"><ele>533.0</ele><time>2026-05-02T09:59:21.999Z</time></trkpt><trkpt lat="44.536058411861895" lon="9.935515390595828"><ele>547.0</ele><time>2026-05-02T09:59:22.999Z</time></trkpt><trkpt lat="44.536016279780185" lon="9.935242120978835"><ele>546.0</ele><time>2026-05-02T09:59:23.999Z</time></trkpt><trkpt lat="44.535976771509674" lon="9.935019242547558"><ele>545.0</ele><time>2026-05-02T09:59:24.999Z</time></trkpt><trkpt lat="44.53594463632658" lon="9.934848786763746"><ele>544.0</ele><time>2026-05-02T09:59:25.999Z</time></trkpt><trkpt lat="44.53594003710281" lon="9.934695980836684"><ele>543.0</ele><time>2026-05-02T09:59:26.999Z</time></trkpt><trkpt lat="44.53598321816248" lon="9.934570069685797"><ele>543.0</ele><time>2026-05-02T09:59:27.999Z</time></trkpt><trkpt lat="44.53605493446817" lon="9.934474058710066"><ele>543.0</ele><time>2026-05-02T09:59:28.999Z</time></trkpt><trkpt lat="44.536161357135256" lon="9.934387242279362"><ele>543.0</ele><time>2026-05-02T09:59:29.999Z</time></trkpt><trkpt lat="44.536292021433276" lon="9.934277193198893"><ele>543.0</ele><time>2026-05-02T09:59:30.999Z</time></trkpt><trkpt lat="44.53641586075089" lon="9.934137854036948"><ele>533.6666666666666</ele><time>2026-05-02T09:59:31.999Z</time></trkpt><trkpt lat="44.53651440181659" lon="9.933981940854741"><ele>524.3333333333333</ele><time>2026-05-02T09:59:32.999Z</time></trkpt><trkpt lat="44.53658266702505" lon="9.933799005298027"><ele>515.0</ele><time>2026-05-02T09:59:33.999Z</time></trkpt><trkpt lat="44.536621157823376" lon="9.93358752357646"><ele>517.0</ele><time>2026-05-02T09:59:34.999Z</time></trkpt><trkpt lat="44.536622150597054" lon="9.933362143872992"><ele>519.0</ele><time>2026-05-02T09:59:35.999Z</time></trkpt><trkpt lat="44.5366034554972" lon="9.933152965471942"><ele>521.0</ele><time>2026-05-02T09:59:36.999Z</time></trkpt><trkpt lat="44.53658960025833" lon="9.932961271902972"><ele>523.0</ele><time>2026-05-02T09:59:37.999Z</time></trkpt><trkpt lat="44.53657193957427" lon="9.93262749458693"><ele>524.3333333333334</ele><time>2026-05-02T09:59:38.999Z</time></trkpt><trkpt lat="44.536547073896884" lon="9.932402196743768"><ele>525.6666666666666</ele><time>2026-05-02T09:59:39.999Z</time></trkpt><trkpt lat="44.53651729705317" lon="9.932180009060694"><ele>527.0</ele><time>2026-05-02T09:59:40.999Z</time></trkpt><trkpt lat="44.536483557844726" lon="9.93194832431407"><ele>527.0</ele><time>2026-05-02T09:59:41.998Z</time></trkpt><trkpt lat="44.536445524036615" lon="9.931713595051992"><ele>527.0</ele><time>2026-05-02T09:59:42.998Z</time></trkpt><trkpt lat="44.53641183671486" lon="9.931475342690595"><ele>527.0</ele><time>2026-05-02T09:59:43.998Z</time></trkpt><trkpt lat="44.53638509109677" lon="9.931253094103186"><ele>527.0</ele><time>2026-05-02T09:59:44.998Z</time></trkpt><trkpt lat="44.53636677437435" lon="9.931051847119962"><ele>527.0</ele><time>2026-05-02T09:59:45.998Z</time></trkpt><trkpt lat="44.53635319338701" lon="9.930871273870022"><ele>527.0</ele><time>2026-05-02T09:59:46.998Z</time></trkpt><trkpt lat="44.53637401499428" lon="9.93073246727986"><ele>527.0</ele><time>2026-05-02T09:59:47.998Z</time></trkpt><trkpt lat="44.536393734946344" lon="9.930620226264528"><ele>528.0</ele><time>2026-05-02T09:59:48.998Z</time></trkpt><trkpt lat="44.53644561367246" lon="9.930521302727602"><ele>529.0</ele><time>2026-05-02T09:59:49.998Z</time></trkpt><trkpt lat="44.53652335494003" lon="9.930431738978886"><ele>530.0</ele><time>2026-05-02T09:59:50.998Z</time></trkpt><trkpt lat="44.53663634526082" lon="9.930419458334184"><ele>531.0</ele><time>2026-05-02T09:59:51.999Z</time></trkpt><trkpt lat="44.53676912561184" lon="9.930457636495865"><ele>532.0</ele><time>2026-05-02T09:59:52.999Z</time></trkpt><trkpt lat="44.536919930139064" lon="9.930530573924221"><ele>533.0</ele><time>2026-05-02T09:59:53.999Z</time></trkpt><trkpt lat="44.5370917113628" lon="9.930620169058752"><ele>534.0</ele><time>2026-05-02T09:59:54.999Z</time></trkpt><trkpt lat="44.53727365100421" lon="9.930705538420991"><ele>535.0</ele><time>2026-05-02T09:59:55.999Z</time></trkpt><trkpt lat="44.53744362907557" lon="9.930801360794606"><ele>531.75</ele><time>2026-05-02T09:59:56.999Z</time></trkpt><trkpt lat="44.53759107496986" lon="9.93089362237173"><ele>528.5</ele><time>2026-05-02T09:59:57.999Z</time></trkpt><trkpt lat="44.5377269114239" lon="9.930961871172657"><ele>525.25</ele><time>2026-05-02T09:59:58.999Z</time></trkpt><trkpt lat="44.53786883443215" lon="9.93094603973935"><ele>522.0</ele><time>2026-05-02T09:59:59.999Z</time></trkpt><trkpt lat="44.53801667750278" lon="9.930935024408434"><ele>520.0</ele><time>2026-05-02T10:00:00.999Z</time></trkpt><trkpt lat="44.53818247522223" lon="9.930894304480713"><ele>518.0</ele><time>2026-05-02T10:00:01.999Z</time></trkpt><trkpt lat="44.538345896298324" lon="9.930843558289492"><ele>516.0</ele><time>2026-05-02T10:00:02.999Z</time></trkpt><trkpt lat="44.53848685221689" lon="9.930777795085472"><ele>516.25</ele><time>2026-05-02T10:00:03.999Z</time></trkpt><trkpt lat="44.53861243308993" lon="9.930684874162722"><ele>516.5</ele><time>2026-05-02T10:00:04.999Z</time></trkpt><trkpt lat="44.53871576684949" lon="9.93055417811818"><ele>516.75</ele><time>2026-05-02T10:00:05.999Z</time></trkpt><trkpt lat="44.53881136497578" lon="9.930399570543086"><ele>517.0</ele><time>2026-05-02T10:00:06.999Z</time></trkpt><trkpt lat="44.53889431168514" lon="9.930227372569197"><ele>520.0</ele><time>2026-05-02T10:00:07.999Z</time></trkpt><trkpt lat="44.53893952032262" lon="9.930040603579119"><ele>523.0</ele><time>2026-05-02T10:00:08.999Z</time></trkpt><trkpt lat="44.53894751965542" lon="9.92984654379671"><ele>526.0</ele><time>2026-05-02T10:00:09.999Z</time></trkpt><trkpt lat="44.53892360504967" lon="9.929639257301513"><ele>529.0</ele><time>2026-05-02T10:00:10.999Z</time></trkpt><trkpt lat="44.53891794936714" lon="9.929415911345078"><ele>530.75</ele><time>2026-05-02T10:00:11.999Z</time></trkpt><trkpt lat="44.53891268194352" lon="9.929195163229215"><ele>532.5</ele><time>2026-05-02T10:00:12.999Z</time></trkpt><trkpt lat="44.53890678620607" lon="9.929002760754884"><ele>534.25</ele><time>2026-05-02T10:00:13.999Z</time></trkpt><trkpt lat="44.53890683577466" lon="9.928838580810979"><ele>536.0</ele><time>2026-05-02T10:00:14.999Z</time></trkpt><trkpt lat="44.53892112133827" lon="9.928679647425655"><ele>536.0</ele><time>2026-05-02T10:00:15.999Z</time></trkpt><trkpt lat="44.538966975584934" lon="9.92851218987621"><ele>536.0</ele><time>2026-05-02T10:00:16.999Z</time></trkpt><trkpt lat="44.53904592892499" lon="9.92835182295868"><ele>536.0</ele><time>2026-05-02T10:00:17.999Z</time></trkpt><trkpt lat="44.53912670314401" lon="9.928208622896898"><ele>536.0</ele><time>2026-05-02T10:00:18.999Z</time></trkpt><trkpt lat="44.539178526116814" lon="9.92807403145839"><ele>536.4</ele><time>2026-05-02T10:00:19.999Z</time></trkpt><trkpt lat="44.539205302036216" lon="9.927957697882496"><ele>536.8</ele><time>2026-05-02T10:00:20.999Z</time></trkpt><trkpt lat="44.539267689800894" lon="9.927836075302041"><ele>537.1999999999999</ele><time>2026-05-02T10:00:22.999Z</time></trkpt><trkpt lat="44.53934784284977" lon="9.927829714534079"><ele>537.6</ele><time>2026-05-02T10:00:23.999Z</time></trkpt><trkpt lat="44.53944382070891" lon="9.927868277686894"><ele>538.0</ele><time>2026-05-02T10:00:24.999Z</time></trkpt><trkpt lat="44.539539307306214" lon="9.927943431095281"><ele>538.6666666666667</ele><time>2026-05-02T10:00:25.999Z</time></trkpt><trkpt lat="44.5396035351844" lon="9.92804724460692"><ele>539.3333333333334</ele><time>2026-05-02T10:00:26.999Z</time></trkpt><trkpt lat="44.53965258314231" lon="9.928145324307385"><ele>540.0</ele><time>2026-05-02T10:00:27.999Z</time></trkpt><trkpt lat="44.53969619019598" lon="9.928225208787687"><ele>540.6666666666666</ele><time>2026-05-02T10:00:28.999Z</time></trkpt><trkpt lat="44.53972492667618" lon="9.928306504136083"><ele>541.3333333333333</ele><time>2026-05-02T10:00:29.999Z</time></trkpt><trkpt lat="44.53977320458423" lon="9.928377603512969"><ele>542.0</ele><time>2026-05-02T10:00:30.999Z</time></trkpt><trkpt lat="44.539806895937346" lon="9.928481750183648"><ele>539.8000000000001</ele><time>2026-05-02T10:00:31.999Z</time></trkpt><trkpt lat="44.53985050674948" lon="9.928604309371789"><ele>537.6</ele><time>2026-05-02T10:00:32.999Z</time></trkpt><trkpt lat="44.53991409003786" lon="9.928711509864742"><ele>535.4000000000001</ele><time>2026-05-02T10:00:33.999Z</time></trkpt><trkpt lat="44.53998205522974" lon="9.928792440755362"><ele>533.2</ele><time>2026-05-02T10:00:34.999Z</time></trkpt><trkpt lat="44.540067084543196" lon="9.92882263127811"><ele>531.0</ele><time>2026-05-02T10:00:35.999Z</time></trkpt><trkpt lat="44.54016689838074" lon="9.928808380325888"><ele>531.0</ele><time>2026-05-02T10:00:36.999Z</time></trkpt><trkpt lat="44.54026685859797" lon="9.928736428911568"><ele>531.0</ele><time>2026-05-02T10:00:37.999Z</time></trkpt><trkpt lat="44.54035109172519" lon="9.928601571535092"><ele>531.0</ele><time>2026-05-02T10:00:38.999Z</time></trkpt><trkpt lat="44.54043025579211" lon="9.928478757920074"><ele>531.0</ele><time>2026-05-02T10:00:39.999Z</time></trkpt><trkpt lat="44.5405331491791" lon="9.928458878059166"><ele>527.75</ele><time>2026-05-02T10:00:40.999Z</time></trkpt><trkpt lat="44.540638458449955" lon="9.92848335381469"><ele>524.5</ele><time>2026-05-02T10:00:41.999Z</time></trkpt><trkpt lat="44.54076816641992" lon="9.928499922362406"><ele>521.25</ele><time>2026-05-02T10:00:42.999Z</time></trkpt><trkpt lat="44.54090290639224" lon="9.928509400874884"><ele>518.0</ele><time>2026-05-02T10:00:43.999Z</time></trkpt><trkpt lat="44.541031105966425" lon="9.928531244936524"><ele>518.0</ele><time>2026-05-02T10:00:44.999Z</time></trkpt><trkpt lat="44.541160092716474" lon="9.92852350099486"><ele>518.0</ele><time>2026-05-02T10:00:45.999Z</time></trkpt><trkpt lat="44.541285873012455" lon="9.92848069981298"><ele>518.0</ele><time>2026-05-02T10:00:46.999Z</time></trkpt><trkpt lat="44.54139410563819" lon="9.928390177088659"><ele>518.0</ele><time>2026-05-02T10:00:47.999Z</time></trkpt><trkpt lat="44.54150000505013" lon="9.92826709771679"><ele>519.5</ele><time>2026-05-02T10:00:48.999Z</time></trkpt><trkpt lat="44.541596257660835" lon="9.92811751662033"><ele>521.0</ele><time>2026-05-02T10:00:49.999Z</time></trkpt><trkpt lat="44.541673388047606" lon="9.927955525890988"><ele>522.5</ele><time>2026-05-02T10:00:50.999Z</time></trkpt><trkpt lat="44.54172740366168" lon="9.927777516306495"><ele>524.0</ele><time>2026-05-02T10:00:51.999Z</time></trkpt><trkpt lat="44.541764501225884" lon="9.927584462076203"><ele>525.3333333333333</ele><time>2026-05-02T10:00:52.999Z</time></trkpt><trkpt lat="44.54178128383602" lon="9.92737540454755"><ele>526.6666666666666</ele><time>2026-05-02T10:00:53.999Z</time></trkpt><trkpt lat="44.54177651349288" lon="9.927160610085528"><ele>528.0</ele><time>2026-05-02T10:00:54.999Z</time></trkpt><trkpt lat="44.541777781906646" lon="9.926934458617415"><ele>528.0</ele><time>2026-05-02T10:00:55.999Z</time></trkpt><trkpt lat="44.541816063715636" lon="9.926714688835812"><ele>528.0</ele><time>2026-05-02T10:00:56.999Z</time></trkpt><trkpt lat="44.54185022266928" lon="9.926501639840122"><ele>528.0</ele><time>2026-05-02T10:00:57.999Z</time></trkpt><trkpt lat="44.5418942462433" lon="9.926324139546258"><ele>528.0</ele><time>2026-05-02T10:00:58.999Z</time></trkpt><trkpt lat="44.54194228759438" lon="9.926185949491007"><ele>528.0</ele><time>2026-05-02T10:00:59.999Z</time></trkpt><trkpt lat="44.542007505357155" lon="9.926062337535575"><ele>528.0</ele><time>2026-05-02T10:01:00.999Z</time></trkpt><trkpt lat="44.542134256183445" lon="9.926035282027108"><ele>528.0</ele><time>2026-05-02T10:01:01.999Z</time></trkpt><trkpt lat="44.54226449418856" lon="9.925954942958354"><ele>524.25</ele><time>2026-05-02T10:01:02.999Z</time></trkpt><trkpt lat="44.54240914995821" lon="9.925913385399282"><ele>520.5</ele><time>2026-05-02T10:01:03.999Z</time></trkpt><trkpt lat="44.542532791981515" lon="9.925816191770679"><ele>516.75</ele><time>2026-05-02T10:01:04.999Z</time></trkpt><trkpt lat="44.542632129532294" lon="9.925659472880493"><ele>513.0</ele><time>2026-05-02T10:01:05.999Z</time></trkpt><trkpt lat="44.54272235487279" lon="9.925466269603465"><ele>513.0</ele><time>2026-05-02T10:01:06.999Z</time></trkpt><trkpt lat="44.54282106037877" lon="9.925262604998107"><ele>513.0</ele><time>2026-05-02T10:01:07.999Z</time></trkpt><trkpt lat="44.542921617823055" lon="9.925072616663007"><ele>513.0</ele><time>2026-05-02T10:01:08.999Z</time></trkpt><trkpt lat="44.54301995164735" lon="9.924882641397462"><ele>511.75</ele><time>2026-05-02T10:01:09.999Z</time></trkpt><trkpt lat="44.5431091269773" lon="9.924706730198013"><ele>510.5</ele><time>2026-05-02T10:01:10.999Z</time></trkpt><trkpt lat="44.54317550741242" lon="9.924536609022848"><ele>509.25</ele><time>2026-05-02T10:01:11.999Z</time></trkpt><trkpt lat="44.54321328029337" lon="9.924337510913524"><ele>508.0</ele><time>2026-05-02T10:01:12.999Z</time></trkpt><trkpt lat="44.543230276023124" lon="9.924109793192812"><ele>508.0</ele><time>2026-05-02T10:01:13.999Z</time></trkpt><trkpt lat="44.54324919635647" lon="9.92387278003545"><ele>508.0</ele><time>2026-05-02T10:01:14.999Z</time></trkpt><trkpt lat="44.54330008653227" lon="9.923666642678802"><ele>508.0</ele><time>2026-05-02T10:01:15.999Z</time></trkpt><trkpt lat="44.5433789521932" lon="9.923496393030828"><ele>509.25</ele><time>2026-05-02T10:01:16.999Z</time></trkpt><trkpt lat="44.54341831173525" lon="9.923341874701768"><ele>510.5</ele><time>2026-05-02T10:01:17.999Z</time></trkpt><trkpt lat="44.543458658" lon="9.92320940152666"><ele>511.75</ele><time>2026-05-02T10:01:18.999Z</time></trkpt><trkpt lat="44.54344354924248" lon="9.923041272042715"><ele>513.0</ele><time>2026-05-02T10:01:19.999Z</time></trkpt><trkpt lat="44.543390579064564" lon="9.922876771033403"><ele>513.0</ele><time>2026-05-02T10:01:20.999Z</time></trkpt><trkpt lat="44.543295408079416" lon="9.92273846819611"><ele>513.0</ele><time>2026-05-02T10:01:21.999Z</time></trkpt><trkpt lat="44.54319772629806" lon="9.922635633414842"><ele>513.0</ele><time>2026-05-02T10:01:22.999Z</time></trkpt><trkpt lat="44.54314806148271" lon="9.922539781753079"><ele>513.0</ele><time>2026-05-02T10:01:23.999Z</time></trkpt><trkpt lat="44.54308933003783" lon="9.92246191354764"><ele>513.0</ele><time>2026-05-02T10:01:25.999Z</time></trkpt><trkpt lat="44.54320117422241" lon="9.92236354183857"><ele>513.0</ele><time>2026-05-02T10:01:28.999Z</time></trkpt><trkpt lat="44.54328002935797" lon="9.922369211190947"><ele>513.0</ele><time>2026-05-02T10:01:29.999Z</time></trkpt><trkpt lat="44.54334482649577" lon="9.922412477775081"><ele>513.0</ele><time>2026-05-02T10:01:30.999Z</time></trkpt><trkpt lat="44.54338012650481" lon="9.922498514439338"><ele>513.0</ele><time>2026-05-02T10:01:31.999Z</time></trkpt><trkpt lat="44.54342808494771" lon="9.922566773986695"><ele>513.0</ele><time>2026-05-02T10:01:32.999Z</time></trkpt><trkpt lat="44.54349289341365" lon="9.922635241161785"><ele>513.0</ele><time>2026-05-02T10:01:33.999Z</time></trkpt><trkpt lat="44.543537581869735" lon="9.92275092883983"><ele>513.0</ele><time>2026-05-02T10:01:34.999Z</time></trkpt><trkpt lat="44.543586160247926" lon="9.92285400873225"><ele>513.0</ele><time>2026-05-02T10:01:35.999Z</time></trkpt><trkpt lat="44.54361969403947" lon="9.92297223750847"><ele>513.0</ele><time>2026-05-02T10:01:36.999Z</time></trkpt><trkpt lat="44.543644368804365" lon="9.92309653382925"><ele>513.0</ele><time>2026-05-02T10:01:37.999Z</time></trkpt><trkpt lat="44.54364981012143" lon="9.92322332261081"><ele>513.0</ele><time>2026-05-02T10:01:38.999Z</time></trkpt><trkpt lat="44.54363330695858" lon="9.923330867351275"><ele>513.0</ele><time>2026-05-02T10:01:39.999Z</time></trkpt><trkpt lat="44.54359007505107" lon="9.923439786536637"><ele>512.0</ele><time>2026-05-02T10:01:40.999Z</time></trkpt><trkpt lat="44.543525638498515" lon="9.92354894965169"><ele>510.99999999999994</ele><time>2026-05-02T10:01:41.999Z</time></trkpt><trkpt lat="44.54348968473074" lon="9.923660123277758"><ele>509.99999999999994</ele><time>2026-05-02T10:01:42.999Z</time></trkpt><trkpt lat="44.54346605474299" lon="9.923780249147995"><ele>509.0</ele><time>2026-05-02T10:01:43.999Z</time></trkpt><trkpt lat="44.54347207086347" lon="9.92391384009657"><ele>508.0</ele><time>2026-05-02T10:01:44.999Z</time></trkpt><trkpt lat="44.54349617261426" lon="9.92405718125184"><ele>508.00000000000006</ele><time>2026-05-02T10:01:45.999Z</time></trkpt><trkpt lat="44.543494526691084" lon="9.924198378563604"><ele>508.0</ele><time>2026-05-02T10:01:46.999Z</time></trkpt><trkpt lat="44.54351975237707" lon="9.924311761765466"><ele>508.0</ele><time>2026-05-02T10:01:48Z</time></trkpt><trkpt lat="44.54354609177004" lon="9.924466125463095"><ele>508.0</ele><time>2026-05-02T10:01:50Z</time></trkpt><trkpt lat="44.543586316974576" lon="9.924534164399452"><ele>508.00000000000006</ele><time>2026-05-02T10:01:51Z</time></trkpt><trkpt lat="44.543654417220054" lon="9.924579779943736"><ele>508.0</ele><time>2026-05-02T10:01:52Z</time></trkpt><trkpt lat="44.543738780562975" lon="9.924586222487218"><ele>500.0</ele><time>2026-05-02T10:01:53Z</time></trkpt><trkpt lat="44.54382091035468" lon="9.92454535834167"><ele>491.99999999999994</ele><time>2026-05-02T10:01:54Z</time></trkpt><trkpt lat="44.54389878495204" lon="9.924470773370095"><ele>483.99999999999994</ele><time>2026-05-02T10:01:55Z</time></trkpt><trkpt lat="44.54396823514353" lon="9.924375278221644"><ele>476.0</ele><time>2026-05-02T10:01:56Z</time></trkpt><trkpt lat="44.54405668190747" lon="9.924302949774049"><ele>468.0</ele><time>2026-05-02T10:01:57Z</time></trkpt><trkpt lat="44.54415083807324" lon="9.924240751167673"><ele>470.5</ele><time>2026-05-02T10:01:58Z</time></trkpt><trkpt lat="44.54423587378814" lon="9.924188984792343"><ele>473.0</ele><time>2026-05-02T10:01:59Z</time></trkpt><trkpt lat="44.544297710419684" lon="9.924136117071546"><ele>475.5</ele><time>2026-05-02T10:02:00Z</time></trkpt><trkpt lat="44.544357669010786" lon="9.924086832247633"><ele>478.0</ele><time>2026-05-02T10:02:01Z</time></trkpt><trkpt lat="44.54440252592564" lon="9.92400866862706"><ele>480.5</ele><time>2026-05-02T10:02:02Z</time></trkpt><trkpt lat="44.54443391857885" lon="9.923890932337331"><ele>483.0</ele><time>2026-05-02T10:02:03Z</time></trkpt><trkpt lat="44.54444409815616" lon="9.923753539088343"><ele>483.0</ele><time>2026-05-02T10:02:04Z</time></trkpt><trkpt lat="44.54442605364363" lon="9.923607572592541"><ele>482.99999999999994</ele><time>2026-05-02T10:02:05Z</time></trkpt><trkpt lat="44.54439958499682" lon="9.923485766668508"><ele>482.99999999999994</ele><time>2026-05-02T10:02:06Z</time></trkpt><trkpt lat="44.54438010879753" lon="9.923372858970207"><ele>483.0</ele><time>2026-05-02T10:02:07Z</time></trkpt><trkpt lat="44.5444091258417" lon="9.9232164917231"><ele>483.0</ele><time>2026-05-02T10:02:09Z</time></trkpt><trkpt lat="44.54447022874497" lon="9.923171693104067"><ele>483.1666666666667</ele><time>2026-05-02T10:02:10Z</time></trkpt><trkpt lat="44.54453753689637" lon="9.923177727346287"><ele>483.33333333333337</ele><time>2026-05-02T10:02:11Z</time></trkpt><trkpt lat="44.544591451618714" lon="9.923234892815646"><ele>483.5</ele><time>2026-05-02T10:02:12Z</time></trkpt><trkpt lat="44.54463369883575" lon="9.92332480284621"><ele>483.6666666666667</ele><time>2026-05-02T10:02:13Z</time></trkpt><trkpt lat="44.54466451237771" lon="9.923451941062513"><ele>483.83333333333337</ele><time>2026-05-02T10:02:14Z</time></trkpt><trkpt lat="44.54468392982773" lon="9.923606840190516"><ele>484.0</ele><time>2026-05-02T10:02:15Z</time></trkpt><trkpt lat="44.54471050928614" lon="9.923761548998478"><ele>480.33333333333337</ele><time>2026-05-02T10:02:16Z</time></trkpt><trkpt lat="44.544732702894265" lon="9.923906402580666"><ele>476.6666666666667</ele><time>2026-05-02T10:02:17Z</time></trkpt><trkpt lat="44.544771542487524" lon="9.924024381727222"><ele>473.0</ele><time>2026-05-02T10:02:18Z</time></trkpt><trkpt lat="44.54482963655558" lon="9.924126273236071"><ele>469.33333333333337</ele><time>2026-05-02T10:02:19Z</time></trkpt><trkpt lat="44.544877707268014" lon="9.924212237342012"><ele>465.6666666666667</ele><time>2026-05-02T10:02:20Z</time></trkpt><trkpt lat="44.54488075057709" lon="9.924315513806599"><ele>462.0</ele><time>2026-05-02T10:02:21Z</time></trkpt><trkpt lat="44.54485949516059" lon="9.92442148227719"><ele>463.5</ele><time>2026-05-02T10:02:22Z</time></trkpt><trkpt lat="44.54480710320578" lon="9.924525721153172"><ele>465.0</ele><time>2026-05-02T10:02:23Z</time></trkpt><trkpt lat="44.54470974084389" lon="9.92460201741716"><ele>466.5</ele><time>2026-05-02T10:02:24Z</time></trkpt><trkpt lat="44.54461278722732" lon="9.924732840240413"><ele>468.0</ele><time>2026-05-02T10:02:25Z</time></trkpt><trkpt lat="44.54453361213943" lon="9.92488609969354"><ele>468.0</ele><time>2026-05-02T10:02:26Z</time></trkpt><trkpt lat="44.544423329360846" lon="9.925025843552714"><ele>468.0</ele><time>2026-05-02T10:02:27Z</time></trkpt><trkpt lat="44.544334114589645" lon="9.925168787243543"><ele>468.0</ele><time>2026-05-02T10:02:28Z</time></trkpt><trkpt lat="44.54424988262813" lon="9.925314794665542"><ele>468.0</ele><time>2026-05-02T10:02:29Z</time></trkpt><trkpt lat="44.54417253611156" lon="9.925493383267767"><ele>464.5</ele><time>2026-05-02T10:02:30Z</time></trkpt><trkpt lat="44.54408470023557" lon="9.925644234386805"><ele>461.0</ele><time>2026-05-02T10:02:31Z</time></trkpt><trkpt lat="44.54400234695779" lon="9.925791080085453"><ele>457.5</ele><time>2026-05-02T10:02:32Z</time></trkpt><trkpt lat="44.543931675859156" lon="9.925913502875758"><ele>454.0</ele><time>2026-05-02T10:02:33Z</time></trkpt><trkpt lat="44.5438897839295" lon="9.926014603028383"><ele>452.0</ele><time>2026-05-02T10:02:34Z</time></trkpt><trkpt lat="44.543864544215964" lon="9.92611277242267"><ele>450.0</ele><time>2026-05-02T10:02:35Z</time></trkpt><trkpt lat="44.54384780902708" lon="9.926217517806192"><ele>448.0</ele><time>2026-05-02T10:02:36Z</time></trkpt><trkpt lat="44.54384249081161" lon="9.926339366986854"><ele>446.0</ele><time>2026-05-02T10:02:37Z</time></trkpt><trkpt lat="44.54384375279155" lon="9.926480079357788"><ele>444.0</ele><time>2026-05-02T10:02:38Z</time></trkpt><trkpt lat="44.54384400025142" lon="9.926638542672807"><ele>443.25</ele><time>2026-05-02T10:02:39Z</time></trkpt><trkpt lat="44.54383992308221" lon="9.926819820285301"><ele>442.5</ele><time>2026-05-02T10:02:40Z</time></trkpt><trkpt lat="44.543832275354745" lon="9.92701303415382"><ele>441.75</ele><time>2026-05-02T10:02:41Z</time></trkpt><trkpt lat="44.543827437446076" lon="9.927226903352047"><ele>441.0</ele><time>2026-05-02T10:02:42Z</time></trkpt><trkpt lat="44.54380440098308" lon="9.92744958233594"><ele>439.66666666666663</ele><time>2026-05-02T10:02:43Z</time></trkpt><trkpt lat="44.54378803175942" lon="9.927663751416018"><ele>438.3333333333333</ele><time>2026-05-02T10:02:44Z</time></trkpt><trkpt lat="44.543772935212154" lon="9.92787903036581"><ele>437.0</ele><time>2026-05-02T10:02:45Z</time></trkpt><trkpt lat="44.543768664709845" lon="9.92808663275938"><ele>437.0</ele><time>2026-05-02T10:02:46Z</time></trkpt><trkpt lat="44.54375720072691" lon="9.928264983186265"><ele>437.00000000000006</ele><time>2026-05-02T10:02:47Z</time></trkpt><trkpt lat="44.54374621790957" lon="9.928404698204575"><ele>437.00000000000006</ele><time>2026-05-02T10:02:48Z</time></trkpt><trkpt lat="44.54374609796087" lon="9.928518849206418"><ele>437.0</ele><time>2026-05-02T10:02:49Z</time></trkpt><trkpt lat="44.543767431938704" lon="9.92862562869003"><ele>437.0</ele><time>2026-05-02T10:02:50Z</time></trkpt><trkpt lat="44.543816048919" lon="9.928720833732008"><ele>435.0</ele><time>2026-05-02T10:02:51Z</time></trkpt><trkpt lat="44.5438831351273" lon="9.928832371809186"><ele>433.0</ele><time>2026-05-02T10:02:52Z</time></trkpt><trkpt lat="44.543958431134094" lon="9.928955714276809"><ele>431.0</ele><time>2026-05-02T10:02:53Z</time></trkpt><trkpt lat="44.544068042909494" lon="9.929097706160183"><ele>429.0</ele><time>2026-05-02T10:02:54Z</time></trkpt><trkpt lat="44.544151725841076" lon="9.92922370572993"><ele>426.79999999999995</ele><time>2026-05-02T10:02:55Z</time></trkpt><trkpt lat="44.544229250783566" lon="9.929309593797795"><ele>424.59999999999997</ele><time>2026-05-02T10:02:56Z</time></trkpt><trkpt lat="44.544299632078875" lon="9.929375823249735"><ele>422.4</ele><time>2026-05-02T10:02:57Z</time></trkpt><trkpt lat="44.54437698447717" lon="9.929371919964977"><ele>420.2</ele><time>2026-05-02T10:02:58Z</time></trkpt><trkpt lat="44.54449848081511" lon="9.929403157167632"><ele>418.0</ele><time>2026-05-02T10:02:59Z</time></trkpt><trkpt lat="44.54462309742796" lon="9.929384244504456"><ele>414.75</ele><time>2026-05-02T10:03:00Z</time></trkpt><trkpt lat="44.5447624232572" lon="9.929359537727244"><ele>411.5</ele><time>2026-05-02T10:03:01Z</time></trkpt><trkpt lat="44.54489236677066" lon="9.929334711979616"><ele>408.25</ele><time>2026-05-02T10:03:02Z</time></trkpt><trkpt lat="44.544995031898885" lon="9.92930730925"><ele>405.0</ele><time>2026-05-02T10:03:03Z</time></trkpt><trkpt lat="44.54507769956955" lon="9.929269785519104"><ele>408.2</ele><time>2026-05-02T10:03:04Z</time></trkpt><trkpt lat="44.54515333162706" lon="9.929217030586026"><ele>411.4</ele><time>2026-05-02T10:03:05Z</time></trkpt><trkpt lat="44.54523413228359" lon="9.929160085491679"><ele>414.6</ele><time>2026-05-02T10:03:06Z</time></trkpt><trkpt lat="44.54530211246712" lon="9.92906387227097"><ele>417.8</ele><time>2026-05-02T10:03:07Z</time></trkpt><trkpt lat="44.54535182066868" lon="9.928939971130129"><ele>421.0</ele><time>2026-05-02T10:03:08Z</time></trkpt><trkpt lat="44.545366900418436" lon="9.928780103372695"><ele>418.6</ele><time>2026-05-02T10:03:09Z</time></trkpt><trkpt lat="44.54538870118047" lon="9.928610779411475"><ele>416.20000000000005</ele><time>2026-05-02T10:03:10Z</time></trkpt><trkpt lat="44.54542508641165" lon="9.928456698594998"><ele>413.79999999999995</ele><time>2026-05-02T10:03:11Z</time></trkpt><trkpt lat="44.545454176142144" lon="9.92834829181597"><ele>411.4</ele><time>2026-05-02T10:03:12Z</time></trkpt><trkpt lat="44.5454861301097" lon="9.928257977165519"><ele>409.0</ele><time>2026-05-02T10:03:13Z</time></trkpt><trkpt lat="44.54553174286725" lon="9.928177091245855"><ele>409.0</ele><time>2026-05-02T10:03:14Z</time></trkpt><trkpt lat="44.54560908112918" lon="9.92811010375252"><ele>409.0</ele><time>2026-05-02T10:03:15Z</time></trkpt><trkpt lat="44.54571958187608" lon="9.92803541574675"><ele>409.0</ele><time>2026-05-02T10:03:16Z</time></trkpt><trkpt lat="44.54584963174885" lon="9.927980014961948"><ele>409.0</ele><time>2026-05-02T10:03:17Z</time></trkpt><trkpt lat="44.54599395454508" lon="9.927926983966762"><ele>409.0</ele><time>2026-05-02T10:03:18Z</time></trkpt><trkpt lat="44.54614195958131" lon="9.927856565531322"><ele>409.0</ele><time>2026-05-02T10:03:19Z</time></trkpt><trkpt lat="44.54629555884552" lon="9.92779442834333"><ele>409.0</ele><time>2026-05-02T10:03:20Z</time></trkpt><trkpt lat="44.54645477071989" lon="9.927743716730653"><ele>406.0</ele><time>2026-05-02T10:03:21Z</time></trkpt><trkpt lat="44.54661314728012" lon="9.927691821654165"><ele>403.0</ele><time>2026-05-02T10:03:22Z</time></trkpt><trkpt lat="44.54675846004745" lon="9.927649704721178"><ele>400.0</ele><time>2026-05-02T10:03:23Z</time></trkpt><trkpt lat="44.54688885895483" lon="9.927621066195709"><ele>397.0</ele><time>2026-05-02T10:03:24Z</time></trkpt><trkpt lat="44.5470019740457" lon="9.927600093348788"><ele>395.40000000000003</ele><time>2026-05-02T10:03:25Z</time></trkpt><trkpt lat="44.54709768632517" lon="9.927568778719353"><ele>393.8</ele><time>2026-05-02T10:03:26Z</time></trkpt><trkpt lat="44.5471870890942" lon="9.927550304238524"><ele>392.2</ele><time>2026-05-02T10:03:27Z</time></trkpt><trkpt lat="44.54727840262365" lon="9.927538684335453"><ele>390.6</ele><time>2026-05-02T10:03:28Z</time></trkpt><trkpt lat="44.54739971500236" lon="9.92754673615435"><ele>389.0</ele><time>2026-05-02T10:03:29Z</time></trkpt><trkpt lat="44.54754666973298" lon="9.927544234822545"><ele>389.0</ele><time>2026-05-02T10:03:30Z</time></trkpt><trkpt lat="44.54768374908416" lon="9.92755539475304"><ele>389.0</ele><time>2026-05-02T10:03:31Z</time></trkpt><trkpt lat="44.54778667156888" lon="9.927570673133701"><ele>389.0</ele><time>2026-05-02T10:03:32Z</time></trkpt><trkpt lat="44.54786700577673" lon="9.927609041716734"><ele>389.0</ele><time>2026-05-02T10:03:33Z</time></trkpt><trkpt lat="44.54793658915033" lon="9.927632112399984"><ele>389.0</ele><time>2026-05-02T10:03:34Z</time></trkpt><trkpt lat="44.548019326234936" lon="9.927664157137583"><ele>388.0</ele><time>2026-05-02T10:03:35Z</time></trkpt><trkpt lat="44.548082671169084" lon="9.927765117413644"><ele>387.0</ele><time>2026-05-02T10:03:36Z</time></trkpt><trkpt lat="44.54809924502648" lon="9.927896584321275"><ele>386.0</ele><time>2026-05-02T10:03:37Z</time></trkpt><trkpt lat="44.54811542102143" lon="9.928035077964884"><ele>385.0</ele><time>2026-05-02T10:03:38Z</time></trkpt><trkpt lat="44.54808404225152" lon="9.928196401925254"><ele>384.0</ele><time>2026-05-02T10:03:39Z</time></trkpt><trkpt lat="44.54806059401045" lon="9.928337223686217"><ele>383.2</ele><time>2026-05-02T10:03:40Z</time></trkpt><trkpt lat="44.548083097838656" lon="9.928498040085824"><ele>382.4</ele><time>2026-05-02T10:03:41Z</time></trkpt><trkpt lat="44.548135881139736" lon="9.928608376908949"><ele>381.6</ele><time>2026-05-02T10:03:42Z</time></trkpt><trkpt lat="44.548203809217775" lon="9.928751836548573"><ele>380.8</ele><time>2026-05-02T10:03:43Z</time></trkpt><trkpt lat="44.5482373754284" lon="9.928899791431355"><ele>380.0</ele><time>2026-05-02T10:03:44Z</time></trkpt><trkpt lat="44.54822495527262" lon="9.929063159905702"><ele>378.0</ele><time>2026-05-02T10:03:45Z</time></trkpt><trkpt lat="44.548204126791845" lon="9.929226021098012"><ele>376.0</ele><time>2026-05-02T10:03:46Z</time></trkpt><trkpt lat="44.54816012291529" lon="9.92939460683286"><ele>374.0</ele><time>2026-05-02T10:03:47Z</time></trkpt><trkpt lat="44.548094786718366" lon="9.929556295176148"><ele>372.0</ele><time>2026-05-02T10:03:48Z</time></trkpt><trkpt lat="44.54800514609277" lon="9.929695152328495"><ele>372.0</ele><time>2026-05-02T10:03:49Z</time></trkpt><trkpt lat="44.547895428646285" lon="9.929841447902032"><ele>372.0</ele><time>2026-05-02T10:03:50Z</time></trkpt><trkpt lat="44.5477746380286" lon="9.930000241863105"><ele>372.0</ele><time>2026-05-02T10:03:51Z</time></trkpt><trkpt lat="44.54767084394368" lon="9.930168660315394"><ele>369.5</ele><time>2026-05-02T10:03:52Z</time></trkpt><trkpt lat="44.54756820611497" lon="9.930306078983854"><ele>367.0</ele><time>2026-05-02T10:03:53Z</time></trkpt><trkpt lat="44.54747959279475" lon="9.930409875172543"><ele>364.5</ele><time>2026-05-02T10:03:54.001Z</time></trkpt><trkpt lat="44.54738769961353" lon="9.930495122198998"><ele>362.0</ele><time>2026-05-02T10:03:55.001Z</time></trkpt><trkpt lat="44.547274035224696" lon="9.930546818207677"><ele>362.0</ele><time>2026-05-02T10:03:56.001Z</time></trkpt><trkpt lat="44.547158880786" lon="9.930636391416801"><ele>362.0</ele><time>2026-05-02T10:03:57.001Z</time></trkpt><trkpt lat="44.5470275293022" lon="9.930714295112496"><ele>362.0</ele><time>2026-05-02T10:03:58.001Z</time></trkpt><trkpt lat="44.54690008585253" lon="9.93079498748161"><ele>362.0</ele><time>2026-05-02T10:03:59.001Z</time></trkpt><trkpt lat="44.54679622729286" lon="9.930880915888004"><ele>360.0</ele><time>2026-05-02T10:04:00.001Z</time></trkpt><trkpt lat="44.54671729489513" lon="9.930992589451847"><ele>358.0</ele><time>2026-05-02T10:04:01.001Z</time></trkpt><trkpt lat="44.546663009260605" lon="9.931141016060735"><ele>356.0</ele><time>2026-05-02T10:04:02.001Z</time></trkpt><trkpt lat="44.546624976692335" lon="9.931278608207062"><ele>354.0</ele><time>2026-05-02T10:04:03.001Z</time></trkpt><trkpt lat="44.54659630686027" lon="9.931386779409284"><ele>352.0</ele><time>2026-05-02T10:04:04.001Z</time></trkpt><trkpt lat="44.546570233597585" lon="9.931479808546559"><ele>352.0</ele><time>2026-05-02T10:04:05.001Z</time></trkpt><trkpt lat="44.54656778827842" lon="9.931568951449774"><ele>352.0</ele><time>2026-05-02T10:04:06.001Z</time></trkpt><trkpt lat="44.54660138899952" lon="9.931645506054975"><ele>352.0</ele><time>2026-05-02T10:04:07.001Z</time></trkpt><trkpt lat="44.54666419029493" lon="9.931694956676232"><ele>352.0</ele><time>2026-05-02T10:04:08.001Z</time></trkpt><trkpt lat="44.54673902693763" lon="9.931706456340063"><ele>352.0</ele><time>2026-05-02T10:04:09.001Z</time></trkpt><trkpt lat="44.54682358354687" lon="9.931682335042813"><ele>352.0</ele><time>2026-05-02T10:04:10.001Z</time></trkpt><trkpt lat="44.54691847508037" lon="9.931641789621695"><ele>352.0</ele><time>2026-05-02T10:04:11.001Z</time></trkpt><trkpt lat="44.54700582586012" lon="9.93164917867183"><ele>352.0</ele><time>2026-05-02T10:04:12.001Z</time></trkpt><trkpt lat="44.54707836184406" lon="9.931666640468928"><ele>352.0</ele><time>2026-05-02T10:04:13.001Z</time></trkpt><trkpt lat="44.54711321769191" lon="9.931784150885006"><ele>352.0</ele><time>2026-05-02T10:04:14.001Z</time></trkpt><trkpt lat="44.54713330814271" lon="9.931910246527856"><ele>352.0</ele><time>2026-05-02T10:04:15.001Z</time></trkpt><trkpt lat="44.547159595909775" lon="9.932065105009098"><ele>349.5</ele><time>2026-05-02T10:04:16.001Z</time></trkpt><trkpt lat="44.54719797642949" lon="9.932230814102084"><ele>347.0</ele><time>2026-05-02T10:04:17.001Z</time></trkpt><trkpt lat="44.547225677735945" lon="9.932411197451431"><ele>344.5</ele><time>2026-05-02T10:04:18.001Z</time></trkpt><trkpt lat="44.54725450208779" lon="9.932595257362932"><ele>342.0</ele><time>2026-05-02T10:04:19.001Z</time></trkpt><trkpt lat="44.54728675903326" lon="9.932787162170435"><ele>340.25</ele><time>2026-05-02T10:04:20.001Z</time></trkpt><trkpt lat="44.54731528624272" lon="9.9329740547818"><ele>338.5</ele><time>2026-05-02T10:04:21.001Z</time></trkpt><trkpt lat="44.54734405731217" lon="9.933154022241503"><ele>336.75</ele><time>2026-05-02T10:04:22.001Z</time></trkpt><trkpt lat="44.54736566673623" lon="9.933323217605514"><ele>335.0</ele><time>2026-05-02T10:04:23Z</time></trkpt><trkpt lat="44.54739786094512" lon="9.933472804378166"><ele>334.2</ele><time>2026-05-02T10:04:24Z</time></trkpt><trkpt lat="44.547434633349134" lon="9.933595180392949"><ele>333.4</ele><time>2026-05-02T10:04:25Z</time></trkpt><trkpt lat="44.547487296308084" lon="9.933709854420892"><ele>332.6</ele><time>2026-05-02T10:04:26Z</time></trkpt><trkpt lat="44.547563280969136" lon="9.933833358823312"><ele>331.8</ele><time>2026-05-02T10:04:27Z</time></trkpt><trkpt lat="44.547649678031796" lon="9.933967957839958"><ele>331.0</ele><time>2026-05-02T10:04:28Z</time></trkpt><trkpt lat="44.547730864029454" lon="9.934084782134255"><ele>331.0</ele><time>2026-05-02T10:04:29Z</time></trkpt><trkpt lat="44.54780670155407" lon="9.934170943652326"><ele>331.0</ele><time>2026-05-02T10:04:30Z</time></trkpt><trkpt lat="44.5478838015008" lon="9.9342259966952"><ele>331.0</ele><time>2026-05-02T10:04:31Z</time></trkpt><trkpt lat="44.54796592926203" lon="9.93424332439728"><ele>331.0</ele><time>2026-05-02T10:04:32Z</time></trkpt><trkpt lat="44.54804042353471" lon="9.934232644204801"><ele>331.0</ele><time>2026-05-02T10:04:33Z</time></trkpt><trkpt lat="44.54811220095417" lon="9.934184983626146"><ele>331.0</ele><time>2026-05-02T10:04:34Z</time></trkpt><trkpt lat="44.548168635950866" lon="9.934095910789619"><ele>327.25</ele><time>2026-05-02T10:04:35Z</time></trkpt><trkpt lat="44.54820807417383" lon="9.933971032825388"><ele>323.5</ele><time>2026-05-02T10:04:36Z</time></trkpt><trkpt lat="44.54823667600383" lon="9.933812674291238"><ele>319.75</ele><time>2026-05-02T10:04:37Z</time></trkpt><trkpt lat="44.54827683087274" lon="9.933632138119139"><ele>316.0</ele><time>2026-05-02T10:04:38Z</time></trkpt><trkpt lat="44.54831221479247" lon="9.933454998558918"><ele>318.0</ele><time>2026-05-02T10:04:39Z</time></trkpt><trkpt lat="44.54834719705459" lon="9.933301322088424"><ele>320.0</ele><time>2026-05-02T10:04:40Z</time></trkpt><trkpt lat="44.548366520443466" lon="9.933168323050989"><ele>322.0</ele><time>2026-05-02T10:04:41Z</time></trkpt><trkpt lat="44.54841199688496" lon="9.93305762157786"><ele>324.0</ele><time>2026-05-02T10:04:42Z</time></trkpt><trkpt lat="44.54850088988875" lon="9.933004410651941"><ele>326.0</ele><time>2026-05-02T10:04:43Z</time></trkpt><trkpt lat="44.548587535583216" lon="9.932974697944866"><ele>326.0</ele><time>2026-05-02T10:04:44Z</time></trkpt><trkpt lat="44.54868560773265" lon="9.932990108965805"><ele>326.0</ele><time>2026-05-02T10:04:45Z</time></trkpt><trkpt lat="44.54876393614257" lon="9.933031290393366"><ele>326.0</ele><time>2026-05-02T10:04:46Z</time></trkpt><trkpt lat="44.54882498288809" lon="9.93305689222173"><ele>326.0</ele><time>2026-05-02T10:04:47Z</time></trkpt><trkpt lat="44.548857844279205" lon="9.933207994105246"><ele>326.0</ele><time>2026-05-02T10:04:49Z</time></trkpt><trkpt lat="44.548855175842746" lon="9.93330019546158"><ele>326.0</ele><time>2026-05-02T10:04:50Z</time></trkpt><trkpt lat="44.54880554488498" lon="9.933389794493813"><ele>321.33333333333337</ele><time>2026-05-02T10:04:51Z</time></trkpt><trkpt lat="44.54877376464933" lon="9.933504178944004"><ele>316.6666666666667</ele><time>2026-05-02T10:04:52Z</time></trkpt><trkpt lat="44.54876357437279" lon="9.933619729322855"><ele>312.0</ele><time>2026-05-02T10:04:53Z</time></trkpt><trkpt lat="44.54877738720124" lon="9.933739730437251"><ele>307.3333333333333</ele><time>2026-05-02T10:04:54Z</time></trkpt><trkpt lat="44.54880120803825" lon="9.933846492053975"><ele>302.66666666666663</ele><time>2026-05-02T10:04:55Z</time></trkpt><trkpt lat="44.54882874301149" lon="9.933934874961054"><ele>298.0</ele><time>2026-05-02T10:04:56Z</time></trkpt><trkpt lat="44.54889106193844" lon="9.93400294841812"><ele>298.0</ele><time>2026-05-02T10:04:58Z</time></trkpt><trkpt lat="44.549013603374235" lon="9.933941632820444"><ele>298.0</ele><time>2026-05-02T10:05:00Z</time></trkpt><trkpt lat="44.54909300199512" lon="9.933866036134441"><ele>298.0</ele><time>2026-05-02T10:05:01Z</time></trkpt><trkpt lat="44.549152967020056" lon="9.93376709255547"><ele>298.0</ele><time>2026-05-02T10:05:02Z</time></trkpt><trkpt lat="44.54920149962341" lon="9.933636038778658"><ele>298.0</ele><time>2026-05-02T10:05:03Z</time></trkpt><trkpt lat="44.54923736490633" lon="9.933471292527958"><ele>301.0</ele><time>2026-05-02T10:05:04Z</time></trkpt><trkpt lat="44.54928774647947" lon="9.933317073740298"><ele>304.0</ele><time>2026-05-02T10:05:05Z</time></trkpt><trkpt lat="44.54934164766529" lon="9.933187795577904"><ele>307.0</ele><time>2026-05-02T10:05:06Z</time></trkpt><trkpt lat="44.54942227421382" lon="9.933075425041032"><ele>310.0</ele><time>2026-05-02T10:05:07Z</time></trkpt><trkpt lat="44.549489724093824" lon="9.932926492488317"><ele>307.6</ele><time>2026-05-02T10:05:08Z</time></trkpt><trkpt lat="44.549568384137565" lon="9.932794269553165"><ele>305.2</ele><time>2026-05-02T10:05:09Z</time></trkpt><trkpt lat="44.54962071341114" lon="9.93265473246884"><ele>302.8</ele><time>2026-05-02T10:05:10Z</time></trkpt><trkpt lat="44.549658396368415" lon="9.932526097312426"><ele>300.4</ele><time>2026-05-02T10:05:11Z</time></trkpt><trkpt lat="44.54968189942853" lon="9.93242188843008"><ele>298.0</ele><time>2026-05-02T10:05:12Z</time></trkpt><trkpt lat="44.5496933930001" lon="9.932324021250587"><ele>298.0</ele><time>2026-05-02T10:05:13Z</time></trkpt><trkpt lat="44.549690234253745" lon="9.932217473110201"><ele>298.0</ele><time>2026-05-02T10:05:14Z</time></trkpt><trkpt lat="44.54969795198896" lon="9.932092097443029"><ele>298.0</ele><time>2026-05-02T10:05:15Z</time></trkpt><trkpt lat="44.549732017480196" lon="9.93196987229115"><ele>298.0</ele><time>2026-05-02T10:05:16Z</time></trkpt><trkpt lat="44.54976676127715" lon="9.931833583137125"><ele>298.0</ele><time>2026-05-02T10:05:17Z</time></trkpt><trkpt lat="44.549793680045106" lon="9.931673494457721"><ele>297.75</ele><time>2026-05-02T10:05:18Z</time></trkpt><trkpt lat="44.54985937212627" lon="9.931517677742754"><ele>297.5</ele><time>2026-05-02T10:05:19Z</time></trkpt><trkpt lat="44.54991824992576" lon="9.931349455954912"><ele>297.25</ele><time>2026-05-02T10:05:20Z</time></trkpt><trkpt lat="44.549976950529455" lon="9.931200641302762"><ele>297.0</ele><time>2026-05-02T10:05:21Z</time></trkpt><trkpt lat="44.55004369694048" lon="9.931057731336981"><ele>297.0</ele><time>2026-05-02T10:05:22Z</time></trkpt><trkpt lat="44.5501255771729" lon="9.930940635920786"><ele>297.0</ele><time>2026-05-02T10:05:23Z</time></trkpt><trkpt lat="44.55021508132704" lon="9.930809832529668"><ele>297.0</ele><time>2026-05-02T10:05:24Z</time></trkpt><trkpt lat="44.55030188678725" lon="9.930683604398372"><ele>297.0</ele><time>2026-05-02T10:05:25Z</time></trkpt><trkpt lat="44.55039531069823" lon="9.930547887299324"><ele>294.6666666666667</ele><time>2026-05-02T10:05:26Z</time></trkpt><trkpt lat="44.550502240353595" lon="9.930394410328232"><ele>292.33333333333337</ele><time>2026-05-02T10:05:27Z</time></trkpt><trkpt lat="44.55060844190575" lon="9.930243788548765"><ele>290.0</ele><time>2026-05-02T10:05:28Z</time></trkpt><trkpt lat="44.55071662675202" lon="9.93009206341574"><ele>292.0</ele><time>2026-05-02T10:05:29Z</time></trkpt><trkpt lat="44.55081869989764" lon="9.929950895724426"><ele>294.0</ele><time>2026-05-02T10:05:30Z</time></trkpt><trkpt lat="44.55091176813125" lon="9.929827695141132"><ele>296.0</ele><time>2026-05-02T10:05:31Z</time></trkpt><trkpt lat="44.55106138237267" lon="9.929642652983981"><ele>296.0</ele><time>2026-05-02T10:05:32Z</time></trkpt><trkpt lat="44.55117466306813" lon="9.929489689091602"><ele>296.0</ele><time>2026-05-02T10:05:33Z</time></trkpt><trkpt lat="44.55127231716046" lon="9.929350744363797"><ele>296.0</ele><time>2026-05-02T10:05:34Z</time></trkpt><trkpt lat="44.55135055861974" lon="9.929245752757199"><ele>296.0</ele><time>2026-05-02T10:05:35Z</time></trkpt><trkpt lat="44.551421865936476" lon="9.929158817629352"><ele>294.40000000000003</ele><time>2026-05-02T10:05:36Z</time></trkpt><trkpt lat="44.551473545815085" lon="9.929107361165823"><ele>292.8</ele><time>2026-05-02T10:05:37Z</time></trkpt><trkpt lat="44.55157565043837" lon="9.929017293880394"><ele>291.20000000000005</ele><time>2026-05-02T10:05:39Z</time></trkpt><trkpt lat="44.55164938658068" lon="9.928956413448232"><ele>289.6</ele><time>2026-05-02T10:05:40Z</time></trkpt><trkpt lat="44.55174599164027" lon="9.928882320620605"><ele>288.0</ele><time>2026-05-02T10:05:41Z</time></trkpt><trkpt lat="44.55183306665417" lon="9.928796437009138"><ele>288.0</ele><time>2026-05-02T10:05:42Z</time></trkpt><trkpt lat="44.55192677346001" lon="9.928749305604564"><ele>288.0</ele><time>2026-05-02T10:05:43Z</time></trkpt><trkpt lat="44.55200488934035" lon="9.928698585944192"><ele>288.0</ele><time>2026-05-02T10:05:44Z</time></trkpt><trkpt lat="44.55207929145336" lon="9.928673222927314"><ele>288.0</ele><time>2026-05-02T10:05:45Z</time></trkpt><trkpt lat="44.552176726707714" lon="9.928666103189544"><ele>288.0</ele><time>2026-05-02T10:05:47Z</time></trkpt><trkpt lat="44.55228332175319" lon="9.928809408715736"><ele>287.25</ele><time>2026-05-02T10:05:49Z</time></trkpt><trkpt lat="44.552369978599145" lon="9.92891831257669"><ele>286.5</ele><time>2026-05-02T10:05:50Z</time></trkpt><trkpt lat="44.552473324487735" lon="9.929013109061284"><ele>285.75</ele><time>2026-05-02T10:05:51Z</time></trkpt><trkpt lat="44.55256688318265" lon="9.929135093875539"><ele>285.0</ele><time>2026-05-02T10:05:52Z</time></trkpt><trkpt lat="44.55267487765278" lon="9.929254024701399"><ele>284.25</ele><time>2026-05-02T10:05:53Z</time></trkpt><trkpt lat="44.55279220747016" lon="9.929384505997382"><ele>283.5</ele><time>2026-05-02T10:05:54Z</time></trkpt><trkpt lat="44.55289867973431" lon="9.929505659780535"><ele>282.75</ele><time>2026-05-02T10:05:55Z</time></trkpt><trkpt lat="44.55300155880481" lon="9.929632507218832"><ele>282.0</ele><time>2026-05-02T10:05:56Z</time></trkpt><trkpt lat="44.553113127010626" lon="9.929764021384544"><ele>282.0</ele><time>2026-05-02T10:05:57Z</time></trkpt><trkpt lat="44.55322921481907" lon="9.92989792084678"><ele>282.0</ele><time>2026-05-02T10:05:58Z</time></trkpt><trkpt lat="44.55334863864735" lon="9.930034812852709"><ele>282.0</ele><time>2026-05-02T10:05:59Z</time></trkpt><trkpt lat="44.55346403211958" lon="9.930162674386363"><ele>282.5</ele><time>2026-05-02T10:06:00.001Z</time></trkpt><trkpt lat="44.55357826997068" lon="9.930295267391184"><ele>283.0</ele><time>2026-05-02T10:06:01.001Z</time></trkpt><trkpt lat="44.55368528223425" lon="9.930420419090478"><ele>283.5</ele><time>2026-05-02T10:06:02.001Z</time></trkpt><trkpt lat="44.553789855142206" lon="9.930529447134539"><ele>284.0</ele><time>2026-05-02T10:06:03.001Z</time></trkpt><trkpt lat="44.55389686937396" lon="9.93061327360862"><ele>284.75</ele><time>2026-05-02T10:06:04.001Z</time></trkpt><trkpt lat="44.55401257630161" lon="9.930676623010363"><ele>285.5</ele><time>2026-05-02T10:06:05.001Z</time></trkpt><trkpt lat="44.55413209408564" lon="9.930735709907637"><ele>286.25</ele><time>2026-05-02T10:06:06.001Z</time></trkpt><trkpt lat="44.5542469137605" lon="9.93081151428689"><ele>287.0</ele><time>2026-05-02T10:06:07.001Z</time></trkpt><trkpt lat="44.55435339910427" lon="9.930891931158438"><ele>287.8</ele><time>2026-05-02T10:06:08.001Z</time></trkpt><trkpt lat="44.5544432871536" lon="9.930989618497579"><ele>288.6</ele><time>2026-05-02T10:06:09.001Z</time></trkpt><trkpt lat="44.55453159691577" lon="9.931083574540706"><ele>289.40000000000003</ele><time>2026-05-02T10:06:10.001Z</time></trkpt><trkpt lat="44.55460917336588" lon="9.931151569086909"><ele>290.2</ele><time>2026-05-02T10:06:11.001Z</time></trkpt><trkpt lat="44.55470583469066" lon="9.931217951322848"><ele>291.0</ele><time>2026-05-02T10:06:13.001Z</time></trkpt><trkpt lat="44.55478397528733" lon="9.931272154098432"><ele>291.0</ele><time>2026-05-02T10:06:15.001Z</time></trkpt><trkpt lat="44.554861179651276" lon="9.931330012279277"><ele>291.0</ele><time>2026-05-02T10:06:17.001Z</time></trkpt><trkpt lat="44.554936937379104" lon="9.931385570354772"><ele>291.0</ele><time>2026-05-02T10:06:19.001Z</time></trkpt><trkpt lat="44.55503560808759" lon="9.931469407588704"><ele>291.0</ele><time>2026-05-02T10:06:21.001Z</time></trkpt><trkpt lat="44.55509692130192" lon="9.931545463255217"><ele>291.0</ele><time>2026-05-02T10:06:22.001Z</time></trkpt><trkpt lat="44.555166360642524" lon="9.931642082986569"><ele>290.6</ele><time>2026-05-02T10:06:23.001Z</time></trkpt><trkpt lat="44.55523127650915" lon="9.931733235410196"><ele>290.20000000000005</ele><time>2026-05-02T10:06:24.001Z</time></trkpt><trkpt lat="44.55529531082579" lon="9.931830385588336"><ele>289.79999999999995</ele><time>2026-05-02T10:06:25.001Z</time></trkpt><trkpt lat="44.55535430470484" lon="9.931924014390551"><ele>289.4</ele><time>2026-05-02T10:06:26.001Z</time></trkpt><trkpt lat="44.55540177886564" lon="9.932007058030475"><ele>289.0</ele><time>2026-05-02T10:06:27.001Z</time></trkpt><trkpt lat="44.55547664118636" lon="9.932131169126766"><ele>289.0</ele><time>2026-05-02T10:06:29.001Z</time></trkpt><trkpt lat="44.555511943592926" lon="9.93225256158734"><ele>289.0</ele><time>2026-05-02T10:06:31.001Z</time></trkpt><trkpt lat="44.55554575090956" lon="9.932328137301264"><ele>289.0</ele><time>2026-05-02T10:06:33.001Z</time></trkpt><trkpt lat="44.555608208298914" lon="9.932360460973623"><ele>289.0</ele><time>2026-05-02T10:06:37.001Z</time></trkpt><trkpt lat="44.55569713454642" lon="9.932331957834846"><ele>289.0</ele><time>2026-05-02T10:06:39.001Z</time></trkpt><trkpt lat="44.555714902936806" lon="9.932125927761073"><ele>289.0</ele><time>2026-05-02T10:06:40.001Z</time></trkpt><trkpt lat="44.55551864931575" lon="9.932174383351569"><ele>289.0</ele><time>2026-05-02T10:06:41.001Z</time></trkpt><trkpt lat="44.55545490817394" lon="9.932097763332795"><ele>289.0</ele><time>2026-05-02T10:06:42Z</time></trkpt><trkpt lat="44.55539316717495" lon="9.93199637903142"><ele>289.0</ele><time>2026-05-02T10:06:43Z</time></trkpt><trkpt lat="44.555325593503056" lon="9.931872189424364"><ele>289.5</ele><time>2026-05-02T10:06:44Z</time></trkpt><trkpt lat="44.555257125807664" lon="9.931739901836561"><ele>290.0</ele><time>2026-05-02T10:06:45Z</time></trkpt><trkpt lat="44.555173997022735" lon="9.931610231238782"><ele>290.5</ele><time>2026-05-02T10:06:46Z</time></trkpt><trkpt lat="44.55508494936386" lon="9.931488479247204"><ele>291.0</ele><time>2026-05-02T10:06:47Z</time></trkpt><trkpt lat="44.55499410707633" lon="9.931386467863613"><ele>291.0</ele><time>2026-05-02T10:06:48Z</time></trkpt><trkpt lat="44.55490221963742" lon="9.931310588809684"><ele>291.0</ele><time>2026-05-02T10:06:49Z</time></trkpt><trkpt lat="44.554818195608604" lon="9.93125628093675"><ele>291.0</ele><time>2026-05-02T10:06:50Z</time></trkpt><trkpt lat="44.554746735210585" lon="9.9312180563052"><ele>291.0</ele><time>2026-05-02T10:06:51Z</time></trkpt><trkpt lat="44.55469444909935" lon="9.931156931121805"><ele>291.0</ele><time>2026-05-02T10:06:53Z</time></trkpt><trkpt lat="44.55462047238114" lon="9.931331056718953"><ele>291.0</ele><time>2026-05-02T10:06:56Z</time></trkpt><trkpt lat="44.55459701317421" lon="9.931213072883484"><ele>291.0</ele><time>2026-05-02T10:08:34.001Z</time></trkpt><trkpt lat="44.55458835211878" lon="9.93111992351239"><ele>291.0</ele><time>2026-05-02T10:08:37.001Z</time></trkpt><trkpt lat="44.55466907551245" lon="9.931188000117022"><ele>291.0</ele><time>2026-05-02T10:08:41.001Z</time></trkpt><trkpt lat="44.554769475472646" lon="9.931265815058534"><ele>291.0</ele><time>2026-05-02T10:08:43.001Z</time></trkpt><trkpt lat="44.554897734160505" lon="9.931332927719609"><ele>291.0</ele><time>2026-05-02T10:08:45Z</time></trkpt><trkpt lat="44.554968950482554" lon="9.931385901545232"><ele>291.0</ele><time>2026-05-02T10:08:46Z</time></trkpt><trkpt lat="44.55503974747571" lon="9.931449379452614"><ele>291.0</ele><time>2026-05-02T10:08:47Z</time></trkpt><trkpt lat="44.555105195874575" lon="9.931530376120518"><ele>291.0</ele><time>2026-05-02T10:08:48Z</time></trkpt><trkpt lat="44.55516673228096" lon="9.931624130864774"><ele>291.0</ele><time>2026-05-02T10:08:49Z</time></trkpt><trkpt lat="44.555223790596095" lon="9.931717591707333"><ele>291.0</ele><time>2026-05-02T10:08:50Z</time></trkpt><trkpt lat="44.55528053308439" lon="9.931807580063692"><ele>290.6666666666667</ele><time>2026-05-02T10:08:51Z</time></trkpt><trkpt lat="44.55533471391058" lon="9.93189568375427"><ele>290.3333333333333</ele><time>2026-05-02T10:08:52Z</time></trkpt><trkpt lat="44.5553896813365" lon="9.931980317105925"><ele>290.0</ele><time>2026-05-02T10:08:53Z</time></trkpt><trkpt lat="44.55543241255188" lon="9.932082290011987"><ele>289.66666666666663</ele><time>2026-05-02T10:08:54Z</time></trkpt><trkpt lat="44.55548380214381" lon="9.932166564037399"><ele>289.3333333333333</ele><time>2026-05-02T10:08:55Z</time></trkpt><trkpt lat="44.555541752863235" lon="9.932234133173779"><ele>289.0</ele><time>2026-05-02T10:08:56Z</time></trkpt><trkpt lat="44.55558759384569" lon="9.932298629964047"><ele>289.0</ele><time>2026-05-02T10:08:57Z</time></trkpt><trkpt lat="44.555634691421865" lon="9.932387407987406"><ele>289.0</ele><time>2026-05-02T10:08:58Z</time></trkpt><trkpt lat="44.55569324895916" lon="9.932454276225547"><ele>289.0</ele><time>2026-05-02T10:08:59Z</time></trkpt><trkpt lat="44.555747083027875" lon="9.932508449381494"><ele>289.0</ele><time>2026-05-02T10:09:02Z</time></trkpt><trkpt lat="44.55580040133053" lon="9.93256405504854"><ele>289.0</ele><time>2026-05-02T10:09:06Z</time></trkpt><trkpt lat="44.55585571836578" lon="9.9326217452028"><ele>289.0</ele><time>2026-05-02T10:09:09Z</time></trkpt><trkpt lat="44.55593540532954" lon="9.932538083147493"><ele>290.3333333333333</ele><time>2026-05-02T10:09:10Z</time></trkpt><trkpt lat="44.55602201477318" lon="9.932565564789336"><ele>291.66666666666663</ele><time>2026-05-02T10:09:13Z</time></trkpt><trkpt lat="44.55609110864618" lon="9.93259106221309"><ele>293.0</ele><time>2026-05-02T10:09:15Z</time></trkpt><trkpt lat="44.55617110860751" lon="9.932614148804198"><ele>294.3333333333333</ele><time>2026-05-02T10:09:19Z</time></trkpt><trkpt lat="44.55623892535283" lon="9.93262441279636"><ele>295.6666666666667</ele><time>2026-05-02T10:09:21Z</time></trkpt><trkpt lat="44.55631816478088" lon="9.932664554435608"><ele>297.0</ele><time>2026-05-02T10:09:24Z</time></trkpt><trkpt lat="44.55638316186052" lon="9.932680522515852"><ele>297.0</ele><time>2026-05-02T10:09:34Z</time></trkpt><trkpt lat="44.556488053351174" lon="9.932709064623351"><ele>297.0</ele><time>2026-05-02T10:09:36Z</time></trkpt><trkpt lat="44.55655212055516" lon="9.932727763229945"><ele>297.0</ele><time>2026-05-02T10:09:37Z</time></trkpt><trkpt lat="44.55662088620901" lon="9.932745463850276"><ele>297.0</ele><time>2026-05-02T10:09:38Z</time></trkpt><trkpt lat="44.556689158141886" lon="9.932764606650174"><ele>297.0</ele><time>2026-05-02T10:09:39Z</time></trkpt><trkpt lat="44.55675661413477" lon="9.932789140355222"><ele>297.0</ele><time>2026-05-02T10:09:40Z</time></trkpt><trkpt lat="44.55682539999946" lon="9.932817107132855"><ele>297.0</ele><time>2026-05-02T10:09:41Z</time></trkpt><trkpt lat="44.556893756891505" lon="9.932839375042859"><ele>297.0</ele><time>2026-05-02T10:09:42Z</time></trkpt><trkpt lat="44.55696798144094" lon="9.932864347253881"><ele>297.0</ele><time>2026-05-02T10:09:43Z</time></trkpt><trkpt lat="44.55703812104421" lon="9.932893215026972"><ele>297.0</ele><time>2026-05-02T10:09:44Z</time></trkpt><trkpt lat="44.55710596942021" lon="9.932925292390706"><ele>297.0</ele><time>2026-05-02T10:09:45Z</time></trkpt><trkpt lat="44.55717237251607" lon="9.932961439560346"><ele>297.0</ele><time>2026-05-02T10:09:46Z</time></trkpt><trkpt lat="44.55724221229305" lon="9.932997865291085"><ele>297.0</ele><time>2026-05-02T10:09:47Z</time></trkpt><trkpt lat="44.55732402821967" lon="9.933044878057702"><ele>296.6</ele><time>2026-05-02T10:09:48Z</time></trkpt><trkpt lat="44.55740768647511" lon="9.933100920021715"><ele>296.2</ele><time>2026-05-02T10:09:49Z</time></trkpt><trkpt lat="44.557494541793055" lon="9.933157967759252"><ele>295.8</ele><time>2026-05-02T10:09:50Z</time></trkpt><trkpt lat="44.55758670896466" lon="9.93321753796044"><ele>295.4</ele><time>2026-05-02T10:09:51Z</time></trkpt><trkpt lat="44.55768624911459" lon="9.93329012590967"><ele>295.0</ele><time>2026-05-02T10:09:52Z</time></trkpt><trkpt lat="44.55778561938939" lon="9.933371651652601"><ele>295.25</ele><time>2026-05-02T10:09:53Z</time></trkpt><trkpt lat="44.55788148112651" lon="9.93345097290144"><ele>295.5</ele><time>2026-05-02T10:09:54Z</time></trkpt><trkpt lat="44.557984124906675" lon="9.933533558173245"><ele>295.75</ele><time>2026-05-02T10:09:55Z</time></trkpt><trkpt lat="44.55808633726057" lon="9.933617870062578"><ele>296.0</ele><time>2026-05-02T10:09:56Z</time></trkpt><trkpt lat="44.5581880575254" lon="9.933700475870223"><ele>296.0</ele><time>2026-05-02T10:09:57Z</time></trkpt><trkpt lat="44.55828946355174" lon="9.933780555815119"><ele>296.0</ele><time>2026-05-02T10:09:58Z</time></trkpt><trkpt lat="44.55839241448869" lon="9.933861361563654"><ele>296.0</ele><time>2026-05-02T10:09:59Z</time></trkpt><trkpt lat="44.55849774347034" lon="9.933937623602974"><ele>296.0</ele><time>2026-05-02T10:10:00Z</time></trkpt><trkpt lat="44.55860635281679" lon="9.934011638776873"><ele>296.0</ele><time>2026-05-02T10:10:01Z</time></trkpt><trkpt lat="44.558719776396416" lon="9.934091362936618"><ele>296.0</ele><time>2026-05-02T10:10:02Z</time></trkpt><trkpt lat="44.55883601038825" lon="9.934172327891014"><ele>296.0</ele><time>2026-05-02T10:10:03Z</time></trkpt><trkpt lat="44.55895172114877" lon="9.93425447331288"><ele>296.0</ele><time>2026-05-02T10:10:04Z</time></trkpt><trkpt lat="44.559063595514885" lon="9.934332453536355"><ele>296.0</ele><time>2026-05-02T10:10:05Z</time></trkpt><trkpt lat="44.5591747647547" lon="9.934414487093544"><ele>296.0</ele><time>2026-05-02T10:10:06Z</time></trkpt><trkpt lat="44.559290612625084" lon="9.93450785885502"><ele>296.0</ele><time>2026-05-02T10:10:07Z</time></trkpt><trkpt lat="44.55940904888753" lon="9.93460617946971"><ele>296.0</ele><time>2026-05-02T10:10:08Z</time></trkpt><trkpt lat="44.55952525792744" lon="9.934713601048731"><ele>294.75</ele><time>2026-05-02T10:10:09Z</time></trkpt><trkpt lat="44.55963956017252" lon="9.934822422829786"><ele>293.5</ele><time>2026-05-02T10:10:10Z</time></trkpt><trkpt lat="44.55975065242707" lon="9.934935284154816"><ele>292.25</ele><time>2026-05-02T10:10:11Z</time></trkpt><trkpt lat="44.559860052698994" lon="9.935050710363756"><ele>291.0</ele><time>2026-05-02T10:10:12.001Z</time></trkpt><trkpt lat="44.55996535600032" lon="9.935183566041015"><ele>291.0</ele><time>2026-05-02T10:10:13.001Z</time></trkpt><trkpt lat="44.56005966431747" lon="9.935347893498909"><ele>291.0</ele><time>2026-05-02T10:10:14.001Z</time></trkpt><trkpt lat="44.56013899873154" lon="9.935536535467579"><ele>291.0</ele><time>2026-05-02T10:10:15.001Z</time></trkpt><trkpt lat="44.56020306641415" lon="9.935722460338821"><ele>292.25</ele><time>2026-05-02T10:10:16.001Z</time></trkpt><trkpt lat="44.56026087393237" lon="9.935893721116186"><ele>293.5</ele><time>2026-05-02T10:10:17.001Z</time></trkpt><trkpt lat="44.56031607403489" lon="9.936054714568629"><ele>294.75</ele><time>2026-05-02T10:10:18.001Z</time></trkpt><trkpt lat="44.56037177319622" lon="9.936208929888604"><ele>296.0</ele><time>2026-05-02T10:10:19.001Z</time></trkpt><trkpt lat="44.56042833555172" lon="9.936360960774625"><ele>296.75</ele><time>2026-05-02T10:10:20.001Z</time></trkpt><trkpt lat="44.56048783188656" lon="9.936521908972164"><ele>297.5</ele><time>2026-05-02T10:10:21.001Z</time></trkpt><trkpt lat="44.560550352493316" lon="9.936683623819363"><ele>298.25</ele><time>2026-05-02T10:10:22.001Z</time></trkpt><trkpt lat="44.560620736444385" lon="9.93683234032792"><ele>299.0</ele><time>2026-05-02T10:10:23.001Z</time></trkpt><trkpt lat="44.5607059242362" lon="9.936948386427893"><ele>299.0</ele><time>2026-05-02T10:10:24.001Z</time></trkpt><trkpt lat="44.56081241729478" lon="9.93704149648349"><ele>299.0</ele><time>2026-05-02T10:10:25.001Z</time></trkpt><trkpt lat="44.56093725569888" lon="9.937120118698306"><ele>299.0</ele><time>2026-05-02T10:10:26.001Z</time></trkpt><trkpt lat="44.56107167645782" lon="9.937198767482444"><ele>299.0</ele><time>2026-05-02T10:10:27.001Z</time></trkpt><trkpt lat="44.56119626479602" lon="9.937274962679489"><ele>297.75</ele><time>2026-05-02T10:10:28.001Z</time></trkpt><trkpt lat="44.561312527787614" lon="9.937343522578693"><ele>296.5</ele><time>2026-05-02T10:10:29.001Z</time></trkpt><trkpt lat="44.561428275055995" lon="9.937413276321573"><ele>295.25</ele><time>2026-05-02T10:10:30.001Z</time></trkpt><trkpt lat="44.56154148505565" lon="9.937480729729426"><ele>294.0</ele><time>2026-05-02T10:10:31Z</time></trkpt><trkpt lat="44.56163924212698" lon="9.937568570467933"><ele>294.0</ele><time>2026-05-02T10:10:32Z</time></trkpt><trkpt lat="44.561720933040846" lon="9.937679650050727"><ele>294.0</ele><time>2026-05-02T10:10:33Z</time></trkpt><trkpt lat="44.56179113722993" lon="9.937804503802038"><ele>294.0</ele><time>2026-05-02T10:10:34Z</time></trkpt><trkpt lat="44.561865399324155" lon="9.93791984529155"><ele>294.0</ele><time>2026-05-02T10:10:35Z</time></trkpt><trkpt lat="44.56195815894585" lon="9.937998213864985"><ele>294.0</ele><time>2026-05-02T10:10:36Z</time></trkpt><trkpt lat="44.56205268095079" lon="9.938032695796176"><ele>290.5</ele><time>2026-05-02T10:10:37Z</time></trkpt><trkpt lat="44.562155382443635" lon="9.938030667530814"><ele>287.0</ele><time>2026-05-02T10:10:38Z</time></trkpt><trkpt lat="44.562269592290285" lon="9.938028029077856"><ele>283.5</ele><time>2026-05-02T10:10:39Z</time></trkpt><trkpt lat="44.56238480840228" lon="9.937928320632947"><ele>280.0</ele><time>2026-05-02T10:10:40Z</time></trkpt><trkpt lat="44.562483477731895" lon="9.937825945817755"><ele>280.0</ele><time>2026-05-02T10:10:41Z</time></trkpt><trkpt lat="44.56256127098972" lon="9.937716213283553"><ele>280.0</ele><time>2026-05-02T10:10:42Z</time></trkpt><trkpt lat="44.56261930252885" lon="9.937659546119036"><ele>280.0</ele><time>2026-05-02T10:10:43Z</time></trkpt><trkpt lat="44.56272953427599" lon="9.937574316149966"><ele>280.0</ele><time>2026-05-02T10:10:44Z</time></trkpt><trkpt lat="44.56285276530125" lon="9.937650885461128"><ele>280.0</ele><time>2026-05-02T10:10:45Z</time></trkpt><trkpt lat="44.562945910757776" lon="9.937708889233498"><ele>278.25</ele><time>2026-05-02T10:10:46Z</time></trkpt><trkpt lat="44.563029644360654" lon="9.937802294281424"><ele>276.5</ele><time>2026-05-02T10:10:47Z</time></trkpt><trkpt lat="44.563100963606225" lon="9.93794254799465"><ele>274.75</ele><time>2026-05-02T10:10:48Z</time></trkpt><trkpt lat="44.563178440678314" lon="9.938102445120471"><ele>273.0</ele><time>2026-05-02T10:10:49Z</time></trkpt><trkpt lat="44.563282137261226" lon="9.938258828413222"><ele>276.0</ele><time>2026-05-02T10:10:50Z</time></trkpt><trkpt lat="44.563397413700564" lon="9.938398553889774"><ele>279.0</ele><time>2026-05-02T10:10:51Z</time></trkpt><trkpt lat="44.563516899442654" lon="9.938532609690142"><ele>282.0</ele><time>2026-05-02T10:10:52Z</time></trkpt><trkpt lat="44.563642992970486" lon="9.938649584985015"><ele>280.75</ele><time>2026-05-02T10:10:53Z</time></trkpt><trkpt lat="44.56376576234977" lon="9.93876462229098"><ele>279.5</ele><time>2026-05-02T10:10:54Z</time></trkpt><trkpt lat="44.56388807829161" lon="9.938878147783566"><ele>278.25</ele><time>2026-05-02T10:10:55Z</time></trkpt><trkpt lat="44.56399862233097" lon="9.938978626666039"><ele>277.0</ele><time>2026-05-02T10:10:56Z</time></trkpt><trkpt lat="44.56410238867328" lon="9.93908197627855"><ele>277.0</ele><time>2026-05-02T10:10:57Z</time></trkpt><trkpt lat="44.56420570961893" lon="9.939184381516586"><ele>277.0</ele><time>2026-05-02T10:10:58Z</time></trkpt><trkpt lat="44.56431649284059" lon="9.939295783608268"><ele>277.0</ele><time>2026-05-02T10:10:59Z</time></trkpt><trkpt lat="44.5644424724751" lon="9.939415448145253"><ele>277.0</ele><time>2026-05-02T10:11:00Z</time></trkpt><trkpt lat="44.564571149215" lon="9.9395540591887"><ele>277.5</ele><time>2026-05-02T10:11:01Z</time></trkpt><trkpt lat="44.564699801271765" lon="9.939704517589828"><ele>278.0</ele><time>2026-05-02T10:11:02Z</time></trkpt><trkpt lat="44.56480895998484" lon="9.939833281573641"><ele>278.5</ele><time>2026-05-02T10:11:03Z</time></trkpt><trkpt lat="44.564912863819416" lon="9.939956701883393"><ele>279.0</ele><time>2026-05-02T10:11:04Z</time></trkpt><trkpt lat="44.56500816872965" lon="9.940090283566784"><ele>279.0</ele><time>2026-05-02T10:11:05Z</time></trkpt><trkpt lat="44.56510971779662" lon="9.940226252058714"><ele>279.0</ele><time>2026-05-02T10:11:06Z</time></trkpt><trkpt lat="44.565198721820735" lon="9.940352750264706"><ele>279.0</ele><time>2026-05-02T10:11:07Z</time></trkpt><trkpt lat="44.5652865131046" lon="9.940472938241777"><ele>279.0</ele><time>2026-05-02T10:11:08Z</time></trkpt><trkpt lat="44.56537437964051" lon="9.940605682193269"><ele>278.5</ele><time>2026-05-02T10:11:09Z</time></trkpt><trkpt lat="44.56546139636102" lon="9.940755760489216"><ele>278.0</ele><time>2026-05-02T10:11:10Z</time></trkpt><trkpt lat="44.56554446497869" lon="9.940924459921154"><ele>277.5</ele><time>2026-05-02T10:11:11Z</time></trkpt><trkpt lat="44.56561694948817" lon="9.941108952707777"><ele>277.0</ele><time>2026-05-02T10:11:12Z</time></trkpt><trkpt lat="44.565683393083695" lon="9.94129798590976"><ele>277.0</ele><time>2026-05-02T10:11:13Z</time></trkpt><trkpt lat="44.56574947061382" lon="9.941477569096023"><ele>277.0</ele><time>2026-05-02T10:11:14Z</time></trkpt><trkpt lat="44.56580660404968" lon="9.941658827808864"><ele>277.0</ele><time>2026-05-02T10:11:15Z</time></trkpt><trkpt lat="44.56586089774655" lon="9.941831918619313"><ele>277.0</ele><time>2026-05-02T10:11:16Z</time></trkpt><trkpt lat="44.56592139694222" lon="9.942007245357496"><ele>277.75</ele><time>2026-05-02T10:11:17Z</time></trkpt><trkpt lat="44.56594408884976" lon="9.942196132225563"><ele>278.5</ele><time>2026-05-02T10:11:18Z</time></trkpt><trkpt lat="44.56596295554061" lon="9.94238532146475"><ele>279.25</ele><time>2026-05-02T10:11:19Z</time></trkpt><trkpt lat="44.56596717890635" lon="9.942579176645452"><ele>280.0</ele><time>2026-05-02T10:11:20Z</time></trkpt><trkpt lat="44.565981298509506" lon="9.942774393816956"><ele>281.0</ele><time>2026-05-02T10:11:21Z</time></trkpt><trkpt lat="44.56598743927803" lon="9.942958509935531"><ele>282.0</ele><time>2026-05-02T10:11:22Z</time></trkpt><trkpt lat="44.566010710036096" lon="9.943134828264817"><ele>283.0</ele><time>2026-05-02T10:11:23Z</time></trkpt><trkpt lat="44.56605580242465" lon="9.943303067852778"><ele>284.0</ele><time>2026-05-02T10:11:24Z</time></trkpt><trkpt lat="44.56614074456643" lon="9.94343691226529"><ele>281.0</ele><time>2026-05-02T10:11:25Z</time></trkpt><trkpt lat="44.56625996007908" lon="9.943507074410153"><ele>278.0</ele><time>2026-05-02T10:11:26Z</time></trkpt><trkpt lat="44.5664071689094" lon="9.94350897010604"><ele>275.0</ele><time>2026-05-02T10:11:27Z</time></trkpt><trkpt lat="44.56656504802304" lon="9.943502484539405"><ele>272.0</ele><time>2026-05-02T10:11:28Z</time></trkpt><trkpt lat="44.56672773937406" lon="9.943511858100603"><ele>272.0</ele><time>2026-05-02T10:11:29Z</time></trkpt><trkpt lat="44.566891134910556" lon="9.943526563471588"><ele>272.0</ele><time>2026-05-02T10:11:30Z</time></trkpt><trkpt lat="44.56705543815971" lon="9.943539605856373"><ele>272.0</ele><time>2026-05-02T10:11:31Z</time></trkpt><trkpt lat="44.567229740887186" lon="9.943578554599847"><ele>269.0</ele><time>2026-05-02T10:11:32Z</time></trkpt><trkpt lat="44.56743108971087" lon="9.943599565765162"><ele>266.0</ele><time>2026-05-02T10:11:33Z</time></trkpt><trkpt lat="44.5676506137498" lon="9.943621694585614"><ele>263.0</ele><time>2026-05-02T10:11:34Z</time></trkpt><trkpt lat="44.56784372501823" lon="9.94362029123903"><ele>265.25</ele><time>2026-05-02T10:11:35Z</time></trkpt><trkpt lat="44.56799049363094" lon="9.943644506718128"><ele>267.5</ele><time>2026-05-02T10:11:36Z</time></trkpt><trkpt lat="44.56810771024296" lon="9.943666881243862"><ele>269.75</ele><time>2026-05-02T10:11:37Z</time></trkpt><trkpt lat="44.56820319079026" lon="9.943723834945505"><ele>272.0</ele><time>2026-05-02T10:11:38Z</time></trkpt><trkpt lat="44.56826401724213" lon="9.943870983804524"><ele>272.0</ele><time>2026-05-02T10:11:39Z</time></trkpt><trkpt lat="44.56831923037266" lon="9.944031189373444"><ele>272.0</ele><time>2026-05-02T10:11:40Z</time></trkpt><trkpt lat="44.568394473820284" lon="9.944192360867845"><ele>272.0</ele><time>2026-05-02T10:11:41Z</time></trkpt><trkpt lat="44.56848474501418" lon="9.944321684792028"><ele>272.0</ele><time>2026-05-02T10:11:42Z</time></trkpt><trkpt lat="44.56860684473353" lon="9.944395682503863"><ele>270.5</ele><time>2026-05-02T10:11:43Z</time></trkpt><trkpt lat="44.56874319660784" lon="9.94443982460263"><ele>269.0</ele><time>2026-05-02T10:11:44Z</time></trkpt><trkpt lat="44.56887338893628" lon="9.94447700596302"><ele>267.5</ele><time>2026-05-02T10:11:45Z</time></trkpt><trkpt lat="44.56899447055245" lon="9.944515841978177"><ele>266.0</ele><time>2026-05-02T10:11:46Z</time></trkpt><trkpt lat="44.56910753052372" lon="9.944538869971284"><ele>266.0</ele><time>2026-05-02T10:11:46.999Z</time></trkpt><trkpt lat="44.569226052101314" lon="9.944541665912576"><ele>266.0</ele><time>2026-05-02T10:11:47.999Z</time></trkpt><trkpt lat="44.56935024126319" lon="9.944509627771275"><ele>266.0</ele><time>2026-05-02T10:11:48.999Z</time></trkpt><trkpt lat="44.56947120507053" lon="9.944447544266023"><ele>266.0</ele><time>2026-05-02T10:11:49.999Z</time></trkpt><trkpt lat="44.56958210693599" lon="9.944366999887505"><ele>266.75</ele><time>2026-05-02T10:11:50.999Z</time></trkpt><trkpt lat="44.569688340778725" lon="9.944316112645883"><ele>267.5</ele><time>2026-05-02T10:11:51.999Z</time></trkpt><trkpt lat="44.5697943205105" lon="9.94428619832392"><ele>268.25</ele><time>2026-05-02T10:11:52.999Z</time></trkpt><trkpt lat="44.56990924308755" lon="9.944303351960425"><ele>269.0</ele><time>2026-05-02T10:11:53.999Z</time></trkpt><trkpt lat="44.570029212887114" lon="9.944357664774449"><ele>269.0</ele><time>2026-05-02T10:11:54.999Z</time></trkpt><trkpt lat="44.57011924640127" lon="9.944495717839722"><ele>269.0</ele><time>2026-05-02T10:11:55.999Z</time></trkpt><trkpt lat="44.570234733000774" lon="9.944596170584827"><ele>269.0</ele><time>2026-05-02T10:11:56.999Z</time></trkpt><trkpt lat="44.57034814380417" lon="9.944688168524138"><ele>269.0</ele><time>2026-05-02T10:11:57.999Z</time></trkpt><trkpt lat="44.57048134523497" lon="9.944737266692877"><ele>270.0</ele><time>2026-05-02T10:11:58.999Z</time></trkpt><trkpt lat="44.57062058519172" lon="9.94476574555098"><ele>271.0</ele><time>2026-05-02T10:11:59.999Z</time></trkpt><trkpt lat="44.57076273855524" lon="9.944781288522009"><ele>272.0</ele><time>2026-05-02T10:12:00.999Z</time></trkpt><trkpt lat="44.570914706405844" lon="9.944767597267225"><ele>273.0</ele><time>2026-05-02T10:12:01.999Z</time></trkpt><trkpt lat="44.571072081003244" lon="9.944748751254615"><ele>272.0</ele><time>2026-05-02T10:12:02.999Z</time></trkpt><trkpt lat="44.571230497116524" lon="9.944740530822537"><ele>271.0</ele><time>2026-05-02T10:12:03.999Z</time></trkpt><trkpt lat="44.57139506870752" lon="9.944751508340275"><ele>270.0</ele><time>2026-05-02T10:12:04.999Z</time></trkpt><trkpt lat="44.57159637123405" lon="9.94482654726927"><ele>270.0</ele><time>2026-05-02T10:12:05.999Z</time></trkpt><trkpt lat="44.57184269600279" lon="9.944920594320184"><ele>270.0</ele><time>2026-05-02T10:12:06.999Z</time></trkpt><trkpt lat="44.572109198520934" lon="9.94501830199753"><ele>265.5</ele><time>2026-05-02T10:12:07.999Z</time></trkpt><trkpt lat="44.57236711760017" lon="9.945104690238532"><ele>261.0</ele><time>2026-05-02T10:12:08.999Z</time></trkpt><trkpt lat="44.57258964283704" lon="9.945187532457366"><ele>261.0</ele><time>2026-05-02T10:12:09.999Z</time></trkpt><trkpt lat="44.57279346543246" lon="9.945262873577587"><ele>261.0</ele><time>2026-05-02T10:12:10.999Z</time></trkpt><trkpt lat="44.57299295596992" lon="9.945294135871105"><ele>261.0</ele><time>2026-05-02T10:12:11.999Z</time></trkpt><trkpt lat="44.573205406338396" lon="9.945289389665648"><ele>261.3333333333333</ele><time>2026-05-02T10:12:12.999Z</time></trkpt><trkpt lat="44.573427360175906" lon="9.94525780097658"><ele>261.66666666666663</ele><time>2026-05-02T10:12:13.999Z</time></trkpt><trkpt lat="44.57363962570105" lon="9.945222265462494"><ele>262.0</ele><time>2026-05-02T10:12:14.999Z</time></trkpt><trkpt lat="44.573837781298906" lon="9.945181846204424"><ele>261.3333333333333</ele><time>2026-05-02T10:12:15.999Z</time></trkpt><trkpt lat="44.57402257761079" lon="9.945147235377242"><ele>260.6666666666667</ele><time>2026-05-02T10:12:16.999Z</time></trkpt><trkpt lat="44.57418572593366" lon="9.945110466736796"><ele>260.0</ele><time>2026-05-02T10:12:18Z</time></trkpt><trkpt lat="44.57433362871867" lon="9.94502434837847"><ele>261.0</ele><time>2026-05-02T10:12:19Z</time></trkpt><trkpt lat="44.57448641575745" lon="9.944865582552744"><ele>262.0</ele><time>2026-05-02T10:12:20Z</time></trkpt><trkpt lat="44.574629634112945" lon="9.944668519998459"><ele>263.0</ele><time>2026-05-02T10:12:21Z</time></trkpt><trkpt lat="44.57477559194301" lon="9.94448919820329"><ele>263.0</ele><time>2026-05-02T10:12:22Z</time></trkpt><trkpt lat="44.57492378746693" lon="9.944332301905565"><ele>263.0</ele><time>2026-05-02T10:12:23Z</time></trkpt><trkpt lat="44.575076172377344" lon="9.94422332440313"><ele>263.0</ele><time>2026-05-02T10:12:24Z</time></trkpt><trkpt lat="44.575245626725206" lon="9.944152658633572"><ele>264.0</ele><time>2026-05-02T10:12:25Z</time></trkpt><trkpt lat="44.57543099105012" lon="9.944111186119304"><ele>265.0</ele><time>2026-05-02T10:12:26Z</time></trkpt><trkpt lat="44.575622116601934" lon="9.944075286950644"><ele>266.0</ele><time>2026-05-02T10:12:27Z</time></trkpt><trkpt lat="44.57580566727566" lon="9.944041591940726"><ele>266.0</ele><time>2026-05-02T10:12:28Z</time></trkpt><trkpt lat="44.57599301777956" lon="9.944016315073105"><ele>266.0</ele><time>2026-05-02T10:12:29Z</time></trkpt><trkpt lat="44.57618145003679" lon="9.94400535987927"><ele>266.0</ele><time>2026-05-02T10:12:30Z</time></trkpt><trkpt lat="44.57636645317729" lon="9.944010628445646"><ele>264.33333333333337</ele><time>2026-05-02T10:12:31Z</time></trkpt><trkpt lat="44.576539772471335" lon="9.94401416340945"><ele>262.6666666666667</ele><time>2026-05-02T10:12:32Z</time></trkpt><trkpt lat="44.576708074936626" lon="9.943991259921003"><ele>261.0</ele><time>2026-05-02T10:12:33Z</time></trkpt><trkpt lat="44.57687793854514" lon="9.943945978413074"><ele>259.6666666666667</ele><time>2026-05-02T10:12:34Z</time></trkpt><trkpt lat="44.57705132965575" lon="9.943870087191085"><ele>258.33333333333337</ele><time>2026-05-02T10:12:35Z</time></trkpt><trkpt lat="44.57721584869857" lon="9.94376176000364"><ele>257.0</ele><time>2026-05-02T10:12:36Z</time></trkpt><trkpt lat="44.577381440905555" lon="9.943638666918082"><ele>257.0</ele><time>2026-05-02T10:12:37Z</time></trkpt><trkpt lat="44.577546300604446" lon="9.943505681411255"><ele>257.0</ele><time>2026-05-02T10:12:38Z</time></trkpt><trkpt lat="44.57771233438126" lon="9.943376577355115"><ele>257.0</ele><time>2026-05-02T10:12:39Z</time></trkpt><trkpt lat="44.57787425183493" lon="9.943264842503657"><ele>258.6666666666667</ele><time>2026-05-02T10:12:40Z</time></trkpt><trkpt lat="44.57803661225676" lon="9.943181548779808"><ele>260.3333333333333</ele><time>2026-05-02T10:12:41Z</time></trkpt><trkpt lat="44.57820439574023" lon="9.943125014537205"><ele>262.0</ele><time>2026-05-02T10:12:42Z</time></trkpt><trkpt lat="44.57838154972345" lon="9.943076936565788"><ele>262.0</ele><time>2026-05-02T10:12:43Z</time></trkpt><trkpt lat="44.578565113764235" lon="9.9430457121902"><ele>262.0</ele><time>2026-05-02T10:12:44Z</time></trkpt><trkpt lat="44.57874637227974" lon="9.943018453036803"><ele>262.0</ele><time>2026-05-02T10:12:45Z</time></trkpt><trkpt lat="44.578914905816674" lon="9.942983812483016"><ele>261.5</ele><time>2026-05-02T10:12:46Z</time></trkpt><trkpt lat="44.57907028976064" lon="9.942926829170878"><ele>261.0</ele><time>2026-05-02T10:12:47Z</time></trkpt><trkpt lat="44.57920654099859" lon="9.942861742219668"><ele>260.5</ele><time>2026-05-02T10:12:48Z</time></trkpt><trkpt lat="44.5793299783345" lon="9.942793632631586"><ele>260.0</ele><time>2026-05-02T10:12:49Z</time></trkpt><trkpt lat="44.57944026955461" lon="9.942709933609162"><ele>261.0</ele><time>2026-05-02T10:12:50Z</time></trkpt><trkpt lat="44.579544256251324" lon="9.942611317894025"><ele>262.0</ele><time>2026-05-02T10:12:51Z</time></trkpt><trkpt lat="44.579654344637284" lon="9.942501269808414"><ele>263.0</ele><time>2026-05-02T10:12:52Z</time></trkpt><trkpt lat="44.57976833960015" lon="9.942397514326398"><ele>264.0</ele><time>2026-05-02T10:12:53Z</time></trkpt><trkpt lat="44.57988692936283" lon="9.942295879994473"><ele>264.0</ele><time>2026-05-02T10:12:54Z</time></trkpt><trkpt lat="44.58002716833803" lon="9.942226582190425"><ele>264.0</ele><time>2026-05-02T10:12:55Z</time></trkpt><trkpt lat="44.58017584890071" lon="9.94215811923454"><ele>264.0</ele><time>2026-05-02T10:12:56Z</time></trkpt><trkpt lat="44.58034047673763" lon="9.942087105450447"><ele>262.0</ele><time>2026-05-02T10:12:57Z</time></trkpt><trkpt lat="44.58051913075253" lon="9.942080959355911"><ele>260.0</ele><time>2026-05-02T10:12:58Z</time></trkpt><trkpt lat="44.58069182291957" lon="9.94205353418126"><ele>258.0</ele><time>2026-05-02T10:12:59Z</time></trkpt><trkpt lat="44.580833482837534" lon="9.941997602893093"><ele>258.0</ele><time>2026-05-02T10:13:00Z</time></trkpt><trkpt lat="44.580947092500715" lon="9.941946856923908"><ele>258.0</ele><time>2026-05-02T10:13:01Z</time></trkpt><trkpt lat="44.58105730778085" lon="9.941903601424926"><ele>258.0</ele><time>2026-05-02T10:13:02Z</time></trkpt><trkpt lat="44.5811820395038" lon="9.941837873734308"><ele>258.0</ele><time>2026-05-02T10:13:03Z</time></trkpt><trkpt lat="44.58131606378768" lon="9.941736428719349"><ele>259.25</ele><time>2026-05-02T10:13:04Z</time></trkpt><trkpt lat="44.58144760245023" lon="9.941613974642754"><ele>260.5</ele><time>2026-05-02T10:13:05Z</time></trkpt><trkpt lat="44.58157504701795" lon="9.94149864468471"><ele>261.75</ele><time>2026-05-02T10:13:06Z</time></trkpt><trkpt lat="44.5816985272565" lon="9.941416411026168"><ele>263.0</ele><time>2026-05-02T10:13:07Z</time></trkpt><trkpt lat="44.5818094312591" lon="9.941379846438815"><ele>263.0</ele><time>2026-05-02T10:13:08Z</time></trkpt><trkpt lat="44.58190424257761" lon="9.941378082817034"><ele>263.0</ele><time>2026-05-02T10:13:09Z</time></trkpt><trkpt lat="44.58196374262712" lon="9.941417617992023"><ele>263.0</ele><time>2026-05-02T10:13:10Z</time></trkpt><trkpt lat="44.58203569691497" lon="9.941317002515973"><ele>263.0</ele><time>2026-05-02T10:13:12Z</time></trkpt><trkpt lat="44.582050653875946" lon="9.941157760188391"><ele>263.0</ele><time>2026-05-02T10:13:14Z</time></trkpt><trkpt lat="44.5820468213222" lon="9.940993546773104"><ele>262.6666666666667</ele><time>2026-05-02T10:13:16Z</time></trkpt><trkpt lat="44.58203088084436" lon="9.940848109871506"><ele>262.33333333333337</ele><time>2026-05-02T10:13:18Z</time></trkpt><trkpt lat="44.582011582454314" lon="9.940758699927214"><ele>262.0</ele><time>2026-05-02T10:13:19Z</time></trkpt><trkpt lat="44.581998281512135" lon="9.940661524507163"><ele>261.6666666666667</ele><time>2026-05-02T10:13:20Z</time></trkpt><trkpt lat="44.58199450575523" lon="9.940562754065928"><ele>261.3333333333333</ele><time>2026-05-02T10:13:21Z</time></trkpt><trkpt lat="44.58198415593021" lon="9.940472187252059"><ele>261.0</ele><time>2026-05-02T10:13:22Z</time></trkpt><trkpt lat="44.58195650579436" lon="9.940347304224744"><ele>261.0</ele><time>2026-05-02T10:13:24Z</time></trkpt><trkpt lat="44.58193593325416" lon="9.94024550917044"><ele>261.0</ele><time>2026-05-02T10:13:56.999Z</time></trkpt><trkpt lat="44.58196918405143" lon="9.940391773562618"><ele>261.0</ele><time>2026-05-02T10:14:08.999Z</time></trkpt><trkpt lat="44.58200656175251" lon="9.94055670401242"><ele>261.0</ele><time>2026-05-02T10:14:10.999Z</time></trkpt><trkpt lat="44.58203025351329" lon="9.940661244758282"><ele>261.0</ele><time>2026-05-02T10:14:11.999Z</time></trkpt><trkpt lat="44.582027509785576" lon="9.940797026268145"><ele>261.5</ele><time>2026-05-02T10:14:12.999Z</time></trkpt><trkpt lat="44.58193552974406" lon="9.941037413068946"><ele>262.0</ele><time>2026-05-02T10:14:13.999Z</time></trkpt><trkpt lat="44.581896650584476" lon="9.941136208786338"><ele>262.5</ele><time>2026-05-02T10:14:14.999Z</time></trkpt><trkpt lat="44.58185788627076" lon="9.941211799265355"><ele>263.0</ele><time>2026-05-02T10:14:15.999Z</time></trkpt><trkpt lat="44.581777444654506" lon="9.941326112441608"><ele>263.0</ele><time>2026-05-02T10:14:17.999Z</time></trkpt><trkpt lat="44.58165717266828" lon="9.941420859441216"><ele>263.0</ele><time>2026-05-02T10:14:19.999Z</time></trkpt><trkpt lat="44.58157129545878" lon="9.94148551768195"><ele>263.0</ele><time>2026-05-02T10:14:20.999Z</time></trkpt><trkpt lat="44.58147119912657" lon="9.94154314918273"><ele>263.0</ele><time>2026-05-02T10:14:21.999Z</time></trkpt><trkpt lat="44.58138288611772" lon="9.941610939719792"><ele>263.0</ele><time>2026-05-02T10:14:22.999Z</time></trkpt><trkpt lat="44.581315489519" lon="9.941664010363283"><ele>260.75</ele><time>2026-05-02T10:14:24Z</time></trkpt><trkpt lat="44.581223880369684" lon="9.941733620144428"><ele>258.5</ele><time>2026-05-02T10:14:26Z</time></trkpt><trkpt lat="44.58131034049437" lon="9.941980448141782"><ele>256.25</ele><time>2026-05-02T10:14:28Z</time></trkpt><trkpt lat="44.581384336759825" lon="9.942040711861333"><ele>254.0</ele><time>2026-05-02T10:14:29Z</time></trkpt><trkpt lat="44.58147761064038" lon="9.942069155069733"><ele>254.0</ele><time>2026-05-02T10:14:30Z</time></trkpt><trkpt lat="44.58158680602099" lon="9.94207805371915"><ele>254.0</ele><time>2026-05-02T10:14:31Z</time></trkpt><trkpt lat="44.581707242846136" lon="9.942081309311744"><ele>254.0</ele><time>2026-05-02T10:14:32Z</time></trkpt><trkpt lat="44.5818341357022" lon="9.942077296614142"><ele>254.0</ele><time>2026-05-02T10:14:33Z</time></trkpt><trkpt lat="44.581943206704175" lon="9.942072970997048"><ele>254.0</ele><time>2026-05-02T10:14:34Z</time></trkpt><trkpt lat="44.58204808984697" lon="9.942075252408598"><ele>253.99999999999997</ele><time>2026-05-02T10:14:35Z</time></trkpt><trkpt lat="44.58215548575617" lon="9.942084333770412"><ele>253.99999999999997</ele><time>2026-05-02T10:14:36Z</time></trkpt><trkpt lat="44.58227116897527" lon="9.94209742727553"><ele>254.0</ele><time>2026-05-02T10:14:37Z</time></trkpt><trkpt lat="44.58238908770723" lon="9.94210851306414"><ele>254.0</ele><time>2026-05-02T10:14:38Z</time></trkpt><trkpt lat="44.582508537786104" lon="9.94212386743187"><ele>254.0</ele><time>2026-05-02T10:14:39Z</time></trkpt><trkpt lat="44.58263002648137" lon="9.942149980675138"><ele>254.0</ele><time>2026-05-02T10:14:40Z</time></trkpt><trkpt lat="44.58275576699464" lon="9.942174847027735"><ele>254.0</ele><time>2026-05-02T10:14:41Z</time></trkpt><trkpt lat="44.58288863483157" lon="9.942202088816574"><ele>254.0</ele><time>2026-05-02T10:14:42Z</time></trkpt><trkpt lat="44.58301268881291" lon="9.942239589632072"><ele>254.2</ele><time>2026-05-02T10:14:43Z</time></trkpt><trkpt lat="44.583126067704896" lon="9.942284066391391"><ele>254.39999999999998</ele><time>2026-05-02T10:14:44Z</time></trkpt><trkpt lat="44.58323297695093" lon="9.94232386717861"><ele>254.6</ele><time>2026-05-02T10:14:45Z</time></trkpt><trkpt lat="44.583340057838925" lon="9.942347095961123"><ele>254.8</ele><time>2026-05-02T10:14:46Z</time></trkpt><trkpt lat="44.58345016318865" lon="9.942335490794804"><ele>255.0</ele><time>2026-05-02T10:14:47Z</time></trkpt><trkpt lat="44.5835542361357" lon="9.942327150976787"><ele>255.0</ele><time>2026-05-02T10:14:48Z</time></trkpt><trkpt lat="44.583658029831824" lon="9.942361592752686"><ele>255.0</ele><time>2026-05-02T10:14:49Z</time></trkpt><trkpt lat="44.58376700367625" lon="9.942438108074118"><ele>255.0</ele><time>2026-05-02T10:14:50Z</time></trkpt><trkpt lat="44.58388651897203" lon="9.942518417674409"><ele>255.0</ele><time>2026-05-02T10:14:51Z</time></trkpt><trkpt lat="44.58400980760349" lon="9.94258495862402"><ele>254.25</ele><time>2026-05-02T10:14:52Z</time></trkpt><trkpt lat="44.58413547899332" lon="9.942654501116102"><ele>253.5</ele><time>2026-05-02T10:14:53Z</time></trkpt><trkpt lat="44.584264576851446" lon="9.942737756073189"><ele>252.75</ele><time>2026-05-02T10:14:54Z</time></trkpt><trkpt lat="44.58439557794787" lon="9.942827453533027"><ele>252.0</ele><time>2026-05-02T10:14:55Z</time></trkpt><trkpt lat="44.58453490547746" lon="9.942943037981543"><ele>252.0</ele><time>2026-05-02T10:14:56Z</time></trkpt><trkpt lat="44.584675138883576" lon="9.94308557667532"><ele>252.0</ele><time>2026-05-02T10:14:57Z</time></trkpt><trkpt lat="44.58482268192236" lon="9.943255582643507"><ele>252.0</ele><time>2026-05-02T10:14:58Z</time></trkpt><trkpt lat="44.58495742023613" lon="9.943383669310172"><ele>252.0</ele><time>2026-05-02T10:14:59Z</time></trkpt><trkpt lat="44.58509644120302" lon="9.943548897654129"><ele>252.0</ele><time>2026-05-02T10:15:00Z</time></trkpt><trkpt lat="44.5852380943956" lon="9.943700695450367"><ele>252.0</ele><time>2026-05-02T10:15:01Z</time></trkpt><trkpt lat="44.585378207569995" lon="9.94385687664612"><ele>252.66666666666669</ele><time>2026-05-02T10:15:02Z</time></trkpt><trkpt lat="44.58552407760792" lon="9.944021473652995"><ele>253.33333333333334</ele><time>2026-05-02T10:15:03Z</time></trkpt><trkpt lat="44.585672020067356" lon="9.944196200429104"><ele>254.0</ele><time>2026-05-02T10:15:04Z</time></trkpt><trkpt lat="44.58582725293088" lon="9.944371701606283"><ele>254.0</ele><time>2026-05-02T10:15:05Z</time></trkpt><trkpt lat="44.58598273556447" lon="9.944548143586987"><ele>254.0</ele><time>2026-05-02T10:15:06Z</time></trkpt><trkpt lat="44.5861376923035" lon="9.944723399025502"><ele>254.0</ele><time>2026-05-02T10:15:07Z</time></trkpt><trkpt lat="44.58628846822339" lon="9.94489824074908"><ele>253.33333333333334</ele><time>2026-05-02T10:15:08Z</time></trkpt><trkpt lat="44.586436938946456" lon="9.945068291115776"><ele>252.66666666666669</ele><time>2026-05-02T10:15:09Z</time></trkpt><trkpt lat="44.586574836632195" lon="9.945222979935872"><ele>252.0</ele><time>2026-05-02T10:15:10Z</time></trkpt><trkpt lat="44.58670980035167" lon="9.945373377155704"><ele>252.0</ele><time>2026-05-02T10:15:11Z</time></trkpt><trkpt lat="44.58684796445952" lon="9.945520238582802"><ele>252.0</ele><time>2026-05-02T10:15:12Z</time></trkpt><trkpt lat="44.58699021892781" lon="9.945658538634037"><ele>252.0</ele><time>2026-05-02T10:15:13Z</time></trkpt><trkpt lat="44.58711996531436" lon="9.945796344747833"><ele>251.66666666666669</ele><time>2026-05-02T10:15:14Z</time></trkpt><trkpt lat="44.58724733457675" lon="9.945934397196229"><ele>251.33333333333334</ele><time>2026-05-02T10:15:15Z</time></trkpt><trkpt lat="44.58739183550103" lon="9.946082278736334"><ele>251.0</ele><time>2026-05-02T10:15:16Z</time></trkpt><trkpt lat="44.5875356161177" lon="9.946232047883631"><ele>251.0</ele><time>2026-05-02T10:15:17Z</time></trkpt><trkpt lat="44.58767835857115" lon="9.946369530472618"><ele>251.0</ele><time>2026-05-02T10:15:18Z</time></trkpt><trkpt lat="44.58781672185601" lon="9.946494466128303"><ele>251.0</ele><time>2026-05-02T10:15:19Z</time></trkpt><trkpt lat="44.58795185118559" lon="9.94661173670079"><ele>250.0</ele><time>2026-05-02T10:15:20Z</time></trkpt><trkpt lat="44.5880840242959" lon="9.946730282084829"><ele>249.0</ele><time>2026-05-02T10:15:20.999Z</time></trkpt><trkpt lat="44.58822579899108" lon="9.946829580163945"><ele>248.0</ele><time>2026-05-02T10:15:21.999Z</time></trkpt><trkpt lat="44.58836330897289" lon="9.946897935862886"><ele>248.0</ele><time>2026-05-02T10:15:22.999Z</time></trkpt><trkpt lat="44.58849814375807" lon="9.946957848844884"><ele>248.0</ele><time>2026-05-02T10:15:23.999Z</time></trkpt><trkpt lat="44.588643617169815" lon="9.947017708991645"><ele>248.0</ele><time>2026-05-02T10:15:24.999Z</time></trkpt><trkpt lat="44.588787447553585" lon="9.947071339431698"><ele>248.0</ele><time>2026-05-02T10:15:25.999Z</time></trkpt><trkpt lat="44.588924789046054" lon="9.947143592363593"><ele>249.66666666666669</ele><time>2026-05-02T10:15:26.999Z</time></trkpt><trkpt lat="44.5890601416459" lon="9.947236870019898"><ele>251.33333333333331</ele><time>2026-05-02T10:15:27.999Z</time></trkpt><trkpt lat="44.58919799151707" lon="9.947346330277634"><ele>253.0</ele><time>2026-05-02T10:15:28.999Z</time></trkpt><trkpt lat="44.58931444443501" lon="9.947503511250726"><ele>252.66666666666666</ele><time>2026-05-02T10:15:29.999Z</time></trkpt><trkpt lat="44.58944411493112" lon="9.947626561137591"><ele>252.33333333333331</ele><time>2026-05-02T10:15:30.999Z</time></trkpt><trkpt lat="44.58955231753382" lon="9.947771405673452"><ele>252.0</ele><time>2026-05-02T10:15:31.999Z</time></trkpt><trkpt lat="44.58966247693709" lon="9.94791618356763"><ele>252.0</ele><time>2026-05-02T10:15:32.999Z</time></trkpt><trkpt lat="44.58977728092382" lon="9.948059642433234"><ele>252.0</ele><time>2026-05-02T10:15:33.999Z</time></trkpt><trkpt lat="44.58990121633865" lon="9.948207696592215"><ele>252.0</ele><time>2026-05-02T10:15:34.999Z</time></trkpt><trkpt lat="44.59004006704055" lon="9.948368851647606"><ele>252.66666666666669</ele><time>2026-05-02T10:15:35.999Z</time></trkpt><trkpt lat="44.590187871625815" lon="9.948566430188679"><ele>253.33333333333334</ele><time>2026-05-02T10:15:36.999Z</time></trkpt><trkpt lat="44.5903694137688" lon="9.948789464844728"><ele>254.0</ele><time>2026-05-02T10:15:37.999Z</time></trkpt><trkpt lat="44.59056278318101" lon="9.94902409417879"><ele>250.0</ele><time>2026-05-02T10:15:38.999Z</time></trkpt><trkpt lat="44.59077275504437" lon="9.949278615533808"><ele>246.0</ele><time>2026-05-02T10:15:39.999Z</time></trkpt><trkpt lat="44.59096447964418" lon="9.949510803734443"><ele>246.0</ele><time>2026-05-02T10:15:40.999Z</time></trkpt><trkpt lat="44.591129072503804" lon="9.949695566046234"><ele>246.0</ele><time>2026-05-02T10:15:41.999Z</time></trkpt><trkpt lat="44.591252426675986" lon="9.949855264629871"><ele>246.0</ele><time>2026-05-02T10:15:42.999Z</time></trkpt><trkpt lat="44.59135686359258" lon="9.94998162304161"><ele>246.0</ele><time>2026-05-02T10:15:43.999Z</time></trkpt><trkpt lat="44.591454806954665" lon="9.950103880693383"><ele>246.0</ele><time>2026-05-02T10:15:44.999Z</time></trkpt><trkpt lat="44.59154901620686" lon="9.950236850489077"><ele>246.0</ele><time>2026-05-02T10:15:45.999Z</time></trkpt><trkpt lat="44.59163467254701" lon="9.950375235957988"><ele>246.0</ele><time>2026-05-02T10:15:46.999Z</time></trkpt><trkpt lat="44.5917128388652" lon="9.950512570080775"><ele>246.0</ele><time>2026-05-02T10:15:47.999Z</time></trkpt><trkpt lat="44.59178507177317" lon="9.950660496311118"><ele>246.0</ele><time>2026-05-02T10:15:48.999Z</time></trkpt><trkpt lat="44.59185677971533" lon="9.950821476986341"><ele>246.0</ele><time>2026-05-02T10:15:49.999Z</time></trkpt><trkpt lat="44.59193341249298" lon="9.951000893289262"><ele>246.0</ele><time>2026-05-02T10:15:50.999Z</time></trkpt><trkpt lat="44.592015804728085" lon="9.951194921606147"><ele>245.66666666666669</ele><time>2026-05-02T10:15:51.999Z</time></trkpt><trkpt lat="44.592116500590585" lon="9.95141793130276"><ele>245.33333333333334</ele><time>2026-05-02T10:15:52.999Z</time></trkpt><trkpt lat="44.59222207314542" lon="9.951690499160572"><ele>245.0</ele><time>2026-05-02T10:15:53.999Z</time></trkpt><trkpt lat="44.59235302844834" lon="9.951988511082703"><ele>245.0</ele><time>2026-05-02T10:15:54.999Z</time></trkpt><trkpt lat="44.5924985222521" lon="9.952316680476459"><ele>245.0</ele><time>2026-05-02T10:15:55.999Z</time></trkpt><trkpt lat="44.59265099675807" lon="9.952660595036217"><ele>242.5</ele><time>2026-05-02T10:15:56.999Z</time></trkpt><trkpt lat="44.592809972213615" lon="9.952982903120864"><ele>240.0</ele><time>2026-05-02T10:15:57.999Z</time></trkpt><trkpt lat="44.59294653375353" lon="9.953300664020581"><ele>243.0</ele><time>2026-05-02T10:15:58.999Z</time></trkpt><trkpt lat="44.59308393079455" lon="9.953611876785935"><ele>246.0</ele><time>2026-05-02T10:15:59.999Z</time></trkpt><trkpt lat="44.59322084537394" lon="9.953922727577561"><ele>243.5</ele><time>2026-05-02T10:16:00.999Z</time></trkpt><trkpt lat="44.59335454704428" lon="9.954225250164384"><ele>241.0</ele><time>2026-05-02T10:16:01.999Z</time></trkpt><trkpt lat="44.59348893428572" lon="9.954521857905819"><ele>241.0</ele><time>2026-05-02T10:16:02.999Z</time></trkpt><trkpt lat="44.5936213872646" lon="9.954820611406841"><ele>241.0</ele><time>2026-05-02T10:16:03.999Z</time></trkpt><trkpt lat="44.59375135138059" lon="9.95511898985358"><ele>244.5</ele><time>2026-05-02T10:16:04.999Z</time></trkpt><trkpt lat="44.59388230493709" lon="9.955416989859897"><ele>248.0</ele><time>2026-05-02T10:16:05.999Z</time></trkpt><trkpt lat="44.594014658685495" lon="9.955715501888792"><ele>245.5</ele><time>2026-05-02T10:16:06.999Z</time></trkpt><trkpt lat="44.5941444062734" lon="9.956001234120391"><ele>243.0</ele><time>2026-05-02T10:16:07.999Z</time></trkpt><trkpt lat="44.59426147708874" lon="9.956265315809807"><ele>243.0</ele><time>2026-05-02T10:16:08.999Z</time></trkpt><trkpt lat="44.59437764319145" lon="9.956524365201847"><ele>243.0</ele><time>2026-05-02T10:16:09.999Z</time></trkpt><trkpt lat="44.594475844089374" lon="9.95681597955018"><ele>243.0</ele><time>2026-05-02T10:16:10.999Z</time></trkpt><trkpt lat="44.59457868945365" lon="9.957110887939056"><ele>244.5</ele><time>2026-05-02T10:16:11.999Z</time></trkpt><trkpt lat="44.59466841795366" lon="9.9574238945022"><ele>246.0</ele><time>2026-05-02T10:16:12.999Z</time></trkpt><trkpt lat="44.59474947726351" lon="9.957739349938674"><ele>246.0</ele><time>2026-05-02T10:16:13.999Z</time></trkpt><trkpt lat="44.59482979699471" lon="9.958056395415971"><ele>246.0</ele><time>2026-05-02T10:16:14.999Z</time></trkpt><trkpt lat="44.59491115143358" lon="9.958372450685266"><ele>243.0</ele><time>2026-05-02T10:16:15.999Z</time></trkpt><trkpt lat="44.595005849117676" lon="9.958677055142722"><ele>240.0</ele><time>2026-05-02T10:16:16.999Z</time></trkpt><trkpt lat="44.595085419113225" lon="9.95898472175039"><ele>239.0</ele><time>2026-05-02T10:16:17.999Z</time></trkpt><trkpt lat="44.59515032768362" lon="9.959292147566245"><ele>238.0</ele><time>2026-05-02T10:16:18.999Z</time></trkpt><trkpt lat="44.5952503145742" lon="9.959569283062688"><ele>238.0</ele><time>2026-05-02T10:16:19.999Z</time></trkpt><trkpt lat="44.595332797504106" lon="9.959853721866898"><ele>238.0</ele><time>2026-05-02T10:16:20.999Z</time></trkpt><trkpt lat="44.59541383633525" lon="9.960125045331745"><ele>238.0</ele><time>2026-05-02T10:16:21.999Z</time></trkpt><trkpt lat="44.595494527076546" lon="9.960399625929558"><ele>239.0</ele><time>2026-05-02T10:16:22.999Z</time></trkpt><trkpt lat="44.59558777620158" lon="9.96068117767655"><ele>240.0</ele><time>2026-05-02T10:16:23.999Z</time></trkpt><trkpt lat="44.59569776915675" lon="9.960953208959616"><ele>241.0</ele><time>2026-05-02T10:16:24.999Z</time></trkpt><trkpt lat="44.595823437702975" lon="9.961219006029056"><ele>241.0</ele><time>2026-05-02T10:16:25.999Z</time></trkpt><trkpt lat="44.59596025053987" lon="9.961476149971062"><ele>241.0</ele><time>2026-05-02T10:16:26.999Z</time></trkpt><trkpt lat="44.59611491813567" lon="9.96171859069649"><ele>241.0</ele><time>2026-05-02T10:16:27.999Z</time></trkpt><trkpt lat="44.5962794465232" lon="9.961947711390755"><ele>241.0</ele><time>2026-05-02T10:16:28.999Z</time></trkpt><trkpt lat="44.59645422617328" lon="9.962168686202041"><ele>241.0</ele><time>2026-05-02T10:16:30Z</time></trkpt><trkpt lat="44.596638830261995" lon="9.962389649231632"><ele>241.0</ele><time>2026-05-02T10:16:31Z</time></trkpt><trkpt lat="44.59682982882737" lon="9.962607178678082"><ele>241.5</ele><time>2026-05-02T10:16:32Z</time></trkpt><trkpt lat="44.597022609212324" lon="9.96282341501045"><ele>242.0</ele><time>2026-05-02T10:16:33Z</time></trkpt><trkpt lat="44.59721638268345" lon="9.963040813365156"><ele>242.0</ele><time>2026-05-02T10:16:34Z</time></trkpt><trkpt lat="44.59740976754129" lon="9.963257691891334"><ele>242.0</ele><time>2026-05-02T10:16:35Z</time></trkpt><trkpt lat="44.59760134432557" lon="9.96347233827951"><ele>243.0</ele><time>2026-05-02T10:16:36Z</time></trkpt><trkpt lat="44.59779162986797" lon="9.963687305251003"><ele>244.0</ele><time>2026-05-02T10:16:37Z</time></trkpt><trkpt lat="44.59798137029674" lon="9.963904664569473"><ele>244.0</ele><time>2026-05-02T10:16:38Z</time></trkpt><trkpt lat="44.5981684574677" lon="9.964122798876963"><ele>244.0</ele><time>2026-05-02T10:16:39Z</time></trkpt><trkpt lat="44.59835551139265" lon="9.964344816373211"><ele>243.0</ele><time>2026-05-02T10:16:40Z</time></trkpt><trkpt lat="44.59854130578022" lon="9.96457401114603"><ele>242.0</ele><time>2026-05-02T10:16:41Z</time></trkpt><trkpt lat="44.59872719763996" lon="9.96480804294454"><ele>240.0</ele><time>2026-05-02T10:16:42Z</time></trkpt><trkpt lat="44.59890333224875" lon="9.965056480433079"><ele>238.0</ele><time>2026-05-02T10:16:43Z</time></trkpt><trkpt lat="44.59907709055991" lon="9.965314716839913"><ele>238.0</ele><time>2026-05-02T10:16:44Z</time></trkpt><trkpt lat="44.59925034139714" lon="9.96557615126863"><ele>238.0</ele><time>2026-05-02T10:16:45Z</time></trkpt><trkpt lat="44.599422999343936" lon="9.96583628447666"><ele>237.0</ele><time>2026-05-02T10:16:46Z</time></trkpt><trkpt lat="44.59959895332554" lon="9.966098255167612"><ele>236.0</ele><time>2026-05-02T10:16:47Z</time></trkpt><trkpt lat="44.59977390288344" lon="9.966358541366056"><ele>236.0</ele><time>2026-05-02T10:16:48Z</time></trkpt><trkpt lat="44.59994950349377" lon="9.966615813496595"><ele>236.0</ele><time>2026-05-02T10:16:49Z</time></trkpt><trkpt lat="44.6001262708395" lon="9.966877784967465"><ele>235.5</ele><time>2026-05-02T10:16:50Z</time></trkpt><trkpt lat="44.60030672655994" lon="9.967139061243772"><ele>235.0</ele><time>2026-05-02T10:16:51Z</time></trkpt><trkpt lat="44.60048963391601" lon="9.967402323459371"><ele>234.0</ele><time>2026-05-02T10:16:52Z</time></trkpt><trkpt lat="44.600672210744314" lon="9.967673715533266"><ele>233.0</ele><time>2026-05-02T10:16:53Z</time></trkpt><trkpt lat="44.60085682009182" lon="9.967947413929712"><ele>233.0</ele><time>2026-05-02T10:16:54Z</time></trkpt><trkpt lat="44.60104103841527" lon="9.96821834998658"><ele>233.0</ele><time>2026-05-02T10:16:55Z</time></trkpt><trkpt lat="44.60122660267602" lon="9.968491267037587"><ele>234.5</ele><time>2026-05-02T10:16:56Z</time></trkpt><trkpt lat="44.60141654857343" lon="9.968767119776784"><ele>236.0</ele><time>2026-05-02T10:16:57Z</time></trkpt><trkpt lat="44.601602655045696" lon="9.969042529585662"><ele>234.0</ele><time>2026-05-02T10:16:58Z</time></trkpt><trkpt lat="44.6017889995838" lon="9.96931944489567"><ele>232.0</ele><time>2026-05-02T10:16:59Z</time></trkpt><trkpt lat="44.6019747399237" lon="9.969598278857442"><ele>232.0</ele><time>2026-05-02T10:17:00Z</time></trkpt><trkpt lat="44.60216248253638" lon="9.969878009397467"><ele>232.0</ele><time>2026-05-02T10:17:01Z</time></trkpt><trkpt lat="44.60235350996403" lon="9.97015726861376"><ele>232.0</ele><time>2026-05-02T10:17:02Z</time></trkpt><trkpt lat="44.60254010309611" lon="9.970437162077479"><ele>232.0</ele><time>2026-05-02T10:17:03Z</time></trkpt><trkpt lat="44.60272816937114" lon="9.970718246496745"><ele>232.5</ele><time>2026-05-02T10:17:04Z</time></trkpt><trkpt lat="44.602915108494976" lon="9.97099671103026"><ele>233.0</ele><time>2026-05-02T10:17:05Z</time></trkpt><trkpt lat="44.60310297927255" lon="9.971275927727364"><ele>233.0</ele><time>2026-05-02T10:17:06Z</time></trkpt><trkpt lat="44.60328547174233" lon="9.97154374716873"><ele>233.0</ele><time>2026-05-02T10:17:07Z</time></trkpt><trkpt lat="44.60345273435611" lon="9.971785913949596"><ele>233.0</ele><time>2026-05-02T10:17:08Z</time></trkpt><trkpt lat="44.60360333536813" lon="9.97200316251203"><ele>233.0</ele><time>2026-05-02T10:17:09Z</time></trkpt><trkpt lat="44.60374923143363" lon="9.972215400237479"><ele>233.0</ele><time>2026-05-02T10:17:10Z</time></trkpt><trkpt lat="44.60388392500281" lon="9.97241205223387"><ele>231.66666666666669</ele><time>2026-05-02T10:17:11Z</time></trkpt><trkpt lat="44.60401302083485" lon="9.972600208161511"><ele>230.33333333333331</ele><time>2026-05-02T10:17:12Z</time></trkpt><trkpt lat="44.604136993807764" lon="9.972783307923873"><ele>229.0</ele><time>2026-05-02T10:17:13Z</time></trkpt><trkpt lat="44.60425830466051" lon="9.972958865849602"><ele>229.0</ele><time>2026-05-02T10:17:14Z</time></trkpt><trkpt lat="44.60437687264061" lon="9.973119865291311"><ele>229.0</ele><time>2026-05-02T10:17:15Z</time></trkpt><trkpt lat="44.604495107241085" lon="9.973275489538645"><ele>229.0</ele><time>2026-05-02T10:17:16Z</time></trkpt><trkpt lat="44.604617474809025" lon="9.973436022025272"><ele>230.33333333333331</ele><time>2026-05-02T10:17:17Z</time></trkpt><trkpt lat="44.60474345314362" lon="9.973598851520192"><ele>231.66666666666669</ele><time>2026-05-02T10:17:18Z</time></trkpt><trkpt lat="44.60486840689244" lon="9.973762179197289"><ele>233.0</ele><time>2026-05-02T10:17:19Z</time></trkpt><trkpt lat="44.60499923724727" lon="9.973937348232319"><ele>233.0</ele><time>2026-05-02T10:17:20Z</time></trkpt><trkpt lat="44.60513359837038" lon="9.974118453455945"><ele>233.0</ele><time>2026-05-02T10:17:21Z</time></trkpt><trkpt lat="44.60526627629143" lon="9.974295853163484"><ele>233.0</ele><time>2026-05-02T10:17:22Z</time></trkpt><trkpt lat="44.605392113981736" lon="9.97445739491221"><ele>233.0</ele><time>2026-05-02T10:17:23Z</time></trkpt><trkpt lat="44.60551228657522" lon="9.974614671734244"><ele>233.0</ele><time>2026-05-02T10:17:24Z</time></trkpt><trkpt lat="44.60563210639579" lon="9.97476985172896"><ele>233.0</ele><time>2026-05-02T10:17:25Z</time></trkpt><trkpt lat="44.60574624347214" lon="9.97491495566843"><ele>232.75</ele><time>2026-05-02T10:17:26Z</time></trkpt><trkpt lat="44.60585378062205" lon="9.975056140965231"><ele>232.5</ele><time>2026-05-02T10:17:27Z</time></trkpt><trkpt lat="44.60596058925985" lon="9.975193783915936"><ele>232.25</ele><time>2026-05-02T10:17:28Z</time></trkpt><trkpt lat="44.60607062135752" lon="9.975324487340968"><ele>232.0</ele><time>2026-05-02T10:17:28.999Z</time></trkpt><trkpt lat="44.606181125076716" lon="9.975439637938146"><ele>232.0</ele><time>2026-05-02T10:17:29.999Z</time></trkpt><trkpt lat="44.60629318942575" lon="9.975543532859142"><ele>232.0</ele><time>2026-05-02T10:17:30.999Z</time></trkpt><trkpt lat="44.606417206126046" lon="9.975637792677057"><ele>232.0</ele><time>2026-05-02T10:17:31.999Z</time></trkpt><trkpt lat="44.60654144195912" lon="9.975728099796504"><ele>232.0</ele><time>2026-05-02T10:17:32.999Z</time></trkpt><trkpt lat="44.606666185916495" lon="9.975800794094274"><ele>231.0</ele><time>2026-05-02T10:17:33.999Z</time></trkpt><trkpt lat="44.60679018012572" lon="9.975860344943026"><ele>230.0</ele><time>2026-05-02T10:17:34.999Z</time></trkpt><trkpt lat="44.60691877785987" lon="9.975912660680422"><ele>229.0</ele><time>2026-05-02T10:17:35.999Z</time></trkpt><trkpt lat="44.607052238515955" lon="9.975955568544947"><ele>228.0</ele><time>2026-05-02T10:17:36.999Z</time></trkpt><trkpt lat="44.60718761050444" lon="9.975983747854102"><ele>228.0</ele><time>2026-05-02T10:17:37.999Z</time></trkpt><trkpt lat="44.6073218901486" lon="9.975998667662953"><ele>228.0</ele><time>2026-05-02T10:17:38.999Z</time></trkpt><trkpt lat="44.60745557104731" lon="9.97600829572606"><ele>228.0</ele><time>2026-05-02T10:17:39.999Z</time></trkpt><trkpt lat="44.60758859384456" lon="9.97601249722625"><ele>228.0</ele><time>2026-05-02T10:17:40.999Z</time></trkpt><trkpt lat="44.6077239320017" lon="9.976010664067687"><ele>229.25</ele><time>2026-05-02T10:17:41.999Z</time></trkpt><trkpt lat="44.60786413719886" lon="9.976010487761657"><ele>230.5</ele><time>2026-05-02T10:17:42.999Z</time></trkpt><trkpt lat="44.60799810008248" lon="9.97601997710898"><ele>231.75</ele><time>2026-05-02T10:17:43.999Z</time></trkpt><trkpt lat="44.60812753544821" lon="9.97603087621675"><ele>233.0</ele><time>2026-05-02T10:17:44.999Z</time></trkpt><trkpt lat="44.60825826559602" lon="9.97604366947706"><ele>233.0</ele><time>2026-05-02T10:17:45.999Z</time></trkpt><trkpt lat="44.60839189054367" lon="9.97606544009887"><ele>233.0</ele><time>2026-05-02T10:17:46.999Z</time></trkpt><trkpt lat="44.608522317353305" lon="9.97610191873774"><ele>233.0</ele><time>2026-05-02T10:17:47.999Z</time></trkpt><trkpt lat="44.60865160484815" lon="9.976147166981134"><ele>233.0</ele><time>2026-05-02T10:17:48.999Z</time></trkpt><trkpt lat="44.60877884258473" lon="9.976186309788678"><ele>232.75</ele><time>2026-05-02T10:17:49.999Z</time></trkpt><trkpt lat="44.60890641186619" lon="9.976225574513425"><ele>232.5</ele><time>2026-05-02T10:17:50.999Z</time></trkpt><trkpt lat="44.609033385169944" lon="9.976268705447396"><ele>232.25</ele><time>2026-05-02T10:17:51.999Z</time></trkpt><trkpt lat="44.60916049320272" lon="9.976312176635808"><ele>232.0</ele><time>2026-05-02T10:17:52.999Z</time></trkpt><trkpt lat="44.60928891260687" lon="9.976357753434238"><ele>232.0</ele><time>2026-05-02T10:17:53.999Z</time></trkpt><trkpt lat="44.60941501820918" lon="9.976400101975777"><ele>232.0</ele><time>2026-05-02T10:17:54.999Z</time></trkpt><trkpt lat="44.609542745608145" lon="9.976441161455156"><ele>232.0</ele><time>2026-05-02T10:17:55.999Z</time></trkpt><trkpt lat="44.60967057241674" lon="9.97648242380176"><ele>232.0</ele><time>2026-05-02T10:17:56.999Z</time></trkpt><trkpt lat="44.6097974544986" lon="9.97652241967198"><ele>232.75</ele><time>2026-05-02T10:17:57.999Z</time></trkpt><trkpt lat="44.60992135203346" lon="9.976564222228207"><ele>233.5</ele><time>2026-05-02T10:17:58.999Z</time></trkpt><trkpt lat="44.61003991570554" lon="9.976604940841119"><ele>234.25</ele><time>2026-05-02T10:17:59.999Z</time></trkpt><trkpt lat="44.6101590099534" lon="9.976642017471097"><ele>235.0</ele><time>2026-05-02T10:18:00.999Z</time></trkpt><trkpt lat="44.610279155099335" lon="9.976677183371752"><ele>234.25</ele><time>2026-05-02T10:18:01.999Z</time></trkpt><trkpt lat="44.61039520990954" lon="9.976713770688113"><ele>233.5</ele><time>2026-05-02T10:18:02.999Z</time></trkpt><trkpt lat="44.61050750690566" lon="9.976747491809183"><ele>232.75</ele><time>2026-05-02T10:18:03.999Z</time></trkpt><trkpt lat="44.610617832974185" lon="9.976782935803516"><ele>232.0</ele><time>2026-05-02T10:18:04.999Z</time></trkpt><trkpt lat="44.61072712813583" lon="9.976817036595508"><ele>232.0</ele><time>2026-05-02T10:18:05.999Z</time></trkpt><trkpt lat="44.61083818985419" lon="9.976853260790246"><ele>232.0</ele><time>2026-05-02T10:18:06.999Z</time></trkpt><trkpt lat="44.61094874467181" lon="9.976887236234166"><ele>232.0</ele><time>2026-05-02T10:18:07.999Z</time></trkpt><trkpt lat="44.611058106103364" lon="9.976918458587942"><ele>232.0</ele><time>2026-05-02T10:18:08.999Z</time></trkpt><trkpt lat="44.61116715152186" lon="9.976947827027754"><ele>232.39999999999998</ele><time>2026-05-02T10:18:09.999Z</time></trkpt><trkpt lat="44.611275698633484" lon="9.976979798982464"><ele>232.79999999999998</ele><time>2026-05-02T10:18:10.999Z</time></trkpt><trkpt lat="44.611378207718225" lon="9.977014537457196"><ele>233.2</ele><time>2026-05-02T10:18:11.999Z</time></trkpt><trkpt lat="44.61147607906318" lon="9.977046107628848"><ele>233.6</ele><time>2026-05-02T10:18:12.999Z</time></trkpt><trkpt lat="44.61156909406709" lon="9.97707835254519"><ele>234.0</ele><time>2026-05-02T10:18:13.999Z</time></trkpt><trkpt lat="44.61165616852074" lon="9.977110064777126"><ele>234.0</ele><time>2026-05-02T10:18:14.999Z</time></trkpt><trkpt lat="44.611744965945306" lon="9.977140496449671"><ele>233.99999999999997</ele><time>2026-05-02T10:18:15.999Z</time></trkpt><trkpt lat="44.611832568369245" lon="9.977169241731213"><ele>233.99999999999997</ele><time>2026-05-02T10:18:16.999Z</time></trkpt><trkpt lat="44.611919519014386" lon="9.977197825658687"><ele>234.0</ele><time>2026-05-02T10:18:17.999Z</time></trkpt><trkpt lat="44.61201159536504" lon="9.977227000495738"><ele>234.0</ele><time>2026-05-02T10:18:18.999Z</time></trkpt><trkpt lat="44.61211349005255" lon="9.977256936609779"><ele>234.39999999999998</ele><time>2026-05-02T10:18:19.999Z</time></trkpt><trkpt lat="44.61221898745188" lon="9.977287439685432"><ele>234.79999999999998</ele><time>2026-05-02T10:18:20.999Z</time></trkpt><trkpt lat="44.61232467178438" lon="9.977316230499003"><ele>235.20000000000002</ele><time>2026-05-02T10:18:21.999Z</time></trkpt><trkpt lat="44.61242666006208" lon="9.977347615928155"><ele>235.60000000000002</ele><time>2026-05-02T10:18:22.999Z</time></trkpt><trkpt lat="44.612523147915994" lon="9.977377882870783"><ele>236.0</ele><time>2026-05-02T10:18:23.999Z</time></trkpt><trkpt lat="44.61261808146092" lon="9.977405151399317"><ele>236.00000000000003</ele><time>2026-05-02T10:18:24.999Z</time></trkpt><trkpt lat="44.61270846793743" lon="9.977434353812912"><ele>236.0</ele><time>2026-05-02T10:18:25.999Z</time></trkpt><trkpt lat="44.61279326541781" lon="9.977461768153674"><ele>236.0</ele><time>2026-05-02T10:18:26.999Z</time></trkpt><trkpt lat="44.612871349661155" lon="9.977492124736834"><ele>236.0</ele><time>2026-05-02T10:18:27.999Z</time></trkpt><trkpt lat="44.61294645529681" lon="9.977526599675716"><ele>236.00000000000003</ele><time>2026-05-02T10:18:28.999Z</time></trkpt><trkpt lat="44.613023809333036" lon="9.977563811915541"><ele>236.0</ele><time>2026-05-02T10:18:29.999Z</time></trkpt><trkpt lat="44.613099183557296" lon="9.977606175690694"><ele>235.50000000000003</ele><time>2026-05-02T10:18:30.999Z</time></trkpt><trkpt lat="44.613176990236646" lon="9.977650231520617"><ele>235.0</ele><time>2026-05-02T10:18:31.999Z</time></trkpt><trkpt lat="44.61325046113187" lon="9.977694747206103"><ele>234.5</ele><time>2026-05-02T10:18:32.999Z</time></trkpt><trkpt lat="44.61332003750863" lon="9.977741093767543"><ele>234.0</ele><time>2026-05-02T10:18:33.999Z</time></trkpt><trkpt lat="44.61339045337888" lon="9.977785107702713"><ele>233.50000000000003</ele><time>2026-05-02T10:18:34.999Z</time></trkpt><trkpt lat="44.61345997692725" lon="9.977829121759235"><ele>233.0</ele><time>2026-05-02T10:18:36Z</time></trkpt><trkpt lat="44.61352749376644" lon="9.977872015775096"><ele>233.00000000000003</ele><time>2026-05-02T10:18:37Z</time></trkpt><trkpt lat="44.613590748974545" lon="9.977910957552238"><ele>233.0</ele><time>2026-05-02T10:18:38Z</time></trkpt><trkpt lat="44.613654894021394" lon="9.977949187238774"><ele>233.0</ele><time>2026-05-02T10:18:39Z</time></trkpt><trkpt lat="44.61372383605409" lon="9.97798991794183"><ele>233.0</ele><time>2026-05-02T10:18:40Z</time></trkpt><trkpt lat="44.61379515958298" lon="9.978036695716842"><ele>233.00000000000003</ele><time>2026-05-02T10:18:41Z</time></trkpt><trkpt lat="44.61386747245403" lon="9.978084999678936"><ele>233.0</ele><time>2026-05-02T10:18:42Z</time></trkpt><trkpt lat="44.61394386376354" lon="9.978127563943849"><ele>233.33333333333334</ele><time>2026-05-02T10:18:43Z</time></trkpt><trkpt lat="44.6140201873265" lon="9.978169531635594"><ele>233.66666666666669</ele><time>2026-05-02T10:18:44Z</time></trkpt><trkpt lat="44.6140909322423" lon="9.978212503870543"><ele>234.0</ele><time>2026-05-02T10:18:45Z</time></trkpt><trkpt lat="44.614164326936" lon="9.978257023097488"><ele>234.33333333333331</ele><time>2026-05-02T10:18:46Z</time></trkpt><trkpt lat="44.61423515381878" lon="9.978303158827217"><ele>234.66666666666666</ele><time>2026-05-02T10:18:47Z</time></trkpt><trkpt lat="44.614307031454125" lon="9.97834817479838"><ele>235.0</ele><time>2026-05-02T10:18:48Z</time></trkpt><trkpt lat="44.61440122598326" lon="9.978391101351122"><ele>236.0</ele><time>2026-05-02T10:18:50Z</time></trkpt><trkpt lat="44.614325528407385" lon="9.978253060119023"><ele>237.0</ele><time>2026-05-02T10:18:55Z</time></trkpt><trkpt lat="44.61423815507096" lon="9.978236889090768"><ele>238.0</ele><time>2026-05-02T10:18:57Z</time></trkpt><trkpt lat="44.61411672631957" lon="9.978184011195907"><ele>239.0</ele><time>2026-05-02T10:18:59Z</time></trkpt><trkpt lat="44.614031130549556" lon="9.978140430145537"><ele>240.0</ele><time>2026-05-02T10:19:00Z</time></trkpt><trkpt lat="44.613946961962284" lon="9.978081884892665"><ele>240.0</ele><time>2026-05-02T10:19:01Z</time></trkpt><trkpt lat="44.61386722662552" lon="9.978031087081224"><ele>240.0</ele><time>2026-05-02T10:19:02Z</time></trkpt><trkpt lat="44.61378635782568" lon="9.977990700624225"><ele>240.0</ele><time>2026-05-02T10:19:03Z</time></trkpt><trkpt lat="44.613698516987284" lon="9.977924079980305"><ele>240.0</ele><time>2026-05-02T10:19:05Z</time></trkpt><trkpt lat="44.61366015251071" lon="9.977853726953795"><ele>240.0</ele><time>2026-05-02T10:19:07Z</time></trkpt><trkpt lat="44.61359777974937" lon="9.977791514527139"><ele>240.0</ele><time>2026-05-02T10:19:10Z</time></trkpt><trkpt lat="44.61366462983751" lon="9.97783675554786"><ele>240.0</ele><time>2026-05-02T10:20:43Z</time></trkpt><trkpt lat="44.61372498931355" lon="9.977870255248732"><ele>240.0</ele><time>2026-05-02T10:20:48Z</time></trkpt><trkpt lat="44.613787811747436" lon="9.977918549214742"><ele>240.0</ele><time>2026-05-02T10:20:54Z</time></trkpt><trkpt lat="44.613588517740915" lon="9.977970857362637"><ele>240.0</ele><time>2026-05-02T10:21:51.999Z</time></trkpt><trkpt lat="44.613749471434446" lon="9.977869881513442"><ele>240.0</ele><time>2026-05-02T10:21:54.999Z</time></trkpt><trkpt lat="44.6137629988293" lon="9.977990257240455"><ele>240.0</ele><time>2026-05-02T10:23:34Z</time></trkpt><trkpt lat="44.61379227775796" lon="9.977909218998708"><ele>240.0</ele><time>2026-05-02T10:23:41Z</time></trkpt><trkpt lat="44.61378810530493" lon="9.97780731076574"><ele>240.0</ele><time>2026-05-02T10:24:00.999Z</time></trkpt><trkpt lat="44.61372057322449" lon="9.977771606449847"><ele>240.0</ele><time>2026-05-02T10:24:14.999Z</time></trkpt><trkpt lat="44.61368415974535" lon="9.977539172405354"><ele>240.0</ele><time>2026-05-02T10:24:24.013Z</time></trkpt><trkpt lat="44.61382782556546" lon="9.977785097444409"><ele>240.0</ele><time>2026-05-02T10:24:27.999Z</time></trkpt><trkpt lat="44.61379848427697" lon="9.977927203510173"><ele>240.0</ele><time>2026-05-02T10:25:11Z</time></trkpt><trkpt lat="44.613835075698816" lon="9.977833592528988"><ele>240.0</ele><time>2026-05-02T10:40:58.999Z</time></trkpt><trkpt lat="44.61380875610937" lon="9.977928783101433"><ele>240.0</ele><time>2026-05-02T10:41:16.999Z</time></trkpt><trkpt lat="44.613752771296774" lon="9.977877878140584"><ele>240.0</ele><time>2026-05-02T10:43:37.999Z</time></trkpt><trkpt lat="44.613689967137326" lon="9.977859592585313"><ele>240.0</ele><time>2026-05-02T10:43:44.999Z</time></trkpt><trkpt lat="44.61362407382437" lon="9.977837928326833"><ele>240.0</ele><time>2026-05-02T10:43:52Z</time></trkpt><trkpt lat="44.61367130007036" lon="9.9779132720347"><ele>240.0</ele><time>2026-05-02T10:47:28.999Z</time></trkpt><trkpt lat="44.61371856574348" lon="9.977979581702309"><ele>240.0</ele><time>2026-05-02T10:47:29.999Z</time></trkpt><trkpt lat="44.61377687878814" lon="9.978028657980165"><ele>240.0</ele><time>2026-05-02T10:47:30.999Z</time></trkpt><trkpt lat="44.613837659629276" lon="9.978057289503667"><ele>240.0</ele><time>2026-05-02T10:47:31.999Z</time></trkpt><trkpt lat="44.61390116796501" lon="9.978093064341708"><ele>240.0</ele><time>2026-05-02T10:47:32.999Z</time></trkpt><trkpt lat="44.61396829063859" lon="9.9781253464668"><ele>240.0</ele><time>2026-05-02T10:47:33.999Z</time></trkpt><trkpt lat="44.61403800305524" lon="9.978159260372996"><ele>240.0</ele><time>2026-05-02T10:47:34.999Z</time></trkpt><trkpt lat="44.61411545804772" lon="9.97820185402517"><ele>240.0</ele><time>2026-05-02T10:47:35.999Z</time></trkpt><trkpt lat="44.614199107936976" lon="9.97825455144101"><ele>240.0</ele><time>2026-05-02T10:47:36.999Z</time></trkpt><trkpt lat="44.61427441090305" lon="9.978307223813522"><ele>240.0</ele><time>2026-05-02T10:47:37.999Z</time></trkpt><trkpt lat="44.61435235759435" lon="9.978350823267743"><ele>240.0</ele><time>2026-05-02T10:47:38.999Z</time></trkpt><trkpt lat="44.61443675644748" lon="9.978400829230896"><ele>240.0</ele><time>2026-05-02T10:47:39.999Z</time></trkpt><trkpt lat="44.61452647247437" lon="9.978449748495393"><ele>240.0</ele><time>2026-05-02T10:47:40.999Z</time></trkpt><trkpt lat="44.61462369366036" lon="9.978504644517894"><ele>240.0</ele><time>2026-05-02T10:47:41.999Z</time></trkpt><trkpt lat="44.61472262624327" lon="9.978559381140549"><ele>239.4</ele><time>2026-05-02T10:47:42.999Z</time></trkpt><trkpt lat="44.61481909037337" lon="9.978618077200768"><ele>238.8</ele><time>2026-05-02T10:47:43.999Z</time></trkpt><trkpt lat="44.61491624570765" lon="9.978682967468783"><ele>238.2</ele><time>2026-05-02T10:47:44.999Z</time></trkpt><trkpt lat="44.61502019401661" lon="9.978755260864276"><ele>237.6</ele><time>2026-05-02T10:47:45.999Z</time></trkpt><trkpt lat="44.61511262517736" lon="9.978845735948175"><ele>237.0</ele><time>2026-05-02T10:47:46.999Z</time></trkpt><trkpt lat="44.61519968675549" lon="9.978953674146306"><ele>237.0</ele><time>2026-05-02T10:47:47.999Z</time></trkpt><trkpt lat="44.615281879975484" lon="9.97908893601415"><ele>237.0</ele><time>2026-05-02T10:47:48.999Z</time></trkpt><trkpt lat="44.615364233573445" lon="9.979223916330882"><ele>237.0</ele><time>2026-05-02T10:47:49.999Z</time></trkpt><trkpt lat="44.615449287397084" lon="9.97937841369495"><ele>237.0</ele><time>2026-05-02T10:47:50.999Z</time></trkpt><trkpt lat="44.615524156614704" lon="9.979536055214048"><ele>237.75</ele><time>2026-05-02T10:47:51.999Z</time></trkpt><trkpt lat="44.61559692102262" lon="9.979697483279496"><ele>238.5</ele><time>2026-05-02T10:47:52.999Z</time></trkpt><trkpt lat="44.61566922640405" lon="9.97986218857021"><ele>239.25</ele><time>2026-05-02T10:47:53.999Z</time></trkpt><trkpt lat="44.615740716086755" lon="9.980035337239878"><ele>240.0</ele><time>2026-05-02T10:47:54.999Z</time></trkpt><trkpt lat="44.615809999299934" lon="9.980210514072368"><ele>240.0</ele><time>2026-05-02T10:47:55.999Z</time></trkpt><trkpt lat="44.61588479452434" lon="9.980392200900797"><ele>240.0</ele><time>2026-05-02T10:47:56.999Z</time></trkpt><trkpt lat="44.61595082758533" lon="9.98058234490552"><ele>240.0</ele><time>2026-05-02T10:47:57.999Z</time></trkpt><trkpt lat="44.61602133924082" lon="9.980770897147828"><ele>237.33333333333331</ele><time>2026-05-02T10:47:58.999Z</time></trkpt><trkpt lat="44.61609681325069" lon="9.980965140376014"><ele>234.66666666666666</ele><time>2026-05-02T10:47:59.999Z</time></trkpt><trkpt lat="44.616165329017214" lon="9.98115686824771"><ele>232.0</ele><time>2026-05-02T10:48:00.999Z</time></trkpt><trkpt lat="44.61622934643477" lon="9.981356503536396"><ele>238.66666666666666</ele><time>2026-05-02T10:48:01.999Z</time></trkpt><trkpt lat="44.61629045660071" lon="9.981550069928621"><ele>245.33333333333331</ele><time>2026-05-02T10:48:02.999Z</time></trkpt><trkpt lat="44.61633236743169" lon="9.981756928377116"><ele>252.0</ele><time>2026-05-02T10:48:03.999Z</time></trkpt><trkpt lat="44.61637532960346" lon="9.981954282380563"><ele>252.0</ele><time>2026-05-02T10:48:04.999Z</time></trkpt><trkpt lat="44.61642388127535" lon="9.9821466190381"><ele>252.0</ele><time>2026-05-02T10:48:05.999Z</time></trkpt><trkpt lat="44.61646712635583" lon="9.98235351290587"><ele>252.0</ele><time>2026-05-02T10:48:06.999Z</time></trkpt><trkpt lat="44.61649667140115" lon="9.982565126757807"><ele>251.5</ele><time>2026-05-02T10:48:07.999Z</time></trkpt><trkpt lat="44.61653096271489" lon="9.982769241893637"><ele>251.0</ele><time>2026-05-02T10:48:08.999Z</time></trkpt><trkpt lat="44.6165335237911" lon="9.982966556699157"><ele>250.5</ele><time>2026-05-02T10:48:09.999Z</time></trkpt><trkpt lat="44.61649360493482" lon="9.983166960283734"><ele>250.0</ele><time>2026-05-02T10:48:10.999Z</time></trkpt><trkpt lat="44.61644489926663" lon="9.983393830039017"><ele>252.66666666666666</ele><time>2026-05-02T10:48:11.999Z</time></trkpt><trkpt lat="44.61640888792604" lon="9.98363684644105"><ele>255.33333333333331</ele><time>2026-05-02T10:48:12.999Z</time></trkpt><trkpt lat="44.61639390101228" lon="9.98389301116552"><ele>258.0</ele><time>2026-05-02T10:48:13.999Z</time></trkpt><trkpt lat="44.61638753076746" lon="9.984129731593075"><ele>258.6666666666667</ele><time>2026-05-02T10:48:14.999Z</time></trkpt><trkpt lat="44.61639331851483" lon="9.984377180587774"><ele>259.33333333333337</ele><time>2026-05-02T10:48:15.999Z</time></trkpt><trkpt lat="44.61640221237146" lon="9.984624242321406"><ele>260.0</ele><time>2026-05-02T10:48:17Z</time></trkpt><trkpt lat="44.61639110783961" lon="9.98485760404481"><ele>263.0</ele><time>2026-05-02T10:48:18Z</time></trkpt><trkpt lat="44.61636240842586" lon="9.98506540012083"><ele>266.0</ele><time>2026-05-02T10:48:19Z</time></trkpt><trkpt lat="44.61631452637036" lon="9.98522695481888"><ele>269.0</ele><time>2026-05-02T10:48:20Z</time></trkpt><trkpt lat="44.616245661878814" lon="9.985351491680355"><ele>272.0</ele><time>2026-05-02T10:48:21Z</time></trkpt><trkpt lat="44.61613655320543" lon="9.98544535378387"><ele>256.0</ele><time>2026-05-02T10:48:22Z</time></trkpt><trkpt lat="44.616005726701644" lon="9.985549682159172"><ele>240.0</ele><time>2026-05-02T10:48:23Z</time></trkpt><trkpt lat="44.61586024081095" lon="9.98566499824348"><ele>224.0</ele><time>2026-05-02T10:48:24Z</time></trkpt><trkpt lat="44.61570281688478" lon="9.985789567414669"><ele>224.33333333333334</ele><time>2026-05-02T10:48:25Z</time></trkpt><trkpt lat="44.615540120675945" lon="9.98591933963657"><ele>224.66666666666669</ele><time>2026-05-02T10:48:26Z</time></trkpt><trkpt lat="44.61537644107103" lon="9.986073937046665"><ele>225.0</ele><time>2026-05-02T10:48:27Z</time></trkpt><trkpt lat="44.6152062757094" lon="9.986208242868843"><ele>223.66666666666669</ele><time>2026-05-02T10:48:28Z</time></trkpt><trkpt lat="44.61503414333359" lon="9.98634698367966"><ele>222.33333333333334</ele><time>2026-05-02T10:48:29Z</time></trkpt><trkpt lat="44.61486319317689" lon="9.986482428274075"><ele>221.0</ele><time>2026-05-02T10:48:30Z</time></trkpt><trkpt lat="44.614691732639315" lon="9.986614421994062"><ele>221.33333333333334</ele><time>2026-05-02T10:48:31Z</time></trkpt><trkpt lat="44.614521403130716" lon="9.986745039655995"><ele>221.66666666666669</ele><time>2026-05-02T10:48:32Z</time></trkpt><trkpt lat="44.61435426268902" lon="9.986877405234592"><ele>222.0</ele><time>2026-05-02T10:48:32.999Z</time></trkpt><trkpt lat="44.61419082330343" lon="9.987005744103795"><ele>223.33333333333331</ele><time>2026-05-02T10:48:33.999Z</time></trkpt><trkpt lat="44.614030626373754" lon="9.987132145382155"><ele>224.66666666666666</ele><time>2026-05-02T10:48:34.999Z</time></trkpt><trkpt lat="44.61387639954022" lon="9.987248890043986"><ele>226.0</ele><time>2026-05-02T10:48:35.999Z</time></trkpt><trkpt lat="44.613743197741016" lon="9.987349853086874"><ele>229.5</ele><time>2026-05-02T10:48:36.999Z</time></trkpt><trkpt lat="44.6136129560087" lon="9.98745787712502"><ele>233.0</ele><time>2026-05-02T10:48:37.999Z</time></trkpt><trkpt lat="44.61350870991365" lon="9.987560561238512"><ele>236.5</ele><time>2026-05-02T10:48:38.999Z</time></trkpt><trkpt lat="44.613445741757396" lon="9.987678359101212"><ele>240.0</ele><time>2026-05-02T10:48:39.999Z</time></trkpt><trkpt lat="44.613411914310205" lon="9.987816977334505"><ele>244.0</ele><time>2026-05-02T10:48:40.999Z</time></trkpt><trkpt lat="44.61341722543207" lon="9.987970709013629"><ele>248.0</ele><time>2026-05-02T10:48:41.999Z</time></trkpt><trkpt lat="44.613459012251454" lon="9.988115443665293"><ele>252.0</ele><time>2026-05-02T10:48:42.999Z</time></trkpt><trkpt lat="44.61353790120954" lon="9.988245734727428"><ele>256.0</ele><time>2026-05-02T10:48:43.999Z</time></trkpt><trkpt lat="44.61364726086797" lon="9.988369424651415"><ele>251.25</ele><time>2026-05-02T10:48:44.999Z</time></trkpt><trkpt lat="44.61375129951468" lon="9.988499518999443"><ele>246.5</ele><time>2026-05-02T10:48:45.999Z</time></trkpt><trkpt lat="44.613806611894454" lon="9.988678265893203"><ele>241.75</ele><time>2026-05-02T10:48:46.999Z</time></trkpt><trkpt lat="44.61383548064598" lon="9.98887869951142"><ele>237.0</ele><time>2026-05-02T10:48:47.999Z</time></trkpt><trkpt lat="44.613860550891054" lon="9.989116871083858"><ele>239.0</ele><time>2026-05-02T10:48:48.999Z</time></trkpt><trkpt lat="44.61388265234984" lon="9.98934659058338"><ele>241.0</ele><time>2026-05-02T10:48:49.999Z</time></trkpt><trkpt lat="44.61390405229672" lon="9.989567342368622"><ele>243.0</ele><time>2026-05-02T10:48:50.999Z</time></trkpt><trkpt lat="44.613933676164706" lon="9.989808613508629"><ele>246.66666666666669</ele><time>2026-05-02T10:48:51.999Z</time></trkpt><trkpt lat="44.61397558383356" lon="9.99006187805334"><ele>250.33333333333334</ele><time>2026-05-02T10:48:52.999Z</time></trkpt><trkpt lat="44.61402533289954" lon="9.990317374704668"><ele>254.0</ele><time>2026-05-02T10:48:53.999Z</time></trkpt><trkpt lat="44.61407364056759" lon="9.990565334870148"><ele>254.0</ele><time>2026-05-02T10:48:54.999Z</time></trkpt><trkpt lat="44.61411632173846" lon="9.990826366977876"><ele>254.0</ele><time>2026-05-02T10:48:55.999Z</time></trkpt><trkpt lat="44.61415786587446" lon="9.991103619106037"><ele>254.0</ele><time>2026-05-02T10:48:56.999Z</time></trkpt><trkpt lat="44.61419234897323" lon="9.991368207285886"><ele>256.0</ele><time>2026-05-02T10:48:57.999Z</time></trkpt><trkpt lat="44.61422758210588" lon="9.991638022418725"><ele>258.0</ele><time>2026-05-02T10:48:58.999Z</time></trkpt><trkpt lat="44.614266922112684" lon="9.991906223256127"><ele>260.0</ele><time>2026-05-02T10:48:59.999Z</time></trkpt><trkpt lat="44.614310100157795" lon="9.99215286223338"><ele>261.33333333333337</ele><time>2026-05-02T10:49:00.999Z</time></trkpt><trkpt lat="44.614356481689754" lon="9.99240045901621"><ele>262.6666666666667</ele><time>2026-05-02T10:49:01.999Z</time></trkpt><trkpt lat="44.61440066272162" lon="9.992645341179626"><ele>264.0</ele><time>2026-05-02T10:49:02.999Z</time></trkpt><trkpt lat="44.61444118464101" lon="9.99287195785595"><ele>264.3333333333333</ele><time>2026-05-02T10:49:03.999Z</time></trkpt><trkpt lat="44.61447877104435" lon="9.993086797544278"><ele>264.66666666666663</ele><time>2026-05-02T10:49:04.999Z</time></trkpt><trkpt lat="44.614513019742155" lon="9.993293839787663"><ele>265.0</ele><time>2026-05-02T10:49:05.999Z</time></trkpt><trkpt lat="44.61455313468262" lon="9.99351960583963"><ele>265.0</ele><time>2026-05-02T10:49:06.999Z</time></trkpt><trkpt lat="44.61461645694623" lon="9.993753543764903"><ele>265.0</ele><time>2026-05-02T10:49:07.999Z</time></trkpt><trkpt lat="44.61471005794862" lon="9.99397703120743"><ele>265.0</ele><time>2026-05-02T10:49:08.999Z</time></trkpt><trkpt lat="44.61480319748852" lon="9.994211236392044"><ele>270.0</ele><time>2026-05-02T10:49:09.999Z</time></trkpt><trkpt lat="44.614886173139645" lon="9.99446089092648"><ele>275.0</ele><time>2026-05-02T10:49:10.999Z</time></trkpt><trkpt lat="44.614975563743855" lon="9.994690664026203"><ele>280.0</ele><time>2026-05-02T10:49:11.999Z</time></trkpt><trkpt lat="44.615060929681164" lon="9.994917441060917"><ele>283.0</ele><time>2026-05-02T10:49:12.999Z</time></trkpt><trkpt lat="44.61515542585263" lon="9.995173334772343"><ele>286.0</ele><time>2026-05-02T10:49:13.999Z</time></trkpt><trkpt lat="44.61522838012991" lon="9.995409830715301"><ele>289.0</ele><time>2026-05-02T10:49:14.999Z</time></trkpt><trkpt lat="44.61528359274622" lon="9.995631765649483"><ele>284.0</ele><time>2026-05-02T10:49:15.999Z</time></trkpt><trkpt lat="44.615337209196966" lon="9.995864002325014"><ele>279.0</ele><time>2026-05-02T10:49:16.999Z</time></trkpt><trkpt lat="44.61541739014769" lon="9.996134567646028"><ele>274.0</ele><time>2026-05-02T10:49:17.999Z</time></trkpt><trkpt lat="44.61553574615208" lon="9.996407677790007"><ele>274.0</ele><time>2026-05-02T10:49:18.999Z</time></trkpt><trkpt lat="44.615667582423896" lon="9.996657738892896"><ele>274.0</ele><time>2026-05-02T10:49:19.999Z</time></trkpt><trkpt lat="44.615735996848436" lon="9.996914172398109"><ele>274.0</ele><time>2026-05-02T10:49:20.999Z</time></trkpt><trkpt lat="44.61580156616029" lon="9.997148168538049"><ele>277.0</ele><time>2026-05-02T10:49:21.999Z</time></trkpt><trkpt lat="44.61586694381482" lon="9.997372513017195"><ele>280.0</ele><time>2026-05-02T10:49:22.999Z</time></trkpt><trkpt lat="44.61595034203632" lon="9.997562499352924"><ele>283.0</ele><time>2026-05-02T10:49:23.999Z</time></trkpt><trkpt lat="44.61604005037584" lon="9.997745751872541"><ele>283.3333333333333</ele><time>2026-05-02T10:49:24.999Z</time></trkpt><trkpt lat="44.61616513905846" lon="9.99791042360283"><ele>283.6666666666667</ele><time>2026-05-02T10:49:25.999Z</time></trkpt><trkpt lat="44.61630444856812" lon="9.998052374537"><ele>284.0</ele><time>2026-05-02T10:49:26.999Z</time></trkpt><trkpt lat="44.61644881046834" lon="9.998168142213174"><ele>284.0</ele><time>2026-05-02T10:49:27.999Z</time></trkpt><trkpt lat="44.61660031075924" lon="9.998249103932846"><ele>284.0</ele><time>2026-05-02T10:49:28.999Z</time></trkpt><trkpt lat="44.61676244856977" lon="9.99830130801788"><ele>284.0</ele><time>2026-05-02T10:49:29.999Z</time></trkpt><trkpt lat="44.616926896666946" lon="9.998328925158207"><ele>288.33333333333337</ele><time>2026-05-02T10:49:30.999Z</time></trkpt><trkpt lat="44.61707911521418" lon="9.998404059234725"><ele>292.6666666666667</ele><time>2026-05-02T10:49:31.999Z</time></trkpt><trkpt lat="44.61723185605867" lon="9.998500586018512"><ele>297.0</ele><time>2026-05-02T10:49:32.999Z</time></trkpt><trkpt lat="44.61738845701434" lon="9.99862110366421"><ele>297.0</ele><time>2026-05-02T10:49:33.999Z</time></trkpt><trkpt lat="44.617560480773136" lon="9.998735694565516"><ele>297.0</ele><time>2026-05-02T10:49:34.999Z</time></trkpt><trkpt lat="44.61771653283385" lon="9.998878037876212"><ele>297.0</ele><time>2026-05-02T10:49:35.999Z</time></trkpt><trkpt lat="44.617868369686114" lon="9.999040517426288"><ele>293.6666666666667</ele><time>2026-05-02T10:49:36.999Z</time></trkpt><trkpt lat="44.61798594519031" lon="9.999236248122742"><ele>290.33333333333337</ele><time>2026-05-02T10:49:37.999Z</time></trkpt><trkpt lat="44.61809991221522" lon="9.99941535665172"><ele>287.0</ele><time>2026-05-02T10:49:38.999Z</time></trkpt><trkpt lat="44.61821739457373" lon="9.999555825559286"><ele>287.0</ele><time>2026-05-02T10:49:39.999Z</time></trkpt><trkpt lat="44.61834513235602" lon="9.99966700948884"><ele>287.0</ele><time>2026-05-02T10:49:40.999Z</time></trkpt><trkpt lat="44.618496874223915" lon="9.999735872228092"><ele>287.0</ele><time>2026-05-02T10:49:41.999Z</time></trkpt><trkpt lat="44.61865769583101" lon="9.999781017987587"><ele>279.6666666666667</ele><time>2026-05-02T10:49:42.999Z</time></trkpt><trkpt lat="44.618811999550324" lon="9.99982076879153"><ele>272.3333333333333</ele><time>2026-05-02T10:49:43.999Z</time></trkpt><trkpt lat="44.61895106586639" lon="9.999893102796326"><ele>265.0</ele><time>2026-05-02T10:49:44.999Z</time></trkpt><trkpt lat="44.61907294419616" lon="10.00002596558382"><ele>265.0</ele><time>2026-05-02T10:49:45.999Z</time></trkpt><trkpt lat="44.61920355409534" lon="10.00016009589975"><ele>265.0</ele><time>2026-05-02T10:49:46.999Z</time></trkpt><trkpt lat="44.619321308534786" lon="10.000328234003643"><ele>265.0</ele><time>2026-05-02T10:49:47.999Z</time></trkpt><trkpt lat="44.61942795654031" lon="10.000495005766462"><ele>260.0</ele><time>2026-05-02T10:49:48.999Z</time></trkpt><trkpt lat="44.6195263253983" lon="10.000665666305505"><ele>255.0</ele><time>2026-05-02T10:49:49.999Z</time></trkpt><trkpt lat="44.61960692525115" lon="10.00084889418313"><ele>250.0</ele><time>2026-05-02T10:49:50.999Z</time></trkpt><trkpt lat="44.619665202159425" lon="10.001034067963753"><ele>250.0</ele><time>2026-05-02T10:49:51.999Z</time></trkpt><trkpt lat="44.61972005677032" lon="10.001196676806277"><ele>250.0</ele><time>2026-05-02T10:49:52.999Z</time></trkpt><trkpt lat="44.61980956818189" lon="10.001315970250799"><ele>250.0</ele><time>2026-05-02T10:49:53.999Z</time></trkpt><trkpt lat="44.61993542553891" lon="10.001401954996213"><ele>250.0</ele><time>2026-05-02T10:49:54.999Z</time></trkpt><trkpt lat="44.620078773988546" lon="10.001475760712124"><ele>250.0</ele><time>2026-05-02T10:49:55.999Z</time></trkpt><trkpt lat="44.62021949538865" lon="10.001559344085111"><ele>250.0</ele><time>2026-05-02T10:49:56.999Z</time></trkpt><trkpt lat="44.62035226381038" lon="10.00164714444253"><ele>250.0</ele><time>2026-05-02T10:49:57.999Z</time></trkpt><trkpt lat="44.62047700420567" lon="10.001732385700322"><ele>250.0</ele><time>2026-05-02T10:49:58.999Z</time></trkpt><trkpt lat="44.620600120475515" lon="10.001805725900494"><ele>251.25</ele><time>2026-05-02T10:49:59.999Z</time></trkpt><trkpt lat="44.62071819412011" lon="10.00184835419615"><ele>252.5</ele><time>2026-05-02T10:50:00.999Z</time></trkpt><trkpt lat="44.62083888780855" lon="10.001860063831492"><ele>253.75</ele><time>2026-05-02T10:50:01.999Z</time></trkpt><trkpt lat="44.62095676705816" lon="10.001886423550532"><ele>255.0</ele><time>2026-05-02T10:50:02.999Z</time></trkpt><trkpt lat="44.621061154204654" lon="10.001948026121887"><ele>255.0</ele><time>2026-05-02T10:50:03.999Z</time></trkpt><trkpt lat="44.62113441030988" lon="10.002094024711624"><ele>255.0</ele><time>2026-05-02T10:50:04.999Z</time></trkpt><trkpt lat="44.621211315777266" lon="10.002258770601847"><ele>255.0</ele><time>2026-05-02T10:50:05.999Z</time></trkpt><trkpt lat="44.621309523519116" lon="10.002430788292106"><ele>255.0</ele><time>2026-05-02T10:50:06.999Z</time></trkpt><trkpt lat="44.621412281301424" lon="10.002586142919888"><ele>254.66666666666669</ele><time>2026-05-02T10:50:07.999Z</time></trkpt><trkpt lat="44.62154378641032" lon="10.002709572932131"><ele>254.33333333333334</ele><time>2026-05-02T10:50:08.999Z</time></trkpt><trkpt lat="44.621675721239306" lon="10.002809441719641"><ele>254.0</ele><time>2026-05-02T10:50:09.999Z</time></trkpt><trkpt lat="44.621808234082394" lon="10.002896069584049"><ele>254.0</ele><time>2026-05-02T10:50:10.999Z</time></trkpt><trkpt lat="44.6219294742105" lon="10.002987208419457"><ele>254.0</ele><time>2026-05-02T10:50:12Z</time></trkpt><trkpt lat="44.62204142648809" lon="10.00306106928653"><ele>254.0</ele><time>2026-05-02T10:50:13Z</time></trkpt><trkpt lat="44.62213233534795" lon="10.003164636294768"><ele>254.0</ele><time>2026-05-02T10:50:14Z</time></trkpt><trkpt lat="44.62222532276306" lon="10.003250908454568"><ele>253.0</ele><time>2026-05-02T10:50:15Z</time></trkpt><trkpt lat="44.622243445931375" lon="10.00342339546797"><ele>252.0</ele><time>2026-05-02T10:50:16Z</time></trkpt><trkpt lat="44.62228543248752" lon="10.003610812156925"><ele>251.0</ele><time>2026-05-02T10:50:17Z</time></trkpt><trkpt lat="44.62231083107564" lon="10.00380923512058"><ele>250.0</ele><time>2026-05-02T10:50:18Z</time></trkpt><trkpt lat="44.622360884108055" lon="10.003999707426068"><ele>250.33333333333331</ele><time>2026-05-02T10:50:19Z</time></trkpt><trkpt lat="44.62242981755297" lon="10.004180790240653"><ele>250.66666666666669</ele><time>2026-05-02T10:50:20Z</time></trkpt><trkpt lat="44.622513835563446" lon="10.004366276676901"><ele>251.0</ele><time>2026-05-02T10:50:21Z</time></trkpt><trkpt lat="44.62260205571087" lon="10.004549946900367"><ele>251.0</ele><time>2026-05-02T10:50:22Z</time></trkpt><trkpt lat="44.622685011926535" lon="10.004740626717089"><ele>251.0</ele><time>2026-05-02T10:50:23Z</time></trkpt><trkpt lat="44.622768334563695" lon="10.004929766772412"><ele>251.0</ele><time>2026-05-02T10:50:24Z</time></trkpt><trkpt lat="44.622854349006225" lon="10.00512297738296"><ele>247.0</ele><time>2026-05-02T10:50:25Z</time></trkpt><trkpt lat="44.62293976703166" lon="10.005315897145612"><ele>243.0</ele><time>2026-05-02T10:50:26Z</time></trkpt><trkpt lat="44.62302703903444" lon="10.005525722625533"><ele>239.0</ele><time>2026-05-02T10:50:27Z</time></trkpt><trkpt lat="44.62312205032805" lon="10.005731998045663"><ele>239.0</ele><time>2026-05-02T10:50:28Z</time></trkpt><trkpt lat="44.6231998653918" lon="10.005924752388951"><ele>239.0</ele><time>2026-05-02T10:50:29Z</time></trkpt><trkpt lat="44.62328171301011" lon="10.006105915058141"><ele>239.0</ele><time>2026-05-02T10:50:30Z</time></trkpt><trkpt lat="44.62335840083276" lon="10.006285302033499"><ele>239.0</ele><time>2026-05-02T10:50:31Z</time></trkpt><trkpt lat="44.62343640303285" lon="10.006457132042334"><ele>239.0</ele><time>2026-05-02T10:50:32Z</time></trkpt><trkpt lat="44.62352266653552" lon="10.00661634760341"><ele>239.0</ele><time>2026-05-02T10:50:33Z</time></trkpt><trkpt lat="44.623625423279066" lon="10.006761082619988"><ele>239.0</ele><time>2026-05-02T10:50:34Z</time></trkpt><trkpt lat="44.62374281695826" lon="10.006892841111082"><ele>236.66666666666669</ele><time>2026-05-02T10:50:35Z</time></trkpt><trkpt lat="44.62386701550158" lon="10.007008053113301"><ele>234.33333333333331</ele><time>2026-05-02T10:50:36Z</time></trkpt><trkpt lat="44.623998121779614" lon="10.007123738966344"><ele>232.0</ele><time>2026-05-02T10:50:37Z</time></trkpt><trkpt lat="44.6241242295615" lon="10.007272697221001"><ele>232.0</ele><time>2026-05-02T10:50:38Z</time></trkpt><trkpt lat="44.62428234736495" lon="10.007426943207733"><ele>232.0</ele><time>2026-05-02T10:50:39Z</time></trkpt><trkpt lat="44.6244579805408" lon="10.00759948626214"><ele>232.0</ele><time>2026-05-02T10:50:40Z</time></trkpt><trkpt lat="44.62463532997537" lon="10.007773716928808"><ele>231.33333333333331</ele><time>2026-05-02T10:50:41Z</time></trkpt><trkpt lat="44.62480771959805" lon="10.007943260980955"><ele>230.66666666666669</ele><time>2026-05-02T10:50:42Z</time></trkpt><trkpt lat="44.624985142367784" lon="10.008096949891657"><ele>230.0</ele><time>2026-05-02T10:50:43Z</time></trkpt><trkpt lat="44.62514610450256" lon="10.00825971726173"><ele>231.66666666666669</ele><time>2026-05-02T10:50:44Z</time></trkpt><trkpt lat="44.62530008117607" lon="10.00841148554734"><ele>233.33333333333331</ele><time>2026-05-02T10:50:45Z</time></trkpt><trkpt lat="44.625443490466886" lon="10.008553931888335"><ele>235.0</ele><time>2026-05-02T10:50:46Z</time></trkpt><trkpt lat="44.62558198397361" lon="10.00868525452995"><ele>231.0</ele><time>2026-05-02T10:50:47Z</time></trkpt><trkpt lat="44.62571592054159" lon="10.00881522495554"><ele>227.0</ele><time>2026-05-02T10:50:48Z</time></trkpt><trkpt lat="44.62584480536298" lon="10.008943494977407"><ele>223.0</ele><time>2026-05-02T10:50:49Z</time></trkpt><trkpt lat="44.625959504957095" lon="10.00908626115156"><ele>221.75</ele><time>2026-05-02T10:50:50Z</time></trkpt><trkpt lat="44.62606136399382" lon="10.009233332643197"><ele>220.5</ele><time>2026-05-02T10:50:51Z</time></trkpt><trkpt lat="44.626154804584615" lon="10.009382372776024"><ele>219.25</ele><time>2026-05-02T10:50:52Z</time></trkpt><trkpt lat="44.626227786367565" lon="10.009521707355667"><ele>218.0</ele><time>2026-05-02T10:50:53Z</time></trkpt><trkpt lat="44.62627183724432" lon="10.009630890172627"><ele>218.00000000000003</ele><time>2026-05-02T10:50:54Z</time></trkpt><trkpt lat="44.62629854921415" lon="10.009715340617946"><ele>218.0</ele><time>2026-05-02T10:50:55Z</time></trkpt><trkpt lat="44.62630252664852" lon="10.009815531142596"><ele>218.0</ele><time>2026-05-02T10:50:57Z</time></trkpt><trkpt lat="44.62621404947175" lon="10.009851763326825"><ele>218.0</ele><time>2026-05-02T10:51:00Z</time></trkpt><trkpt lat="44.62616452013922" lon="10.009785474320594"><ele>218.00000000000003</ele><time>2026-05-02T10:51:02Z</time></trkpt><trkpt lat="44.62613644135951" lon="10.009695826338927"><ele>218.0</ele><time>2026-05-02T10:51:09Z</time></trkpt><trkpt lat="44.62608832292467" lon="10.009598928827216"><ele>218.0</ele><time>2026-05-02T10:54:16.999Z</time></trkpt><trkpt lat="44.626204906113635" lon="10.009410701603985"><ele>218.0</ele><time>2026-05-02T10:54:18.001Z</time></trkpt><trkpt lat="44.62598913123" lon="10.009598950320157"><ele>218.0</ele><time>2026-05-02T10:54:21.001Z</time></trkpt><trkpt lat="44.62608236873549" lon="10.009619731104356"><ele>218.00000000000003</ele><time>2026-05-02T10:54:22.001Z</time></trkpt><trkpt lat="44.62614353197423" lon="10.009712547637067"><ele>218.0</ele><time>2026-05-02T10:54:24.001Z</time></trkpt><trkpt lat="44.62619027345006" lon="10.009794591282217"><ele>218.0</ele><time>2026-05-02T10:54:26.001Z</time></trkpt><trkpt lat="44.626247801510296" lon="10.009851233973706"><ele>218.0</ele><time>2026-05-02T10:58:10.999Z</time></trkpt><trkpt lat="44.626317453298135" lon="10.009807248683865"><ele>218.00000000000003</ele><time>2026-05-02T10:58:12.999Z</time></trkpt><trkpt lat="44.626408737777474" lon="10.00978554011893"><ele>218.0</ele><time>2026-05-02T10:58:18.999Z</time></trkpt><trkpt lat="44.62648173393975" lon="10.00996784503893"><ele>218.2</ele><time>2026-05-02T10:58:20.999Z</time></trkpt><trkpt lat="44.62654968482279" lon="10.010064749490583"><ele>218.4</ele><time>2026-05-02T10:58:21.999Z</time></trkpt><trkpt lat="44.626603817763254" lon="10.010189635519017"><ele>218.59999999999997</ele><time>2026-05-02T10:58:22.999Z</time></trkpt><trkpt lat="44.62666417666839" lon="10.01031240583274"><ele>218.79999999999998</ele><time>2026-05-02T10:58:23.999Z</time></trkpt><trkpt lat="44.62672957246603" lon="10.010447036151465"><ele>219.0</ele><time>2026-05-02T10:58:24.999Z</time></trkpt><trkpt lat="44.62680533373242" lon="10.010597898318215"><ele>219.0</ele><time>2026-05-02T10:58:25.999Z</time></trkpt><trkpt lat="44.62688326443874" lon="10.01076030795712"><ele>219.0</ele><time>2026-05-02T10:58:26.999Z</time></trkpt><trkpt lat="44.62696630195861" lon="10.010927462037868"><ele>219.0</ele><time>2026-05-02T10:58:27.999Z</time></trkpt><trkpt lat="44.62704675616295" lon="10.011084153860269"><ele>219.0</ele><time>2026-05-02T10:58:28.999Z</time></trkpt><trkpt lat="44.627141320533276" lon="10.011245432164907"><ele>218.0</ele><time>2026-05-02T10:58:30Z</time></trkpt><trkpt lat="44.62724750995987" lon="10.011411970636193"><ele>217.0</ele><time>2026-05-02T10:58:31Z</time></trkpt><trkpt lat="44.627356491769696" lon="10.011575219931618"><ele>216.0</ele><time>2026-05-02T10:58:32Z</time></trkpt><trkpt lat="44.62747150364578" lon="10.011742616102387"><ele>218.66666666666669</ele><time>2026-05-02T10:58:33Z</time></trkpt><trkpt lat="44.627589930324696" lon="10.011919255755405"><ele>221.33333333333334</ele><time>2026-05-02T10:58:34Z</time></trkpt><trkpt lat="44.62770628513566" lon="10.012091174677622"><ele>224.0</ele><time>2026-05-02T10:58:35Z</time></trkpt><trkpt lat="44.627825456032916" lon="10.012266749578687"><ele>222.33333333333334</ele><time>2026-05-02T10:58:36Z</time></trkpt><trkpt lat="44.62794080555642" lon="10.012443459474445"><ele>220.66666666666669</ele><time>2026-05-02T10:58:37Z</time></trkpt><trkpt lat="44.62805326933576" lon="10.012612163775874"><ele>219.0</ele><time>2026-05-02T10:58:38Z</time></trkpt><trkpt lat="44.62816121626295" lon="10.012778595743786"><ele>219.0</ele><time>2026-05-02T10:58:39Z</time></trkpt><trkpt lat="44.62827146646036" lon="10.012937104489419"><ele>219.0</ele><time>2026-05-02T10:58:40Z</time></trkpt><trkpt lat="44.62839180582309" lon="10.013057276717202"><ele>219.0</ele><time>2026-05-02T10:58:41Z</time></trkpt><trkpt lat="44.62852641894461" lon="10.013149820067989"><ele>218.25</ele><time>2026-05-02T10:58:42Z</time></trkpt><trkpt lat="44.628671426215824" lon="10.013200420291657"><ele>217.5</ele><time>2026-05-02T10:58:43Z</time></trkpt><trkpt lat="44.62880584170878" lon="10.013238634646122"><ele>216.75</ele><time>2026-05-02T10:58:44Z</time></trkpt><trkpt lat="44.628919853775535" lon="10.013288411709613"><ele>216.0</ele><time>2026-05-02T10:58:45Z</time></trkpt><trkpt lat="44.62900737170811" lon="10.01337308943709"><ele>216.0</ele><time>2026-05-02T10:58:46Z</time></trkpt><trkpt lat="44.62905861562807" lon="10.013517181217434"><ele>216.0</ele><time>2026-05-02T10:58:47Z</time></trkpt><trkpt lat="44.629086212692435" lon="10.013678768439208"><ele>216.0</ele><time>2026-05-02T10:58:48Z</time></trkpt><trkpt lat="44.62906597480031" lon="10.013855603781453"><ele>216.0</ele><time>2026-05-02T10:58:49Z</time></trkpt><trkpt lat="44.62904215405376" lon="10.014079590149281"><ele>217.33333333333331</ele><time>2026-05-02T10:58:50Z</time></trkpt><trkpt lat="44.62901733592491" lon="10.014337511935576"><ele>218.66666666666666</ele><time>2026-05-02T10:58:51Z</time></trkpt><trkpt lat="44.62899065642091" lon="10.014611674919248"><ele>220.0</ele><time>2026-05-02T10:58:52Z</time></trkpt><trkpt lat="44.62896373908291" lon="10.014884715019912"><ele>217.66666666666666</ele><time>2026-05-02T10:58:53Z</time></trkpt><trkpt lat="44.6289388178572" lon="10.015145684064933"><ele>215.33333333333331</ele><time>2026-05-02T10:58:54Z</time></trkpt><trkpt lat="44.62891407128954" lon="10.015404652325737"><ele>213.0</ele><time>2026-05-02T10:58:55Z</time></trkpt><trkpt lat="44.62888901121204" lon="10.015663268501122"><ele>212.33333333333331</ele><time>2026-05-02T10:58:56Z</time></trkpt><trkpt lat="44.62886377891538" lon="10.015923661875549"><ele>211.66666666666666</ele><time>2026-05-02T10:58:57Z</time></trkpt><trkpt lat="44.62883771059231" lon="10.016192682979431"><ele>211.0</ele><time>2026-05-02T10:58:58Z</time></trkpt><trkpt lat="44.62882721625227" lon="10.016471324458422"><ele>210.33333333333331</ele><time>2026-05-02T10:58:59Z</time></trkpt><trkpt lat="44.62879419433521" lon="10.016747101562117"><ele>209.66666666666669</ele><time>2026-05-02T10:59:00Z</time></trkpt><trkpt lat="44.62876223205245" lon="10.017032691955151"><ele>209.0</ele><time>2026-05-02T10:59:01Z</time></trkpt><trkpt lat="44.628739275314594" lon="10.017323794776841"><ele>208.66666666666669</ele><time>2026-05-02T10:59:02Z</time></trkpt><trkpt lat="44.62871324797773" lon="10.01761650350402"><ele>208.33333333333331</ele><time>2026-05-02T10:59:03Z</time></trkpt><trkpt lat="44.62868474144709" lon="10.017905021237295"><ele>208.0</ele><time>2026-05-02T10:59:04Z</time></trkpt><trkpt lat="44.628652071899694" lon="10.018186869921049"><ele>207.66666666666666</ele><time>2026-05-02T10:59:05Z</time></trkpt><trkpt lat="44.62863372938804" lon="10.018462429342799"><ele>207.33333333333331</ele><time>2026-05-02T10:59:06Z</time></trkpt><trkpt lat="44.628634357889595" lon="10.0187381840726"><ele>207.0</ele><time>2026-05-02T10:59:07Z</time></trkpt><trkpt lat="44.628653953675" lon="10.01902628675767"><ele>205.66666666666669</ele><time>2026-05-02T10:59:08Z</time></trkpt><trkpt lat="44.628691566424045" lon="10.019314682267138"><ele>204.33333333333334</ele><time>2026-05-02T10:59:09Z</time></trkpt><trkpt lat="44.62874854805563" lon="10.019606435315271"><ele>203.0</ele><time>2026-05-02T10:59:10Z</time></trkpt><trkpt lat="44.62880887253466" lon="10.019890087147303"><ele>202.66666666666669</ele><time>2026-05-02T10:59:11Z</time></trkpt><trkpt lat="44.62886393349594" lon="10.02015689887236"><ele>202.33333333333331</ele><time>2026-05-02T10:59:12Z</time></trkpt><trkpt lat="44.62889743294591" lon="10.02041606735839"><ele>202.0</ele><time>2026-05-02T10:59:13Z</time></trkpt><trkpt lat="44.62894307351552" lon="10.020649746483183"><ele>203.33333333333331</ele><time>2026-05-02T10:59:14Z</time></trkpt><trkpt lat="44.62902889916468" lon="10.02086765446377"><ele>204.66666666666669</ele><time>2026-05-02T10:59:15Z</time></trkpt><trkpt lat="44.62912221149147" lon="10.021085779166468"><ele>206.0</ele><time>2026-05-02T10:59:16Z</time></trkpt><trkpt lat="44.62923694154353" lon="10.021303310198673"><ele>206.0</ele><time>2026-05-02T10:59:17Z</time></trkpt><trkpt lat="44.62931768020994" lon="10.021562525821702"><ele>206.0</ele><time>2026-05-02T10:59:18Z</time></trkpt><trkpt lat="44.62940041639303" lon="10.021827832464728"><ele>206.0</ele><time>2026-05-02T10:59:19Z</time></trkpt><trkpt lat="44.62947326037423" lon="10.02206762644558"><ele>205.66666666666669</ele><time>2026-05-02T10:59:20Z</time></trkpt><trkpt lat="44.62954775317033" lon="10.022297831151317"><ele>205.33333333333331</ele><time>2026-05-02T10:59:21Z</time></trkpt><trkpt lat="44.629640106519936" lon="10.022513337048265"><ele>205.0</ele><time>2026-05-02T10:59:22Z</time></trkpt><trkpt lat="44.6297358002501" lon="10.022698942583304"><ele>205.0</ele><time>2026-05-02T10:59:23Z</time></trkpt><trkpt lat="44.6298281579121" lon="10.02286158475322"><ele>205.0</ele><time>2026-05-02T10:59:24Z</time></trkpt><trkpt lat="44.629914607020076" lon="10.023019985959605"><ele>205.0</ele><time>2026-05-02T10:59:25Z</time></trkpt><trkpt lat="44.629970985342034" lon="10.023176449340488"><ele>205.0</ele><time>2026-05-02T10:59:26Z</time></trkpt><trkpt lat="44.63000604236453" lon="10.023366773261724"><ele>203.0</ele><time>2026-05-02T10:59:27Z</time></trkpt><trkpt lat="44.63008508150854" lon="10.023530812913208"><ele>201.0</ele><time>2026-05-02T10:59:28Z</time></trkpt><trkpt lat="44.63019166913636" lon="10.0237048389276"><ele>199.0</ele><time>2026-05-02T10:59:29Z</time></trkpt><trkpt lat="44.63033873498787" lon="10.023882719239083"><ele>199.0</ele><time>2026-05-02T10:59:30Z</time></trkpt><trkpt lat="44.63047258907053" lon="10.024082161421028"><ele>199.0</ele><time>2026-05-02T10:59:31Z</time></trkpt><trkpt lat="44.63062420251312" lon="10.024284124260216"><ele>199.0</ele><time>2026-05-02T10:59:32Z</time></trkpt><trkpt lat="44.63076815395623" lon="10.024477381130774"><ele>199.66666666666666</ele><time>2026-05-02T10:59:33Z</time></trkpt><trkpt lat="44.63091252495224" lon="10.024675048482646"><ele>200.33333333333331</ele><time>2026-05-02T10:59:34Z</time></trkpt><trkpt lat="44.63106704815716" lon="10.024859695891632"><ele>201.0</ele><time>2026-05-02T10:59:35Z</time></trkpt><trkpt lat="44.63119608266037" lon="10.02509815594614"><ele>201.0</ele><time>2026-05-02T10:59:36Z</time></trkpt><trkpt lat="44.631334279812855" lon="10.025351245138019"><ele>201.0</ele><time>2026-05-02T10:59:37Z</time></trkpt><trkpt lat="44.631478128674004" lon="10.025623750072167"><ele>205.0</ele><time>2026-05-02T10:59:37.999Z</time></trkpt><trkpt lat="44.63162307949892" lon="10.025896398610307"><ele>209.0</ele><time>2026-05-02T10:59:38.999Z</time></trkpt><trkpt lat="44.63177090257016" lon="10.026173342185809"><ele>209.0</ele><time>2026-05-02T10:59:39.999Z</time></trkpt><trkpt lat="44.631934099399174" lon="10.026439042437469"><ele>209.0</ele><time>2026-05-02T10:59:40.999Z</time></trkpt><trkpt lat="44.632072478771285" lon="10.026735571961442"><ele>204.5</ele><time>2026-05-02T10:59:41.999Z</time></trkpt><trkpt lat="44.63222627343397" lon="10.027019559786439"><ele>200.0</ele><time>2026-05-02T10:59:42.999Z</time></trkpt><trkpt lat="44.63238152224841" lon="10.027306094789298"><ele>203.0</ele><time>2026-05-02T10:59:43.999Z</time></trkpt><trkpt lat="44.63253772440015" lon="10.027594064741741"><ele>206.0</ele><time>2026-05-02T10:59:44.999Z</time></trkpt><trkpt lat="44.6326924668144" lon="10.027879337618216"><ele>202.0</ele><time>2026-05-02T10:59:45.999Z</time></trkpt><trkpt lat="44.632843292908134" lon="10.028157390627657"><ele>198.0</ele><time>2026-05-02T10:59:46.999Z</time></trkpt><trkpt lat="44.63298947467847" lon="10.028426881637943"><ele>198.0</ele><time>2026-05-02T10:59:47.999Z</time></trkpt><trkpt lat="44.63313276165851" lon="10.028700765400552"><ele>198.0</ele><time>2026-05-02T10:59:48.999Z</time></trkpt><trkpt lat="44.633260770069136" lon="10.028981942070153"><ele>202.5</ele><time>2026-05-02T10:59:49.999Z</time></trkpt><trkpt lat="44.63338290848235" lon="10.029263387318503"><ele>207.0</ele><time>2026-05-02T10:59:50.999Z</time></trkpt><trkpt lat="44.63349970185097" lon="10.029532516099756"><ele>207.0</ele><time>2026-05-02T10:59:51.999Z</time></trkpt><trkpt lat="44.63361552431127" lon="10.029798074829642"><ele>207.0</ele><time>2026-05-02T10:59:52.999Z</time></trkpt><trkpt lat="44.63373255742539" lon="10.030066334650998"><ele>207.0</ele><time>2026-05-02T10:59:53.999Z</time></trkpt><trkpt lat="44.63384684040608" lon="10.030340738275024"><ele>205.0</ele><time>2026-05-02T10:59:54.999Z</time></trkpt><trkpt lat="44.63394835139154" lon="10.030629033110142"><ele>203.0</ele><time>2026-05-02T10:59:55.999Z</time></trkpt><trkpt lat="44.63403732848262" lon="10.030928024393466"><ele>203.0</ele><time>2026-05-02T10:59:56.999Z</time></trkpt><trkpt lat="44.63411778989962" lon="10.031229423663577"><ele>203.0</ele><time>2026-05-02T10:59:57.999Z</time></trkpt><trkpt lat="44.63419391271899" lon="10.031531669258433"><ele>204.33333333333334</ele><time>2026-05-02T10:59:58.999Z</time></trkpt><trkpt lat="44.63427068811569" lon="10.03182740724039"><ele>205.66666666666669</ele><time>2026-05-02T10:59:59.999Z</time></trkpt><trkpt lat="44.63435776607715" lon="10.032102812147176"><ele>207.0</ele><time>2026-05-02T11:00:00.999Z</time></trkpt><trkpt lat="44.63442291023271" lon="10.032366449857768"><ele>204.33333333333331</ele><time>2026-05-02T11:00:01.999Z</time></trkpt><trkpt lat="44.63448683698005" lon="10.032606442798315"><ele>201.66666666666666</ele><time>2026-05-02T11:00:02.999Z</time></trkpt><trkpt lat="44.6345492868163" lon="10.032809959860135"><ele>199.0</ele><time>2026-05-02T11:00:03.999Z</time></trkpt><trkpt lat="44.63461871118103" lon="10.032982917010674"><ele>199.0</ele><time>2026-05-02T11:00:04.999Z</time></trkpt><trkpt lat="44.63467059550161" lon="10.033153099796843"><ele>199.0</ele><time>2026-05-02T11:00:05.999Z</time></trkpt><trkpt lat="44.63472767222711" lon="10.033306228471021"><ele>199.0</ele><time>2026-05-02T11:00:06.999Z</time></trkpt><trkpt lat="44.63478531745909" lon="10.033460882367491"><ele>199.0</ele><time>2026-05-02T11:00:07.999Z</time></trkpt><trkpt lat="44.6349162821246" lon="10.033570610397824"><ele>199.5</ele><time>2026-05-02T11:00:08.999Z</time></trkpt><trkpt lat="44.63499633074936" lon="10.03372961681066"><ele>200.0</ele><time>2026-05-02T11:00:09.999Z</time></trkpt><trkpt lat="44.63508199013432" lon="10.033893684295418"><ele>200.5</ele><time>2026-05-02T11:00:10.999Z</time></trkpt><trkpt lat="44.635176821860014" lon="10.034063707251418"><ele>201.0</ele><time>2026-05-02T11:00:11.999Z</time></trkpt><trkpt lat="44.63527001355817" lon="10.034243739043388"><ele>199.66666666666669</ele><time>2026-05-02T11:00:12.999Z</time></trkpt><trkpt lat="44.63537207286775" lon="10.034428035514175"><ele>198.33333333333334</ele><time>2026-05-02T11:00:13.999Z</time></trkpt><trkpt lat="44.635486117413336" lon="10.034595241647615"><ele>197.0</ele><time>2026-05-02T11:00:14.999Z</time></trkpt><trkpt lat="44.635604266716214" lon="10.034744723184788"><ele>197.0</ele><time>2026-05-02T11:00:15.999Z</time></trkpt><trkpt lat="44.63574704538377" lon="10.034873731662438"><ele>197.0</ele><time>2026-05-02T11:00:16.999Z</time></trkpt><trkpt lat="44.635902334505445" lon="10.03498409885594"><ele>197.0</ele><time>2026-05-02T11:00:17.999Z</time></trkpt><trkpt lat="44.63606960965436" lon="10.035087764154152"><ele>196.66666666666669</ele><time>2026-05-02T11:00:18.999Z</time></trkpt><trkpt lat="44.63623565187" lon="10.035200680261498"><ele>196.33333333333331</ele><time>2026-05-02T11:00:19.999Z</time></trkpt><trkpt lat="44.63640113486976" lon="10.03531452704879"><ele>196.0</ele><time>2026-05-02T11:00:20.999Z</time></trkpt><trkpt lat="44.63656065788631" lon="10.035437179364472"><ele>196.0</ele><time>2026-05-02T11:00:21.999Z</time></trkpt><trkpt lat="44.63670137726339" lon="10.035562016118027"><ele>196.0</ele><time>2026-05-02T11:00:22.999Z</time></trkpt><trkpt lat="44.636831685068074" lon="10.035718210157885"><ele>196.0</ele><time>2026-05-02T11:00:23.999Z</time></trkpt><trkpt lat="44.636950921978986" lon="10.035908618579858"><ele>194.66666666666666</ele><time>2026-05-02T11:00:24.999Z</time></trkpt><trkpt lat="44.63706719907746" lon="10.03612032582662"><ele>193.33333333333331</ele><time>2026-05-02T11:00:25.999Z</time></trkpt><trkpt lat="44.6371859423771" lon="10.03633742722231"><ele>192.0</ele><time>2026-05-02T11:00:26.999Z</time></trkpt><trkpt lat="44.63730466807711" lon="10.036564659926603"><ele>194.0</ele><time>2026-05-02T11:00:27.999Z</time></trkpt><trkpt lat="44.637430974087465" lon="10.03680008808"><ele>196.0</ele><time>2026-05-02T11:00:28.999Z</time></trkpt><trkpt lat="44.637567175864646" lon="10.037036565649045"><ele>198.0</ele><time>2026-05-02T11:00:29.999Z</time></trkpt><trkpt lat="44.63770488373622" lon="10.037273331297449"><ele>196.33333333333331</ele><time>2026-05-02T11:00:30.999Z</time></trkpt><trkpt lat="44.63784327092123" lon="10.037509091651968"><ele>194.66666666666666</ele><time>2026-05-02T11:00:31.999Z</time></trkpt><trkpt lat="44.63798396657406" lon="10.03775052997862"><ele>193.0</ele><time>2026-05-02T11:00:32.999Z</time></trkpt><trkpt lat="44.63812450748031" lon="10.037984914685689"><ele>193.0</ele><time>2026-05-02T11:00:33.999Z</time></trkpt><trkpt lat="44.638272218563834" lon="10.03822996468939"><ele>193.0</ele><time>2026-05-02T11:00:34.999Z</time></trkpt><trkpt lat="44.63842287271078" lon="10.038480290902699"><ele>191.5</ele><time>2026-05-02T11:00:36Z</time></trkpt><trkpt lat="44.638574990164344" lon="10.03873231456901"><ele>190.0</ele><time>2026-05-02T11:00:37Z</time></trkpt><trkpt lat="44.63872860478123" lon="10.038987560108767"><ele>192.5</ele><time>2026-05-02T11:00:38Z</time></trkpt><trkpt lat="44.63888261558902" lon="10.039244511575173"><ele>195.0</ele><time>2026-05-02T11:00:39Z</time></trkpt><trkpt lat="44.63904162904196" lon="10.039505231225311"><ele>195.0</ele><time>2026-05-02T11:00:40Z</time></trkpt><trkpt lat="44.63920181167782" lon="10.039771003893144"><ele>195.0</ele><time>2026-05-02T11:00:41Z</time></trkpt><trkpt lat="44.6393625257605" lon="10.040042379802891"><ele>192.5</ele><time>2026-05-02T11:00:42Z</time></trkpt><trkpt lat="44.63951864268378" lon="10.040315362593628"><ele>190.0</ele><time>2026-05-02T11:00:43Z</time></trkpt><trkpt lat="44.63967777387733" lon="10.04059210938422"><ele>191.0</ele><time>2026-05-02T11:00:44Z</time></trkpt><trkpt lat="44.63983671108716" lon="10.04087357930906"><ele>192.0</ele><time>2026-05-02T11:00:45Z</time></trkpt><trkpt lat="44.639993536044535" lon="10.04115662593619"><ele>192.0</ele><time>2026-05-02T11:00:46Z</time></trkpt><trkpt lat="44.640154502271706" lon="10.041446994953995"><ele>192.0</ele><time>2026-05-02T11:00:47Z</time></trkpt><trkpt lat="44.64031401480756" lon="10.04173118982215"><ele>190.5</ele><time>2026-05-02T11:00:48Z</time></trkpt><trkpt lat="44.64047060686205" lon="10.04201214854708"><ele>189.0</ele><time>2026-05-02T11:00:49Z</time></trkpt><trkpt lat="44.64063009896642" lon="10.042281192614691"><ele>190.5</ele><time>2026-05-02T11:00:50Z</time></trkpt><trkpt lat="44.64079226959938" lon="10.042540522073507"><ele>192.0</ele><time>2026-05-02T11:00:51Z</time></trkpt><trkpt lat="44.64095863264913" lon="10.042793266135746"><ele>192.0</ele><time>2026-05-02T11:00:52Z</time></trkpt><trkpt lat="44.64113101904955" lon="10.043038006246272"><ele>192.0</ele><time>2026-05-02T11:00:53Z</time></trkpt><trkpt lat="44.64130629240392" lon="10.043287201780123"><ele>191.5</ele><time>2026-05-02T11:00:54Z</time></trkpt><trkpt lat="44.6414872415352" lon="10.043535969013359"><ele>191.0</ele><time>2026-05-02T11:00:55Z</time></trkpt><trkpt lat="44.641671595443164" lon="10.04377586312707"><ele>191.0</ele><time>2026-05-02T11:00:56Z</time></trkpt><trkpt lat="44.64185689901889" lon="10.044013413307518"><ele>191.0</ele><time>2026-05-02T11:00:57Z</time></trkpt><trkpt lat="44.64204300194332" lon="10.044247405941125"><ele>190.5</ele><time>2026-05-02T11:00:58Z</time></trkpt><trkpt lat="44.642224733922795" lon="10.044482567954047"><ele>190.0</ele><time>2026-05-02T11:00:59Z</time></trkpt><trkpt lat="44.64239528946739" lon="10.044702620300992"><ele>190.0</ele><time>2026-05-02T11:01:00Z</time></trkpt><trkpt lat="44.64255678404504" lon="10.044908369369251"><ele>190.0</ele><time>2026-05-02T11:01:01Z</time></trkpt><trkpt lat="44.64271854005397" lon="10.04509974097615"><ele>190.0</ele><time>2026-05-02T11:01:02Z</time></trkpt><trkpt lat="44.64288113563737" lon="10.045265225272606"><ele>189.66666666666669</ele><time>2026-05-02T11:01:03Z</time></trkpt><trkpt lat="44.64306830194276" lon="10.045419639899562"><ele>189.33333333333334</ele><time>2026-05-02T11:01:04Z</time></trkpt><trkpt lat="44.6432663499107" lon="10.045559248659208"><ele>189.0</ele><time>2026-05-02T11:01:05Z</time></trkpt><trkpt lat="44.64346383102556" lon="10.045691558621819"><ele>189.66666666666666</ele><time>2026-05-02T11:01:06Z</time></trkpt><trkpt lat="44.643653280858565" lon="10.045820805214497"><ele>190.33333333333331</ele><time>2026-05-02T11:01:07Z</time></trkpt><trkpt lat="44.64382699617241" lon="10.045944456740223"><ele>191.0</ele><time>2026-05-02T11:01:08Z</time></trkpt><trkpt lat="44.6439995738554" lon="10.046057337473789"><ele>191.0</ele><time>2026-05-02T11:01:09Z</time></trkpt><trkpt lat="44.644181144896265" lon="10.046134958641872"><ele>191.0</ele><time>2026-05-02T11:01:10Z</time></trkpt><trkpt lat="44.64437656698187" lon="10.04617998599588"><ele>191.0</ele><time>2026-05-02T11:01:11Z</time></trkpt><trkpt lat="44.644585797778575" lon="10.046190992252138"><ele>190.33333333333331</ele><time>2026-05-02T11:01:12Z</time></trkpt><trkpt lat="44.644795620834216" lon="10.046183748916317"><ele>189.66666666666666</ele><time>2026-05-02T11:01:13Z</time></trkpt><trkpt lat="44.645006095001634" lon="10.046180390669303"><ele>189.0</ele><time>2026-05-02T11:01:14Z</time></trkpt><trkpt lat="44.64521607619554" lon="10.046204292847607"><ele>188.0</ele><time>2026-05-02T11:01:15Z</time></trkpt><trkpt lat="44.64542837928774" lon="10.046254736515097"><ele>187.0</ele><time>2026-05-02T11:01:16Z</time></trkpt><trkpt lat="44.645638779948776" lon="10.04635771693224"><ele>186.0</ele><time>2026-05-02T11:01:17Z</time></trkpt><trkpt lat="44.64585801161896" lon="10.046429194717582"><ele>186.0</ele><time>2026-05-02T11:01:18Z</time></trkpt><trkpt lat="44.64607217995327" lon="10.046520348509723"><ele>186.0</ele><time>2026-05-02T11:01:19Z</time></trkpt><trkpt lat="44.646290738342266" lon="10.046616684492712"><ele>187.5</ele><time>2026-05-02T11:01:20Z</time></trkpt><trkpt lat="44.646504632132995" lon="10.046729567246917"><ele>189.0</ele><time>2026-05-02T11:01:21Z</time></trkpt><trkpt lat="44.64671817291533" lon="10.046853555620356"><ele>189.0</ele><time>2026-05-02T11:01:22Z</time></trkpt><trkpt lat="44.64693380713034" lon="10.046971956725203"><ele>189.0</ele><time>2026-05-02T11:01:23Z</time></trkpt><trkpt lat="44.647152786147224" lon="10.047069659122226"><ele>186.5</ele><time>2026-05-02T11:01:24Z</time></trkpt><trkpt lat="44.647379164063" lon="10.047143225039985"><ele>184.0</ele><time>2026-05-02T11:01:25Z</time></trkpt><trkpt lat="44.64761222560719" lon="10.047206103406642"><ele>182.0</ele><time>2026-05-02T11:01:26Z</time></trkpt><trkpt lat="44.64784376329814" lon="10.047271174492927"><ele>180.0</ele><time>2026-05-02T11:01:27Z</time></trkpt><trkpt lat="44.648075721280506" lon="10.047335551348016"><ele>180.0</ele><time>2026-05-02T11:01:27.999Z</time></trkpt><trkpt lat="44.648311404778966" lon="10.047402173542608"><ele>180.0</ele><time>2026-05-02T11:01:28.999Z</time></trkpt><trkpt lat="44.648550901849276" lon="10.047472019722587"><ele>182.5</ele><time>2026-05-02T11:01:29.999Z</time></trkpt><trkpt lat="44.64878844951568" lon="10.047548835052272"><ele>185.0</ele><time>2026-05-02T11:01:30.999Z</time></trkpt><trkpt lat="44.64902837183285" lon="10.047635493675088"><ele>185.0</ele><time>2026-05-02T11:01:31.999Z</time></trkpt><trkpt lat="44.6492617612649" lon="10.047731499823637"><ele>185.0</ele><time>2026-05-02T11:01:32.999Z</time></trkpt><trkpt lat="44.64949864226566" lon="10.047840735311048"><ele>184.0</ele><time>2026-05-02T11:01:33.999Z</time></trkpt><trkpt lat="44.64973059962295" lon="10.047956092929798"><ele>183.0</ele><time>2026-05-02T11:01:34.999Z</time></trkpt><trkpt lat="44.649956943601396" lon="10.048080060471369"><ele>183.0</ele><time>2026-05-02T11:01:35.999Z</time></trkpt><trkpt lat="44.650182923270386" lon="10.048210385371611"><ele>183.0</ele><time>2026-05-02T11:01:36.999Z</time></trkpt><trkpt lat="44.65040516997805" lon="10.048350544781668"><ele>183.5</ele><time>2026-05-02T11:01:37.999Z</time></trkpt><trkpt lat="44.65062668424577" lon="10.048496648219993"><ele>184.0</ele><time>2026-05-02T11:01:38.999Z</time></trkpt><trkpt lat="44.6508492798272" lon="10.048657596612648"><ele>184.0</ele><time>2026-05-02T11:01:39.999Z</time></trkpt><trkpt lat="44.651066875594935" lon="10.048827133728123"><ele>184.0</ele><time>2026-05-02T11:01:40.999Z</time></trkpt><trkpt lat="44.65128674965468" lon="10.04899936125308"><ele>186.5</ele><time>2026-05-02T11:01:41.999Z</time></trkpt><trkpt lat="44.651505983088605" lon="10.049194942369947"><ele>189.0</ele><time>2026-05-02T11:01:42.999Z</time></trkpt><trkpt lat="44.65171678516451" lon="10.049392844705755"><ele>189.0</ele><time>2026-05-02T11:01:43.999Z</time></trkpt><trkpt lat="44.65192370252799" lon="10.049600626219583"><ele>189.0</ele><time>2026-05-02T11:01:45.022Z</time></trkpt><trkpt lat="44.65211788321491" lon="10.049800069664292"><ele>191.0</ele><time>2026-05-02T11:01:46.019Z</time></trkpt><trkpt lat="44.65230027576603" lon="10.050004007392102"><ele>193.0</ele><time>2026-05-02T11:01:46.999Z</time></trkpt><trkpt lat="44.65247022442772" lon="10.050265355343338"><ele>193.0</ele><time>2026-05-02T11:01:47.999Z</time></trkpt><trkpt lat="44.65266159683817" lon="10.050488668767986"><ele>193.0</ele><time>2026-05-02T11:01:48.999Z</time></trkpt><trkpt lat="44.65281858410641" lon="10.050714027604357"><ele>187.5</ele><time>2026-05-02T11:01:49.999Z</time></trkpt><trkpt lat="44.653014367540614" lon="10.050945529171281"><ele>182.0</ele><time>2026-05-02T11:01:50.999Z</time></trkpt><trkpt lat="44.65319665109302" lon="10.051227303783508"><ele>182.0</ele><time>2026-05-02T11:01:51.999Z</time></trkpt><trkpt lat="44.653340330419574" lon="10.051522787497042"><ele>182.0</ele><time>2026-05-02T11:01:52.999Z</time></trkpt><trkpt lat="44.653494311907274" lon="10.0518265483239"><ele>179.5</ele><time>2026-05-02T11:01:53.999Z</time></trkpt><trkpt lat="44.653651786452514" lon="10.052129002910881"><ele>177.0</ele><time>2026-05-02T11:01:54.999Z</time></trkpt><trkpt lat="44.653806985276304" lon="10.052437380612572"><ele>178.0</ele><time>2026-05-02T11:01:55.999Z</time></trkpt><trkpt lat="44.65396352488188" lon="10.052750739879704"><ele>179.0</ele><time>2026-05-02T11:01:56.999Z</time></trkpt><trkpt lat="44.65411794923953" lon="10.053065064210415"><ele>180.5</ele><time>2026-05-02T11:01:57.999Z</time></trkpt><trkpt lat="44.65427203178509" lon="10.053381390958322"><ele>182.0</ele><time>2026-05-02T11:01:58.999Z</time></trkpt><trkpt lat="44.65442769890687" lon="10.053696482284364"><ele>178.5</ele><time>2026-05-02T11:01:59.999Z</time></trkpt><trkpt lat="44.65458766431744" lon="10.054015830021473"><ele>175.0</ele><time>2026-05-02T11:02:00.999Z</time></trkpt><trkpt lat="44.65474628261437" lon="10.054336787778736"><ele>175.0</ele><time>2026-05-02T11:02:01.999Z</time></trkpt><trkpt lat="44.65490090194655" lon="10.054653282967273"><ele>175.0</ele><time>2026-05-02T11:02:02.999Z</time></trkpt><trkpt lat="44.6550544085475" lon="10.054960431861543"><ele>176.0</ele><time>2026-05-02T11:02:03.999Z</time></trkpt><trkpt lat="44.65521352091204" lon="10.055254488411999"><ele>177.0</ele><time>2026-05-02T11:02:04.999Z</time></trkpt><trkpt lat="44.6553897696049" lon="10.055527894661378"><ele>176.5</ele><time>2026-05-02T11:02:05.999Z</time></trkpt><trkpt lat="44.6555838626801" lon="10.055784242014633"><ele>176.0</ele><time>2026-05-02T11:02:06.999Z</time></trkpt><trkpt lat="44.65577764753236" lon="10.056034865619548"><ele>176.0</ele><time>2026-05-02T11:02:07.999Z</time></trkpt><trkpt lat="44.65595559387977" lon="10.056306783049456"><ele>176.0</ele><time>2026-05-02T11:02:08.999Z</time></trkpt><trkpt lat="44.656148558885015" lon="10.056564632016364"><ele>174.0</ele><time>2026-05-02T11:02:09.999Z</time></trkpt><trkpt lat="44.65635392736577" lon="10.056807451459479"><ele>172.0</ele><time>2026-05-02T11:02:10.999Z</time></trkpt><trkpt lat="44.656546854177115" lon="10.05706673474962"><ele>172.0</ele><time>2026-05-02T11:02:11.999Z</time></trkpt><trkpt lat="44.65674015518229" lon="10.057324436792106"><ele>172.0</ele><time>2026-05-02T11:02:12.999Z</time></trkpt><trkpt lat="44.656930248667436" lon="10.057574440399446"><ele>171.5</ele><time>2026-05-02T11:02:13.999Z</time></trkpt><trkpt lat="44.65710236764741" lon="10.057804837158073"><ele>171.0</ele><time>2026-05-02T11:02:14.999Z</time></trkpt><trkpt lat="44.65726969249786" lon="10.058026536583963"><ele>171.0</ele><time>2026-05-02T11:02:15.999Z</time></trkpt><trkpt lat="44.657443293546784" lon="10.058252300358735"><ele>171.0</ele><time>2026-05-02T11:02:16.999Z</time></trkpt><trkpt lat="44.65761485479801" lon="10.058494699348481"><ele>169.5</ele><time>2026-05-02T11:02:17.999Z</time></trkpt><trkpt lat="44.657774747178316" lon="10.058759563878747"><ele>168.0</ele><time>2026-05-02T11:02:18.999Z</time></trkpt><trkpt lat="44.657934426735515" lon="10.05903419595016"><ele>170.0</ele><time>2026-05-02T11:02:19.999Z</time></trkpt><trkpt lat="44.658092282855726" lon="10.059317559456696"><ele>172.0</ele><time>2026-05-02T11:02:20.999Z</time></trkpt><trkpt lat="44.65825671370006" lon="10.059605309983345"><ele>172.0</ele><time>2026-05-02T11:02:21.999Z</time></trkpt><trkpt lat="44.658411978271076" lon="10.059918158304242"><ele>172.0</ele><time>2026-05-02T11:02:22.999Z</time></trkpt><trkpt lat="44.658594222160154" lon="10.06020670747006"><ele>172.5</ele><time>2026-05-02T11:02:23.999Z</time></trkpt><trkpt lat="44.65876577115813" lon="10.060512711048252"><ele>173.0</ele><time>2026-05-02T11:02:24.999Z</time></trkpt><trkpt lat="44.65893831471212" lon="10.06082032277895"><ele>173.0</ele><time>2026-05-02T11:02:25.999Z</time></trkpt><trkpt lat="44.65911174153594" lon="10.061130171427784"><ele>173.0</ele><time>2026-05-02T11:02:26.999Z</time></trkpt><trkpt lat="44.65928812266509" lon="10.061442728336498"><ele>170.5</ele><time>2026-05-02T11:02:27.999Z</time></trkpt><trkpt lat="44.659466024246285" lon="10.061754536360096"><ele>168.0</ele><time>2026-05-02T11:02:28.999Z</time></trkpt><trkpt lat="44.65964258089385" lon="10.062065965820532"><ele>168.0</ele><time>2026-05-02T11:02:29.999Z</time></trkpt><trkpt lat="44.65981973527568" lon="10.062376087469945"><ele>168.0</ele><time>2026-05-02T11:02:30.999Z</time></trkpt><trkpt lat="44.659996637131684" lon="10.06268732953863"><ele>168.0</ele><time>2026-05-02T11:02:31.999Z</time></trkpt><trkpt lat="44.66017338189716" lon="10.062998292790347"><ele>168.0</ele><time>2026-05-02T11:02:32.999Z</time></trkpt><trkpt lat="44.66034940539163" lon="10.063309734003044"><ele>168.0</ele><time>2026-05-02T11:02:33.999Z</time></trkpt><trkpt lat="44.660526664999786" lon="10.063617796726701"><ele>168.0</ele><time>2026-05-02T11:02:34.999Z</time></trkpt><trkpt lat="44.66070042577019" lon="10.063924576742597"><ele>171.0</ele><time>2026-05-02T11:02:35.999Z</time></trkpt><trkpt lat="44.66087027034232" lon="10.064229509934759"><ele>174.0</ele><time>2026-05-02T11:02:36.999Z</time></trkpt><trkpt lat="44.66103190558441" lon="10.064531129329563"><ele>170.5</ele><time>2026-05-02T11:02:37.999Z</time></trkpt><trkpt lat="44.661186949059065" lon="10.064833982957479"><ele>167.0</ele><time>2026-05-02T11:02:38.999Z</time></trkpt><trkpt lat="44.661331585903945" lon="10.0651262006227"><ele>167.0</ele><time>2026-05-02T11:02:39.999Z</time></trkpt><trkpt lat="44.66147158482539" lon="10.065408640405815"><ele>167.0</ele><time>2026-05-02T11:02:40.999Z</time></trkpt><trkpt lat="44.661604669822296" lon="10.065678637697884"><ele>168.0</ele><time>2026-05-02T11:02:42Z</time></trkpt><trkpt lat="44.66173548033591" lon="10.065944434325255"><ele>169.0</ele><time>2026-05-02T11:02:43Z</time></trkpt><trkpt lat="44.661869855260555" lon="10.06620488871658"><ele>168.5</ele><time>2026-05-02T11:02:44Z</time></trkpt><trkpt lat="44.66201171443063" lon="10.06645720461412"><ele>168.0</ele><time>2026-05-02T11:02:45Z</time></trkpt><trkpt lat="44.662162256902846" lon="10.066705689005603"><ele>168.0</ele><time>2026-05-02T11:02:46Z</time></trkpt><trkpt lat="44.66230931386065" lon="10.066957531290218"><ele>168.0</ele><time>2026-05-02T11:02:47Z</time></trkpt><trkpt lat="44.66245710924366" lon="10.067207724532306"><ele>169.0</ele><time>2026-05-02T11:02:48Z</time></trkpt><trkpt lat="44.66260892584562" lon="10.067459660974324"><ele>170.0</ele><time>2026-05-02T11:02:49Z</time></trkpt><trkpt lat="44.662767971281" lon="10.067718190574414"><ele>168.5</ele><time>2026-05-02T11:02:50Z</time></trkpt><trkpt lat="44.662926546977204" lon="10.067982098980336"><ele>167.0</ele><time>2026-05-02T11:02:51Z</time></trkpt><trkpt lat="44.66308146280198" lon="10.068240283713676"><ele>168.0</ele><time>2026-05-02T11:02:52Z</time></trkpt><trkpt lat="44.66323712038129" lon="10.068488637656586"><ele>169.0</ele><time>2026-05-02T11:02:53Z</time></trkpt><trkpt lat="44.663409833250064" lon="10.068715746621868"><ele>169.0</ele><time>2026-05-02T11:02:54Z</time></trkpt><trkpt lat="44.663605502885105" lon="10.068924913341252"><ele>169.0</ele><time>2026-05-02T11:02:55Z</time></trkpt><trkpt lat="44.663811284384074" lon="10.069135532159105"><ele>168.0</ele><time>2026-05-02T11:02:56Z</time></trkpt><trkpt lat="44.66402183217772" lon="10.069353372370035"><ele>167.0</ele><time>2026-05-02T11:02:57Z</time></trkpt><trkpt lat="44.66423467285069" lon="10.06957344119453"><ele>166.5</ele><time>2026-05-02T11:02:58Z</time></trkpt><trkpt lat="44.664447835305246" lon="10.069796418573919"><ele>166.0</ele><time>2026-05-02T11:02:59Z</time></trkpt><trkpt lat="44.66466234326159" lon="10.070020153430102"><ele>166.0</ele><time>2026-05-02T11:03:00Z</time></trkpt><trkpt lat="44.664878656685985" lon="10.070243813766123"><ele>166.0</ele><time>2026-05-02T11:03:01Z</time></trkpt><trkpt lat="44.66509231745188" lon="10.070465662355367"><ele>165.0</ele><time>2026-05-02T11:03:02Z</time></trkpt><trkpt lat="44.6653090106804" lon="10.070687826688873"><ele>164.0</ele><time>2026-05-02T11:03:03Z</time></trkpt><trkpt lat="44.66552602741523" lon="10.070912160853943"><ele>164.0</ele><time>2026-05-02T11:03:04Z</time></trkpt><trkpt lat="44.665743487079794" lon="10.07113726216564"><ele>164.0</ele><time>2026-05-02T11:03:05Z</time></trkpt><trkpt lat="44.66596002836819" lon="10.071361892748246"><ele>164.0</ele><time>2026-05-02T11:03:06Z</time></trkpt><trkpt lat="44.66617546982275" lon="10.071588145724181"><ele>164.0</ele><time>2026-05-02T11:03:07Z</time></trkpt><trkpt lat="44.666386896544154" lon="10.071808987032352"><ele>164.0</ele><time>2026-05-02T11:03:08Z</time></trkpt><trkpt lat="44.66659446602003" lon="10.072027381651964"><ele>164.0</ele><time>2026-05-02T11:03:09Z</time></trkpt><trkpt lat="44.66679767240731" lon="10.07223655505296"><ele>164.0</ele><time>2026-05-02T11:03:10Z</time></trkpt><trkpt lat="44.66699583683109" lon="10.072438564754194"><ele>164.0</ele><time>2026-05-02T11:03:11Z</time></trkpt><trkpt lat="44.66718591371274" lon="10.072644526455182"><ele>164.0</ele><time>2026-05-02T11:03:12Z</time></trkpt><trkpt lat="44.66735882742155" lon="10.072864251251735"><ele>164.0</ele><time>2026-05-02T11:03:13Z</time></trkpt><trkpt lat="44.66752002716872" lon="10.073097306568355"><ele>163.0</ele><time>2026-05-02T11:03:14Z</time></trkpt><trkpt lat="44.66767493114866" lon="10.073329210559498"><ele>162.0</ele><time>2026-05-02T11:03:15Z</time></trkpt><trkpt lat="44.66783010470626" lon="10.073547280870612"><ele>161.0</ele><time>2026-05-02T11:03:16Z</time></trkpt><trkpt lat="44.668007746600864" lon="10.073750654683165"><ele>161.0</ele><time>2026-05-02T11:03:17Z</time></trkpt><trkpt lat="44.66819927658249" lon="10.073945419712915"><ele>161.0</ele><time>2026-05-02T11:03:18Z</time></trkpt><trkpt lat="44.66840110838562" lon="10.074146412081308"><ele>160.5</ele><time>2026-05-02T11:03:19Z</time></trkpt><trkpt lat="44.66860711514894" lon="10.074355779249043"><ele>160.0</ele><time>2026-05-02T11:03:20Z</time></trkpt><trkpt lat="44.66881197524106" lon="10.07456780507862"><ele>160.0</ele><time>2026-05-02T11:03:21Z</time></trkpt><trkpt lat="44.66902036661143" lon="10.074785191201288"><ele>160.0</ele><time>2026-05-02T11:03:22Z</time></trkpt><trkpt lat="44.66923032148331" lon="10.0750078774778"><ele>159.0</ele><time>2026-05-02T11:03:23Z</time></trkpt><trkpt lat="44.669442475036114" lon="10.075232992907004"><ele>158.0</ele><time>2026-05-02T11:03:24Z</time></trkpt><trkpt lat="44.66965527381783" lon="10.075459006286012"><ele>158.0</ele><time>2026-05-02T11:03:25Z</time></trkpt><trkpt lat="44.669866794624156" lon="10.075686031583132"><ele>158.0</ele><time>2026-05-02T11:03:26Z</time></trkpt><trkpt lat="44.670078760719576" lon="10.075914450864374"><ele>157.0</ele><time>2026-05-02T11:03:27Z</time></trkpt><trkpt lat="44.67028909190341" lon="10.076144974244343"><ele>156.0</ele><time>2026-05-02T11:03:28Z</time></trkpt><trkpt lat="44.67049496575325" lon="10.07637760979325"><ele>158.0</ele><time>2026-05-02T11:03:29Z</time></trkpt><trkpt lat="44.670700184998104" lon="10.0766092001257"><ele>160.0</ele><time>2026-05-02T11:03:30Z</time></trkpt><trkpt lat="44.67090580249027" lon="10.076837442170335"><ele>158.0</ele><time>2026-05-02T11:03:31Z</time></trkpt><trkpt lat="44.671114577427865" lon="10.077064906443505"><ele>156.0</ele><time>2026-05-02T11:03:31.999Z</time></trkpt><trkpt lat="44.671322106641234" lon="10.077294307364316"><ele>157.0</ele><time>2026-05-02T11:03:32.999Z</time></trkpt><trkpt lat="44.67153160422187" lon="10.077523431949874"><ele>158.0</ele><time>2026-05-02T11:03:33.999Z</time></trkpt><trkpt lat="44.67173859759905" lon="10.077757358535592"><ele>157.0</ele><time>2026-05-02T11:03:34.999Z</time></trkpt><trkpt lat="44.671944692630674" lon="10.077991761042416"><ele>156.0</ele><time>2026-05-02T11:03:35.999Z</time></trkpt><trkpt lat="44.67214851245119" lon="10.078224940655687"><ele>157.0</ele><time>2026-05-02T11:03:36.999Z</time></trkpt><trkpt lat="44.6723499247425" lon="10.078461721287574"><ele>158.0</ele><time>2026-05-02T11:03:37.999Z</time></trkpt><trkpt lat="44.67254699162113" lon="10.078698753909737"><ele>158.0</ele><time>2026-05-02T11:03:38.999Z</time></trkpt><trkpt lat="44.67273793736481" lon="10.078938869241288"><ele>158.0</ele><time>2026-05-02T11:03:39.999Z</time></trkpt><trkpt lat="44.67292330609326" lon="10.079183046627831"><ele>158.0</ele><time>2026-05-02T11:03:40.999Z</time></trkpt><trkpt lat="44.67310379261906" lon="10.079428999975272"><ele>158.0</ele><time>2026-05-02T11:03:41.999Z</time></trkpt><trkpt lat="44.67328495368533" lon="10.079681671853443"><ele>160.0</ele><time>2026-05-02T11:03:42.999Z</time></trkpt><trkpt lat="44.673465063889246" lon="10.079939686348974"><ele>162.0</ele><time>2026-05-02T11:03:43.999Z</time></trkpt><trkpt lat="44.673644317125586" lon="10.080202489196235"><ele>158.0</ele><time>2026-05-02T11:03:44.999Z</time></trkpt><trkpt lat="44.67382140121565" lon="10.080470265607687"><ele>154.0</ele><time>2026-05-02T11:03:45.999Z</time></trkpt><trkpt lat="44.67399687383229" lon="10.080746919188188"><ele>156.0</ele><time>2026-05-02T11:03:46.999Z</time></trkpt><trkpt lat="44.67416586728814" lon="10.081036196665165"><ele>158.0</ele><time>2026-05-02T11:03:47.999Z</time></trkpt><trkpt lat="44.67433064589564" lon="10.081330482209484"><ele>157.0</ele><time>2026-05-02T11:03:48.999Z</time></trkpt><trkpt lat="44.67449079111795" lon="10.081628915513221"><ele>156.0</ele><time>2026-05-02T11:03:49.999Z</time></trkpt><trkpt lat="44.674649514268104" lon="10.081930657009572"><ele>156.0</ele><time>2026-05-02T11:03:50.999Z</time></trkpt><trkpt lat="44.67480306231574" lon="10.082238120701588"><ele>156.0</ele><time>2026-05-02T11:03:51.999Z</time></trkpt><trkpt lat="44.67495282521763" lon="10.08254868938928"><ele>158.0</ele><time>2026-05-02T11:03:52.999Z</time></trkpt><trkpt lat="44.6750959865048" lon="10.082864444348271"><ele>160.0</ele><time>2026-05-02T11:03:53.999Z</time></trkpt><trkpt lat="44.675235472303385" lon="10.083190437901687"><ele>155.0</ele><time>2026-05-02T11:03:54.999Z</time></trkpt><trkpt lat="44.67537239401238" lon="10.083523774785904"><ele>150.0</ele><time>2026-05-02T11:03:55.999Z</time></trkpt><trkpt lat="44.67550712827643" lon="10.083863195320594"><ele>152.0</ele><time>2026-05-02T11:03:56.999Z</time></trkpt><trkpt lat="44.67563921472076" lon="10.084206329145589"><ele>154.0</ele><time>2026-05-02T11:03:57.999Z</time></trkpt><trkpt lat="44.67576848426507" lon="10.08455214014519"><ele>154.0</ele><time>2026-05-02T11:03:58.999Z</time></trkpt><trkpt lat="44.675893525356" lon="10.084902818874278"><ele>154.0</ele><time>2026-05-02T11:03:59.999Z</time></trkpt><trkpt lat="44.67601862091222" lon="10.085252372441229"><ele>150.5</ele><time>2026-05-02T11:04:00.999Z</time></trkpt><trkpt lat="44.676145140062694" lon="10.08559947376789"><ele>147.0</ele><time>2026-05-02T11:04:01.999Z</time></trkpt><trkpt lat="44.67627008639344" lon="10.085941021548939"><ele>147.0</ele><time>2026-05-02T11:04:02.999Z</time></trkpt><trkpt lat="44.67639751736802" lon="10.086283100650478"><ele>147.0</ele><time>2026-05-02T11:04:03.999Z</time></trkpt><trkpt lat="44.67652400250922" lon="10.086627448007537"><ele>148.0</ele><time>2026-05-02T11:04:04.999Z</time></trkpt><trkpt lat="44.67665085527911" lon="10.086972077277265"><ele>149.0</ele><time>2026-05-02T11:04:05.999Z</time></trkpt><trkpt lat="44.67678180341979" lon="10.08731821398275"><ele>148.0</ele><time>2026-05-02T11:04:06.999Z</time></trkpt><trkpt lat="44.67690965186156" lon="10.08766610408068"><ele>147.0</ele><time>2026-05-02T11:04:07.999Z</time></trkpt><trkpt lat="44.67703759528038" lon="10.088012932724576"><ele>148.5</ele><time>2026-05-02T11:04:08.999Z</time></trkpt><trkpt lat="44.677164947754505" lon="10.088358178395598"><ele>150.0</ele><time>2026-05-02T11:04:09.999Z</time></trkpt><trkpt lat="44.67729248290784" lon="10.088702079983921"><ele>150.0</ele><time>2026-05-02T11:04:10.999Z</time></trkpt><trkpt lat="44.67741908220702" lon="10.089041829982548"><ele>150.0</ele><time>2026-05-02T11:04:11.999Z</time></trkpt><trkpt lat="44.67754435658023" lon="10.089379965936775"><ele>151.5</ele><time>2026-05-02T11:04:12.999Z</time></trkpt><trkpt lat="44.677666909274215" lon="10.089711368295681"><ele>153.0</ele><time>2026-05-02T11:04:13.999Z</time></trkpt><trkpt lat="44.677788164592044" lon="10.090037019751424"><ele>149.5</ele><time>2026-05-02T11:04:14.999Z</time></trkpt><trkpt lat="44.67789397162141" lon="10.090372692117837"><ele>146.0</ele><time>2026-05-02T11:04:15.999Z</time></trkpt><trkpt lat="44.678019675177616" lon="10.09066573675068"><ele>147.5</ele><time>2026-05-02T11:04:16.999Z</time></trkpt><trkpt lat="44.67812772752205" lon="10.090954582863336"><ele>149.0</ele><time>2026-05-02T11:04:17.999Z</time></trkpt><trkpt lat="44.67822969383701" lon="10.091228172839173"><ele>149.0</ele><time>2026-05-02T11:04:18.999Z</time></trkpt><trkpt lat="44.67831453779369" lon="10.09149911091452"><ele>149.0</ele><time>2026-05-02T11:04:19.999Z</time></trkpt><trkpt lat="44.678422959371865" lon="10.091738642024785"><ele>149.0</ele><time>2026-05-02T11:04:20.999Z</time></trkpt><trkpt lat="44.67851310933975" lon="10.091985086714187"><ele>148.33333333333331</ele><time>2026-05-02T11:04:21.999Z</time></trkpt><trkpt lat="44.678608486946246" lon="10.09223911803557"><ele>147.66666666666666</ele><time>2026-05-02T11:04:22.999Z</time></trkpt><trkpt lat="44.678693246233074" lon="10.092452719374164"><ele>147.0</ele><time>2026-05-02T11:04:23.999Z</time></trkpt><trkpt lat="44.67877374717465" lon="10.092674848675872"><ele>147.0</ele><time>2026-05-02T11:04:24.999Z</time></trkpt><trkpt lat="44.67885157784795" lon="10.092882051088896"><ele>147.0</ele><time>2026-05-02T11:04:25.999Z</time></trkpt><trkpt lat="44.67892685373958" lon="10.09307980133519"><ele>147.0</ele><time>2026-05-02T11:04:26.999Z</time></trkpt><trkpt lat="44.67899722759156" lon="10.093268959137824"><ele>147.25</ele><time>2026-05-02T11:04:27.999Z</time></trkpt><trkpt lat="44.67906248879709" lon="10.093449960089362"><ele>147.5</ele><time>2026-05-02T11:04:28.999Z</time></trkpt><trkpt lat="44.67911022063903" lon="10.093625420909731"><ele>147.75</ele><time>2026-05-02T11:04:29.999Z</time></trkpt><trkpt lat="44.67913672232078" lon="10.093785048588556"><ele>148.0</ele><time>2026-05-02T11:04:30.999Z</time></trkpt><trkpt lat="44.67914714976638" lon="10.093920670347593"><ele>148.0</ele><time>2026-05-02T11:04:31.999Z</time></trkpt><trkpt lat="44.679123423955886" lon="10.094073419378985"><ele>148.0</ele><time>2026-05-02T11:04:33.999Z</time></trkpt><trkpt lat="44.67908230722321" lon="10.094227789566771"><ele>148.0</ele><time>2026-05-02T11:04:35.999Z</time></trkpt><trkpt lat="44.679074378498605" lon="10.094316766773138"><ele>148.0</ele><time>2026-05-02T11:04:36.999Z</time></trkpt><trkpt lat="44.679134850528904" lon="10.094437503588821"><ele>148.0</ele><time>2026-05-02T11:04:38.999Z</time></trkpt><trkpt lat="44.67920191345904" lon="10.094475515800294"><ele>148.0</ele><time>2026-05-02T11:04:39.999Z</time></trkpt><trkpt lat="44.679290477872094" lon="10.094480276337986"><ele>148.0</ele><time>2026-05-02T11:04:40.999Z</time></trkpt><trkpt lat="44.67938442103563" lon="10.094498435660588"><ele>148.0</ele><time>2026-05-02T11:04:41.999Z</time></trkpt><trkpt lat="44.6794987983556" lon="10.094560952431502"><ele>148.0</ele><time>2026-05-02T11:04:42.999Z</time></trkpt><trkpt lat="44.67961585902773" lon="10.094646091490208"><ele>148.0</ele><time>2026-05-02T11:04:43.999Z</time></trkpt><trkpt lat="44.67975296325461" lon="10.09474149022771"><ele>148.0</ele><time>2026-05-02T11:04:44.999Z</time></trkpt><trkpt lat="44.67990118681243" lon="10.094837715216029"><ele>148.0</ele><time>2026-05-02T11:04:45.999Z</time></trkpt><trkpt lat="44.68005807452984" lon="10.094931041283951"><ele>148.0</ele><time>2026-05-02T11:04:46.999Z</time></trkpt><trkpt lat="44.68022675122042" lon="10.095024267718255"><ele>147.0</ele><time>2026-05-02T11:04:48Z</time></trkpt><trkpt lat="44.68039236715124" lon="10.095112071896631"><ele>146.0</ele><time>2026-05-02T11:04:49Z</time></trkpt><trkpt lat="44.68055524540201" lon="10.095200463151803"><ele>145.0</ele><time>2026-05-02T11:04:50Z</time></trkpt><trkpt lat="44.68071707140456" lon="10.095291039220836"><ele>145.0</ele><time>2026-05-02T11:04:51Z</time></trkpt><trkpt lat="44.68087201794728" lon="10.095379607129418"><ele>145.0</ele><time>2026-05-02T11:04:52Z</time></trkpt><trkpt lat="44.68103353505908" lon="10.095461841751108"><ele>145.0</ele><time>2026-05-02T11:04:53Z</time></trkpt><trkpt lat="44.681196318006265" lon="10.095540985996596"><ele>145.33333333333334</ele><time>2026-05-02T11:04:54Z</time></trkpt><trkpt lat="44.68135240392957" lon="10.095607338685362"><ele>145.66666666666666</ele><time>2026-05-02T11:04:55Z</time></trkpt><trkpt lat="44.68151425400548" lon="10.095671953957735"><ele>146.0</ele><time>2026-05-02T11:04:56Z</time></trkpt><trkpt lat="44.681687337751235" lon="10.095739113227797"><ele>147.0</ele><time>2026-05-02T11:04:57Z</time></trkpt><trkpt lat="44.68185852198101" lon="10.095792120021637"><ele>148.0</ele><time>2026-05-02T11:04:58Z</time></trkpt><trkpt lat="44.68203394659201" lon="10.095832554664941"><ele>149.0</ele><time>2026-05-02T11:04:59Z</time></trkpt><trkpt lat="44.682217203233535" lon="10.095871833660377"><ele>149.0</ele><time>2026-05-02T11:05:00Z</time></trkpt><trkpt lat="44.68238651049478" lon="10.095908592638283"><ele>149.0</ele><time>2026-05-02T11:05:01Z</time></trkpt><trkpt lat="44.682558283192236" lon="10.095947888875793"><ele>149.0</ele><time>2026-05-02T11:05:02Z</time></trkpt><trkpt lat="44.68273904122069" lon="10.095987360439844"><ele>148.0</ele><time>2026-05-02T11:05:03Z</time></trkpt><trkpt lat="44.68292554239761" lon="10.096030087143935"><ele>147.0</ele><time>2026-05-02T11:05:04Z</time></trkpt><trkpt lat="44.68311481551638" lon="10.096074002862707"><ele>146.0</ele><time>2026-05-02T11:05:05Z</time></trkpt><trkpt lat="44.683300916810246" lon="10.096117350234351"><ele>146.0</ele><time>2026-05-02T11:05:06Z</time></trkpt><trkpt lat="44.6834771177568" lon="10.096160673727072"><ele>146.0</ele><time>2026-05-02T11:05:07Z</time></trkpt><trkpt lat="44.68364026645818" lon="10.09620298586778"><ele>146.0</ele><time>2026-05-02T11:05:08Z</time></trkpt><trkpt lat="44.68379080613884" lon="10.096246597681477"><ele>146.0</ele><time>2026-05-02T11:05:09Z</time></trkpt><trkpt lat="44.684083504407184" lon="10.096296700000638"><ele>146.0</ele><time>2026-05-02T11:05:10Z</time></trkpt><trkpt lat="44.68427854634571" lon="10.096338502129655"><ele>145.66666666666666</ele><time>2026-05-02T11:05:11Z</time></trkpt><trkpt lat="44.68447641360643" lon="10.09637987993501"><ele>145.33333333333334</ele><time>2026-05-02T11:05:12Z</time></trkpt><trkpt lat="44.684676766610316" lon="10.096421589479814"><ele>145.0</ele><time>2026-05-02T11:05:13Z</time></trkpt><trkpt lat="44.684879700263885" lon="10.09646215449861"><ele>145.0</ele><time>2026-05-02T11:05:14Z</time></trkpt><trkpt lat="44.685084966841714" lon="10.096505524728789"><ele>145.0</ele><time>2026-05-02T11:05:15Z</time></trkpt><trkpt lat="44.68528778885591" lon="10.0965497931835"><ele>145.0</ele><time>2026-05-02T11:05:16Z</time></trkpt><trkpt lat="44.6854820091584" lon="10.096593635550805"><ele>146.0</ele><time>2026-05-02T11:05:17Z</time></trkpt><trkpt lat="44.68567715282454" lon="10.096639857931581"><ele>147.0</ele><time>2026-05-02T11:05:18Z</time></trkpt><trkpt lat="44.68586732379079" lon="10.096679248072356"><ele>148.0</ele><time>2026-05-02T11:05:19Z</time></trkpt><trkpt lat="44.686059675230815" lon="10.096719361743338"><ele>147.0</ele><time>2026-05-02T11:05:20Z</time></trkpt><trkpt lat="44.68625146048348" lon="10.09676010524014"><ele>146.0</ele><time>2026-05-02T11:05:21Z</time></trkpt><trkpt lat="44.68643893392414" lon="10.096805317712423"><ele>145.0</ele><time>2026-05-02T11:05:22Z</time></trkpt><trkpt lat="44.68662207262881" lon="10.096850511672121"><ele>145.0</ele><time>2026-05-02T11:05:23Z</time></trkpt><trkpt lat="44.68680183303846" lon="10.096890446396296"><ele>145.0</ele><time>2026-05-02T11:05:24Z</time></trkpt><trkpt lat="44.686984938968976" lon="10.096932423454126"><ele>145.0</ele><time>2026-05-02T11:05:25Z</time></trkpt><trkpt lat="44.687174034879426" lon="10.096971243624228"><ele>144.0</ele><time>2026-05-02T11:05:26Z</time></trkpt><trkpt lat="44.68736614813137" lon="10.097009568150854"><ele>143.0</ele><time>2026-05-02T11:05:27Z</time></trkpt><trkpt lat="44.6875588216048" lon="10.09705025096765"><ele>142.0</ele><time>2026-05-02T11:05:28Z</time></trkpt><trkpt lat="44.6877555569325" lon="10.097086970874697"><ele>141.66666666666669</ele><time>2026-05-02T11:05:29Z</time></trkpt><trkpt lat="44.68795368418011" lon="10.097129548712475"><ele>141.33333333333334</ele><time>2026-05-02T11:05:30Z</time></trkpt><trkpt lat="44.68814371930344" lon="10.097180379149172"><ele>141.0</ele><time>2026-05-02T11:05:31Z</time></trkpt><trkpt lat="44.688326220305974" lon="10.097225926966333"><ele>141.0</ele><time>2026-05-02T11:05:32Z</time></trkpt><trkpt lat="44.68849094752393" lon="10.097257186145232"><ele>141.0</ele><time>2026-05-02T11:05:33Z</time></trkpt><trkpt lat="44.68864463002461" lon="10.09729140528056"><ele>141.0</ele><time>2026-05-02T11:05:34Z</time></trkpt><trkpt lat="44.68879599174628" lon="10.097325206121386"><ele>141.0</ele><time>2026-05-02T11:05:35Z</time></trkpt><trkpt lat="44.688942603547574" lon="10.097357046339706"><ele>141.0</ele><time>2026-05-02T11:05:36Z</time></trkpt><trkpt lat="44.68909061675851" lon="10.097400904990597"><ele>141.0</ele><time>2026-05-02T11:05:37Z</time></trkpt><trkpt lat="44.689238006319236" lon="10.097439592679581"><ele>143.5</ele><time>2026-05-02T11:05:38Z</time></trkpt><trkpt lat="44.68937514828617" lon="10.097477624913973"><ele>146.0</ele><time>2026-05-02T11:05:39Z</time></trkpt><trkpt lat="44.689501917985666" lon="10.097521225396775"><ele>148.5</ele><time>2026-05-02T11:05:40Z</time></trkpt><trkpt lat="44.689621094424396" lon="10.097576534368729"><ele>151.0</ele><time>2026-05-02T11:05:41Z</time></trkpt><trkpt lat="44.68973542614618" lon="10.097649066416231"><ele>152.0</ele><time>2026-05-02T11:05:42Z</time></trkpt><trkpt lat="44.68983823497669" lon="10.097749790881558"><ele>153.0</ele><time>2026-05-02T11:05:43Z</time></trkpt><trkpt lat="44.68992712337271" lon="10.097863412330787"><ele>154.0</ele><time>2026-05-02T11:05:44Z</time></trkpt><trkpt lat="44.69000574988067" lon="10.097988565987487"><ele>155.0</ele><time>2026-05-02T11:05:45Z</time></trkpt><trkpt lat="44.69007876756467" lon="10.098119670348508"><ele>155.2</ele><time>2026-05-02T11:05:46Z</time></trkpt><trkpt lat="44.690140408548466" lon="10.098265976117068"><ele>155.4</ele><time>2026-05-02T11:05:47Z</time></trkpt><trkpt lat="44.690169474275066" lon="10.098422279438141"><ele>155.6</ele><time>2026-05-02T11:05:47.999Z</time></trkpt><trkpt lat="44.69021325436873" lon="10.098556267873734"><ele>155.8</ele><time>2026-05-02T11:05:48.999Z</time></trkpt><trkpt lat="44.69024041805896" lon="10.098686580626387"><ele>156.0</ele><time>2026-05-02T11:05:49.999Z</time></trkpt><trkpt lat="44.69026942248522" lon="10.098813865216387"><ele>156.0</ele><time>2026-05-02T11:05:50.999Z</time></trkpt><trkpt lat="44.690300744885626" lon="10.098945185225798"><ele>156.0</ele><time>2026-05-02T11:05:51.999Z</time></trkpt><trkpt lat="44.690329904602166" lon="10.099070322323312"><ele>156.0</ele><time>2026-05-02T11:05:52.999Z</time></trkpt><trkpt lat="44.69035976471635" lon="10.099188834516347"><ele>156.0</ele><time>2026-05-02T11:05:53.999Z</time></trkpt><trkpt lat="44.69038746000913" lon="10.099312231045348"><ele>156.0</ele><time>2026-05-02T11:05:54.999Z</time></trkpt><trkpt lat="44.69042355513761" lon="10.09944864583708"><ele>155.75</ele><time>2026-05-02T11:05:55.999Z</time></trkpt><trkpt lat="44.69045857448222" lon="10.09958951955954"><ele>155.5</ele><time>2026-05-02T11:05:56.999Z</time></trkpt><trkpt lat="44.690491155406605" lon="10.099745979061726"><ele>155.25</ele><time>2026-05-02T11:05:57.999Z</time></trkpt><trkpt lat="44.69052957832157" lon="10.099909655995662"><ele>155.0</ele><time>2026-05-02T11:05:58.999Z</time></trkpt><trkpt lat="44.690570547401734" lon="10.10008298807937"><ele>155.75</ele><time>2026-05-02T11:05:59.999Z</time></trkpt><trkpt lat="44.69060816057868" lon="10.100269056384032"><ele>156.5</ele><time>2026-05-02T11:06:00.999Z</time></trkpt><trkpt lat="44.69064740576314" lon="10.100438922790937"><ele>157.25</ele><time>2026-05-02T11:06:01.999Z</time></trkpt><trkpt lat="44.69068782712136" lon="10.100610615590982"><ele>158.0</ele><time>2026-05-02T11:06:02.999Z</time></trkpt><trkpt lat="44.69072456221878" lon="10.100790778373542"><ele>158.75</ele><time>2026-05-02T11:06:03.999Z</time></trkpt><trkpt lat="44.69076405353559" lon="10.10094449350313"><ele>159.5</ele><time>2026-05-02T11:06:04.999Z</time></trkpt><trkpt lat="44.69081109322697" lon="10.10109204339462"><ele>160.25</ele><time>2026-05-02T11:06:05.999Z</time></trkpt><trkpt lat="44.69085656078923" lon="10.101241791069985"><ele>161.0</ele><time>2026-05-02T11:06:06.999Z</time></trkpt><trkpt lat="44.690916774623076" lon="10.101377108969885"><ele>161.0</ele><time>2026-05-02T11:06:07.999Z</time></trkpt><trkpt lat="44.69098956795722" lon="10.101513254238514"><ele>161.0</ele><time>2026-05-02T11:06:08.999Z</time></trkpt><trkpt lat="44.691066508943365" lon="10.101640578547228"><ele>161.0</ele><time>2026-05-02T11:06:09.999Z</time></trkpt><trkpt lat="44.69113951025809" lon="10.101784378464993"><ele>161.0</ele><time>2026-05-02T11:06:10.999Z</time></trkpt><trkpt lat="44.69122371279729" lon="10.101893693027295"><ele>159.0</ele><time>2026-05-02T11:06:11.999Z</time></trkpt><trkpt lat="44.691301794809064" lon="10.102017326741286"><ele>157.0</ele><time>2026-05-02T11:06:12.999Z</time></trkpt><trkpt lat="44.69137861289683" lon="10.102137197670434"><ele>155.0</ele><time>2026-05-02T11:06:13.999Z</time></trkpt><trkpt lat="44.69145162128826" lon="10.10226070966199"><ele>153.0</ele><time>2026-05-02T11:06:14.999Z</time></trkpt><trkpt lat="44.691528350833664" lon="10.102392376716407"><ele>155.0</ele><time>2026-05-02T11:06:15.999Z</time></trkpt><trkpt lat="44.69160455681535" lon="10.102522266751519"><ele>157.0</ele><time>2026-05-02T11:06:16.999Z</time></trkpt><trkpt lat="44.69168201390898" lon="10.102647552129557"><ele>159.0</ele><time>2026-05-02T11:06:17.999Z</time></trkpt><trkpt lat="44.69176807407891" lon="10.102770092710008"><ele>161.0</ele><time>2026-05-02T11:06:18.999Z</time></trkpt><trkpt lat="44.69184938632473" lon="10.1029000935928"><ele>159.0</ele><time>2026-05-02T11:06:19.999Z</time></trkpt><trkpt lat="44.69192542824194" lon="10.1030324717722"><ele>157.0</ele><time>2026-05-02T11:06:20.999Z</time></trkpt><trkpt lat="44.692007413514226" lon="10.103156270997427"><ele>155.0</ele><time>2026-05-02T11:06:21.999Z</time></trkpt><trkpt lat="44.69208703732894" lon="10.103284521675494"><ele>153.0</ele><time>2026-05-02T11:06:22.999Z</time></trkpt><trkpt lat="44.692159504273" lon="10.103414997446944"><ele>153.0</ele><time>2026-05-02T11:06:23.999Z</time></trkpt><trkpt lat="44.69224131746443" lon="10.103537185132804"><ele>153.0</ele><time>2026-05-02T11:06:24.999Z</time></trkpt><trkpt lat="44.692324693795435" lon="10.103669853563758"><ele>153.0</ele><time>2026-05-02T11:06:25.999Z</time></trkpt><trkpt lat="44.69241159620982" lon="10.10380819949283"><ele>153.0</ele><time>2026-05-02T11:06:26.999Z</time></trkpt><trkpt lat="44.692501447102174" lon="10.103953351345782"><ele>152.75</ele><time>2026-05-02T11:06:27.999Z</time></trkpt><trkpt lat="44.69259403987883" lon="10.104093305113352"><ele>152.5</ele><time>2026-05-02T11:06:28.999Z</time></trkpt><trkpt lat="44.69269617641972" lon="10.104262451281354"><ele>152.25</ele><time>2026-05-02T11:06:29.999Z</time></trkpt><trkpt lat="44.69279821070784" lon="10.10442173244106"><ele>152.0</ele><time>2026-05-02T11:06:30.999Z</time></trkpt><trkpt lat="44.6928986035402" lon="10.104585729879748"><ele>152.0</ele><time>2026-05-02T11:06:31.999Z</time></trkpt><trkpt lat="44.69299364593025" lon="10.104760603062653"><ele>152.0</ele><time>2026-05-02T11:06:32.999Z</time></trkpt><trkpt lat="44.693080162443245" lon="10.104936641461327"><ele>152.0</ele><time>2026-05-02T11:06:33.999Z</time></trkpt><trkpt lat="44.693161157904" lon="10.10511704556299"><ele>153.0</ele><time>2026-05-02T11:06:34.999Z</time></trkpt><trkpt lat="44.69323682383498" lon="10.105303706658772"><ele>154.0</ele><time>2026-05-02T11:06:35.999Z</time></trkpt><trkpt lat="44.6933127987995" lon="10.10548782269098"><ele>155.0</ele><time>2026-05-02T11:06:36.999Z</time></trkpt><trkpt lat="44.69338440051845" lon="10.105665145152406"><ele>156.0</ele><time>2026-05-02T11:06:37.999Z</time></trkpt><trkpt lat="44.69345462249057" lon="10.105836748719467"><ele>156.0</ele><time>2026-05-02T11:06:38.999Z</time></trkpt><trkpt lat="44.693526280256" lon="10.10600606723436"><ele>156.0</ele><time>2026-05-02T11:06:39.999Z</time></trkpt><trkpt lat="44.6935914761834" lon="10.10616671591344"><ele>156.0</ele><time>2026-05-02T11:06:40.999Z</time></trkpt><trkpt lat="44.69365249919582" lon="10.106320389545585"><ele>156.0</ele><time>2026-05-02T11:06:41.999Z</time></trkpt><trkpt lat="44.693710466049765" lon="10.106467928673412"><ele>156.5</ele><time>2026-05-02T11:06:42.999Z</time></trkpt><trkpt lat="44.69376616920806" lon="10.10662293491736"><ele>157.0</ele><time>2026-05-02T11:06:43.999Z</time></trkpt><trkpt lat="44.6938243666199" lon="10.106792235933115"><ele>157.5</ele><time>2026-05-02T11:06:44.999Z</time></trkpt><trkpt lat="44.693875245912835" lon="10.106963935152903"><ele>158.0</ele><time>2026-05-02T11:06:45.999Z</time></trkpt><trkpt lat="44.69391871466089" lon="10.10713657669996"><ele>158.0</ele><time>2026-05-02T11:06:46.999Z</time></trkpt><trkpt lat="44.69396695164654" lon="10.107320698554151"><ele>158.0</ele><time>2026-05-02T11:06:47.999Z</time></trkpt><trkpt lat="44.69401633107514" lon="10.107510570453602"><ele>158.0</ele><time>2026-05-02T11:06:48.999Z</time></trkpt><trkpt lat="44.694063806887215" lon="10.107698544687663"><ele>158.0</ele><time>2026-05-02T11:06:49.999Z</time></trkpt><trkpt lat="44.694111198326844" lon="10.107884228574601"><ele>158.75</ele><time>2026-05-02T11:06:50.999Z</time></trkpt><trkpt lat="44.69415863782483" lon="10.108063666358127"><ele>159.5</ele><time>2026-05-02T11:06:51.999Z</time></trkpt><trkpt lat="44.69420371611329" lon="10.108234007464882"><ele>160.25</ele><time>2026-05-02T11:06:52.999Z</time></trkpt><trkpt lat="44.694249594972504" lon="10.108395885958172"><ele>161.0</ele><time>2026-05-02T11:06:54Z</time></trkpt><trkpt lat="44.694299887902154" lon="10.108546320216627"><ele>161.66666666666666</ele><time>2026-05-02T11:06:55Z</time></trkpt><trkpt lat="44.694345962337216" lon="10.108658494591126"><ele>162.33333333333331</ele><time>2026-05-02T11:06:56Z</time></trkpt><trkpt lat="44.694393780525736" lon="10.108747031624578"><ele>163.0</ele><time>2026-05-02T11:06:57Z</time></trkpt><trkpt lat="44.69444918147774" lon="10.108830820784002"><ele>163.66666666666666</ele><time>2026-05-02T11:06:58Z</time></trkpt><trkpt lat="44.69451867545725" lon="10.108895534086342"><ele>164.33333333333334</ele><time>2026-05-02T11:06:59Z</time></trkpt><trkpt lat="44.694605375511415" lon="10.108963461418712"><ele>165.0</ele><time>2026-05-02T11:07:00Z</time></trkpt><trkpt lat="44.6947012923051" lon="10.10902650202933"><ele>161.75</ele><time>2026-05-02T11:07:01Z</time></trkpt><trkpt lat="44.6947989710827" lon="10.10909632967551"><ele>158.5</ele><time>2026-05-02T11:07:02Z</time></trkpt><trkpt lat="44.69489479246218" lon="10.10919639888482"><ele>155.25</ele><time>2026-05-02T11:07:03Z</time></trkpt><trkpt lat="44.69498118608629" lon="10.109333005005674"><ele>152.0</ele><time>2026-05-02T11:07:04Z</time></trkpt><trkpt lat="44.695060725115944" lon="10.109487846098808"><ele>152.0</ele><time>2026-05-02T11:07:05Z</time></trkpt><trkpt lat="44.695135909172436" lon="10.109641044482009"><ele>152.0</ele><time>2026-05-02T11:07:06Z</time></trkpt><trkpt lat="44.695203128205854" lon="10.109782770984566"><ele>152.0</ele><time>2026-05-02T11:07:07Z</time></trkpt><trkpt lat="44.69526707222633" lon="10.109914191477394"><ele>152.0</ele><time>2026-05-02T11:07:08Z</time></trkpt><trkpt lat="44.69531746090461" lon="10.110034332436637"><ele>150.83333333333331</ele><time>2026-05-02T11:07:09Z</time></trkpt><trkpt lat="44.69536528227066" lon="10.110145004710443"><ele>149.66666666666666</ele><time>2026-05-02T11:07:10Z</time></trkpt><trkpt lat="44.69541049272719" lon="10.110250595804912"><ele>148.5</ele><time>2026-05-02T11:07:11Z</time></trkpt><trkpt lat="44.69545362640329" lon="10.110346349817618"><ele>147.33333333333334</ele><time>2026-05-02T11:07:12Z</time></trkpt><trkpt lat="44.695491848169596" lon="10.110429487503923"><ele>146.16666666666669</ele><time>2026-05-02T11:07:13Z</time></trkpt><trkpt lat="44.69553245019702" lon="10.110514957511196"><ele>145.0</ele><time>2026-05-02T11:07:14Z</time></trkpt><trkpt lat="44.6955782034712" lon="10.110615401538285"><ele>145.0</ele><time>2026-05-02T11:07:15Z</time></trkpt><trkpt lat="44.69563311562485" lon="10.110737017804306"><ele>145.0</ele><time>2026-05-02T11:07:16Z</time></trkpt><trkpt lat="44.69569598003752" lon="10.110867789299716"><ele>145.0</ele><time>2026-05-02T11:07:17Z</time></trkpt><trkpt lat="44.69576551004093" lon="10.11101149619426"><ele>145.0</ele><time>2026-05-02T11:07:18Z</time></trkpt><trkpt lat="44.695839567898695" lon="10.111159341045875"><ele>146.5</ele><time>2026-05-02T11:07:19Z</time></trkpt><trkpt lat="44.695921159003404" lon="10.11131428078166"><ele>148.0</ele><time>2026-05-02T11:07:20Z</time></trkpt><trkpt lat="44.69600819313807" lon="10.11148281709213"><ele>149.5</ele><time>2026-05-02T11:07:21Z</time></trkpt><trkpt lat="44.69610472750649" lon="10.111666286408216"><ele>151.0</ele><time>2026-05-02T11:07:22Z</time></trkpt><trkpt lat="44.696200920466644" lon="10.111849954241546"><ele>146.66666666666669</ele><time>2026-05-02T11:07:23Z</time></trkpt><trkpt lat="44.69629823774824" lon="10.112028832686116"><ele>142.33333333333334</ele><time>2026-05-02T11:07:24Z</time></trkpt><trkpt lat="44.696390607947706" lon="10.112220389422372"><ele>138.0</ele><time>2026-05-02T11:07:25Z</time></trkpt><trkpt lat="44.69651094616724" lon="10.112389115301692"><ele>140.0</ele><time>2026-05-02T11:07:26Z</time></trkpt><trkpt lat="44.696643875952354" lon="10.11251046206606"><ele>142.0</ele><time>2026-05-02T11:07:27Z</time></trkpt><trkpt lat="44.69679172585443" lon="10.112633158716612"><ele>144.0</ele><time>2026-05-02T11:07:28Z</time></trkpt><trkpt lat="44.696953126673314" lon="10.112723945635844"><ele>144.0</ele><time>2026-05-02T11:07:29Z</time></trkpt><trkpt lat="44.6971203080911" lon="10.112788756336831"><ele>144.0</ele><time>2026-05-02T11:07:30Z</time></trkpt><trkpt lat="44.69729450046059" lon="10.112818728655373"><ele>144.0</ele><time>2026-05-02T11:07:31Z</time></trkpt><trkpt lat="44.69747792204275" lon="10.112846801298886"><ele>144.0</ele><time>2026-05-02T11:07:32Z</time></trkpt><trkpt lat="44.69766879640296" lon="10.112880118477587"><ele>144.0</ele><time>2026-05-02T11:07:33Z</time></trkpt><trkpt lat="44.69786173891596" lon="10.112911474355277"><ele>144.0</ele><time>2026-05-02T11:07:34Z</time></trkpt><trkpt lat="44.6980539774183" lon="10.112943767006355"><ele>142.66666666666666</ele><time>2026-05-02T11:07:35Z</time></trkpt><trkpt lat="44.69824186693042" lon="10.112976592128474"><ele>141.33333333333331</ele><time>2026-05-02T11:07:36Z</time></trkpt><trkpt lat="44.698441313745136" lon="10.113012569029962"><ele>140.0</ele><time>2026-05-02T11:07:37Z</time></trkpt><trkpt lat="44.698640471260646" lon="10.113072673877804"><ele>139.0</ele><time>2026-05-02T11:07:38Z</time></trkpt><trkpt lat="44.69884563618635" lon="10.113111506603296"><ele>138.0</ele><time>2026-05-02T11:07:39Z</time></trkpt><trkpt lat="44.69901321965976" lon="10.113123874482568"><ele>137.0</ele><time>2026-05-02T11:07:40Z</time></trkpt><trkpt lat="44.69918546542876" lon="10.113158587851602"><ele>137.0</ele><time>2026-05-02T11:07:41Z</time></trkpt><trkpt lat="44.69935115557988" lon="10.11320252745998"><ele>137.0</ele><time>2026-05-02T11:07:42Z</time></trkpt><trkpt lat="44.699514090427684" lon="10.113268888072223"><ele>137.0</ele><time>2026-05-02T11:07:43Z</time></trkpt><trkpt lat="44.699679796556154" lon="10.113360811098712"><ele>138.33333333333331</ele><time>2026-05-02T11:07:44Z</time></trkpt><trkpt lat="44.6998361893448" lon="10.113490853306763"><ele>139.66666666666666</ele><time>2026-05-02T11:07:45Z</time></trkpt><trkpt lat="44.699976898252054" lon="10.113664447602272"><ele>141.0</ele><time>2026-05-02T11:07:46Z</time></trkpt><trkpt lat="44.70009413661486" lon="10.11386317085332"><ele>140.33333333333334</ele><time>2026-05-02T11:07:47Z</time></trkpt><trkpt lat="44.70019610264043" lon="10.114081596543723"><ele>139.66666666666669</ele><time>2026-05-02T11:07:48Z</time></trkpt><trkpt lat="44.700283433053144" lon="10.114323648121067"><ele>139.0</ele><time>2026-05-02T11:07:49Z</time></trkpt><trkpt lat="44.70036318321136" lon="10.11458575529519"><ele>139.0</ele><time>2026-05-02T11:07:50Z</time></trkpt><trkpt lat="44.700432574359155" lon="10.114886058655266"><ele>139.0</ele><time>2026-05-02T11:07:51Z</time></trkpt><trkpt lat="44.700497566431416" lon="10.115136668594173"><ele>139.0</ele><time>2026-05-02T11:07:52Z</time></trkpt><trkpt lat="44.700533360719064" lon="10.115329813537475"><ele>140.0</ele><time>2026-05-02T11:07:53Z</time></trkpt><trkpt lat="44.7005700829398" lon="10.115570053681695"><ele>141.0</ele><time>2026-05-02T11:07:54Z</time></trkpt><trkpt lat="44.70058800995193" lon="10.115812691340867"><ele>142.0</ele><time>2026-05-02T11:07:55Z</time></trkpt><trkpt lat="44.700607635169554" lon="10.116036888432502"><ele>142.66666666666669</ele><time>2026-05-02T11:07:56Z</time></trkpt><trkpt lat="44.700602821641056" lon="10.116233881005568"><ele>143.33333333333334</ele><time>2026-05-02T11:07:57Z</time></trkpt><trkpt lat="44.700600164058365" lon="10.11640308089521"><ele>144.0</ele><time>2026-05-02T11:07:58Z</time></trkpt><trkpt lat="44.70074575002443" lon="10.116773017347366"><ele>144.66666666666666</ele><time>2026-05-02T11:07:58.999Z</time></trkpt><trkpt lat="44.70079672626679" lon="10.116996849177779"><ele>145.33333333333331</ele><time>2026-05-02T11:07:59.999Z</time></trkpt><trkpt lat="44.700849145090224" lon="10.11721540202385"><ele>146.0</ele><time>2026-05-02T11:08:00.999Z</time></trkpt><trkpt lat="44.70089695987161" lon="10.117426176162551"><ele>146.25</ele><time>2026-05-02T11:08:01.999Z</time></trkpt><trkpt lat="44.70093958998516" lon="10.117630848524325"><ele>146.5</ele><time>2026-05-02T11:08:02.999Z</time></trkpt><trkpt lat="44.70095384014842" lon="10.117832400308203"><ele>146.75</ele><time>2026-05-02T11:08:03.999Z</time></trkpt><trkpt lat="44.700970717289316" lon="10.118035573466262"><ele>147.0</ele><time>2026-05-02T11:08:04.999Z</time></trkpt><trkpt lat="44.700987231704616" lon="10.118234379988847"><ele>147.75</ele><time>2026-05-02T11:08:05.999Z</time></trkpt><trkpt lat="44.70100239478925" lon="10.118423618441264"><ele>148.5</ele><time>2026-05-02T11:08:06.999Z</time></trkpt><trkpt lat="44.701016385954595" lon="10.118624700014145"><ele>149.25</ele><time>2026-05-02T11:08:07.999Z</time></trkpt><trkpt lat="44.70103031014066" lon="10.118831721964742"><ele>150.0</ele><time>2026-05-02T11:08:08.999Z</time></trkpt><trkpt lat="44.70104275982506" lon="10.119048556679127"><ele>149.33333333333334</ele><time>2026-05-02T11:08:09.999Z</time></trkpt><trkpt lat="44.70106734184982" lon="10.119276909810925"><ele>148.66666666666669</ele><time>2026-05-02T11:08:10.999Z</time></trkpt><trkpt lat="44.70106645976911" lon="10.119517473458691"><ele>148.0</ele><time>2026-05-02T11:08:11.999Z</time></trkpt><trkpt lat="44.70105254218127" lon="10.119759852909437"><ele>147.0</ele><time>2026-05-02T11:08:12.999Z</time></trkpt><trkpt lat="44.70099147912274" lon="10.119977606186595"><ele>146.0</ele><time>2026-05-02T11:08:13.999Z</time></trkpt><trkpt lat="44.700941903971255" lon="10.120187038711332"><ele>145.0</ele><time>2026-05-02T11:08:14.999Z</time></trkpt><trkpt lat="44.700897444263596" lon="10.120390200792441"><ele>145.0</ele><time>2026-05-02T11:08:15.999Z</time></trkpt><trkpt lat="44.7008566792855" lon="10.12059074998819"><ele>145.0</ele><time>2026-05-02T11:08:16.999Z</time></trkpt><trkpt lat="44.70082738859955" lon="10.120793459364016"><ele>145.0</ele><time>2026-05-02T11:08:17.999Z</time></trkpt><trkpt lat="44.700808019598455" lon="10.121008676694581"><ele>145.0</ele><time>2026-05-02T11:08:18.999Z</time></trkpt><trkpt lat="44.70079973884633" lon="10.12123626048997"><ele>143.0</ele><time>2026-05-02T11:08:19.999Z</time></trkpt><trkpt lat="44.700811698953565" lon="10.121469205947516"><ele>141.0</ele><time>2026-05-02T11:08:20.999Z</time></trkpt><trkpt lat="44.70085210296168" lon="10.121705950798349"><ele>139.0</ele><time>2026-05-02T11:08:21.999Z</time></trkpt><trkpt lat="44.70088890239308" lon="10.121925903318333"><ele>139.25</ele><time>2026-05-02T11:08:22.999Z</time></trkpt><trkpt lat="44.7009287753832" lon="10.12213339835518"><ele>139.5</ele><time>2026-05-02T11:08:23.999Z</time></trkpt><trkpt lat="44.70097174629956" lon="10.122324419774015"><ele>139.75</ele><time>2026-05-02T11:08:24.999Z</time></trkpt><trkpt lat="44.70102091120333" lon="10.122501918122287"><ele>140.0</ele><time>2026-05-02T11:08:25.999Z</time></trkpt><trkpt lat="44.70106932392839" lon="10.122666049229139"><ele>140.5</ele><time>2026-05-02T11:08:26.999Z</time></trkpt><trkpt lat="44.70111717730055" lon="10.122821469915"><ele>141.0</ele><time>2026-05-02T11:08:27.999Z</time></trkpt><trkpt lat="44.70116327648663" lon="10.122962498565762"><ele>141.5</ele><time>2026-05-02T11:08:28.999Z</time></trkpt><trkpt lat="44.70121069264695" lon="10.123104084124796"><ele>142.0</ele><time>2026-05-02T11:08:29.999Z</time></trkpt><trkpt lat="44.70126436038086" lon="10.123243072023966"><ele>143.0</ele><time>2026-05-02T11:08:30.999Z</time></trkpt><trkpt lat="44.70131320390666" lon="10.12339186973225"><ele>144.0</ele><time>2026-05-02T11:08:31.999Z</time></trkpt><trkpt lat="44.70137320189183" lon="10.123540982063865"><ele>145.0</ele><time>2026-05-02T11:08:32.999Z</time></trkpt><trkpt lat="44.70143235268955" lon="10.12369345373999"><ele>146.0</ele><time>2026-05-02T11:08:33.999Z</time></trkpt><trkpt lat="44.70149732539701" lon="10.123844255919723"><ele>146.0</ele><time>2026-05-02T11:08:34.999Z</time></trkpt><trkpt lat="44.701562352927525" lon="10.12399215102102"><ele>146.0</ele><time>2026-05-02T11:08:35.999Z</time></trkpt><trkpt lat="44.70162859138057" lon="10.124140351767107"><ele>146.0</ele><time>2026-05-02T11:08:36.999Z</time></trkpt><trkpt lat="44.70169753247086" lon="10.124292112757065"><ele>146.0</ele><time>2026-05-02T11:08:37.999Z</time></trkpt><trkpt lat="44.70177542681324" lon="10.124450968563531"><ele>146.0</ele><time>2026-05-02T11:08:38.999Z</time></trkpt><trkpt lat="44.701841513483195" lon="10.124635069061087"><ele>146.0</ele><time>2026-05-02T11:08:39.999Z</time></trkpt><trkpt lat="44.70192658478867" lon="10.124821897060388"><ele>146.0</ele><time>2026-05-02T11:08:40.999Z</time></trkpt><trkpt lat="44.70202980589401" lon="10.125006836526751"><ele>145.0</ele><time>2026-05-02T11:08:41.999Z</time></trkpt><trkpt lat="44.70211737108706" lon="10.125205505943084"><ele>144.0</ele><time>2026-05-02T11:08:42.999Z</time></trkpt><trkpt lat="44.702199341209024" lon="10.125393549561625"><ele>143.0</ele><time>2026-05-02T11:08:43.999Z</time></trkpt><trkpt lat="44.70228593357124" lon="10.125576618641428"><ele>143.5</ele><time>2026-05-02T11:08:44.999Z</time></trkpt><trkpt lat="44.70236348914187" lon="10.125746326515905"><ele>144.0</ele><time>2026-05-02T11:08:45.999Z</time></trkpt><trkpt lat="44.7024286806309" lon="10.12591168637905"><ele>144.5</ele><time>2026-05-02T11:08:46.999Z</time></trkpt><trkpt lat="44.70250442181245" lon="10.12606514899802"><ele>145.0</ele><time>2026-05-02T11:08:47.999Z</time></trkpt><trkpt lat="44.70256573759513" lon="10.126204238472686"><ele>145.0</ele><time>2026-05-02T11:08:48.999Z</time></trkpt><trkpt lat="44.70260612929751" lon="10.12632392029215"><ele>145.0</ele><time>2026-05-02T11:08:49.999Z</time></trkpt><trkpt lat="44.70263460969254" lon="10.126454753898448"><ele>145.0</ele><time>2026-05-02T11:08:50.999Z</time></trkpt><trkpt lat="44.702662558168726" lon="10.126586662983494"><ele>145.0</ele><time>2026-05-02T11:08:51.999Z</time></trkpt><trkpt lat="44.70269076939139" lon="10.126694757391672"><ele>145.0</ele><time>2026-05-02T11:08:52.999Z</time></trkpt><trkpt lat="44.70275633681749" lon="10.126781276450759"><ele>144.5</ele><time>2026-05-02T11:08:53.999Z</time></trkpt><trkpt lat="44.70284795718256" lon="10.126868343180144"><ele>144.0</ele><time>2026-05-02T11:08:54.999Z</time></trkpt><trkpt lat="44.702933427964474" lon="10.12699345815392"><ele>143.5</ele><time>2026-05-02T11:08:55.999Z</time></trkpt><trkpt lat="44.703000457751266" lon="10.12715682886438"><ele>143.0</ele><time>2026-05-02T11:08:56.999Z</time></trkpt><trkpt lat="44.703079551901745" lon="10.127334649690917"><ele>143.0</ele><time>2026-05-02T11:08:57.999Z</time></trkpt><trkpt lat="44.70316899110262" lon="10.127531106329785"><ele>143.0</ele><time>2026-05-02T11:08:58.999Z</time></trkpt><trkpt lat="44.70325573931033" lon="10.127732628691057"><ele>143.0</ele><time>2026-05-02T11:09:00Z</time></trkpt><trkpt lat="44.70334868260946" lon="10.127946985435472"><ele>143.0</ele><time>2026-05-02T11:09:01Z</time></trkpt><trkpt lat="44.70343998723582" lon="10.128148090165594"><ele>143.0</ele><time>2026-05-02T11:09:02Z</time></trkpt><trkpt lat="44.70353045637495" lon="10.128350667324193"><ele>143.0</ele><time>2026-05-02T11:09:03Z</time></trkpt><trkpt lat="44.70362392023477" lon="10.128554156461663"><ele>142.0</ele><time>2026-05-02T11:09:04Z</time></trkpt><trkpt lat="44.70371756824726" lon="10.128768894264793"><ele>141.0</ele><time>2026-05-02T11:09:05Z</time></trkpt><trkpt lat="44.70381639385572" lon="10.128974885339318"><ele>140.0</ele><time>2026-05-02T11:09:06Z</time></trkpt><trkpt lat="44.70391717856681" lon="10.129190147852228"><ele>140.0</ele><time>2026-05-02T11:09:07Z</time></trkpt><trkpt lat="44.70402146068808" lon="10.12940537300966"><ele>140.0</ele><time>2026-05-02T11:09:08Z</time></trkpt><trkpt lat="44.704124116209925" lon="10.129630522616996"><ele>140.0</ele><time>2026-05-02T11:09:09Z</time></trkpt><trkpt lat="44.70423101820348" lon="10.129863580459745"><ele>140.33333333333331</ele><time>2026-05-02T11:09:10Z</time></trkpt><trkpt lat="44.70434909898445" lon="10.130113639887496"><ele>140.66666666666666</ele><time>2026-05-02T11:09:11Z</time></trkpt><trkpt lat="44.70446586099566" lon="10.130358920073217"><ele>141.0</ele><time>2026-05-02T11:09:12Z</time></trkpt><trkpt lat="44.704582909289066" lon="10.13059696561428"><ele>140.0</ele><time>2026-05-02T11:09:13Z</time></trkpt><trkpt lat="44.70470202757455" lon="10.130841361904261"><ele>139.0</ele><time>2026-05-02T11:09:14Z</time></trkpt><trkpt lat="44.70482428587561" lon="10.131089809695094"><ele>138.0</ele><time>2026-05-02T11:09:15Z</time></trkpt><trkpt lat="44.704932549140885" lon="10.13133654337559"><ele>138.66666666666666</ele><time>2026-05-02T11:09:16Z</time></trkpt><trkpt lat="44.70505262305205" lon="10.131579888680264"><ele>139.33333333333331</ele><time>2026-05-02T11:09:17Z</time></trkpt><trkpt lat="44.70517370041065" lon="10.13182082428104"><ele>140.0</ele><time>2026-05-02T11:09:18Z</time></trkpt><trkpt lat="44.705303636290786" lon="10.132048068106402"><ele>140.0</ele><time>2026-05-02T11:09:19Z</time></trkpt><trkpt lat="44.705406905734016" lon="10.132302708919152"><ele>140.0</ele><time>2026-05-02T11:09:20Z</time></trkpt><trkpt lat="44.70553418083342" lon="10.132525447323088"><ele>140.0</ele><time>2026-05-02T11:09:21Z</time></trkpt><trkpt lat="44.70564843401132" lon="10.132761354021738"><ele>140.66666666666666</ele><time>2026-05-02T11:09:22Z</time></trkpt><trkpt lat="44.70576064862656" lon="10.132991537310424"><ele>141.33333333333334</ele><time>2026-05-02T11:09:23Z</time></trkpt><trkpt lat="44.70587508286321" lon="10.133221871076017"><ele>142.0</ele><time>2026-05-02T11:09:24Z</time></trkpt><trkpt lat="44.70599046280849" lon="10.13344735726991"><ele>141.66666666666669</ele><time>2026-05-02T11:09:25Z</time></trkpt><trkpt lat="44.70611034934966" lon="10.133675251501746"><ele>141.33333333333334</ele><time>2026-05-02T11:09:26Z</time></trkpt><trkpt lat="44.70623915896379" lon="10.133910040431582"><ele>141.0</ele><time>2026-05-02T11:09:27Z</time></trkpt><trkpt lat="44.706371833915846" lon="10.134148700676434"><ele>140.66666666666666</ele><time>2026-05-02T11:09:28Z</time></trkpt><trkpt lat="44.70650920705849" lon="10.13440018952529"><ele>140.33333333333331</ele><time>2026-05-02T11:09:29Z</time></trkpt><trkpt lat="44.70664376411128" lon="10.134651524589414"><ele>140.0</ele><time>2026-05-02T11:09:30Z</time></trkpt><trkpt lat="44.706778766359" lon="10.134902079070011"><ele>138.66666666666666</ele><time>2026-05-02T11:09:31Z</time></trkpt><trkpt lat="44.70691301492315" lon="10.13515211008849"><ele>137.33333333333334</ele><time>2026-05-02T11:09:32Z</time></trkpt><trkpt lat="44.70704717200766" lon="10.135402073081458"><ele>136.0</ele><time>2026-05-02T11:09:33Z</time></trkpt><trkpt lat="44.707181743469334" lon="10.135651331838691"><ele>136.0</ele><time>2026-05-02T11:09:34Z</time></trkpt><trkpt lat="44.70731407528745" lon="10.135896929819376"><ele>136.0</ele><time>2026-05-02T11:09:35Z</time></trkpt><trkpt lat="44.707445782726474" lon="10.136141676827709"><ele>136.0</ele><time>2026-05-02T11:09:36Z</time></trkpt><trkpt lat="44.70757381038627" lon="10.136380898928131"><ele>136.66666666666669</ele><time>2026-05-02T11:09:37Z</time></trkpt><trkpt lat="44.70769940020608" lon="10.136612836385414"><ele>137.33333333333334</ele><time>2026-05-02T11:09:38Z</time></trkpt><trkpt lat="44.70781885421938" lon="10.136834210858975"><ele>138.0</ele><time>2026-05-02T11:09:39Z</time></trkpt><trkpt lat="44.70793632812346" lon="10.13705237040432"><ele>138.0</ele><time>2026-05-02T11:09:40Z</time></trkpt><trkpt lat="44.708047408864154" lon="10.137258123365974"><ele>138.0</ele><time>2026-05-02T11:09:41Z</time></trkpt><trkpt lat="44.70815319285074" lon="10.1374587054814"><ele>138.0</ele><time>2026-05-02T11:09:42Z</time></trkpt><trkpt lat="44.70826283291736" lon="10.137666258900103"><ele>138.33333333333334</ele><time>2026-05-02T11:09:43Z</time></trkpt><trkpt lat="44.70837811640608" lon="10.137875679162507"><ele>138.66666666666669</ele><time>2026-05-02T11:09:44Z</time></trkpt><trkpt lat="44.70848865204831" lon="10.138090590728538"><ele>139.0</ele><time>2026-05-02T11:09:45Z</time></trkpt><trkpt lat="44.708599509787646" lon="10.138307201737888"><ele>138.33333333333334</ele><time>2026-05-02T11:09:46Z</time></trkpt><trkpt lat="44.708711898281365" lon="10.138523628531674"><ele>137.66666666666666</ele><time>2026-05-02T11:09:47Z</time></trkpt><trkpt lat="44.708825235318656" lon="10.138738014992734"><ele>137.0</ele><time>2026-05-02T11:09:48Z</time></trkpt><trkpt lat="44.70893675066199" lon="10.138953092286654"><ele>137.66666666666666</ele><time>2026-05-02T11:09:49Z</time></trkpt><trkpt lat="44.70904794790956" lon="10.139165838361519"><ele>138.33333333333334</ele><time>2026-05-02T11:09:50Z</time></trkpt><trkpt lat="44.70916592562949" lon="10.139380527075113"><ele>139.0</ele><time>2026-05-02T11:09:51Z</time></trkpt><trkpt lat="44.709288694613996" lon="10.13958959301466"><ele>137.66666666666669</ele><time>2026-05-02T11:09:52Z</time></trkpt><trkpt lat="44.70942408400204" lon="10.13977132609453"><ele>136.33333333333334</ele><time>2026-05-02T11:09:53Z</time></trkpt><trkpt lat="44.709571506917115" lon="10.139939007876409"><ele>135.0</ele><time>2026-05-02T11:09:54Z</time></trkpt><trkpt lat="44.709726017391674" lon="10.140107889169869"><ele>135.0</ele><time>2026-05-02T11:09:55Z</time></trkpt><trkpt lat="44.70989258398397" lon="10.14028584162764"><ele>135.0</ele><time>2026-05-02T11:09:55.999Z</time></trkpt><trkpt lat="44.71005715953899" lon="10.140468684328871"><ele>135.0</ele><time>2026-05-02T11:09:56.999Z</time></trkpt><trkpt lat="44.71021898152503" lon="10.140653229646757"><ele>134.0</ele><time>2026-05-02T11:09:57.999Z</time></trkpt><trkpt lat="44.71037785848583" lon="10.140835641515523"><ele>133.0</ele><time>2026-05-02T11:09:58.999Z</time></trkpt><trkpt lat="44.71052325639567" lon="10.141034338968897"><ele>132.0</ele><time>2026-05-02T11:09:59.999Z</time></trkpt><trkpt lat="44.710648059327106" lon="10.141237621997014"><ele>132.0</ele><time>2026-05-02T11:10:00.999Z</time></trkpt><trkpt lat="44.71076565345321" lon="10.14143951067109"><ele>132.0</ele><time>2026-05-02T11:10:01.999Z</time></trkpt><trkpt lat="44.71087613330466" lon="10.1416152016812"><ele>132.0</ele><time>2026-05-02T11:10:02.999Z</time></trkpt><trkpt lat="44.71097418235894" lon="10.141787709752116"><ele>132.33333333333334</ele><time>2026-05-02T11:10:03.999Z</time></trkpt><trkpt lat="44.71107600600778" lon="10.141948542594703"><ele>132.66666666666669</ele><time>2026-05-02T11:10:04.999Z</time></trkpt><trkpt lat="44.71118247682023" lon="10.142106289686934"><ele>133.0</ele><time>2026-05-02T11:10:05.999Z</time></trkpt><trkpt lat="44.711311636002144" lon="10.142256238619316"><ele>133.66666666666669</ele><time>2026-05-02T11:10:06.999Z</time></trkpt><trkpt lat="44.71144567763447" lon="10.142403133396414"><ele>134.33333333333334</ele><time>2026-05-02T11:10:07.999Z</time></trkpt><trkpt lat="44.71158351468187" lon="10.142545350162873"><ele>135.0</ele><time>2026-05-02T11:10:08.999Z</time></trkpt><trkpt lat="44.71172283364358" lon="10.142686171767343"><ele>135.0</ele><time>2026-05-02T11:10:09.999Z</time></trkpt><trkpt lat="44.71186531714982" lon="10.142832314818959"><ele>135.0</ele><time>2026-05-02T11:10:10.999Z</time></trkpt><trkpt lat="44.71201265085002" lon="10.14298839572464"><ele>135.0</ele><time>2026-05-02T11:10:11.999Z</time></trkpt><trkpt lat="44.71216495916959" lon="10.14314909494552"><ele>134.66666666666666</ele><time>2026-05-02T11:10:12.999Z</time></trkpt><trkpt lat="44.71230687706279" lon="10.143310827623868"><ele>134.33333333333331</ele><time>2026-05-02T11:10:13.999Z</time></trkpt><trkpt lat="44.71244535424948" lon="10.14345200625353"><ele>134.0</ele><time>2026-05-02T11:10:14.999Z</time></trkpt><trkpt lat="44.71257426573471" lon="10.14360833056679"><ele>134.0</ele><time>2026-05-02T11:10:15.999Z</time></trkpt><trkpt lat="44.71269010996219" lon="10.143789893552338"><ele>134.0</ele><time>2026-05-02T11:10:16.999Z</time></trkpt><trkpt lat="44.71279014954634" lon="10.14400583951045"><ele>134.0</ele><time>2026-05-02T11:10:17.999Z</time></trkpt><trkpt lat="44.71288415314915" lon="10.144236653135723"><ele>133.0</ele><time>2026-05-02T11:10:18.999Z</time></trkpt><trkpt lat="44.71297947486622" lon="10.144469735758568"><ele>132.0</ele><time>2026-05-02T11:10:19.999Z</time></trkpt><trkpt lat="44.71307584230398" lon="10.144701867984308"><ele>131.0</ele><time>2026-05-02T11:10:20.999Z</time></trkpt><trkpt lat="44.71317639135121" lon="10.144931953839453"><ele>131.0</ele><time>2026-05-02T11:10:21.999Z</time></trkpt><trkpt lat="44.71327655544273" lon="10.145159558830128"><ele>131.0</ele><time>2026-05-02T11:10:22.999Z</time></trkpt><trkpt lat="44.713379365144284" lon="10.145398662674417"><ele>131.0</ele><time>2026-05-02T11:10:23.999Z</time></trkpt><trkpt lat="44.713489550974984" lon="10.145645292815262"><ele>129.66666666666666</ele><time>2026-05-02T11:10:24.999Z</time></trkpt><trkpt lat="44.71359474558556" lon="10.14588659332951"><ele>128.33333333333334</ele><time>2026-05-02T11:10:25.999Z</time></trkpt><trkpt lat="44.71370689077827" lon="10.146123541481264"><ele>127.0</ele><time>2026-05-02T11:10:26.999Z</time></trkpt><trkpt lat="44.71381850544808" lon="10.146355100535686"><ele>128.33333333333334</ele><time>2026-05-02T11:10:27.999Z</time></trkpt><trkpt lat="44.713933291694005" lon="10.146589123994856"><ele>129.66666666666666</ele><time>2026-05-02T11:10:28.999Z</time></trkpt><trkpt lat="44.71404770482905" lon="10.146829888346552"><ele>131.0</ele><time>2026-05-02T11:10:29.999Z</time></trkpt><trkpt lat="44.71416677643188" lon="10.147069515851332"><ele>131.0</ele><time>2026-05-02T11:10:30.999Z</time></trkpt><trkpt lat="44.71427722549919" lon="10.147302578635882"><ele>131.0</ele><time>2026-05-02T11:10:31.999Z</time></trkpt><trkpt lat="44.7143871916142" lon="10.14753160624215"><ele>131.0</ele><time>2026-05-02T11:10:32.999Z</time></trkpt><trkpt lat="44.714495538272885" lon="10.147763314090676"><ele>129.66666666666666</ele><time>2026-05-02T11:10:33.999Z</time></trkpt><trkpt lat="44.71459352480385" lon="10.147979883014992"><ele>128.33333333333334</ele><time>2026-05-02T11:10:34.999Z</time></trkpt><trkpt lat="44.714691029100614" lon="10.148195464808992"><ele>127.0</ele><time>2026-05-02T11:10:35.999Z</time></trkpt><trkpt lat="44.71478037932209" lon="10.148419768767804"><ele>127.0</ele><time>2026-05-02T11:10:36.999Z</time></trkpt><trkpt lat="44.71485735123029" lon="10.148662441271552"><ele>127.0</ele><time>2026-05-02T11:10:37.999Z</time></trkpt><trkpt lat="44.714919527296246" lon="10.148908160131382"><ele>127.0</ele><time>2026-05-02T11:10:38.999Z</time></trkpt><trkpt lat="44.714981124448684" lon="10.149160902661485"><ele>127.33333333333334</ele><time>2026-05-02T11:10:39.999Z</time></trkpt><trkpt lat="44.715042243068304" lon="10.149410666504224"><ele>127.66666666666666</ele><time>2026-05-02T11:10:40.999Z</time></trkpt><trkpt lat="44.71508908330533" lon="10.149614922232534"><ele>128.0</ele><time>2026-05-02T11:10:41.999Z</time></trkpt><trkpt lat="44.71513033505278" lon="10.149812119714383"><ele>127.5</ele><time>2026-05-02T11:10:42.999Z</time></trkpt><trkpt lat="44.71516912077493" lon="10.149980432404403"><ele>127.0</ele><time>2026-05-02T11:10:43.999Z</time></trkpt><trkpt lat="44.71532502678357" lon="10.150434514285825"><ele>127.0</ele><time>2026-05-02T11:10:44.999Z</time></trkpt><trkpt lat="44.71541724045425" lon="10.1506790349231"><ele>127.0</ele><time>2026-05-02T11:10:45.999Z</time></trkpt><trkpt lat="44.71553194119493" lon="10.150911684988223"><ele>127.0</ele><time>2026-05-02T11:10:46.999Z</time></trkpt><trkpt lat="44.71565225668931" lon="10.151143783961455"><ele>127.66666666666667</ele><time>2026-05-02T11:10:47.999Z</time></trkpt><trkpt lat="44.71577417980963" lon="10.151371153139719"><ele>128.33333333333334</ele><time>2026-05-02T11:10:48.999Z</time></trkpt><trkpt lat="44.71590013214335" lon="10.151607418215086"><ele>129.0</ele><time>2026-05-02T11:10:49.999Z</time></trkpt><trkpt lat="44.71602521676932" lon="10.151842023093263"><ele>130.33333333333334</ele><time>2026-05-02T11:10:50.999Z</time></trkpt><trkpt lat="44.716147197886194" lon="10.152069596572545"><ele>131.66666666666669</ele><time>2026-05-02T11:10:51.999Z</time></trkpt><trkpt lat="44.71626595118503" lon="10.152291628608333"><ele>133.0</ele><time>2026-05-02T11:10:52.999Z</time></trkpt><trkpt lat="44.716381328041564" lon="10.15250793486462"><ele>133.0</ele><time>2026-05-02T11:10:53.999Z</time></trkpt><trkpt lat="44.71648547743458" lon="10.152715215300736"><ele>133.0</ele><time>2026-05-02T11:10:54.999Z</time></trkpt><trkpt lat="44.71658607249382" lon="10.152921319199468"><ele>133.0</ele><time>2026-05-02T11:10:55.999Z</time></trkpt><trkpt lat="44.716694075750965" lon="10.153127282569818"><ele>132.0</ele><time>2026-05-02T11:10:56.999Z</time></trkpt><trkpt lat="44.71680378684083" lon="10.15333840420495"><ele>131.0</ele><time>2026-05-02T11:10:57.999Z</time></trkpt><trkpt lat="44.71689086509761" lon="10.153574694758543"><ele>130.0</ele><time>2026-05-02T11:10:58.999Z</time></trkpt><trkpt lat="44.716986847931" lon="10.153812869039541"><ele>129.66666666666669</ele><time>2026-05-02T11:10:59.999Z</time></trkpt><trkpt lat="44.717082276755725" lon="10.154072802672378"><ele>129.33333333333334</ele><time>2026-05-02T11:11:00.999Z</time></trkpt><trkpt lat="44.717192414259955" lon="10.154334002728481"><ele>129.0</ele><time>2026-05-02T11:11:01.999Z</time></trkpt><trkpt lat="44.717294772434066" lon="10.154627525807916"><ele>128.0</ele><time>2026-05-02T11:11:02.999Z</time></trkpt><trkpt lat="44.71740304495048" lon="10.154931220456987"><ele>127.0</ele><time>2026-05-02T11:11:03.999Z</time></trkpt><trkpt lat="44.71751775631925" lon="10.155244986871322"><ele>127.0</ele><time>2026-05-02T11:11:04.999Z</time></trkpt><trkpt lat="44.71763324281426" lon="10.155566936749668"><ele>127.0</ele><time>2026-05-02T11:11:06Z</time></trkpt><trkpt lat="44.717749570431764" lon="10.15589026243935"><ele>127.0</ele><time>2026-05-02T11:11:07Z</time></trkpt><trkpt lat="44.71785984643262" lon="10.15619983704708"><ele>127.0</ele><time>2026-05-02T11:11:08Z</time></trkpt><trkpt lat="44.71796066609815" lon="10.156484115295623"><ele>127.33333333333334</ele><time>2026-05-02T11:11:09Z</time></trkpt><trkpt lat="44.718060993960464" lon="10.15675164069101"><ele>127.66666666666666</ele><time>2026-05-02T11:11:10Z</time></trkpt><trkpt lat="44.71815977036124" lon="10.157011772969486"><ele>128.0</ele><time>2026-05-02T11:11:11Z</time></trkpt><trkpt lat="44.71825975091796" lon="10.157286117208447"><ele>127.33333333333333</ele><time>2026-05-02T11:11:12Z</time></trkpt><trkpt lat="44.71835644828894" lon="10.157548479412824"><ele>126.66666666666666</ele><time>2026-05-02T11:11:13Z</time></trkpt><trkpt lat="44.718456830609256" lon="10.157823821395791"><ele>126.0</ele><time>2026-05-02T11:11:14Z</time></trkpt><trkpt lat="44.71855946758956" lon="10.158095962516342"><ele>124.0</ele><time>2026-05-02T11:11:15Z</time></trkpt><trkpt lat="44.71864729391223" lon="10.158383819321752"><ele>122.0</ele><time>2026-05-02T11:11:16Z</time></trkpt><trkpt lat="44.71875233594273" lon="10.158669037925465"><ele>122.0</ele><time>2026-05-02T11:11:17Z</time></trkpt><trkpt lat="44.718853151414194" lon="10.158943065026074"><ele>122.0</ele><time>2026-05-02T11:11:18Z</time></trkpt><trkpt lat="44.718954986698215" lon="10.159223218357766"><ele>122.0</ele><time>2026-05-02T11:11:19Z</time></trkpt><trkpt lat="44.71906588211629" lon="10.159530838582812"><ele>123.0</ele><time>2026-05-02T11:11:20Z</time></trkpt><trkpt lat="44.71918530087043" lon="10.159869775048348"><ele>124.0</ele><time>2026-05-02T11:11:21Z</time></trkpt><trkpt lat="44.71930126655243" lon="10.160206351448375"><ele>123.5</ele><time>2026-05-02T11:11:22Z</time></trkpt><trkpt lat="44.7194305679031" lon="10.16058615313549"><ele>123.0</ele><time>2026-05-02T11:11:23Z</time></trkpt><trkpt lat="44.71956693338068" lon="10.160998633771365"><ele>123.0</ele><time>2026-05-02T11:11:24Z</time></trkpt><trkpt lat="44.719707408465524" lon="10.161423545084372"><ele>123.0</ele><time>2026-05-02T11:11:25Z</time></trkpt><trkpt lat="44.71984432422579" lon="10.161837690223159"><ele>123.0</ele><time>2026-05-02T11:11:26Z</time></trkpt><trkpt lat="44.7199902603592" lon="10.162227243727095"><ele>123.0</ele><time>2026-05-02T11:11:27Z</time></trkpt><trkpt lat="44.72011140807703" lon="10.162620442028876"><ele>122.0</ele><time>2026-05-02T11:11:28Z</time></trkpt><trkpt lat="44.72023703298655" lon="10.162997982594476"><ele>121.0</ele><time>2026-05-02T11:11:29Z</time></trkpt><trkpt lat="44.72035919339827" lon="10.163370095734338"><ele>121.0</ele><time>2026-05-02T11:11:30Z</time></trkpt><trkpt lat="44.72047468969917" lon="10.163730221044752"><ele>121.0</ele><time>2026-05-02T11:11:31Z</time></trkpt><trkpt lat="44.72058580491324" lon="10.164080501230567"><ele>120.5</ele><time>2026-05-02T11:11:32Z</time></trkpt><trkpt lat="44.72069496099635" lon="10.164424980458184"><ele>120.0</ele><time>2026-05-02T11:11:33Z</time></trkpt><trkpt lat="44.72079897423498" lon="10.164764927914609"><ele>119.5</ele><time>2026-05-02T11:11:34Z</time></trkpt><trkpt lat="44.72089998213415" lon="10.165094841279"><ele>119.0</ele><time>2026-05-02T11:11:35Z</time></trkpt><trkpt lat="44.72099975675547" lon="10.165415812246446"><ele>118.5</ele><time>2026-05-02T11:11:36Z</time></trkpt><trkpt lat="44.7210968446939" lon="10.165731231437444"><ele>118.0</ele><time>2026-05-02T11:11:37Z</time></trkpt><trkpt lat="44.721191645634974" lon="10.166047853983693"><ele>118.0</ele><time>2026-05-02T11:11:38Z</time></trkpt><trkpt lat="44.72127801823994" lon="10.166352242017204"><ele>118.0</ele><time>2026-05-02T11:11:39Z</time></trkpt><trkpt lat="44.72135852860523" lon="10.166641789017145"><ele>118.0</ele><time>2026-05-02T11:11:40Z</time></trkpt><trkpt lat="44.72143617243915" lon="10.166912709374742"><ele>118.0</ele><time>2026-05-02T11:11:41Z</time></trkpt><trkpt lat="44.72151625163802" lon="10.16716924742198"><ele>118.0</ele><time>2026-05-02T11:11:42Z</time></trkpt><trkpt lat="44.72160554058243" lon="10.167419442838606"><ele>118.0</ele><time>2026-05-02T11:11:43Z</time></trkpt><trkpt lat="44.721698358421044" lon="10.16765876783808"><ele>118.0</ele><time>2026-05-02T11:11:44Z</time></trkpt><trkpt lat="44.72178848374551" lon="10.167885223230742"><ele>118.0</ele><time>2026-05-02T11:11:45Z</time></trkpt><trkpt lat="44.72188019195248" lon="10.168122258013108"><ele>119.0</ele><time>2026-05-02T11:11:46Z</time></trkpt><trkpt lat="44.72197036160837" lon="10.168359758216159"><ele>120.0</ele><time>2026-05-02T11:11:47Z</time></trkpt><trkpt lat="44.722061143166705" lon="10.168595504260477"><ele>121.0</ele><time>2026-05-02T11:11:48Z</time></trkpt><trkpt lat="44.722148889491734" lon="10.168833804296348"><ele>120.33333333333334</ele><time>2026-05-02T11:11:49Z</time></trkpt><trkpt lat="44.72224921298006" lon="10.169080991353258"><ele>119.66666666666666</ele><time>2026-05-02T11:11:50Z</time></trkpt><trkpt lat="44.72234255507292" lon="10.16931352005715"><ele>119.0</ele><time>2026-05-02T11:11:51Z</time></trkpt><trkpt lat="44.72243023229218" lon="10.169535968169399"><ele>119.0</ele><time>2026-05-02T11:11:52Z</time></trkpt><trkpt lat="44.722512933708614" lon="10.169753397454752"><ele>119.0</ele><time>2026-05-02T11:11:53Z</time></trkpt><trkpt lat="44.722598882065085" lon="10.16997709918499"><ele>119.0</ele><time>2026-05-02T11:11:54Z</time></trkpt><trkpt lat="44.72268787658168" lon="10.170206324413849"><ele>118.33333333333333</ele><time>2026-05-02T11:11:55Z</time></trkpt><trkpt lat="44.72278098830345" lon="10.170440830235501"><ele>117.66666666666666</ele><time>2026-05-02T11:11:56Z</time></trkpt><trkpt lat="44.72286606584628" lon="10.17066976691419"><ele>117.0</ele><time>2026-05-02T11:11:57Z</time></trkpt><trkpt lat="44.72295025418619" lon="10.170887082104915"><ele>117.0</ele><time>2026-05-02T11:11:58Z</time></trkpt><trkpt lat="44.72303023945978" lon="10.171093134113976"><ele>117.0</ele><time>2026-05-02T11:11:59Z</time></trkpt><trkpt lat="44.72310635361179" lon="10.171292371756378"><ele>117.0</ele><time>2026-05-02T11:12:00Z</time></trkpt><trkpt lat="44.723183824463256" lon="10.171483148823006"><ele>117.33333333333334</ele><time>2026-05-02T11:12:01Z</time></trkpt><trkpt lat="44.72325847669688" lon="10.17167103099428"><ele>117.66666666666667</ele><time>2026-05-02T11:12:02Z</time></trkpt><trkpt lat="44.72333600833571" lon="10.171865925601276"><ele>118.0</ele><time>2026-05-02T11:12:03Z</time></trkpt><trkpt lat="44.72341341355309" lon="10.172067840850291"><ele>118.0</ele><time>2026-05-02T11:12:04Z</time></trkpt><trkpt lat="44.72348870654643" lon="10.172275399560048"><ele>118.0</ele><time>2026-05-02T11:12:05Z</time></trkpt><trkpt lat="44.723568453427525" lon="10.172471367480998"><ele>118.0</ele><time>2026-05-02T11:12:06Z</time></trkpt><trkpt lat="44.72364643186033" lon="10.172660830807162"><ele>118.0</ele><time>2026-05-02T11:12:07Z</time></trkpt><trkpt lat="44.723725750291685" lon="10.172840324310835"><ele>118.0</ele><time>2026-05-02T11:12:08Z</time></trkpt><trkpt lat="44.723808706221064" lon="10.173014950188207"><ele>118.0</ele><time>2026-05-02T11:12:08.999Z</time></trkpt><trkpt lat="44.72388312835616" lon="10.17318714308755"><ele>118.0</ele><time>2026-05-02T11:12:09.999Z</time></trkpt><trkpt lat="44.7239520445323" lon="10.17335816237076"><ele>118.0</ele><time>2026-05-02T11:12:10.999Z</time></trkpt><trkpt lat="44.7240221735992" lon="10.173543778318795"><ele>118.0</ele><time>2026-05-02T11:12:11.999Z</time></trkpt><trkpt lat="44.72409059738692" lon="10.17374829299411"><ele>118.0</ele><time>2026-05-02T11:12:12.999Z</time></trkpt><trkpt lat="44.72416925032865" lon="10.173944295990484"><ele>118.0</ele><time>2026-05-02T11:12:13.999Z</time></trkpt><trkpt lat="44.7242454283528" lon="10.174143151929487"><ele>118.0</ele><time>2026-05-02T11:12:14.999Z</time></trkpt><trkpt lat="44.724325097523625" lon="10.174342725542274"><ele>118.0</ele><time>2026-05-02T11:12:15.999Z</time></trkpt><trkpt lat="44.7244089402097" lon="10.174543844839798"><ele>118.0</ele><time>2026-05-02T11:12:16.999Z</time></trkpt><trkpt lat="44.72449078631121" lon="10.174743631613339"><ele>118.0</ele><time>2026-05-02T11:12:17.999Z</time></trkpt><trkpt lat="44.724572677576596" lon="10.17494191258792"><ele>118.0</ele><time>2026-05-02T11:12:18.999Z</time></trkpt><trkpt lat="44.7246584825437" lon="10.175139121029574"><ele>118.0</ele><time>2026-05-02T11:12:19.999Z</time></trkpt><trkpt lat="44.72474611166472" lon="10.175346197320348"><ele>118.0</ele><time>2026-05-02T11:12:20.999Z</time></trkpt><trkpt lat="44.724835733455635" lon="10.17555588502924"><ele>118.0</ele><time>2026-05-02T11:12:21.999Z</time></trkpt><trkpt lat="44.724929177924004" lon="10.17577300268923"><ele>118.0</ele><time>2026-05-02T11:12:22.999Z</time></trkpt><trkpt lat="44.725027363772135" lon="10.1759929261072"><ele>118.0</ele><time>2026-05-02T11:12:23.999Z</time></trkpt><trkpt lat="44.725137018746075" lon="10.176230840220576"><ele>118.0</ele><time>2026-05-02T11:12:24.999Z</time></trkpt><trkpt lat="44.725250361974254" lon="10.176471695866692"><ele>116.66666666666667</ele><time>2026-05-02T11:12:25.999Z</time></trkpt><trkpt lat="44.7253725698847" lon="10.176720989560478"><ele>115.33333333333334</ele><time>2026-05-02T11:12:26.999Z</time></trkpt><trkpt lat="44.72549600809875" lon="10.176976555611322"><ele>114.0</ele><time>2026-05-02T11:12:27.999Z</time></trkpt><trkpt lat="44.72561807583161" lon="10.177239243703045"><ele>114.5</ele><time>2026-05-02T11:12:28.999Z</time></trkpt><trkpt lat="44.725744676302064" lon="10.177511090035884"><ele>115.0</ele><time>2026-05-02T11:12:29.999Z</time></trkpt><trkpt lat="44.725873418756535" lon="10.177783078459232"><ele>115.0</ele><time>2026-05-02T11:12:30.999Z</time></trkpt><trkpt lat="44.72600898227454" lon="10.178054210840912"><ele>115.0</ele><time>2026-05-02T11:12:31.999Z</time></trkpt><trkpt lat="44.72615745176776" lon="10.17832193778544"><ele>114.5</ele><time>2026-05-02T11:12:32.999Z</time></trkpt><trkpt lat="44.72631245181945" lon="10.178587577990177"><ele>114.0</ele><time>2026-05-02T11:12:33.999Z</time></trkpt><trkpt lat="44.72647709709802" lon="10.178843122374895"><ele>115.0</ele><time>2026-05-02T11:12:34.999Z</time></trkpt><trkpt lat="44.726649671459775" lon="10.179084196173768"><ele>116.0</ele><time>2026-05-02T11:12:35.999Z</time></trkpt><trkpt lat="44.72682541078993" lon="10.17931122117629"><ele>114.0</ele><time>2026-05-02T11:12:36.999Z</time></trkpt><trkpt lat="44.72700365791317" lon="10.179531466786129"><ele>112.0</ele><time>2026-05-02T11:12:37.999Z</time></trkpt><trkpt lat="44.72718080986695" lon="10.179736388676941"><ele>113.0</ele><time>2026-05-02T11:12:38.999Z</time></trkpt><trkpt lat="44.727361003212515" lon="10.179942728740937"><ele>114.0</ele><time>2026-05-02T11:12:39.999Z</time></trkpt><trkpt lat="44.72753961375012" lon="10.180145535637909"><ele>114.0</ele><time>2026-05-02T11:12:40.999Z</time></trkpt><trkpt lat="44.72771963103473" lon="10.18035112148353"><ele>114.0</ele><time>2026-05-02T11:12:41.999Z</time></trkpt><trkpt lat="44.7278970715599" lon="10.180554187370836"><ele>114.33333333333334</ele><time>2026-05-02T11:12:42.999Z</time></trkpt><trkpt lat="44.728071850276024" lon="10.180750221652518"><ele>114.66666666666667</ele><time>2026-05-02T11:12:43.999Z</time></trkpt><trkpt lat="44.728248562289174" lon="10.180938647991367"><ele>115.0</ele><time>2026-05-02T11:12:44.999Z</time></trkpt><trkpt lat="44.72841806134926" lon="10.181145505961895"><ele>114.5</ele><time>2026-05-02T11:12:45.999Z</time></trkpt><trkpt lat="44.728605521428356" lon="10.18132446798352"><ele>114.0</ele><time>2026-05-02T11:12:46.999Z</time></trkpt><trkpt lat="44.72878352463208" lon="10.181526338371302"><ele>114.0</ele><time>2026-05-02T11:12:47.999Z</time></trkpt><trkpt lat="44.72895363265632" lon="10.181744043703436"><ele>114.0</ele><time>2026-05-02T11:12:48.999Z</time></trkpt><trkpt lat="44.72914762328924" lon="10.1819254191965"><ele>114.0</ele><time>2026-05-02T11:12:49.999Z</time></trkpt><trkpt lat="44.72933241423053" lon="10.18212682191475"><ele>114.0</ele><time>2026-05-02T11:12:50.999Z</time></trkpt><trkpt lat="44.72951981582836" lon="10.182331470145874"><ele>114.0</ele><time>2026-05-02T11:12:51.999Z</time></trkpt><trkpt lat="44.72970659182932" lon="10.182534845392407"><ele>114.0</ele><time>2026-05-02T11:12:52.999Z</time></trkpt><trkpt lat="44.729890346618056" lon="10.182735340214748"><ele>114.0</ele><time>2026-05-02T11:12:53.999Z</time></trkpt><trkpt lat="44.73007388273063" lon="10.18293078089248"><ele>114.0</ele><time>2026-05-02T11:12:54.999Z</time></trkpt><trkpt lat="44.730262626447065" lon="10.183128289752915"><ele>112.5</ele><time>2026-05-02T11:12:55.999Z</time></trkpt><trkpt lat="44.73044572044412" lon="10.183313099449453"><ele>111.0</ele><time>2026-05-02T11:12:56.999Z</time></trkpt><trkpt lat="44.730641781069714" lon="10.18349380220152"><ele>111.0</ele><time>2026-05-02T11:12:57.999Z</time></trkpt><trkpt lat="44.73084062409668" lon="10.183653857441266"><ele>111.0</ele><time>2026-05-02T11:12:58.999Z</time></trkpt><trkpt lat="44.73103850734767" lon="10.183809168328878"><ele>111.0</ele><time>2026-05-02T11:12:59.999Z</time></trkpt><trkpt lat="44.73123110492959" lon="10.183957035981194"><ele>111.0</ele><time>2026-05-02T11:13:00.999Z</time></trkpt><trkpt lat="44.73141790214083" lon="10.184106291287232"><ele>111.0</ele><time>2026-05-02T11:13:01.999Z</time></trkpt><trkpt lat="44.73159442608237" lon="10.18424225452414"><ele>110.66666666666666</ele><time>2026-05-02T11:13:02.999Z</time></trkpt><trkpt lat="44.73176396994397" lon="10.184369097794614"><ele>110.33333333333333</ele><time>2026-05-02T11:13:03.999Z</time></trkpt><trkpt lat="44.73192173064539" lon="10.184490900128084"><ele>110.0</ele><time>2026-05-02T11:13:04.999Z</time></trkpt><trkpt lat="44.73206002853322" lon="10.184615945312636"><ele>110.0</ele><time>2026-05-02T11:13:05.999Z</time></trkpt><trkpt lat="44.73218196231777" lon="10.184800757631532"><ele>110.0</ele><time>2026-05-02T11:13:06.999Z</time></trkpt><trkpt lat="44.73232566038809" lon="10.184963135062091"><ele>110.0</ele><time>2026-05-02T11:13:07.999Z</time></trkpt><trkpt lat="44.732452306089684" lon="10.185142454259926"><ele>110.66666666666666</ele><time>2026-05-02T11:13:08.999Z</time></trkpt><trkpt lat="44.732583808339754" lon="10.185318019007804"><ele>111.33333333333334</ele><time>2026-05-02T11:13:09.999Z</time></trkpt><trkpt lat="44.73271874842311" lon="10.185497294910414"><ele>112.0</ele><time>2026-05-02T11:13:10.999Z</time></trkpt><trkpt lat="44.732861010089934" lon="10.185683745113694"><ele>112.0</ele><time>2026-05-02T11:13:12Z</time></trkpt><trkpt lat="44.73300388585109" lon="10.185864092022651"><ele>112.0</ele><time>2026-05-02T11:13:13Z</time></trkpt><trkpt lat="44.73315448568285" lon="10.186037187616902"><ele>112.0</ele><time>2026-05-02T11:13:14Z</time></trkpt><trkpt lat="44.73330684191557" lon="10.186199577242116"><ele>112.0</ele><time>2026-05-02T11:13:15Z</time></trkpt><trkpt lat="44.733472195035084" lon="10.186368553097427"><ele>112.0</ele><time>2026-05-02T11:13:16Z</time></trkpt><trkpt lat="44.73363613402992" lon="10.186520819394362"><ele>112.0</ele><time>2026-05-02T11:13:17Z</time></trkpt><trkpt lat="44.733805974006216" lon="10.186675648378154"><ele>112.33333333333334</ele><time>2026-05-02T11:13:18Z</time></trkpt><trkpt lat="44.73398128278933" lon="10.186842247439925"><ele>112.66666666666666</ele><time>2026-05-02T11:13:19Z</time></trkpt><trkpt lat="44.73417079428915" lon="10.18701897804358"><ele>113.0</ele><time>2026-05-02T11:13:20Z</time></trkpt><trkpt lat="44.7343606606817" lon="10.18719441255414"><ele>112.5</ele><time>2026-05-02T11:13:21Z</time></trkpt><trkpt lat="44.73455023920278" lon="10.187366254211234"><ele>112.0</ele><time>2026-05-02T11:13:22Z</time></trkpt><trkpt lat="44.73474830855371" lon="10.187547289719614"><ele>112.0</ele><time>2026-05-02T11:13:23Z</time></trkpt><trkpt lat="44.73494695834914" lon="10.187718906328206"><ele>112.0</ele><time>2026-05-02T11:13:24Z</time></trkpt><trkpt lat="44.735146684217355" lon="10.187888604154418"><ele>111.66666666666667</ele><time>2026-05-02T11:13:25Z</time></trkpt><trkpt lat="44.73534001866937" lon="10.188059598979113"><ele>111.33333333333334</ele><time>2026-05-02T11:13:26Z</time></trkpt><trkpt lat="44.73552874298025" lon="10.188219569255622"><ele>111.0</ele><time>2026-05-02T11:13:27Z</time></trkpt><trkpt lat="44.73570944706074" lon="10.188368143529166"><ele>112.0</ele><time>2026-05-02T11:13:28Z</time></trkpt><trkpt lat="44.73588083449147" lon="10.188518090021919"><ele>113.0</ele><time>2026-05-02T11:13:29Z</time></trkpt><trkpt lat="44.73604964396849" lon="10.188660720508503"><ele>114.0</ele><time>2026-05-02T11:13:30Z</time></trkpt><trkpt lat="44.73621056271463" lon="10.188799947329338"><ele>114.66666666666666</ele><time>2026-05-02T11:13:31Z</time></trkpt><trkpt lat="44.73636877634478" lon="10.188940367330716"><ele>115.33333333333333</ele><time>2026-05-02T11:13:32Z</time></trkpt><trkpt lat="44.73652003364227" lon="10.189074913965536"><ele>116.0</ele><time>2026-05-02T11:13:33Z</time></trkpt><trkpt lat="44.73666264052925" lon="10.189198413420096"><ele>116.0</ele><time>2026-05-02T11:13:34Z</time></trkpt><trkpt lat="44.73680164965844" lon="10.189317676423734"><ele>116.0</ele><time>2026-05-02T11:13:35Z</time></trkpt><trkpt lat="44.73694857686031" lon="10.189439138398525"><ele>116.0</ele><time>2026-05-02T11:13:36Z</time></trkpt><trkpt lat="44.73709931758098" lon="10.189562374090146"><ele>115.66666666666666</ele><time>2026-05-02T11:13:37Z</time></trkpt><trkpt lat="44.73724757006363" lon="10.189692622570103"><ele>115.33333333333334</ele><time>2026-05-02T11:13:38Z</time></trkpt><trkpt lat="44.73739596930403" lon="10.189821566126032"><ele>115.0</ele><time>2026-05-02T11:13:39Z</time></trkpt><trkpt lat="44.73754362011389" lon="10.189946751601997"><ele>115.0</ele><time>2026-05-02T11:13:40Z</time></trkpt><trkpt lat="44.737696975363754" lon="10.190073764212453"><ele>115.0</ele><time>2026-05-02T11:13:41Z</time></trkpt><trkpt lat="44.737850365697696" lon="10.190190943704682"><ele>115.0</ele><time>2026-05-02T11:13:42Z</time></trkpt><trkpt lat="44.73799870340849" lon="10.190319855648918"><ele>115.0</ele><time>2026-05-02T11:13:43Z</time></trkpt><trkpt lat="44.73814577575779" lon="10.190447759098618"><ele>115.0</ele><time>2026-05-02T11:13:44Z</time></trkpt><trkpt lat="44.73829122889851" lon="10.190573745093849"><ele>115.0</ele><time>2026-05-02T11:13:45Z</time></trkpt><trkpt lat="44.73843535114219" lon="10.19068958949401"><ele>115.0</ele><time>2026-05-02T11:13:46Z</time></trkpt><trkpt lat="44.73858016641574" lon="10.190812728878022"><ele>115.0</ele><time>2026-05-02T11:13:47Z</time></trkpt><trkpt lat="44.738731983338674" lon="10.19093275093205"><ele>115.0</ele><time>2026-05-02T11:13:48Z</time></trkpt><trkpt lat="44.738869667292434" lon="10.191048391992219"><ele>115.0</ele><time>2026-05-02T11:13:49Z</time></trkpt><trkpt lat="44.73900049543892" lon="10.19115360751989"><ele>115.0</ele><time>2026-05-02T11:13:50Z</time></trkpt><trkpt lat="44.73912318971025" lon="10.191251885808368"><ele>115.0</ele><time>2026-05-02T11:13:51Z</time></trkpt><trkpt lat="44.73925288633881" lon="10.191354144027246"><ele>115.0</ele><time>2026-05-02T11:13:52Z</time></trkpt><trkpt lat="44.73938400183954" lon="10.191446779677026"><ele>115.25</ele><time>2026-05-02T11:13:53Z</time></trkpt><trkpt lat="44.73950191029239" lon="10.191540734272614"><ele>115.5</ele><time>2026-05-02T11:13:54Z</time></trkpt><trkpt lat="44.7396157555692" lon="10.191635673524026"><ele>115.75</ele><time>2026-05-02T11:13:55Z</time></trkpt><trkpt lat="44.73972490277169" lon="10.191728396407983"><ele>116.0</ele><time>2026-05-02T11:13:56Z</time></trkpt><trkpt lat="44.73982702591535" lon="10.191817121173196"><ele>116.0</ele><time>2026-05-02T11:13:57Z</time></trkpt><trkpt lat="44.73992820873903" lon="10.191904719260249"><ele>116.0</ele><time>2026-05-02T11:13:58Z</time></trkpt><trkpt lat="44.74001435209938" lon="10.192012048906605"><ele>116.0</ele><time>2026-05-02T11:13:59Z</time></trkpt><trkpt lat="44.74009362375033" lon="10.192160629940807"><ele>116.0</ele><time>2026-05-02T11:14:00Z</time></trkpt><trkpt lat="44.74017172819541" lon="10.192335817681158"><ele>115.0</ele><time>2026-05-02T11:14:01Z</time></trkpt><trkpt lat="44.74026078968471" lon="10.19252213685433"><ele>114.0</ele><time>2026-05-02T11:14:02Z</time></trkpt><trkpt lat="44.7403579353861" lon="10.192715979996747"><ele>113.0</ele><time>2026-05-02T11:14:03Z</time></trkpt><trkpt lat="44.74046362038193" lon="10.192919553928528"><ele>113.0</ele><time>2026-05-02T11:14:04Z</time></trkpt><trkpt lat="44.74057371928071" lon="10.193136285544487"><ele>113.0</ele><time>2026-05-02T11:14:05Z</time></trkpt><trkpt lat="44.74068948989816" lon="10.193362777869428"><ele>113.0</ele><time>2026-05-02T11:14:06Z</time></trkpt><trkpt lat="44.740802933937594" lon="10.193590357782236"><ele>113.0</ele><time>2026-05-02T11:14:07Z</time></trkpt><trkpt lat="44.74092840410276" lon="10.193822805475211"><ele>113.0</ele><time>2026-05-02T11:14:08Z</time></trkpt><trkpt lat="44.741052378906794" lon="10.19406899169757"><ele>113.0</ele><time>2026-05-02T11:14:09Z</time></trkpt><trkpt lat="44.74117869907544" lon="10.194319724984856"><ele>113.0</ele><time>2026-05-02T11:14:10Z</time></trkpt><trkpt lat="44.74130983771206" lon="10.194567864718609"><ele>113.0</ele><time>2026-05-02T11:14:11Z</time></trkpt><trkpt lat="44.741441392380004" lon="10.194826811246609"><ele>113.0</ele><time>2026-05-02T11:14:12Z</time></trkpt><trkpt lat="44.74157549509857" lon="10.195086594316177"><ele>114.0</ele><time>2026-05-02T11:14:13Z</time></trkpt><trkpt lat="44.74170790946762" lon="10.19534754745971"><ele>115.0</ele><time>2026-05-02T11:14:14Z</time></trkpt><trkpt lat="44.741842109776925" lon="10.195607995346839"><ele>115.0</ele><time>2026-05-02T11:14:15Z</time></trkpt><trkpt lat="44.74197619358689" lon="10.195868952891422"><ele>115.0</ele><time>2026-05-02T11:14:16Z</time></trkpt><trkpt lat="44.74211022018777" lon="10.19613082147854"><ele>115.0</ele><time>2026-05-02T11:14:17Z</time></trkpt><trkpt lat="44.742244573734425" lon="10.196395222035253"><ele>115.0</ele><time>2026-05-02T11:14:18Z</time></trkpt><trkpt lat="44.74238173419465" lon="10.19666229491617"><ele>114.5</ele><time>2026-05-02T11:14:19Z</time></trkpt><trkpt lat="44.74251691748748" lon="10.196931187545283"><ele>114.0</ele><time>2026-05-02T11:14:19.999Z</time></trkpt><trkpt lat="44.74265258626969" lon="10.197200563854713"><ele>112.5</ele><time>2026-05-02T11:14:20.999Z</time></trkpt><trkpt lat="44.74278809608172" lon="10.197468277994211"><ele>111.0</ele><time>2026-05-02T11:14:21.999Z</time></trkpt><trkpt lat="44.74292317288932" lon="10.197734951531935"><ele>111.0</ele><time>2026-05-02T11:14:22.999Z</time></trkpt><trkpt lat="44.74305845969272" lon="10.198003649255703"><ele>111.0</ele><time>2026-05-02T11:14:23.999Z</time></trkpt><trkpt lat="44.743191321724375" lon="10.198266280582912"><ele>111.66666666666666</ele><time>2026-05-02T11:14:24.999Z</time></trkpt><trkpt lat="44.74332185296168" lon="10.198521618744833"><ele>112.33333333333333</ele><time>2026-05-02T11:14:25.999Z</time></trkpt><trkpt lat="44.74345109631746" lon="10.198777119447142"><ele>113.0</ele><time>2026-05-02T11:14:26.999Z</time></trkpt><trkpt lat="44.743582806901834" lon="10.19903549106627"><ele>113.0</ele><time>2026-05-02T11:14:27.999Z</time></trkpt><trkpt lat="44.74371350797522" lon="10.19929045278959"><ele>113.0</ele><time>2026-05-02T11:14:28.999Z</time></trkpt><trkpt lat="44.74384646671328" lon="10.199545773675096"><ele>113.0</ele><time>2026-05-02T11:14:29.999Z</time></trkpt><trkpt lat="44.743981160436036" lon="10.199808250027248"><ele>112.66666666666666</ele><time>2026-05-02T11:14:30.999Z</time></trkpt><trkpt lat="44.74411120645906" lon="10.200064558712498"><ele>112.33333333333334</ele><time>2026-05-02T11:14:31.999Z</time></trkpt><trkpt lat="44.744237048714886" lon="10.200310833345288"><ele>112.0</ele><time>2026-05-02T11:14:32.999Z</time></trkpt><trkpt lat="44.744356123070766" lon="10.20054883144977"><ele>112.0</ele><time>2026-05-02T11:14:33.999Z</time></trkpt><trkpt lat="44.74447452002318" lon="10.200786075820545"><ele>112.0</ele><time>2026-05-02T11:14:34.999Z</time></trkpt><trkpt lat="44.74459650121086" lon="10.20102983747649"><ele>112.0</ele><time>2026-05-02T11:14:35.999Z</time></trkpt><trkpt lat="44.744713054772284" lon="10.201262301463231"><ele>112.0</ele><time>2026-05-02T11:14:36.999Z</time></trkpt><trkpt lat="44.74482520432895" lon="10.201483446144932"><ele>112.0</ele><time>2026-05-02T11:14:37.999Z</time></trkpt><trkpt lat="44.744931581076514" lon="10.201693082522961"><ele>112.0</ele><time>2026-05-02T11:14:38.999Z</time></trkpt><trkpt lat="44.745031041573604" lon="10.20188739691731"><ele>112.0</ele><time>2026-05-02T11:14:39.999Z</time></trkpt><trkpt lat="44.745131300821605" lon="10.202083187577037"><ele>112.0</ele><time>2026-05-02T11:14:40.999Z</time></trkpt><trkpt lat="44.74523321337877" lon="10.202287998440854"><ele>112.0</ele><time>2026-05-02T11:14:41.999Z</time></trkpt><trkpt lat="44.74533580445633" lon="10.202489065561505"><ele>112.33333333333334</ele><time>2026-05-02T11:14:42.999Z</time></trkpt><trkpt lat="44.74543067889381" lon="10.20267763271008"><ele>112.66666666666666</ele><time>2026-05-02T11:14:43.999Z</time></trkpt><trkpt lat="44.74552631204604" lon="10.20286194074608"><ele>113.0</ele><time>2026-05-02T11:14:44.999Z</time></trkpt><trkpt lat="44.74562591266764" lon="10.203058938450518"><ele>112.66666666666666</ele><time>2026-05-02T11:14:45.999Z</time></trkpt><trkpt lat="44.74573015829473" lon="10.203263947264189"><ele>112.33333333333334</ele><time>2026-05-02T11:14:46.999Z</time></trkpt><trkpt lat="44.745828821897604" lon="10.203459847149015"><ele>112.0</ele><time>2026-05-02T11:14:47.999Z</time></trkpt><trkpt lat="44.74592530496338" lon="10.203646443261022"><ele>112.0</ele><time>2026-05-02T11:14:48.999Z</time></trkpt><trkpt lat="44.7460241390614" lon="10.20382641095725"><ele>112.0</ele><time>2026-05-02T11:14:49.999Z</time></trkpt><trkpt lat="44.74612943145246" lon="10.204016102102473"><ele>112.0</ele><time>2026-05-02T11:14:50.999Z</time></trkpt><trkpt lat="44.74623562935901" lon="10.204216026879832"><ele>112.0</ele><time>2026-05-02T11:14:51.999Z</time></trkpt><trkpt lat="44.74634321520586" lon="10.20442386687952"><ele>112.0</ele><time>2026-05-02T11:14:52.999Z</time></trkpt><trkpt lat="44.746449146846246" lon="10.204633669097541"><ele>112.0</ele><time>2026-05-02T11:14:53.999Z</time></trkpt><trkpt lat="44.746556375458155" lon="10.204843729985644"><ele>112.33333333333334</ele><time>2026-05-02T11:14:54.999Z</time></trkpt><trkpt lat="44.746657551302995" lon="10.205036670861645"><ele>112.66666666666666</ele><time>2026-05-02T11:14:55.999Z</time></trkpt><trkpt lat="44.74675414828505" lon="10.205218839690085"><ele>113.0</ele><time>2026-05-02T11:14:56.999Z</time></trkpt><trkpt lat="44.74684503217976" lon="10.20540158770591"><ele>112.33333333333333</ele><time>2026-05-02T11:14:57.999Z</time></trkpt><trkpt lat="44.74693485293742" lon="10.205580942657122"><ele>111.66666666666666</ele><time>2026-05-02T11:14:58.999Z</time></trkpt><trkpt lat="44.74702053627526" lon="10.20578448758428"><ele>111.0</ele><time>2026-05-02T11:14:59.999Z</time></trkpt><trkpt lat="44.74711434131666" lon="10.205963618027296"><ele>111.0</ele><time>2026-05-02T11:15:00.999Z</time></trkpt><trkpt lat="44.74722703159762" lon="10.206150389325838"><ele>111.0</ele><time>2026-05-02T11:15:01.999Z</time></trkpt><trkpt lat="44.74732576915165" lon="10.206350844865531"><ele>111.0</ele><time>2026-05-02T11:15:02.999Z</time></trkpt><trkpt lat="44.74742942616767" lon="10.206553632446793"><ele>111.0</ele><time>2026-05-02T11:15:03.999Z</time></trkpt><trkpt lat="44.74753198078083" lon="10.206750693014547"><ele>111.0</ele><time>2026-05-02T11:15:04.999Z</time></trkpt><trkpt lat="44.747624657848306" lon="10.206936115465147"><ele>111.0</ele><time>2026-05-02T11:15:05.999Z</time></trkpt><trkpt lat="44.747713578149806" lon="10.2071097550453"><ele>111.0</ele><time>2026-05-02T11:15:06.999Z</time></trkpt><trkpt lat="44.74779955947837" lon="10.207267012855496"><ele>111.0</ele><time>2026-05-02T11:15:07.999Z</time></trkpt><trkpt lat="44.7478784815216" lon="10.20741292801798"><ele>111.0</ele><time>2026-05-02T11:15:08.999Z</time></trkpt><trkpt lat="44.747955071748706" lon="10.20756156193301"><ele>111.0</ele><time>2026-05-02T11:15:09.999Z</time></trkpt><trkpt lat="44.74803404372111" lon="10.207723906542814"><ele>110.66666666666666</ele><time>2026-05-02T11:15:10.999Z</time></trkpt><trkpt lat="44.748119253186395" lon="10.207894936828989"><ele>110.33333333333333</ele><time>2026-05-02T11:15:11.999Z</time></trkpt><trkpt lat="44.74820885925329" lon="10.208076692881594"><ele>110.0</ele><time>2026-05-02T11:15:12.999Z</time></trkpt><trkpt lat="44.74830259931799" lon="10.208254905151179"><ele>110.0</ele><time>2026-05-02T11:15:13.999Z</time></trkpt><trkpt lat="44.748387531845935" lon="10.208436030104712"><ele>110.0</ele><time>2026-05-02T11:15:14.999Z</time></trkpt><trkpt lat="44.748470438983084" lon="10.208594811845188"><ele>110.0</ele><time>2026-05-02T11:15:15.999Z</time></trkpt><trkpt lat="44.74854951190276" lon="10.208735415810443"><ele>110.0</ele><time>2026-05-02T11:15:17Z</time></trkpt><trkpt lat="44.748624531500404" lon="10.208887503535163"><ele>110.0</ele><time>2026-05-02T11:15:18Z</time></trkpt><trkpt lat="44.74870898830262" lon="10.209054698004715"><ele>110.0</ele><time>2026-05-02T11:15:19Z</time></trkpt><trkpt lat="44.7487956054168" lon="10.209223449142725"><ele>110.0</ele><time>2026-05-02T11:15:20Z</time></trkpt><trkpt lat="44.74889138109243" lon="10.209398312953434"><ele>110.0</ele><time>2026-05-02T11:15:21Z</time></trkpt><trkpt lat="44.74898936130216" lon="10.209578767981538"><ele>110.0</ele><time>2026-05-02T11:15:22Z</time></trkpt><trkpt lat="44.749079600656394" lon="10.20976898483103"><ele>110.0</ele><time>2026-05-02T11:15:23Z</time></trkpt><trkpt lat="44.74918370417714" lon="10.209953988579992"><ele>110.0</ele><time>2026-05-02T11:15:24Z</time></trkpt><trkpt lat="44.74928050325775" lon="10.210138546240628"><ele>110.0</ele><time>2026-05-02T11:15:25Z</time></trkpt><trkpt lat="44.74937342581628" lon="10.21031522129345"><ele>110.0</ele><time>2026-05-02T11:15:26Z</time></trkpt><trkpt lat="44.74946167783236" lon="10.21048419959461"><ele>110.0</ele><time>2026-05-02T11:15:27Z</time></trkpt><trkpt lat="44.74954375087094" lon="10.210646017274454"><ele>110.0</ele><time>2026-05-02T11:15:28Z</time></trkpt><trkpt lat="44.74962814774553" lon="10.210812537698919"><ele>110.0</ele><time>2026-05-02T11:15:29Z</time></trkpt><trkpt lat="44.7497184573074" lon="10.21098769597611"><ele>110.0</ele><time>2026-05-02T11:15:30Z</time></trkpt><trkpt lat="44.749809759435635" lon="10.211159162518323"><ele>110.33333333333333</ele><time>2026-05-02T11:15:31Z</time></trkpt><trkpt lat="44.749905405684416" lon="10.211339846018921"><ele>110.66666666666666</ele><time>2026-05-02T11:15:32Z</time></trkpt><trkpt lat="44.74999874106991" lon="10.211526323547744"><ele>111.0</ele><time>2026-05-02T11:15:33Z</time></trkpt><trkpt lat="44.75009707925511" lon="10.211712879338904"><ele>111.33333333333334</ele><time>2026-05-02T11:15:34Z</time></trkpt><trkpt lat="44.750197288175606" lon="10.211906497140475"><ele>111.66666666666667</ele><time>2026-05-02T11:15:35Z</time></trkpt><trkpt lat="44.7502959467564" lon="10.212098580393821"><ele>112.0</ele><time>2026-05-02T11:15:36Z</time></trkpt><trkpt lat="44.750396317371965" lon="10.212279918004873"><ele>112.0</ele><time>2026-05-02T11:15:37Z</time></trkpt><trkpt lat="44.750492023942954" lon="10.212465213735538"><ele>112.0</ele><time>2026-05-02T11:15:38Z</time></trkpt><trkpt lat="44.75058376267038" lon="10.212637549318696"><ele>112.0</ele><time>2026-05-02T11:15:39Z</time></trkpt><trkpt lat="44.75067572113001" lon="10.212798009836472"><ele>112.0</ele><time>2026-05-02T11:15:40Z</time></trkpt><trkpt lat="44.75075747717056" lon="10.21295526123657"><ele>112.0</ele><time>2026-05-02T11:15:41Z</time></trkpt><trkpt lat="44.75083597284006" lon="10.213103576218286"><ele>112.0</ele><time>2026-05-02T11:15:42Z</time></trkpt><trkpt lat="44.750908006184474" lon="10.213247160587743"><ele>112.0</ele><time>2026-05-02T11:15:43Z</time></trkpt><trkpt lat="44.750982922902004" lon="10.213378898288052"><ele>112.25</ele><time>2026-05-02T11:15:44Z</time></trkpt><trkpt lat="44.751050795904234" lon="10.213517847043052"><ele>112.5</ele><time>2026-05-02T11:15:45Z</time></trkpt><trkpt lat="44.75111328695325" lon="10.213670303140438"><ele>112.75</ele><time>2026-05-02T11:15:46Z</time></trkpt><trkpt lat="44.751173963665096" lon="10.213830970885018"><ele>113.0</ele><time>2026-05-02T11:15:47Z</time></trkpt><trkpt lat="44.75125067821472" lon="10.213968738288353"><ele>113.5</ele><time>2026-05-02T11:15:48Z</time></trkpt><trkpt lat="44.75131512781215" lon="10.214119501178484"><ele>114.0</ele><time>2026-05-02T11:15:49Z</time></trkpt><trkpt lat="44.75136502187116" lon="10.214280745559506"><ele>114.5</ele><time>2026-05-02T11:15:50Z</time></trkpt><trkpt lat="44.75142528019989" lon="10.214421565515845"><ele>115.0</ele><time>2026-05-02T11:15:51Z</time></trkpt><trkpt lat="44.751480509701715" lon="10.214550795862017"><ele>115.00000000000001</ele><time>2026-05-02T11:15:52Z</time></trkpt><trkpt lat="44.75152759268293" lon="10.214663960463167"><ele>115.0</ele><time>2026-05-02T11:15:53Z</time></trkpt><trkpt lat="44.75157215775629" lon="10.214771277190613"><ele>115.0</ele><time>2026-05-02T11:15:54Z</time></trkpt><trkpt lat="44.751626293614805" lon="10.21486168394569"><ele>115.0</ele><time>2026-05-02T11:15:55Z</time></trkpt><trkpt lat="44.75166179014439" lon="10.214946741012156"><ele>115.00000000000001</ele><time>2026-05-02T11:15:56Z</time></trkpt><trkpt lat="44.751678791082654" lon="10.215034542125503"><ele>115.0</ele><time>2026-05-02T11:15:57Z</time></trkpt><trkpt lat="44.751735070042066" lon="10.215180138604468"><ele>115.2</ele><time>2026-05-02T11:15:59Z</time></trkpt><trkpt lat="44.75177085734805" lon="10.215341089704062"><ele>115.4</ele><time>2026-05-02T11:16:01Z</time></trkpt><trkpt lat="44.75178161571649" lon="10.215512471750268"><ele>115.6</ele><time>2026-05-02T11:16:03Z</time></trkpt><trkpt lat="44.75178382006669" lon="10.215613406747462"><ele>115.8</ele><time>2026-05-02T11:16:04Z</time></trkpt><trkpt lat="44.75178705131122" lon="10.215723813281414"><ele>116.0</ele><time>2026-05-02T11:16:05Z</time></trkpt><trkpt lat="44.75179040946598" lon="10.21583855590045"><ele>116.16666666666666</ele><time>2026-05-02T11:16:06Z</time></trkpt><trkpt lat="44.75179234417121" lon="10.21595499642916"><ele>116.33333333333333</ele><time>2026-05-02T11:16:07Z</time></trkpt><trkpt lat="44.75179452402591" lon="10.216061923649978"><ele>116.5</ele><time>2026-05-02T11:16:08Z</time></trkpt><trkpt lat="44.75180167448668" lon="10.216155704533712"><ele>116.66666666666666</ele><time>2026-05-02T11:16:09Z</time></trkpt><trkpt lat="44.75181202366732" lon="10.216287128335843"><ele>116.83333333333333</ele><time>2026-05-02T11:16:11Z</time></trkpt><trkpt lat="44.75184206169289" lon="10.216388019018998"><ele>117.0</ele><time>2026-05-02T11:16:14Z</time></trkpt><trkpt lat="44.75183645908508" lon="10.21648726342323"><ele>117.0</ele><time>2026-05-02T11:16:16Z</time></trkpt><trkpt lat="44.7518161534621" lon="10.21657525657076"><ele>117.0</ele><time>2026-05-02T11:16:18Z</time></trkpt><trkpt lat="44.75172055832133" lon="10.216615685408424"><ele>117.0</ele><time>2026-05-02T11:16:20Z</time></trkpt><trkpt lat="44.75164271749564" lon="10.216607820703471"><ele>117.0</ele><time>2026-05-02T11:16:20.999Z</time></trkpt><trkpt lat="44.75156739682986" lon="10.216626284165077"><ele>117.0</ele><time>2026-05-02T11:16:21.999Z</time></trkpt><trkpt lat="44.751486297394024" lon="10.21664252210337"><ele>117.0</ele><time>2026-05-02T11:16:22.999Z</time></trkpt><trkpt lat="44.751392326859175" lon="10.216657887158254"><ele>117.0</ele><time>2026-05-02T11:16:23.999Z</time></trkpt><trkpt lat="44.751295770938285" lon="10.216674590375113"><ele>116.99999999999999</ele><time>2026-05-02T11:16:24.999Z</time></trkpt><trkpt lat="44.751189443104984" lon="10.216688294713965"><ele>116.99999999999999</ele><time>2026-05-02T11:16:25.999Z</time></trkpt><trkpt lat="44.751082419802394" lon="10.216701963225983"><ele>117.0</ele><time>2026-05-02T11:16:26.999Z</time></trkpt><trkpt lat="44.75097797885698" lon="10.216721045631461"><ele>117.0</ele><time>2026-05-02T11:16:27.999Z</time></trkpt><trkpt lat="44.750879947840886" lon="10.21672961083197"><ele>117.39999999999999</ele><time>2026-05-02T11:16:28.999Z</time></trkpt><trkpt lat="44.750800123705176" lon="10.21674871808214"><ele>117.79999999999998</ele><time>2026-05-02T11:16:29.999Z</time></trkpt><trkpt lat="44.75072641788538" lon="10.216766042348324"><ele>118.2</ele><time>2026-05-02T11:16:30.999Z</time></trkpt><trkpt lat="44.75058850775215" lon="10.216767080719563"><ele>118.6</ele><time>2026-05-02T11:16:32.999Z</time></trkpt><trkpt lat="44.750507220402106" lon="10.216734938295254"><ele>119.0</ele><time>2026-05-02T11:16:33.999Z</time></trkpt><trkpt lat="44.75041988843101" lon="10.216673246015395"><ele>119.0</ele><time>2026-05-02T11:16:34.999Z</time></trkpt><trkpt lat="44.750339926313536" lon="10.21658871525749"><ele>119.0</ele><time>2026-05-02T11:16:35.999Z</time></trkpt><trkpt lat="44.75024769717209" lon="10.216518204702025"><ele>119.0</ele><time>2026-05-02T11:16:36.999Z</time></trkpt><trkpt lat="44.75016300416695" lon="10.216434767139146"><ele>119.0</ele><time>2026-05-02T11:16:37.999Z</time></trkpt><trkpt lat="44.75006217684425" lon="10.216376099023261"><ele>119.0</ele><time>2026-05-02T11:16:38.999Z</time></trkpt><trkpt lat="44.74997448699207" lon="10.216332721740562"><ele>120.0</ele><time>2026-05-02T11:16:39.999Z</time></trkpt><trkpt lat="44.74988878878555" lon="10.216316127808334"><ele>121.0</ele><time>2026-05-02T11:16:40.999Z</time></trkpt><trkpt lat="44.74981222272464" lon="10.216331393239063"><ele>122.0</ele><time>2026-05-02T11:16:41.999Z</time></trkpt><trkpt lat="44.74973692237728" lon="10.21638442695566"><ele>123.0</ele><time>2026-05-02T11:16:42.999Z</time></trkpt><trkpt lat="44.74965878667617" lon="10.21646494246764"><ele>124.0</ele><time>2026-05-02T11:16:43.999Z</time></trkpt><trkpt lat="44.749578992439005" lon="10.216561129986717"><ele>124.4</ele><time>2026-05-02T11:16:44.999Z</time></trkpt><trkpt lat="44.74949568555828" lon="10.21666195821984"><ele>124.80000000000001</ele><time>2026-05-02T11:16:45.999Z</time></trkpt><trkpt lat="44.74941270608661" lon="10.21676497898848"><ele>125.19999999999999</ele><time>2026-05-02T11:16:46.999Z</time></trkpt><trkpt lat="44.74933158666982" lon="10.21686029146994"><ele>125.6</ele><time>2026-05-02T11:16:47.999Z</time></trkpt><trkpt lat="44.74925111154036" lon="10.216943673769565"><ele>126.0</ele><time>2026-05-02T11:16:48.999Z</time></trkpt><trkpt lat="44.74917326297092" lon="10.217021020891337"><ele>126.0</ele><time>2026-05-02T11:16:49.999Z</time></trkpt><trkpt lat="44.74909411335548" lon="10.217068997104619"><ele>126.0</ele><time>2026-05-02T11:16:50.999Z</time></trkpt><trkpt lat="44.749025057449266" lon="10.217106345457918"><ele>126.0</ele><time>2026-05-02T11:16:51.999Z</time></trkpt><trkpt lat="44.74892429313295" lon="10.217147022373814"><ele>126.0</ele><time>2026-05-02T11:16:53.999Z</time></trkpt><trkpt lat="44.74878603840309" lon="10.217208316533432"><ele>126.0</ele><time>2026-05-02T11:16:55.999Z</time></trkpt><trkpt lat="44.748694440943595" lon="10.217249186514964"><ele>126.0</ele><time>2026-05-02T11:16:56.999Z</time></trkpt><trkpt lat="44.74860128455971" lon="10.217277922392103"><ele>126.0</ele><time>2026-05-02T11:16:57.999Z</time></trkpt><trkpt lat="44.74849568697403" lon="10.21730490907348"><ele>126.0</ele><time>2026-05-02T11:16:58.999Z</time></trkpt><trkpt lat="44.74837576831933" lon="10.217320653993545"><ele>126.0</ele><time>2026-05-02T11:16:59.999Z</time></trkpt><trkpt lat="44.74824103359881" lon="10.217318576392044"><ele>125.75</ele><time>2026-05-02T11:17:00.999Z</time></trkpt><trkpt lat="44.74810548494996" lon="10.217312270446586"><ele>125.5</ele><time>2026-05-02T11:17:01.999Z</time></trkpt><trkpt lat="44.74796802718482" lon="10.217315872137029"><ele>125.25</ele><time>2026-05-02T11:17:02.999Z</time></trkpt><trkpt lat="44.747824254612524" lon="10.217320934290454"><ele>125.0</ele><time>2026-05-02T11:17:03.999Z</time></trkpt><trkpt lat="44.7476724177052" lon="10.217322064537566"><ele>125.66666666666666</ele><time>2026-05-02T11:17:04.999Z</time></trkpt><trkpt lat="44.74749423750974" lon="10.217318335574241"><ele>126.33333333333334</ele><time>2026-05-02T11:17:05.999Z</time></trkpt><trkpt lat="44.747314809763594" lon="10.217296497338351"><ele>127.0</ele><time>2026-05-02T11:17:06.999Z</time></trkpt><trkpt lat="44.747145520013696" lon="10.217292480743176"><ele>127.0</ele><time>2026-05-02T11:17:07.999Z</time></trkpt><trkpt lat="44.74698563365549" lon="10.217296886603267"><ele>127.0</ele><time>2026-05-02T11:17:08.999Z</time></trkpt><trkpt lat="44.7468590063311" lon="10.217289732074764"><ele>127.0</ele><time>2026-05-02T11:17:09.999Z</time></trkpt><trkpt lat="44.74670662784279" lon="10.217297674362541"><ele>127.0</ele><time>2026-05-02T11:17:11.999Z</time></trkpt><trkpt lat="44.74660126774725" lon="10.217332877913679"><ele>128.5</ele><time>2026-05-02T11:17:13.999Z</time></trkpt><trkpt lat="44.74652418847283" lon="10.217421655257182"><ele>130.0</ele><time>2026-05-02T11:17:14.999Z</time></trkpt><trkpt lat="44.746484027781435" lon="10.217506732358919"><ele>131.5</ele><time>2026-05-02T11:17:15.999Z</time></trkpt><trkpt lat="44.74636897358983" lon="10.217712233923928"><ele>133.0</ele><time>2026-05-02T11:17:16.999Z</time></trkpt><trkpt lat="44.74631175802" lon="10.217872955470384"><ele>133.0</ele><time>2026-05-02T11:17:17.999Z</time></trkpt><trkpt lat="44.74624647662681" lon="10.21804238188431"><ele>133.0</ele><time>2026-05-02T11:17:18.999Z</time></trkpt><trkpt lat="44.74618918131959" lon="10.218195019539023"><ele>133.0</ele><time>2026-05-02T11:17:19.999Z</time></trkpt><trkpt lat="44.746127838198156" lon="10.2183531192152"><ele>133.0</ele><time>2026-05-02T11:17:20.999Z</time></trkpt><trkpt lat="44.74606036627842" lon="10.218516410668538"><ele>133.0</ele><time>2026-05-02T11:17:21.999Z</time></trkpt><trkpt lat="44.745998401034555" lon="10.218674171725215"><ele>133.0</ele><time>2026-05-02T11:17:23Z</time></trkpt><trkpt lat="44.74593942816056" lon="10.21881794395691"><ele>133.0</ele><time>2026-05-02T11:17:24Z</time></trkpt><trkpt lat="44.745894177202985" lon="10.218929513421909"><ele>133.0</ele><time>2026-05-02T11:17:25Z</time></trkpt><trkpt lat="44.745859799252784" lon="10.219024691102208"><ele>133.0</ele><time>2026-05-02T11:17:26Z</time></trkpt><trkpt lat="44.74582082603002" lon="10.21914691371607"><ele>133.0</ele><time>2026-05-02T11:17:27Z</time></trkpt><trkpt lat="44.74576041755043" lon="10.219281326164097"><ele>133.0</ele><time>2026-05-02T11:17:28Z</time></trkpt><trkpt lat="44.745696428527296" lon="10.219433982726592"><ele>133.0</ele><time>2026-05-02T11:17:29Z</time></trkpt><trkpt lat="44.74563520819756" lon="10.219585856339553"><ele>133.0</ele><time>2026-05-02T11:17:30Z</time></trkpt><trkpt lat="44.74554990900532" lon="10.219691913545626"><ele>133.0</ele><time>2026-05-02T11:17:31Z</time></trkpt><trkpt lat="44.74546182365366" lon="10.219802911299363"><ele>133.0</ele><time>2026-05-02T11:17:32Z</time></trkpt><trkpt lat="44.74536942676925" lon="10.21990950612234"><ele>133.0</ele><time>2026-05-02T11:17:33Z</time></trkpt><trkpt lat="44.745273925828506" lon="10.220020070387887"><ele>133.0</ele><time>2026-05-02T11:17:34Z</time></trkpt><trkpt lat="44.7451751239627" lon="10.220134454666097"><ele>131.5</ele><time>2026-05-02T11:17:35Z</time></trkpt><trkpt lat="44.74508203208957" lon="10.22024222840414"><ele>130.0</ele><time>2026-05-02T11:17:36Z</time></trkpt><trkpt lat="44.74499316031307" lon="10.220345116474451"><ele>128.5</ele><time>2026-05-02T11:17:37Z</time></trkpt><trkpt lat="44.74490484172209" lon="10.220447364112887"><ele>127.0</ele><time>2026-05-02T11:17:38Z</time></trkpt><trkpt lat="44.74481216080847" lon="10.220573653880331"><ele>126.0</ele><time>2026-05-02T11:17:39Z</time></trkpt><trkpt lat="44.74471064680402" lon="10.22068455466915"><ele>125.0</ele><time>2026-05-02T11:17:40Z</time></trkpt><trkpt lat="44.744615027951404" lon="10.220791191239375"><ele>124.0</ele><time>2026-05-02T11:17:41Z</time></trkpt><trkpt lat="44.7445287183069" lon="10.220888406029584"><ele>123.0</ele><time>2026-05-02T11:17:42Z</time></trkpt><trkpt lat="44.744451576327116" lon="10.221002298246166"><ele>123.0</ele><time>2026-05-02T11:17:43Z</time></trkpt><trkpt lat="44.7443889366415" lon="10.221159547605815"><ele>123.0</ele><time>2026-05-02T11:17:44Z</time></trkpt><trkpt lat="44.74435693410886" lon="10.221327493857029"><ele>123.0</ele><time>2026-05-02T11:17:45Z</time></trkpt><trkpt lat="44.74434414036838" lon="10.221482998231094"><ele>123.0</ele><time>2026-05-02T11:17:46Z</time></trkpt><trkpt lat="44.74433630993085" lon="10.221640697838685"><ele>123.0</ele><time>2026-05-02T11:17:47Z</time></trkpt><trkpt lat="44.744322725953964" lon="10.221798590111694"><ele>123.0</ele><time>2026-05-02T11:17:48Z</time></trkpt><trkpt lat="44.744304474036426" lon="10.221964678529595"><ele>123.0</ele><time>2026-05-02T11:17:49Z</time></trkpt><trkpt lat="44.74428259785223" lon="10.222142972524605"><ele>123.0</ele><time>2026-05-02T11:17:50Z</time></trkpt><trkpt lat="44.744259192009004" lon="10.222333658524645"><ele>123.0</ele><time>2026-05-02T11:17:51Z</time></trkpt><trkpt lat="44.74423825299926" lon="10.22253621877639"><ele>123.0</ele><time>2026-05-02T11:17:52Z</time></trkpt><trkpt lat="44.744219232320326" lon="10.222729927308405"><ele>123.0</ele><time>2026-05-02T11:17:53Z</time></trkpt><trkpt lat="44.7441935541187" lon="10.222910343211282"><ele>123.0</ele><time>2026-05-02T11:17:54Z</time></trkpt><trkpt lat="44.744180337292995" lon="10.223077476317613"><ele>123.2</ele><time>2026-05-02T11:17:55Z</time></trkpt><trkpt lat="44.744168889921134" lon="10.223219327405143"><ele>123.4</ele><time>2026-05-02T11:17:56Z</time></trkpt><trkpt lat="44.744156012122254" lon="10.223329439908788"><ele>123.60000000000001</ele><time>2026-05-02T11:17:57Z</time></trkpt><trkpt lat="44.7441402649787" lon="10.22346412108673"><ele>123.80000000000001</ele><time>2026-05-02T11:17:59Z</time></trkpt><trkpt lat="44.74412386390174" lon="10.22359959983621"><ele>124.0</ele><time>2026-05-02T11:18:01Z</time></trkpt><trkpt lat="44.74412697949095" lon="10.223708653407972"><ele>124.00000000000001</ele><time>2026-05-02T11:18:05Z</time></trkpt><trkpt lat="44.74412345987558" lon="10.22386547704519"><ele>124.0</ele><time>2026-05-02T11:18:07Z</time></trkpt><trkpt lat="44.74412202377735" lon="10.223963264930939"><ele>124.0</ele><time>2026-05-02T11:18:08Z</time></trkpt><trkpt lat="44.74412222052895" lon="10.224062814151095"><ele>124.0</ele><time>2026-05-02T11:18:09Z</time></trkpt><trkpt lat="44.74412163068502" lon="10.224164152778522"><ele>124.00000000000001</ele><time>2026-05-02T11:18:10Z</time></trkpt><trkpt lat="44.744122169590014" lon="10.224272380009875"><ele>124.0</ele><time>2026-05-02T11:18:11Z</time></trkpt><trkpt lat="44.74412592075617" lon="10.224378423280129"><ele>124.00000000000001</ele><time>2026-05-02T11:18:12Z</time></trkpt><trkpt lat="44.74413175276252" lon="10.224483513945984"><ele>124.0</ele><time>2026-05-02T11:18:13Z</time></trkpt><trkpt lat="44.744131797931175" lon="10.224577876125865"><ele>124.0</ele><time>2026-05-02T11:18:14Z</time></trkpt><trkpt lat="44.74410224957055" lon="10.22473606403103"><ele>124.0</ele><time>2026-05-02T11:18:16Z</time></trkpt><trkpt lat="44.74408481011754" lon="10.224833632145147"><ele>124.00000000000001</ele><time>2026-05-02T11:18:17Z</time></trkpt><trkpt lat="44.744021375627916" lon="10.224908885159902"><ele>124.0</ele><time>2026-05-02T11:18:18Z</time></trkpt><trkpt lat="44.743884870017204" lon="10.224864654296995"><ele>124.0</ele><time>2026-05-02T11:18:19Z</time></trkpt><trkpt lat="44.74379101098652" lon="10.224848526052376"><ele>124.0</ele><time>2026-05-02T11:18:20Z</time></trkpt><trkpt lat="44.74368802149539" lon="10.224851764731532"><ele>124.0</ele><time>2026-05-02T11:18:21Z</time></trkpt><trkpt lat="44.74357764593711" lon="10.224861393946966"><ele>124.0</ele><time>2026-05-02T11:18:22Z</time></trkpt><trkpt lat="44.74345223062709" lon="10.224869897641298"><ele>124.0</ele><time>2026-05-02T11:18:23Z</time></trkpt><trkpt lat="44.74331523776063" lon="10.224877176681414"><ele>124.0</ele><time>2026-05-02T11:18:24Z</time></trkpt><trkpt lat="44.74318611803227" lon="10.224884258044968"><ele>124.0</ele><time>2026-05-02T11:18:24.999Z</time></trkpt><trkpt lat="44.743052339193454" lon="10.224893389183066"><ele>124.0</ele><time>2026-05-02T11:18:25.999Z</time></trkpt><trkpt lat="44.742912343155325" lon="10.224906587735061"><ele>124.0</ele><time>2026-05-02T11:18:26.999Z</time></trkpt><trkpt lat="44.74278528302468" lon="10.2249148661919"><ele>124.5</ele><time>2026-05-02T11:18:27.999Z</time></trkpt><trkpt lat="44.742659021854266" lon="10.224925060517375"><ele>125.0</ele><time>2026-05-02T11:18:28.999Z</time></trkpt><trkpt lat="44.74252336239294" lon="10.224931584082286"><ele>125.5</ele><time>2026-05-02T11:18:29.999Z</time></trkpt><trkpt lat="44.74236648956039" lon="10.22493846167182"><ele>126.0</ele><time>2026-05-02T11:18:30.999Z</time></trkpt><trkpt lat="44.74221170401112" lon="10.224952792251587"><ele>126.0</ele><time>2026-05-02T11:18:31.999Z</time></trkpt><trkpt lat="44.742052599883436" lon="10.224960584989843"><ele>126.0</ele><time>2026-05-02T11:18:32.999Z</time></trkpt><trkpt lat="44.74189265530935" lon="10.224972603299268"><ele>126.0</ele><time>2026-05-02T11:18:33.999Z</time></trkpt><trkpt lat="44.74172786780779" lon="10.224985743218035"><ele>126.33333333333334</ele><time>2026-05-02T11:18:34.999Z</time></trkpt><trkpt lat="44.74153987962645" lon="10.224993927574966"><ele>126.66666666666667</ele><time>2026-05-02T11:18:35.999Z</time></trkpt><trkpt lat="44.74134901637529" lon="10.225002194718883"><ele>127.0</ele><time>2026-05-02T11:18:36.999Z</time></trkpt><trkpt lat="44.741167826960215" lon="10.225015988405358"><ele>127.33333333333334</ele><time>2026-05-02T11:18:37.999Z</time></trkpt><trkpt lat="44.74098118738634" lon="10.225027722730106"><ele>127.66666666666666</ele><time>2026-05-02T11:18:38.999Z</time></trkpt><trkpt lat="44.740783705175744" lon="10.225040020643217"><ele>128.0</ele><time>2026-05-02T11:18:39.999Z</time></trkpt><trkpt lat="44.740583165510046" lon="10.225050900953736"><ele>128.0</ele><time>2026-05-02T11:18:40.999Z</time></trkpt><trkpt lat="44.74037534662384" lon="10.225068228065838"><ele>128.0</ele><time>2026-05-02T11:18:41.999Z</time></trkpt><trkpt lat="44.740174514200945" lon="10.225081635949268"><ele>128.0</ele><time>2026-05-02T11:18:42.999Z</time></trkpt><trkpt lat="44.73997838424538" lon="10.225091970756512"><ele>128.0</ele><time>2026-05-02T11:18:43.999Z</time></trkpt><trkpt lat="44.73978214094763" lon="10.225102348130719"><ele>128.0</ele><time>2026-05-02T11:18:44.999Z</time></trkpt><trkpt lat="44.739584034218716" lon="10.225110856636418"><ele>128.0</ele><time>2026-05-02T11:18:45.999Z</time></trkpt><trkpt lat="44.73938348058062" lon="10.225121779882981"><ele>127.66666666666666</ele><time>2026-05-02T11:18:46.999Z</time></trkpt><trkpt lat="44.739182172622456" lon="10.225131578806014"><ele>127.33333333333334</ele><time>2026-05-02T11:18:47.999Z</time></trkpt><trkpt lat="44.73898057956779" lon="10.225142393994979"><ele>127.0</ele><time>2026-05-02T11:18:48.999Z</time></trkpt><trkpt lat="44.73878071990876" lon="10.225154804484465"><ele>127.0</ele><time>2026-05-02T11:18:49.999Z</time></trkpt><trkpt lat="44.73858075200432" lon="10.225168959553924"><ele>127.0</ele><time>2026-05-02T11:18:50.999Z</time></trkpt><trkpt lat="44.73838737192925" lon="10.22518050809805"><ele>127.0</ele><time>2026-05-02T11:18:51.999Z</time></trkpt><trkpt lat="44.738198853000874" lon="10.225192104057154"><ele>127.33333333333334</ele><time>2026-05-02T11:18:52.999Z</time></trkpt><trkpt lat="44.73799719808048" lon="10.225203531318172"><ele>127.66666666666666</ele><time>2026-05-02T11:18:53.999Z</time></trkpt><trkpt lat="44.73780395840889" lon="10.225216885250543"><ele>128.0</ele><time>2026-05-02T11:18:54.999Z</time></trkpt><trkpt lat="44.73760802035988" lon="10.225231458552656"><ele>129.0</ele><time>2026-05-02T11:18:55.999Z</time></trkpt><trkpt lat="44.737416684487954" lon="10.22524103959254"><ele>130.0</ele><time>2026-05-02T11:18:56.999Z</time></trkpt><trkpt lat="44.737227779421836" lon="10.225250194036226"><ele>131.0</ele><time>2026-05-02T11:18:57.999Z</time></trkpt><trkpt lat="44.737038955492416" lon="10.225258812308343"><ele>131.33333333333331</ele><time>2026-05-02T11:18:58.999Z</time></trkpt><trkpt lat="44.736863875475684" lon="10.225271961935025"><ele>131.66666666666666</ele><time>2026-05-02T11:18:59.999Z</time></trkpt><trkpt lat="44.73669498124871" lon="10.225286752590842"><ele>132.0</ele><time>2026-05-02T11:19:00.999Z</time></trkpt><trkpt lat="44.73651740812293" lon="10.225301429582757"><ele>132.0</ele><time>2026-05-02T11:19:01.999Z</time></trkpt><trkpt lat="44.736335022369076" lon="10.225313240821539"><ele>132.0</ele><time>2026-05-02T11:19:02.999Z</time></trkpt><trkpt lat="44.73614499147419" lon="10.225323824816526"><ele>132.0</ele><time>2026-05-02T11:19:03.999Z</time></trkpt><trkpt lat="44.735943383758375" lon="10.225334596924785"><ele>132.33333333333334</ele><time>2026-05-02T11:19:04.999Z</time></trkpt><trkpt lat="44.73572956936647" lon="10.225345401016243"><ele>132.66666666666669</ele><time>2026-05-02T11:19:05.999Z</time></trkpt><trkpt lat="44.73551412733141" lon="10.225360542955489"><ele>133.0</ele><time>2026-05-02T11:19:06.999Z</time></trkpt><trkpt lat="44.73529717359089" lon="10.225375593638127"><ele>133.33333333333334</ele><time>2026-05-02T11:19:07.999Z</time></trkpt><trkpt lat="44.73508185097789" lon="10.225386994289915"><ele>133.66666666666666</ele><time>2026-05-02T11:19:08.999Z</time></trkpt><trkpt lat="44.73486534077238" lon="10.225398279018664"><ele>134.0</ele><time>2026-05-02T11:19:09.999Z</time></trkpt><trkpt lat="44.73465593946733" lon="10.225415843566388"><ele>134.0</ele><time>2026-05-02T11:19:10.999Z</time></trkpt><trkpt lat="44.73444284301323" lon="10.225433814262004"><ele>134.0</ele><time>2026-05-02T11:19:11.999Z</time></trkpt><trkpt lat="44.734232766638584" lon="10.22545008319973"><ele>134.0</ele><time>2026-05-02T11:19:12.999Z</time></trkpt><trkpt lat="44.73402428102419" lon="10.225464032512685"><ele>134.0</ele><time>2026-05-02T11:19:13.999Z</time></trkpt><trkpt lat="44.73381557466199" lon="10.225479237517208"><ele>134.0</ele><time>2026-05-02T11:19:14.999Z</time></trkpt><trkpt lat="44.73361040283662" lon="10.225492432546169"><ele>134.0</ele><time>2026-05-02T11:19:15.999Z</time></trkpt><trkpt lat="44.73340284830136" lon="10.225505965734861"><ele>135.0</ele><time>2026-05-02T11:19:16.999Z</time></trkpt><trkpt lat="44.7331941345961" lon="10.225525391627057"><ele>136.0</ele><time>2026-05-02T11:19:17.999Z</time></trkpt><trkpt lat="44.73299758698381" lon="10.225545435284467"><ele>137.0</ele><time>2026-05-02T11:19:18.999Z</time></trkpt><trkpt lat="44.73279681220852" lon="10.225566385612819"><ele>137.66666666666666</ele><time>2026-05-02T11:19:19.999Z</time></trkpt><trkpt lat="44.73259560029909" lon="10.225589436006784"><ele>138.33333333333334</ele><time>2026-05-02T11:19:20.999Z</time></trkpt><trkpt lat="44.73240103516222" lon="10.225607259710483"><ele>139.0</ele><time>2026-05-02T11:19:21.999Z</time></trkpt><trkpt lat="44.73220484002953" lon="10.22562569005031"><ele>140.66666666666669</ele><time>2026-05-02T11:19:22.999Z</time></trkpt><trkpt lat="44.73201190666478" lon="10.225650020732386"><ele>142.33333333333334</ele><time>2026-05-02T11:19:23.999Z</time></trkpt><trkpt lat="44.731813943333194" lon="10.225685836212541"><ele>144.0</ele><time>2026-05-02T11:19:24.999Z</time></trkpt><trkpt lat="44.73161741635409" lon="10.225747290893818"><ele>144.0</ele><time>2026-05-02T11:19:25.999Z</time></trkpt><trkpt lat="44.731420095813654" lon="10.225844700597847"><ele>144.0</ele><time>2026-05-02T11:19:26.999Z</time></trkpt><trkpt lat="44.73122544116848" lon="10.225956293690679"><ele>144.0</ele><time>2026-05-02T11:19:27.999Z</time></trkpt><trkpt lat="44.731033705320556" lon="10.22607008826939"><ele>144.0</ele><time>2026-05-02T11:19:29Z</time></trkpt><trkpt lat="44.73083762033188" lon="10.226176288477193"><ele>144.0</ele><time>2026-05-02T11:19:30Z</time></trkpt><trkpt lat="44.73063532975591" lon="10.226265845743345"><ele>144.0</ele><time>2026-05-02T11:19:31Z</time></trkpt><trkpt lat="44.73042285503676" lon="10.226328986602658"><ele>142.66666666666666</ele><time>2026-05-02T11:19:32Z</time></trkpt><trkpt lat="44.730205338280065" lon="10.22635376056144"><ele>141.33333333333331</ele><time>2026-05-02T11:19:33Z</time></trkpt><trkpt lat="44.72999610205714" lon="10.226416386677224"><ele>140.0</ele><time>2026-05-02T11:19:34Z</time></trkpt><trkpt lat="44.72978373789782" lon="10.226453626799016"><ele>140.33333333333331</ele><time>2026-05-02T11:19:35Z</time></trkpt><trkpt lat="44.729571760267866" lon="10.226483841165402"><ele>140.66666666666666</ele><time>2026-05-02T11:19:36Z</time></trkpt><trkpt lat="44.729361496038685" lon="10.226519642028101"><ele>141.0</ele><time>2026-05-02T11:19:37Z</time></trkpt><trkpt lat="44.72915704596184" lon="10.226556476981457"><ele>142.0</ele><time>2026-05-02T11:19:38Z</time></trkpt><trkpt lat="44.72895811881016" lon="10.226591923986765"><ele>143.0</ele><time>2026-05-02T11:19:39Z</time></trkpt><trkpt lat="44.728759497054774" lon="10.226631217896873"><ele>144.0</ele><time>2026-05-02T11:19:40Z</time></trkpt><trkpt lat="44.72856152463407" lon="10.226675367445285"><ele>146.0</ele><time>2026-05-02T11:19:41Z</time></trkpt><trkpt lat="44.72835846295004" lon="10.226724725975657"><ele>148.0</ele><time>2026-05-02T11:19:42Z</time></trkpt><trkpt lat="44.72815589867919" lon="10.226772847123705"><ele>150.0</ele><time>2026-05-02T11:19:43Z</time></trkpt><trkpt lat="44.72795746503162" lon="10.226819963249472"><ele>150.0</ele><time>2026-05-02T11:19:44Z</time></trkpt><trkpt lat="44.72775682894005" lon="10.226870494793266"><ele>150.0</ele><time>2026-05-02T11:19:45Z</time></trkpt><trkpt lat="44.72755975233447" lon="10.22691946039469"><ele>150.0</ele><time>2026-05-02T11:19:46Z</time></trkpt><trkpt lat="44.72736307891229" lon="10.226945664938027"><ele>149.66666666666666</ele><time>2026-05-02T11:19:47Z</time></trkpt><trkpt lat="44.72717903154757" lon="10.227013746881052"><ele>149.33333333333331</ele><time>2026-05-02T11:19:48Z</time></trkpt><trkpt lat="44.72699914766905" lon="10.227034562980613"><ele>149.0</ele><time>2026-05-02T11:19:49Z</time></trkpt><trkpt lat="44.72680421833952" lon="10.227082835098322"><ele>148.66666666666666</ele><time>2026-05-02T11:19:50Z</time></trkpt><trkpt lat="44.726635404822446" lon="10.22712345882257"><ele>148.33333333333334</ele><time>2026-05-02T11:19:51Z</time></trkpt><trkpt lat="44.72646991648885" lon="10.227182502536152"><ele>148.0</ele><time>2026-05-02T11:19:52Z</time></trkpt><trkpt lat="44.72630727423653" lon="10.227221041948042"><ele>148.0</ele><time>2026-05-02T11:19:53Z</time></trkpt><trkpt lat="44.72615455726312" lon="10.227262882834374"><ele>148.0</ele><time>2026-05-02T11:19:54Z</time></trkpt><trkpt lat="44.72601597143567" lon="10.227295978785987"><ele>148.0</ele><time>2026-05-02T11:19:55Z</time></trkpt><trkpt lat="44.725887225803966" lon="10.227327833920768"><ele>148.0</ele><time>2026-05-02T11:19:56Z</time></trkpt><trkpt lat="44.725750630317734" lon="10.227359488092567"><ele>149.33333333333334</ele><time>2026-05-02T11:19:57Z</time></trkpt><trkpt lat="44.72560198154705" lon="10.22739467779201"><ele>150.66666666666666</ele><time>2026-05-02T11:19:58Z</time></trkpt><trkpt lat="44.72543783536915" lon="10.22743283538018"><ele>152.0</ele><time>2026-05-02T11:19:59Z</time></trkpt><trkpt lat="44.72526149067221" lon="10.227475708845587"><ele>152.0</ele><time>2026-05-02T11:20:00Z</time></trkpt><trkpt lat="44.725079509664354" lon="10.227519776669714"><ele>152.0</ele><time>2026-05-02T11:20:01Z</time></trkpt><trkpt lat="44.7248997789499" lon="10.227564856512705"><ele>152.0</ele><time>2026-05-02T11:20:02Z</time></trkpt><trkpt lat="44.72472415611216" lon="10.227603814674021"><ele>152.0</ele><time>2026-05-02T11:20:03Z</time></trkpt><trkpt lat="44.724555346109426" lon="10.227641510126334"><ele>152.0</ele><time>2026-05-02T11:20:04Z</time></trkpt><trkpt lat="44.724397736619515" lon="10.227679190165036"><ele>152.0</ele><time>2026-05-02T11:20:05Z</time></trkpt><trkpt lat="44.7242452500643" lon="10.227716402641045"><ele>152.5</ele><time>2026-05-02T11:20:06Z</time></trkpt><trkpt lat="44.724097090196665" lon="10.227754157322051"><ele>153.0</ele><time>2026-05-02T11:20:07Z</time></trkpt><trkpt lat="44.72395483624378" lon="10.227791893332698"><ele>153.5</ele><time>2026-05-02T11:20:08Z</time></trkpt><trkpt lat="44.72380765744662" lon="10.227833070138018"><ele>154.0</ele><time>2026-05-02T11:20:09Z</time></trkpt><trkpt lat="44.72364729959696" lon="10.227871320753772"><ele>154.0</ele><time>2026-05-02T11:20:10Z</time></trkpt><trkpt lat="44.723484390331265" lon="10.227911923144799"><ele>154.0</ele><time>2026-05-02T11:20:11Z</time></trkpt><trkpt lat="44.72332006383556" lon="10.227954204020424"><ele>154.0</ele><time>2026-05-02T11:20:12Z</time></trkpt><trkpt lat="44.72316678291376" lon="10.227994091685325"><ele>154.0</ele><time>2026-05-02T11:20:13Z</time></trkpt><trkpt lat="44.72303258954746" lon="10.228027529643317"><ele>154.0</ele><time>2026-05-02T11:20:14Z</time></trkpt><trkpt lat="44.72291459081596" lon="10.228059447566165"><ele>154.0</ele><time>2026-05-02T11:20:15Z</time></trkpt><trkpt lat="44.7228062025249" lon="10.228092630846284"><ele>154.0</ele><time>2026-05-02T11:20:16Z</time></trkpt><trkpt lat="44.72271158906036" lon="10.228120131970122"><ele>153.8</ele><time>2026-05-02T11:20:17Z</time></trkpt><trkpt lat="44.72263798804773" lon="10.228133431262403"><ele>153.60000000000002</ele><time>2026-05-02T11:20:18Z</time></trkpt><trkpt lat="44.7225427036759" lon="10.228117731011412"><ele>153.4</ele><time>2026-05-02T11:20:19.999Z</time></trkpt><trkpt lat="44.72243316036664" lon="10.228082239186486"><ele>153.20000000000002</ele><time>2026-05-02T11:20:24.999Z</time></trkpt><trkpt lat="44.72236679099746" lon="10.228089074849928"><ele>153.0</ele><time>2026-05-02T11:20:25.999Z</time></trkpt><trkpt lat="44.722286317557" lon="10.228251800103754"><ele>153.5</ele><time>2026-05-02T11:20:27.999Z</time></trkpt><trkpt lat="44.72230724257069" lon="10.228398894813608"><ele>154.0</ele><time>2026-05-02T11:20:28.999Z</time></trkpt><trkpt lat="44.72233362750723" lon="10.228583248595369"><ele>154.5</ele><time>2026-05-02T11:20:29.999Z</time></trkpt><trkpt lat="44.72234307879292" lon="10.228779496876992"><ele>155.0</ele><time>2026-05-02T11:20:30.999Z</time></trkpt><trkpt lat="44.72230984257398" lon="10.229011077419361"><ele>155.0</ele><time>2026-05-02T11:20:31.999Z</time></trkpt><trkpt lat="44.72227984968272" lon="10.229257357287263"><ele>155.0</ele><time>2026-05-02T11:20:32.999Z</time></trkpt><trkpt lat="44.722251590528366" lon="10.229504738121378"><ele>155.0</ele><time>2026-05-02T11:20:33.999Z</time></trkpt><trkpt lat="44.722232378953834" lon="10.229737216436574"><ele>154.0</ele><time>2026-05-02T11:20:34.999Z</time></trkpt><trkpt lat="44.722209351640196" lon="10.229966166838606"><ele>153.0</ele><time>2026-05-02T11:20:35.999Z</time></trkpt><trkpt lat="44.7221868106043" lon="10.230189195657365"><ele>152.0</ele><time>2026-05-02T11:20:36.999Z</time></trkpt><trkpt lat="44.72216685281681" lon="10.2304223334896"><ele>151.66666666666666</ele><time>2026-05-02T11:20:37.999Z</time></trkpt><trkpt lat="44.72214273363157" lon="10.230653633789853"><ele>151.33333333333334</ele><time>2026-05-02T11:20:38.999Z</time></trkpt><trkpt lat="44.72212145434173" lon="10.230874804119521"><ele>151.0</ele><time>2026-05-02T11:20:39.999Z</time></trkpt><trkpt lat="44.72210076882306" lon="10.231087020294728"><ele>151.0</ele><time>2026-05-02T11:20:40.999Z</time></trkpt><trkpt lat="44.722080370951076" lon="10.231294498712384"><ele>151.0</ele><time>2026-05-02T11:20:41.999Z</time></trkpt><trkpt lat="44.72206136182863" lon="10.231489389278945"><ele>151.0</ele><time>2026-05-02T11:20:42.999Z</time></trkpt><trkpt lat="44.72204531520705" lon="10.231675115654303"><ele>151.0</ele><time>2026-05-02T11:20:43.999Z</time></trkpt><trkpt lat="44.72202839038162" lon="10.23185345294594"><ele>151.0</ele><time>2026-05-02T11:20:44.999Z</time></trkpt><trkpt lat="44.72201582196228" lon="10.232010482884657"><ele>151.0</ele><time>2026-05-02T11:20:45.999Z</time></trkpt><trkpt lat="44.7220028004268" lon="10.23216459937105"><ele>151.0</ele><time>2026-05-02T11:20:46.999Z</time></trkpt><trkpt lat="44.72198856465456" lon="10.232309192861342"><ele>151.0</ele><time>2026-05-02T11:20:47.999Z</time></trkpt><trkpt lat="44.72197209988858" lon="10.232449331423302"><ele>151.0</ele><time>2026-05-02T11:20:48.999Z</time></trkpt><trkpt lat="44.72195270869569" lon="10.23257711202846"><ele>151.16666666666669</ele><time>2026-05-02T11:20:49.999Z</time></trkpt><trkpt lat="44.72193506866096" lon="10.232701601675165"><ele>151.33333333333334</ele><time>2026-05-02T11:20:50.999Z</time></trkpt><trkpt lat="44.721919781070476" lon="10.232817311806548"><ele>151.5</ele><time>2026-05-02T11:20:51.999Z</time></trkpt><trkpt lat="44.72190630357355" lon="10.232914639097443"><ele>151.66666666666666</ele><time>2026-05-02T11:20:52.999Z</time></trkpt><trkpt lat="44.72188561983497" lon="10.23302333601261"><ele>151.83333333333331</ele><time>2026-05-02T11:20:54.999Z</time></trkpt><trkpt lat="44.72185492420842" lon="10.233139651864276"><ele>152.0</ele><time>2026-05-02T11:20:57.999Z</time></trkpt><trkpt lat="44.72180161447088" lon="10.233266756765575"><ele>152.2</ele><time>2026-05-02T11:20:59.999Z</time></trkpt><trkpt lat="44.721747226328745" lon="10.233339611044117"><ele>152.39999999999998</ele><time>2026-05-02T11:21:00.999Z</time></trkpt><trkpt lat="44.72167612529195" lon="10.233393993112609"><ele>152.60000000000002</ele><time>2026-05-02T11:21:01.999Z</time></trkpt><trkpt lat="44.721581315265134" lon="10.23343678476974"><ele>152.8</ele><time>2026-05-02T11:21:02.999Z</time></trkpt><trkpt lat="44.721469402573746" lon="10.23345400095608"><ele>153.0</ele><time>2026-05-02T11:21:03.999Z</time></trkpt><trkpt lat="44.72135757575777" lon="10.233435223859441"><ele>153.0</ele><time>2026-05-02T11:21:04.999Z</time></trkpt><trkpt lat="44.72122496457607" lon="10.233394397308212"><ele>153.0</ele><time>2026-05-02T11:21:05.999Z</time></trkpt><trkpt lat="44.7210984376156" lon="10.233352362659172"><ele>153.0</ele><time>2026-05-02T11:21:06.999Z</time></trkpt><trkpt lat="44.720972423331354" lon="10.233313976063549"><ele>153.0</ele><time>2026-05-02T11:21:07.999Z</time></trkpt><trkpt lat="44.72083915179569" lon="10.233270957423402"><ele>153.75</ele><time>2026-05-02T11:21:08.999Z</time></trkpt><trkpt lat="44.720706220147925" lon="10.233229114367992"><ele>154.5</ele><time>2026-05-02T11:21:09.999Z</time></trkpt><trkpt lat="44.720571979292444" lon="10.233191871769828"><ele>155.25</ele><time>2026-05-02T11:21:10.999Z</time></trkpt><trkpt lat="44.72045149066711" lon="10.233152607172839"><ele>156.0</ele><time>2026-05-02T11:21:11.999Z</time></trkpt><trkpt lat="44.72033293596399" lon="10.233118173198351"><ele>156.25</ele><time>2026-05-02T11:21:12.999Z</time></trkpt><trkpt lat="44.72022024978491" lon="10.233076431654421"><ele>156.5</ele><time>2026-05-02T11:21:13.999Z</time></trkpt><trkpt lat="44.720107064280825" lon="10.233045213394771"><ele>156.75</ele><time>2026-05-02T11:21:14.999Z</time></trkpt><trkpt lat="44.719992754268915" lon="10.233009923673276"><ele>157.0</ele><time>2026-05-02T11:21:15.999Z</time></trkpt><trkpt lat="44.71987128191586" lon="10.23297589100554"><ele>157.0</ele><time>2026-05-02T11:21:16.999Z</time></trkpt><trkpt lat="44.71973770197998" lon="10.232941485101433"><ele>157.0</ele><time>2026-05-02T11:21:17.999Z</time></trkpt><trkpt lat="44.71960385143091" lon="10.23289990298175"><ele>157.0</ele><time>2026-05-02T11:21:18.999Z</time></trkpt><trkpt lat="44.71947294959252" lon="10.232870897934337"><ele>157.0</ele><time>2026-05-02T11:21:19.999Z</time></trkpt><trkpt lat="44.71935277419923" lon="10.232834106546973"><ele>157.0</ele><time>2026-05-02T11:21:20.999Z</time></trkpt><trkpt lat="44.71923290448085" lon="10.232802741689989"><ele>157.0</ele><time>2026-05-02T11:21:21.999Z</time></trkpt><trkpt lat="44.71912345715876" lon="10.232768986820238"><ele>157.0</ele><time>2026-05-02T11:21:22.999Z</time></trkpt><trkpt lat="44.71899304878216" lon="10.232729225364649"><ele>157.0</ele><time>2026-05-02T11:21:23.999Z</time></trkpt><trkpt lat="44.71888197448187" lon="10.232692542924955"><ele>157.0</ele><time>2026-05-02T11:21:24.999Z</time></trkpt><trkpt lat="44.71876756600793" lon="10.23265716904377"><ele>157.0</ele><time>2026-05-02T11:21:25.999Z</time></trkpt><trkpt lat="44.71864887722067" lon="10.232618139531295"><ele>157.0</ele><time>2026-05-02T11:21:26.999Z</time></trkpt><trkpt lat="44.718536072541184" lon="10.23258218064207"><ele>157.0</ele><time>2026-05-02T11:21:27.999Z</time></trkpt><trkpt lat="44.71841676358413" lon="10.23254783824581"><ele>157.25</ele><time>2026-05-02T11:21:28.999Z</time></trkpt><trkpt lat="44.718290655873865" lon="10.23251333624074"><ele>157.5</ele><time>2026-05-02T11:21:29.999Z</time></trkpt><trkpt lat="44.718159501326184" lon="10.232473811237208"><ele>157.75</ele><time>2026-05-02T11:21:30.999Z</time></trkpt><trkpt lat="44.718030746421825" lon="10.232431447975092"><ele>158.0</ele><time>2026-05-02T11:21:31.999Z</time></trkpt><trkpt lat="44.71789808025314" lon="10.232388896179867"><ele>158.0</ele><time>2026-05-02T11:21:32.999Z</time></trkpt><trkpt lat="44.71775268433356" lon="10.232345575351257"><ele>158.0</ele><time>2026-05-02T11:21:33.999Z</time></trkpt><trkpt lat="44.71760942598259" lon="10.232298216866264"><ele>158.0</ele><time>2026-05-02T11:21:35Z</time></trkpt><trkpt lat="44.71746617063056" lon="10.232256961209963"><ele>158.0</ele><time>2026-05-02T11:21:36Z</time></trkpt><trkpt lat="44.717327024037694" lon="10.232209860493153"><ele>158.25</ele><time>2026-05-02T11:21:37Z</time></trkpt><trkpt lat="44.71718708815687" lon="10.232166642089354"><ele>158.5</ele><time>2026-05-02T11:21:38Z</time></trkpt><trkpt lat="44.7170485003818" lon="10.232123272983728"><ele>158.75</ele><time>2026-05-02T11:21:39Z</time></trkpt><trkpt lat="44.7169147807468" lon="10.232077286897834"><ele>159.0</ele><time>2026-05-02T11:21:40Z</time></trkpt><trkpt lat="44.71679091302922" lon="10.232041678869779"><ele>159.75</ele><time>2026-05-02T11:21:41Z</time></trkpt><trkpt lat="44.716672562765275" lon="10.231999814040838"><ele>160.5</ele><time>2026-05-02T11:21:42Z</time></trkpt><trkpt lat="44.71656058551522" lon="10.231961629213338"><ele>161.25</ele><time>2026-05-02T11:21:43Z</time></trkpt><trkpt lat="44.71645387214898" lon="10.231930362222647"><ele>162.0</ele><time>2026-05-02T11:21:44Z</time></trkpt><trkpt lat="44.71633968078703" lon="10.231899377270421"><ele>162.0</ele><time>2026-05-02T11:21:45Z</time></trkpt><trkpt lat="44.71621709577819" lon="10.231861316396158"><ele>162.0</ele><time>2026-05-02T11:21:46Z</time></trkpt><trkpt lat="44.716089385585356" lon="10.231820710957132"><ele>162.0</ele><time>2026-05-02T11:21:47Z</time></trkpt><trkpt lat="44.715952444643854" lon="10.231781022588283"><ele>162.0</ele><time>2026-05-02T11:21:48Z</time></trkpt><trkpt lat="44.715815544870395" lon="10.231739346050873"><ele>162.25</ele><time>2026-05-02T11:21:49Z</time></trkpt><trkpt lat="44.71569049067102" lon="10.231696122812263"><ele>162.5</ele><time>2026-05-02T11:21:50Z</time></trkpt><trkpt lat="44.71557211378163" lon="10.231663373480261"><ele>162.75</ele><time>2026-05-02T11:21:51Z</time></trkpt><trkpt lat="44.71546332058866" lon="10.231628737291015"><ele>163.0</ele><time>2026-05-02T11:21:52Z</time></trkpt><trkpt lat="44.715356713076076" lon="10.23160007489305"><ele>163.0</ele><time>2026-05-02T11:21:53Z</time></trkpt><trkpt lat="44.71524793931732" lon="10.231563588361052"><ele>163.0</ele><time>2026-05-02T11:21:54Z</time></trkpt><trkpt lat="44.71513515038369" lon="10.231524820607405"><ele>163.0</ele><time>2026-05-02T11:21:55Z</time></trkpt><trkpt lat="44.715021777255494" lon="10.231485980892522"><ele>163.0</ele><time>2026-05-02T11:21:56Z</time></trkpt><trkpt lat="44.71490466397677" lon="10.231445076594584"><ele>163.0</ele><time>2026-05-02T11:21:57Z</time></trkpt><trkpt lat="44.714782852608685" lon="10.231405564699802"><ele>163.0</ele><time>2026-05-02T11:21:58Z</time></trkpt><trkpt lat="44.71465831191341" lon="10.231367889912702"><ele>163.0</ele><time>2026-05-02T11:21:59Z</time></trkpt><trkpt lat="44.714526793693715" lon="10.23133281164659"><ele>163.0</ele><time>2026-05-02T11:22:00Z</time></trkpt><trkpt lat="44.71439266057033" lon="10.231287898625567"><ele>163.75</ele><time>2026-05-02T11:22:01Z</time></trkpt><trkpt lat="44.7142638132636" lon="10.231246470000627"><ele>164.5</ele><time>2026-05-02T11:22:02Z</time></trkpt><trkpt lat="44.714141942856244" lon="10.231207751389967"><ele>165.25</ele><time>2026-05-02T11:22:03Z</time></trkpt><trkpt lat="44.71401173209258" lon="10.231188356593623"><ele>166.0</ele><time>2026-05-02T11:22:04Z</time></trkpt><trkpt lat="44.71388728187611" lon="10.231214523796485"><ele>166.0</ele><time>2026-05-02T11:22:05Z</time></trkpt><trkpt lat="44.713765021391346" lon="10.23125175638306"><ele>166.0</ele><time>2026-05-02T11:22:06Z</time></trkpt><trkpt lat="44.713656929992524" lon="10.231296539835547"><ele>166.0</ele><time>2026-05-02T11:22:07Z</time></trkpt><trkpt lat="44.71354475978937" lon="10.231340764515092"><ele>166.0</ele><time>2026-05-02T11:22:08Z</time></trkpt><trkpt lat="44.713430847381055" lon="10.231383653082954"><ele>166.5</ele><time>2026-05-02T11:22:09Z</time></trkpt><trkpt lat="44.71331269111768" lon="10.231423586986718"><ele>167.0</ele><time>2026-05-02T11:22:10Z</time></trkpt><trkpt lat="44.713194868032346" lon="10.231464253093044"><ele>167.5</ele><time>2026-05-02T11:22:11Z</time></trkpt><trkpt lat="44.71307998315443" lon="10.231507126356629"><ele>168.0</ele><time>2026-05-02T11:22:12Z</time></trkpt><trkpt lat="44.712964620900514" lon="10.23155229314014"><ele>168.0</ele><time>2026-05-02T11:22:13Z</time></trkpt><trkpt lat="44.71285782420242" lon="10.23159537660423"><ele>168.0</ele><time>2026-05-02T11:22:14Z</time></trkpt><trkpt lat="44.7127542907737" lon="10.231639937361916"><ele>168.0</ele><time>2026-05-02T11:22:15Z</time></trkpt><trkpt lat="44.71266219166805" lon="10.231679984377806"><ele>168.0</ele><time>2026-05-02T11:22:16Z</time></trkpt><trkpt lat="44.71257090373977" lon="10.231736522548356"><ele>168.0</ele><time>2026-05-02T11:22:17Z</time></trkpt><trkpt lat="44.71248787279791" lon="10.231802328871135"><ele>167.8</ele><time>2026-05-02T11:22:18Z</time></trkpt><trkpt lat="44.71241769611119" lon="10.231879581533958"><ele>167.60000000000002</ele><time>2026-05-02T11:22:19Z</time></trkpt><trkpt lat="44.71235020848108" lon="10.231976560946022"><ele>167.39999999999998</ele><time>2026-05-02T11:22:20Z</time></trkpt><trkpt lat="44.7122911890492" lon="10.232079627378324"><ele>167.2</ele><time>2026-05-02T11:22:21Z</time></trkpt><trkpt lat="44.7122305902985" lon="10.232207617320125"><ele>167.0</ele><time>2026-05-02T11:22:22Z</time></trkpt><trkpt lat="44.712168146774246" lon="10.232352460671027"><ele>167.0</ele><time>2026-05-02T11:22:23Z</time></trkpt><trkpt lat="44.71209538697323" lon="10.232501334668553"><ele>167.0</ele><time>2026-05-02T11:22:24Z</time></trkpt><trkpt lat="44.712024952451856" lon="10.232662325954083"><ele>167.0</ele><time>2026-05-02T11:22:25Z</time></trkpt><trkpt lat="44.71195243216461" lon="10.232832112401246"><ele>167.0</ele><time>2026-05-02T11:22:26Z</time></trkpt><trkpt lat="44.71187858141274" lon="10.232999251860658"><ele>167.0</ele><time>2026-05-02T11:22:27Z</time></trkpt><trkpt lat="44.7118018659248" lon="10.233169420534626"><ele>167.0</ele><time>2026-05-02T11:22:28Z</time></trkpt><trkpt lat="44.7117258712854" lon="10.23333787416468"><ele>167.0</ele><time>2026-05-02T11:22:29Z</time></trkpt><trkpt lat="44.71165517839651" lon="10.233514951051605"><ele>167.0</ele><time>2026-05-02T11:22:30Z</time></trkpt><trkpt lat="44.71157671150921" lon="10.233687314134734"><ele>167.0</ele><time>2026-05-02T11:22:31Z</time></trkpt><trkpt lat="44.7114963230522" lon="10.233874699345238"><ele>167.0</ele><time>2026-05-02T11:22:32Z</time></trkpt><trkpt lat="44.711408318489795" lon="10.234064592146057"><ele>167.0</ele><time>2026-05-02T11:22:33Z</time></trkpt><trkpt lat="44.711320709419915" lon="10.234259400074908"><ele>166.0</ele><time>2026-05-02T11:22:34Z</time></trkpt><trkpt lat="44.711216991353496" lon="10.23447651790992"><ele>165.0</ele><time>2026-05-02T11:22:35Z</time></trkpt><trkpt lat="44.71108622641763" lon="10.234720810478239"><ele>164.0</ele><time>2026-05-02T11:22:36Z</time></trkpt><trkpt lat="44.71094645171711" lon="10.234968407617982"><ele>164.0</ele><time>2026-05-02T11:22:37Z</time></trkpt><trkpt lat="44.7109768926615" lon="10.235058516311984"><ele>164.0</ele><time>2026-05-02T11:22:38Z</time></trkpt><trkpt lat="44.71089589572682" lon="10.235248781978079"><ele>164.0</ele><time>2026-05-02T11:22:38.999Z</time></trkpt><trkpt lat="44.71080905256228" lon="10.235447386618775"><ele>164.0</ele><time>2026-05-02T11:22:39.999Z</time></trkpt><trkpt lat="44.71072266977126" lon="10.235646188581995"><ele>163.66666666666666</ele><time>2026-05-02T11:22:40.999Z</time></trkpt><trkpt lat="44.71063750687435" lon="10.235842585043242"><ele>163.33333333333334</ele><time>2026-05-02T11:22:41.999Z</time></trkpt><trkpt lat="44.71055246010634" lon="10.236030288773028"><ele>163.0</ele><time>2026-05-02T11:22:42.999Z</time></trkpt><trkpt lat="44.710469248700505" lon="10.236218453578259"><ele>163.0</ele><time>2026-05-02T11:22:43.999Z</time></trkpt><trkpt lat="44.710384345805345" lon="10.236410305574084"><ele>163.0</ele><time>2026-05-02T11:22:44.999Z</time></trkpt><trkpt lat="44.71030296061174" lon="10.23660554632389"><ele>163.0</ele><time>2026-05-02T11:22:45.999Z</time></trkpt><trkpt lat="44.71022602040387" lon="10.236794954887545"><ele>163.0</ele><time>2026-05-02T11:22:46.999Z</time></trkpt><trkpt lat="44.71014800467809" lon="10.236985833027887"><ele>163.0</ele><time>2026-05-02T11:22:47.999Z</time></trkpt><trkpt lat="44.71006671017039" lon="10.237178244004582"><ele>163.0</ele><time>2026-05-02T11:22:48.999Z</time></trkpt><trkpt lat="44.70998431736401" lon="10.23736825642725"><ele>163.75</ele><time>2026-05-02T11:22:49.999Z</time></trkpt><trkpt lat="44.70990710420827" lon="10.237549281864863"><ele>164.5</ele><time>2026-05-02T11:22:50.999Z</time></trkpt><trkpt lat="44.70983183856719" lon="10.237722475487773"><ele>165.25</ele><time>2026-05-02T11:22:51.999Z</time></trkpt><trkpt lat="44.70976083873638" lon="10.237888390139098"><ele>166.0</ele><time>2026-05-02T11:22:52.999Z</time></trkpt><trkpt lat="44.7096945864571" lon="10.238041571062864"><ele>166.25</ele><time>2026-05-02T11:22:53.999Z</time></trkpt><trkpt lat="44.70963421064087" lon="10.238182730420725"><ele>166.5</ele><time>2026-05-02T11:22:54.999Z</time></trkpt><trkpt lat="44.709576262928834" lon="10.238317556108465"><ele>166.75</ele><time>2026-05-02T11:22:55.999Z</time></trkpt><trkpt lat="44.709522222969156" lon="10.238457075186536"><ele>167.0</ele><time>2026-05-02T11:22:56.999Z</time></trkpt><trkpt lat="44.70945825562507" lon="10.23860659592437"><ele>167.39999999999998</ele><time>2026-05-02T11:22:57.999Z</time></trkpt><trkpt lat="44.7093916457698" lon="10.238751896730156"><ele>167.79999999999998</ele><time>2026-05-02T11:22:58.999Z</time></trkpt><trkpt lat="44.70932704292191" lon="10.238892221646237"><ele>168.2</ele><time>2026-05-02T11:22:59.999Z</time></trkpt><trkpt lat="44.70927126179226" lon="10.239017495798302"><ele>168.6</ele><time>2026-05-02T11:23:00.999Z</time></trkpt><trkpt lat="44.70922178174217" lon="10.23913147537243"><ele>169.0</ele><time>2026-05-02T11:23:01.999Z</time></trkpt><trkpt lat="44.70917355666765" lon="10.239232129353296"><ele>169.33333333333334</ele><time>2026-05-02T11:23:02.999Z</time></trkpt><trkpt lat="44.70912975433022" lon="10.239318331043489"><ele>169.66666666666669</ele><time>2026-05-02T11:23:03.999Z</time></trkpt><trkpt lat="44.70908418576393" lon="10.23939865972731"><ele>170.0</ele><time>2026-05-02T11:23:04.999Z</time></trkpt><trkpt lat="44.709034604642056" lon="10.23948446117367"><ele>170.33333333333334</ele><time>2026-05-02T11:23:05.999Z</time></trkpt><trkpt lat="44.708984782008535" lon="10.239562381709707"><ele>170.66666666666666</ele><time>2026-05-02T11:23:06.999Z</time></trkpt><trkpt lat="44.70889867984102" lon="10.239664435146766"><ele>171.0</ele><time>2026-05-02T11:23:08.999Z</time></trkpt><trkpt lat="44.70883441400135" lon="10.239705189694714"><ele>171.0</ele><time>2026-05-02T11:23:09.999Z</time></trkpt><trkpt lat="44.7087513168442" lon="10.239730427796864"><ele>171.0</ele><time>2026-05-02T11:23:10.999Z</time></trkpt><trkpt lat="44.70867097584185" lon="10.239769517771599"><ele>171.0</ele><time>2026-05-02T11:23:11.999Z</time></trkpt><trkpt lat="44.70858674328008" lon="10.239848768261448"><ele>171.0</ele><time>2026-05-02T11:23:12.999Z</time></trkpt><trkpt lat="44.7085417641392" lon="10.23997001552526"><ele>171.0</ele><time>2026-05-02T11:23:13.999Z</time></trkpt><trkpt lat="44.70852835804072" lon="10.240102359453092"><ele>171.0</ele><time>2026-05-02T11:23:14.999Z</time></trkpt><trkpt lat="44.70855960739171" lon="10.240226121946273"><ele>171.0</ele><time>2026-05-02T11:23:15.999Z</time></trkpt><trkpt lat="44.70862496792289" lon="10.240338837864913"><ele>171.0</ele><time>2026-05-02T11:23:16.999Z</time></trkpt><trkpt lat="44.70863484351801" lon="10.240507052288828"><ele>171.0</ele><time>2026-05-02T11:23:17.999Z</time></trkpt><trkpt lat="44.70866228097061" lon="10.240670975820883"><ele>171.0</ele><time>2026-05-02T11:23:18.999Z</time></trkpt><trkpt lat="44.708582789919895" lon="10.240901255092245"><ele>171.0</ele><time>2026-05-02T11:23:19.999Z</time></trkpt><trkpt lat="44.708534677618445" lon="10.241143547883716"><ele>171.0</ele><time>2026-05-02T11:23:20.999Z</time></trkpt><trkpt lat="44.708488617007625" lon="10.24139694893728"><ele>171.0</ele><time>2026-05-02T11:23:21.999Z</time></trkpt><trkpt lat="44.70844175145737" lon="10.241673754101646"><ele>169.0</ele><time>2026-05-02T11:23:22.999Z</time></trkpt><trkpt lat="44.70839139507871" lon="10.24198256079007"><ele>167.0</ele><time>2026-05-02T11:23:23.999Z</time></trkpt><trkpt lat="44.70833685158582" lon="10.242306366293263"><ele>166.5</ele><time>2026-05-02T11:23:24.999Z</time></trkpt><trkpt lat="44.70828321843138" lon="10.242629146551781"><ele>166.0</ele><time>2026-05-02T11:23:25.999Z</time></trkpt><trkpt lat="44.70823290873004" lon="10.24295191251094"><ele>166.0</ele><time>2026-05-02T11:23:26.999Z</time></trkpt><trkpt lat="44.70818984246049" lon="10.24327110824246"><ele>166.0</ele><time>2026-05-02T11:23:27.999Z</time></trkpt><trkpt lat="44.70815920806248" lon="10.243588059194071"><ele>166.0</ele><time>2026-05-02T11:23:28.999Z</time></trkpt><trkpt lat="44.70814225788733" lon="10.243896992021751"><ele>166.0</ele><time>2026-05-02T11:23:29.999Z</time></trkpt><trkpt lat="44.70813504586801" lon="10.244189155582276"><ele>166.0</ele><time>2026-05-02T11:23:30.999Z</time></trkpt><trkpt lat="44.708137794502065" lon="10.244480351081732"><ele>165.33333333333334</ele><time>2026-05-02T11:23:31.999Z</time></trkpt><trkpt lat="44.70814935004431" lon="10.24477350501183"><ele>164.66666666666666</ele><time>2026-05-02T11:23:32.999Z</time></trkpt><trkpt lat="44.70817273042987" lon="10.24504910418815"><ele>164.0</ele><time>2026-05-02T11:23:33.999Z</time></trkpt><trkpt lat="44.70819978860377" lon="10.245307522089933"><ele>163.66666666666666</ele><time>2026-05-02T11:23:34.999Z</time></trkpt><trkpt lat="44.70823413718441" lon="10.245554980926686"><ele>163.33333333333334</ele><time>2026-05-02T11:23:35.999Z</time></trkpt><trkpt lat="44.708272100956144" lon="10.245778010097245"><ele>163.0</ele><time>2026-05-02T11:23:36.999Z</time></trkpt><trkpt lat="44.70830958015093" lon="10.245974197756004"><ele>162.75</ele><time>2026-05-02T11:23:37.999Z</time></trkpt><trkpt lat="44.70834806011493" lon="10.24616422781883"><ele>162.5</ele><time>2026-05-02T11:23:38.999Z</time></trkpt><trkpt lat="44.70838554024154" lon="10.246332761991697"><ele>162.25</ele><time>2026-05-02T11:23:39.999Z</time></trkpt><trkpt lat="44.708420706026565" lon="10.24645795260291"><ele>162.0</ele><time>2026-05-02T11:23:41Z</time></trkpt><trkpt lat="44.7084556545264" lon="10.24659052414278"><ele>162.0</ele><time>2026-05-02T11:23:42Z</time></trkpt><trkpt lat="44.708496025362685" lon="10.246751616455839"><ele>162.0</ele><time>2026-05-02T11:23:43Z</time></trkpt><trkpt lat="44.708542399666726" lon="10.246924540813978"><ele>162.0</ele><time>2026-05-02T11:23:44Z</time></trkpt><trkpt lat="44.70860042487389" lon="10.247120280554562"><ele>162.0</ele><time>2026-05-02T11:23:45Z</time></trkpt><trkpt lat="44.708665873184664" lon="10.247381718019684"><ele>160.0</ele><time>2026-05-02T11:23:46Z</time></trkpt><trkpt lat="44.70875500193196" lon="10.247688654335219"><ele>158.0</ele><time>2026-05-02T11:23:47Z</time></trkpt><trkpt lat="44.7088614069016" lon="10.248005089547586"><ele>159.0</ele><time>2026-05-02T11:23:48Z</time></trkpt><trkpt lat="44.708936727333544" lon="10.248323481738392"><ele>160.0</ele><time>2026-05-02T11:23:49Z</time></trkpt><trkpt lat="44.70901823606354" lon="10.2486398733811"><ele>160.5</ele><time>2026-05-02T11:23:50Z</time></trkpt><trkpt lat="44.70910038259505" lon="10.248964764192674"><ele>161.0</ele><time>2026-05-02T11:23:51Z</time></trkpt><trkpt lat="44.70917256939405" lon="10.24929833071777"><ele>161.0</ele><time>2026-05-02T11:23:52Z</time></trkpt><trkpt lat="44.7092290988156" lon="10.249641769765852"><ele>161.0</ele><time>2026-05-02T11:23:53Z</time></trkpt><trkpt lat="44.709275526312524" lon="10.249989092412902"><ele>160.0</ele><time>2026-05-02T11:23:54Z</time></trkpt><trkpt lat="44.70928907996713" lon="10.250345852668897"><ele>159.0</ele><time>2026-05-02T11:23:55Z</time></trkpt><trkpt lat="44.70930147146853" lon="10.250699299306673"><ele>157.5</ele><time>2026-05-02T11:23:56Z</time></trkpt><trkpt lat="44.709315560602576" lon="10.251052482336734"><ele>156.0</ele><time>2026-05-02T11:23:57Z</time></trkpt><trkpt lat="44.70929838445139" lon="10.251410384976522"><ele>156.0</ele><time>2026-05-02T11:23:58Z</time></trkpt><trkpt lat="44.709267564952334" lon="10.25176431241312"><ele>156.0</ele><time>2026-05-02T11:23:59Z</time></trkpt><trkpt lat="44.709222848640074" lon="10.252107161377197"><ele>157.0</ele><time>2026-05-02T11:24:00Z</time></trkpt><trkpt lat="44.70916752429632" lon="10.252446417563627"><ele>158.0</ele><time>2026-05-02T11:24:01Z</time></trkpt><trkpt lat="44.709099440860555" lon="10.25278568920166"><ele>158.0</ele><time>2026-05-02T11:24:02Z</time></trkpt><trkpt lat="44.70901850640431" lon="10.253124115435899"><ele>158.0</ele><time>2026-05-02T11:24:03Z</time></trkpt><trkpt lat="44.708925968778445" lon="10.253463580338872"><ele>158.0</ele><time>2026-05-02T11:24:04Z</time></trkpt><trkpt lat="44.70882599238519" lon="10.253806915493923"><ele>158.0</ele><time>2026-05-02T11:24:05Z</time></trkpt><trkpt lat="44.708722759466205" lon="10.254153826420259"><ele>158.0</ele><time>2026-05-02T11:24:06Z</time></trkpt><trkpt lat="44.70861928639511" lon="10.254509363723935"><ele>158.0</ele><time>2026-05-02T11:24:07Z</time></trkpt><trkpt lat="44.70851727750874" lon="10.254863950231911"><ele>158.0</ele><time>2026-05-02T11:24:08Z</time></trkpt><trkpt lat="44.70841488215384" lon="10.255219922311376"><ele>158.0</ele><time>2026-05-02T11:24:09Z</time></trkpt><trkpt lat="44.70830718389452" lon="10.255580420676193"><ele>157.0</ele><time>2026-05-02T11:24:10Z</time></trkpt><trkpt lat="44.70820341468318" lon="10.255942158097623"><ele>156.0</ele><time>2026-05-02T11:24:11Z</time></trkpt><trkpt lat="44.70809833385041" lon="10.256311533730297"><ele>154.5</ele><time>2026-05-02T11:24:12Z</time></trkpt><trkpt lat="44.707993391331364" lon="10.256683051992846"><ele>153.0</ele><time>2026-05-02T11:24:13Z</time></trkpt><trkpt lat="44.70788634122095" lon="10.257058079968793"><ele>153.0</ele><time>2026-05-02T11:24:14Z</time></trkpt><trkpt lat="44.70778253339695" lon="10.257418387275013"><ele>153.0</ele><time>2026-05-02T11:24:15Z</time></trkpt><trkpt lat="44.707686036473795" lon="10.257750132447855"><ele>153.0</ele><time>2026-05-02T11:24:16Z</time></trkpt><trkpt lat="44.70759919670693" lon="10.258051368968435"><ele>153.0</ele><time>2026-05-02T11:24:17Z</time></trkpt><trkpt lat="44.70752273969688" lon="10.25831648831633"><ele>153.0</ele><time>2026-05-02T11:24:18Z</time></trkpt><trkpt lat="44.70745435085052" lon="10.258553424100995"><ele>153.25</ele><time>2026-05-02T11:24:19Z</time></trkpt><trkpt lat="44.70739154657436" lon="10.258761780101649"><ele>153.5</ele><time>2026-05-02T11:24:20Z</time></trkpt><trkpt lat="44.70733421944973" lon="10.258941273245334"><ele>153.75</ele><time>2026-05-02T11:24:21Z</time></trkpt><trkpt lat="44.70726691272762" lon="10.259087550279244"><ele>154.0</ele><time>2026-05-02T11:24:22Z</time></trkpt><trkpt lat="44.70721584761776" lon="10.259233920535541"><ele>154.25</ele><time>2026-05-02T11:24:23Z</time></trkpt><trkpt lat="44.70717584611631" lon="10.259374453356886"><ele>154.5</ele><time>2026-05-02T11:24:24Z</time></trkpt><trkpt lat="44.70713062407359" lon="10.259533326926539"><ele>154.75</ele><time>2026-05-02T11:24:25Z</time></trkpt><trkpt lat="44.706956402095464" lon="10.259645810079778"><ele>155.0</ele><time>2026-05-02T11:24:26Z</time></trkpt><trkpt lat="44.706894555737414" lon="10.259841405333784"><ele>154.0</ele><time>2026-05-02T11:24:27Z</time></trkpt><trkpt lat="44.70679165934515" lon="10.260026700999356"><ele>153.0</ele><time>2026-05-02T11:24:28Z</time></trkpt><trkpt lat="44.70664909858661" lon="10.260208670879432"><ele>152.0</ele><time>2026-05-02T11:24:29Z</time></trkpt><trkpt lat="44.70648094546211" lon="10.260395587482538"><ele>152.0</ele><time>2026-05-02T11:24:30Z</time></trkpt><trkpt lat="44.7062988771702" lon="10.260577937643085"><ele>152.0</ele><time>2026-05-02T11:24:31Z</time></trkpt><trkpt lat="44.70610061940773" lon="10.260741163756226"><ele>153.5</ele><time>2026-05-02T11:24:32Z</time></trkpt><trkpt lat="44.705884842593" lon="10.260877621842203"><ele>155.0</ele><time>2026-05-02T11:24:33Z</time></trkpt><trkpt lat="44.705652441091445" lon="10.260972517890758"><ele>155.0</ele><time>2026-05-02T11:24:34Z</time></trkpt><trkpt lat="44.70541090207823" lon="10.261044525630808"><ele>155.0</ele><time>2026-05-02T11:24:35Z</time></trkpt><trkpt lat="44.705160983197864" lon="10.261083228135782"><ele>156.0</ele><time>2026-05-02T11:24:36Z</time></trkpt><trkpt lat="44.70490083881294" lon="10.2610883539886"><ele>157.0</ele><time>2026-05-02T11:24:37Z</time></trkpt><trkpt lat="44.70464114688896" lon="10.261046084796948"><ele>157.5</ele><time>2026-05-02T11:24:38Z</time></trkpt><trkpt lat="44.70438519841345" lon="10.26096245631662"><ele>158.0</ele><time>2026-05-02T11:24:39Z</time></trkpt><trkpt lat="44.704133681797586" lon="10.260844589886144"><ele>158.0</ele><time>2026-05-02T11:24:40Z</time></trkpt><trkpt lat="44.703885146346" lon="10.260707916038875"><ele>158.0</ele><time>2026-05-02T11:24:41Z</time></trkpt><trkpt lat="44.70363588710451" lon="10.260555495708154"><ele>158.5</ele><time>2026-05-02T11:24:42Z</time></trkpt><trkpt lat="44.70338452569736" lon="10.260397226975218"><ele>159.0</ele><time>2026-05-02T11:24:43Z</time></trkpt><trkpt lat="44.70312923221537" lon="10.26024103352146"><ele>159.0</ele><time>2026-05-02T11:24:44Z</time></trkpt><trkpt lat="44.702873021480606" lon="10.260080859749882"><ele>159.0</ele><time>2026-05-02T11:24:45Z</time></trkpt><trkpt lat="44.70262389756812" lon="10.259924066009136"><ele>159.0</ele><time>2026-05-02T11:24:46Z</time></trkpt><trkpt lat="44.702379907282314" lon="10.259773590466988"><ele>159.0</ele><time>2026-05-02T11:24:46.999Z</time></trkpt><trkpt lat="44.70213618558019" lon="10.25962583937466"><ele>159.5</ele><time>2026-05-02T11:24:47.999Z</time></trkpt><trkpt lat="44.7018905006357" lon="10.259479589424739"><ele>160.0</ele><time>2026-05-02T11:24:48.999Z</time></trkpt><trkpt lat="44.70164637477458" lon="10.259331258342876"><ele>160.0</ele><time>2026-05-02T11:24:49.999Z</time></trkpt><trkpt lat="44.70139828118065" lon="10.259182487929003"><ele>160.0</ele><time>2026-05-02T11:24:50.999Z</time></trkpt><trkpt lat="44.70114865834257" lon="10.25903963404464"><ele>160.0</ele><time>2026-05-02T11:24:51.999Z</time></trkpt><trkpt lat="44.700896563724" lon="10.258908750409763"><ele>160.0</ele><time>2026-05-02T11:24:52.999Z</time></trkpt><trkpt lat="44.700648212508916" lon="10.258794654796219"><ele>160.0</ele><time>2026-05-02T11:24:53.999Z</time></trkpt><trkpt lat="44.70040176841768" lon="10.25868990580662"><ele>160.0</ele><time>2026-05-02T11:24:54.999Z</time></trkpt><trkpt lat="44.70015939131576" lon="10.258597895878058"><ele>161.5</ele><time>2026-05-02T11:24:55.999Z</time></trkpt><trkpt lat="44.69991541555331" lon="10.25851085040724"><ele>163.0</ele><time>2026-05-02T11:24:56.999Z</time></trkpt><trkpt lat="44.69966379510235" lon="10.258424251486726"><ele>164.5</ele><time>2026-05-02T11:24:57.999Z</time></trkpt><trkpt lat="44.699413732356014" lon="10.258340635385075"><ele>166.0</ele><time>2026-05-02T11:24:58.999Z</time></trkpt><trkpt lat="44.69916070727845" lon="10.258254346141628"><ele>166.0</ele><time>2026-05-02T11:24:59.999Z</time></trkpt><trkpt lat="44.698911777838404" lon="10.25816750482805"><ele>166.0</ele><time>2026-05-02T11:25:00.999Z</time></trkpt><trkpt lat="44.698682890672046" lon="10.258090989070613"><ele>166.66666666666669</ele><time>2026-05-02T11:25:01.999Z</time></trkpt><trkpt lat="44.69847050034975" lon="10.258023510972398"><ele>167.33333333333334</ele><time>2026-05-02T11:25:02.999Z</time></trkpt><trkpt lat="44.69828047645701" lon="10.257964952023835"><ele>168.0</ele><time>2026-05-02T11:25:03.999Z</time></trkpt><trkpt lat="44.69811220928961" lon="10.257910110956882"><ele>168.0</ele><time>2026-05-02T11:25:04.999Z</time></trkpt><trkpt lat="44.6979640638304" lon="10.257860796322092"><ele>168.0</ele><time>2026-05-02T11:25:05.999Z</time></trkpt><trkpt lat="44.697842517479714" lon="10.257809151924663"><ele>168.0</ele><time>2026-05-02T11:25:06.999Z</time></trkpt><trkpt lat="44.69773535470173" lon="10.257730283718477"><ele>168.0</ele><time>2026-05-02T11:25:07.999Z</time></trkpt><trkpt lat="44.69765408035805" lon="10.25762276078529"><ele>168.16666666666666</ele><time>2026-05-02T11:25:08.999Z</time></trkpt><trkpt lat="44.69759149871741" lon="10.257521519732673"><ele>168.33333333333334</ele><time>2026-05-02T11:25:09.999Z</time></trkpt><trkpt lat="44.697522762912826" lon="10.257473778393345"><ele>168.5</ele><time>2026-05-02T11:25:10.999Z</time></trkpt><trkpt lat="44.69744209772064" lon="10.257471589363433"><ele>168.66666666666669</ele><time>2026-05-02T11:25:11.999Z</time></trkpt><trkpt lat="44.69737560848377" lon="10.25751614479031"><ele>168.83333333333334</ele><time>2026-05-02T11:25:12.999Z</time></trkpt><trkpt lat="44.697316724417334" lon="10.257616463945219"><ele>169.0</ele><time>2026-05-02T11:25:13.999Z</time></trkpt><trkpt lat="44.697265808851164" lon="10.257757913207183"><ele>169.0</ele><time>2026-05-02T11:25:14.999Z</time></trkpt><trkpt lat="44.6972200453042" lon="10.257928726950015"><ele>169.0</ele><time>2026-05-02T11:25:15.999Z</time></trkpt><trkpt lat="44.69713903677755" lon="10.258113655155903"><ele>169.0</ele><time>2026-05-02T11:25:16.999Z</time></trkpt><trkpt lat="44.69700764070979" lon="10.258288779058935"><ele>168.0</ele><time>2026-05-02T11:25:17.999Z</time></trkpt><trkpt lat="44.69684952988424" lon="10.258457627315668"><ele>167.0</ele><time>2026-05-02T11:25:18.999Z</time></trkpt><trkpt lat="44.69668296321805" lon="10.258650397177458"><ele>166.0</ele><time>2026-05-02T11:25:19.999Z</time></trkpt><trkpt lat="44.6965047311312" lon="10.25886540049442"><ele>166.0</ele><time>2026-05-02T11:25:20.999Z</time></trkpt><trkpt lat="44.696315925401585" lon="10.25908927684457"><ele>166.0</ele><time>2026-05-02T11:25:21.999Z</time></trkpt><trkpt lat="44.69612003936184" lon="10.259320982859375"><ele>166.5</ele><time>2026-05-02T11:25:22.999Z</time></trkpt><trkpt lat="44.69592125355345" lon="10.259567081773477"><ele>167.0</ele><time>2026-05-02T11:25:23.999Z</time></trkpt><trkpt lat="44.695726004981694" lon="10.2598218157645"><ele>167.0</ele><time>2026-05-02T11:25:24.999Z</time></trkpt><trkpt lat="44.69553546995023" lon="10.26009021968529"><ele>167.0</ele><time>2026-05-02T11:25:25.999Z</time></trkpt><trkpt lat="44.695354965393555" lon="10.260372366152323"><ele>166.5</ele><time>2026-05-02T11:25:26.999Z</time></trkpt><trkpt lat="44.6951933039822" lon="10.260667905542283"><ele>166.0</ele><time>2026-05-02T11:25:27.999Z</time></trkpt><trkpt lat="44.6950490909787" lon="10.260991022586673"><ele>166.0</ele><time>2026-05-02T11:25:28.999Z</time></trkpt><trkpt lat="44.69491870625224" lon="10.261328102051088"><ele>166.0</ele><time>2026-05-02T11:25:29.999Z</time></trkpt><trkpt lat="44.69481028747757" lon="10.261669415171813"><ele>166.0</ele><time>2026-05-02T11:25:30.999Z</time></trkpt><trkpt lat="44.694725242136414" lon="10.26200289069044"><ele>166.0</ele><time>2026-05-02T11:25:31.999Z</time></trkpt><trkpt lat="44.6946532825724" lon="10.26232214149553"><ele>165.66666666666669</ele><time>2026-05-02T11:25:32.999Z</time></trkpt><trkpt lat="44.694587168352705" lon="10.262627375702735"><ele>165.33333333333334</ele><time>2026-05-02T11:25:33.999Z</time></trkpt><trkpt lat="44.694521049633536" lon="10.262921723229255"><ele>165.0</ele><time>2026-05-02T11:25:34.999Z</time></trkpt><trkpt lat="44.694455733857474" lon="10.263201384031069"><ele>165.0</ele><time>2026-05-02T11:25:35.999Z</time></trkpt><trkpt lat="44.69439849550576" lon="10.263456714038897"><ele>165.0</ele><time>2026-05-02T11:25:36.999Z</time></trkpt><trkpt lat="44.69434411755009" lon="10.263685875891257"><ele>165.0</ele><time>2026-05-02T11:25:37.999Z</time></trkpt><trkpt lat="44.694291784111456" lon="10.263906830687924"><ele>165.0</ele><time>2026-05-02T11:25:38.999Z</time></trkpt><trkpt lat="44.69424563879038" lon="10.264097452892573"><ele>165.0</ele><time>2026-05-02T11:25:39.999Z</time></trkpt><trkpt lat="44.69419008652287" lon="10.264269134578196"><ele>165.0</ele><time>2026-05-02T11:25:40.999Z</time></trkpt><trkpt lat="44.69411152042911" lon="10.264425426582987"><ele>165.0</ele><time>2026-05-02T11:25:41.999Z</time></trkpt><trkpt lat="44.69403755870439" lon="10.264561687295489"><ele>165.0</ele><time>2026-05-02T11:25:42.999Z</time></trkpt><trkpt lat="44.693946906449526" lon="10.264654447572065"><ele>165.0</ele><time>2026-05-02T11:25:43.999Z</time></trkpt><trkpt lat="44.6938897127706" lon="10.264779930670109"><ele>165.0</ele><time>2026-05-02T11:25:44.999Z</time></trkpt><trkpt lat="44.69388992367705" lon="10.264940123023896"><ele>165.0</ele><time>2026-05-02T11:25:45.999Z</time></trkpt><trkpt lat="44.69394947139733" lon="10.265110710242826"><ele>165.0</ele><time>2026-05-02T11:25:47Z</time></trkpt><trkpt lat="44.69399880480866" lon="10.26531041729658"><ele>165.0</ele><time>2026-05-02T11:25:48Z</time></trkpt><trkpt lat="44.694018253893084" lon="10.265545799277508"><ele>165.0</ele><time>2026-05-02T11:25:49Z</time></trkpt><trkpt lat="44.69400173405601" lon="10.26578651488704"><ele>165.0</ele><time>2026-05-02T11:25:50Z</time></trkpt><trkpt lat="44.69397155205853" lon="10.266048498276074"><ele>165.0</ele><time>2026-05-02T11:25:51Z</time></trkpt><trkpt lat="44.69394877215491" lon="10.266334239461546"><ele>165.0</ele><time>2026-05-02T11:25:52Z</time></trkpt><trkpt lat="44.693925358243" lon="10.26663223513054"><ele>165.5</ele><time>2026-05-02T11:25:53Z</time></trkpt><trkpt lat="44.69388102354765" lon="10.267138064034533"><ele>166.0</ele><time>2026-05-02T11:25:54Z</time></trkpt><trkpt lat="44.693846836988165" lon="10.267532879695821"><ele>165.0</ele><time>2026-05-02T11:25:55Z</time></trkpt><trkpt lat="44.6938183235784" lon="10.267925384589052"><ele>164.0</ele><time>2026-05-02T11:25:56Z</time></trkpt><trkpt lat="44.693785380687316" lon="10.268330038649381"><ele>163.5</ele><time>2026-05-02T11:25:57Z</time></trkpt><trkpt lat="44.693747780462346" lon="10.268744509104582"><ele>163.0</ele><time>2026-05-02T11:25:58Z</time></trkpt><trkpt lat="44.693713111787545" lon="10.269162826044127"><ele>163.0</ele><time>2026-05-02T11:25:59Z</time></trkpt><trkpt lat="44.69367743838214" lon="10.269584839266946"><ele>163.0</ele><time>2026-05-02T11:26:00Z</time></trkpt><trkpt lat="44.69364458473533" lon="10.270013851070864"><ele>163.0</ele><time>2026-05-02T11:26:01Z</time></trkpt><trkpt lat="44.69360989006476" lon="10.270444059342315"><ele>163.0</ele><time>2026-05-02T11:26:02Z</time></trkpt><trkpt lat="44.6935752311776" lon="10.270875947332218"><ele>163.0</ele><time>2026-05-02T11:26:03Z</time></trkpt><trkpt lat="44.69354135881094" lon="10.271308027358463"><ele>163.0</ele><time>2026-05-02T11:26:04Z</time></trkpt><trkpt lat="44.69350985137493" lon="10.271742575588746"><ele>163.0</ele><time>2026-05-02T11:26:05Z</time></trkpt><trkpt lat="44.69348065236667" lon="10.272167212761552"><ele>163.0</ele><time>2026-05-02T11:26:06Z</time></trkpt><trkpt lat="44.693451289651044" lon="10.27256956373175"><ele>162.0</ele><time>2026-05-02T11:26:07Z</time></trkpt><trkpt lat="44.693418480989706" lon="10.27297652795471"><ele>161.0</ele><time>2026-05-02T11:26:08Z</time></trkpt><trkpt lat="44.69338428078333" lon="10.273385142639384"><ele>161.0</ele><time>2026-05-02T11:26:09Z</time></trkpt><trkpt lat="44.693347921462255" lon="10.273795473150473"><ele>161.0</ele><time>2026-05-02T11:26:10Z</time></trkpt><trkpt lat="44.693311529380544" lon="10.274201394270793"><ele>159.5</ele><time>2026-05-02T11:26:11Z</time></trkpt><trkpt lat="44.69328007997252" lon="10.274601000862951"><ele>158.0</ele><time>2026-05-02T11:26:12Z</time></trkpt><trkpt lat="44.69325048420353" lon="10.274991679773455"><ele>158.0</ele><time>2026-05-02T11:26:13Z</time></trkpt><trkpt lat="44.69321996346739" lon="10.275366554696959"><ele>158.0</ele><time>2026-05-02T11:26:14Z</time></trkpt><trkpt lat="44.693190547180386" lon="10.275729494624317"><ele>159.0</ele><time>2026-05-02T11:26:15Z</time></trkpt><trkpt lat="44.6931619685426" lon="10.276070305916118"><ele>160.0</ele><time>2026-05-02T11:26:16Z</time></trkpt><trkpt lat="44.69313653509452" lon="10.276380961606067"><ele>160.33333333333334</ele><time>2026-05-02T11:26:17Z</time></trkpt><trkpt lat="44.693113234545706" lon="10.276652782590656"><ele>160.66666666666666</ele><time>2026-05-02T11:26:18Z</time></trkpt><trkpt lat="44.69309019502667" lon="10.276898703763653"><ele>161.0</ele><time>2026-05-02T11:26:19Z</time></trkpt><trkpt lat="44.69307236361171" lon="10.277113238683418"><ele>160.5</ele><time>2026-05-02T11:26:20Z</time></trkpt><trkpt lat="44.693056341269994" lon="10.277304871401215"><ele>160.0</ele><time>2026-05-02T11:26:21Z</time></trkpt><trkpt lat="44.693023083240256" lon="10.277459691913856"><ele>159.5</ele><time>2026-05-02T11:26:22Z</time></trkpt><trkpt lat="44.692965536715924" lon="10.277624565671573"><ele>159.0</ele><time>2026-05-02T11:26:23Z</time></trkpt><trkpt lat="44.69289665736936" lon="10.27775099446388"><ele>159.0</ele><time>2026-05-02T11:26:24Z</time></trkpt><trkpt lat="44.69283417928743" lon="10.277878736687724"><ele>159.0</ele><time>2026-05-02T11:26:25Z</time></trkpt><trkpt lat="44.69283240023801" lon="10.27805350603446"><ele>159.0</ele><time>2026-05-02T11:26:26Z</time></trkpt><trkpt lat="44.69288891141029" lon="10.278198571258347"><ele>159.0</ele><time>2026-05-02T11:26:27Z</time></trkpt><trkpt lat="44.69292810142471" lon="10.278368244219108"><ele>158.66666666666666</ele><time>2026-05-02T11:26:28Z</time></trkpt><trkpt lat="44.69296302198553" lon="10.278544523116091"><ele>158.33333333333331</ele><time>2026-05-02T11:26:29Z</time></trkpt><trkpt lat="44.69291470694054" lon="10.278794256047325"><ele>158.0</ele><time>2026-05-02T11:26:30Z</time></trkpt><trkpt lat="44.692882672009624" lon="10.279083262695401"><ele>158.0</ele><time>2026-05-02T11:26:31Z</time></trkpt><trkpt lat="44.69284739120422" lon="10.279406296884448"><ele>158.0</ele><time>2026-05-02T11:26:32Z</time></trkpt><trkpt lat="44.69280298489452" lon="10.27974126117595"><ele>158.0</ele><time>2026-05-02T11:26:33Z</time></trkpt><trkpt lat="44.69276354498806" lon="10.280105579336468"><ele>158.0</ele><time>2026-05-02T11:26:34Z</time></trkpt><trkpt lat="44.69272346112886" lon="10.280479581156186"><ele>158.0</ele><time>2026-05-02T11:26:35Z</time></trkpt><trkpt lat="44.69268302735031" lon="10.28086449771429"><ele>158.0</ele><time>2026-05-02T11:26:36Z</time></trkpt><trkpt lat="44.692642305676785" lon="10.281249613952953"><ele>156.5</ele><time>2026-05-02T11:26:37Z</time></trkpt><trkpt lat="44.69259789979858" lon="10.281644352321397"><ele>155.0</ele><time>2026-05-02T11:26:38Z</time></trkpt><trkpt lat="44.692557170716356" lon="10.282039029973292"><ele>155.0</ele><time>2026-05-02T11:26:39Z</time></trkpt><trkpt lat="44.6925146002697" lon="10.282417960610042"><ele>155.0</ele><time>2026-05-02T11:26:40Z</time></trkpt><trkpt lat="44.69246865398841" lon="10.282815632494891"><ele>155.5</ele><time>2026-05-02T11:26:41Z</time></trkpt><trkpt lat="44.6924214156676" lon="10.283217419140543"><ele>156.0</ele><time>2026-05-02T11:26:42Z</time></trkpt><trkpt lat="44.6923760631857" lon="10.28362033223492"><ele>156.0</ele><time>2026-05-02T11:26:43Z</time></trkpt><trkpt lat="44.69232808188687" lon="10.284019931737777"><ele>156.0</ele><time>2026-05-02T11:26:44Z</time></trkpt><trkpt lat="44.692280767607016" lon="10.284417531960363"><ele>155.5</ele><time>2026-05-02T11:26:45Z</time></trkpt><trkpt lat="44.692233112558505" lon="10.284813817924626"><ele>155.0</ele><time>2026-05-02T11:26:46Z</time></trkpt><trkpt lat="44.69218608355289" lon="10.28520455220649"><ele>155.0</ele><time>2026-05-02T11:26:47Z</time></trkpt><trkpt lat="44.692130996333326" lon="10.28558591844312"><ele>155.0</ele><time>2026-05-02T11:26:48Z</time></trkpt><trkpt lat="44.69207275551643" lon="10.285949626383404"><ele>155.0</ele><time>2026-05-02T11:26:49Z</time></trkpt><trkpt lat="44.692007714181315" lon="10.286296107552447"><ele>155.0</ele><time>2026-05-02T11:26:50Z</time></trkpt><trkpt lat="44.69193860732143" lon="10.28663005348844"><ele>155.5</ele><time>2026-05-02T11:26:51Z</time></trkpt><trkpt lat="44.69186229194515" lon="10.286958730610468"><ele>156.0</ele><time>2026-05-02T11:26:52Z</time></trkpt><trkpt lat="44.691774705359954" lon="10.287283342259684"><ele>156.0</ele><time>2026-05-02T11:26:53Z</time></trkpt><trkpt lat="44.691685271382845" lon="10.287616985877014"><ele>156.0</ele><time>2026-05-02T11:26:53.999Z</time></trkpt><trkpt lat="44.69158869683194" lon="10.28795210691376"><ele>156.5</ele><time>2026-05-02T11:26:54.999Z</time></trkpt><trkpt lat="44.69149425653819" lon="10.288281345220453"><ele>157.0</ele><time>2026-05-02T11:26:55.999Z</time></trkpt><trkpt lat="44.691402614748235" lon="10.288600150691183"><ele>157.0</ele><time>2026-05-02T11:26:56.999Z</time></trkpt><trkpt lat="44.6913205751514" lon="10.288896682006826"><ele>157.0</ele><time>2026-05-02T11:26:57.999Z</time></trkpt><trkpt lat="44.691238810310644" lon="10.28917166825162"><ele>157.0</ele><time>2026-05-02T11:26:58.999Z</time></trkpt><trkpt lat="44.69116493202294" lon="10.289434081254445"><ele>157.33333333333334</ele><time>2026-05-02T11:26:59.999Z</time></trkpt><trkpt lat="44.69109485608115" lon="10.289686019887808"><ele>157.66666666666666</ele><time>2026-05-02T11:27:00.999Z</time></trkpt><trkpt lat="44.691024936789404" lon="10.289926000574075"><ele>158.0</ele><time>2026-05-02T11:27:01.999Z</time></trkpt><trkpt lat="44.69096349471617" lon="10.290159576369051"><ele>158.0</ele><time>2026-05-02T11:27:02.999Z</time></trkpt><trkpt lat="44.69089766380684" lon="10.290398846112064"><ele>158.0</ele><time>2026-05-02T11:27:03.999Z</time></trkpt><trkpt lat="44.69083932710078" lon="10.29061862623061"><ele>158.0</ele><time>2026-05-02T11:27:04.999Z</time></trkpt><trkpt lat="44.69078476828414" lon="10.290821995525812"><ele>158.0</ele><time>2026-05-02T11:27:05.999Z</time></trkpt><trkpt lat="44.69072502474406" lon="10.291025822101165"><ele>158.0</ele><time>2026-05-02T11:27:06.999Z</time></trkpt><trkpt lat="44.690671799491376" lon="10.291215620425096"><ele>158.0</ele><time>2026-05-02T11:27:07.999Z</time></trkpt><trkpt lat="44.69061995062506" lon="10.291399425531871"><ele>158.0</ele><time>2026-05-02T11:27:08.999Z</time></trkpt><trkpt lat="44.690574672743416" lon="10.291560337382275"><ele>158.4</ele><time>2026-05-02T11:27:09.999Z</time></trkpt><trkpt lat="44.69053282128439" lon="10.291696257406286"><ele>158.8</ele><time>2026-05-02T11:27:10.999Z</time></trkpt><trkpt lat="44.690493675931044" lon="10.291806573832385"><ele>159.2</ele><time>2026-05-02T11:27:11.999Z</time></trkpt><trkpt lat="44.69045466022319" lon="10.29190660578703"><ele>159.6</ele><time>2026-05-02T11:27:12.999Z</time></trkpt><trkpt lat="44.69041489425523" lon="10.29198146526709"><ele>160.0</ele><time>2026-05-02T11:27:13.999Z</time></trkpt><trkpt lat="44.69031545206493" lon="10.29208745470855"><ele>159.66666666666669</ele><time>2026-05-02T11:27:15.999Z</time></trkpt><trkpt lat="44.69009240364033" lon="10.29223850405246"><ele>159.33333333333334</ele><time>2026-05-02T11:27:17.999Z</time></trkpt><trkpt lat="44.68995951911449" lon="10.292425967953475"><ele>159.0</ele><time>2026-05-02T11:27:18.999Z</time></trkpt><trkpt lat="44.68983136278745" lon="10.292623552431353"><ele>159.0</ele><time>2026-05-02T11:27:19.999Z</time></trkpt><trkpt lat="44.689988222790774" lon="10.292537150970762"><ele>159.0</ele><time>2026-05-02T11:27:20.999Z</time></trkpt><trkpt lat="44.69000349062918" lon="10.292671085629586"><ele>159.0</ele><time>2026-05-02T11:27:21.999Z</time></trkpt><trkpt lat="44.69004706361669" lon="10.292814896983998"><ele>159.0</ele><time>2026-05-02T11:27:22.999Z</time></trkpt><trkpt lat="44.69009670056891" lon="10.292960829076602"><ele>159.5</ele><time>2026-05-02T11:27:23.999Z</time></trkpt><trkpt lat="44.690102796659545" lon="10.29311794046326"><ele>160.0</ele><time>2026-05-02T11:27:24.999Z</time></trkpt><trkpt lat="44.690073741529936" lon="10.2932892824315"><ele>160.5</ele><time>2026-05-02T11:27:25.999Z</time></trkpt><trkpt lat="44.69001342452859" lon="10.293463635665248"><ele>161.0</ele><time>2026-05-02T11:27:26.999Z</time></trkpt><trkpt lat="44.68994276062984" lon="10.293625823574972"><ele>161.0</ele><time>2026-05-02T11:27:27.999Z</time></trkpt><trkpt lat="44.68987861492897" lon="10.293786651024513"><ele>161.0</ele><time>2026-05-02T11:27:28.999Z</time></trkpt><trkpt lat="44.68981462402858" lon="10.29395789467775"><ele>161.0</ele><time>2026-05-02T11:27:29.999Z</time></trkpt><trkpt lat="44.68974733677936" lon="10.294135011192527"><ele>161.0</ele><time>2026-05-02T11:27:30.999Z</time></trkpt><trkpt lat="44.68967156319053" lon="10.294318014505192"><ele>160.66666666666666</ele><time>2026-05-02T11:27:31.999Z</time></trkpt><trkpt lat="44.68958534122102" lon="10.294501254680663"><ele>160.33333333333334</ele><time>2026-05-02T11:27:32.999Z</time></trkpt><trkpt lat="44.68948824526344" lon="10.294696319144771"><ele>160.0</ele><time>2026-05-02T11:27:33.999Z</time></trkpt><trkpt lat="44.68938464090063" lon="10.294888425321547"><ele>160.0</ele><time>2026-05-02T11:27:34.999Z</time></trkpt><trkpt lat="44.68927012253877" lon="10.295069097078468"><ele>160.0</ele><time>2026-05-02T11:27:35.999Z</time></trkpt><trkpt lat="44.689143157398284" lon="10.295238712803412"><ele>160.0</ele><time>2026-05-02T11:27:36.999Z</time></trkpt><trkpt lat="44.68900857817784" lon="10.295383833832878"><ele>160.0</ele><time>2026-05-02T11:27:37.999Z</time></trkpt><trkpt lat="44.68885861783929" lon="10.295508613522593"><ele>160.0</ele><time>2026-05-02T11:27:38.999Z</time></trkpt><trkpt lat="44.68870568552639" lon="10.295623995864121"><ele>160.0</ele><time>2026-05-02T11:27:39.999Z</time></trkpt><trkpt lat="44.68854873760702" lon="10.295731353723866"><ele>160.33333333333334</ele><time>2026-05-02T11:27:40.999Z</time></trkpt><trkpt lat="44.688379307175964" lon="10.295827034322455"><ele>160.66666666666666</ele><time>2026-05-02T11:27:41.999Z</time></trkpt><trkpt lat="44.68819026962994" lon="10.295882777450991"><ele>161.0</ele><time>2026-05-02T11:27:42.999Z</time></trkpt><trkpt lat="44.68801616023917" lon="10.29593000110724"><ele>161.0</ele><time>2026-05-02T11:27:43.999Z</time></trkpt><trkpt lat="44.68784254559594" lon="10.295964697035043"><ele>161.0</ele><time>2026-05-02T11:27:44.999Z</time></trkpt><trkpt lat="44.68766790519203" lon="10.295976173041923"><ele>161.0</ele><time>2026-05-02T11:27:45.999Z</time></trkpt><trkpt lat="44.687498179207346" lon="10.295967794421777"><ele>161.66666666666666</ele><time>2026-05-02T11:27:46.999Z</time></trkpt><trkpt lat="44.68732525794252" lon="10.295944386203773"><ele>162.33333333333334</ele><time>2026-05-02T11:27:47.999Z</time></trkpt><trkpt lat="44.68715216908376" lon="10.295902788597301"><ele>163.0</ele><time>2026-05-02T11:27:48.999Z</time></trkpt><trkpt lat="44.68696864578501" lon="10.295842138693468"><ele>163.0</ele><time>2026-05-02T11:27:49.999Z</time></trkpt><trkpt lat="44.68676926633836" lon="10.295731664383672"><ele>163.0</ele><time>2026-05-02T11:27:50.999Z</time></trkpt><trkpt lat="44.686538085469735" lon="10.295625553348396"><ele>163.5</ele><time>2026-05-02T11:27:51.999Z</time></trkpt><trkpt lat="44.686292140182026" lon="10.295511065930729"><ele>164.0</ele><time>2026-05-02T11:27:53Z</time></trkpt><trkpt lat="44.68605092305436" lon="10.29539822069006"><ele>164.0</ele><time>2026-05-02T11:27:54Z</time></trkpt><trkpt lat="44.68582881490168" lon="10.295302759735469"><ele>164.0</ele><time>2026-05-02T11:27:55Z</time></trkpt><trkpt lat="44.685621275988595" lon="10.295204727583684"><ele>164.0</ele><time>2026-05-02T11:27:56Z</time></trkpt><trkpt lat="44.68542589073297" lon="10.295120157364943"><ele>164.0</ele><time>2026-05-02T11:27:57Z</time></trkpt><trkpt lat="44.68523736086354" lon="10.295033040125194"><ele>164.0</ele><time>2026-05-02T11:27:58Z</time></trkpt><trkpt lat="44.685054911947205" lon="10.294944057942063"><ele>164.33333333333331</ele><time>2026-05-02T11:27:59Z</time></trkpt><trkpt lat="44.68486779162124" lon="10.294852983092925"><ele>164.66666666666666</ele><time>2026-05-02T11:28:00Z</time></trkpt><trkpt lat="44.68467066518932" lon="10.294761730353326"><ele>165.0</ele><time>2026-05-02T11:28:01Z</time></trkpt><trkpt lat="44.68444739471816" lon="10.294668450382321"><ele>166.5</ele><time>2026-05-02T11:28:02Z</time></trkpt><trkpt lat="44.68420754828432" lon="10.294545184387383"><ele>168.0</ele><time>2026-05-02T11:28:03Z</time></trkpt><trkpt lat="44.683961701107876" lon="10.294429724556917"><ele>168.0</ele><time>2026-05-02T11:28:04Z</time></trkpt><trkpt lat="44.68372624745305" lon="10.29431914594713"><ele>168.0</ele><time>2026-05-02T11:28:05Z</time></trkpt><trkpt lat="44.683494765483225" lon="10.29422904339779"><ele>168.0</ele><time>2026-05-02T11:28:06Z</time></trkpt><trkpt lat="44.68327450458711" lon="10.294136501885339"><ele>168.0</ele><time>2026-05-02T11:28:07Z</time></trkpt><trkpt lat="44.68305388632677" lon="10.294071954677053"><ele>168.0</ele><time>2026-05-02T11:28:08Z</time></trkpt><trkpt lat="44.68282602126238" lon="10.294028505002233"><ele>168.0</ele><time>2026-05-02T11:28:09Z</time></trkpt><trkpt lat="44.68259669527331" lon="10.294005116229831"><ele>168.0</ele><time>2026-05-02T11:28:10Z</time></trkpt><trkpt lat="44.68237032113631" lon="10.293990788902514"><ele>168.0</ele><time>2026-05-02T11:28:11Z</time></trkpt><trkpt lat="44.68214537440008" lon="10.293995376641877"><ele>169.0</ele><time>2026-05-02T11:28:12Z</time></trkpt><trkpt lat="44.68192294302036" lon="10.294006352245907"><ele>170.0</ele><time>2026-05-02T11:28:13Z</time></trkpt><trkpt lat="44.681711836737826" lon="10.294019281005964"><ele>171.0</ele><time>2026-05-02T11:28:14Z</time></trkpt><trkpt lat="44.68151474783316" lon="10.29403090815192"><ele>171.0</ele><time>2026-05-02T11:28:15Z</time></trkpt><trkpt lat="44.68132810594078" lon="10.29403828093104"><ele>171.0</ele><time>2026-05-02T11:28:16Z</time></trkpt><trkpt lat="44.68116160750869" lon="10.29404780242617"><ele>171.0</ele><time>2026-05-02T11:28:17Z</time></trkpt><trkpt lat="44.68102256945793" lon="10.29405264404273"><ele>171.4</ele><time>2026-05-02T11:28:18Z</time></trkpt><trkpt lat="44.68090323327647" lon="10.29405613126318"><ele>171.8</ele><time>2026-05-02T11:28:19Z</time></trkpt><trkpt lat="44.68079956852761" lon="10.294047097915962"><ele>172.20000000000002</ele><time>2026-05-02T11:28:20Z</time></trkpt><trkpt lat="44.68070314141384" lon="10.294003389318695"><ele>172.60000000000002</ele><time>2026-05-02T11:28:21Z</time></trkpt><trkpt lat="44.68062322562921" lon="10.29392332735213"><ele>173.0</ele><time>2026-05-02T11:28:22Z</time></trkpt><trkpt lat="44.68055527293325" lon="10.293859318073775"><ele>173.0</ele><time>2026-05-02T11:28:23Z</time></trkpt><trkpt lat="44.68048969611922" lon="10.293859255959294"><ele>173.0</ele><time>2026-05-02T11:28:24Z</time></trkpt><trkpt lat="44.68042416716402" lon="10.293907492744143"><ele>173.0</ele><time>2026-05-02T11:28:25Z</time></trkpt><trkpt lat="44.680373607764025" lon="10.29399435644921"><ele>173.0</ele><time>2026-05-02T11:28:26Z</time></trkpt><trkpt lat="44.68034166448503" lon="10.29409241321908"><ele>173.0</ele><time>2026-05-02T11:28:27Z</time></trkpt><trkpt lat="44.68037140401684" lon="10.294230103982036"><ele>173.0</ele><time>2026-05-02T11:28:28Z</time></trkpt><trkpt lat="44.68040322693177" lon="10.294354233205548"><ele>173.0</ele><time>2026-05-02T11:28:29Z</time></trkpt><trkpt lat="44.68047503714445" lon="10.294451026787277"><ele>173.0</ele><time>2026-05-02T11:28:30Z</time></trkpt><trkpt lat="44.680412106618334" lon="10.294667869455452"><ele>173.0</ele><time>2026-05-02T11:28:31Z</time></trkpt><trkpt lat="44.680370474389036" lon="10.29485572204814"><ele>173.0</ele><time>2026-05-02T11:28:32Z</time></trkpt><trkpt lat="44.6803331444864" lon="10.295066609350712"><ele>173.0</ele><time>2026-05-02T11:28:33Z</time></trkpt><trkpt lat="44.68029181074675" lon="10.295279347203653"><ele>173.0</ele><time>2026-05-02T11:28:34Z</time></trkpt><trkpt lat="44.680243986484726" lon="10.295500635073491"><ele>173.0</ele><time>2026-05-02T11:28:35Z</time></trkpt><trkpt lat="44.6802040881936" lon="10.29574009359712"><ele>172.66666666666666</ele><time>2026-05-02T11:28:36Z</time></trkpt><trkpt lat="44.68015448907797" lon="10.295980618890747"><ele>172.33333333333334</ele><time>2026-05-02T11:28:37Z</time></trkpt><trkpt lat="44.68010694195274" lon="10.29622651999817"><ele>172.0</ele><time>2026-05-02T11:28:38Z</time></trkpt><trkpt lat="44.680055223451994" lon="10.296475245725063"><ele>172.0</ele><time>2026-05-02T11:28:39Z</time></trkpt><trkpt lat="44.68000032328533" lon="10.296734353824164"><ele>172.0</ele><time>2026-05-02T11:28:40Z</time></trkpt><trkpt lat="44.67994691593202" lon="10.29699504377069"><ele>172.0</ele><time>2026-05-02T11:28:41Z</time></trkpt><trkpt lat="44.67989210980108" lon="10.297258406877493"><ele>172.0</ele><time>2026-05-02T11:28:42Z</time></trkpt><trkpt lat="44.67984052139292" lon="10.297507530808856"><ele>172.0</ele><time>2026-05-02T11:28:43Z</time></trkpt><trkpt lat="44.67979236271337" lon="10.297780310812769"><ele>172.0</ele><time>2026-05-02T11:28:44Z</time></trkpt><trkpt lat="44.679741021950086" lon="10.298059602724345"><ele>172.0</ele><time>2026-05-02T11:28:45Z</time></trkpt><trkpt lat="44.67969026794602" lon="10.298333666883943"><ele>172.0</ele><time>2026-05-02T11:28:46Z</time></trkpt><trkpt lat="44.67963471816374" lon="10.298597827743492"><ele>172.0</ele><time>2026-05-02T11:28:47Z</time></trkpt><trkpt lat="44.67958163081208" lon="10.298863232176013"><ele>172.33333333333334</ele><time>2026-05-02T11:28:48Z</time></trkpt><trkpt lat="44.67952803038789" lon="10.29912775052518"><ele>172.66666666666666</ele><time>2026-05-02T11:28:49Z</time></trkpt><trkpt lat="44.679475456724305" lon="10.299398526517544"><ele>173.0</ele><time>2026-05-02T11:28:50Z</time></trkpt><trkpt lat="44.67942287618345" lon="10.299667758617408"><ele>173.33333333333331</ele><time>2026-05-02T11:28:51Z</time></trkpt><trkpt lat="44.67937191434806" lon="10.299938436719467"><ele>173.66666666666666</ele><time>2026-05-02T11:28:51.999Z</time></trkpt><trkpt lat="44.67932122077527" lon="10.300206208481178"><ele>174.0</ele><time>2026-05-02T11:28:52.999Z</time></trkpt><trkpt lat="44.679267553459574" lon="10.300468638572642"><ele>173.33333333333334</ele><time>2026-05-02T11:28:53.999Z</time></trkpt><trkpt lat="44.679215213975354" lon="10.300739116135873"><ele>172.66666666666669</ele><time>2026-05-02T11:28:54.999Z</time></trkpt><trkpt lat="44.67916179351845" lon="10.301015470937374"><ele>172.0</ele><time>2026-05-02T11:28:55.999Z</time></trkpt><trkpt lat="44.67910986097587" lon="10.3012966104407"><ele>172.33333333333334</ele><time>2026-05-02T11:28:56.999Z</time></trkpt><trkpt lat="44.67905578245251" lon="10.30158204531984"><ele>172.66666666666666</ele><time>2026-05-02T11:28:57.999Z</time></trkpt><trkpt lat="44.67900026717835" lon="10.301867853966364"><ele>173.0</ele><time>2026-05-02T11:28:58.999Z</time></trkpt><trkpt lat="44.67894516089036" lon="10.302163012878916"><ele>172.33333333333331</ele><time>2026-05-02T11:28:59.999Z</time></trkpt><trkpt lat="44.67888997728753" lon="10.302459280296503"><ele>171.66666666666666</ele><time>2026-05-02T11:29:00.999Z</time></trkpt><trkpt lat="44.678833532864616" lon="10.30275497344487"><ele>171.0</ele><time>2026-05-02T11:29:01.999Z</time></trkpt><trkpt lat="44.678779757034775" lon="10.303057327149515"><ele>171.0</ele><time>2026-05-02T11:29:02.999Z</time></trkpt><trkpt lat="44.67872091560543" lon="10.303355812670784"><ele>171.0</ele><time>2026-05-02T11:29:03.999Z</time></trkpt><trkpt lat="44.67866417021565" lon="10.303653823702337"><ele>171.0</ele><time>2026-05-02T11:29:04.999Z</time></trkpt><trkpt lat="44.67860863779403" lon="10.303953682334381"><ele>170.33333333333334</ele><time>2026-05-02T11:29:05.999Z</time></trkpt><trkpt lat="44.678554866145156" lon="10.304253546208884"><ele>169.66666666666669</ele><time>2026-05-02T11:29:06.999Z</time></trkpt><trkpt lat="44.67850102901631" lon="10.304556900451303"><ele>169.0</ele><time>2026-05-02T11:29:07.999Z</time></trkpt><trkpt lat="44.67844939895886" lon="10.304858564117731"><ele>169.0</ele><time>2026-05-02T11:29:08.999Z</time></trkpt><trkpt lat="44.678395027378265" lon="10.305157202824478"><ele>169.0</ele><time>2026-05-02T11:29:09.999Z</time></trkpt><trkpt lat="44.67833866145597" lon="10.305446226349547"><ele>169.0</ele><time>2026-05-02T11:29:10.999Z</time></trkpt><trkpt lat="44.67828397978557" lon="10.305722301573809"><ele>169.0</ele><time>2026-05-02T11:29:11.999Z</time></trkpt><trkpt lat="44.678235600296496" lon="10.30598837078239"><ele>169.0</ele><time>2026-05-02T11:29:12.999Z</time></trkpt><trkpt lat="44.67819051339142" lon="10.306227445807739"><ele>169.0</ele><time>2026-05-02T11:29:13.999Z</time></trkpt><trkpt lat="44.678146000223144" lon="10.306474575266819"><ele>169.33333333333334</ele><time>2026-05-02T11:29:14.999Z</time></trkpt><trkpt lat="44.67810192113706" lon="10.306710204789509"><ele>169.66666666666666</ele><time>2026-05-02T11:29:15.999Z</time></trkpt><trkpt lat="44.67807216076336" lon="10.30693828572608"><ele>170.0</ele><time>2026-05-02T11:29:16.999Z</time></trkpt><trkpt lat="44.67801396265397" lon="10.307186470486497"><ele>170.0</ele><time>2026-05-02T11:29:17.999Z</time></trkpt><trkpt lat="44.67796836170173" lon="10.307431262999403"><ele>170.0</ele><time>2026-05-02T11:29:18.999Z</time></trkpt><trkpt lat="44.677926929577" lon="10.30767745900253"><ele>170.0</ele><time>2026-05-02T11:29:19.999Z</time></trkpt><trkpt lat="44.67788529901526" lon="10.307910067856493"><ele>170.0</ele><time>2026-05-02T11:29:20.999Z</time></trkpt><trkpt lat="44.67784227043256" lon="10.308142633112434"><ele>170.0</ele><time>2026-05-02T11:29:21.999Z</time></trkpt><trkpt lat="44.677800725771945" lon="10.308375116610152"><ele>170.0</ele><time>2026-05-02T11:29:22.999Z</time></trkpt><trkpt lat="44.67775946927652" lon="10.30859845344474"><ele>170.66666666666666</ele><time>2026-05-02T11:29:23.999Z</time></trkpt><trkpt lat="44.67772055817774" lon="10.308827771639836"><ele>171.33333333333334</ele><time>2026-05-02T11:29:24.999Z</time></trkpt><trkpt lat="44.677672597190316" lon="10.309064434882874"><ele>172.0</ele><time>2026-05-02T11:29:25.999Z</time></trkpt><trkpt lat="44.67762920044304" lon="10.309309910870729"><ele>172.0</ele><time>2026-05-02T11:29:26.999Z</time></trkpt><trkpt lat="44.67758384124574" lon="10.309560195050103"><ele>172.0</ele><time>2026-05-02T11:29:27.999Z</time></trkpt><trkpt lat="44.677537221009416" lon="10.309807218014463"><ele>172.0</ele><time>2026-05-02T11:29:28.999Z</time></trkpt><trkpt lat="44.6774908461827" lon="10.310061118387695"><ele>171.33333333333334</ele><time>2026-05-02T11:29:29.999Z</time></trkpt><trkpt lat="44.67744191129355" lon="10.310312703386938"><ele>170.66666666666666</ele><time>2026-05-02T11:29:30.999Z</time></trkpt><trkpt lat="44.67739374893881" lon="10.310567395805986"><ele>170.0</ele><time>2026-05-02T11:29:31.999Z</time></trkpt><trkpt lat="44.67734530802875" lon="10.3108245112164"><ele>169.66666666666666</ele><time>2026-05-02T11:29:32.999Z</time></trkpt><trkpt lat="44.677296353392514" lon="10.311095028435039"><ele>169.33333333333334</ele><time>2026-05-02T11:29:33.999Z</time></trkpt><trkpt lat="44.67724784190072" lon="10.311353882789591"><ele>169.0</ele><time>2026-05-02T11:29:34.999Z</time></trkpt><trkpt lat="44.67719717818321" lon="10.311632337652611"><ele>168.66666666666669</ele><time>2026-05-02T11:29:35.999Z</time></trkpt><trkpt lat="44.67714722700717" lon="10.311905313652362"><ele>168.33333333333334</ele><time>2026-05-02T11:29:36.999Z</time></trkpt><trkpt lat="44.6771009608873" lon="10.312182675179029"><ele>168.0</ele><time>2026-05-02T11:29:37.999Z</time></trkpt><trkpt lat="44.6770539174152" lon="10.312459787858264"><ele>167.33333333333334</ele><time>2026-05-02T11:29:38.999Z</time></trkpt><trkpt lat="44.677005035598015" lon="10.312737601566935"><ele>166.66666666666669</ele><time>2026-05-02T11:29:39.999Z</time></trkpt><trkpt lat="44.67695829493456" lon="10.313021024778639"><ele>166.0</ele><time>2026-05-02T11:29:40.999Z</time></trkpt><trkpt lat="44.67690805881892" lon="10.313308030286176"><ele>166.0</ele><time>2026-05-02T11:29:41.999Z</time></trkpt><trkpt lat="44.67685552306583" lon="10.31359947217773"><ele>166.0</ele><time>2026-05-02T11:29:42.999Z</time></trkpt><trkpt lat="44.67680214272758" lon="10.31389649162851"><ele>166.0</ele><time>2026-05-02T11:29:43.999Z</time></trkpt><trkpt lat="44.67674799613889" lon="10.31418978183934"><ele>165.66666666666669</ele><time>2026-05-02T11:29:44.999Z</time></trkpt><trkpt lat="44.67669248010439" lon="10.314482720379472"><ele>165.33333333333334</ele><time>2026-05-02T11:29:45.999Z</time></trkpt><trkpt lat="44.676638879407605" lon="10.314774910261313"><ele>165.0</ele><time>2026-05-02T11:29:46.999Z</time></trkpt><trkpt lat="44.676587197979785" lon="10.315070520537809"><ele>165.0</ele><time>2026-05-02T11:29:47.999Z</time></trkpt><trkpt lat="44.67653573019109" lon="10.315359707356016"><ele>165.0</ele><time>2026-05-02T11:29:48.999Z</time></trkpt><trkpt lat="44.67648482748653" lon="10.315650169037053"><ele>165.0</ele><time>2026-05-02T11:29:49.999Z</time></trkpt><trkpt lat="44.67643563050187" lon="10.31592639560593"><ele>165.0</ele><time>2026-05-02T11:29:50.999Z</time></trkpt><trkpt lat="44.67638622700677" lon="10.31620163905915"><ele>165.0</ele><time>2026-05-02T11:29:51.999Z</time></trkpt><trkpt lat="44.67633553201445" lon="10.316477633943988"><ele>165.0</ele><time>2026-05-02T11:29:52.999Z</time></trkpt><trkpt lat="44.6762825628728" lon="10.31675533358172"><ele>165.0</ele><time>2026-05-02T11:29:53.999Z</time></trkpt><trkpt lat="44.67623223530798" lon="10.317037605230468"><ele>165.0</ele><time>2026-05-02T11:29:54.999Z</time></trkpt><trkpt lat="44.676182409356315" lon="10.317308177944517"><ele>165.0</ele><time>2026-05-02T11:29:55.999Z</time></trkpt><trkpt lat="44.67612771217034" lon="10.317576265602378"><ele>165.33333333333334</ele><time>2026-05-02T11:29:56.999Z</time></trkpt><trkpt lat="44.67607835432108" lon="10.317835082881592"><ele>165.66666666666669</ele><time>2026-05-02T11:29:57.999Z</time></trkpt><trkpt lat="44.676041477922496" lon="10.3181095561633"><ele>166.0</ele><time>2026-05-02T11:29:59Z</time></trkpt><trkpt lat="44.675995607103644" lon="10.318381015452324"><ele>166.0</ele><time>2026-05-02T11:30:00Z</time></trkpt><trkpt lat="44.675949834023555" lon="10.318666900361833"><ele>166.0</ele><time>2026-05-02T11:30:01Z</time></trkpt><trkpt lat="44.67588997325226" lon="10.318997938407506"><ele>165.75</ele><time>2026-05-02T11:30:02Z</time></trkpt><trkpt lat="44.67586509491929" lon="10.319124118985782"><ele>165.5</ele><time>2026-05-02T11:30:03Z</time></trkpt><trkpt lat="44.67580239244106" lon="10.319335341278668"><ele>165.25</ele><time>2026-05-02T11:30:04Z</time></trkpt><trkpt lat="44.675752331025976" lon="10.319543931351609"><ele>165.0</ele><time>2026-05-02T11:30:05Z</time></trkpt><trkpt lat="44.67569550619012" lon="10.319741651091467"><ele>165.0</ele><time>2026-05-02T11:30:06Z</time></trkpt><trkpt lat="44.67563113410197" lon="10.319945803001353"><ele>165.0</ele><time>2026-05-02T11:30:07Z</time></trkpt><trkpt lat="44.675560151444266" lon="10.320154463666235"><ele>165.0</ele><time>2026-05-02T11:30:08Z</time></trkpt><trkpt lat="44.6754870644156" lon="10.320355554922374"><ele>165.0</ele><time>2026-05-02T11:30:09Z</time></trkpt><trkpt lat="44.6754149936938" lon="10.320538267749074"><ele>165.0</ele><time>2026-05-02T11:30:10Z</time></trkpt><trkpt lat="44.675344495388565" lon="10.320712028190384"><ele>165.0</ele><time>2026-05-02T11:30:11Z</time></trkpt><trkpt lat="44.67528279773291" lon="10.320863616732915"><ele>165.0</ele><time>2026-05-02T11:30:12Z</time></trkpt><trkpt lat="44.675223265880604" lon="10.321009883708053"><ele>164.75</ele><time>2026-05-02T11:30:13Z</time></trkpt><trkpt lat="44.675164977245586" lon="10.321153096407473"><ele>164.5</ele><time>2026-05-02T11:30:14Z</time></trkpt><trkpt lat="44.67511438084525" lon="10.321304533606272"><ele>164.25</ele><time>2026-05-02T11:30:15Z</time></trkpt><trkpt lat="44.6750539983743" lon="10.321452605664783"><ele>164.0</ele><time>2026-05-02T11:30:16Z</time></trkpt><trkpt lat="44.67498960377694" lon="10.321607824217683"><ele>163.75</ele><time>2026-05-02T11:30:17Z</time></trkpt><trkpt lat="44.674921410982726" lon="10.321763726362134"><ele>163.5</ele><time>2026-05-02T11:30:18Z</time></trkpt><trkpt lat="44.67485752058206" lon="10.321919427445836"><ele>163.25</ele><time>2026-05-02T11:30:19Z</time></trkpt><trkpt lat="44.674793741333424" lon="10.32207626125273"><ele>163.0</ele><time>2026-05-02T11:30:20Z</time></trkpt><trkpt lat="44.67472837730248" lon="10.32223288147402"><ele>163.0</ele><time>2026-05-02T11:30:21Z</time></trkpt><trkpt lat="44.674666576964256" lon="10.322381815938"><ele>163.0</ele><time>2026-05-02T11:30:22Z</time></trkpt><trkpt lat="44.67460759692217" lon="10.322528638199401"><ele>163.0</ele><time>2026-05-02T11:30:23Z</time></trkpt><trkpt lat="44.674545867998084" lon="10.322680031670762"><ele>163.0</ele><time>2026-05-02T11:30:24Z</time></trkpt><trkpt lat="44.67448347740434" lon="10.32283004536115"><ele>163.0</ele><time>2026-05-02T11:30:25Z</time></trkpt><trkpt lat="44.674419025931925" lon="10.322993632013615"><ele>163.0</ele><time>2026-05-02T11:30:26Z</time></trkpt><trkpt lat="44.674344371529216" lon="10.323158806197572"><ele>163.0</ele><time>2026-05-02T11:30:27Z</time></trkpt><trkpt lat="44.674271193251016" lon="10.323332551559174"><ele>163.0</ele><time>2026-05-02T11:30:28Z</time></trkpt><trkpt lat="44.67419945558961" lon="10.32350558864235"><ele>162.33333333333334</ele><time>2026-05-02T11:30:29Z</time></trkpt><trkpt lat="44.67412113347226" lon="10.323690309052457"><ele>161.66666666666666</ele><time>2026-05-02T11:30:30Z</time></trkpt><trkpt lat="44.674041682941414" lon="10.32387705716879"><ele>161.0</ele><time>2026-05-02T11:30:31Z</time></trkpt><trkpt lat="44.67396420932227" lon="10.32406361495481"><ele>161.0</ele><time>2026-05-02T11:30:32Z</time></trkpt><trkpt lat="44.67389228166621" lon="10.324249712934032"><ele>161.0</ele><time>2026-05-02T11:30:33Z</time></trkpt><trkpt lat="44.67381339166335" lon="10.324446370189566"><ele>161.0</ele><time>2026-05-02T11:30:34Z</time></trkpt><trkpt lat="44.67373295928131" lon="10.324631327376805"><ele>161.0</ele><time>2026-05-02T11:30:35Z</time></trkpt><trkpt lat="44.67365721775316" lon="10.324817998010104"><ele>161.0</ele><time>2026-05-02T11:30:36Z</time></trkpt><trkpt lat="44.67358342485742" lon="10.324996069301003"><ele>161.0</ele><time>2026-05-02T11:30:37Z</time></trkpt><trkpt lat="44.673510509157346" lon="10.325178055624756"><ele>161.0</ele><time>2026-05-02T11:30:38Z</time></trkpt><trkpt lat="44.67343979005601" lon="10.325350336974287"><ele>161.25</ele><time>2026-05-02T11:30:39Z</time></trkpt><trkpt lat="44.673370868990396" lon="10.325532858096189"><ele>161.5</ele><time>2026-05-02T11:30:40Z</time></trkpt><trkpt lat="44.67329533320561" lon="10.325707749826504"><ele>161.75</ele><time>2026-05-02T11:30:41Z</time></trkpt><trkpt lat="44.673223108934835" lon="10.325890993054562"><ele>162.0</ele><time>2026-05-02T11:30:42Z</time></trkpt><trkpt lat="44.673149432395334" lon="10.326083696326016"><ele>162.0</ele><time>2026-05-02T11:30:43Z</time></trkpt><trkpt lat="44.673066099300556" lon="10.326271341900952"><ele>162.0</ele><time>2026-05-02T11:30:44Z</time></trkpt><trkpt lat="44.67298723623968" lon="10.326462519937897"><ele>162.0</ele><time>2026-05-02T11:30:45Z</time></trkpt><trkpt lat="44.672910231091784" lon="10.326654368053937"><ele>162.33333333333334</ele><time>2026-05-02T11:30:46Z</time></trkpt><trkpt lat="44.672831242633116" lon="10.326840425796972"><ele>162.66666666666669</ele><time>2026-05-02T11:30:47Z</time></trkpt><trkpt lat="44.67275536805515" lon="10.32702190564723"><ele>163.0</ele><time>2026-05-02T11:30:48Z</time></trkpt><trkpt lat="44.672676838408684" lon="10.327208367255324"><ele>163.5</ele><time>2026-05-02T11:30:49Z</time></trkpt><trkpt lat="44.67260599349094" lon="10.32738892538144"><ele>164.0</ele><time>2026-05-02T11:30:50Z</time></trkpt><trkpt lat="44.67253709434434" lon="10.327555208108693"><ele>164.5</ele><time>2026-05-02T11:30:51Z</time></trkpt><trkpt lat="44.67246442713274" lon="10.327722544483322"><ele>165.0</ele><time>2026-05-02T11:30:52Z</time></trkpt><trkpt lat="44.67238752980956" lon="10.327905667431505"><ele>164.66666666666666</ele><time>2026-05-02T11:30:53Z</time></trkpt><trkpt lat="44.6723062906422" lon="10.328094935987155"><ele>164.33333333333331</ele><time>2026-05-02T11:30:54Z</time></trkpt><trkpt lat="44.672224074311536" lon="10.328292028373426"><ele>164.0</ele><time>2026-05-02T11:30:55Z</time></trkpt><trkpt lat="44.67213090115816" lon="10.328511686115329"><ele>164.0</ele><time>2026-05-02T11:30:56Z</time></trkpt><trkpt lat="44.672026832760494" lon="10.328756300204535"><ele>164.0</ele><time>2026-05-02T11:30:57Z</time></trkpt><trkpt lat="44.671920158876354" lon="10.329012120090033"><ele>164.0</ele><time>2026-05-02T11:30:57.999Z</time></trkpt><trkpt lat="44.67181255736044" lon="10.329262673193815"><ele>164.0</ele><time>2026-05-02T11:30:58.999Z</time></trkpt><trkpt lat="44.671705090271445" lon="10.329519350002444"><ele>164.0</ele><time>2026-05-02T11:30:59.999Z</time></trkpt><trkpt lat="44.67160159369142" lon="10.329773504927973"><ele>164.0</ele><time>2026-05-02T11:31:00.999Z</time></trkpt><trkpt lat="44.67150635408621" lon="10.330026176501741"><ele>164.66666666666666</ele><time>2026-05-02T11:31:01.999Z</time></trkpt><trkpt lat="44.67141459531415" lon="10.330281820428446"><ele>165.33333333333334</ele><time>2026-05-02T11:31:02.999Z</time></trkpt><trkpt lat="44.67134270267416" lon="10.330520251829183"><ele>166.0</ele><time>2026-05-02T11:31:03.999Z</time></trkpt><trkpt lat="44.671281532342576" lon="10.3307586362758"><ele>166.0</ele><time>2026-05-02T11:31:04.999Z</time></trkpt><trkpt lat="44.67122845248979" lon="10.330996909144655"><ele>166.0</ele><time>2026-05-02T11:31:05.999Z</time></trkpt><trkpt lat="44.671181862628856" lon="10.3312308616676"><ele>166.0</ele><time>2026-05-02T11:31:06.999Z</time></trkpt><trkpt lat="44.67113106586551" lon="10.331461130671038"><ele>166.0</ele><time>2026-05-02T11:31:07.999Z</time></trkpt><trkpt lat="44.67107883839305" lon="10.331682451962926"><ele>166.0</ele><time>2026-05-02T11:31:08.999Z</time></trkpt><trkpt lat="44.67102839678229" lon="10.331900962424802"><ele>166.0</ele><time>2026-05-02T11:31:09.999Z</time></trkpt><trkpt lat="44.670977278849776" lon="10.33211585442976"><ele>165.66666666666669</ele><time>2026-05-02T11:31:10.999Z</time></trkpt><trkpt lat="44.67092681854707" lon="10.332325378822889"><ele>165.33333333333334</ele><time>2026-05-02T11:31:11.999Z</time></trkpt><trkpt lat="44.67088033885444" lon="10.3325301516285"><ele>165.0</ele><time>2026-05-02T11:31:12.999Z</time></trkpt><trkpt lat="44.67083570132132" lon="10.33273216686216"><ele>165.0</ele><time>2026-05-02T11:31:13.999Z</time></trkpt><trkpt lat="44.670793836546636" lon="10.332925541019204"><ele>165.0</ele><time>2026-05-02T11:31:14.999Z</time></trkpt><trkpt lat="44.670741792630444" lon="10.333104371309954"><ele>165.0</ele><time>2026-05-02T11:31:15.999Z</time></trkpt><trkpt lat="44.67068043848264" lon="10.333273183871524"><ele>165.0</ele><time>2026-05-02T11:31:16.999Z</time></trkpt><trkpt lat="44.67060899452227" lon="10.333434035985476"><ele>165.0</ele><time>2026-05-02T11:31:17.999Z</time></trkpt><trkpt lat="44.67053604727706" lon="10.333594533641039"><ele>165.0</ele><time>2026-05-02T11:31:18.999Z</time></trkpt><trkpt lat="44.670462610669624" lon="10.333755262848232"><ele>165.0</ele><time>2026-05-02T11:31:19.999Z</time></trkpt><trkpt lat="44.67037943329072" lon="10.333910262652001"><ele>165.0</ele><time>2026-05-02T11:31:20.999Z</time></trkpt><trkpt lat="44.670294021616556" lon="10.33405319332903"><ele>165.5</ele><time>2026-05-02T11:31:21.999Z</time></trkpt><trkpt lat="44.67021683824247" lon="10.334194037219369"><ele>166.0</ele><time>2026-05-02T11:31:22.999Z</time></trkpt><trkpt lat="44.67015068845016" lon="10.33433560254335"><ele>166.5</ele><time>2026-05-02T11:31:23.999Z</time></trkpt><trkpt lat="44.67009579916633" lon="10.334491217659467"><ele>167.0</ele><time>2026-05-02T11:31:24.999Z</time></trkpt><trkpt lat="44.67004268679964" lon="10.33463358462438"><ele>166.5</ele><time>2026-05-02T11:31:25.999Z</time></trkpt><trkpt lat="44.66999714213337" lon="10.3347742193475"><ele>166.0</ele><time>2026-05-02T11:31:26.999Z</time></trkpt><trkpt lat="44.669951439469685" lon="10.33491631713976"><ele>165.5</ele><time>2026-05-02T11:31:27.999Z</time></trkpt><trkpt lat="44.669889746544456" lon="10.335057905298607"><ele>165.0</ele><time>2026-05-02T11:31:28.999Z</time></trkpt><trkpt lat="44.669809964769264" lon="10.335182253826197"><ele>165.0</ele><time>2026-05-02T11:31:29.999Z</time></trkpt><trkpt lat="44.669719305091974" lon="10.335303449311752"><ele>165.0</ele><time>2026-05-02T11:31:30.999Z</time></trkpt><trkpt lat="44.66965197002883" lon="10.335448456489768"><ele>165.0</ele><time>2026-05-02T11:31:31.999Z</time></trkpt><trkpt lat="44.66961263636934" lon="10.335623083085313"><ele>165.0</ele><time>2026-05-02T11:31:32.999Z</time></trkpt><trkpt lat="44.66956945940069" lon="10.335811291370883"><ele>164.66666666666666</ele><time>2026-05-02T11:31:33.999Z</time></trkpt><trkpt lat="44.669490502173176" lon="10.335990070805291"><ele>164.33333333333331</ele><time>2026-05-02T11:31:34.999Z</time></trkpt><trkpt lat="44.669387372281726" lon="10.336149575388959"><ele>164.0</ele><time>2026-05-02T11:31:35.999Z</time></trkpt><trkpt lat="44.66928545943172" lon="10.336308499122914"><ele>165.33333333333331</ele><time>2026-05-02T11:31:36.999Z</time></trkpt><trkpt lat="44.66919002788188" lon="10.336488130323799"><ele>166.66666666666666</ele><time>2026-05-02T11:31:37.999Z</time></trkpt><trkpt lat="44.6690988225784" lon="10.336696544949106"><ele>168.0</ele><time>2026-05-02T11:31:38.999Z</time></trkpt><trkpt lat="44.66901409355292" lon="10.336904172915208"><ele>168.0</ele><time>2026-05-02T11:31:39.999Z</time></trkpt><trkpt lat="44.66890203654448" lon="10.337091901183415"><ele>168.0</ele><time>2026-05-02T11:31:40.999Z</time></trkpt><trkpt lat="44.66877986862991" lon="10.337339198594853"><ele>168.0</ele><time>2026-05-02T11:31:41.999Z</time></trkpt><trkpt lat="44.66864054570516" lon="10.337621222260037"><ele>168.5</ele><time>2026-05-02T11:31:42.999Z</time></trkpt><trkpt lat="44.66848580297627" lon="10.337931729197946"><ele>169.0</ele><time>2026-05-02T11:31:43.999Z</time></trkpt><trkpt lat="44.66833310176225" lon="10.338236844551687"><ele>169.0</ele><time>2026-05-02T11:31:44.999Z</time></trkpt><trkpt lat="44.66818734486754" lon="10.338527176733717"><ele>169.0</ele><time>2026-05-02T11:31:45.999Z</time></trkpt><trkpt lat="44.6680405536104" lon="10.338797813442671"><ele>169.0</ele><time>2026-05-02T11:31:46.999Z</time></trkpt><trkpt lat="44.66790072589115" lon="10.339061534660464"><ele>169.0</ele><time>2026-05-02T11:31:47.999Z</time></trkpt><trkpt lat="44.66776009643455" lon="10.33931415332442"><ele>169.0</ele><time>2026-05-02T11:31:48.999Z</time></trkpt><trkpt lat="44.66761438843154" lon="10.33956211544658"><ele>169.0</ele><time>2026-05-02T11:31:49.999Z</time></trkpt><trkpt lat="44.66746653732172" lon="10.339799306544183"><ele>169.66666666666669</ele><time>2026-05-02T11:31:50.999Z</time></trkpt><trkpt lat="44.667327108100054" lon="10.340017912471827"><ele>170.33333333333334</ele><time>2026-05-02T11:31:51.999Z</time></trkpt><trkpt lat="44.66719486890702" lon="10.340225753934138"><ele>171.0</ele><time>2026-05-02T11:31:52.999Z</time></trkpt><trkpt lat="44.667069583746525" lon="10.340419507833616"><ele>171.0</ele><time>2026-05-02T11:31:53.999Z</time></trkpt><trkpt lat="44.66695229082599" lon="10.340601723633238"><ele>171.0</ele><time>2026-05-02T11:31:54.999Z</time></trkpt><trkpt lat="44.666843757940285" lon="10.3407753666107"><ele>171.0</ele><time>2026-05-02T11:31:55.999Z</time></trkpt><trkpt lat="44.666740904189616" lon="10.340946930217985"><ele>171.25</ele><time>2026-05-02T11:31:56.999Z</time></trkpt><trkpt lat="44.666659230482615" lon="10.341124919331751"><ele>171.5</ele><time>2026-05-02T11:31:57.999Z</time></trkpt><trkpt lat="44.66658178060642" lon="10.341300845857319"><ele>171.75</ele><time>2026-05-02T11:31:58.999Z</time></trkpt><trkpt lat="44.66650792729726" lon="10.341467494774395"><ele>172.0</ele><time>2026-05-02T11:31:59.999Z</time></trkpt><trkpt lat="44.66642965335417" lon="10.341631132410734"><ele>172.0</ele><time>2026-05-02T11:32:00.999Z</time></trkpt><trkpt lat="44.666347555831415" lon="10.341808112137407"><ele>172.0</ele><time>2026-05-02T11:32:01.999Z</time></trkpt><trkpt lat="44.66625885872826" lon="10.342006498114989"><ele>172.0</ele><time>2026-05-02T11:32:02.999Z</time></trkpt><trkpt lat="44.66615385670047" lon="10.342223747199256"><ele>172.66666666666669</ele><time>2026-05-02T11:32:03.999Z</time></trkpt><trkpt lat="44.66604275281964" lon="10.342451503965153"><ele>173.33333333333334</ele><time>2026-05-02T11:32:05Z</time></trkpt><trkpt lat="44.66593642519982" lon="10.342681479708954"><ele>174.0</ele><time>2026-05-02T11:32:06Z</time></trkpt><trkpt lat="44.66585000554867" lon="10.342947571135932"><ele>174.0</ele><time>2026-05-02T11:32:07Z</time></trkpt><trkpt lat="44.66578854281735" lon="10.343240626414014"><ele>174.0</ele><time>2026-05-02T11:32:08Z</time></trkpt><trkpt lat="44.665748700889296" lon="10.343533744235247"><ele>174.0</ele><time>2026-05-02T11:32:09Z</time></trkpt><trkpt lat="44.66571103790174" lon="10.343805425789713"><ele>173.33333333333334</ele><time>2026-05-02T11:32:10Z</time></trkpt><trkpt lat="44.66566718847951" lon="10.344063347397071"><ele>172.66666666666669</ele><time>2026-05-02T11:32:11Z</time></trkpt><trkpt lat="44.665620862359674" lon="10.344340685455622"><ele>172.0</ele><time>2026-05-02T11:32:12Z</time></trkpt><trkpt lat="44.665574667390175" lon="10.344629828795172"><ele>171.5</ele><time>2026-05-02T11:32:13Z</time></trkpt><trkpt lat="44.66551697286224" lon="10.344938087545323"><ele>171.0</ele><time>2026-05-02T11:32:14Z</time></trkpt><trkpt lat="44.66544919440712" lon="10.345249562368368"><ele>170.5</ele><time>2026-05-02T11:32:15Z</time></trkpt><trkpt lat="44.665376830641684" lon="10.345578547805374"><ele>170.0</ele><time>2026-05-02T11:32:16Z</time></trkpt><trkpt lat="44.66530655129046" lon="10.345906870602061"><ele>170.5</ele><time>2026-05-02T11:32:17Z</time></trkpt><trkpt lat="44.665234990094206" lon="10.34623842255514"><ele>171.0</ele><time>2026-05-02T11:32:18Z</time></trkpt><trkpt lat="44.66516296348389" lon="10.34656499765317"><ele>171.0</ele><time>2026-05-02T11:32:19Z</time></trkpt><trkpt lat="44.66509225567669" lon="10.346899673751073"><ele>171.0</ele><time>2026-05-02T11:32:20Z</time></trkpt><trkpt lat="44.66502523176222" lon="10.347232782510746"><ele>172.0</ele><time>2026-05-02T11:32:21Z</time></trkpt><trkpt lat="44.66495615319292" lon="10.347565424008668"><ele>173.0</ele><time>2026-05-02T11:32:22Z</time></trkpt><trkpt lat="44.66488592224056" lon="10.347886178181895"><ele>173.0</ele><time>2026-05-02T11:32:23Z</time></trkpt><trkpt lat="44.66481626615885" lon="10.348203018374528"><ele>173.0</ele><time>2026-05-02T11:32:24Z</time></trkpt><trkpt lat="44.66474768242047" lon="10.348528878882817"><ele>173.0</ele><time>2026-05-02T11:32:25Z</time></trkpt><trkpt lat="44.664676985166686" lon="10.348855534128734"><ele>173.0</ele><time>2026-05-02T11:32:26Z</time></trkpt><trkpt lat="44.66460889835795" lon="10.349182537933286"><ele>173.0</ele><time>2026-05-02T11:32:27Z</time></trkpt><trkpt lat="44.6645424629352" lon="10.349505786031896"><ele>173.0</ele><time>2026-05-02T11:32:28Z</time></trkpt><trkpt lat="44.66447276984327" lon="10.349828997480113"><ele>172.0</ele><time>2026-05-02T11:32:29Z</time></trkpt><trkpt lat="44.66440458323941" lon="10.35015110786857"><ele>171.0</ele><time>2026-05-02T11:32:30Z</time></trkpt><trkpt lat="44.664334490773854" lon="10.350479877905336"><ele>169.5</ele><time>2026-05-02T11:32:31Z</time></trkpt><trkpt lat="44.6642484999287" lon="10.350797664826882"><ele>168.0</ele><time>2026-05-02T11:32:32Z</time></trkpt><trkpt lat="44.66412292046229" lon="10.351093186536646"><ele>168.0</ele><time>2026-05-02T11:32:33Z</time></trkpt><trkpt lat="44.66399278331486" lon="10.35138476159866"><ele>168.0</ele><time>2026-05-02T11:32:34Z</time></trkpt><trkpt lat="44.663870161749784" lon="10.351685525373691"><ele>168.0</ele><time>2026-05-02T11:32:35Z</time></trkpt><trkpt lat="44.66373494950752" lon="10.351973260841701"><ele>168.0</ele><time>2026-05-02T11:32:36Z</time></trkpt><trkpt lat="44.66363027569134" lon="10.352289661280128"><ele>167.5</ele><time>2026-05-02T11:32:37Z</time></trkpt><trkpt lat="44.66356475172934" lon="10.352629142220321"><ele>167.0</ele><time>2026-05-02T11:32:38Z</time></trkpt><trkpt lat="44.66352390365697" lon="10.352973172579542"><ele>167.0</ele><time>2026-05-02T11:32:39Z</time></trkpt><trkpt lat="44.66348996135273" lon="10.353329705779228"><ele>167.0</ele><time>2026-05-02T11:32:40Z</time></trkpt><trkpt lat="44.663450522914026" lon="10.353678071952958"><ele>167.5</ele><time>2026-05-02T11:32:41Z</time></trkpt><trkpt lat="44.66341027728201" lon="10.354029392566291"><ele>168.0</ele><time>2026-05-02T11:32:42Z</time></trkpt><trkpt lat="44.66337057136976" lon="10.3543778741078"><ele>167.5</ele><time>2026-05-02T11:32:43Z</time></trkpt><trkpt lat="44.66333104959081" lon="10.354709722935507"><ele>167.0</ele><time>2026-05-02T11:32:44Z</time></trkpt><trkpt lat="44.66329378514982" lon="10.355027573419953"><ele>167.0</ele><time>2026-05-02T11:32:45Z</time></trkpt><trkpt lat="44.66325754349366" lon="10.35532983753651"><ele>167.0</ele><time>2026-05-02T11:32:46Z</time></trkpt><trkpt lat="44.66320114037101" lon="10.355622857712593"><ele>167.0</ele><time>2026-05-02T11:32:47Z</time></trkpt><trkpt lat="44.66311450308655" lon="10.355901570795112"><ele>166.66666666666666</ele><time>2026-05-02T11:32:48Z</time></trkpt><trkpt lat="44.663007855627114" lon="10.356168636851413"><ele>166.33333333333334</ele><time>2026-05-02T11:32:49Z</time></trkpt><trkpt lat="44.662899590074055" lon="10.356439803324886"><ele>166.0</ele><time>2026-05-02T11:32:50Z</time></trkpt><trkpt lat="44.66279093441042" lon="10.356694504254422"><ele>166.33333333333334</ele><time>2026-05-02T11:32:51Z</time></trkpt><trkpt lat="44.6626953828244" lon="10.356970409215107"><ele>166.66666666666666</ele><time>2026-05-02T11:32:52Z</time></trkpt><trkpt lat="44.662586629388855" lon="10.357226026183739"><ele>167.0</ele><time>2026-05-02T11:32:53Z</time></trkpt><trkpt lat="44.662485219094116" lon="10.357465536310757"><ele>167.0</ele><time>2026-05-02T11:32:54Z</time></trkpt><trkpt lat="44.66238690756063" lon="10.35769356017012"><ele>167.0</ele><time>2026-05-02T11:32:55Z</time></trkpt><trkpt lat="44.662289876607424" lon="10.357913658926073"><ele>167.0</ele><time>2026-05-02T11:32:56Z</time></trkpt><trkpt lat="44.66225980143481" lon="10.358184637020932"><ele>166.33333333333331</ele><time>2026-05-02T11:32:57Z</time></trkpt><trkpt lat="44.66225193193128" lon="10.35846208269991"><ele>165.66666666666666</ele><time>2026-05-02T11:32:58Z</time></trkpt><trkpt lat="44.662272385642495" lon="10.358748621856707"><ele>165.0</ele><time>2026-05-02T11:32:59Z</time></trkpt><trkpt lat="44.6623059492597" lon="10.3590366606629"><ele>164.66666666666666</ele><time>2026-05-02T11:33:00Z</time></trkpt><trkpt lat="44.66233709158955" lon="10.359328320903309"><ele>164.33333333333331</ele><time>2026-05-02T11:33:01Z</time></trkpt><trkpt lat="44.66235819427114" lon="10.35960985181515"><ele>164.0</ele><time>2026-05-02T11:33:02Z</time></trkpt><trkpt lat="44.66237024506973" lon="10.35987311986981"><ele>164.0</ele><time>2026-05-02T11:33:03Z</time></trkpt><trkpt lat="44.662382837190606" lon="10.360111515813582"><ele>164.0</ele><time>2026-05-02T11:33:04Z</time></trkpt><trkpt lat="44.66238334884436" lon="10.36031243384487"><ele>164.0</ele><time>2026-05-02T11:33:04.999Z</time></trkpt><trkpt lat="44.66236217045237" lon="10.360511153647213"><ele>164.0</ele><time>2026-05-02T11:33:05.999Z</time></trkpt><trkpt lat="44.662303217106924" lon="10.360690752574612"><ele>164.0</ele><time>2026-05-02T11:33:06.999Z</time></trkpt><trkpt lat="44.66220537271543" lon="10.36084541159985"><ele>164.0</ele><time>2026-05-02T11:33:07.999Z</time></trkpt><trkpt lat="44.66206904882617" lon="10.36095752302531"><ele>164.0</ele><time>2026-05-02T11:33:08.999Z</time></trkpt><trkpt lat="44.661902153341686" lon="10.361051711166219"><ele>164.33333333333331</ele><time>2026-05-02T11:33:09.999Z</time></trkpt><trkpt lat="44.66173007359409" lon="10.361130123893078"><ele>164.66666666666666</ele><time>2026-05-02T11:33:10.999Z</time></trkpt><trkpt lat="44.66156557996425" lon="10.361216917220801"><ele>165.0</ele><time>2026-05-02T11:33:11.999Z</time></trkpt><trkpt lat="44.66141089987519" lon="10.361311453233975"><ele>166.0</ele><time>2026-05-02T11:33:12.999Z</time></trkpt><trkpt lat="44.66126088329236" lon="10.361407128733894"><ele>167.0</ele><time>2026-05-02T11:33:13.999Z</time></trkpt><trkpt lat="44.661117120470806" lon="10.361495692757371"><ele>168.0</ele><time>2026-05-02T11:33:14.999Z</time></trkpt><trkpt lat="44.66098537515726" lon="10.36157525769096"><ele>169.25</ele><time>2026-05-02T11:33:15.999Z</time></trkpt><trkpt lat="44.66086336893651" lon="10.361648800345037"><ele>170.5</ele><time>2026-05-02T11:33:16.999Z</time></trkpt><trkpt lat="44.66075065594422" lon="10.361725073963443"><ele>171.75</ele><time>2026-05-02T11:33:17.999Z</time></trkpt><trkpt lat="44.6606393133166" lon="10.36179894069394"><ele>173.0</ele><time>2026-05-02T11:33:18.999Z</time></trkpt><trkpt lat="44.660519649693605" lon="10.361890978264546"><ele>173.0</ele><time>2026-05-02T11:33:19.999Z</time></trkpt><trkpt lat="44.660398464940045" lon="10.361998626357733"><ele>173.0</ele><time>2026-05-02T11:33:20.999Z</time></trkpt><trkpt lat="44.66026463753528" lon="10.362103619402147"><ele>173.0</ele><time>2026-05-02T11:33:21.999Z</time></trkpt><trkpt lat="44.66012552476564" lon="10.362214886664097"><ele>173.33333333333331</ele><time>2026-05-02T11:33:22.999Z</time></trkpt><trkpt lat="44.65997563013321" lon="10.362345166707223"><ele>173.66666666666666</ele><time>2026-05-02T11:33:23.999Z</time></trkpt><trkpt lat="44.65983550166682" lon="10.362461868246736"><ele>174.0</ele><time>2026-05-02T11:33:24.999Z</time></trkpt><trkpt lat="44.65970543613585" lon="10.362571014589063"><ele>174.0</ele><time>2026-05-02T11:33:25.999Z</time></trkpt><trkpt lat="44.65957686279835" lon="10.362677114022214"><ele>174.0</ele><time>2026-05-02T11:33:26.999Z</time></trkpt><trkpt lat="44.659447388254655" lon="10.362784717965573"><ele>174.0</ele><time>2026-05-02T11:33:27.999Z</time></trkpt><trkpt lat="44.65931965185377" lon="10.362891893735682"><ele>174.0</ele><time>2026-05-02T11:33:28.999Z</time></trkpt><trkpt lat="44.659192378207564" lon="10.362990722894997"><ele>172.75</ele><time>2026-05-02T11:33:29.999Z</time></trkpt><trkpt lat="44.6590824285596" lon="10.363084980833527"><ele>171.5</ele><time>2026-05-02T11:33:30.999Z</time></trkpt><trkpt lat="44.65897679008316" lon="10.363175285992375"><ele>170.25</ele><time>2026-05-02T11:33:31.999Z</time></trkpt><trkpt lat="44.65887116202483" lon="10.363261725518381"><ele>169.0</ele><time>2026-05-02T11:33:32.999Z</time></trkpt><trkpt lat="44.6587563834381" lon="10.363361386165558"><ele>169.0</ele><time>2026-05-02T11:33:33.999Z</time></trkpt><trkpt lat="44.658618281213215" lon="10.363475991612876"><ele>169.0</ele><time>2026-05-02T11:33:34.999Z</time></trkpt><trkpt lat="44.65845385444092" lon="10.363599113501479"><ele>169.0</ele><time>2026-05-02T11:33:35.999Z</time></trkpt><trkpt lat="44.65828410422516" lon="10.363738312145353"><ele>167.0</ele><time>2026-05-02T11:33:36.999Z</time></trkpt><trkpt lat="44.65811566059004" lon="10.363874448524456"><ele>165.0</ele><time>2026-05-02T11:33:37.999Z</time></trkpt><trkpt lat="44.657950450428935" lon="10.364013489470794"><ele>163.0</ele><time>2026-05-02T11:33:38.999Z</time></trkpt><trkpt lat="44.6577765011858" lon="10.364157675865288"><ele>162.66666666666669</ele><time>2026-05-02T11:33:39.999Z</time></trkpt><trkpt lat="44.65760287127078" lon="10.36430488613828"><ele>162.33333333333334</ele><time>2026-05-02T11:33:40.999Z</time></trkpt><trkpt lat="44.65742886036613" lon="10.364453223756485"><ele>162.0</ele><time>2026-05-02T11:33:41.999Z</time></trkpt><trkpt lat="44.65725273852425" lon="10.364598617331328"><ele>161.66666666666666</ele><time>2026-05-02T11:33:42.999Z</time></trkpt><trkpt lat="44.65707610724054" lon="10.364745762690506"><ele>161.33333333333331</ele><time>2026-05-02T11:33:43.999Z</time></trkpt><trkpt lat="44.65689682935248" lon="10.364891458636478"><ele>161.0</ele><time>2026-05-02T11:33:44.999Z</time></trkpt><trkpt lat="44.65672167582503" lon="10.365037721602686"><ele>160.66666666666666</ele><time>2026-05-02T11:33:45.999Z</time></trkpt><trkpt lat="44.65654064233299" lon="10.365187957084315"><ele>160.33333333333334</ele><time>2026-05-02T11:33:46.999Z</time></trkpt><trkpt lat="44.656357902173596" lon="10.365334621405436"><ele>160.0</ele><time>2026-05-02T11:33:47.999Z</time></trkpt><trkpt lat="44.65618405138623" lon="10.365473530047973"><ele>160.66666666666669</ele><time>2026-05-02T11:33:48.999Z</time></trkpt><trkpt lat="44.65601658715846" lon="10.36560617512605"><ele>161.33333333333334</ele><time>2026-05-02T11:33:49.999Z</time></trkpt><trkpt lat="44.65586031582961" lon="10.365728655939467"><ele>162.0</ele><time>2026-05-02T11:33:50.999Z</time></trkpt><trkpt lat="44.65571530533962" lon="10.365847975991183"><ele>162.0</ele><time>2026-05-02T11:33:51.999Z</time></trkpt><trkpt lat="44.6555880610916" lon="10.365982474564632"><ele>162.0</ele><time>2026-05-02T11:33:52.999Z</time></trkpt><trkpt lat="44.655478591226675" lon="10.366165779986124"><ele>162.0</ele><time>2026-05-02T11:33:53.999Z</time></trkpt><trkpt lat="44.65539621625975" lon="10.366388839308051"><ele>162.0</ele><time>2026-05-02T11:33:54.999Z</time></trkpt><trkpt lat="44.65532264538969" lon="10.366647245690334"><ele>162.0</ele><time>2026-05-02T11:33:55.999Z</time></trkpt><trkpt lat="44.655237818532434" lon="10.366908301988687"><ele>162.0</ele><time>2026-05-02T11:33:56.999Z</time></trkpt><trkpt lat="44.6551411747543" lon="10.36718397256784"><ele>163.0</ele><time>2026-05-02T11:33:57.999Z</time></trkpt><trkpt lat="44.655046904987536" lon="10.367447543917581"><ele>164.0</ele><time>2026-05-02T11:33:58.999Z</time></trkpt><trkpt lat="44.65495358174073" lon="10.36770741887576"><ele>165.0</ele><time>2026-05-02T11:33:59.999Z</time></trkpt><trkpt lat="44.65486217142488" lon="10.367962188577113"><ele>165.0</ele><time>2026-05-02T11:34:00.999Z</time></trkpt><trkpt lat="44.65477420503114" lon="10.368212669742979"><ele>165.0</ele><time>2026-05-02T11:34:01.999Z</time></trkpt><trkpt lat="44.65468568377585" lon="10.368463737215848"><ele>165.0</ele><time>2026-05-02T11:34:02.999Z</time></trkpt><trkpt lat="44.654594890159345" lon="10.368712155608659"><ele>165.33333333333334</ele><time>2026-05-02T11:34:03.999Z</time></trkpt><trkpt lat="44.65450086504096" lon="10.368965054712215"><ele>165.66666666666669</ele><time>2026-05-02T11:34:04.999Z</time></trkpt><trkpt lat="44.65440044177601" lon="10.369216162819997"><ele>166.0</ele><time>2026-05-02T11:34:05.999Z</time></trkpt><trkpt lat="44.65429141936708" lon="10.369454526730356"><ele>166.66666666666669</ele><time>2026-05-02T11:34:06.999Z</time></trkpt><trkpt lat="44.6541626915245" lon="10.369677606374854"><ele>167.33333333333334</ele><time>2026-05-02T11:34:07.999Z</time></trkpt><trkpt lat="44.65401311029124" lon="10.369879687030936"><ele>168.0</ele><time>2026-05-02T11:34:08.999Z</time></trkpt><trkpt lat="44.65384547703777" lon="10.370070429388983"><ele>168.0</ele><time>2026-05-02T11:34:09.999Z</time></trkpt><trkpt lat="44.65366488685757" lon="10.370269838904195"><ele>168.0</ele><time>2026-05-02T11:34:11Z</time></trkpt><trkpt lat="44.653481603205975" lon="10.370474397911392"><ele>166.5</ele><time>2026-05-02T11:34:12Z</time></trkpt><trkpt lat="44.653306538340765" lon="10.370686061591444"><ele>165.0</ele><time>2026-05-02T11:34:13Z</time></trkpt><trkpt lat="44.65312643825411" lon="10.370902079600704"><ele>165.0</ele><time>2026-05-02T11:34:14Z</time></trkpt><trkpt lat="44.652951488407524" lon="10.371114977626785"><ele>165.0</ele><time>2026-05-02T11:34:15Z</time></trkpt><trkpt lat="44.65278135886995" lon="10.371313020508941"><ele>165.0</ele><time>2026-05-02T11:34:16Z</time></trkpt><trkpt lat="44.65261749422565" lon="10.371499069495254"><ele>165.0</ele><time>2026-05-02T11:34:17Z</time></trkpt><trkpt lat="44.65245567507016" lon="10.3716630122865"><ele>165.0</ele><time>2026-05-02T11:34:18Z</time></trkpt><trkpt lat="44.652287922876354" lon="10.371787110034534"><ele>165.0</ele><time>2026-05-02T11:34:19Z</time></trkpt><trkpt lat="44.65209604093852" lon="10.371845164159108"><ele>165.0</ele><time>2026-05-02T11:34:20Z</time></trkpt><trkpt lat="44.65189712840777" lon="10.371895269454665"><ele>165.0</ele><time>2026-05-02T11:34:21Z</time></trkpt><trkpt lat="44.651697440292224" lon="10.371962190320652"><ele>165.0</ele><time>2026-05-02T11:34:22Z</time></trkpt><trkpt lat="44.65148868128998" lon="10.372030259585548"><ele>165.0</ele><time>2026-05-02T11:34:23Z</time></trkpt><trkpt lat="44.651284409400404" lon="10.372120561232535"><ele>165.0</ele><time>2026-05-02T11:34:24Z</time></trkpt><trkpt lat="44.65109299124581" lon="10.372234110851114"><ele>165.0</ele><time>2026-05-02T11:34:25Z</time></trkpt><trkpt lat="44.650905717415895" lon="10.372370243262402"><ele>165.0</ele><time>2026-05-02T11:34:26Z</time></trkpt><trkpt lat="44.65071415592539" lon="10.372518914234234"><ele>165.0</ele><time>2026-05-02T11:34:27Z</time></trkpt><trkpt lat="44.65051897225521" lon="10.372666830591465"><ele>165.0</ele><time>2026-05-02T11:34:28Z</time></trkpt><trkpt lat="44.650319237761984" lon="10.372806279138624"><ele>165.0</ele><time>2026-05-02T11:34:29Z</time></trkpt><trkpt lat="44.650114176494625" lon="10.372948916210627"><ele>164.0</ele><time>2026-05-02T11:34:30Z</time></trkpt><trkpt lat="44.649912121761176" lon="10.373092577920957"><ele>163.0</ele><time>2026-05-02T11:34:31Z</time></trkpt><trkpt lat="44.64971788058775" lon="10.373236633024552"><ele>162.0</ele><time>2026-05-02T11:34:32Z</time></trkpt><trkpt lat="44.64952488317571" lon="10.373382105184113"><ele>162.0</ele><time>2026-05-02T11:34:33Z</time></trkpt><trkpt lat="44.64934713669212" lon="10.3735416072215"><ele>162.0</ele><time>2026-05-02T11:34:34Z</time></trkpt><trkpt lat="44.649182219210886" lon="10.373709149409802"><ele>162.0</ele><time>2026-05-02T11:34:35Z</time></trkpt><trkpt lat="44.64902990417367" lon="10.373888805653106"><ele>162.0</ele><time>2026-05-02T11:34:36Z</time></trkpt><trkpt lat="44.648879231376185" lon="10.374069713083822"><ele>162.0</ele><time>2026-05-02T11:34:37Z</time></trkpt><trkpt lat="44.64872525941776" lon="10.374246739261144"><ele>162.0</ele><time>2026-05-02T11:34:38Z</time></trkpt><trkpt lat="44.6485800077469" lon="10.374420471658226"><ele>162.66666666666666</ele><time>2026-05-02T11:34:39Z</time></trkpt><trkpt lat="44.6484273800339" lon="10.374595386449583"><ele>163.33333333333331</ele><time>2026-05-02T11:34:40Z</time></trkpt><trkpt lat="44.648275177631845" lon="10.374747266068134"><ele>164.0</ele><time>2026-05-02T11:34:41Z</time></trkpt><trkpt lat="44.648113672578" lon="10.374889693358222"><ele>165.0</ele><time>2026-05-02T11:34:42Z</time></trkpt><trkpt lat="44.647943674265065" lon="10.375013584749148"><ele>166.0</ele><time>2026-05-02T11:34:43Z</time></trkpt><trkpt lat="44.64778542146731" lon="10.375107252311423"><ele>167.0</ele><time>2026-05-02T11:34:44Z</time></trkpt><trkpt lat="44.64763781344909" lon="10.375193538655783"><ele>167.8</ele><time>2026-05-02T11:34:45Z</time></trkpt><trkpt lat="44.64750896215699" lon="10.375269707450515"><ele>168.6</ele><time>2026-05-02T11:34:46Z</time></trkpt><trkpt lat="44.647412643645296" lon="10.375337759474878"><ele>169.4</ele><time>2026-05-02T11:34:47Z</time></trkpt><trkpt lat="44.64733082566412" lon="10.37539459672184"><ele>170.20000000000002</ele><time>2026-05-02T11:34:48Z</time></trkpt><trkpt lat="44.64726956171686" lon="10.375449406753566"><ele>171.0</ele><time>2026-05-02T11:34:49Z</time></trkpt><trkpt lat="44.647208555658395" lon="10.375496370696485"><ele>171.5</ele><time>2026-05-02T11:34:50Z</time></trkpt><trkpt lat="44.647130736717834" lon="10.375555027637398"><ele>172.0</ele><time>2026-05-02T11:34:51Z</time></trkpt><trkpt lat="44.647054274493556" lon="10.375646533105138"><ele>172.5</ele><time>2026-05-02T11:34:52Z</time></trkpt><trkpt lat="44.646985359502004" lon="10.375788318469441"><ele>173.0</ele><time>2026-05-02T11:34:53Z</time></trkpt><trkpt lat="44.646917727814795" lon="10.37597099080791"><ele>173.66666666666666</ele><time>2026-05-02T11:34:54Z</time></trkpt><trkpt lat="44.64685925899524" lon="10.3761682913958"><ele>174.33333333333334</ele><time>2026-05-02T11:34:55Z</time></trkpt><trkpt lat="44.6468057012985" lon="10.376368020281086"><ele>175.0</ele><time>2026-05-02T11:34:56Z</time></trkpt><trkpt lat="44.64674195460968" lon="10.376554614523293"><ele>175.0</ele><time>2026-05-02T11:34:57Z</time></trkpt><trkpt lat="44.646677837065624" lon="10.376740042779167"><ele>175.0</ele><time>2026-05-02T11:34:58Z</time></trkpt><trkpt lat="44.646615386863665" lon="10.376916039900022"><ele>175.0</ele><time>2026-05-02T11:34:59Z</time></trkpt><trkpt lat="44.646558572829825" lon="10.377101254699799"><ele>175.0</ele><time>2026-05-02T11:35:00Z</time></trkpt><trkpt lat="44.64648990429411" lon="10.377262785033771"><ele>175.0</ele><time>2026-05-02T11:35:01Z</time></trkpt><trkpt lat="44.64644685612493" lon="10.37743739225823"><ele>175.0</ele><time>2026-05-02T11:35:02Z</time></trkpt><trkpt lat="44.64638337755474" lon="10.377605820303753"><ele>175.0</ele><time>2026-05-02T11:35:03Z</time></trkpt><trkpt lat="44.646324002381554" lon="10.37778952564492"><ele>175.0</ele><time>2026-05-02T11:35:04Z</time></trkpt><trkpt lat="44.64626827427284" lon="10.377970228048849"><ele>174.5</ele><time>2026-05-02T11:35:05Z</time></trkpt><trkpt lat="44.64621140818079" lon="10.37814577319"><ele>174.0</ele><time>2026-05-02T11:35:06Z</time></trkpt><trkpt lat="44.64615155374297" lon="10.378312187160086"><ele>173.5</ele><time>2026-05-02T11:35:07Z</time></trkpt><trkpt lat="44.64609213281725" lon="10.378472048881921"><ele>173.0</ele><time>2026-05-02T11:35:08Z</time></trkpt><trkpt lat="44.64603692610412" lon="10.378630844123506"><ele>173.0</ele><time>2026-05-02T11:35:09Z</time></trkpt><trkpt lat="44.64598769313984" lon="10.378788934710581"><ele>173.0</ele><time>2026-05-02T11:35:10Z</time></trkpt><trkpt lat="44.645936222545906" lon="10.378945045963846"><ele>173.0</ele><time>2026-05-02T11:35:11Z</time></trkpt><trkpt lat="44.64588231579309" lon="10.379110648107698"><ele>173.0</ele><time>2026-05-02T11:35:12Z</time></trkpt><trkpt lat="44.64581875318926" lon="10.379286394591059"><ele>171.66666666666666</ele><time>2026-05-02T11:35:13Z</time></trkpt><trkpt lat="44.645750661304795" lon="10.379497927973826"><ele>170.33333333333334</ele><time>2026-05-02T11:35:14Z</time></trkpt><trkpt lat="44.64568496196149" lon="10.379701321973572"><ele>169.0</ele><time>2026-05-02T11:35:15Z</time></trkpt><trkpt lat="44.64562108117414" lon="10.379894680057747"><ele>168.25</ele><time>2026-05-02T11:35:15.999Z</time></trkpt><trkpt lat="44.645559221636496" lon="10.380077479767039"><ele>167.5</ele><time>2026-05-02T11:35:16.999Z</time></trkpt><trkpt lat="44.64549851809501" lon="10.38027181436695"><ele>166.75</ele><time>2026-05-02T11:35:17.999Z</time></trkpt><trkpt lat="44.64543595828673" lon="10.380458285092402"><ele>166.0</ele><time>2026-05-02T11:35:18.999Z</time></trkpt><trkpt lat="44.64537493295066" lon="10.380635355407373"><ele>165.75</ele><time>2026-05-02T11:35:19.999Z</time></trkpt><trkpt lat="44.645314125795245" lon="10.380805283057036"><ele>165.5</ele><time>2026-05-02T11:35:20.999Z</time></trkpt><trkpt lat="44.6452635530653" lon="10.380967247013775"><ele>165.25</ele><time>2026-05-02T11:35:21.999Z</time></trkpt><trkpt lat="44.64521811036159" lon="10.3811116090481"><ele>165.0</ele><time>2026-05-02T11:35:22.999Z</time></trkpt><trkpt lat="44.64518275159201" lon="10.381220458176962"><ele>164.8</ele><time>2026-05-02T11:35:23.999Z</time></trkpt><trkpt lat="44.64512848636116" lon="10.381370772711657"><ele>164.6</ele><time>2026-05-02T11:35:25.999Z</time></trkpt><trkpt lat="44.645079069281216" lon="10.381460940259243"><ele>164.39999999999998</ele><time>2026-05-02T11:35:29.999Z</time></trkpt><trkpt lat="44.64500220886356" lon="10.381507359710575"><ele>164.2</ele><time>2026-05-02T11:35:31.999Z</time></trkpt><trkpt lat="44.64488311592614" lon="10.381562583675969"><ele>164.0</ele><time>2026-05-02T11:35:33.999Z</time></trkpt><trkpt lat="44.64483979399226" lon="10.381632238315326"><ele>164.0</ele><time>2026-05-02T11:35:34.999Z</time></trkpt><trkpt lat="44.64482539258886" lon="10.381722834293296"><ele>164.0</ele><time>2026-05-02T11:35:35.999Z</time></trkpt><trkpt lat="44.64486735745898" lon="10.381888504145836"><ele>164.0</ele><time>2026-05-02T11:35:37.999Z</time></trkpt><trkpt lat="44.64491580955774" lon="10.381967265975005"><ele>164.0</ele><time>2026-05-02T11:35:38.999Z</time></trkpt><trkpt lat="44.64496238182339" lon="10.38203633173465"><ele>164.0</ele><time>2026-05-02T11:35:39.999Z</time></trkpt><trkpt lat="44.64499405883709" lon="10.382122683491385"><ele>164.0</ele><time>2026-05-02T11:35:40.999Z</time></trkpt><trkpt lat="44.64500663907339" lon="10.38222306606481"><ele>164.0</ele><time>2026-05-02T11:35:41.999Z</time></trkpt><trkpt lat="44.645003269599485" lon="10.382342789277569"><ele>164.0</ele><time>2026-05-02T11:35:42.999Z</time></trkpt><trkpt lat="44.644979311153165" lon="10.382468894198674"><ele>164.0</ele><time>2026-05-02T11:35:43.999Z</time></trkpt><trkpt lat="44.64495185255856" lon="10.382599007311246"><ele>164.0</ele><time>2026-05-02T11:35:44.999Z</time></trkpt><trkpt lat="44.644920313206796" lon="10.382736963020362"><ele>164.0</ele><time>2026-05-02T11:35:45.999Z</time></trkpt><trkpt lat="44.64488415854704" lon="10.38287065093221"><ele>164.0</ele><time>2026-05-02T11:35:46.999Z</time></trkpt><trkpt lat="44.644848139222184" lon="10.38299899868515"><ele>164.0</ele><time>2026-05-02T11:35:47.999Z</time></trkpt><trkpt lat="44.64481492605479" lon="10.383130495825736"><ele>164.0</ele><time>2026-05-02T11:35:48.999Z</time></trkpt><trkpt lat="44.644782028101766" lon="10.38325897033337"><ele>164.0</ele><time>2026-05-02T11:35:49.999Z</time></trkpt><trkpt lat="44.64475062705861" lon="10.38338319023398"><ele>164.0</ele><time>2026-05-02T11:35:50.999Z</time></trkpt><trkpt lat="44.644723677147965" lon="10.383508865184954"><ele>164.0</ele><time>2026-05-02T11:35:51.999Z</time></trkpt><trkpt lat="44.64470215367092" lon="10.383633942128505"><ele>164.0</ele><time>2026-05-02T11:35:52.999Z</time></trkpt><trkpt lat="44.64468014256077" lon="10.383756229878871"><ele>164.0</ele><time>2026-05-02T11:35:53.999Z</time></trkpt><trkpt lat="44.644651987394546" lon="10.383880797685919"><ele>164.0</ele><time>2026-05-02T11:35:54.999Z</time></trkpt><trkpt lat="44.64463073026597" lon="10.384018185096531"><ele>164.0</ele><time>2026-05-02T11:35:55.999Z</time></trkpt><trkpt lat="44.64460943505085" lon="10.384146448064362"><ele>163.25</ele><time>2026-05-02T11:35:56.999Z</time></trkpt><trkpt lat="44.64451529582872" lon="10.3842588302312"><ele>162.5</ele><time>2026-05-02T11:35:57.999Z</time></trkpt><trkpt lat="44.64447907340138" lon="10.384398801213175"><ele>161.75</ele><time>2026-05-02T11:35:58.999Z</time></trkpt><trkpt lat="44.64443926182877" lon="10.384548099999014"><ele>161.0</ele><time>2026-05-02T11:35:59.999Z</time></trkpt><trkpt lat="44.6443911613265" lon="10.384705258990637"><ele>160.75</ele><time>2026-05-02T11:36:00.999Z</time></trkpt><trkpt lat="44.644336104567806" lon="10.38485225682712"><ele>160.5</ele><time>2026-05-02T11:36:01.999Z</time></trkpt><trkpt lat="44.64428259079917" lon="10.384994197492537"><ele>160.25</ele><time>2026-05-02T11:36:02.999Z</time></trkpt><trkpt lat="44.64422806874423" lon="10.385128171047763"><ele>160.0</ele><time>2026-05-02T11:36:03.999Z</time></trkpt><trkpt lat="44.64417382593614" lon="10.385258603799757"><ele>160.0</ele><time>2026-05-02T11:36:04.999Z</time></trkpt><trkpt lat="44.64412009473034" lon="10.385387185801585"><ele>160.0</ele><time>2026-05-02T11:36:05.999Z</time></trkpt><trkpt lat="44.644067572959166" lon="10.38551467839689"><ele>160.0</ele><time>2026-05-02T11:36:06.999Z</time></trkpt><trkpt lat="44.6440165838964" lon="10.385633734026833"><ele>160.0</ele><time>2026-05-02T11:36:07.999Z</time></trkpt><trkpt lat="44.643964457026065" lon="10.385744212886797"><ele>160.0</ele><time>2026-05-02T11:36:08.999Z</time></trkpt><trkpt lat="44.64391345000601" lon="10.385848554234537"><ele>159.83333333333334</ele><time>2026-05-02T11:36:09.999Z</time></trkpt><trkpt lat="44.64386550229652" lon="10.38595431255774"><ele>159.66666666666669</ele><time>2026-05-02T11:36:10.999Z</time></trkpt><trkpt lat="44.64381709021721" lon="10.386054765659837"><ele>159.5</ele><time>2026-05-02T11:36:11.999Z</time></trkpt><trkpt lat="44.643767539385344" lon="10.386149195837499"><ele>159.33333333333334</ele><time>2026-05-02T11:36:12.999Z</time></trkpt><trkpt lat="44.643713923224" lon="10.386235779714257"><ele>159.16666666666666</ele><time>2026-05-02T11:36:13.999Z</time></trkpt><trkpt lat="44.64365963961859" lon="10.386312881119895"><ele>159.0</ele><time>2026-05-02T11:36:14.999Z</time></trkpt><trkpt lat="44.64359613993069" lon="10.386387251652815"><ele>158.8</ele><time>2026-05-02T11:36:15.999Z</time></trkpt><trkpt lat="44.64352192721082" lon="10.38645083350798"><ele>158.60000000000002</ele><time>2026-05-02T11:36:17Z</time></trkpt><trkpt lat="44.64345463586304" lon="10.38651287204446"><ele>158.4</ele><time>2026-05-02T11:36:18Z</time></trkpt><trkpt lat="44.64338976027409" lon="10.386587759089826"><ele>158.20000000000002</ele><time>2026-05-02T11:36:19Z</time></trkpt><trkpt lat="44.643353104855294" lon="10.386718616820863"><ele>158.0</ele><time>2026-05-02T11:36:20Z</time></trkpt><trkpt lat="44.64336993123774" lon="10.386855930247654"><ele>158.0</ele><time>2026-05-02T11:36:21Z</time></trkpt><trkpt lat="44.6433685674526" lon="10.386991957261317"><ele>158.0</ele><time>2026-05-02T11:36:22Z</time></trkpt><trkpt lat="44.64335405641474" lon="10.387140965025285"><ele>158.0</ele><time>2026-05-02T11:36:23Z</time></trkpt><trkpt lat="44.643312725324435" lon="10.387324728682012"><ele>158.0</ele><time>2026-05-02T11:36:24Z</time></trkpt><trkpt lat="44.64321487957302" lon="10.387540685539367"><ele>158.0</ele><time>2026-05-02T11:36:25Z</time></trkpt><trkpt lat="44.643115232726416" lon="10.38782012232255"><ele>158.0</ele><time>2026-05-02T11:36:26Z</time></trkpt><trkpt lat="44.64299875819073" lon="10.38814996397259"><ele>157.0</ele><time>2026-05-02T11:36:27Z</time></trkpt><trkpt lat="44.642877804089224" lon="10.388524444053564"><ele>156.0</ele><time>2026-05-02T11:36:28Z</time></trkpt><trkpt lat="44.642712574973615" lon="10.3888832563949"><ele>156.0</ele><time>2026-05-02T11:36:29Z</time></trkpt><trkpt lat="44.64254516836597" lon="10.389208596175662"><ele>156.0</ele><time>2026-05-02T11:36:30Z</time></trkpt><trkpt lat="44.64237667738219" lon="10.389496633900045"><ele>156.0</ele><time>2026-05-02T11:36:31Z</time></trkpt><trkpt lat="44.64220396648055" lon="10.389749138831913"><ele>156.0</ele><time>2026-05-02T11:36:32Z</time></trkpt><trkpt lat="44.642019615327456" lon="10.38996214284554"><ele>155.5</ele><time>2026-05-02T11:36:33Z</time></trkpt><trkpt lat="44.641819680268696" lon="10.39014680501968"><ele>155.0</ele><time>2026-05-02T11:36:34Z</time></trkpt><trkpt lat="44.641610608713776" lon="10.390301309782743"><ele>155.0</ele><time>2026-05-02T11:36:35Z</time></trkpt><trkpt lat="44.64140178358193" lon="10.390433878587153"><ele>155.0</ele><time>2026-05-02T11:36:36Z</time></trkpt><trkpt lat="44.64119848755583" lon="10.390545414375227"><ele>155.0</ele><time>2026-05-02T11:36:37Z</time></trkpt><trkpt lat="44.64095793018386" lon="10.390633602071533"><ele>155.5</ele><time>2026-05-02T11:36:38Z</time></trkpt><trkpt lat="44.640697874492474" lon="10.390718271690803"><ele>156.0</ele><time>2026-05-02T11:36:39Z</time></trkpt><trkpt lat="44.64043229272983" lon="10.39079488926128"><ele>153.5</ele><time>2026-05-02T11:36:40Z</time></trkpt><trkpt lat="44.640252988866884" lon="10.39086625783366"><ele>151.0</ele><time>2026-05-02T11:36:41Z</time></trkpt><trkpt lat="44.63997818750692" lon="10.390931790234427"><ele>151.0</ele><time>2026-05-02T11:36:42Z</time></trkpt><trkpt lat="44.63971110423034" lon="10.39099915480813"><ele>151.0</ele><time>2026-05-02T11:36:43Z</time></trkpt><trkpt lat="44.63946020590436" lon="10.391074630716979"><ele>152.0</ele><time>2026-05-02T11:36:44Z</time></trkpt><trkpt lat="44.63921345517375" lon="10.391163219006947"><ele>153.0</ele><time>2026-05-02T11:36:45Z</time></trkpt><trkpt lat="44.638978630865644" lon="10.391266767651002"><ele>154.0</ele><time>2026-05-02T11:36:46Z</time></trkpt><trkpt lat="44.638754517174206" lon="10.391392103150416"><ele>155.0</ele><time>2026-05-02T11:36:47Z</time></trkpt><trkpt lat="44.638552819969746" lon="10.391528476907961"><ele>156.66666666666666</ele><time>2026-05-02T11:36:48Z</time></trkpt><trkpt lat="44.638367193267285" lon="10.391660669159524"><ele>158.33333333333334</ele><time>2026-05-02T11:36:49Z</time></trkpt><trkpt lat="44.63819462024006" lon="10.391799481947805"><ele>160.0</ele><time>2026-05-02T11:36:50Z</time></trkpt><trkpt lat="44.63802736863976" lon="10.391949117133992"><ele>160.0</ele><time>2026-05-02T11:36:51Z</time></trkpt><trkpt lat="44.63787622883047" lon="10.392097369726109"><ele>160.0</ele><time>2026-05-02T11:36:52Z</time></trkpt><trkpt lat="44.63774014854811" lon="10.392238435163534"><ele>160.0</ele><time>2026-05-02T11:36:53Z</time></trkpt><trkpt lat="44.637628990362316" lon="10.39236194256775"><ele>161.16666666666669</ele><time>2026-05-02T11:36:54Z</time></trkpt><trkpt lat="44.63753844999997" lon="10.39245632786745"><ele>162.33333333333334</ele><time>2026-05-02T11:36:55Z</time></trkpt><trkpt lat="44.637467623843655" lon="10.392520301486472"><ele>163.5</ele><time>2026-05-02T11:36:56Z</time></trkpt><trkpt lat="44.637401044425616" lon="10.392560702196215"><ele>164.66666666666666</ele><time>2026-05-02T11:36:57Z</time></trkpt><trkpt lat="44.63733205335359" lon="10.392587234045267"><ele>165.83333333333331</ele><time>2026-05-02T11:36:58Z</time></trkpt><trkpt lat="44.637249298383765" lon="10.39260043779745"><ele>167.0</ele><time>2026-05-02T11:36:59Z</time></trkpt><trkpt lat="44.637170130770876" lon="10.392610200042736"><ele>167.0</ele><time>2026-05-02T11:37:00Z</time></trkpt><trkpt lat="44.637102861689" lon="10.392615398409607"><ele>167.0</ele><time>2026-05-02T11:37:01Z</time></trkpt><trkpt lat="44.637065668184334" lon="10.392691021164037"><ele>167.0</ele><time>2026-05-02T11:37:01.999Z</time></trkpt><trkpt lat="44.637026298735286" lon="10.392838766223388"><ele>167.0</ele><time>2026-05-02T11:37:03.999Z</time></trkpt><trkpt lat="44.637046393303656" lon="10.392951587171186"><ele>167.0</ele><time>2026-05-02T11:37:04.999Z</time></trkpt><trkpt lat="44.637097671394855" lon="10.393042028132754"><ele>167.0</ele><time>2026-05-02T11:37:05.999Z</time></trkpt><trkpt lat="44.63716476358397" lon="10.39309316515247"><ele>167.75</ele><time>2026-05-02T11:37:06.999Z</time></trkpt><trkpt lat="44.63726122696482" lon="10.393111156515179"><ele>168.5</ele><time>2026-05-02T11:37:07.999Z</time></trkpt><trkpt lat="44.63736063891206" lon="10.393209967014899"><ele>169.25</ele><time>2026-05-02T11:37:08.999Z</time></trkpt><trkpt lat="44.637464358896466" lon="10.393358575979134"><ele>170.0</ele><time>2026-05-02T11:37:09.999Z</time></trkpt><trkpt lat="44.63753537036549" lon="10.393549477871204"><ele>170.0</ele><time>2026-05-02T11:37:10.999Z</time></trkpt><trkpt lat="44.63763501798851" lon="10.39373549348924"><ele>170.0</ele><time>2026-05-02T11:37:11.999Z</time></trkpt><trkpt lat="44.63772830955668" lon="10.39393731406919"><ele>170.0</ele><time>2026-05-02T11:37:12.999Z</time></trkpt><trkpt lat="44.637821030091686" lon="10.394141091241892"><ele>171.0</ele><time>2026-05-02T11:37:13.999Z</time></trkpt><trkpt lat="44.63791192139581" lon="10.394348696253365"><ele>172.0</ele><time>2026-05-02T11:37:14.999Z</time></trkpt><trkpt lat="44.63801044728857" lon="10.394548456577898"><ele>173.0</ele><time>2026-05-02T11:37:15.999Z</time></trkpt><trkpt lat="44.6381057433058" lon="10.394760677364637"><ele>173.66666666666666</ele><time>2026-05-02T11:37:16.999Z</time></trkpt><trkpt lat="44.63820394230629" lon="10.394972302127732"><ele>174.33333333333334</ele><time>2026-05-02T11:37:17.999Z</time></trkpt><trkpt lat="44.638303957530404" lon="10.395180548962182"><ele>175.0</ele><time>2026-05-02T11:37:18.999Z</time></trkpt><trkpt lat="44.638399788979775" lon="10.395388905009266"><ele>177.33333333333334</ele><time>2026-05-02T11:37:19.999Z</time></trkpt><trkpt lat="44.63849467796041" lon="10.3955876135327"><ele>179.66666666666666</ele><time>2026-05-02T11:37:20.999Z</time></trkpt><trkpt lat="44.6385849776382" lon="10.395784957407605"><ele>182.0</ele><time>2026-05-02T11:37:21.999Z</time></trkpt><trkpt lat="44.63866908944524" lon="10.395993781127894"><ele>182.0</ele><time>2026-05-02T11:37:22.999Z</time></trkpt><trkpt lat="44.63874377218636" lon="10.396215569833855"><ele>182.0</ele><time>2026-05-02T11:37:23.999Z</time></trkpt><trkpt lat="44.63880536855776" lon="10.396459551230437"><ele>182.0</ele><time>2026-05-02T11:37:24.999Z</time></trkpt><trkpt lat="44.63885489125214" lon="10.396712051776499"><ele>182.66666666666666</ele><time>2026-05-02T11:37:25.999Z</time></trkpt><trkpt lat="44.638885734603" lon="10.396952875720244"><ele>183.33333333333334</ele><time>2026-05-02T11:37:26.999Z</time></trkpt><trkpt lat="44.63889141574878" lon="10.397163858913585"><ele>184.0</ele><time>2026-05-02T11:37:27.999Z</time></trkpt><trkpt lat="44.638891815777384" lon="10.397362784940313"><ele>184.0</ele><time>2026-05-02T11:37:28.999Z</time></trkpt><trkpt lat="44.6388857559718" lon="10.397539436422175"><ele>184.0</ele><time>2026-05-02T11:37:29.999Z</time></trkpt><trkpt lat="44.63889090182257" lon="10.397717455899565"><ele>184.0</ele><time>2026-05-02T11:37:30.999Z</time></trkpt><trkpt lat="44.638890805404834" lon="10.397898742498153"><ele>184.0</ele><time>2026-05-02T11:37:31.999Z</time></trkpt><trkpt lat="44.638881158307676" lon="10.398076546465086"><ele>183.0</ele><time>2026-05-02T11:37:32.999Z</time></trkpt><trkpt lat="44.63888181314456" lon="10.398243431067822"><ele>182.0</ele><time>2026-05-02T11:37:33.999Z</time></trkpt><trkpt lat="44.63887730632915" lon="10.39842230185178"><ele>181.0</ele><time>2026-05-02T11:37:34.999Z</time></trkpt><trkpt lat="44.63887604801897" lon="10.398615835538685"><ele>180.0</ele><time>2026-05-02T11:37:35.999Z</time></trkpt><trkpt lat="44.63887020025629" lon="10.398823451959304"><ele>180.25</ele><time>2026-05-02T11:37:36.999Z</time></trkpt><trkpt lat="44.63886667365843" lon="10.399027711628294"><ele>180.5</ele><time>2026-05-02T11:37:37.999Z</time></trkpt><trkpt lat="44.6388661848629" lon="10.399214922663807"><ele>180.75</ele><time>2026-05-02T11:37:38.999Z</time></trkpt><trkpt lat="44.63885866510554" lon="10.399404010813154"><ele>181.0</ele><time>2026-05-02T11:37:39.999Z</time></trkpt><trkpt lat="44.63886170222254" lon="10.39959704562485"><ele>181.25</ele><time>2026-05-02T11:37:40.999Z</time></trkpt><trkpt lat="44.63884525155944" lon="10.399796558698013"><ele>181.5</ele><time>2026-05-02T11:37:41.999Z</time></trkpt><trkpt lat="44.63885582124336" lon="10.400008430643961"><ele>181.75</ele><time>2026-05-02T11:37:42.999Z</time></trkpt><trkpt lat="44.63885100000926" lon="10.400223298902617"><ele>182.0</ele><time>2026-05-02T11:37:43.999Z</time></trkpt><trkpt lat="44.6388462618612" lon="10.400443362522488"><ele>181.66666666666666</ele><time>2026-05-02T11:37:44.999Z</time></trkpt><trkpt lat="44.63883898716293" lon="10.400658711727337"><ele>181.33333333333334</ele><time>2026-05-02T11:37:45.999Z</time></trkpt><trkpt lat="44.638837611985124" lon="10.400875738052404"><ele>181.0</ele><time>2026-05-02T11:37:46.999Z</time></trkpt><trkpt lat="44.63883138800693" lon="10.401095142307724"><ele>181.0</ele><time>2026-05-02T11:37:47.999Z</time></trkpt><trkpt lat="44.63883002158873" lon="10.401313109622988"><ele>181.0</ele><time>2026-05-02T11:37:48.999Z</time></trkpt><trkpt lat="44.638825859390536" lon="10.401534068449873"><ele>181.0</ele><time>2026-05-02T11:37:49.999Z</time></trkpt><trkpt lat="44.63881759920483" lon="10.401751206544665"><ele>180.33333333333334</ele><time>2026-05-02T11:37:50.999Z</time></trkpt><trkpt lat="44.638813383341564" lon="10.401970842772723"><ele>179.66666666666666</ele><time>2026-05-02T11:37:51.999Z</time></trkpt><trkpt lat="44.6388145543871" lon="10.40218562201641"><ele>179.0</ele><time>2026-05-02T11:37:52.999Z</time></trkpt><trkpt lat="44.638810122350414" lon="10.402401124076482"><ele>178.66666666666666</ele><time>2026-05-02T11:37:53.999Z</time></trkpt><trkpt lat="44.638808927535024" lon="10.402616829761843"><ele>178.33333333333334</ele><time>2026-05-02T11:37:54.999Z</time></trkpt><trkpt lat="44.63880818029165" lon="10.402829901428717"><ele>178.0</ele><time>2026-05-02T11:37:55.999Z</time></trkpt><trkpt lat="44.63880492190672" lon="10.403039315902628"><ele>178.5</ele><time>2026-05-02T11:37:56.999Z</time></trkpt><trkpt lat="44.63879844666758" lon="10.403234662829352"><ele>179.0</ele><time>2026-05-02T11:37:57.999Z</time></trkpt><trkpt lat="44.638798329890975" lon="10.403417896593185"><ele>179.5</ele><time>2026-05-02T11:37:58.999Z</time></trkpt><trkpt lat="44.638794783190555" lon="10.403607881097441"><ele>180.0</ele><time>2026-05-02T11:37:59.999Z</time></trkpt><trkpt lat="44.63879320479022" lon="10.403805678323293"><ele>180.0</ele><time>2026-05-02T11:38:00.999Z</time></trkpt><trkpt lat="44.63879040048021" lon="10.403999749038855"><ele>180.0</ele><time>2026-05-02T11:38:01.999Z</time></trkpt><trkpt lat="44.63879194891083" lon="10.404201360754149"><ele>180.0</ele><time>2026-05-02T11:38:02.999Z</time></trkpt><trkpt lat="44.63879005763257" lon="10.404402449973547"><ele>180.0</ele><time>2026-05-02T11:38:03.999Z</time></trkpt><trkpt lat="44.638786269793144" lon="10.404612319762565"><ele>180.0</ele><time>2026-05-02T11:38:04.999Z</time></trkpt><trkpt lat="44.638785275650115" lon="10.404824790665137"><ele>180.0</ele><time>2026-05-02T11:38:05.999Z</time></trkpt><trkpt lat="44.63876702761591" lon="10.405026171104582"><ele>180.0</ele><time>2026-05-02T11:38:06.999Z</time></trkpt><trkpt lat="44.63876413281079" lon="10.405232774451298"><ele>180.0</ele><time>2026-05-02T11:38:07.999Z</time></trkpt><trkpt lat="44.63877699846349" lon="10.40546073153802"><ele>179.75</ele><time>2026-05-02T11:38:08.999Z</time></trkpt><trkpt lat="44.63876933446675" lon="10.405679768810888"><ele>179.5</ele><time>2026-05-02T11:38:09.999Z</time></trkpt><trkpt lat="44.638761454435034" lon="10.405886433685255"><ele>179.25</ele><time>2026-05-02T11:38:10.999Z</time></trkpt><trkpt lat="44.63876329381352" lon="10.406082412116403"><ele>179.0</ele><time>2026-05-02T11:38:11.999Z</time></trkpt><trkpt lat="44.63876162491483" lon="10.406267298961422"><ele>179.0</ele><time>2026-05-02T11:38:12.999Z</time></trkpt><trkpt lat="44.63875174832826" lon="10.406458690430474"><ele>179.0</ele><time>2026-05-02T11:38:13.999Z</time></trkpt><trkpt lat="44.63871997679936" lon="10.406623402356022"><ele>179.0</ele><time>2026-05-02T11:38:14.999Z</time></trkpt><trkpt lat="44.63866149769953" lon="10.406791916249642"><ele>179.0</ele><time>2026-05-02T11:38:15.999Z</time></trkpt><trkpt lat="44.63856517413484" lon="10.406923200752406"><ele>179.25</ele><time>2026-05-02T11:38:16.999Z</time></trkpt><trkpt lat="44.638440463873266" lon="10.407017565840913"><ele>179.5</ele><time>2026-05-02T11:38:17.999Z</time></trkpt><trkpt lat="44.638291941106225" lon="10.407061623323221"><ele>179.75</ele><time>2026-05-02T11:38:18.999Z</time></trkpt><trkpt lat="44.63814029979413" lon="10.407054173167035"><ele>180.0</ele><time>2026-05-02T11:38:19.999Z</time></trkpt><trkpt lat="44.63797944259978" lon="10.407000589037255"><ele>180.0</ele><time>2026-05-02T11:38:20.999Z</time></trkpt><trkpt lat="44.637812693586625" lon="10.40694090290181"><ele>180.0</ele><time>2026-05-02T11:38:21.999Z</time></trkpt><trkpt lat="44.63763601167169" lon="10.406878285979435"><ele>180.0</ele><time>2026-05-02T11:38:23Z</time></trkpt><trkpt lat="44.637460645365614" lon="10.40681777897793"><ele>179.33333333333334</ele><time>2026-05-02T11:38:24Z</time></trkpt><trkpt lat="44.63727877357429" lon="10.406756430629537"><ele>178.66666666666669</ele><time>2026-05-02T11:38:25Z</time></trkpt><trkpt lat="44.6370919835407" lon="10.406700770162923"><ele>178.0</ele><time>2026-05-02T11:38:26Z</time></trkpt><trkpt lat="44.63690446119232" lon="10.406639536791287"><ele>176.0</ele><time>2026-05-02T11:38:27Z</time></trkpt><trkpt lat="44.63671729599635" lon="10.406594311363254"><ele>174.0</ele><time>2026-05-02T11:38:28Z</time></trkpt><trkpt lat="44.63651594499789" lon="10.406593259503477"><ele>172.0</ele><time>2026-05-02T11:38:29Z</time></trkpt><trkpt lat="44.636306713317616" lon="10.406636443442125"><ele>173.0</ele><time>2026-05-02T11:38:30Z</time></trkpt><trkpt lat="44.63608837418198" lon="10.40669661032962"><ele>174.0</ele><time>2026-05-02T11:38:31Z</time></trkpt><trkpt lat="44.635874084604836" lon="10.406743139728212"><ele>175.0</ele><time>2026-05-02T11:38:32Z</time></trkpt><trkpt lat="44.63565120902618" lon="10.40678221649157"><ele>175.0</ele><time>2026-05-02T11:38:33Z</time></trkpt><trkpt lat="44.635428044863794" lon="10.406806966719559"><ele>175.0</ele><time>2026-05-02T11:38:34Z</time></trkpt><trkpt lat="44.635199724307135" lon="10.406858586563247"><ele>174.5</ele><time>2026-05-02T11:38:35Z</time></trkpt><trkpt lat="44.634970381280645" lon="10.406910367341142"><ele>174.0</ele><time>2026-05-02T11:38:36Z</time></trkpt><trkpt lat="44.634741227400866" lon="10.406959090965515"><ele>174.0</ele><time>2026-05-02T11:38:37Z</time></trkpt><trkpt lat="44.63451336852735" lon="10.407004294803022"><ele>174.0</ele><time>2026-05-02T11:38:38Z</time></trkpt><trkpt lat="44.634294151141034" lon="10.407045431554858"><ele>172.66666666666666</ele><time>2026-05-02T11:38:39Z</time></trkpt><trkpt lat="44.63407759342147" lon="10.407082840623094"><ele>171.33333333333331</ele><time>2026-05-02T11:38:40Z</time></trkpt><trkpt lat="44.633880263457016" lon="10.407120788961455"><ele>170.0</ele><time>2026-05-02T11:38:41Z</time></trkpt><trkpt lat="44.633697641152004" lon="10.407158653861703"><ele>166.0</ele><time>2026-05-02T11:38:42Z</time></trkpt><trkpt lat="44.633517063268584" lon="10.40719283157741"><ele>162.0</ele><time>2026-05-02T11:38:43Z</time></trkpt><trkpt lat="44.63333863691834" lon="10.407229897854195"><ele>158.0</ele><time>2026-05-02T11:38:44Z</time></trkpt><trkpt lat="44.63316631619181" lon="10.407261562998615"><ele>158.0</ele><time>2026-05-02T11:38:45Z</time></trkpt><trkpt lat="44.63299812152105" lon="10.40729201605583"><ele>158.0</ele><time>2026-05-02T11:38:46Z</time></trkpt><trkpt lat="44.63283466067332" lon="10.407322404012241"><ele>158.0</ele><time>2026-05-02T11:38:47Z</time></trkpt><trkpt lat="44.63267487908278" lon="10.40735597906497"><ele>157.66666666666666</ele><time>2026-05-02T11:38:48Z</time></trkpt><trkpt lat="44.6325147719206" lon="10.407388239491768"><ele>157.33333333333334</ele><time>2026-05-02T11:38:49Z</time></trkpt><trkpt lat="44.632346606121764" lon="10.40742602946723"><ele>157.0</ele><time>2026-05-02T11:38:50Z</time></trkpt><trkpt lat="44.63218202180181" lon="10.407473693898368"><ele>157.0</ele><time>2026-05-02T11:38:51Z</time></trkpt><trkpt lat="44.63202955732799" lon="10.407527360630006"><ele>157.0</ele><time>2026-05-02T11:38:52Z</time></trkpt><trkpt lat="44.63187296241708" lon="10.407596571857326"><ele>157.0</ele><time>2026-05-02T11:38:53Z</time></trkpt><trkpt lat="44.63172158416807" lon="10.40768262417798"><ele>156.33333333333334</ele><time>2026-05-02T11:38:54Z</time></trkpt><trkpt lat="44.63158485596922" lon="10.407780897654648"><ele>155.66666666666666</ele><time>2026-05-02T11:38:55Z</time></trkpt><trkpt lat="44.63145629758072" lon="10.407894062631206"><ele>155.0</ele><time>2026-05-02T11:38:56Z</time></trkpt><trkpt lat="44.631330650235235" lon="10.408021932888735"><ele>154.66666666666666</ele><time>2026-05-02T11:38:57Z</time></trkpt><trkpt lat="44.63121011293487" lon="10.408159801277435"><ele>154.33333333333334</ele><time>2026-05-02T11:38:58Z</time></trkpt><trkpt lat="44.6310971731365" lon="10.4082997465217"><ele>154.0</ele><time>2026-05-02T11:38:59Z</time></trkpt><trkpt lat="44.630991240515655" lon="10.4084488504504"><ele>154.0</ele><time>2026-05-02T11:39:00Z</time></trkpt><trkpt lat="44.630892622612436" lon="10.408610554024191"><ele>154.0</ele><time>2026-05-02T11:39:01Z</time></trkpt><trkpt lat="44.63079751533327" lon="10.40878363465472"><ele>154.0</ele><time>2026-05-02T11:39:02Z</time></trkpt><trkpt lat="44.63070808902556" lon="10.408967547441975"><ele>153.33333333333334</ele><time>2026-05-02T11:39:03Z</time></trkpt><trkpt lat="44.63062486442475" lon="10.409161537088243"><ele>152.66666666666666</ele><time>2026-05-02T11:39:04Z</time></trkpt><trkpt lat="44.630552262730106" lon="10.40940089475629"><ele>152.0</ele><time>2026-05-02T11:39:05Z</time></trkpt><trkpt lat="44.630450402897566" lon="10.409665280975"><ele>152.0</ele><time>2026-05-02T11:39:06Z</time></trkpt><trkpt lat="44.63035678753115" lon="10.40995557260637"><ele>152.0</ele><time>2026-05-02T11:39:07Z</time></trkpt><trkpt lat="44.630272172881085" lon="10.4102567503891"><ele>153.5</ele><time>2026-05-02T11:39:08Z</time></trkpt><trkpt lat="44.63017209799912" lon="10.410551478453364"><ele>155.0</ele><time>2026-05-02T11:39:09Z</time></trkpt><trkpt lat="44.630077318565505" lon="10.410846610740496"><ele>155.0</ele><time>2026-05-02T11:39:10Z</time></trkpt><trkpt lat="44.629988241591626" lon="10.411138343082428"><ele>155.0</ele><time>2026-05-02T11:39:11Z</time></trkpt><trkpt lat="44.62989899284866" lon="10.411422721838086"><ele>155.0</ele><time>2026-05-02T11:39:12Z</time></trkpt><trkpt lat="44.62981543138768" lon="10.411690775855172"><ele>155.0</ele><time>2026-05-02T11:39:13Z</time></trkpt><trkpt lat="44.629733907715874" lon="10.41196745740099"><ele>155.0</ele><time>2026-05-02T11:39:14Z</time></trkpt><trkpt lat="44.62965046916535" lon="10.412232635434734"><ele>155.0</ele><time>2026-05-02T11:39:15Z</time></trkpt><trkpt lat="44.62956951036448" lon="10.412488801041544"><ele>154.33333333333331</ele><time>2026-05-02T11:39:16Z</time></trkpt><trkpt lat="44.62948845667652" lon="10.412741247345403"><ele>153.66666666666666</ele><time>2026-05-02T11:39:17Z</time></trkpt><trkpt lat="44.6294091590837" lon="10.412992147210785"><ele>153.0</ele><time>2026-05-02T11:39:18Z</time></trkpt><trkpt lat="44.62934083354174" lon="10.413223340858288"><ele>152.0</ele><time>2026-05-02T11:39:18.999Z</time></trkpt><trkpt lat="44.629277585468294" lon="10.413438563528263"><ele>151.0</ele><time>2026-05-02T11:39:19.999Z</time></trkpt><trkpt lat="44.62918391401223" lon="10.413728336755142"><ele>150.0</ele><time>2026-05-02T11:39:20.999Z</time></trkpt><trkpt lat="44.62910970404012" lon="10.413969638188261"><ele>149.33333333333334</ele><time>2026-05-02T11:39:21.999Z</time></trkpt><trkpt lat="44.62903718780248" lon="10.414204396417102"><ele>148.66666666666669</ele><time>2026-05-02T11:39:22.999Z</time></trkpt><trkpt lat="44.62896368043188" lon="10.41443037814004"><ele>148.0</ele><time>2026-05-02T11:39:23.999Z</time></trkpt><trkpt lat="44.62889227807093" lon="10.414640658858682"><ele>147.66666666666669</ele><time>2026-05-02T11:39:24.999Z</time></trkpt><trkpt lat="44.628826089488676" lon="10.41484287418393"><ele>147.33333333333334</ele><time>2026-05-02T11:39:25.999Z</time></trkpt><trkpt lat="44.62876178147932" lon="10.415062242429011"><ele>147.0</ele><time>2026-05-02T11:39:26.999Z</time></trkpt><trkpt lat="44.62869248906938" lon="10.41528605348608"><ele>149.33333333333334</ele><time>2026-05-02T11:39:27.999Z</time></trkpt><trkpt lat="44.628616517257576" lon="10.41551166946747"><ele>151.66666666666669</ele><time>2026-05-02T11:39:28.999Z</time></trkpt><trkpt lat="44.62854089105443" lon="10.415744418488615"><ele>154.0</ele><time>2026-05-02T11:39:29.999Z</time></trkpt><trkpt lat="44.62846768015919" lon="10.415987412385723"><ele>154.0</ele><time>2026-05-02T11:39:30.999Z</time></trkpt><trkpt lat="44.628393277815064" lon="10.416229173912754"><ele>154.0</ele><time>2026-05-02T11:39:31.999Z</time></trkpt><trkpt lat="44.62832020628575" lon="10.416471390202595"><ele>154.0</ele><time>2026-05-02T11:39:32.999Z</time></trkpt><trkpt lat="44.628242141147766" lon="10.416713380605742"><ele>154.66666666666669</ele><time>2026-05-02T11:39:33.999Z</time></trkpt><trkpt lat="44.62816088089718" lon="10.416961482135369"><ele>155.33333333333334</ele><time>2026-05-02T11:39:34.999Z</time></trkpt><trkpt lat="44.62807577529292" lon="10.417214802942196"><ele>156.0</ele><time>2026-05-02T11:39:35.999Z</time></trkpt><trkpt lat="44.62800063096241" lon="10.417463584593898"><ele>156.0</ele><time>2026-05-02T11:39:36.999Z</time></trkpt><trkpt lat="44.62792369784151" lon="10.417699236930282"><ele>156.0</ele><time>2026-05-02T11:39:37.999Z</time></trkpt><trkpt lat="44.62785563563988" lon="10.417921809910363"><ele>156.0</ele><time>2026-05-02T11:39:38.999Z</time></trkpt><trkpt lat="44.62779268481341" lon="10.418133421791335"><ele>156.25</ele><time>2026-05-02T11:39:39.999Z</time></trkpt><trkpt lat="44.62773489392796" lon="10.418337256142754"><ele>156.5</ele><time>2026-05-02T11:39:40.999Z</time></trkpt><trkpt lat="44.627674572054815" lon="10.418525014895375"><ele>156.75</ele><time>2026-05-02T11:39:41.999Z</time></trkpt><trkpt lat="44.62762608241256" lon="10.418684353733475"><ele>157.0</ele><time>2026-05-02T11:39:42.999Z</time></trkpt><trkpt lat="44.6275830475247" lon="10.418852129297429"><ele>157.25</ele><time>2026-05-02T11:39:43.999Z</time></trkpt><trkpt lat="44.62753590499846" lon="10.419018717244503"><ele>157.5</ele><time>2026-05-02T11:39:44.999Z</time></trkpt><trkpt lat="44.6275027726712" lon="10.419204494771332"><ele>157.75</ele><time>2026-05-02T11:39:45.999Z</time></trkpt><trkpt lat="44.62751037465117" lon="10.419411620994438"><ele>158.0</ele><time>2026-05-02T11:39:46.999Z</time></trkpt><trkpt lat="44.62750541239287" lon="10.419614429514581"><ele>157.75</ele><time>2026-05-02T11:39:47.999Z</time></trkpt><trkpt lat="44.627526561833974" lon="10.41980907104116"><ele>157.5</ele><time>2026-05-02T11:39:48.999Z</time></trkpt><trkpt lat="44.62756501573627" lon="10.419988006074092"><ele>157.25</ele><time>2026-05-02T11:39:49.999Z</time></trkpt><trkpt lat="44.62759541906204" lon="10.420135994737588"><ele>157.0</ele><time>2026-05-02T11:39:50.999Z</time></trkpt><trkpt lat="44.627607467730265" lon="10.42025420571902"><ele>157.0</ele><time>2026-05-02T11:39:51.999Z</time></trkpt><trkpt lat="44.62760510388728" lon="10.420350172495738"><ele>157.0</ele><time>2026-05-02T11:39:52.999Z</time></trkpt><trkpt lat="44.62758485777054" lon="10.420435106336228"><ele>157.0</ele><time>2026-05-02T11:39:53.999Z</time></trkpt><trkpt lat="44.62753646682846" lon="10.420505256108598"><ele>157.0</ele><time>2026-05-02T11:39:54.999Z</time></trkpt><trkpt lat="44.62747100600184" lon="10.420571667585557"><ele>157.0</ele><time>2026-05-02T11:39:55.999Z</time></trkpt><trkpt lat="44.62739544075882" lon="10.42060053236604"><ele>157.0</ele><time>2026-05-02T11:39:56.999Z</time></trkpt><trkpt lat="44.62730069130788" lon="10.420607464253466"><ele>157.25</ele><time>2026-05-02T11:39:57.999Z</time></trkpt><trkpt lat="44.627181336405656" lon="10.420588970909492"><ele>157.5</ele><time>2026-05-02T11:39:58.999Z</time></trkpt><trkpt lat="44.62704870607626" lon="10.420544891216862"><ele>157.75</ele><time>2026-05-02T11:39:59.999Z</time></trkpt><trkpt lat="44.6268989167323" lon="10.420476648396026"><ele>158.0</ele><time>2026-05-02T11:40:00.999Z</time></trkpt><trkpt lat="44.62675842674153" lon="10.420401167656783"><ele>158.66666666666666</ele><time>2026-05-02T11:40:01.999Z</time></trkpt><trkpt lat="44.62656057494838" lon="10.420320226922351"><ele>159.33333333333334</ele><time>2026-05-02T11:40:02.999Z</time></trkpt><trkpt lat="44.62638122093963" lon="10.42024718020369"><ele>160.0</ele><time>2026-05-02T11:40:03.999Z</time></trkpt><trkpt lat="44.626191124539076" lon="10.420168503461793"><ele>159.66666666666669</ele><time>2026-05-02T11:40:04.999Z</time></trkpt><trkpt lat="44.626003816779736" lon="10.420087334354447"><ele>159.33333333333334</ele><time>2026-05-02T11:40:05.999Z</time></trkpt><trkpt lat="44.62582015344405" lon="10.420011124097948"><ele>159.0</ele><time>2026-05-02T11:40:06.999Z</time></trkpt><trkpt lat="44.625644400717064" lon="10.419943030545403"><ele>159.0</ele><time>2026-05-02T11:40:07.999Z</time></trkpt><trkpt lat="44.62547969367619" lon="10.419868824108507"><ele>159.0</ele><time>2026-05-02T11:40:08.999Z</time></trkpt><trkpt lat="44.62533349174619" lon="10.419780299660726"><ele>159.0</ele><time>2026-05-02T11:40:09.999Z</time></trkpt><trkpt lat="44.625207158951895" lon="10.41966334067222"><ele>158.25</ele><time>2026-05-02T11:40:10.999Z</time></trkpt><trkpt lat="44.62510684800889" lon="10.419533337684777"><ele>157.5</ele><time>2026-05-02T11:40:11.999Z</time></trkpt><trkpt lat="44.62500916294577" lon="10.41939286352699"><ele>156.75</ele><time>2026-05-02T11:40:12.999Z</time></trkpt><trkpt lat="44.62491071371493" lon="10.419247561795563"><ele>156.0</ele><time>2026-05-02T11:40:13.999Z</time></trkpt><trkpt lat="44.62482039994793" lon="10.419106565844924"><ele>156.0</ele><time>2026-05-02T11:40:14.999Z</time></trkpt><trkpt lat="44.62474460225821" lon="10.418981038059401"><ele>156.0</ele><time>2026-05-02T11:40:15.999Z</time></trkpt><trkpt lat="44.62469510048995" lon="10.418867452931499"><ele>156.0</ele><time>2026-05-02T11:40:16.999Z</time></trkpt><trkpt lat="44.624664932458984" lon="10.418745411755873"><ele>156.0</ele><time>2026-05-02T11:40:17.999Z</time></trkpt><trkpt lat="44.62462924552083" lon="10.418634201199549"><ele>156.0</ele><time>2026-05-02T11:40:18.999Z</time></trkpt><trkpt lat="44.62456654144055" lon="10.418543701595727"><ele>156.75</ele><time>2026-05-02T11:40:19.999Z</time></trkpt><trkpt lat="44.62447314556729" lon="10.418474092192547"><ele>157.5</ele><time>2026-05-02T11:40:20.999Z</time></trkpt><trkpt lat="44.62437039180453" lon="10.41841689681985"><ele>158.25</ele><time>2026-05-02T11:40:21.999Z</time></trkpt><trkpt lat="44.62427950690356" lon="10.418338009825396"><ele>159.0</ele><time>2026-05-02T11:40:22.999Z</time></trkpt><trkpt lat="44.624181805658196" lon="10.418217616356609"><ele>159.0</ele><time>2026-05-02T11:40:23.999Z</time></trkpt><trkpt lat="44.62407342741928" lon="10.418063793150019"><ele>159.0</ele><time>2026-05-02T11:40:24.999Z</time></trkpt><trkpt lat="44.623960006915475" lon="10.417903320045047"><ele>159.0</ele><time>2026-05-02T11:40:25.999Z</time></trkpt><trkpt lat="44.62385022787643" lon="10.417732560143431"><ele>158.0</ele><time>2026-05-02T11:40:26.999Z</time></trkpt><trkpt lat="44.623735518259366" lon="10.417529079218072"><ele>157.0</ele><time>2026-05-02T11:40:27.999Z</time></trkpt><trkpt lat="44.62362490980407" lon="10.417318093605893"><ele>156.0</ele><time>2026-05-02T11:40:29Z</time></trkpt><trkpt lat="44.623501902266554" lon="10.417101034161231"><ele>158.33333333333334</ele><time>2026-05-02T11:40:30Z</time></trkpt><trkpt lat="44.62337946798391" lon="10.41687362832955"><ele>160.66666666666669</ele><time>2026-05-02T11:40:31Z</time></trkpt><trkpt lat="44.62326109571492" lon="10.416644795439048"><ele>163.0</ele><time>2026-05-02T11:40:32Z</time></trkpt><trkpt lat="44.6231415515175" lon="10.416419139230744"><ele>162.33333333333334</ele><time>2026-05-02T11:40:33Z</time></trkpt><trkpt lat="44.62301961807487" lon="10.416194777847409"><ele>161.66666666666666</ele><time>2026-05-02T11:40:34Z</time></trkpt><trkpt lat="44.62289975543693" lon="10.415969973258694"><ele>161.0</ele><time>2026-05-02T11:40:35Z</time></trkpt><trkpt lat="44.622786031532904" lon="10.415753131351087"><ele>162.33333333333331</ele><time>2026-05-02T11:40:36Z</time></trkpt><trkpt lat="44.62266202649568" lon="10.415526467475889"><ele>163.66666666666666</ele><time>2026-05-02T11:40:37Z</time></trkpt><trkpt lat="44.622548856236655" lon="10.415313477560044"><ele>165.0</ele><time>2026-05-02T11:40:38Z</time></trkpt><trkpt lat="44.6224427370554" lon="10.415103909015835"><ele>165.0</ele><time>2026-05-02T11:40:39Z</time></trkpt><trkpt lat="44.62233778383354" lon="10.414917010283864"><ele>165.0</ele><time>2026-05-02T11:40:40Z</time></trkpt><trkpt lat="44.62223363959753" lon="10.41474071657984"><ele>165.0</ele><time>2026-05-02T11:40:41Z</time></trkpt><trkpt lat="44.62212791045058" lon="10.414577566817876"><ele>164.0</ele><time>2026-05-02T11:40:42Z</time></trkpt><trkpt lat="44.6220192818435" lon="10.414427319445704"><ele>163.0</ele><time>2026-05-02T11:40:43Z</time></trkpt><trkpt lat="44.62191901733422" lon="10.414283309509813"><ele>162.0</ele><time>2026-05-02T11:40:44Z</time></trkpt><trkpt lat="44.62182358597844" lon="10.414152922803181"><ele>161.0</ele><time>2026-05-02T11:40:45Z</time></trkpt><trkpt lat="44.62172217753315" lon="10.414020869418593"><ele>164.33333333333331</ele><time>2026-05-02T11:40:46Z</time></trkpt><trkpt lat="44.621614012114875" lon="10.413889984059622"><ele>167.66666666666666</ele><time>2026-05-02T11:40:47Z</time></trkpt><trkpt lat="44.62149889314407" lon="10.413729936076383"><ele>171.0</ele><time>2026-05-02T11:40:48Z</time></trkpt><trkpt lat="44.62135294449371" lon="10.413566935262383"><ele>171.0</ele><time>2026-05-02T11:40:49Z</time></trkpt><trkpt lat="44.62118384552416" lon="10.413392208452251"><ele>171.0</ele><time>2026-05-02T11:40:50Z</time></trkpt><trkpt lat="44.621005219400445" lon="10.4132312998551"><ele>171.0</ele><time>2026-05-02T11:40:51Z</time></trkpt><trkpt lat="44.62083158652649" lon="10.413071249359252"><ele>172.66666666666666</ele><time>2026-05-02T11:40:52Z</time></trkpt><trkpt lat="44.620643995301585" lon="10.412924226691967"><ele>174.33333333333331</ele><time>2026-05-02T11:40:53Z</time></trkpt><trkpt lat="44.62045096480138" lon="10.41277919890639"><ele>176.0</ele><time>2026-05-02T11:40:54Z</time></trkpt><trkpt lat="44.620246772298195" lon="10.412646600999762"><ele>177.0</ele><time>2026-05-02T11:40:55Z</time></trkpt><trkpt lat="44.62003844877988" lon="10.412520934796254"><ele>178.0</ele><time>2026-05-02T11:40:56Z</time></trkpt><trkpt lat="44.61982814801465" lon="10.41240019465148"><ele>178.0</ele><time>2026-05-02T11:40:57Z</time></trkpt><trkpt lat="44.61962247674133" lon="10.412280166683393"><ele>178.0</ele><time>2026-05-02T11:40:58Z</time></trkpt><trkpt lat="44.61940901746077" lon="10.412149042151695"><ele>174.66666666666669</ele><time>2026-05-02T11:40:59Z</time></trkpt><trkpt lat="44.61920305729104" lon="10.41203070560691"><ele>171.33333333333334</ele><time>2026-05-02T11:41:00Z</time></trkpt><trkpt lat="44.61899594684085" lon="10.411911746011754"><ele>168.0</ele><time>2026-05-02T11:41:01Z</time></trkpt><trkpt lat="44.618789240286276" lon="10.411790270634135"><ele>167.33333333333334</ele><time>2026-05-02T11:41:02Z</time></trkpt><trkpt lat="44.618586278189575" lon="10.411670549446347"><ele>166.66666666666669</ele><time>2026-05-02T11:41:03Z</time></trkpt><trkpt lat="44.618377049751956" lon="10.411551854800779"><ele>166.0</ele><time>2026-05-02T11:41:04Z</time></trkpt><trkpt lat="44.61817273068855" lon="10.411428614773463"><ele>166.0</ele><time>2026-05-02T11:41:05Z</time></trkpt><trkpt lat="44.617966452411224" lon="10.411306041450676"><ele>166.0</ele><time>2026-05-02T11:41:06Z</time></trkpt><trkpt lat="44.61775828947165" lon="10.411183720836403"><ele>166.0</ele><time>2026-05-02T11:41:07Z</time></trkpt><trkpt lat="44.61755535272496" lon="10.411069291455846"><ele>166.0</ele><time>2026-05-02T11:41:08Z</time></trkpt><trkpt lat="44.6173616295095" lon="10.410983605268274"><ele>166.0</ele><time>2026-05-02T11:41:09Z</time></trkpt><trkpt lat="44.617161954240686" lon="10.410939217976699"><ele>166.33333333333334</ele><time>2026-05-02T11:41:10Z</time></trkpt><trkpt lat="44.61696091884352" lon="10.41093740291865"><ele>166.66666666666666</ele><time>2026-05-02T11:41:11Z</time></trkpt><trkpt lat="44.61676039260669" lon="10.410988005555353"><ele>167.0</ele><time>2026-05-02T11:41:12Z</time></trkpt><trkpt lat="44.616559583124676" lon="10.41108148936605"><ele>167.0</ele><time>2026-05-02T11:41:13Z</time></trkpt><trkpt lat="44.61636977180622" lon="10.411222144202103"><ele>167.0</ele><time>2026-05-02T11:41:14Z</time></trkpt><trkpt lat="44.61619956971655" lon="10.411400331029716"><ele>167.0</ele><time>2026-05-02T11:41:15Z</time></trkpt><trkpt lat="44.61605896752622" lon="10.41161962496216"><ele>167.33333333333331</ele><time>2026-05-02T11:41:16Z</time></trkpt><trkpt lat="44.61593905586127" lon="10.411865681544356"><ele>167.66666666666666</ele><time>2026-05-02T11:41:17Z</time></trkpt><trkpt lat="44.61585068854217" lon="10.412139761874688"><ele>168.0</ele><time>2026-05-02T11:41:18Z</time></trkpt><trkpt lat="44.615787101627525" lon="10.412427276009344"><ele>169.0</ele><time>2026-05-02T11:41:19Z</time></trkpt><trkpt lat="44.615719661338936" lon="10.412711017182367"><ele>170.0</ele><time>2026-05-02T11:41:20Z</time></trkpt><trkpt lat="44.61564479133987" lon="10.412976472635828"><ele>171.0</ele><time>2026-05-02T11:41:21Z</time></trkpt><trkpt lat="44.61557272592009" lon="10.41323138610156"><ele>173.0</ele><time>2026-05-02T11:41:21.999Z</time></trkpt><trkpt lat="44.615501487032176" lon="10.413480926558888"><ele>175.0</ele><time>2026-05-02T11:41:22.999Z</time></trkpt><trkpt lat="44.615431759056264" lon="10.413716410425076"><ele>177.0</ele><time>2026-05-02T11:41:23.999Z</time></trkpt><trkpt lat="44.6153639153877" lon="10.413955467785431"><ele>179.0</ele><time>2026-05-02T11:41:24.999Z</time></trkpt><trkpt lat="44.61530217932067" lon="10.41416666192876"><ele>181.0</ele><time>2026-05-02T11:41:25.999Z</time></trkpt><trkpt lat="44.615236193247725" lon="10.414342613713682"><ele>183.0</ele><time>2026-05-02T11:41:26.999Z</time></trkpt><trkpt lat="44.61515922768035" lon="10.41449562052342"><ele>185.0</ele><time>2026-05-02T11:41:27.999Z</time></trkpt><trkpt lat="44.61507605856863" lon="10.414602672516965"><ele>185.4</ele><time>2026-05-02T11:41:28.999Z</time></trkpt><trkpt lat="44.61498979268274" lon="10.41467781002861"><ele>185.8</ele><time>2026-05-02T11:41:29.999Z</time></trkpt><trkpt lat="44.61492144024745" lon="10.414711739027494"><ele>186.2</ele><time>2026-05-02T11:41:30.999Z</time></trkpt><trkpt lat="44.61484696033543" lon="10.414737372916948"><ele>186.6</ele><time>2026-05-02T11:41:32.999Z</time></trkpt><trkpt lat="44.61476615763992" lon="10.414769793804217"><ele>187.0</ele><time>2026-05-02T11:41:34.999Z</time></trkpt><trkpt lat="44.61465911007304" lon="10.41487295301563"><ele>187.0</ele><time>2026-05-02T11:41:36.999Z</time></trkpt><trkpt lat="44.614617922524445" lon="10.41497419325677"><ele>187.0</ele><time>2026-05-02T11:41:37.999Z</time></trkpt><trkpt lat="44.61459035805502" lon="10.415071780913596"><ele>187.0</ele><time>2026-05-02T11:41:38.999Z</time></trkpt><trkpt lat="44.61454190991271" lon="10.41514455436818"><ele>187.0</ele><time>2026-05-02T11:41:39.999Z</time></trkpt><trkpt lat="44.614464677425616" lon="10.415186908305502"><ele>187.0</ele><time>2026-05-02T11:41:40.999Z</time></trkpt><trkpt lat="44.614381299478" lon="10.415189364241947"><ele>187.0</ele><time>2026-05-02T11:41:41.999Z</time></trkpt><trkpt lat="44.61429126377072" lon="10.415163743859306"><ele>187.2</ele><time>2026-05-02T11:41:42.999Z</time></trkpt><trkpt lat="44.61419872096242" lon="10.415128940412473"><ele>187.39999999999998</ele><time>2026-05-02T11:41:43.999Z</time></trkpt><trkpt lat="44.61410168790718" lon="10.415098185762394"><ele>187.60000000000002</ele><time>2026-05-02T11:41:44.999Z</time></trkpt><trkpt lat="44.61400541946114" lon="10.415069841534525"><ele>187.8</ele><time>2026-05-02T11:41:45.999Z</time></trkpt><trkpt lat="44.613898093794575" lon="10.415039518359652"><ele>188.0</ele><time>2026-05-02T11:41:46.999Z</time></trkpt><trkpt lat="44.61378523952891" lon="10.415006522822347"><ele>188.0</ele><time>2026-05-02T11:41:47.999Z</time></trkpt><trkpt lat="44.61365666714795" lon="10.414981377897123"><ele>188.0</ele><time>2026-05-02T11:41:48.999Z</time></trkpt><trkpt lat="44.61349686227029" lon="10.4149190510092"><ele>188.0</ele><time>2026-05-02T11:41:49.999Z</time></trkpt><trkpt lat="44.61331219449312" lon="10.414864915421541"><ele>188.33333333333331</ele><time>2026-05-02T11:41:50.999Z</time></trkpt><trkpt lat="44.613120902450156" lon="10.41482424291624"><ele>188.66666666666666</ele><time>2026-05-02T11:41:51.999Z</time></trkpt><trkpt lat="44.612921093579125" lon="10.414747792640638"><ele>189.0</ele><time>2026-05-02T11:41:52.999Z</time></trkpt><trkpt lat="44.61273165264981" lon="10.414692081640045"><ele>189.0</ele><time>2026-05-02T11:41:53.999Z</time></trkpt><trkpt lat="44.612548695358676" lon="10.414639674135419"><ele>189.0</ele><time>2026-05-02T11:41:54.999Z</time></trkpt><trkpt lat="44.61237750702421" lon="10.414589060933343"><ele>189.0</ele><time>2026-05-02T11:41:55.999Z</time></trkpt><trkpt lat="44.61221525804888" lon="10.414540972803216"><ele>189.0</ele><time>2026-05-02T11:41:56.999Z</time></trkpt><trkpt lat="44.61205659001918" lon="10.414503268864648"><ele>189.0</ele><time>2026-05-02T11:41:57.999Z</time></trkpt><trkpt lat="44.611899549850285" lon="10.414453322300973"><ele>189.0</ele><time>2026-05-02T11:41:58.999Z</time></trkpt><trkpt lat="44.61174722789387" lon="10.414411012817565"><ele>189.66666666666666</ele><time>2026-05-02T11:41:59.999Z</time></trkpt><trkpt lat="44.611596035778234" lon="10.414371178771713"><ele>190.33333333333331</ele><time>2026-05-02T11:42:00.999Z</time></trkpt><trkpt lat="44.61144317646" lon="10.414338277731193"><ele>191.0</ele><time>2026-05-02T11:42:01.999Z</time></trkpt><trkpt lat="44.61128762976685" lon="10.414316708639326"><ele>191.0</ele><time>2026-05-02T11:42:02.999Z</time></trkpt><trkpt lat="44.61113055041478" lon="10.414302330841013"><ele>191.0</ele><time>2026-05-02T11:42:03.999Z</time></trkpt><trkpt lat="44.61098055567221" lon="10.414299890774588"><ele>191.0</ele><time>2026-05-02T11:42:04.999Z</time></trkpt><trkpt lat="44.61082947045089" lon="10.414305672535685"><ele>191.0</ele><time>2026-05-02T11:42:05.999Z</time></trkpt><trkpt lat="44.61068106074146" lon="10.41431682146228"><ele>191.0</ele><time>2026-05-02T11:42:06.999Z</time></trkpt><trkpt lat="44.61053225943431" lon="10.414337776161826"><ele>191.0</ele><time>2026-05-02T11:42:07.999Z</time></trkpt><trkpt lat="44.61038207351943" lon="10.414363622656944"><ele>191.0</ele><time>2026-05-02T11:42:08.999Z</time></trkpt><trkpt lat="44.610227495007614" lon="10.414392464662942"><ele>190.0</ele><time>2026-05-02T11:42:09.999Z</time></trkpt><trkpt lat="44.610072847613765" lon="10.414422634608925"><ele>189.0</ele><time>2026-05-02T11:42:10.999Z</time></trkpt><trkpt lat="44.60991383148347" lon="10.414445007956873"><ele>188.0</ele><time>2026-05-02T11:42:11.999Z</time></trkpt><trkpt lat="44.609739940346806" lon="10.414467289248936"><ele>188.0</ele><time>2026-05-02T11:42:12.999Z</time></trkpt><trkpt lat="44.60957766774019" lon="10.41445209372714"><ele>188.0</ele><time>2026-05-02T11:42:13.999Z</time></trkpt><trkpt lat="44.60943432301984" lon="10.414411085329998"><ele>188.0</ele><time>2026-05-02T11:42:14.999Z</time></trkpt><trkpt lat="44.60929805825632" lon="10.414365556252235"><ele>188.0</ele><time>2026-05-02T11:42:15.999Z</time></trkpt><trkpt lat="44.60915109725509" lon="10.414312976179893"><ele>187.66666666666666</ele><time>2026-05-02T11:42:16.999Z</time></trkpt><trkpt lat="44.60898444215887" lon="10.414256267017791"><ele>187.33333333333334</ele><time>2026-05-02T11:42:17.999Z</time></trkpt><trkpt lat="44.608799326575834" lon="10.41415971885032"><ele>187.0</ele><time>2026-05-02T11:42:18.999Z</time></trkpt><trkpt lat="44.60859172261115" lon="10.414078832113853"><ele>188.33333333333334</ele><time>2026-05-02T11:42:19.999Z</time></trkpt><trkpt lat="44.608377103306324" lon="10.413995233351606"><ele>189.66666666666666</ele><time>2026-05-02T11:42:20.999Z</time></trkpt><trkpt lat="44.60816647168634" lon="10.413930183199993"><ele>191.0</ele><time>2026-05-02T11:42:21.999Z</time></trkpt><trkpt lat="44.60796840066149" lon="10.413850533442117"><ele>192.33333333333331</ele><time>2026-05-02T11:42:22.999Z</time></trkpt><trkpt lat="44.60778004951781" lon="10.4137815891809"><ele>193.66666666666666</ele><time>2026-05-02T11:42:23.999Z</time></trkpt><trkpt lat="44.60760644471914" lon="10.413715391374254"><ele>195.0</ele><time>2026-05-02T11:42:24.999Z</time></trkpt><trkpt lat="44.60743688128298" lon="10.413658165284653"><ele>195.0</ele><time>2026-05-02T11:42:25.999Z</time></trkpt><trkpt lat="44.60728226616276" lon="10.413611260502073"><ele>195.0</ele><time>2026-05-02T11:42:26.999Z</time></trkpt><trkpt lat="44.60714061175157" lon="10.413573625097738"><ele>195.0</ele><time>2026-05-02T11:42:27.999Z</time></trkpt><trkpt lat="44.60701164048769" lon="10.413533646520758"><ele>195.0</ele><time>2026-05-02T11:42:28.999Z</time></trkpt><trkpt lat="44.60688529811824" lon="10.413482235684784"><ele>195.33333333333334</ele><time>2026-05-02T11:42:29.999Z</time></trkpt><trkpt lat="44.606825825946835" lon="10.413431747568557"><ele>195.66666666666669</ele><time>2026-05-02T11:42:30.999Z</time></trkpt><trkpt lat="44.60675497380166" lon="10.413348679222624"><ele>196.0</ele><time>2026-05-02T11:42:31.999Z</time></trkpt><trkpt lat="44.60668075120483" lon="10.413296860417192"><ele>196.33333333333334</ele><time>2026-05-02T11:42:32.999Z</time></trkpt><trkpt lat="44.606598819657684" lon="10.413297209665187"><ele>196.66666666666669</ele><time>2026-05-02T11:42:33.999Z</time></trkpt><trkpt lat="44.60651025259534" lon="10.41332323663215"><ele>197.0</ele><time>2026-05-02T11:42:35Z</time></trkpt><trkpt lat="44.60641358696942" lon="10.413347341809768"><ele>197.0</ele><time>2026-05-02T11:42:36Z</time></trkpt><trkpt lat="44.60630970301129" lon="10.413333029636199"><ele>197.0</ele><time>2026-05-02T11:42:37Z</time></trkpt><trkpt lat="44.60620082032271" lon="10.413296717490166"><ele>197.0</ele><time>2026-05-02T11:42:38Z</time></trkpt><trkpt lat="44.60607588063863" lon="10.413259426350939"><ele>197.0</ele><time>2026-05-02T11:42:39Z</time></trkpt><trkpt lat="44.60595033836336" lon="10.413223233731449"><ele>197.5</ele><time>2026-05-02T11:42:40Z</time></trkpt><trkpt lat="44.60582668501027" lon="10.413193447099907"><ele>198.0</ele><time>2026-05-02T11:42:41Z</time></trkpt><trkpt lat="44.60569726039242" lon="10.413157696855677"><ele>198.5</ele><time>2026-05-02T11:42:42Z</time></trkpt><trkpt lat="44.60556090775637" lon="10.413118549641721"><ele>199.0</ele><time>2026-05-02T11:42:43Z</time></trkpt><trkpt lat="44.60541922222314" lon="10.413079651572547"><ele>199.0</ele><time>2026-05-02T11:42:44Z</time></trkpt><trkpt lat="44.60527733807785" lon="10.413035729073503"><ele>199.0</ele><time>2026-05-02T11:42:45Z</time></trkpt><trkpt lat="44.60513837372224" lon="10.412991537313362"><ele>199.0</ele><time>2026-05-02T11:42:46Z</time></trkpt><trkpt lat="44.60499897886286" lon="10.412950754971806"><ele>199.0</ele><time>2026-05-02T11:42:47Z</time></trkpt><trkpt lat="44.60486732281862" lon="10.412914955721263"><ele>199.0</ele><time>2026-05-02T11:42:48Z</time></trkpt><trkpt lat="44.60474402021911" lon="10.412884889929597"><ele>199.0</ele><time>2026-05-02T11:42:49Z</time></trkpt><trkpt lat="44.60463456600991" lon="10.41285393460901"><ele>199.0</ele><time>2026-05-02T11:42:50Z</time></trkpt><trkpt lat="44.604525084014334" lon="10.412820344370736"><ele>199.0</ele><time>2026-05-02T11:42:51Z</time></trkpt><trkpt lat="44.6044011171516" lon="10.412794805688742"><ele>199.25</ele><time>2026-05-02T11:42:52Z</time></trkpt><trkpt lat="44.60427686192251" lon="10.412763374637905"><ele>199.5</ele><time>2026-05-02T11:42:53Z</time></trkpt><trkpt lat="44.60414472735873" lon="10.41273100989922"><ele>199.75</ele><time>2026-05-02T11:42:54Z</time></trkpt><trkpt lat="44.60400843974712" lon="10.412701606116256"><ele>200.0</ele><time>2026-05-02T11:42:55Z</time></trkpt><trkpt lat="44.603875669789964" lon="10.4126766283972"><ele>200.0</ele><time>2026-05-02T11:42:56Z</time></trkpt><trkpt lat="44.603735290628194" lon="10.412652687521993"><ele>200.0</ele><time>2026-05-02T11:42:57Z</time></trkpt><trkpt lat="44.603577095105074" lon="10.412629175703195"><ele>200.0</ele><time>2026-05-02T11:42:58Z</time></trkpt><trkpt lat="44.60342245557475" lon="10.412611076272102"><ele>200.25</ele><time>2026-05-02T11:42:59Z</time></trkpt><trkpt lat="44.60326502118338" lon="10.412595177298195"><ele>200.5</ele><time>2026-05-02T11:43:00Z</time></trkpt><trkpt lat="44.60312194267254" lon="10.41257982292349"><ele>200.75</ele><time>2026-05-02T11:43:01Z</time></trkpt><trkpt lat="44.60297525944017" lon="10.412565528323299"><ele>201.0</ele><time>2026-05-02T11:43:02Z</time></trkpt><trkpt lat="44.60282946813976" lon="10.41255261359583"><ele>201.0</ele><time>2026-05-02T11:43:03Z</time></trkpt><trkpt lat="44.60269002754565" lon="10.412543654986296"><ele>201.0</ele><time>2026-05-02T11:43:04Z</time></trkpt><trkpt lat="44.6025559110863" lon="10.412535320013841"><ele>201.0</ele><time>2026-05-02T11:43:05Z</time></trkpt><trkpt lat="44.60242444221865" lon="10.412530620791053"><ele>201.0</ele><time>2026-05-02T11:43:06Z</time></trkpt><trkpt lat="44.60229681396288" lon="10.412531812785833"><ele>201.0</ele><time>2026-05-02T11:43:07Z</time></trkpt><trkpt lat="44.602159008303346" lon="10.412536534366758"><ele>201.0</ele><time>2026-05-02T11:43:08Z</time></trkpt><trkpt lat="44.60201350830771" lon="10.41253709672187"><ele>201.0</ele><time>2026-05-02T11:43:09Z</time></trkpt><trkpt lat="44.60186087560422" lon="10.41254975685816"><ele>201.0</ele><time>2026-05-02T11:43:10Z</time></trkpt><trkpt lat="44.601713747459875" lon="10.412574661617395"><ele>199.33333333333331</ele><time>2026-05-02T11:43:11Z</time></trkpt><trkpt lat="44.60156523873713" lon="10.412619272127868"><ele>197.66666666666666</ele><time>2026-05-02T11:43:12Z</time></trkpt><trkpt lat="44.60141095806441" lon="10.412658645169492"><ele>196.0</ele><time>2026-05-02T11:43:13Z</time></trkpt><trkpt lat="44.60126972006636" lon="10.412700436776483"><ele>196.4</ele><time>2026-05-02T11:43:14Z</time></trkpt><trkpt lat="44.60114296314817" lon="10.412731317568285"><ele>196.8</ele><time>2026-05-02T11:43:15Z</time></trkpt><trkpt lat="44.60102841553527" lon="10.412735765693627"><ele>197.20000000000002</ele><time>2026-05-02T11:43:16Z</time></trkpt><trkpt lat="44.60092847381243" lon="10.412710337946216"><ele>197.60000000000002</ele><time>2026-05-02T11:43:17Z</time></trkpt><trkpt lat="44.60083252507693" lon="10.412653457761987"><ele>198.0</ele><time>2026-05-02T11:43:18Z</time></trkpt><trkpt lat="44.600739026772914" lon="10.412577218424756"><ele>198.0</ele><time>2026-05-02T11:43:19Z</time></trkpt><trkpt lat="44.60065370159249" lon="10.412507596913787"><ele>198.0</ele><time>2026-05-02T11:43:20Z</time></trkpt><trkpt lat="44.600569113202724" lon="10.412447927390161"><ele>198.0</ele><time>2026-05-02T11:43:21Z</time></trkpt><trkpt lat="44.60049094567829" lon="10.412405109158735"><ele>198.0</ele><time>2026-05-02T11:43:22Z</time></trkpt><trkpt lat="44.60042154478507" lon="10.412342305720758"><ele>198.0</ele><time>2026-05-02T11:43:23Z</time></trkpt><trkpt lat="44.600352808317446" lon="10.41231664230551"><ele>198.0</ele><time>2026-05-02T11:43:24Z</time></trkpt><trkpt lat="44.60029677978392" lon="10.412272531009934"><ele>198.5</ele><time>2026-05-02T11:43:25Z</time></trkpt><trkpt lat="44.600235708283606" lon="10.412211222441035"><ele>199.0</ele><time>2026-05-02T11:43:26Z</time></trkpt><trkpt lat="44.600182890362795" lon="10.412150268621048"><ele>199.5</ele><time>2026-05-02T11:43:27Z</time></trkpt><trkpt lat="44.60007393621042" lon="10.412137052534332"><ele>200.0</ele><time>2026-05-02T11:43:29Z</time></trkpt><trkpt lat="44.60000890074597" lon="10.412182035122024"><ele>200.5</ele><time>2026-05-02T11:43:30Z</time></trkpt><trkpt lat="44.599942936282744" lon="10.412227230888996"><ele>201.0</ele><time>2026-05-02T11:43:31Z</time></trkpt><trkpt lat="44.59986659536547" lon="10.412238369658253"><ele>201.0</ele><time>2026-05-02T11:43:32Z</time></trkpt><trkpt lat="44.59978083139695" lon="10.412193407958522"><ele>201.0</ele><time>2026-05-02T11:43:33Z</time></trkpt><trkpt lat="44.5996947701608" lon="10.41211995661951"><ele>201.0</ele><time>2026-05-02T11:43:34Z</time></trkpt><trkpt lat="44.599605970906204" lon="10.412037088481382"><ele>201.0</ele><time>2026-05-02T11:43:35Z</time></trkpt><trkpt lat="44.599511619089306" lon="10.411949887985484"><ele>201.0</ele><time>2026-05-02T11:43:36Z</time></trkpt><trkpt lat="44.59940515707552" lon="10.411858937287189"><ele>202.0</ele><time>2026-05-02T11:43:36.999Z</time></trkpt><trkpt lat="44.59929090425461" lon="10.411757637836047"><ele>203.0</ele><time>2026-05-02T11:43:37.999Z</time></trkpt><trkpt lat="44.599171341090795" lon="10.411658898408637"><ele>204.0</ele><time>2026-05-02T11:43:38.999Z</time></trkpt><trkpt lat="44.59909616479529" lon="10.411590443370542"><ele>205.0</ele><time>2026-05-02T11:43:39.999Z</time></trkpt><trkpt lat="44.59899152991036" lon="10.411502323666305"><ele>205.0</ele><time>2026-05-02T11:43:40.999Z</time></trkpt><trkpt lat="44.59890302392862" lon="10.41142263167727"><ele>205.0</ele><time>2026-05-02T11:43:41.999Z</time></trkpt><trkpt lat="44.59882405489595" lon="10.411349884237081"><ele>205.0</ele><time>2026-05-02T11:43:42.999Z</time></trkpt><trkpt lat="44.5987494445253" lon="10.411283666006584"><ele>205.0</ele><time>2026-05-02T11:43:43.999Z</time></trkpt><trkpt lat="44.59867899884889" lon="10.411222546791318"><ele>205.0</ele><time>2026-05-02T11:43:44.999Z</time></trkpt><trkpt lat="44.59861114387505" lon="10.411161865274075"><ele>205.25</ele><time>2026-05-02T11:43:45.999Z</time></trkpt><trkpt lat="44.598525775691655" lon="10.411092848805719"><ele>205.5</ele><time>2026-05-02T11:43:46.999Z</time></trkpt><trkpt lat="44.59843702407778" lon="10.41098999519097"><ele>205.75</ele><time>2026-05-02T11:43:47.999Z</time></trkpt><trkpt lat="44.59831156504996" lon="10.410896700481832"><ele>206.0</ele><time>2026-05-02T11:43:48.999Z</time></trkpt><trkpt lat="44.598178120459565" lon="10.410805297203305"><ele>206.0</ele><time>2026-05-02T11:43:49.999Z</time></trkpt><trkpt lat="44.598038399608676" lon="10.410712292502629"><ele>206.0</ele><time>2026-05-02T11:43:50.999Z</time></trkpt><trkpt lat="44.597879974710295" lon="10.410622995889806"><ele>206.0</ele><time>2026-05-02T11:43:51.999Z</time></trkpt><trkpt lat="44.597732267345386" lon="10.410516435796442"><ele>206.33333333333334</ele><time>2026-05-02T11:43:52.999Z</time></trkpt><trkpt lat="44.597581525183955" lon="10.410421265864318"><ele>206.66666666666669</ele><time>2026-05-02T11:43:53.999Z</time></trkpt><trkpt lat="44.59742870145111" lon="10.410324243279724"><ele>207.0</ele><time>2026-05-02T11:43:54.999Z</time></trkpt><trkpt lat="44.59726912606255" lon="10.410222468392956"><ele>207.0</ele><time>2026-05-02T11:43:55.999Z</time></trkpt><trkpt lat="44.59711319930746" lon="10.41012345116291"><ele>207.0</ele><time>2026-05-02T11:43:56.999Z</time></trkpt><trkpt lat="44.5969698928499" lon="10.410030831129864"><ele>207.0</ele><time>2026-05-02T11:43:57.999Z</time></trkpt><trkpt lat="44.59683619922616" lon="10.409936294560934"><ele>207.25</ele><time>2026-05-02T11:43:58.999Z</time></trkpt><trkpt lat="44.596714636367714" lon="10.409853094840678"><ele>207.5</ele><time>2026-05-02T11:43:59.999Z</time></trkpt><trkpt lat="44.59660112823348" lon="10.409777596069416"><ele>207.75</ele><time>2026-05-02T11:44:00.999Z</time></trkpt><trkpt lat="44.5964934834504" lon="10.40970779115325"><ele>208.0</ele><time>2026-05-02T11:44:01.999Z</time></trkpt><trkpt lat="44.59640204630961" lon="10.409647012615105"><ele>208.0</ele><time>2026-05-02T11:44:02.999Z</time></trkpt><trkpt lat="44.596293759008965" lon="10.40957968958739"><ele>208.0</ele><time>2026-05-02T11:44:03.999Z</time></trkpt><trkpt lat="44.59618015335824" lon="10.409506803735743"><ele>208.0</ele><time>2026-05-02T11:44:04.999Z</time></trkpt><trkpt lat="44.596054228123535" lon="10.409429583008754"><ele>208.0</ele><time>2026-05-02T11:44:05.999Z</time></trkpt><trkpt lat="44.595919727615964" lon="10.409345304573737"><ele>208.33333333333331</ele><time>2026-05-02T11:44:06.999Z</time></trkpt><trkpt lat="44.59578200480549" lon="10.409251030022697"><ele>208.66666666666669</ele><time>2026-05-02T11:44:07.999Z</time></trkpt><trkpt lat="44.59564042673156" lon="10.409155773410014"><ele>209.0</ele><time>2026-05-02T11:44:08.999Z</time></trkpt><trkpt lat="44.59549637593103" lon="10.409060882060821"><ele>209.0</ele><time>2026-05-02T11:44:09.999Z</time></trkpt><trkpt lat="44.59535197328727" lon="10.408964210213504"><ele>209.0</ele><time>2026-05-02T11:44:10.999Z</time></trkpt><trkpt lat="44.59520359606847" lon="10.408871340774512"><ele>209.0</ele><time>2026-05-02T11:44:11.999Z</time></trkpt><trkpt lat="44.59505709488358" lon="10.408777848671836"><ele>209.66666666666669</ele><time>2026-05-02T11:44:12.999Z</time></trkpt><trkpt lat="44.594909057179095" lon="10.408683566857544"><ele>210.33333333333331</ele><time>2026-05-02T11:44:13.999Z</time></trkpt><trkpt lat="44.59476626750212" lon="10.408592085044798"><ele>211.0</ele><time>2026-05-02T11:44:14.999Z</time></trkpt><trkpt lat="44.59462639893446" lon="10.408507270007165"><ele>212.0</ele><time>2026-05-02T11:44:15.999Z</time></trkpt><trkpt lat="44.59448808293122" lon="10.40843819586591"><ele>213.0</ele><time>2026-05-02T11:44:16.999Z</time></trkpt><trkpt lat="44.59434946656279" lon="10.40839040934082"><ele>214.0</ele><time>2026-05-02T11:44:17.999Z</time></trkpt><trkpt lat="44.59421450007863" lon="10.40835152294799"><ele>215.0</ele><time>2026-05-02T11:44:18.999Z</time></trkpt><trkpt lat="44.594090097051385" lon="10.408320449115806"><ele>215.0</ele><time>2026-05-02T11:44:19.999Z</time></trkpt><trkpt lat="44.59396967211885" lon="10.408281930653024"><ele>215.0</ele><time>2026-05-02T11:44:20.999Z</time></trkpt><trkpt lat="44.593843106667876" lon="10.408247975633124"><ele>215.0</ele><time>2026-05-02T11:44:21.999Z</time></trkpt><trkpt lat="44.59371272226137" lon="10.408214469029142"><ele>215.0</ele><time>2026-05-02T11:44:22.999Z</time></trkpt><trkpt lat="44.5935708498455" lon="10.408186745780911"><ele>215.75</ele><time>2026-05-02T11:44:23.999Z</time></trkpt><trkpt lat="44.59343125555853" lon="10.408152612618078"><ele>216.5</ele><time>2026-05-02T11:44:24.999Z</time></trkpt><trkpt lat="44.59330602214137" lon="10.408126819283515"><ele>217.25</ele><time>2026-05-02T11:44:25.999Z</time></trkpt><trkpt lat="44.5931875066434" lon="10.408108828508178"><ele>218.0</ele><time>2026-05-02T11:44:26.999Z</time></trkpt><trkpt lat="44.59308020901247" lon="10.408092589258024"><ele>218.0</ele><time>2026-05-02T11:44:27.999Z</time></trkpt><trkpt lat="44.59297308390682" lon="10.408088790996823"><ele>218.0</ele><time>2026-05-02T11:44:28.999Z</time></trkpt><trkpt lat="44.59287914438375" lon="10.408057896748907"><ele>218.0</ele><time>2026-05-02T11:44:29.999Z</time></trkpt><trkpt lat="44.59277075228532" lon="10.40803215922587"><ele>218.0</ele><time>2026-05-02T11:44:30.999Z</time></trkpt><trkpt lat="44.592666885544126" lon="10.407950927158804"><ele>218.0</ele><time>2026-05-02T11:44:31.999Z</time></trkpt><trkpt lat="44.59256673486285" lon="10.407843963386242"><ele>217.75</ele><time>2026-05-02T11:44:32.999Z</time></trkpt><trkpt lat="44.5924630131315" lon="10.40772734342196"><ele>217.5</ele><time>2026-05-02T11:44:33.999Z</time></trkpt><trkpt lat="44.592358873601476" lon="10.407607342556322"><ele>217.25</ele><time>2026-05-02T11:44:34.999Z</time></trkpt><trkpt lat="44.5922541294195" lon="10.407515155294327"><ele>217.0</ele><time>2026-05-02T11:44:35.999Z</time></trkpt><trkpt lat="44.592146067753966" lon="10.407436513296636"><ele>217.0</ele><time>2026-05-02T11:44:36.999Z</time></trkpt><trkpt lat="44.59204271491671" lon="10.407362342566985"><ele>217.0</ele><time>2026-05-02T11:44:37.999Z</time></trkpt><trkpt lat="44.59193229687523" lon="10.407277336671438"><ele>217.0</ele><time>2026-05-02T11:44:38.999Z</time></trkpt><trkpt lat="44.59179834516031" lon="10.407232499474745"><ele>217.0</ele><time>2026-05-02T11:44:39.999Z</time></trkpt><trkpt lat="44.591638666867496" lon="10.407205898225175"><ele>216.66666666666666</ele><time>2026-05-02T11:44:41Z</time></trkpt><trkpt lat="44.591462627154364" lon="10.407177200535449"><ele>216.33333333333331</ele><time>2026-05-02T11:44:42Z</time></trkpt><trkpt lat="44.591295678727136" lon="10.407119857243172"><ele>216.0</ele><time>2026-05-02T11:44:43Z</time></trkpt><trkpt lat="44.5911303695996" lon="10.407087656905366"><ele>212.66666666666669</ele><time>2026-05-02T11:44:44Z</time></trkpt><trkpt lat="44.59097935090853" lon="10.407046875228481"><ele>209.33333333333334</ele><time>2026-05-02T11:44:45Z</time></trkpt><trkpt lat="44.59083024703543" lon="10.406985377263045"><ele>206.0</ele><time>2026-05-02T11:44:46Z</time></trkpt><trkpt lat="44.59069613233966" lon="10.406888191029982"><ele>206.0</ele><time>2026-05-02T11:44:47Z</time></trkpt><trkpt lat="44.590553628835835" lon="10.406782924906961"><ele>206.0</ele><time>2026-05-02T11:44:48Z</time></trkpt><trkpt lat="44.59040011201372" lon="10.406668328388834"><ele>206.0</ele><time>2026-05-02T11:44:49Z</time></trkpt><trkpt lat="44.590232093347" lon="10.406569311262015"><ele>207.66666666666669</ele><time>2026-05-02T11:44:50Z</time></trkpt><trkpt lat="44.59007158864818" lon="10.406449668066463"><ele>209.33333333333331</ele><time>2026-05-02T11:44:51Z</time></trkpt><trkpt lat="44.58990637570453" lon="10.406343189630823"><ele>211.0</ele><time>2026-05-02T11:44:52Z</time></trkpt><trkpt lat="44.589733301068875" lon="10.406256847971529"><ele>207.0</ele><time>2026-05-02T11:44:53Z</time></trkpt><trkpt lat="44.589558230068434" lon="10.40619407285304"><ele>203.0</ele><time>2026-05-02T11:44:54Z</time></trkpt><trkpt lat="44.58937801896183" lon="10.406146431124176"><ele>199.0</ele><time>2026-05-02T11:44:55Z</time></trkpt><trkpt lat="44.58919433686573" lon="10.406108783741885"><ele>199.0</ele><time>2026-05-02T11:44:56Z</time></trkpt><trkpt lat="44.589003245492805" lon="10.406081425490749"><ele>199.0</ele><time>2026-05-02T11:44:57Z</time></trkpt><trkpt lat="44.58881009511831" lon="10.406100450589438"><ele>199.0</ele><time>2026-05-02T11:44:58Z</time></trkpt><trkpt lat="44.58862183232172" lon="10.406073533375052"><ele>199.33333333333331</ele><time>2026-05-02T11:44:59Z</time></trkpt><trkpt lat="44.58844440800529" lon="10.40606986215103"><ele>199.66666666666669</ele><time>2026-05-02T11:45:00Z</time></trkpt><trkpt lat="44.58826519365038" lon="10.406063195205169"><ele>200.0</ele><time>2026-05-02T11:45:01Z</time></trkpt><trkpt lat="44.58809285770748" lon="10.406054529974876"><ele>200.0</ele><time>2026-05-02T11:45:02Z</time></trkpt><trkpt lat="44.587923567152004" lon="10.406035197474084"><ele>200.0</ele><time>2026-05-02T11:45:03Z</time></trkpt><trkpt lat="44.587766014365236" lon="10.406000344971511"><ele>200.0</ele><time>2026-05-02T11:45:04Z</time></trkpt><trkpt lat="44.587618864532104" lon="10.405945077861954"><ele>202.0</ele><time>2026-05-02T11:45:05Z</time></trkpt><trkpt lat="44.58747754090858" lon="10.405860901062862"><ele>204.0</ele><time>2026-05-02T11:45:06Z</time></trkpt><trkpt lat="44.58734997066293" lon="10.405733405827075"><ele>206.0</ele><time>2026-05-02T11:45:07Z</time></trkpt><trkpt lat="44.587215554027246" lon="10.405611485433218"><ele>203.66666666666669</ele><time>2026-05-02T11:45:08Z</time></trkpt><trkpt lat="44.58709017357667" lon="10.405467664238326"><ele>201.33333333333331</ele><time>2026-05-02T11:45:09Z</time></trkpt><trkpt lat="44.58695440013735" lon="10.405367705264087"><ele>199.0</ele><time>2026-05-02T11:45:10Z</time></trkpt><trkpt lat="44.586811485305155" lon="10.405321103355096"><ele>199.0</ele><time>2026-05-02T11:45:11Z</time></trkpt><trkpt lat="44.58665443854026" lon="10.405331624922962"><ele>199.0</ele><time>2026-05-02T11:45:12Z</time></trkpt><trkpt lat="44.58648597931459" lon="10.405380619497826"><ele>199.0</ele><time>2026-05-02T11:45:13Z</time></trkpt><trkpt lat="44.586310137347716" lon="10.40545413922912"><ele>202.33333333333331</ele><time>2026-05-02T11:45:14Z</time></trkpt><trkpt lat="44.58612869847002" lon="10.405518772634585"><ele>205.66666666666669</ele><time>2026-05-02T11:45:15Z</time></trkpt><trkpt lat="44.58594031347258" lon="10.405550258832408"><ele>209.0</ele><time>2026-05-02T11:45:16Z</time></trkpt><trkpt lat="44.58576588784567" lon="10.405572395203244"><ele>209.0</ele><time>2026-05-02T11:45:17Z</time></trkpt><trkpt lat="44.585600225613945" lon="10.405555500684809"><ele>209.0</ele><time>2026-05-02T11:45:18Z</time></trkpt><trkpt lat="44.58542956296777" lon="10.405522219438724"><ele>209.0</ele><time>2026-05-02T11:45:19Z</time></trkpt><trkpt lat="44.58524850705389" lon="10.405486134166244"><ele>207.0</ele><time>2026-05-02T11:45:20Z</time></trkpt><trkpt lat="44.585051917203494" lon="10.405478081660899"><ele>205.0</ele><time>2026-05-02T11:45:21Z</time></trkpt><trkpt lat="44.58485931508189" lon="10.405458201721197"><ele>203.0</ele><time>2026-05-02T11:45:22Z</time></trkpt><trkpt lat="44.58465471737571" lon="10.405458863414736"><ele>203.0</ele><time>2026-05-02T11:45:23Z</time></trkpt><trkpt lat="44.584469761526336" lon="10.40544916824351"><ele>203.0</ele><time>2026-05-02T11:45:24Z</time></trkpt><trkpt lat="44.584296558430964" lon="10.405452619646606"><ele>203.0</ele><time>2026-05-02T11:45:25Z</time></trkpt><trkpt lat="44.58413251856485" lon="10.405347698511058"><ele>203.0</ele><time>2026-05-02T11:45:26Z</time></trkpt><trkpt lat="44.58397009519708" lon="10.405213289716885"><ele>203.0</ele><time>2026-05-02T11:45:27Z</time></trkpt><trkpt lat="44.58379619372275" lon="10.405080299926949"><ele>203.0</ele><time>2026-05-02T11:45:28Z</time></trkpt><trkpt lat="44.58362881445861" lon="10.4049393885679"><ele>204.66666666666669</ele><time>2026-05-02T11:45:29Z</time></trkpt><trkpt lat="44.58345416493642" lon="10.404840367268655"><ele>206.33333333333331</ele><time>2026-05-02T11:45:30Z</time></trkpt><trkpt lat="44.583271093714465" lon="10.404780962172197"><ele>208.0</ele><time>2026-05-02T11:45:31Z</time></trkpt><trkpt lat="44.58308993726618" lon="10.404759544994159"><ele>208.0</ele><time>2026-05-02T11:45:32Z</time></trkpt><trkpt lat="44.582907178654644" lon="10.404771511673113"><ele>208.0</ele><time>2026-05-02T11:45:33Z</time></trkpt><trkpt lat="44.58271699275647" lon="10.404803486237387"><ele>208.0</ele><time>2026-05-02T11:45:34Z</time></trkpt><trkpt lat="44.582522494919345" lon="10.404837228994007"><ele>209.33333333333331</ele><time>2026-05-02T11:45:35Z</time></trkpt><trkpt lat="44.58232659902854" lon="10.404824899956767"><ele>210.66666666666669</ele><time>2026-05-02T11:45:36Z</time></trkpt><trkpt lat="44.58212170160659" lon="10.40479983251498"><ele>212.0</ele><time>2026-05-02T11:45:37Z</time></trkpt><trkpt lat="44.581914756223036" lon="10.404769376990753"><ele>213.0</ele><time>2026-05-02T11:45:38Z</time></trkpt><trkpt lat="44.58170849169024" lon="10.404739022837925"><ele>214.0</ele><time>2026-05-02T11:45:39Z</time></trkpt><trkpt lat="44.58151596821094" lon="10.404732687121781"><ele>215.0</ele><time>2026-05-02T11:45:40Z</time></trkpt><trkpt lat="44.58133798949858" lon="10.404707011064517"><ele>213.33333333333334</ele><time>2026-05-02T11:45:41Z</time></trkpt><trkpt lat="44.5811742100271" lon="10.404647958457927"><ele>211.66666666666669</ele><time>2026-05-02T11:45:42Z</time></trkpt><trkpt lat="44.581016349841455" lon="10.40458199210621"><ele>210.0</ele><time>2026-05-02T11:45:43Z</time></trkpt><trkpt lat="44.58085562794262" lon="10.404482197674955"><ele>210.0</ele><time>2026-05-02T11:45:44Z</time></trkpt><trkpt lat="44.58067333105645" lon="10.404360393856587"><ele>210.0</ele><time>2026-05-02T11:45:45Z</time></trkpt><trkpt lat="44.58047257227265" lon="10.404248569944473"><ele>210.0</ele><time>2026-05-02T11:45:46Z</time></trkpt><trkpt lat="44.580277321537515" lon="10.40412077194002"><ele>211.66666666666669</ele><time>2026-05-02T11:45:47Z</time></trkpt><trkpt lat="44.58008012016955" lon="10.403988296540646"><ele>213.33333333333334</ele><time>2026-05-02T11:45:48Z</time></trkpt><trkpt lat="44.57988700591955" lon="10.40386165773079"><ele>215.0</ele><time>2026-05-02T11:45:49Z</time></trkpt><trkpt lat="44.57969159630248" lon="10.403733572687308"><ele>211.66666666666669</ele><time>2026-05-02T11:45:49.999Z</time></trkpt><trkpt lat="44.57950267729806" lon="10.40360585589553"><ele>208.33333333333331</ele><time>2026-05-02T11:45:50.999Z</time></trkpt><trkpt lat="44.57931822143319" lon="10.403478875286014"><ele>205.0</ele><time>2026-05-02T11:45:51.999Z</time></trkpt><trkpt lat="44.57913112024302" lon="10.403354633131636"><ele>205.0</ele><time>2026-05-02T11:45:52.999Z</time></trkpt><trkpt lat="44.57894964415701" lon="10.403236989466636"><ele>205.0</ele><time>2026-05-02T11:45:53.999Z</time></trkpt><trkpt lat="44.57878302458015" lon="10.403133789003277"><ele>205.0</ele><time>2026-05-02T11:45:54.999Z</time></trkpt><trkpt lat="44.578615869557716" lon="10.403059991525117"><ele>206.0</ele><time>2026-05-02T11:45:55.999Z</time></trkpt><trkpt lat="44.57843691741661" lon="10.40304355172408"><ele>207.0</ele><time>2026-05-02T11:45:56.999Z</time></trkpt><trkpt lat="44.57824421492547" lon="10.403076500172936"><ele>208.0</ele><time>2026-05-02T11:45:57.999Z</time></trkpt><trkpt lat="44.57805258228265" lon="10.40313146143273"><ele>208.0</ele><time>2026-05-02T11:45:58.999Z</time></trkpt><trkpt lat="44.57787959777974" lon="10.403182344027849"><ele>208.0</ele><time>2026-05-02T11:45:59.999Z</time></trkpt><trkpt lat="44.577712456044246" lon="10.403229349793758"><ele>208.0</ele><time>2026-05-02T11:46:00.999Z</time></trkpt><trkpt lat="44.577545472788444" lon="10.403323567538681"><ele>207.0</ele><time>2026-05-02T11:46:01.999Z</time></trkpt><trkpt lat="44.57737961963095" lon="10.403475760369705"><ele>206.0</ele><time>2026-05-02T11:46:02.999Z</time></trkpt><trkpt lat="44.57720858928077" lon="10.403658046476732"><ele>205.0</ele><time>2026-05-02T11:46:03.999Z</time></trkpt><trkpt lat="44.57702754580076" lon="10.40380768362839"><ele>208.33333333333331</ele><time>2026-05-02T11:46:04.999Z</time></trkpt><trkpt lat="44.57686461545788" lon="10.403982612224812"><ele>211.66666666666669</ele><time>2026-05-02T11:46:05.999Z</time></trkpt><trkpt lat="44.57668119675704" lon="10.404089651836356"><ele>215.0</ele><time>2026-05-02T11:46:06.999Z</time></trkpt><trkpt lat="44.57650188680643" lon="10.40417220484064"><ele>215.0</ele><time>2026-05-02T11:46:07.999Z</time></trkpt><trkpt lat="44.57630171684609" lon="10.404233871283758"><ele>215.0</ele><time>2026-05-02T11:46:08.999Z</time></trkpt><trkpt lat="44.57609193772064" lon="10.404289071486248"><ele>215.0</ele><time>2026-05-02T11:46:09.999Z</time></trkpt><trkpt lat="44.57587956488273" lon="10.404361257094019"><ele>213.0</ele><time>2026-05-02T11:46:10.999Z</time></trkpt><trkpt lat="44.57566884513937" lon="10.404414457160419"><ele>211.0</ele><time>2026-05-02T11:46:11.999Z</time></trkpt><trkpt lat="44.57547012529267" lon="10.404465247726748"><ele>209.0</ele><time>2026-05-02T11:46:12.999Z</time></trkpt><trkpt lat="44.5752836809031" lon="10.404513586103048"><ele>209.0</ele><time>2026-05-02T11:46:13.999Z</time></trkpt><trkpt lat="44.57510150022846" lon="10.404555625475673"><ele>209.0</ele><time>2026-05-02T11:46:14.999Z</time></trkpt><trkpt lat="44.57493147504997" lon="10.40459646334017"><ele>209.0</ele><time>2026-05-02T11:46:15.999Z</time></trkpt><trkpt lat="44.57477233902031" lon="10.404641651279348"><ele>210.0</ele><time>2026-05-02T11:46:16.999Z</time></trkpt><trkpt lat="44.57462149394866" lon="10.404708120310765"><ele>211.0</ele><time>2026-05-02T11:46:17.999Z</time></trkpt><trkpt lat="44.574483153873935" lon="10.404788238479002"><ele>212.0</ele><time>2026-05-02T11:46:18.999Z</time></trkpt><trkpt lat="44.57435915417566" lon="10.404891063496114"><ele>212.0</ele><time>2026-05-02T11:46:19.999Z</time></trkpt><trkpt lat="44.574250448041326" lon="10.405024992846798"><ele>212.0</ele><time>2026-05-02T11:46:20.999Z</time></trkpt><trkpt lat="44.57416082454193" lon="10.405176861175569"><ele>212.0</ele><time>2026-05-02T11:46:21.999Z</time></trkpt><trkpt lat="44.574072797280095" lon="10.405306142577087"><ele>212.0</ele><time>2026-05-02T11:46:22.999Z</time></trkpt><trkpt lat="44.5739870035008" lon="10.405442409348234"><ele>212.0</ele><time>2026-05-02T11:46:23.999Z</time></trkpt><trkpt lat="44.573900554182565" lon="10.405556707469936"><ele>212.0</ele><time>2026-05-02T11:46:24.999Z</time></trkpt><trkpt lat="44.57378519408989" lon="10.405602265644927"><ele>212.0</ele><time>2026-05-02T11:46:25.999Z</time></trkpt><trkpt lat="44.57368860471927" lon="10.405677966525541"><ele>212.0</ele><time>2026-05-02T11:46:26.999Z</time></trkpt><trkpt lat="44.57358697503214" lon="10.405731794470219"><ele>212.0</ele><time>2026-05-02T11:46:27.999Z</time></trkpt><trkpt lat="44.573479946585344" lon="10.405796529289555"><ele>212.0</ele><time>2026-05-02T11:46:28.999Z</time></trkpt><trkpt lat="44.57337817307391" lon="10.405855883330952"><ele>212.0</ele><time>2026-05-02T11:46:29.999Z</time></trkpt><trkpt lat="44.5732735848681" lon="10.405911291091503"><ele>212.0</ele><time>2026-05-02T11:46:30.999Z</time></trkpt><trkpt lat="44.57317001931927" lon="10.405963478232493"><ele>212.0</ele><time>2026-05-02T11:46:31.999Z</time></trkpt><trkpt lat="44.573066123301864" lon="10.406008045011845"><ele>212.0</ele><time>2026-05-02T11:46:32.999Z</time></trkpt><trkpt lat="44.57296607548594" lon="10.406024796729232"><ele>212.0</ele><time>2026-05-02T11:46:33.999Z</time></trkpt><trkpt lat="44.572871983323346" lon="10.406024359237048"><ele>212.0</ele><time>2026-05-02T11:46:34.999Z</time></trkpt><trkpt lat="44.57277224773655" lon="10.406013834594203"><ele>212.0</ele><time>2026-05-02T11:46:35.999Z</time></trkpt><trkpt lat="44.57267269834824" lon="10.405968689738577"><ele>212.0</ele><time>2026-05-02T11:46:36.999Z</time></trkpt><trkpt lat="44.572575314678794" lon="10.40588028726191"><ele>212.0</ele><time>2026-05-02T11:46:37.999Z</time></trkpt><trkpt lat="44.57247986574662" lon="10.405760031468553"><ele>212.0</ele><time>2026-05-02T11:46:38.999Z</time></trkpt><trkpt lat="44.572397242178575" lon="10.405618280166316"><ele>212.0</ele><time>2026-05-02T11:46:39.999Z</time></trkpt><trkpt lat="44.572321436090505" lon="10.40546566494016"><ele>212.0</ele><time>2026-05-02T11:46:40.999Z</time></trkpt><trkpt lat="44.572245843170975" lon="10.40531378618076"><ele>212.0</ele><time>2026-05-02T11:46:41.999Z</time></trkpt><trkpt lat="44.5721677757541" lon="10.40516679192102"><ele>212.0</ele><time>2026-05-02T11:46:42.999Z</time></trkpt><trkpt lat="44.5720721124233" lon="10.405035041016188"><ele>212.0</ele><time>2026-05-02T11:46:43.999Z</time></trkpt><trkpt lat="44.571973254666055" lon="10.404901193874844"><ele>212.0</ele><time>2026-05-02T11:46:44.999Z</time></trkpt><trkpt lat="44.571874650163416" lon="10.404802397263465"><ele>211.25</ele><time>2026-05-02T11:46:45.999Z</time></trkpt><trkpt lat="44.571770396701375" lon="10.4047158787515"><ele>210.5</ele><time>2026-05-02T11:46:47Z</time></trkpt><trkpt lat="44.571656980831946" lon="10.404642204729702"><ele>209.75</ele><time>2026-05-02T11:46:48Z</time></trkpt><trkpt lat="44.57153323022711" lon="10.404580179414152"><ele>209.0</ele><time>2026-05-02T11:46:49Z</time></trkpt><trkpt lat="44.57140091617571" lon="10.404544228248511"><ele>209.0</ele><time>2026-05-02T11:46:50Z</time></trkpt><trkpt lat="44.571272151688035" lon="10.404522820762326"><ele>209.0</ele><time>2026-05-02T11:46:51Z</time></trkpt><trkpt lat="44.57113635627885" lon="10.404538827473631"><ele>209.0</ele><time>2026-05-02T11:46:52Z</time></trkpt><trkpt lat="44.5709926233444" lon="10.40454762439497"><ele>209.0</ele><time>2026-05-02T11:46:53Z</time></trkpt><trkpt lat="44.57084667304319" lon="10.404558007575014"><ele>210.0</ele><time>2026-05-02T11:46:54Z</time></trkpt><trkpt lat="44.5706939856015" lon="10.404564899866319"><ele>211.0</ele><time>2026-05-02T11:46:55Z</time></trkpt><trkpt lat="44.570541868766846" lon="10.404566642220406"><ele>212.0</ele><time>2026-05-02T11:46:56Z</time></trkpt><trkpt lat="44.57038471013905" lon="10.404517651244674"><ele>215.33333333333334</ele><time>2026-05-02T11:46:57Z</time></trkpt><trkpt lat="44.57023522095751" lon="10.404448597450784"><ele>218.66666666666669</ele><time>2026-05-02T11:46:58Z</time></trkpt><trkpt lat="44.570102364818304" lon="10.404335130002343"><ele>222.0</ele><time>2026-05-02T11:46:59Z</time></trkpt><trkpt lat="44.5699658558617" lon="10.404220695387446"><ele>222.0</ele><time>2026-05-02T11:47:00Z</time></trkpt><trkpt lat="44.56982739762903" lon="10.404093146134432"><ele>222.0</ele><time>2026-05-02T11:47:01Z</time></trkpt><trkpt lat="44.56969598400801" lon="10.403954264775324"><ele>222.0</ele><time>2026-05-02T11:47:02Z</time></trkpt><trkpt lat="44.56957904717158" lon="10.403809952312619"><ele>220.5</ele><time>2026-05-02T11:47:03Z</time></trkpt><trkpt lat="44.56946244191228" lon="10.403687931342889"><ele>219.0</ele><time>2026-05-02T11:47:04Z</time></trkpt><trkpt lat="44.569364232797184" lon="10.403552115671125"><ele>217.5</ele><time>2026-05-02T11:47:05Z</time></trkpt><trkpt lat="44.569267213691546" lon="10.403421212955017"><ele>216.0</ele><time>2026-05-02T11:47:06Z</time></trkpt><trkpt lat="44.56917145913466" lon="10.403285836998327"><ele>216.0</ele><time>2026-05-02T11:47:07Z</time></trkpt><trkpt lat="44.56908682758458" lon="10.403193061835806"><ele>216.0</ele><time>2026-05-02T11:47:08Z</time></trkpt><trkpt lat="44.56897412723487" lon="10.403161388540266"><ele>216.0</ele><time>2026-05-02T11:47:09Z</time></trkpt><trkpt lat="44.56885888284063" lon="10.40318272883444"><ele>216.0</ele><time>2026-05-02T11:47:10Z</time></trkpt><trkpt lat="44.568744242046705" lon="10.403244018318555"><ele>215.5</ele><time>2026-05-02T11:47:11Z</time></trkpt><trkpt lat="44.568629728625496" lon="10.403324501648198"><ele>215.0</ele><time>2026-05-02T11:47:12Z</time></trkpt><trkpt lat="44.56850839350834" lon="10.403397373177521"><ele>214.5</ele><time>2026-05-02T11:47:13Z</time></trkpt><trkpt lat="44.56838429336656" lon="10.403457700212513"><ele>214.0</ele><time>2026-05-02T11:47:14Z</time></trkpt><trkpt lat="44.56824273574611" lon="10.403472210039762"><ele>214.0</ele><time>2026-05-02T11:47:15Z</time></trkpt><trkpt lat="44.56806397139387" lon="10.403489467510695"><ele>214.0</ele><time>2026-05-02T11:47:16Z</time></trkpt><trkpt lat="44.567864622640684" lon="10.403497351820192"><ele>214.0</ele><time>2026-05-02T11:47:17Z</time></trkpt><trkpt lat="44.5676811905659" lon="10.403502245363498"><ele>214.5</ele><time>2026-05-02T11:47:18Z</time></trkpt><trkpt lat="44.56751993117299" lon="10.403518796869335"><ele>215.0</ele><time>2026-05-02T11:47:19Z</time></trkpt><trkpt lat="44.56737615322983" lon="10.40352588429436"><ele>215.5</ele><time>2026-05-02T11:47:20Z</time></trkpt><trkpt lat="44.567247133132206" lon="10.403530842693486"><ele>216.0</ele><time>2026-05-02T11:47:21Z</time></trkpt><trkpt lat="44.567126804876246" lon="10.403532012049798"><ele>216.25</ele><time>2026-05-02T11:47:22Z</time></trkpt><trkpt lat="44.56700457237828" lon="10.403534838265005"><ele>216.5</ele><time>2026-05-02T11:47:23Z</time></trkpt><trkpt lat="44.56687129241563" lon="10.403533542238321"><ele>216.75</ele><time>2026-05-02T11:47:24Z</time></trkpt><trkpt lat="44.56672875464032" lon="10.403510391256543"><ele>217.0</ele><time>2026-05-02T11:47:25Z</time></trkpt><trkpt lat="44.56658676931424" lon="10.403437839458133"><ele>217.0</ele><time>2026-05-02T11:47:26Z</time></trkpt><trkpt lat="44.56644372260165" lon="10.403382416596308"><ele>217.0</ele><time>2026-05-02T11:47:27Z</time></trkpt><trkpt lat="44.566300610397846" lon="10.40334175728277"><ele>217.0</ele><time>2026-05-02T11:47:28Z</time></trkpt><trkpt lat="44.566166136644" lon="10.403283150964317"><ele>217.0</ele><time>2026-05-02T11:47:29Z</time></trkpt><trkpt lat="44.56603519523442" lon="10.403234278509448"><ele>219.25</ele><time>2026-05-02T11:47:30Z</time></trkpt><trkpt lat="44.56590761741654" lon="10.40318406288028"><ele>221.5</ele><time>2026-05-02T11:47:31Z</time></trkpt><trkpt lat="44.565778151233914" lon="10.403134445096931"><ele>223.75</ele><time>2026-05-02T11:47:32Z</time></trkpt><trkpt lat="44.565646556795215" lon="10.40308475225899"><ele>226.0</ele><time>2026-05-02T11:47:33Z</time></trkpt><trkpt lat="44.56551319356874" lon="10.40302802992708"><ele>223.5</ele><time>2026-05-02T11:47:34Z</time></trkpt><trkpt lat="44.56538180699157" lon="10.402974885191405"><ele>221.0</ele><time>2026-05-02T11:47:35Z</time></trkpt><trkpt lat="44.565252693915674" lon="10.402926071744135"><ele>218.5</ele><time>2026-05-02T11:47:36Z</time></trkpt><trkpt lat="44.565120131480036" lon="10.402874021282619"><ele>216.0</ele><time>2026-05-02T11:47:37Z</time></trkpt><trkpt lat="44.56498705822592" lon="10.402821660940399"><ele>216.0</ele><time>2026-05-02T11:47:38Z</time></trkpt><trkpt lat="44.56485026589611" lon="10.402776635698379"><ele>216.0</ele><time>2026-05-02T11:47:39Z</time></trkpt><trkpt lat="44.56470293551134" lon="10.402742263565878"><ele>216.0</ele><time>2026-05-02T11:47:40Z</time></trkpt><trkpt lat="44.56452273914068" lon="10.40272041288046"><ele>216.0</ele><time>2026-05-02T11:47:41Z</time></trkpt><trkpt lat="44.56429030553465" lon="10.402734917426566"><ele>216.0</ele><time>2026-05-02T11:47:42Z</time></trkpt><trkpt lat="44.564022024667835" lon="10.402752530358233"><ele>216.0</ele><time>2026-05-02T11:47:43Z</time></trkpt><trkpt lat="44.563716358874274" lon="10.402770114580447"><ele>216.0</ele><time>2026-05-02T11:47:44Z</time></trkpt><trkpt lat="44.56344396642012" lon="10.402783833947742"><ele>217.0</ele><time>2026-05-02T11:47:45Z</time></trkpt><trkpt lat="44.563222213044675" lon="10.402806919678323"><ele>218.0</ele><time>2026-05-02T11:47:46Z</time></trkpt><trkpt lat="44.56304681354446" lon="10.402799705957024"><ele>219.0</ele><time>2026-05-02T11:47:47Z</time></trkpt><trkpt lat="44.562904717669525" lon="10.402719376079496"><ele>221.66666666666669</ele><time>2026-05-02T11:47:48Z</time></trkpt><trkpt lat="44.56275868226796" lon="10.40265879498737"><ele>224.33333333333334</ele><time>2026-05-02T11:47:49Z</time></trkpt><trkpt lat="44.562626558037" lon="10.402587912193113"><ele>227.0</ele><time>2026-05-02T11:47:50Z</time></trkpt><trkpt lat="44.56247089652934" lon="10.4025681156661"><ele>227.0</ele><time>2026-05-02T11:47:51Z</time></trkpt><trkpt lat="44.56229209293581" lon="10.40259867374781"><ele>227.0</ele><time>2026-05-02T11:47:52Z</time></trkpt><trkpt lat="44.562108218194275" lon="10.402650646397962"><ele>227.0</ele><time>2026-05-02T11:47:53Z</time></trkpt><trkpt lat="44.56193268610485" lon="10.402674246780387"><ele>227.66666666666669</ele><time>2026-05-02T11:47:54Z</time></trkpt><trkpt lat="44.561768522060035" lon="10.402670473103791"><ele>228.33333333333331</ele><time>2026-05-02T11:47:55Z</time></trkpt><trkpt lat="44.56159777905485" lon="10.402623646679519"><ele>229.0</ele><time>2026-05-02T11:47:56Z</time></trkpt><trkpt lat="44.561417495888456" lon="10.40254931110117"><ele>229.0</ele><time>2026-05-02T11:47:57Z</time></trkpt><trkpt lat="44.56123089511849" lon="10.402475507565843"><ele>229.0</ele><time>2026-05-02T11:47:57.999Z</time></trkpt><trkpt lat="44.56104803470045" lon="10.402407015125608"><ele>229.0</ele><time>2026-05-02T11:47:58.999Z</time></trkpt><trkpt lat="44.560880722852765" lon="10.402338649131735"><ele>229.5</ele><time>2026-05-02T11:47:59.999Z</time></trkpt><trkpt lat="44.56073433701161" lon="10.402277689041652"><ele>230.0</ele><time>2026-05-02T11:48:00.999Z</time></trkpt><trkpt lat="44.56061501123886" lon="10.402199754432882"><ele>230.5</ele><time>2026-05-02T11:48:01.999Z</time></trkpt><trkpt lat="44.560529390238536" lon="10.402061337132608"><ele>231.0</ele><time>2026-05-02T11:48:02.999Z</time></trkpt><trkpt lat="44.560474767662846" lon="10.401866456889886"><ele>231.0</ele><time>2026-05-02T11:48:03.999Z</time></trkpt><trkpt lat="44.560424602914594" lon="10.401639510137365"><ele>231.0</ele><time>2026-05-02T11:48:04.999Z</time></trkpt><trkpt lat="44.56037337793837" lon="10.401410204939477"><ele>231.0</ele><time>2026-05-02T11:48:05.999Z</time></trkpt><trkpt lat="44.56031725781803" lon="10.401170192545013"><ele>234.66666666666669</ele><time>2026-05-02T11:48:06.999Z</time></trkpt><trkpt lat="44.56026072944681" lon="10.400930347610885"><ele>238.33333333333334</ele><time>2026-05-02T11:48:07.999Z</time></trkpt><trkpt lat="44.56020590997987" lon="10.400708487497742"><ele>242.0</ele><time>2026-05-02T11:48:08.999Z</time></trkpt><trkpt lat="44.5601440701464" lon="10.400516362610237"><ele>240.0</ele><time>2026-05-02T11:48:09.999Z</time></trkpt><trkpt lat="44.56005519109657" lon="10.400370763730654"><ele>238.0</ele><time>2026-05-02T11:48:10.999Z</time></trkpt><trkpt lat="44.55992569531714" lon="10.400239036182736"><ele>236.0</ele><time>2026-05-02T11:48:11.999Z</time></trkpt><trkpt lat="44.559760540530725" lon="10.400136558817877"><ele>236.0</ele><time>2026-05-02T11:48:12.999Z</time></trkpt><trkpt lat="44.55959627744488" lon="10.400074454551328"><ele>236.0</ele><time>2026-05-02T11:48:13.999Z</time></trkpt><trkpt lat="44.559457169568056" lon="10.399990358149456"><ele>236.0</ele><time>2026-05-02T11:48:14.999Z</time></trkpt><trkpt lat="44.55935676485358" lon="10.399858472216854"><ele>237.5</ele><time>2026-05-02T11:48:15.999Z</time></trkpt><trkpt lat="44.559314810053245" lon="10.399658552290413"><ele>239.0</ele><time>2026-05-02T11:48:16.999Z</time></trkpt><trkpt lat="44.559255933054956" lon="10.399472865914445"><ele>240.5</ele><time>2026-05-02T11:48:17.999Z</time></trkpt><trkpt lat="44.55921026307436" lon="10.399305759626007"><ele>242.0</ele><time>2026-05-02T11:48:18.999Z</time></trkpt><trkpt lat="44.55912473804901" lon="10.39916055034288"><ele>242.0</ele><time>2026-05-02T11:48:19.999Z</time></trkpt><trkpt lat="44.559015495388756" lon="10.39904679123225"><ele>242.0</ele><time>2026-05-02T11:48:20.999Z</time></trkpt><trkpt lat="44.55887308649633" lon="10.398962804307793"><ele>242.0</ele><time>2026-05-02T11:48:21.999Z</time></trkpt><trkpt lat="44.55871324810498" lon="10.39891361015193"><ele>242.0</ele><time>2026-05-02T11:48:22.999Z</time></trkpt><trkpt lat="44.558552737935635" lon="10.39888974007388"><ele>242.0</ele><time>2026-05-02T11:48:23.999Z</time></trkpt><trkpt lat="44.55840898289639" lon="10.398868086574689"><ele>242.0</ele><time>2026-05-02T11:48:24.999Z</time></trkpt><trkpt lat="44.55827977435045" lon="10.39883893733395"><ele>242.0</ele><time>2026-05-02T11:48:25.999Z</time></trkpt><trkpt lat="44.558162033180345" lon="10.398802299469617"><ele>242.0</ele><time>2026-05-02T11:48:26.999Z</time></trkpt><trkpt lat="44.55804047672415" lon="10.3987745856631"><ele>242.0</ele><time>2026-05-02T11:48:27.999Z</time></trkpt><trkpt lat="44.55791357064677" lon="10.398756046579692"><ele>242.0</ele><time>2026-05-02T11:48:28.999Z</time></trkpt><trkpt lat="44.55779081528077" lon="10.398760634430559"><ele>242.0</ele><time>2026-05-02T11:48:29.999Z</time></trkpt><trkpt lat="44.557669325381646" lon="10.398793923152446"><ele>246.0</ele><time>2026-05-02T11:48:30.999Z</time></trkpt><trkpt lat="44.557554797530834" lon="10.398841080887097"><ele>250.0</ele><time>2026-05-02T11:48:31.999Z</time></trkpt><trkpt lat="44.55744786879795" lon="10.398898744108662"><ele>254.0</ele><time>2026-05-02T11:48:32.999Z</time></trkpt><trkpt lat="44.5573355318614" lon="10.398952432855381"><ele>258.0</ele><time>2026-05-02T11:48:33.999Z</time></trkpt><trkpt lat="44.55722671444305" lon="10.399006566637992"><ele>258.0</ele><time>2026-05-02T11:48:34.999Z</time></trkpt><trkpt lat="44.55713059860899" lon="10.399054530038518"><ele>258.0</ele><time>2026-05-02T11:48:35.999Z</time></trkpt><trkpt lat="44.557038531455206" lon="10.399096015656408"><ele>258.0</ele><time>2026-05-02T11:48:36.999Z</time></trkpt><trkpt lat="44.55694319522214" lon="10.399132226469312"><ele>258.0</ele><time>2026-05-02T11:48:37.999Z</time></trkpt><trkpt lat="44.556848936427464" lon="10.399148655952473"><ele>258.0</ele><time>2026-05-02T11:48:38.999Z</time></trkpt><trkpt lat="44.556754158995325" lon="10.399110246952567"><ele>259.2</ele><time>2026-05-02T11:48:39.999Z</time></trkpt><trkpt lat="44.55667177672727" lon="10.3990315031487"><ele>260.4</ele><time>2026-05-02T11:48:40.999Z</time></trkpt><trkpt lat="44.55660566023018" lon="10.39891317195197"><ele>261.59999999999997</ele><time>2026-05-02T11:48:41.999Z</time></trkpt><trkpt lat="44.55653625892115" lon="10.398792244795446"><ele>262.8</ele><time>2026-05-02T11:48:42.999Z</time></trkpt><trkpt lat="44.55647039492193" lon="10.398674022346688"><ele>264.0</ele><time>2026-05-02T11:48:43.999Z</time></trkpt><trkpt lat="44.55638531933694" lon="10.398569413995478"><ele>262.25</ele><time>2026-05-02T11:48:44.999Z</time></trkpt><trkpt lat="44.55628240454203" lon="10.398494983571977"><ele>260.5</ele><time>2026-05-02T11:48:45.999Z</time></trkpt><trkpt lat="44.556170611881676" lon="10.39845273870078"><ele>258.75</ele><time>2026-05-02T11:48:46.999Z</time></trkpt><trkpt lat="44.5560492046483" lon="10.398435665554674"><ele>257.0</ele><time>2026-05-02T11:48:47.999Z</time></trkpt><trkpt lat="44.555919851430964" lon="10.398433862801983"><ele>257.0</ele><time>2026-05-02T11:48:48.999Z</time></trkpt><trkpt lat="44.55579563981948" lon="10.398438189977801"><ele>257.0</ele><time>2026-05-02T11:48:49.999Z</time></trkpt><trkpt lat="44.55567215216443" lon="10.39843457923456"><ele>257.0</ele><time>2026-05-02T11:48:50.999Z</time></trkpt><trkpt lat="44.55555155954807" lon="10.39841626583276"><ele>257.0</ele><time>2026-05-02T11:48:51.999Z</time></trkpt><trkpt lat="44.55544011981894" lon="10.398370437389776"><ele>260.5</ele><time>2026-05-02T11:48:53Z</time></trkpt><trkpt lat="44.555336645838864" lon="10.398285814319552"><ele>264.0</ele><time>2026-05-02T11:48:54Z</time></trkpt><trkpt lat="44.555249873743676" lon="10.398164702944825"><ele>267.5</ele><time>2026-05-02T11:48:55Z</time></trkpt><trkpt lat="44.555172289077255" lon="10.398013849179696"><ele>271.0</ele><time>2026-05-02T11:48:56Z</time></trkpt><trkpt lat="44.55511277364278" lon="10.397836163472524"><ele>271.0</ele><time>2026-05-02T11:48:57Z</time></trkpt><trkpt lat="44.55507393248131" lon="10.397656493094898"><ele>271.0</ele><time>2026-05-02T11:48:58Z</time></trkpt><trkpt lat="44.55505366801558" lon="10.397469779369565"><ele>271.0</ele><time>2026-05-02T11:48:59Z</time></trkpt><trkpt lat="44.55505473782374" lon="10.397281652309335"><ele>271.0</ele><time>2026-05-02T11:49:00Z</time></trkpt><trkpt lat="44.55507575542913" lon="10.397082672406066"><ele>270.75</ele><time>2026-05-02T11:49:01Z</time></trkpt><trkpt lat="44.55509441586017" lon="10.396880604001158"><ele>270.5</ele><time>2026-05-02T11:49:02Z</time></trkpt><trkpt lat="44.555107089723684" lon="10.3966720240776"><ele>270.25</ele><time>2026-05-02T11:49:03Z</time></trkpt><trkpt lat="44.55510926735348" lon="10.396469121559619"><ele>270.0</ele><time>2026-05-02T11:49:04Z</time></trkpt><trkpt lat="44.55510120332214" lon="10.396270054722141"><ele>268.5</ele><time>2026-05-02T11:49:05Z</time></trkpt><trkpt lat="44.55507975960989" lon="10.39608984584177"><ele>267.0</ele><time>2026-05-02T11:49:06Z</time></trkpt><trkpt lat="44.555051329650006" lon="10.395911642418447"><ele>265.5</ele><time>2026-05-02T11:49:07Z</time></trkpt><trkpt lat="44.55501322960488" lon="10.395737744107588"><ele>264.0</ele><time>2026-05-02T11:49:08Z</time></trkpt><trkpt lat="44.554964643490294" lon="10.39556000567138"><ele>259.75</ele><time>2026-05-02T11:49:09Z</time></trkpt><trkpt lat="44.554894860721646" lon="10.395395070213079"><ele>255.5</ele><time>2026-05-02T11:49:10Z</time></trkpt><trkpt lat="44.55481061726378" lon="10.395240434238833"><ele>251.25</ele><time>2026-05-02T11:49:11Z</time></trkpt><trkpt lat="44.55471694517685" lon="10.395094491372891"><ele>247.0</ele><time>2026-05-02T11:49:12Z</time></trkpt><trkpt lat="44.55461781094195" lon="10.39496008091021"><ele>249.0</ele><time>2026-05-02T11:49:13Z</time></trkpt><trkpt lat="44.55449838856565" lon="10.39482935678726"><ele>251.0</ele><time>2026-05-02T11:49:14Z</time></trkpt><trkpt lat="44.5543472113673" lon="10.394653003354142"><ele>253.0</ele><time>2026-05-02T11:49:15Z</time></trkpt><trkpt lat="44.55414189282599" lon="10.394479866533851"><ele>253.0</ele><time>2026-05-02T11:49:16Z</time></trkpt><trkpt lat="44.55395521789166" lon="10.39429352669411"><ele>253.0</ele><time>2026-05-02T11:49:17Z</time></trkpt><trkpt lat="44.55378010042461" lon="10.394157470911503"><ele>253.0</ele><time>2026-05-02T11:49:18Z</time></trkpt><trkpt lat="44.553619023557275" lon="10.39402410484196"><ele>253.0</ele><time>2026-05-02T11:49:19Z</time></trkpt><trkpt lat="44.553484749907625" lon="10.393849491692583"><ele>253.0</ele><time>2026-05-02T11:49:20Z</time></trkpt><trkpt lat="44.55336198925464" lon="10.393651049778788"><ele>253.0</ele><time>2026-05-02T11:49:21Z</time></trkpt><trkpt lat="44.5532316970299" lon="10.393450516884945"><ele>253.0</ele><time>2026-05-02T11:49:22Z</time></trkpt><trkpt lat="44.553112375610006" lon="10.393241770323883"><ele>253.0</ele><time>2026-05-02T11:49:23Z</time></trkpt><trkpt lat="44.552985849420644" lon="10.393046824825895"><ele>253.0</ele><time>2026-05-02T11:49:24Z</time></trkpt><trkpt lat="44.55284209953566" lon="10.392891551515252"><ele>253.0</ele><time>2026-05-02T11:49:25Z</time></trkpt><trkpt lat="44.55267974604874" lon="10.392762612053529"><ele>253.0</ele><time>2026-05-02T11:49:26Z</time></trkpt><trkpt lat="44.55249782655163" lon="10.39265130477526"><ele>253.0</ele><time>2026-05-02T11:49:27Z</time></trkpt><trkpt lat="44.552308313585996" lon="10.392516207828733"><ele>253.0</ele><time>2026-05-02T11:49:28Z</time></trkpt><trkpt lat="44.55211373291615" lon="10.392382043342902"><ele>253.0</ele><time>2026-05-02T11:49:29Z</time></trkpt><trkpt lat="44.551926666148894" lon="10.392223626611518"><ele>253.0</ele><time>2026-05-02T11:49:30Z</time></trkpt><trkpt lat="44.5517313087516" lon="10.392085411676842"><ele>254.33333333333331</ele><time>2026-05-02T11:49:31Z</time></trkpt><trkpt lat="44.55153979238913" lon="10.391968226589146"><ele>255.66666666666669</ele><time>2026-05-02T11:49:32Z</time></trkpt><trkpt lat="44.551333688577934" lon="10.39181959874954"><ele>257.0</ele><time>2026-05-02T11:49:33Z</time></trkpt><trkpt lat="44.551130749187294" lon="10.391674320297739"><ele>257.0</ele><time>2026-05-02T11:49:34Z</time></trkpt><trkpt lat="44.55093394900321" lon="10.391530400972709"><ele>257.0</ele><time>2026-05-02T11:49:35Z</time></trkpt><trkpt lat="44.550735143274935" lon="10.391387462587184"><ele>257.0</ele><time>2026-05-02T11:49:36Z</time></trkpt><trkpt lat="44.55053322980559" lon="10.391247430848866"><ele>255.0</ele><time>2026-05-02T11:49:37Z</time></trkpt><trkpt lat="44.55034092269206" lon="10.391112837825261"><ele>253.0</ele><time>2026-05-02T11:49:38Z</time></trkpt><trkpt lat="44.55016206743761" lon="10.390983607534515"><ele>251.0</ele><time>2026-05-02T11:49:39Z</time></trkpt><trkpt lat="44.54999261753832" lon="10.390859315782217"><ele>251.0</ele><time>2026-05-02T11:49:40Z</time></trkpt><trkpt lat="44.54983123150778" lon="10.39072878619491"><ele>251.0</ele><time>2026-05-02T11:49:41Z</time></trkpt><trkpt lat="44.549694858726426" lon="10.390567163616723"><ele>251.0</ele><time>2026-05-02T11:49:42Z</time></trkpt><trkpt lat="44.54957097377809" lon="10.390392784202428"><ele>250.0</ele><time>2026-05-02T11:49:43Z</time></trkpt><trkpt lat="44.54945491224172" lon="10.390190030658566"><ele>249.0</ele><time>2026-05-02T11:49:44Z</time></trkpt><trkpt lat="44.549339170730725" lon="10.389968654011284"><ele>248.0</ele><time>2026-05-02T11:49:45Z</time></trkpt><trkpt lat="44.54921759631989" lon="10.389734510483764"><ele>247.33333333333334</ele><time>2026-05-02T11:49:46Z</time></trkpt><trkpt lat="44.549093534661466" lon="10.38949378589517"><ele>246.66666666666669</ele><time>2026-05-02T11:49:47Z</time></trkpt><trkpt lat="44.54896676408743" lon="10.38924772233529"><ele>246.0</ele><time>2026-05-02T11:49:47.999Z</time></trkpt><trkpt lat="44.54884401145191" lon="10.389003466475573"><ele>245.33333333333331</ele><time>2026-05-02T11:49:48.999Z</time></trkpt><trkpt lat="44.54872889155353" lon="10.388761802484863"><ele>244.66666666666666</ele><time>2026-05-02T11:49:49.999Z</time></trkpt><trkpt lat="44.548621255262624" lon="10.388514901957997"><ele>244.0</ele><time>2026-05-02T11:49:50.999Z</time></trkpt><trkpt lat="44.54851408127881" lon="10.388269780173804"><ele>244.0</ele><time>2026-05-02T11:49:51.999Z</time></trkpt><trkpt lat="44.548411287178645" lon="10.388026236720474"><ele>244.0</ele><time>2026-05-02T11:49:52.999Z</time></trkpt><trkpt lat="44.54830125922212" lon="10.387808716613446"><ele>244.0</ele><time>2026-05-02T11:49:53.999Z</time></trkpt><trkpt lat="44.54822997767814" lon="10.387605880964923"><ele>243.25</ele><time>2026-05-02T11:49:54.999Z</time></trkpt><trkpt lat="44.54815734282522" lon="10.387437246807398"><ele>242.5</ele><time>2026-05-02T11:49:55.999Z</time></trkpt><trkpt lat="44.54807571552415" lon="10.387311522561886"><ele>241.75</ele><time>2026-05-02T11:49:56.999Z</time></trkpt><trkpt lat="44.54795717779035" lon="10.387218052974422"><ele>241.0</ele><time>2026-05-02T11:49:57.999Z</time></trkpt><trkpt lat="44.54780724284239" lon="10.387164377319804"><ele>238.66666666666666</ele><time>2026-05-02T11:49:58.999Z</time></trkpt><trkpt lat="44.54762829095879" lon="10.38714407715414"><ele>236.33333333333331</ele><time>2026-05-02T11:49:59.999Z</time></trkpt><trkpt lat="44.54743243306365" lon="10.3871211524417"><ele>234.0</ele><time>2026-05-02T11:50:00.999Z</time></trkpt><trkpt lat="44.547236373548316" lon="10.387071966428945"><ele>234.0</ele><time>2026-05-02T11:50:01.999Z</time></trkpt><trkpt lat="44.54704768643738" lon="10.387009410957015"><ele>234.0</ele><time>2026-05-02T11:50:02.999Z</time></trkpt><trkpt lat="44.54686544032212" lon="10.38693600637056"><ele>234.0</ele><time>2026-05-02T11:50:03.999Z</time></trkpt><trkpt lat="44.54668828059852" lon="10.386842949705562"><ele>235.0</ele><time>2026-05-02T11:50:04.999Z</time></trkpt><trkpt lat="44.54651258528437" lon="10.386732594619621"><ele>236.0</ele><time>2026-05-02T11:50:05.999Z</time></trkpt><trkpt lat="44.54634537827581" lon="10.38661558567522"><ele>237.0</ele><time>2026-05-02T11:50:06.999Z</time></trkpt><trkpt lat="44.54617586834434" lon="10.386490121615013"><ele>235.33333333333331</ele><time>2026-05-02T11:50:07.999Z</time></trkpt><trkpt lat="44.546002029313236" lon="10.386369046581287"><ele>233.66666666666666</ele><time>2026-05-02T11:50:08.999Z</time></trkpt><trkpt lat="44.54581724944065" lon="10.386252290344549"><ele>232.0</ele><time>2026-05-02T11:50:09.999Z</time></trkpt><trkpt lat="44.545642686690144" lon="10.386137128349962"><ele>232.0</ele><time>2026-05-02T11:50:10.999Z</time></trkpt><trkpt lat="44.545475602530495" lon="10.386019061240434"><ele>232.0</ele><time>2026-05-02T11:50:11.999Z</time></trkpt><trkpt lat="44.54531000731789" lon="10.385902661467973"><ele>232.0</ele><time>2026-05-02T11:50:12.999Z</time></trkpt><trkpt lat="44.54516305908036" lon="10.385753734149096"><ele>232.0</ele><time>2026-05-02T11:50:13.999Z</time></trkpt><trkpt lat="44.545016772780066" lon="10.38559518512062"><ele>232.0</ele><time>2026-05-02T11:50:14.999Z</time></trkpt><trkpt lat="44.54485642351424" lon="10.385444499043192"><ele>232.0</ele><time>2026-05-02T11:50:15.999Z</time></trkpt><trkpt lat="44.54470379326162" lon="10.385273911704274"><ele>232.0</ele><time>2026-05-02T11:50:16.999Z</time></trkpt><trkpt lat="44.54455530623074" lon="10.385086577153269"><ele>232.0</ele><time>2026-05-02T11:50:17.999Z</time></trkpt><trkpt lat="44.54441172020098" lon="10.384928832800771"><ele>232.0</ele><time>2026-05-02T11:50:18.999Z</time></trkpt><trkpt lat="44.54424950875324" lon="10.384769852684569"><ele>233.0</ele><time>2026-05-02T11:50:19.999Z</time></trkpt><trkpt lat="44.544102754798864" lon="10.384593298324576"><ele>234.0</ele><time>2026-05-02T11:50:20.999Z</time></trkpt><trkpt lat="44.54395118018375" lon="10.384405057785552"><ele>235.0</ele><time>2026-05-02T11:50:21.999Z</time></trkpt><trkpt lat="44.54380640817496" lon="10.384215149281118"><ele>237.33333333333331</ele><time>2026-05-02T11:50:22.999Z</time></trkpt><trkpt lat="44.54367351450713" lon="10.384020961391709"><ele>239.66666666666669</ele><time>2026-05-02T11:50:23.999Z</time></trkpt><trkpt lat="44.543539374282666" lon="10.383822238968726"><ele>242.0</ele><time>2026-05-02T11:50:24.999Z</time></trkpt><trkpt lat="44.5434093972133" lon="10.383624413845315"><ele>242.0</ele><time>2026-05-02T11:50:25.999Z</time></trkpt><trkpt lat="44.54328598083795" lon="10.383430069728304"><ele>242.0</ele><time>2026-05-02T11:50:26.999Z</time></trkpt><trkpt lat="44.543166262561606" lon="10.383232822963663"><ele>242.0</ele><time>2026-05-02T11:50:27.999Z</time></trkpt><trkpt lat="44.54304328839142" lon="10.383024727465186"><ele>239.0</ele><time>2026-05-02T11:50:28.999Z</time></trkpt><trkpt lat="44.542937829608455" lon="10.382802463746772"><ele>236.0</ele><time>2026-05-02T11:50:29.999Z</time></trkpt><trkpt lat="44.5428327141391" lon="10.382569806438692"><ele>233.0</ele><time>2026-05-02T11:50:30.999Z</time></trkpt><trkpt lat="44.542741394652815" lon="10.382336845014578"><ele>241.33333333333334</ele><time>2026-05-02T11:50:31.999Z</time></trkpt><trkpt lat="44.54268617923646" lon="10.382066573610341"><ele>249.66666666666669</ele><time>2026-05-02T11:50:32.999Z</time></trkpt><trkpt lat="44.542653208838125" lon="10.381791287119643"><ele>258.0</ele><time>2026-05-02T11:50:33.999Z</time></trkpt><trkpt lat="44.54262341126712" lon="10.381507623689378"><ele>258.0</ele><time>2026-05-02T11:50:34.999Z</time></trkpt><trkpt lat="44.54257864165197" lon="10.38123284486102"><ele>258.0</ele><time>2026-05-02T11:50:35.999Z</time></trkpt><trkpt lat="44.542560364704556" lon="10.380978355235381"><ele>258.0</ele><time>2026-05-02T11:50:36.999Z</time></trkpt><trkpt lat="44.5425675772686" lon="10.380702178929843"><ele>259.3333333333333</ele><time>2026-05-02T11:50:37.999Z</time></trkpt><trkpt lat="44.54260078185733" lon="10.380430737023064"><ele>260.66666666666663</ele><time>2026-05-02T11:50:38.999Z</time></trkpt><trkpt lat="44.54264646890523" lon="10.380162416133173"><ele>262.0</ele><time>2026-05-02T11:50:39.999Z</time></trkpt><trkpt lat="44.54268356870802" lon="10.379896351205915"><ele>263.66666666666663</ele><time>2026-05-02T11:50:40.999Z</time></trkpt><trkpt lat="44.54273507372377" lon="10.379658499030077"><ele>265.3333333333333</ele><time>2026-05-02T11:50:41.999Z</time></trkpt><trkpt lat="44.542828973867046" lon="10.379438860885983"><ele>267.0</ele><time>2026-05-02T11:50:42.999Z</time></trkpt><trkpt lat="44.542914218977764" lon="10.379241107252213"><ele>258.3333333333333</ele><time>2026-05-02T11:50:43.999Z</time></trkpt><trkpt lat="44.54298391811056" lon="10.379061083102567"><ele>249.66666666666666</ele><time>2026-05-02T11:50:44.999Z</time></trkpt><trkpt lat="44.54304773586499" lon="10.378859788932392"><ele>241.0</ele><time>2026-05-02T11:50:45.999Z</time></trkpt><trkpt lat="44.54307481915519" lon="10.37864006407817"><ele>241.0</ele><time>2026-05-02T11:50:46.999Z</time></trkpt><trkpt lat="44.54304519911161" lon="10.378397387307732"><ele>241.0</ele><time>2026-05-02T11:50:47.999Z</time></trkpt><trkpt lat="44.54298168132166" lon="10.378168373564444"><ele>241.0</ele><time>2026-05-02T11:50:48.999Z</time></trkpt><trkpt lat="44.54291856918982" lon="10.377932721844422"><ele>253.33333333333331</ele><time>2026-05-02T11:50:49.999Z</time></trkpt><trkpt lat="44.54287315525297" lon="10.377689346315297"><ele>265.6666666666667</ele><time>2026-05-02T11:50:50.999Z</time></trkpt><trkpt lat="44.54287830985339" lon="10.377445361990873"><ele>278.0</ele><time>2026-05-02T11:50:51.999Z</time></trkpt><trkpt lat="44.54287782653066" lon="10.377204372507242"><ele>268.33333333333337</ele><time>2026-05-02T11:50:52.999Z</time></trkpt><trkpt lat="44.54293833384829" lon="10.376980873439614"><ele>258.6666666666667</ele><time>2026-05-02T11:50:53.999Z</time></trkpt><trkpt lat="44.54301471086655" lon="10.37676247793354"><ele>249.0</ele><time>2026-05-02T11:50:54.999Z</time></trkpt><trkpt lat="44.54311891180338" lon="10.376541928673237"><ele>252.33333333333331</ele><time>2026-05-02T11:50:55.999Z</time></trkpt><trkpt lat="44.54323756909123" lon="10.376326749117938"><ele>255.66666666666666</ele><time>2026-05-02T11:50:56.999Z</time></trkpt><trkpt lat="44.54334493467467" lon="10.376103522499866"><ele>259.0</ele><time>2026-05-02T11:50:57.999Z</time></trkpt><trkpt lat="44.54345758723143" lon="10.37591915322921"><ele>259.0</ele><time>2026-05-02T11:50:59Z</time></trkpt><trkpt lat="44.54354793634144" lon="10.375745495437533"><ele>259.0</ele><time>2026-05-02T11:51:00Z</time></trkpt><trkpt lat="44.54361002687436" lon="10.375561079889803"><ele>259.0</ele><time>2026-05-02T11:51:01Z</time></trkpt><trkpt lat="44.5436352987795" lon="10.375357215828117"><ele>259.0</ele><time>2026-05-02T11:51:02Z</time></trkpt><trkpt lat="44.543640108614056" lon="10.375122143126529"><ele>260.66666666666663</ele><time>2026-05-02T11:51:03Z</time></trkpt><trkpt lat="44.54364205236036" lon="10.374860359570116"><ele>262.3333333333333</ele><time>2026-05-02T11:51:04Z</time></trkpt><trkpt lat="44.54364561153526" lon="10.374602707601403"><ele>264.0</ele><time>2026-05-02T11:51:05Z</time></trkpt><trkpt lat="44.54367417528995" lon="10.374360916101015"><ele>261.0</ele><time>2026-05-02T11:51:06Z</time></trkpt><trkpt lat="44.54374183474295" lon="10.374116767748342"><ele>258.0</ele><time>2026-05-02T11:51:07Z</time></trkpt><trkpt lat="44.543816701649746" lon="10.373876212042495"><ele>255.0</ele><time>2026-05-02T11:51:08Z</time></trkpt><trkpt lat="44.5438788671136" lon="10.373655796618312"><ele>255.0</ele><time>2026-05-02T11:51:09Z</time></trkpt><trkpt lat="44.543939672843386" lon="10.373457660290665"><ele>255.0</ele><time>2026-05-02T11:51:10Z</time></trkpt><trkpt lat="44.54397837838616" lon="10.373266090290489"><ele>255.0</ele><time>2026-05-02T11:51:11Z</time></trkpt><trkpt lat="44.543989841122155" lon="10.373068052114606"><ele>255.0</ele><time>2026-05-02T11:51:12Z</time></trkpt><trkpt lat="44.54395426578173" lon="10.372846717278115"><ele>254.66666666666669</ele><time>2026-05-02T11:51:13Z</time></trkpt><trkpt lat="44.543883262496365" lon="10.372613548847356"><ele>254.33333333333334</ele><time>2026-05-02T11:51:14Z</time></trkpt><trkpt lat="44.5438087365061" lon="10.372372721408457"><ele>254.0</ele><time>2026-05-02T11:51:15Z</time></trkpt><trkpt lat="44.54375099823759" lon="10.37211833206717"><ele>257.33333333333337</ele><time>2026-05-02T11:51:16Z</time></trkpt><trkpt lat="44.54370054481186" lon="10.371884334469222"><ele>260.6666666666667</ele><time>2026-05-02T11:51:17Z</time></trkpt><trkpt lat="44.54365259131472" lon="10.371672889720026"><ele>264.0</ele><time>2026-05-02T11:51:18Z</time></trkpt><trkpt lat="44.543594582536215" lon="10.37147415581759"><ele>262.0</ele><time>2026-05-02T11:51:19Z</time></trkpt><trkpt lat="44.543496959469245" lon="10.371304251383938"><ele>260.0</ele><time>2026-05-02T11:51:20Z</time></trkpt><trkpt lat="44.54336198546601" lon="10.371172068174763"><ele>258.0</ele><time>2026-05-02T11:51:21Z</time></trkpt><trkpt lat="44.543195679357666" lon="10.371088785829448"><ele>258.0</ele><time>2026-05-02T11:51:22Z</time></trkpt><trkpt lat="44.543010881086786" lon="10.371047054115287"><ele>258.0</ele><time>2026-05-02T11:51:23Z</time></trkpt><trkpt lat="44.542821020508484" lon="10.37101386788713"><ele>258.0</ele><time>2026-05-02T11:51:24Z</time></trkpt><trkpt lat="44.542625831250724" lon="10.370958172789381"><ele>260.6666666666667</ele><time>2026-05-02T11:51:25Z</time></trkpt><trkpt lat="44.54244707785255" lon="10.370842238368505"><ele>263.33333333333337</ele><time>2026-05-02T11:51:26Z</time></trkpt><trkpt lat="44.542291315629676" lon="10.370715832373275"><ele>266.0</ele><time>2026-05-02T11:51:27Z</time></trkpt><trkpt lat="44.5421409708538" lon="10.370568810212086"><ele>267.6666666666667</ele><time>2026-05-02T11:51:28Z</time></trkpt><trkpt lat="44.54198193566047" lon="10.370414604875243"><ele>269.3333333333333</ele><time>2026-05-02T11:51:29Z</time></trkpt><trkpt lat="44.541837353968994" lon="10.370234241442734"><ele>271.0</ele><time>2026-05-02T11:51:30Z</time></trkpt><trkpt lat="44.541684500834926" lon="10.370055245551004"><ele>271.0</ele><time>2026-05-02T11:51:31Z</time></trkpt><trkpt lat="44.54154709175943" lon="10.369876548636983"><ele>271.0</ele><time>2026-05-02T11:51:32Z</time></trkpt><trkpt lat="44.54144710589496" lon="10.369677675275561"><ele>271.0</ele><time>2026-05-02T11:51:33Z</time></trkpt><trkpt lat="44.54141609310047" lon="10.369449286279565"><ele>269.3333333333333</ele><time>2026-05-02T11:51:34Z</time></trkpt><trkpt lat="44.54138852868895" lon="10.369222074263554"><ele>267.6666666666667</ele><time>2026-05-02T11:51:35Z</time></trkpt><trkpt lat="44.54134760054165" lon="10.368979521824224"><ele>266.0</ele><time>2026-05-02T11:51:36Z</time></trkpt><trkpt lat="44.54132146138076" lon="10.36872355437078"><ele>264.6666666666667</ele><time>2026-05-02T11:51:37Z</time></trkpt><trkpt lat="44.54128158833214" lon="10.368451908301287"><ele>263.3333333333333</ele><time>2026-05-02T11:51:38Z</time></trkpt><trkpt lat="44.54122718558913" lon="10.368192103731555"><ele>262.0</ele><time>2026-05-02T11:51:39Z</time></trkpt><trkpt lat="44.54116056099016" lon="10.367915519802677"><ele>266.0</ele><time>2026-05-02T11:51:40Z</time></trkpt><trkpt lat="44.541084459998764" lon="10.367635240185324"><ele>270.0</ele><time>2026-05-02T11:51:41Z</time></trkpt><trkpt lat="44.54101353922017" lon="10.367351316351135"><ele>274.0</ele><time>2026-05-02T11:51:42Z</time></trkpt><trkpt lat="44.54094428906807" lon="10.367067514763194"><ele>274.3333333333333</ele><time>2026-05-02T11:51:43Z</time></trkpt><trkpt lat="44.54087441713307" lon="10.366794236083154"><ele>274.6666666666667</ele><time>2026-05-02T11:51:44Z</time></trkpt><trkpt lat="44.54080532648632" lon="10.366525027384874"><ele>275.0</ele><time>2026-05-02T11:51:45Z</time></trkpt><trkpt lat="44.54073704711255" lon="10.366260866567638"><ele>275.0</ele><time>2026-05-02T11:51:46Z</time></trkpt><trkpt lat="44.540673858527015" lon="10.366007422320923"><ele>275.0</ele><time>2026-05-02T11:51:47Z</time></trkpt><trkpt lat="44.54062042759124" lon="10.365780364621527"><ele>275.0</ele><time>2026-05-02T11:51:48Z</time></trkpt><trkpt lat="44.540567955829246" lon="10.365580654226953"><ele>274.5</ele><time>2026-05-02T11:51:49Z</time></trkpt><trkpt lat="44.54049796446261" lon="10.365400433159627"><ele>274.0</ele><time>2026-05-02T11:51:50Z</time></trkpt><trkpt lat="44.54039313765631" lon="10.365266605445106"><ele>273.5</ele><time>2026-05-02T11:51:51Z</time></trkpt><trkpt lat="44.540258049482425" lon="10.365175144087333"><ele>273.0</ele><time>2026-05-02T11:51:52Z</time></trkpt><trkpt lat="44.54010286545307" lon="10.365118152587467"><ele>275.3333333333333</ele><time>2026-05-02T11:51:53Z</time></trkpt><trkpt lat="44.53993009974865" lon="10.36507541631603"><ele>277.66666666666663</ele><time>2026-05-02T11:51:54Z</time></trkpt><trkpt lat="44.53974608184918" lon="10.365046300096644"><ele>280.0</ele><time>2026-05-02T11:51:55Z</time></trkpt><trkpt lat="44.53956431473452" lon="10.365031998050721"><ele>280.3333333333333</ele><time>2026-05-02T11:51:56Z</time></trkpt><trkpt lat="44.539402499041955" lon="10.36505464827801"><ele>280.6666666666667</ele><time>2026-05-02T11:51:57Z</time></trkpt><trkpt lat="44.5392563619717" lon="10.365117619377186"><ele>281.0</ele><time>2026-05-02T11:51:58Z</time></trkpt><trkpt lat="44.53912202475044" lon="10.365206145578915"><ele>281.0</ele><time>2026-05-02T11:51:59Z</time></trkpt><trkpt lat="44.53900210733739" lon="10.365287002911115"><ele>281.0</ele><time>2026-05-02T11:52:00Z</time></trkpt><trkpt lat="44.53888276404657" lon="10.36530015657122"><ele>281.0</ele><time>2026-05-02T11:52:01Z</time></trkpt><trkpt lat="44.538775500670425" lon="10.365196414414354"><ele>281.0</ele><time>2026-05-02T11:52:02Z</time></trkpt><trkpt lat="44.538674392884616" lon="10.365055315961593"><ele>282.0</ele><time>2026-05-02T11:52:02.999Z</time></trkpt><trkpt lat="44.53857964644883" lon="10.36487863204698"><ele>283.0</ele><time>2026-05-02T11:52:03.999Z</time></trkpt><trkpt lat="44.53850208886837" lon="10.364653152821223"><ele>284.0</ele><time>2026-05-02T11:52:04.999Z</time></trkpt><trkpt lat="44.53841908086283" lon="10.364414028450605"><ele>284.0</ele><time>2026-05-02T11:52:05.999Z</time></trkpt><trkpt lat="44.538333715527244" lon="10.36416578335717"><ele>284.0</ele><time>2026-05-02T11:52:06.999Z</time></trkpt><trkpt lat="44.53824935420394" lon="10.36391895774939"><ele>284.0</ele><time>2026-05-02T11:52:07.999Z</time></trkpt><trkpt lat="44.53816605141585" lon="10.363669487204184"><ele>282.33333333333337</ele><time>2026-05-02T11:52:08.999Z</time></trkpt><trkpt lat="44.53806002432305" lon="10.363420022320659"><ele>280.6666666666667</ele><time>2026-05-02T11:52:09.999Z</time></trkpt><trkpt lat="44.537972385858936" lon="10.363164914543296"><ele>279.0</ele><time>2026-05-02T11:52:10.999Z</time></trkpt><trkpt lat="44.537884872764806" lon="10.362909388888824"><ele>282.6666666666667</ele><time>2026-05-02T11:52:11.999Z</time></trkpt><trkpt lat="44.53779610318939" lon="10.362667254646164"><ele>286.33333333333337</ele><time>2026-05-02T11:52:12.999Z</time></trkpt><trkpt lat="44.53771674095488" lon="10.36243327409883"><ele>290.0</ele><time>2026-05-02T11:52:13.999Z</time></trkpt><trkpt lat="44.53764327204869" lon="10.36220757750443"><ele>285.33333333333337</ele><time>2026-05-02T11:52:14.999Z</time></trkpt><trkpt lat="44.537555296264834" lon="10.362003175840643"><ele>280.6666666666667</ele><time>2026-05-02T11:52:15.999Z</time></trkpt><trkpt lat="44.537446860826726" lon="10.36182845752057"><ele>276.0</ele><time>2026-05-02T11:52:16.999Z</time></trkpt><trkpt lat="44.53730678944394" lon="10.361694604464134"><ele>276.0</ele><time>2026-05-02T11:52:17.999Z</time></trkpt><trkpt lat="44.53714191725885" lon="10.361573284338643"><ele>276.0</ele><time>2026-05-02T11:52:18.999Z</time></trkpt><trkpt lat="44.53695568040221" lon="10.361458818575832"><ele>276.0</ele><time>2026-05-02T11:52:19.999Z</time></trkpt><trkpt lat="44.53676064277149" lon="10.361338986767475"><ele>274.3333333333333</ele><time>2026-05-02T11:52:20.999Z</time></trkpt><trkpt lat="44.53656989821022" lon="10.361216940013298"><ele>272.66666666666663</ele><time>2026-05-02T11:52:21.999Z</time></trkpt><trkpt lat="44.53638100202309" lon="10.361091052666357"><ele>271.0</ele><time>2026-05-02T11:52:22.999Z</time></trkpt><trkpt lat="44.53618721383895" lon="10.360957191297276"><ele>271.0</ele><time>2026-05-02T11:52:23.999Z</time></trkpt><trkpt lat="44.53599737770716" lon="10.36082588449122"><ele>271.0</ele><time>2026-05-02T11:52:24.999Z</time></trkpt><trkpt lat="44.53582024881271" lon="10.360700827515146"><ele>271.0</ele><time>2026-05-02T11:52:25.999Z</time></trkpt><trkpt lat="44.53565440149949" lon="10.360566997550833"><ele>272.3333333333333</ele><time>2026-05-02T11:52:26.999Z</time></trkpt><trkpt lat="44.535511489759294" lon="10.36043692841"><ele>273.6666666666667</ele><time>2026-05-02T11:52:27.999Z</time></trkpt><trkpt lat="44.535410271997435" lon="10.360264813893716"><ele>275.0</ele><time>2026-05-02T11:52:28.999Z</time></trkpt><trkpt lat="44.53533659740254" lon="10.36009261409403"><ele>275.0</ele><time>2026-05-02T11:52:29.999Z</time></trkpt><trkpt lat="44.535271806788366" lon="10.359918117106043"><ele>275.0</ele><time>2026-05-02T11:52:30.999Z</time></trkpt><trkpt lat="44.53520504103074" lon="10.359736189990054"><ele>275.0</ele><time>2026-05-02T11:52:31.999Z</time></trkpt><trkpt lat="44.53513331721324" lon="10.359549655433387"><ele>275.0</ele><time>2026-05-02T11:52:32.999Z</time></trkpt><trkpt lat="44.53506047314883" lon="10.35935980941327"><ele>273.5</ele><time>2026-05-02T11:52:33.999Z</time></trkpt><trkpt lat="44.53499389020077" lon="10.359182560095688"><ele>272.0</ele><time>2026-05-02T11:52:34.999Z</time></trkpt><trkpt lat="44.534930485414044" lon="10.359019243761047"><ele>270.5</ele><time>2026-05-02T11:52:35.999Z</time></trkpt><trkpt lat="44.534857858361626" lon="10.358878713671661"><ele>269.0</ele><time>2026-05-02T11:52:36.999Z</time></trkpt><trkpt lat="44.534801774373754" lon="10.35874287318556"><ele>269.59999999999997</ele><time>2026-05-02T11:52:37.999Z</time></trkpt><trkpt lat="44.53474354768622" lon="10.35863282906193"><ele>270.2</ele><time>2026-05-02T11:52:38.999Z</time></trkpt><trkpt lat="44.53468004264135" lon="10.35853414710883"><ele>270.79999999999995</ele><time>2026-05-02T11:52:39.999Z</time></trkpt><trkpt lat="44.534611909604195" lon="10.358446634033358"><ele>271.4</ele><time>2026-05-02T11:52:40.999Z</time></trkpt><trkpt lat="44.534528681554555" lon="10.358356500608375"><ele>272.0</ele><time>2026-05-02T11:52:41.999Z</time></trkpt><trkpt lat="44.53441385505602" lon="10.358273427410175"><ele>272.0</ele><time>2026-05-02T11:52:42.999Z</time></trkpt><trkpt lat="44.53425491061138" lon="10.35818119005487"><ele>272.0</ele><time>2026-05-02T11:52:43.999Z</time></trkpt><trkpt lat="44.53404988051614" lon="10.358094517741469"><ele>272.0</ele><time>2026-05-02T11:52:44.999Z</time></trkpt><trkpt lat="44.53381733248514" lon="10.357976576922615"><ele>271.0</ele><time>2026-05-02T11:52:45.999Z</time></trkpt><trkpt lat="44.533575911579646" lon="10.35782824302787"><ele>270.0</ele><time>2026-05-02T11:52:46.999Z</time></trkpt><trkpt lat="44.533346839884665" lon="10.35770300574019"><ele>270.0</ele><time>2026-05-02T11:52:47.999Z</time></trkpt><trkpt lat="44.53314221071524" lon="10.357549892172747"><ele>270.0</ele><time>2026-05-02T11:52:48.999Z</time></trkpt><trkpt lat="44.532948201425036" lon="10.357398044170035"><ele>269.6666666666667</ele><time>2026-05-02T11:52:49.999Z</time></trkpt><trkpt lat="44.532760796411694" lon="10.357268990857797"><ele>269.33333333333337</ele><time>2026-05-02T11:52:50.999Z</time></trkpt><trkpt lat="44.53257980574783" lon="10.357107532099421"><ele>269.0</ele><time>2026-05-02T11:52:51.999Z</time></trkpt><trkpt lat="44.53240787442423" lon="10.356914755948209"><ele>269.0</ele><time>2026-05-02T11:52:52.999Z</time></trkpt><trkpt lat="44.532213832428404" lon="10.356755203151442"><ele>269.0</ele><time>2026-05-02T11:52:53.999Z</time></trkpt><trkpt lat="44.53202952684265" lon="10.356570068743997"><ele>269.6666666666667</ele><time>2026-05-02T11:52:54.999Z</time></trkpt><trkpt lat="44.531855260771565" lon="10.35639209634723"><ele>270.3333333333333</ele><time>2026-05-02T11:52:55.999Z</time></trkpt><trkpt lat="44.53168166430589" lon="10.356225594040172"><ele>271.0</ele><time>2026-05-02T11:52:56.999Z</time></trkpt><trkpt lat="44.53151361984277" lon="10.356058438356857"><ele>271.0</ele><time>2026-05-02T11:52:57.999Z</time></trkpt><trkpt lat="44.5313512513299" lon="10.355901268358075"><ele>271.0</ele><time>2026-05-02T11:52:58.999Z</time></trkpt><trkpt lat="44.53119716668444" lon="10.355758780224527"><ele>271.0</ele><time>2026-05-02T11:52:59.999Z</time></trkpt><trkpt lat="44.53103098945885" lon="10.355653918298149"><ele>269.3333333333333</ele><time>2026-05-02T11:53:00.999Z</time></trkpt><trkpt lat="44.53083550673499" lon="10.355589814011832"><ele>267.6666666666667</ele><time>2026-05-02T11:53:01.999Z</time></trkpt><trkpt lat="44.530626220862175" lon="10.355553551064544"><ele>266.0</ele><time>2026-05-02T11:53:02.999Z</time></trkpt><trkpt lat="44.530411347512945" lon="10.355516458867196"><ele>269.6666666666667</ele><time>2026-05-02T11:53:03.999Z</time></trkpt><trkpt lat="44.53019836100515" lon="10.355481743500633"><ele>273.3333333333333</ele><time>2026-05-02T11:53:05Z</time></trkpt><trkpt lat="44.52999496834114" lon="10.35544142888426"><ele>277.0</ele><time>2026-05-02T11:53:06Z</time></trkpt><trkpt lat="44.529813273946345" lon="10.3554070205644"><ele>277.0</ele><time>2026-05-02T11:53:07Z</time></trkpt><trkpt lat="44.52964105188577" lon="10.355372652623428"><ele>277.0</ele><time>2026-05-02T11:53:08Z</time></trkpt><trkpt lat="44.529477673639995" lon="10.355341639951236"><ele>277.0</ele><time>2026-05-02T11:53:09Z</time></trkpt><trkpt lat="44.52932279342703" lon="10.355294173756903"><ele>277.66666666666663</ele><time>2026-05-02T11:53:10Z</time></trkpt><trkpt lat="44.52918137041004" lon="10.355210430353463"><ele>278.3333333333333</ele><time>2026-05-02T11:53:11Z</time></trkpt><trkpt lat="44.52906339783535" lon="10.355047177331576"><ele>279.0</ele><time>2026-05-02T11:53:12Z</time></trkpt><trkpt lat="44.5289384700232" lon="10.354894652371563"><ele>279.0</ele><time>2026-05-02T11:53:13Z</time></trkpt><trkpt lat="44.528804581535674" lon="10.354736097994794"><ele>279.0</ele><time>2026-05-02T11:53:14Z</time></trkpt><trkpt lat="44.52864724157326" lon="10.354636798448485"><ele>279.0</ele><time>2026-05-02T11:53:15Z</time></trkpt><trkpt lat="44.52848600763344" lon="10.354561196029715"><ele>278.0</ele><time>2026-05-02T11:53:16Z</time></trkpt><trkpt lat="44.52833036119489" lon="10.354491085012016"><ele>277.0</ele><time>2026-05-02T11:53:17Z</time></trkpt><trkpt lat="44.52817384748628" lon="10.354417799446452"><ele>276.0</ele><time>2026-05-02T11:53:18Z</time></trkpt><trkpt lat="44.52800687144504" lon="10.354352475639004"><ele>278.0</ele><time>2026-05-02T11:53:19Z</time></trkpt><trkpt lat="44.52783190661836" lon="10.354294151773933"><ele>280.0</ele><time>2026-05-02T11:53:20Z</time></trkpt><trkpt lat="44.52765044749775" lon="10.354232226777766"><ele>282.0</ele><time>2026-05-02T11:53:21Z</time></trkpt><trkpt lat="44.5274719157705" lon="10.354176833614767"><ele>282.0</ele><time>2026-05-02T11:53:22Z</time></trkpt><trkpt lat="44.52729954158453" lon="10.3541254229189"><ele>282.0</ele><time>2026-05-02T11:53:23Z</time></trkpt><trkpt lat="44.527133611275154" lon="10.354072459626845"><ele>282.0</ele><time>2026-05-02T11:53:24Z</time></trkpt><trkpt lat="44.526963274905306" lon="10.354030414059867"><ele>282.0</ele><time>2026-05-02T11:53:25Z</time></trkpt><trkpt lat="44.5268061591115" lon="10.353985586887735"><ele>282.0</ele><time>2026-05-02T11:53:26Z</time></trkpt><trkpt lat="44.52664565462735" lon="10.353965323995133"><ele>282.0</ele><time>2026-05-02T11:53:27Z</time></trkpt><trkpt lat="44.52648129268959" lon="10.353971554983222"><ele>282.0</ele><time>2026-05-02T11:53:28Z</time></trkpt><trkpt lat="44.52631709033601" lon="10.354001143680998"><ele>282.0</ele><time>2026-05-02T11:53:29Z</time></trkpt><trkpt lat="44.5261519692957" lon="10.35404340196959"><ele>282.0</ele><time>2026-05-02T11:53:30Z</time></trkpt><trkpt lat="44.52600082735771" lon="10.35410892101871"><ele>280.25</ele><time>2026-05-02T11:53:31Z</time></trkpt><trkpt lat="44.525851092990365" lon="10.354183495124227"><ele>278.5</ele><time>2026-05-02T11:53:32Z</time></trkpt><trkpt lat="44.52571204860168" lon="10.35424965967231"><ele>276.75</ele><time>2026-05-02T11:53:33Z</time></trkpt><trkpt lat="44.52558616453253" lon="10.354294081297887"><ele>275.0</ele><time>2026-05-02T11:53:34Z</time></trkpt><trkpt lat="44.52545094037761" lon="10.35426079087913"><ele>274.0</ele><time>2026-05-02T11:53:35Z</time></trkpt><trkpt lat="44.525333799493666" lon="10.35415157192907"><ele>273.0</ele><time>2026-05-02T11:53:36Z</time></trkpt><trkpt lat="44.525221236457284" lon="10.353999676437066"><ele>272.0</ele><time>2026-05-02T11:53:37Z</time></trkpt><trkpt lat="44.52510215582334" lon="10.353828577608363"><ele>271.0</ele><time>2026-05-02T11:53:38Z</time></trkpt><trkpt lat="44.52498970947606" lon="10.353626216114348"><ele>270.0</ele><time>2026-05-02T11:53:39Z</time></trkpt><trkpt lat="44.52486164951161" lon="10.35341456822619"><ele>269.0</ele><time>2026-05-02T11:53:40Z</time></trkpt><trkpt lat="44.52473340905407" lon="10.353211457784726"><ele>268.33333333333337</ele><time>2026-05-02T11:53:41Z</time></trkpt><trkpt lat="44.52460207205385" lon="10.352996966726176"><ele>267.6666666666667</ele><time>2026-05-02T11:53:42Z</time></trkpt><trkpt lat="44.52446403838393" lon="10.352783485869079"><ele>267.0</ele><time>2026-05-02T11:53:43Z</time></trkpt><trkpt lat="44.52432580063574" lon="10.352566253545625"><ele>267.0</ele><time>2026-05-02T11:53:44Z</time></trkpt><trkpt lat="44.524198978763636" lon="10.352356209079307"><ele>267.0</ele><time>2026-05-02T11:53:45Z</time></trkpt><trkpt lat="44.524076928151075" lon="10.35216246674917"><ele>267.0</ele><time>2026-05-02T11:53:46Z</time></trkpt><trkpt lat="44.52396536611154" lon="10.351979297849116"><ele>267.25</ele><time>2026-05-02T11:53:47Z</time></trkpt><trkpt lat="44.52387171925538" lon="10.35182329034008"><ele>267.5</ele><time>2026-05-02T11:53:48Z</time></trkpt><trkpt lat="44.52378507785363" lon="10.35168558224457"><ele>267.75</ele><time>2026-05-02T11:53:49Z</time></trkpt><trkpt lat="44.523701258712556" lon="10.351550575005623"><ele>268.0</ele><time>2026-05-02T11:53:50Z</time></trkpt><trkpt lat="44.52361316345436" lon="10.351409948773146"><ele>269.75</ele><time>2026-05-02T11:53:51Z</time></trkpt><trkpt lat="44.52352732158818" lon="10.351261798761824"><ele>271.5</ele><time>2026-05-02T11:53:52Z</time></trkpt><trkpt lat="44.5234337462482" lon="10.351109130335507"><ele>273.25</ele><time>2026-05-02T11:53:53Z</time></trkpt><trkpt lat="44.52333950493754" lon="10.350957723059416"><ele>275.0</ele><time>2026-05-02T11:53:54Z</time></trkpt><trkpt lat="44.523250641545445" lon="10.350811820983276"><ele>275.0</ele><time>2026-05-02T11:53:55Z</time></trkpt><trkpt lat="44.52316350413403" lon="10.350669568172542"><ele>275.0</ele><time>2026-05-02T11:53:56Z</time></trkpt><trkpt lat="44.52307784789495" lon="10.350529503085507"><ele>275.0</ele><time>2026-05-02T11:53:57Z</time></trkpt><trkpt lat="44.522997035773265" lon="10.350390460811479"><ele>275.0</ele><time>2026-05-02T11:53:58Z</time></trkpt><trkpt lat="44.522923830523645" lon="10.35025552327141"><ele>275.5</ele><time>2026-05-02T11:53:59Z</time></trkpt><trkpt lat="44.52285237932587" lon="10.35011564293745"><ele>276.0</ele><time>2026-05-02T11:54:00Z</time></trkpt><trkpt lat="44.52278191549619" lon="10.349945664848729"><ele>276.5</ele><time>2026-05-02T11:54:01Z</time></trkpt><trkpt lat="44.52271049561423" lon="10.34976164216798"><ele>277.0</ele><time>2026-05-02T11:54:02Z</time></trkpt><trkpt lat="44.52262774046902" lon="10.349570789995461"><ele>277.0</ele><time>2026-05-02T11:54:03Z</time></trkpt><trkpt lat="44.52255418691458" lon="10.349385726567029"><ele>277.0</ele><time>2026-05-02T11:54:04Z</time></trkpt><trkpt lat="44.5224765630785" lon="10.349213496939687"><ele>277.0</ele><time>2026-05-02T11:54:04.999Z</time></trkpt><trkpt lat="44.522382688439635" lon="10.349065083980713"><ele>277.0</ele><time>2026-05-02T11:54:05.999Z</time></trkpt><trkpt lat="44.52225022769457" lon="10.348937578935939"><ele>277.66666666666663</ele><time>2026-05-02T11:54:06.999Z</time></trkpt><trkpt lat="44.52209425136329" lon="10.348826041473448"><ele>278.3333333333333</ele><time>2026-05-02T11:54:07.999Z</time></trkpt><trkpt lat="44.52194597908527" lon="10.348717110748211"><ele>279.0</ele><time>2026-05-02T11:54:08.999Z</time></trkpt><trkpt lat="44.52180316272574" lon="10.348608446130612"><ele>279.0</ele><time>2026-05-02T11:54:09.999Z</time></trkpt><trkpt lat="44.52166543546734" lon="10.348499808846025"><ele>279.0</ele><time>2026-05-02T11:54:10.999Z</time></trkpt><trkpt lat="44.521526694571655" lon="10.348376720070016"><ele>279.0</ele><time>2026-05-02T11:54:11.999Z</time></trkpt><trkpt lat="44.52138793999695" lon="10.348261761502984"><ele>279.0</ele><time>2026-05-02T11:54:12.999Z</time></trkpt><trkpt lat="44.52125487564309" lon="10.348126038467038"><ele>279.0</ele><time>2026-05-02T11:54:13.999Z</time></trkpt><trkpt lat="44.521140647449606" lon="10.34794347313142"><ele>279.0</ele><time>2026-05-02T11:54:14.999Z</time></trkpt><trkpt lat="44.52100546471413" lon="10.347756894273743"><ele>280.0</ele><time>2026-05-02T11:54:15.999Z</time></trkpt><trkpt lat="44.52088031738514" lon="10.347546375855623"><ele>281.0</ele><time>2026-05-02T11:54:16.999Z</time></trkpt><trkpt lat="44.52074943989055" lon="10.347330511413064"><ele>282.0</ele><time>2026-05-02T11:54:17.999Z</time></trkpt><trkpt lat="44.520617031338034" lon="10.347120987007454"><ele>280.0</ele><time>2026-05-02T11:54:18.999Z</time></trkpt><trkpt lat="44.52047905954624" lon="10.34691519766671"><ele>278.0</ele><time>2026-05-02T11:54:19.999Z</time></trkpt><trkpt lat="44.52033625192082" lon="10.346726220369222"><ele>276.0</ele><time>2026-05-02T11:54:20.999Z</time></trkpt><trkpt lat="44.52018488194422" lon="10.346558385355898"><ele>277.3333333333333</ele><time>2026-05-02T11:54:21.999Z</time></trkpt><trkpt lat="44.52002249260166" lon="10.346388201467981"><ele>278.66666666666663</ele><time>2026-05-02T11:54:22.999Z</time></trkpt><trkpt lat="44.519863375055955" lon="10.346216981392555"><ele>280.0</ele><time>2026-05-02T11:54:23.999Z</time></trkpt><trkpt lat="44.519695461363405" lon="10.346058218325373"><ele>284.3333333333333</ele><time>2026-05-02T11:54:24.999Z</time></trkpt><trkpt lat="44.519520049648285" lon="10.345892469943346"><ele>288.6666666666667</ele><time>2026-05-02T11:54:25.999Z</time></trkpt><trkpt lat="44.51934826373338" lon="10.345735232385124"><ele>293.0</ele><time>2026-05-02T11:54:26.999Z</time></trkpt><trkpt lat="44.5191741877786" lon="10.345592046392502"><ele>292.0</ele><time>2026-05-02T11:54:27.999Z</time></trkpt><trkpt lat="44.51900369276507" lon="10.345449579213762"><ele>291.0</ele><time>2026-05-02T11:54:28.999Z</time></trkpt><trkpt lat="44.5188326000187" lon="10.345317602981652"><ele>290.0</ele><time>2026-05-02T11:54:29.999Z</time></trkpt><trkpt lat="44.518655832876966" lon="10.345207488596484"><ele>290.0</ele><time>2026-05-02T11:54:30.999Z</time></trkpt><trkpt lat="44.51847028281461" lon="10.345123408190926"><ele>290.0</ele><time>2026-05-02T11:54:31.999Z</time></trkpt><trkpt lat="44.51828458056393" lon="10.345050537746873"><ele>290.0</ele><time>2026-05-02T11:54:32.999Z</time></trkpt><trkpt lat="44.518113619595965" lon="10.344969863640488"><ele>290.0</ele><time>2026-05-02T11:54:33.999Z</time></trkpt><trkpt lat="44.517960200670345" lon="10.34489241611393"><ele>290.0</ele><time>2026-05-02T11:54:34.999Z</time></trkpt><trkpt lat="44.51782127648658" lon="10.344791739635266"><ele>290.0</ele><time>2026-05-02T11:54:35.999Z</time></trkpt><trkpt lat="44.51770222431299" lon="10.34464413665235"><ele>289.6666666666667</ele><time>2026-05-02T11:54:36.999Z</time></trkpt><trkpt lat="44.51760235517876" lon="10.344473697678666"><ele>289.3333333333333</ele><time>2026-05-02T11:54:37.999Z</time></trkpt><trkpt lat="44.5175054286962" lon="10.344314100388482"><ele>289.0</ele><time>2026-05-02T11:54:38.999Z</time></trkpt><trkpt lat="44.51737142285323" lon="10.344192774597529"><ele>289.0</ele><time>2026-05-02T11:54:39.999Z</time></trkpt><trkpt lat="44.51719685241707" lon="10.344104735430566"><ele>289.0</ele><time>2026-05-02T11:54:40.999Z</time></trkpt><trkpt lat="44.517017725778594" lon="10.344007024355088"><ele>289.0</ele><time>2026-05-02T11:54:41.999Z</time></trkpt><trkpt lat="44.51684592350705" lon="10.343895705409277"><ele>287.3333333333333</ele><time>2026-05-02T11:54:42.999Z</time></trkpt><trkpt lat="44.51666415227445" lon="10.343764304694723"><ele>285.6666666666667</ele><time>2026-05-02T11:54:43.999Z</time></trkpt><trkpt lat="44.51648478909727" lon="10.343646644022154"><ele>284.0</ele><time>2026-05-02T11:54:44.999Z</time></trkpt><trkpt lat="44.516320251990564" lon="10.34354128992176"><ele>285.6666666666667</ele><time>2026-05-02T11:54:45.999Z</time></trkpt><trkpt lat="44.516143570628074" lon="10.343474639354069"><ele>287.3333333333333</ele><time>2026-05-02T11:54:46.999Z</time></trkpt><trkpt lat="44.51594416268985" lon="10.343437894876581"><ele>289.0</ele><time>2026-05-02T11:54:47.999Z</time></trkpt><trkpt lat="44.51573060002196" lon="10.343392434245843"><ele>289.0</ele><time>2026-05-02T11:54:48.999Z</time></trkpt><trkpt lat="44.515512721829964" lon="10.343335056912359"><ele>289.0</ele><time>2026-05-02T11:54:49.999Z</time></trkpt><trkpt lat="44.51529883967596" lon="10.34326881535321"><ele>289.0</ele><time>2026-05-02T11:54:50.999Z</time></trkpt><trkpt lat="44.51508006863616" lon="10.34320347820527"><ele>291.0</ele><time>2026-05-02T11:54:51.999Z</time></trkpt><trkpt lat="44.51486652817005" lon="10.343130735702905"><ele>293.0</ele><time>2026-05-02T11:54:52.999Z</time></trkpt><trkpt lat="44.51463995130704" lon="10.343062619492333"><ele>289.5</ele><time>2026-05-02T11:54:53.999Z</time></trkpt><trkpt lat="44.51441413374675" lon="10.34299044896177"><ele>286.0</ele><time>2026-05-02T11:54:54.999Z</time></trkpt><trkpt lat="44.51418497347366" lon="10.342915219639577"><ele>286.0</ele><time>2026-05-02T11:54:55.999Z</time></trkpt><trkpt lat="44.513977345696375" lon="10.342825123952004"><ele>286.0</ele><time>2026-05-02T11:54:56.999Z</time></trkpt><trkpt lat="44.51376269212264" lon="10.342768692428043"><ele>286.0</ele><time>2026-05-02T11:54:57.999Z</time></trkpt><trkpt lat="44.51356938804685" lon="10.342722995150085"><ele>286.66666666666663</ele><time>2026-05-02T11:54:58.999Z</time></trkpt><trkpt lat="44.51338060785744" lon="10.342689128037305"><ele>287.3333333333333</ele><time>2026-05-02T11:54:59.999Z</time></trkpt><trkpt lat="44.513188195885384" lon="10.342706638080253"><ele>288.0</ele><time>2026-05-02T11:55:00.999Z</time></trkpt><trkpt lat="44.51298652563654" lon="10.342746791150608"><ele>288.0</ele><time>2026-05-02T11:55:01.999Z</time></trkpt><trkpt lat="44.5127758868458" lon="10.342789198337247"><ele>288.0</ele><time>2026-05-02T11:55:02.999Z</time></trkpt><trkpt lat="44.512584762487165" lon="10.342851032792966"><ele>288.0</ele><time>2026-05-02T11:55:03.999Z</time></trkpt><trkpt lat="44.51238378731682" lon="10.342872819314517"><ele>288.0</ele><time>2026-05-02T11:55:04.999Z</time></trkpt><trkpt lat="44.51217824540121" lon="10.342840371211107"><ele>288.0</ele><time>2026-05-02T11:55:05.999Z</time></trkpt><trkpt lat="44.51197177984817" lon="10.342780986849231"><ele>288.0</ele><time>2026-05-02T11:55:06.999Z</time></trkpt><trkpt lat="44.511791414079354" lon="10.342724063682574"><ele>288.0</ele><time>2026-05-02T11:55:07.999Z</time></trkpt><trkpt lat="44.51161601059427" lon="10.342694715615393"><ele>288.0</ele><time>2026-05-02T11:55:08.999Z</time></trkpt><trkpt lat="44.51144218512055" lon="10.342663167584655"><ele>288.0</ele><time>2026-05-02T11:55:09.999Z</time></trkpt><trkpt lat="44.51124548481825" lon="10.342624028688567"><ele>289.3333333333333</ele><time>2026-05-02T11:55:11Z</time></trkpt><trkpt lat="44.51103552376432" lon="10.342571538475532"><ele>290.66666666666663</ele><time>2026-05-02T11:55:12Z</time></trkpt><trkpt lat="44.510815966242745" lon="10.342519184850506"><ele>292.0</ele><time>2026-05-02T11:55:13Z</time></trkpt><trkpt lat="44.510589678678514" lon="10.342465431021205"><ele>293.66666666666663</ele><time>2026-05-02T11:55:14Z</time></trkpt><trkpt lat="44.51036672699587" lon="10.342413144294605"><ele>295.3333333333333</ele><time>2026-05-02T11:55:15Z</time></trkpt><trkpt lat="44.51016353047993" lon="10.342363803758188"><ele>297.0</ele><time>2026-05-02T11:55:16Z</time></trkpt><trkpt lat="44.509980591461506" lon="10.342312430512276"><ele>297.0</ele><time>2026-05-02T11:55:17Z</time></trkpt><trkpt lat="44.50983092254275" lon="10.342275574208696"><ele>297.0</ele><time>2026-05-02T11:55:18Z</time></trkpt><trkpt lat="44.50968872333496" lon="10.342277446898908"><ele>297.0</ele><time>2026-05-02T11:55:19Z</time></trkpt><trkpt lat="44.50956127989849" lon="10.342355930737142"><ele>297.0</ele><time>2026-05-02T11:55:20Z</time></trkpt><trkpt lat="44.50943496850208" lon="10.34250770625048"><ele>295.3333333333333</ele><time>2026-05-02T11:55:21Z</time></trkpt><trkpt lat="44.509308342482825" lon="10.342704070986004"><ele>293.66666666666663</ele><time>2026-05-02T11:55:22Z</time></trkpt><trkpt lat="44.50916263659888" lon="10.34288380490404"><ele>292.0</ele><time>2026-05-02T11:55:23Z</time></trkpt><trkpt lat="44.50899439839166" lon="10.343023001121887"><ele>295.3333333333333</ele><time>2026-05-02T11:55:24Z</time></trkpt><trkpt lat="44.50882191390011" lon="10.343160953996552"><ele>298.6666666666667</ele><time>2026-05-02T11:55:25Z</time></trkpt><trkpt lat="44.5086565546056" lon="10.343288942371595"><ele>302.0</ele><time>2026-05-02T11:55:26Z</time></trkpt><trkpt lat="44.508493334188444" lon="10.343381188000262"><ele>302.0</ele><time>2026-05-02T11:55:27Z</time></trkpt><trkpt lat="44.50832813698468" lon="10.34344394132088"><ele>302.0</ele><time>2026-05-02T11:55:28Z</time></trkpt><trkpt lat="44.50814599422843" lon="10.343491520491037"><ele>302.0</ele><time>2026-05-02T11:55:29Z</time></trkpt><trkpt lat="44.50796615079514" lon="10.343572809184689"><ele>301.33333333333337</ele><time>2026-05-02T11:55:30Z</time></trkpt><trkpt lat="44.507789617400036" lon="10.343666316570921"><ele>300.6666666666667</ele><time>2026-05-02T11:55:31Z</time></trkpt><trkpt lat="44.50761706556048" lon="10.343774817469788"><ele>300.0</ele><time>2026-05-02T11:55:32Z</time></trkpt><trkpt lat="44.50743342160824" lon="10.343856364770884"><ele>302.6666666666667</ele><time>2026-05-02T11:55:33Z</time></trkpt><trkpt lat="44.5072509221574" lon="10.343931361416239"><ele>305.33333333333337</ele><time>2026-05-02T11:55:34Z</time></trkpt><trkpt lat="44.50707390655659" lon="10.343978171692136"><ele>308.0</ele><time>2026-05-02T11:55:35Z</time></trkpt><trkpt lat="44.50690553271317" lon="10.344027943417569"><ele>308.0</ele><time>2026-05-02T11:55:36Z</time></trkpt><trkpt lat="44.506728296916705" lon="10.344046391515388"><ele>308.0</ele><time>2026-05-02T11:55:37Z</time></trkpt><trkpt lat="44.50653783726713" lon="10.344052399249144"><ele>308.0</ele><time>2026-05-02T11:55:38Z</time></trkpt><trkpt lat="44.506341185004864" lon="10.344073023605727"><ele>309.6666666666667</ele><time>2026-05-02T11:55:39Z</time></trkpt><trkpt lat="44.50614288523656" lon="10.344081507248877"><ele>311.3333333333333</ele><time>2026-05-02T11:55:40Z</time></trkpt><trkpt lat="44.505942192846305" lon="10.344090787694581"><ele>313.0</ele><time>2026-05-02T11:55:41Z</time></trkpt><trkpt lat="44.505763806254144" lon="10.344095634267493"><ele>313.0</ele><time>2026-05-02T11:55:42Z</time></trkpt><trkpt lat="44.505607899834914" lon="10.34408203515292"><ele>313.0</ele><time>2026-05-02T11:55:43Z</time></trkpt><trkpt lat="44.50547666839962" lon="10.344053330456259"><ele>313.0</ele><time>2026-05-02T11:55:44Z</time></trkpt><trkpt lat="44.5053627768485" lon="10.343971067286288"><ele>313.0</ele><time>2026-05-02T11:55:45Z</time></trkpt><trkpt lat="44.50526455102013" lon="10.34383189272666"><ele>313.3333333333333</ele><time>2026-05-02T11:55:46Z</time></trkpt><trkpt lat="44.50515123526816" lon="10.343691402300708"><ele>313.6666666666667</ele><time>2026-05-02T11:55:47Z</time></trkpt><trkpt lat="44.50503595210005" lon="10.343541439333258"><ele>314.0</ele><time>2026-05-02T11:55:48Z</time></trkpt><trkpt lat="44.504918177735554" lon="10.343381206800572"><ele>314.0</ele><time>2026-05-02T11:55:49Z</time></trkpt><trkpt lat="44.50480244073931" lon="10.343215041429287"><ele>314.0</ele><time>2026-05-02T11:55:50Z</time></trkpt><trkpt lat="44.504692646029845" lon="10.34304997911524"><ele>314.0</ele><time>2026-05-02T11:55:51Z</time></trkpt><trkpt lat="44.50464096021044" lon="10.342824373067051"><ele>312.0</ele><time>2026-05-02T11:55:52Z</time></trkpt><trkpt lat="44.50462933650809" lon="10.342585148852939"><ele>310.0</ele><time>2026-05-02T11:55:53Z</time></trkpt><trkpt lat="44.50461669071376" lon="10.34233345715664"><ele>308.0</ele><time>2026-05-02T11:55:54Z</time></trkpt><trkpt lat="44.50459042657181" lon="10.342076339185653"><ele>315.0</ele><time>2026-05-02T11:55:55Z</time></trkpt><trkpt lat="44.50457691494367" lon="10.341830354172663"><ele>322.0</ele><time>2026-05-02T11:55:56Z</time></trkpt><trkpt lat="44.50454214553423" lon="10.341593982838887"><ele>329.0</ele><time>2026-05-02T11:55:57Z</time></trkpt><trkpt lat="44.504484140557224" lon="10.341371214522004"><ele>329.0</ele><time>2026-05-02T11:55:58Z</time></trkpt><trkpt lat="44.50442435908364" lon="10.341175316043516"><ele>329.0</ele><time>2026-05-02T11:55:59Z</time></trkpt><trkpt lat="44.5043663706026" lon="10.340997535769775"><ele>329.0</ele><time>2026-05-02T11:56:00Z</time></trkpt><trkpt lat="44.50427883729717" lon="10.340820742914893"><ele>329.0</ele><time>2026-05-02T11:56:01Z</time></trkpt><trkpt lat="44.50417025776709" lon="10.340653329186575"><ele>322.75</ele><time>2026-05-02T11:56:01.999Z</time></trkpt><trkpt lat="44.504063912885094" lon="10.340489441292739"><ele>316.5</ele><time>2026-05-02T11:56:02.999Z</time></trkpt><trkpt lat="44.503958180034786" lon="10.340345776222104"><ele>310.25</ele><time>2026-05-02T11:56:03.999Z</time></trkpt><trkpt lat="44.50386589785364" lon="10.340213191035602"><ele>304.0</ele><time>2026-05-02T11:56:04.999Z</time></trkpt><trkpt lat="44.50379248622465" lon="10.340085501517423"><ele>308.5</ele><time>2026-05-02T11:56:05.999Z</time></trkpt><trkpt lat="44.50374077723608" lon="10.339955295292786"><ele>313.0</ele><time>2026-05-02T11:56:06.999Z</time></trkpt><trkpt lat="44.50367080011773" lon="10.339851599448103"><ele>317.5</ele><time>2026-05-02T11:56:07.999Z</time></trkpt><trkpt lat="44.50356727363756" lon="10.339795532140135"><ele>322.0</ele><time>2026-05-02T11:56:08.999Z</time></trkpt><trkpt lat="44.50343242623169" lon="10.339805811315623"><ele>322.0</ele><time>2026-05-02T11:56:09.999Z</time></trkpt><trkpt lat="44.50330841303811" lon="10.339890337107073"><ele>322.0</ele><time>2026-05-02T11:56:10.999Z</time></trkpt><trkpt lat="44.50320683150464" lon="10.340025203848258"><ele>322.0</ele><time>2026-05-02T11:56:11.999Z</time></trkpt><trkpt lat="44.50310769330751" lon="10.340170418751573"><ele>322.0</ele><time>2026-05-02T11:56:12.999Z</time></trkpt><trkpt lat="44.50299311084274" lon="10.340268778218205"><ele>323.75</ele><time>2026-05-02T11:56:13.999Z</time></trkpt><trkpt lat="44.50287968001521" lon="10.340316150645247"><ele>325.5</ele><time>2026-05-02T11:56:14.999Z</time></trkpt><trkpt lat="44.502772984615184" lon="10.340305639995599"><ele>327.25</ele><time>2026-05-02T11:56:15.999Z</time></trkpt><trkpt lat="44.502675546465" lon="10.340240757526823"><ele>329.0</ele><time>2026-05-02T11:56:16.999Z</time></trkpt><trkpt lat="44.50258500425004" lon="10.340110176148839"><ele>329.0</ele><time>2026-05-02T11:56:17.999Z</time></trkpt><trkpt lat="44.50248572833481" lon="10.33996876948318"><ele>329.0</ele><time>2026-05-02T11:56:18.999Z</time></trkpt><trkpt lat="44.50237011335576" lon="10.339831872206847"><ele>329.0</ele><time>2026-05-02T11:56:19.999Z</time></trkpt><trkpt lat="44.50226510117585" lon="10.339722732237062"><ele>329.0</ele><time>2026-05-02T11:56:20.999Z</time></trkpt><trkpt lat="44.50215452364905" lon="10.339651724495981"><ele>325.6666666666667</ele><time>2026-05-02T11:56:21.999Z</time></trkpt><trkpt lat="44.502010683249324" lon="10.339621919120894"><ele>322.3333333333333</ele><time>2026-05-02T11:56:22.999Z</time></trkpt><trkpt lat="44.50185660107458" lon="10.339633024202804"><ele>319.0</ele><time>2026-05-02T11:56:23.999Z</time></trkpt><trkpt lat="44.50169677694582" lon="10.339656306497682"><ele>319.0</ele><time>2026-05-02T11:56:24.999Z</time></trkpt><trkpt lat="44.501522701429614" lon="10.339653798996174"><ele>319.0</ele><time>2026-05-02T11:56:25.999Z</time></trkpt><trkpt lat="44.50134840256954" lon="10.339602749326344"><ele>319.0</ele><time>2026-05-02T11:56:26.999Z</time></trkpt><trkpt lat="44.501188662449884" lon="10.339532307920365"><ele>325.66666666666663</ele><time>2026-05-02T11:56:27.999Z</time></trkpt><trkpt lat="44.50104688023432" lon="10.339414486231071"><ele>332.3333333333333</ele><time>2026-05-02T11:56:28.999Z</time></trkpt><trkpt lat="44.500885068626566" lon="10.339326491770255"><ele>339.0</ele><time>2026-05-02T11:56:29.999Z</time></trkpt><trkpt lat="44.50072769172849" lon="10.33919011867422"><ele>339.0</ele><time>2026-05-02T11:56:30.999Z</time></trkpt><trkpt lat="44.500555155095796" lon="10.339076798544363"><ele>339.0</ele><time>2026-05-02T11:56:31.999Z</time></trkpt><trkpt lat="44.500388357200436" lon="10.33895389086877"><ele>339.0</ele><time>2026-05-02T11:56:32.999Z</time></trkpt><trkpt lat="44.50023973842003" lon="10.33882743138168"><ele>340.0</ele><time>2026-05-02T11:56:33.999Z</time></trkpt><trkpt lat="44.50012066274097" lon="10.338680308493519"><ele>341.0</ele><time>2026-05-02T11:56:34.999Z</time></trkpt><trkpt lat="44.50002436442849" lon="10.338515561149885"><ele>342.0</ele><time>2026-05-02T11:56:35.999Z</time></trkpt><trkpt lat="44.499931744297086" lon="10.33836864963305"><ele>342.0</ele><time>2026-05-02T11:56:36.999Z</time></trkpt><trkpt lat="44.49984834272214" lon="10.338225334479844"><ele>342.0</ele><time>2026-05-02T11:56:37.999Z</time></trkpt><trkpt lat="44.49974574760794" lon="10.338127384003975"><ele>342.0</ele><time>2026-05-02T11:56:38.999Z</time></trkpt><trkpt lat="44.499622175388104" lon="10.338065750494689"><ele>342.0</ele><time>2026-05-02T11:56:39.999Z</time></trkpt><trkpt lat="44.499506477592526" lon="10.33807593213301"><ele>342.0</ele><time>2026-05-02T11:56:40.999Z</time></trkpt><trkpt lat="44.49940020732726" lon="10.338161023264867"><ele>342.0</ele><time>2026-05-02T11:56:41.999Z</time></trkpt><trkpt lat="44.49930297979127" lon="10.3383107644456"><ele>342.0</ele><time>2026-05-02T11:56:42.999Z</time></trkpt><trkpt lat="44.49921540634744" lon="10.338503635818931"><ele>342.0</ele><time>2026-05-02T11:56:43.999Z</time></trkpt><trkpt lat="44.49908390539191" lon="10.338634980068921"><ele>342.0</ele><time>2026-05-02T11:56:44.999Z</time></trkpt><trkpt lat="44.49893641332526" lon="10.338749786537326"><ele>342.0</ele><time>2026-05-02T11:56:45.999Z</time></trkpt><trkpt lat="44.49879368946339" lon="10.338855366061297"><ele>342.0</ele><time>2026-05-02T11:56:46.999Z</time></trkpt><trkpt lat="44.49866048623036" lon="10.338951234748441"><ele>347.0</ele><time>2026-05-02T11:56:47.999Z</time></trkpt><trkpt lat="44.498528448986185" lon="10.339045203291015"><ele>352.0</ele><time>2026-05-02T11:56:48.999Z</time></trkpt><trkpt lat="44.49838131822641" lon="10.339068903324822"><ele>357.0</ele><time>2026-05-02T11:56:49.999Z</time></trkpt><trkpt lat="44.4982310940817" lon="10.339063838562408"><ele>362.0</ele><time>2026-05-02T11:56:50.999Z</time></trkpt><trkpt lat="44.49807196673375" lon="10.339045827684918"><ele>362.0</ele><time>2026-05-02T11:56:51.999Z</time></trkpt><trkpt lat="44.497928868964486" lon="10.338963730816575"><ele>362.0</ele><time>2026-05-02T11:56:52.999Z</time></trkpt><trkpt lat="44.49777130857343" lon="10.3388428798078"><ele>362.0</ele><time>2026-05-02T11:56:53.999Z</time></trkpt><trkpt lat="44.497600802057676" lon="10.338708978598252"><ele>358.0</ele><time>2026-05-02T11:56:54.999Z</time></trkpt><trkpt lat="44.49745470901102" lon="10.338550922721547"><ele>354.0</ele><time>2026-05-02T11:56:55.999Z</time></trkpt><trkpt lat="44.49730435641735" lon="10.338398942894289"><ele>350.0</ele><time>2026-05-02T11:56:56.999Z</time></trkpt><trkpt lat="44.497130017364725" lon="10.338277841548264"><ele>344.6666666666667</ele><time>2026-05-02T11:56:57.999Z</time></trkpt><trkpt lat="44.4969354216069" lon="10.33818089203571"><ele>339.3333333333333</ele><time>2026-05-02T11:56:58.999Z</time></trkpt><trkpt lat="44.49675347283509" lon="10.338100501708327"><ele>334.0</ele><time>2026-05-02T11:56:59.999Z</time></trkpt><trkpt lat="44.49657892451242" lon="10.338016125210778"><ele>334.0</ele><time>2026-05-02T11:57:00.999Z</time></trkpt><trkpt lat="44.49639627877036" lon="10.337941187957266"><ele>334.0</ele><time>2026-05-02T11:57:01.999Z</time></trkpt><trkpt lat="44.49620831476034" lon="10.337899986786912"><ele>334.0</ele><time>2026-05-02T11:57:02.999Z</time></trkpt><trkpt lat="44.49601244988709" lon="10.337864937555938"><ele>339.0</ele><time>2026-05-02T11:57:03.999Z</time></trkpt><trkpt lat="44.49581556250836" lon="10.337825918487603"><ele>344.0</ele><time>2026-05-02T11:57:04.999Z</time></trkpt><trkpt lat="44.49563255863046" lon="10.337786149692251"><ele>349.0</ele><time>2026-05-02T11:57:05.999Z</time></trkpt><trkpt lat="44.49546315136276" lon="10.337731794220057"><ele>354.3333333333333</ele><time>2026-05-02T11:57:06.999Z</time></trkpt><trkpt lat="44.49531217237076" lon="10.337672599381696"><ele>359.6666666666667</ele><time>2026-05-02T11:57:07.999Z</time></trkpt><trkpt lat="44.49517451582557" lon="10.337583600172083"><ele>365.0</ele><time>2026-05-02T11:57:08.999Z</time></trkpt><trkpt lat="44.495047816090675" lon="10.337479496692207"><ele>365.0</ele><time>2026-05-02T11:57:09.999Z</time></trkpt><trkpt lat="44.49492391030623" lon="10.337394616175924"><ele>365.0</ele><time>2026-05-02T11:57:10.999Z</time></trkpt><trkpt lat="44.49480833273108" lon="10.33737418558133"><ele>365.0</ele><time>2026-05-02T11:57:11.999Z</time></trkpt><trkpt lat="44.49465415953523" lon="10.337341481701616"><ele>365.0</ele><time>2026-05-02T11:57:12.999Z</time></trkpt><trkpt lat="44.49450392346039" lon="10.337326759589535"><ele>363.25</ele><time>2026-05-02T11:57:13.999Z</time></trkpt><trkpt lat="44.4943633351578" lon="10.337286536417674"><ele>361.5</ele><time>2026-05-02T11:57:14.999Z</time></trkpt><trkpt lat="44.49422672125895" lon="10.337244073889169"><ele>359.75</ele><time>2026-05-02T11:57:15.999Z</time></trkpt><trkpt lat="44.49412264741262" lon="10.337199568991133"><ele>358.0</ele><time>2026-05-02T11:57:17Z</time></trkpt><trkpt lat="44.494031504282354" lon="10.337138940409641"><ele>358.0</ele><time>2026-05-02T11:57:18Z</time></trkpt><trkpt lat="44.49395297029078" lon="10.337045472720478"><ele>358.0</ele><time>2026-05-02T11:57:19Z</time></trkpt><trkpt lat="44.493897395128734" lon="10.33691466001002"><ele>358.0</ele><time>2026-05-02T11:57:20Z</time></trkpt><trkpt lat="44.49385156777941" lon="10.336745142333639"><ele>358.0</ele><time>2026-05-02T11:57:21Z</time></trkpt><trkpt lat="44.493840650130274" lon="10.336553376173857"><ele>353.25</ele><time>2026-05-02T11:57:22Z</time></trkpt><trkpt lat="44.49383850800963" lon="10.336372617390952"><ele>348.5</ele><time>2026-05-02T11:57:23Z</time></trkpt><trkpt lat="44.49380075685855" lon="10.336198084967192"><ele>343.75</ele><time>2026-05-02T11:57:24Z</time></trkpt><trkpt lat="44.49370897305435" lon="10.336039438401592"><ele>339.0</ele><time>2026-05-02T11:57:25Z</time></trkpt><trkpt lat="44.49359203987654" lon="10.335891521311869"><ele>349.6666666666667</ele><time>2026-05-02T11:57:26Z</time></trkpt><trkpt lat="44.49348635683306" lon="10.335707622978735"><ele>360.33333333333337</ele><time>2026-05-02T11:57:27Z</time></trkpt><trkpt lat="44.49341344667434" lon="10.335485137376743"><ele>371.0</ele><time>2026-05-02T11:57:28Z</time></trkpt><trkpt lat="44.49333795871521" lon="10.33527619588408"><ele>371.0</ele><time>2026-05-02T11:57:29Z</time></trkpt><trkpt lat="44.49326353414247" lon="10.335078677372563"><ele>371.0</ele><time>2026-05-02T11:57:30Z</time></trkpt><trkpt lat="44.4931985717363" lon="10.334899226359864"><ele>371.0</ele><time>2026-05-02T11:57:31Z</time></trkpt><trkpt lat="44.49317357771657" lon="10.334714727438943"><ele>371.0</ele><time>2026-05-02T11:57:32Z</time></trkpt><trkpt lat="44.49317846616038" lon="10.334533697860838"><ele>369.5</ele><time>2026-05-02T11:57:33Z</time></trkpt><trkpt lat="44.49317646200483" lon="10.334360717394553"><ele>368.0</ele><time>2026-05-02T11:57:34Z</time></trkpt><trkpt lat="44.49314876242593" lon="10.334193430855256"><ele>366.5</ele><time>2026-05-02T11:57:35Z</time></trkpt><trkpt lat="44.49309037011795" lon="10.334048894649534"><ele>365.0</ele><time>2026-05-02T11:57:36Z</time></trkpt><trkpt lat="44.49300287299769" lon="10.33392946379319"><ele>363.75</ele><time>2026-05-02T11:57:37Z</time></trkpt><trkpt lat="44.492924673936955" lon="10.333790518693407"><ele>362.5</ele><time>2026-05-02T11:57:38Z</time></trkpt><trkpt lat="44.49289820864507" lon="10.333614001965264"><ele>361.25</ele><time>2026-05-02T11:57:39Z</time></trkpt><trkpt lat="44.492938250545265" lon="10.333482903315076"><ele>360.0</ele><time>2026-05-02T11:57:40Z</time></trkpt><trkpt lat="44.492959258449105" lon="10.333313940155595"><ele>360.0</ele><time>2026-05-02T11:57:41Z</time></trkpt><trkpt lat="44.492949786062184" lon="10.333136873185383"><ele>360.0</ele><time>2026-05-02T11:57:42Z</time></trkpt><trkpt lat="44.49285727403614" lon="10.332976970197084"><ele>360.0</ele><time>2026-05-02T11:57:43Z</time></trkpt><trkpt lat="44.49270773753019" lon="10.332923256205516"><ele>360.0</ele><time>2026-05-02T11:57:44Z</time></trkpt><trkpt lat="44.492564618761094" lon="10.333010690806056"><ele>365.25</ele><time>2026-05-02T11:57:45Z</time></trkpt><trkpt lat="44.49243908495887" lon="10.333068231594243"><ele>370.5</ele><time>2026-05-02T11:57:46Z</time></trkpt><trkpt lat="44.49231552690678" lon="10.33310289137923"><ele>375.75</ele><time>2026-05-02T11:57:47Z</time></trkpt><trkpt lat="44.49218326896198" lon="10.333133435615235"><ele>381.0</ele><time>2026-05-02T11:57:48Z</time></trkpt><trkpt lat="44.49207667614145" lon="10.333158599206769"><ele>381.0</ele><time>2026-05-02T11:57:49Z</time></trkpt><trkpt lat="44.49198552104109" lon="10.333254173834407"><ele>381.0</ele><time>2026-05-02T11:57:50Z</time></trkpt><trkpt lat="44.491912142907786" lon="10.333401104365953"><ele>381.0</ele><time>2026-05-02T11:57:51Z</time></trkpt><trkpt lat="44.49181556392354" lon="10.333511681803593"><ele>381.0</ele><time>2026-05-02T11:57:52Z</time></trkpt><trkpt lat="44.49168107459097" lon="10.333561445786863"><ele>381.0</ele><time>2026-05-02T11:57:53Z</time></trkpt><trkpt lat="44.491523138816625" lon="10.333556411964636"><ele>381.0</ele><time>2026-05-02T11:57:54Z</time></trkpt><trkpt lat="44.49136076329998" lon="10.333543660622738"><ele>381.0</ele><time>2026-05-02T11:57:55Z</time></trkpt><trkpt lat="44.49119660903983" lon="10.333559778489272"><ele>383.66666666666663</ele><time>2026-05-02T11:57:56Z</time></trkpt><trkpt lat="44.491042122436234" lon="10.333573776277326"><ele>386.3333333333333</ele><time>2026-05-02T11:57:57Z</time></trkpt><trkpt lat="44.49089311050984" lon="10.333522375514292"><ele>389.0</ele><time>2026-05-02T11:57:58Z</time></trkpt><trkpt lat="44.49074095465019" lon="10.333472270658444"><ele>389.0</ele><time>2026-05-02T11:57:59Z</time></trkpt><trkpt lat="44.49058602208436" lon="10.333419147528746"><ele>389.0</ele><time>2026-05-02T11:58:00Z</time></trkpt><trkpt lat="44.49041673290436" lon="10.333349492118497"><ele>389.0</ele><time>2026-05-02T11:58:01Z</time></trkpt><trkpt lat="44.490263459291185" lon="10.333264176440142"><ele>387.66666666666663</ele><time>2026-05-02T11:58:02Z</time></trkpt><trkpt lat="44.49009527689956" lon="10.333168826774985"><ele>386.33333333333337</ele><time>2026-05-02T11:58:03Z</time></trkpt><trkpt lat="44.48993548342748" lon="10.333093076319363"><ele>385.0</ele><time>2026-05-02T11:58:04Z</time></trkpt><trkpt lat="44.489798395867744" lon="10.333017083860057"><ele>385.0</ele><time>2026-05-02T11:58:05Z</time></trkpt><trkpt lat="44.489679578510675" lon="10.332895891365458"><ele>385.0</ele><time>2026-05-02T11:58:06Z</time></trkpt><trkpt lat="44.4895697514112" lon="10.332735646102792"><ele>385.0</ele><time>2026-05-02T11:58:07Z</time></trkpt><trkpt lat="44.489467087781556" lon="10.332586499234136"><ele>383.2</ele><time>2026-05-02T11:58:08Z</time></trkpt><trkpt lat="44.4893780426525" lon="10.332454602639782"><ele>381.4</ele><time>2026-05-02T11:58:09Z</time></trkpt><trkpt lat="44.489299249451086" lon="10.332338564853083"><ele>379.6</ele><time>2026-05-02T11:58:09.999Z</time></trkpt><trkpt lat="44.48921724282968" lon="10.332252403090154"><ele>377.8</ele><time>2026-05-02T11:58:10.999Z</time></trkpt><trkpt lat="44.48912707777783" lon="10.33220665364237"><ele>376.0</ele><time>2026-05-02T11:58:11.999Z</time></trkpt><trkpt lat="44.489025236490264" lon="10.332237566034546"><ele>375.75</ele><time>2026-05-02T11:58:12.999Z</time></trkpt><trkpt lat="44.488921721286616" lon="10.33233207172333"><ele>375.5</ele><time>2026-05-02T11:58:13.999Z</time></trkpt><trkpt lat="44.48882055270778" lon="10.33245454281894"><ele>375.25</ele><time>2026-05-02T11:58:14.999Z</time></trkpt><trkpt lat="44.4887370122423" lon="10.332569624150317"><ele>375.0</ele><time>2026-05-02T11:58:15.999Z</time></trkpt><trkpt lat="44.48867973677251" lon="10.332703421192035"><ele>375.0</ele><time>2026-05-02T11:58:16.999Z</time></trkpt><trkpt lat="44.488665553433854" lon="10.332875373255323"><ele>375.0</ele><time>2026-05-02T11:58:17.999Z</time></trkpt><trkpt lat="44.488676520304764" lon="10.333068031609185"><ele>375.0</ele><time>2026-05-02T11:58:18.999Z</time></trkpt><trkpt lat="44.488636709990764" lon="10.333247634901063"><ele>375.0</ele><time>2026-05-02T11:58:19.999Z</time></trkpt><trkpt lat="44.48857998715946" lon="10.333429227070784"><ele>382.0</ele><time>2026-05-02T11:58:20.999Z</time></trkpt><trkpt lat="44.48852088672718" lon="10.333619218253025"><ele>389.0</ele><time>2026-05-02T11:58:21.999Z</time></trkpt><trkpt lat="44.48846474434035" lon="10.333830252983"><ele>396.0</ele><time>2026-05-02T11:58:22.999Z</time></trkpt><trkpt lat="44.4883926368887" lon="10.334029547743961"><ele>400.0</ele><time>2026-05-02T11:58:23.999Z</time></trkpt><trkpt lat="44.48831968378876" lon="10.334215036858238"><ele>404.0</ele><time>2026-05-02T11:58:24.999Z</time></trkpt><trkpt lat="44.48825000097208" lon="10.334383525550841"><ele>408.0</ele><time>2026-05-02T11:58:25.999Z</time></trkpt><trkpt lat="44.4881862770119" lon="10.334536556776738"><ele>412.0</ele><time>2026-05-02T11:58:26.999Z</time></trkpt><trkpt lat="44.48809600552129" lon="10.334646962750849"><ele>413.25</ele><time>2026-05-02T11:58:27.999Z</time></trkpt><trkpt lat="44.48797099635653" lon="10.334722270708003"><ele>414.5</ele><time>2026-05-02T11:58:28.999Z</time></trkpt><trkpt lat="44.487837772964674" lon="10.334754357233946"><ele>415.75</ele><time>2026-05-02T11:58:29.999Z</time></trkpt><trkpt lat="44.48770187712497" lon="10.334822206980267"><ele>417.0</ele><time>2026-05-02T11:58:30.999Z</time></trkpt><trkpt lat="44.48757628885118" lon="10.334943010623718"><ele>417.0</ele><time>2026-05-02T11:58:31.999Z</time></trkpt><trkpt lat="44.487459092467596" lon="10.335065550604238"><ele>417.0</ele><time>2026-05-02T11:58:32.999Z</time></trkpt><trkpt lat="44.48734344921574" lon="10.335171805492838"><ele>417.0</ele><time>2026-05-02T11:58:33.999Z</time></trkpt><trkpt lat="44.48720948335937" lon="10.335250447606603"><ele>417.0</ele><time>2026-05-02T11:58:34.999Z</time></trkpt><trkpt lat="44.48706442461488" lon="10.335264430028106"><ele>417.66666666666663</ele><time>2026-05-02T11:58:35.999Z</time></trkpt><trkpt lat="44.48690769406291" lon="10.33522706969431"><ele>418.3333333333333</ele><time>2026-05-02T11:58:36.999Z</time></trkpt><trkpt lat="44.48675588640046" lon="10.335171494412545"><ele>419.0</ele><time>2026-05-02T11:58:37.999Z</time></trkpt><trkpt lat="44.48659023521784" lon="10.335143218702042"><ele>419.0</ele><time>2026-05-02T11:58:38.999Z</time></trkpt><trkpt lat="44.48644820306331" lon="10.33511144778235"><ele>419.0</ele><time>2026-05-02T11:58:39.999Z</time></trkpt><trkpt lat="44.486336183752876" lon="10.335080314035027"><ele>419.0</ele><time>2026-05-02T11:58:40.999Z</time></trkpt><trkpt lat="44.48623710952873" lon="10.335055283975693"><ele>419.0</ele><time>2026-05-02T11:58:41.999Z</time></trkpt><trkpt lat="44.48614605806431" lon="10.335034323602244"><ele>422.5</ele><time>2026-05-02T11:58:42.999Z</time></trkpt><trkpt lat="44.48577351398912" lon="10.334978781057615"><ele>426.0</ele><time>2026-05-02T11:58:43.999Z</time></trkpt><trkpt lat="44.4856325265228" lon="10.334960842014194"><ele>426.0</ele><time>2026-05-02T11:58:44.999Z</time></trkpt><trkpt lat="44.485502645550014" lon="10.33497537363382"><ele>426.0</ele><time>2026-05-02T11:58:45.999Z</time></trkpt><trkpt lat="44.485381472586646" lon="10.335028087351443"><ele>426.0</ele><time>2026-05-02T11:58:46.999Z</time></trkpt><trkpt lat="44.485268655488156" lon="10.335138206113374"><ele>426.0</ele><time>2026-05-02T11:58:47.999Z</time></trkpt><trkpt lat="44.48516490227461" lon="10.335248957077159"><ele>424.75</ele><time>2026-05-02T11:58:48.999Z</time></trkpt><trkpt lat="44.4850480708516" lon="10.335311706293938"><ele>423.5</ele><time>2026-05-02T11:58:49.999Z</time></trkpt><trkpt lat="44.48492110698849" lon="10.335278180214472"><ele>422.25</ele><time>2026-05-02T11:58:50.999Z</time></trkpt><trkpt lat="44.48479575516522" lon="10.335218889240993"><ele>421.0</ele><time>2026-05-02T11:58:51.999Z</time></trkpt><trkpt lat="44.48468532577989" lon="10.335196046949951"><ele>422.25</ele><time>2026-05-02T11:58:52.999Z</time></trkpt><trkpt lat="44.48458172365434" lon="10.335181394832118"><ele>423.5</ele><time>2026-05-02T11:58:53.999Z</time></trkpt><trkpt lat="44.48446832865275" lon="10.33521717377417"><ele>424.75</ele><time>2026-05-02T11:58:54.999Z</time></trkpt><trkpt lat="44.48435104513735" lon="10.33527449307619"><ele>426.0</ele><time>2026-05-02T11:58:55.999Z</time></trkpt><trkpt lat="44.484239971901616" lon="10.335334946084096"><ele>426.0</ele><time>2026-05-02T11:58:56.999Z</time></trkpt><trkpt lat="44.48414144568539" lon="10.335381481709588"><ele>426.0</ele><time>2026-05-02T11:58:57.999Z</time></trkpt><trkpt lat="44.48405595793224" lon="10.33542296304009"><ele>426.0</ele><time>2026-05-02T11:58:58.999Z</time></trkpt><trkpt lat="44.483988031068634" lon="10.335450414418906"><ele>426.0</ele><time>2026-05-02T11:58:59.999Z</time></trkpt><trkpt lat="44.483913380382475" lon="10.335511944938693"><ele>426.0</ele><time>2026-05-02T11:59:00.999Z</time></trkpt><trkpt lat="44.48385023454342" lon="10.335592941315838"><ele>426.0</ele><time>2026-05-02T11:59:01.999Z</time></trkpt><trkpt lat="44.48379920327265" lon="10.335694185615433"><ele>428.4</ele><time>2026-05-02T11:59:02.999Z</time></trkpt><trkpt lat="44.48375539385838" lon="10.335801332658752"><ele>430.8</ele><time>2026-05-02T11:59:03.999Z</time></trkpt><trkpt lat="44.48372209950611" lon="10.335915469313845"><ele>433.19999999999993</ele><time>2026-05-02T11:59:04.999Z</time></trkpt><trkpt lat="44.48370042712167" lon="10.33604166955423"><ele>435.59999999999997</ele><time>2026-05-02T11:59:05.999Z</time></trkpt><trkpt lat="44.48367555366223" lon="10.3361659246941"><ele>438.0</ele><time>2026-05-02T11:59:06.999Z</time></trkpt><trkpt lat="44.483674738451384" lon="10.336305266755524"><ele>438.0</ele><time>2026-05-02T11:59:07.999Z</time></trkpt><trkpt lat="44.483671464865196" lon="10.336438211590504"><ele>437.99999999999994</ele><time>2026-05-02T11:59:08.999Z</time></trkpt><trkpt lat="44.48368955328106" lon="10.336576383597595"><ele>437.99999999999994</ele><time>2026-05-02T11:59:09.999Z</time></trkpt><trkpt lat="44.48372626948644" lon="10.336728025636905"><ele>438.0</ele><time>2026-05-02T11:59:10.999Z</time></trkpt><trkpt lat="44.483774754280454" lon="10.336863884424465"><ele>438.0</ele><time>2026-05-02T11:59:11.999Z</time></trkpt><trkpt lat="44.48380785340921" lon="10.337014761093648"><ele>438.4</ele><time>2026-05-02T11:59:12.999Z</time></trkpt><trkpt lat="44.48385004785537" lon="10.337154794679588"><ele>438.79999999999995</ele><time>2026-05-02T11:59:13.999Z</time></trkpt><trkpt lat="44.483884367302686" lon="10.337305153922111"><ele>439.2</ele><time>2026-05-02T11:59:14.999Z</time></trkpt><trkpt lat="44.48389852508681" lon="10.33746050323582"><ele>439.6</ele><time>2026-05-02T11:59:15.999Z</time></trkpt><trkpt lat="44.48390224271088" lon="10.337610344343966"><ele>440.0</ele><time>2026-05-02T11:59:16.999Z</time></trkpt><trkpt lat="44.483887391996795" lon="10.337742431661626"><ele>440.0</ele><time>2026-05-02T11:59:17.999Z</time></trkpt><trkpt lat="44.48387038580054" lon="10.33786375003437"><ele>440.0</ele><time>2026-05-02T11:59:18.999Z</time></trkpt><trkpt lat="44.483852461580554" lon="10.337977443687759"><ele>440.0</ele><time>2026-05-02T11:59:19.999Z</time></trkpt><trkpt lat="44.48383432506872" lon="10.338092484015613"><ele>440.0</ele><time>2026-05-02T11:59:20.999Z</time></trkpt><trkpt lat="44.483814030465375" lon="10.33822253789799"><ele>440.0</ele><time>2026-05-02T11:59:21.999Z</time></trkpt><trkpt lat="44.4838028338609" lon="10.338368289175556"><ele>440.2</ele><time>2026-05-02T11:59:23Z</time></trkpt><trkpt lat="44.483780354655245" lon="10.33851533004939"><ele>440.4</ele><time>2026-05-02T11:59:24Z</time></trkpt><trkpt lat="44.48374950390227" lon="10.338660007113749"><ele>440.6</ele><time>2026-05-02T11:59:25Z</time></trkpt><trkpt lat="44.483730708673406" lon="10.33880024312543"><ele>440.8</ele><time>2026-05-02T11:59:26Z</time></trkpt><trkpt lat="44.48370725783638" lon="10.338937149481843"><ele>441.0</ele><time>2026-05-02T11:59:27Z</time></trkpt><trkpt lat="44.483676359823285" lon="10.339056257554924"><ele>441.0</ele><time>2026-05-02T11:59:28Z</time></trkpt><trkpt lat="44.48363621764062" lon="10.339165733816358"><ele>441.0</ele><time>2026-05-02T11:59:29Z</time></trkpt><trkpt lat="44.48357754479496" lon="10.339267935622836"><ele>441.0</ele><time>2026-05-02T11:59:30Z</time></trkpt><trkpt lat="44.48350314590825" lon="10.339357420668367"><ele>441.0</ele><time>2026-05-02T11:59:31Z</time></trkpt><trkpt lat="44.4834087286004" lon="10.33944432100658"><ele>441.0</ele><time>2026-05-02T11:59:32Z</time></trkpt><trkpt lat="44.48331909000689" lon="10.33953878555975"><ele>441.0</ele><time>2026-05-02T11:59:33Z</time></trkpt><trkpt lat="44.48321887685838" lon="10.33962956501932"><ele>441.0</ele><time>2026-05-02T11:59:34Z</time></trkpt><trkpt lat="44.483120718892195" lon="10.339714995713733"><ele>441.0</ele><time>2026-05-02T11:59:35Z</time></trkpt><trkpt lat="44.48302576458778" lon="10.339778954078737"><ele>441.0</ele><time>2026-05-02T11:59:36Z</time></trkpt><trkpt lat="44.48292698840061" lon="10.33980273463399"><ele>441.0</ele><time>2026-05-02T11:59:37Z</time></trkpt><trkpt lat="44.482816160762646" lon="10.3397981466976"><ele>441.20000000000005</ele><time>2026-05-02T11:59:38Z</time></trkpt><trkpt lat="44.48269923106059" lon="10.33976398278048"><ele>441.40000000000003</ele><time>2026-05-02T11:59:39Z</time></trkpt><trkpt lat="44.482588116015144" lon="10.339712837867694"><ele>441.6</ele><time>2026-05-02T11:59:40Z</time></trkpt><trkpt lat="44.48249037610689" lon="10.339666076501766"><ele>441.8</ele><time>2026-05-02T11:59:41Z</time></trkpt><trkpt lat="44.482405009978386" lon="10.339590617238036"><ele>442.0</ele><time>2026-05-02T11:59:42Z</time></trkpt><trkpt lat="44.48232825341543" lon="10.339473202473906"><ele>442.0</ele><time>2026-05-02T11:59:43Z</time></trkpt><trkpt lat="44.48227293730624" lon="10.339318450829499"><ele>442.0</ele><time>2026-05-02T11:59:44Z</time></trkpt><trkpt lat="44.48219025258385" lon="10.33913822957131"><ele>442.0</ele><time>2026-05-02T11:59:45Z</time></trkpt><trkpt lat="44.48209365768242" lon="10.338969870901067"><ele>442.0</ele><time>2026-05-02T11:59:46Z</time></trkpt><trkpt lat="44.48199655667977" lon="10.338789636546482"><ele>445.33333333333337</ele><time>2026-05-02T11:59:47Z</time></trkpt><trkpt lat="44.481894097008805" lon="10.338613672740454"><ele>448.66666666666663</ele><time>2026-05-02T11:59:48Z</time></trkpt><trkpt lat="44.48179807928645" lon="10.338441710564608"><ele>452.0</ele><time>2026-05-02T11:59:49Z</time></trkpt><trkpt lat="44.48170633208156" lon="10.338290365834593"><ele>452.0</ele><time>2026-05-02T11:59:50Z</time></trkpt><trkpt lat="44.481609588917685" lon="10.33815953624226"><ele>452.0</ele><time>2026-05-02T11:59:51Z</time></trkpt><trkpt lat="44.481521709083964" lon="10.3380310974853"><ele>452.0</ele><time>2026-05-02T11:59:52Z</time></trkpt><trkpt lat="44.4814439661563" lon="10.337899341766654"><ele>452.0</ele><time>2026-05-02T11:59:53Z</time></trkpt><trkpt lat="44.481371756335506" lon="10.337757462466993"><ele>453.75</ele><time>2026-05-02T11:59:54Z</time></trkpt><trkpt lat="44.4813083289831" lon="10.337639371610317"><ele>455.5</ele><time>2026-05-02T11:59:55Z</time></trkpt><trkpt lat="44.48124191944901" lon="10.337451268511927"><ele>457.25</ele><time>2026-05-02T11:59:56Z</time></trkpt><trkpt lat="44.48118180036978" lon="10.337287533935271"><ele>459.0</ele><time>2026-05-02T11:59:57Z</time></trkpt><trkpt lat="44.48111932869478" lon="10.337120965013185"><ele>459.0</ele><time>2026-05-02T11:59:58Z</time></trkpt><trkpt lat="44.48105492874538" lon="10.336952367478156"><ele>459.0</ele><time>2026-05-02T11:59:59Z</time></trkpt><trkpt lat="44.48098791848147" lon="10.33678755068587"><ele>459.0</ele><time>2026-05-02T12:00:00Z</time></trkpt><trkpt lat="44.480912071329506" lon="10.336640082728264"><ele>459.0</ele><time>2026-05-02T12:00:01Z</time></trkpt><trkpt lat="44.48084003323087" lon="10.33649724496951"><ele>454.25</ele><time>2026-05-02T12:00:02Z</time></trkpt><trkpt lat="44.480776901056" lon="10.336363029989169"><ele>449.5</ele><time>2026-05-02T12:00:03Z</time></trkpt><trkpt lat="44.480696011722856" lon="10.336249958963274"><ele>444.75</ele><time>2026-05-02T12:00:04Z</time></trkpt><trkpt lat="44.4805913156213" lon="10.336163657655975"><ele>440.0</ele><time>2026-05-02T12:00:05Z</time></trkpt><trkpt lat="44.480457129371494" lon="10.336109822143102"><ele>443.0</ele><time>2026-05-02T12:00:06Z</time></trkpt><trkpt lat="44.4803061937156" lon="10.336066097585709"><ele>446.0</ele><time>2026-05-02T12:00:07Z</time></trkpt><trkpt lat="44.48015614394243" lon="10.33601806232953"><ele>449.0</ele><time>2026-05-02T12:00:08Z</time></trkpt><trkpt lat="44.48000626037732" lon="10.33596307020412"><ele>449.0</ele><time>2026-05-02T12:00:09Z</time></trkpt><trkpt lat="44.47985278877357" lon="10.335903133095858"><ele>449.0</ele><time>2026-05-02T12:00:10Z</time></trkpt><trkpt lat="44.479709589984346" lon="10.335848281619349"><ele>449.0</ele><time>2026-05-02T12:00:11Z</time></trkpt><trkpt lat="44.47955375080914" lon="10.33579302825589"><ele>455.0</ele><time>2026-05-02T12:00:12Z</time></trkpt><trkpt lat="44.479396919663316" lon="10.335724609151232"><ele>461.0</ele><time>2026-05-02T12:00:13Z</time></trkpt><trkpt lat="44.47924505757487" lon="10.335656891298765"><ele>467.0</ele><time>2026-05-02T12:00:14Z</time></trkpt><trkpt lat="44.47908970660312" lon="10.33556353537078"><ele>464.0</ele><time>2026-05-02T12:00:15Z</time></trkpt><trkpt lat="44.47893833272926" lon="10.33546797740246"><ele>461.0</ele><time>2026-05-02T12:00:16Z</time></trkpt><trkpt lat="44.47878844897726" lon="10.335368561398985"><ele>458.0</ele><time>2026-05-02T12:00:17Z</time></trkpt><trkpt lat="44.47863540419392" lon="10.335262085614172"><ele>458.0</ele><time>2026-05-02T12:00:18Z</time></trkpt><trkpt lat="44.478493798271145" lon="10.335153156219711"><ele>458.0</ele><time>2026-05-02T12:00:19Z</time></trkpt><trkpt lat="44.47837086376899" lon="10.335061086006457"><ele>458.0</ele><time>2026-05-02T12:00:20Z</time></trkpt><trkpt lat="44.478244413588065" lon="10.334978609698743"><ele>458.0</ele><time>2026-05-02T12:00:20.999Z</time></trkpt><trkpt lat="44.4780953153462" lon="10.334928015235937"><ele>464.0</ele><time>2026-05-02T12:00:21.999Z</time></trkpt><trkpt lat="44.47793507724954" lon="10.334908711387587"><ele>470.0</ele><time>2026-05-02T12:00:22.999Z</time></trkpt><trkpt lat="44.477756205933446" lon="10.334882638125366"><ele>476.0</ele><time>2026-05-02T12:00:23.999Z</time></trkpt><trkpt lat="44.4776052454941" lon="10.334781072564471"><ele>467.0</ele><time>2026-05-02T12:00:24.999Z</time></trkpt><trkpt lat="44.4774424154515" lon="10.334682274612192"><ele>458.0</ele><time>2026-05-02T12:00:25.999Z</time></trkpt><trkpt lat="44.477281758388735" lon="10.334559338733184"><ele>449.0</ele><time>2026-05-02T12:00:26.999Z</time></trkpt><trkpt lat="44.477116883976116" lon="10.334445649116466"><ele>455.0</ele><time>2026-05-02T12:00:27.999Z</time></trkpt><trkpt lat="44.47695161086466" lon="10.33433504318458"><ele>461.0</ele><time>2026-05-02T12:00:28.999Z</time></trkpt><trkpt lat="44.4767909911002" lon="10.334214273839317"><ele>467.0</ele><time>2026-05-02T12:00:29.999Z</time></trkpt><trkpt lat="44.476642300387056" lon="10.334079324217827"><ele>467.0</ele><time>2026-05-02T12:00:30.999Z</time></trkpt><trkpt lat="44.4764936783344" lon="10.33396629017333"><ele>467.0</ele><time>2026-05-02T12:00:31.999Z</time></trkpt><trkpt lat="44.476332205238" lon="10.333895695360598"><ele>467.0</ele><time>2026-05-02T12:00:32.999Z</time></trkpt><trkpt lat="44.476191243421376" lon="10.333858646816697"><ele>466.3333333333333</ele><time>2026-05-02T12:00:33.999Z</time></trkpt><trkpt lat="44.47604287085863" lon="10.333791874548849"><ele>465.66666666666663</ele><time>2026-05-02T12:00:34.999Z</time></trkpt><trkpt lat="44.475943425763724" lon="10.333657505297795"><ele>465.0</ele><time>2026-05-02T12:00:35.999Z</time></trkpt><trkpt lat="44.47583826455068" lon="10.333489226467837"><ele>465.0</ele><time>2026-05-02T12:00:36.999Z</time></trkpt><trkpt lat="44.475723270458865" lon="10.333309242686543"><ele>465.0</ele><time>2026-05-02T12:00:37.999Z</time></trkpt><trkpt lat="44.47561441512147" lon="10.33315725953901"><ele>465.0</ele><time>2026-05-02T12:00:38.999Z</time></trkpt><trkpt lat="44.47547765849474" lon="10.33304482911485"><ele>470.0</ele><time>2026-05-02T12:00:39.999Z</time></trkpt><trkpt lat="44.47536826086708" lon="10.33291801676462"><ele>475.0</ele><time>2026-05-02T12:00:40.999Z</time></trkpt><trkpt lat="44.47531009934698" lon="10.33272825013597"><ele>480.0</ele><time>2026-05-02T12:00:41.999Z</time></trkpt><trkpt lat="44.475241251251866" lon="10.332511439371947"><ele>480.0</ele><time>2026-05-02T12:00:42.999Z</time></trkpt><trkpt lat="44.475196379204434" lon="10.33226923957514"><ele>480.0</ele><time>2026-05-02T12:00:43.999Z</time></trkpt><trkpt lat="44.47514465399315" lon="10.33204235548111"><ele>480.0</ele><time>2026-05-02T12:00:44.999Z</time></trkpt><trkpt lat="44.475090533660705" lon="10.331836097960078"><ele>477.2</ele><time>2026-05-02T12:00:45.999Z</time></trkpt><trkpt lat="44.475038405293986" lon="10.331655652724649"><ele>474.4</ele><time>2026-05-02T12:00:46.999Z</time></trkpt><trkpt lat="44.47499084137032" lon="10.331502313023059"><ele>471.6</ele><time>2026-05-02T12:00:47.999Z</time></trkpt><trkpt lat="44.47493908338089" lon="10.331390320514362"><ele>468.8</ele><time>2026-05-02T12:00:48.999Z</time></trkpt><trkpt lat="44.47485547680375" lon="10.33133534224969"><ele>466.0</ele><time>2026-05-02T12:00:49.999Z</time></trkpt><trkpt lat="44.4747403806533" lon="10.331333209477139"><ele>467.6666666666667</ele><time>2026-05-02T12:00:50.999Z</time></trkpt><trkpt lat="44.47460570389855" lon="10.331387922546055"><ele>469.33333333333337</ele><time>2026-05-02T12:00:51.999Z</time></trkpt><trkpt lat="44.474454572111405" lon="10.331457402317213"><ele>471.0</ele><time>2026-05-02T12:00:52.999Z</time></trkpt><trkpt lat="44.47429442431355" lon="10.331513193970514"><ele>471.0</ele><time>2026-05-02T12:00:53.999Z</time></trkpt><trkpt lat="44.474145760613915" lon="10.331563097811514"><ele>471.0</ele><time>2026-05-02T12:00:54.999Z</time></trkpt><trkpt lat="44.474005226476095" lon="10.331599484663919"><ele>471.0</ele><time>2026-05-02T12:00:55.999Z</time></trkpt><trkpt lat="44.47388434791984" lon="10.33163708961737"><ele>471.0</ele><time>2026-05-02T12:00:56.999Z</time></trkpt><trkpt lat="44.47377539054013" lon="10.331695561700437"><ele>470.0</ele><time>2026-05-02T12:00:57.999Z</time></trkpt><trkpt lat="44.47368714370182" lon="10.33180589218894"><ele>469.0</ele><time>2026-05-02T12:00:58.999Z</time></trkpt><trkpt lat="44.47363935086215" lon="10.331963576947295"><ele>468.0</ele><time>2026-05-02T12:00:59.999Z</time></trkpt><trkpt lat="44.4736292476782" lon="10.332158110881675"><ele>467.0</ele><time>2026-05-02T12:01:00.999Z</time></trkpt><trkpt lat="44.47362322434761" lon="10.332356761059954"><ele>467.0</ele><time>2026-05-02T12:01:01.999Z</time></trkpt><trkpt lat="44.473577854635124" lon="10.332555292827351"><ele>467.0</ele><time>2026-05-02T12:01:02.999Z</time></trkpt><trkpt lat="44.47353672906507" lon="10.332767157423607"><ele>467.0</ele><time>2026-05-02T12:01:03.999Z</time></trkpt><trkpt lat="44.47347640673659" lon="10.332977351817986"><ele>468.25</ele><time>2026-05-02T12:01:04.999Z</time></trkpt><trkpt lat="44.47340887965698" lon="10.333156053511109"><ele>469.5</ele><time>2026-05-02T12:01:05.999Z</time></trkpt><trkpt lat="44.4733645458573" lon="10.333313705771207"><ele>470.75</ele><time>2026-05-02T12:01:06.999Z</time></trkpt><trkpt lat="44.473334618631135" lon="10.333470060969834"><ele>472.0</ele><time>2026-05-02T12:01:07.999Z</time></trkpt><trkpt lat="44.47328100149992" lon="10.333614969729549"><ele>472.0</ele><time>2026-05-02T12:01:08.999Z</time></trkpt><trkpt lat="44.473195543804685" lon="10.333749589382249"><ele>472.0</ele><time>2026-05-02T12:01:09.999Z</time></trkpt><trkpt lat="44.473071364612885" lon="10.33384773885607"><ele>472.0</ele><time>2026-05-02T12:01:10.999Z</time></trkpt><trkpt lat="44.47291673321583" lon="10.33387444251256"><ele>472.0</ele><time>2026-05-02T12:01:11.999Z</time></trkpt><trkpt lat="44.47277345717692" lon="10.333945017127915"><ele>472.0</ele><time>2026-05-02T12:01:12.999Z</time></trkpt><trkpt lat="44.47262754141601" lon="10.333985074513336"><ele>472.0</ele><time>2026-05-02T12:01:13.999Z</time></trkpt><trkpt lat="44.47248629488416" lon="10.33403294286983"><ele>472.0</ele><time>2026-05-02T12:01:14.999Z</time></trkpt><trkpt lat="44.472340016865594" lon="10.334093507876757"><ele>472.0</ele><time>2026-05-02T12:01:15.999Z</time></trkpt><trkpt lat="44.47219249795365" lon="10.334162606100547"><ele>471.0</ele><time>2026-05-02T12:01:16.999Z</time></trkpt><trkpt lat="44.472048620944484" lon="10.334261122954034"><ele>470.0</ele><time>2026-05-02T12:01:17.999Z</time></trkpt><trkpt lat="44.47192004422104" lon="10.33435831797554"><ele>469.0</ele><time>2026-05-02T12:01:18.999Z</time></trkpt><trkpt lat="44.47179619553419" lon="10.334484648772534"><ele>469.0</ele><time>2026-05-02T12:01:19.999Z</time></trkpt><trkpt lat="44.47168126146006" lon="10.334646129592876"><ele>469.0</ele><time>2026-05-02T12:01:20.999Z</time></trkpt><trkpt lat="44.47155618612163" lon="10.334818207238817"><ele>469.0</ele><time>2026-05-02T12:01:21.999Z</time></trkpt><trkpt lat="44.471423637011725" lon="10.334967646112954"><ele>470.33333333333337</ele><time>2026-05-02T12:01:22.999Z</time></trkpt><trkpt lat="44.47127926746408" lon="10.3351048453632"><ele>471.66666666666663</ele><time>2026-05-02T12:01:23.999Z</time></trkpt><trkpt lat="44.471123650460044" lon="10.335207104357455"><ele>473.0</ele><time>2026-05-02T12:01:24.999Z</time></trkpt><trkpt lat="44.47098154814444" lon="10.335289284462906"><ele>473.0</ele><time>2026-05-02T12:01:25.999Z</time></trkpt><trkpt lat="44.470843787178545" lon="10.335370677465272"><ele>473.0</ele><time>2026-05-02T12:01:26.999Z</time></trkpt><trkpt lat="44.47071263493334" lon="10.335476955311675"><ele>473.0</ele><time>2026-05-02T12:01:27.999Z</time></trkpt><trkpt lat="44.470592610231186" lon="10.335621623408986"><ele>471.3333333333333</ele><time>2026-05-02T12:01:29Z</time></trkpt><trkpt lat="44.470481183118125" lon="10.33578123117271"><ele>469.66666666666663</ele><time>2026-05-02T12:01:30Z</time></trkpt><trkpt lat="44.47038117662495" lon="10.335946546683939"><ele>468.0</ele><time>2026-05-02T12:01:31Z</time></trkpt><trkpt lat="44.47030854524646" lon="10.33612215598186"><ele>468.0</ele><time>2026-05-02T12:01:32Z</time></trkpt><trkpt lat="44.47026405757121" lon="10.3363256098894"><ele>468.0</ele><time>2026-05-02T12:01:33Z</time></trkpt><trkpt lat="44.47025723097702" lon="10.33653714064033"><ele>468.0</ele><time>2026-05-02T12:01:34Z</time></trkpt><trkpt lat="44.47027183427565" lon="10.336754831093451"><ele>469.66666666666663</ele><time>2026-05-02T12:01:35Z</time></trkpt><trkpt lat="44.47027894044288" lon="10.336980508555929"><ele>471.3333333333333</ele><time>2026-05-02T12:01:36Z</time></trkpt><trkpt lat="44.47030910182393" lon="10.337214667644481"><ele>473.0</ele><time>2026-05-02T12:01:37Z</time></trkpt><trkpt lat="44.470366096207016" lon="10.337449126073874"><ele>473.66666666666663</ele><time>2026-05-02T12:01:38Z</time></trkpt><trkpt lat="44.47039482109445" lon="10.337674570265325"><ele>474.33333333333337</ele><time>2026-05-02T12:01:39Z</time></trkpt><trkpt lat="44.470385905873215" lon="10.337878733927615"><ele>475.0</ele><time>2026-05-02T12:01:40Z</time></trkpt><trkpt lat="44.47035242623734" lon="10.338075794946795"><ele>476.0</ele><time>2026-05-02T12:01:41Z</time></trkpt><trkpt lat="44.47029331500552" lon="10.338259930855628"><ele>477.0</ele><time>2026-05-02T12:01:42Z</time></trkpt><trkpt lat="44.47020562907341" lon="10.33843654171889"><ele>478.0</ele><time>2026-05-02T12:01:43Z</time></trkpt><trkpt lat="44.470090790395865" lon="10.33861501962722"><ele>478.0</ele><time>2026-05-02T12:01:44Z</time></trkpt><trkpt lat="44.46997273316929" lon="10.338775185291501"><ele>478.0</ele><time>2026-05-02T12:01:45Z</time></trkpt><trkpt lat="44.469875817011086" lon="10.338915279089502"><ele>478.0</ele><time>2026-05-02T12:01:46Z</time></trkpt><trkpt lat="44.46980530198976" lon="10.339064722168313"><ele>478.0</ele><time>2026-05-02T12:01:47Z</time></trkpt><trkpt lat="44.469773712309454" lon="10.339239614114629"><ele>480.25</ele><time>2026-05-02T12:01:48Z</time></trkpt><trkpt lat="44.46978408343312" lon="10.339428618459966"><ele>482.5</ele><time>2026-05-02T12:01:49Z</time></trkpt><trkpt lat="44.46981894527757" lon="10.339608191217307"><ele>484.75</ele><time>2026-05-02T12:01:50Z</time></trkpt><trkpt lat="44.4698085031089" lon="10.339799270283631"><ele>487.0</ele><time>2026-05-02T12:01:51Z</time></trkpt><trkpt lat="44.46975108664063" lon="10.339972034096286"><ele>489.33333333333337</ele><time>2026-05-02T12:01:52Z</time></trkpt><trkpt lat="44.469655924946956" lon="10.34012747161568"><ele>491.66666666666663</ele><time>2026-05-02T12:01:53Z</time></trkpt><trkpt lat="44.46953447285742" lon="10.34027092945726"><ele>494.0</ele><time>2026-05-02T12:01:54Z</time></trkpt><trkpt lat="44.46941272906227" lon="10.34039410939445"><ele>492.25</ele><time>2026-05-02T12:01:55Z</time></trkpt><trkpt lat="44.46930924979547" lon="10.340517455325655"><ele>490.5</ele><time>2026-05-02T12:01:56Z</time></trkpt><trkpt lat="44.46923141097442" lon="10.340660496035843"><ele>488.75</ele><time>2026-05-02T12:01:57Z</time></trkpt><trkpt lat="44.46919752225755" lon="10.340840885155133"><ele>487.0</ele><time>2026-05-02T12:01:58Z</time></trkpt><trkpt lat="44.4691889402015" lon="10.341047529486648"><ele>487.0</ele><time>2026-05-02T12:01:59Z</time></trkpt><trkpt lat="44.46920026307266" lon="10.341259309846441"><ele>487.0</ele><time>2026-05-02T12:02:00Z</time></trkpt><trkpt lat="44.46921501394775" lon="10.341481293483646"><ele>487.0</ele><time>2026-05-02T12:02:01Z</time></trkpt><trkpt lat="44.46924359099081" lon="10.341665790260533"><ele>487.0</ele><time>2026-05-02T12:02:02Z</time></trkpt><trkpt lat="44.469281288515944" lon="10.341894911242786"><ele>487.0</ele><time>2026-05-02T12:02:03Z</time></trkpt><trkpt lat="44.46933346889169" lon="10.342122252859408"><ele>487.0</ele><time>2026-05-02T12:02:04Z</time></trkpt><trkpt lat="44.46940848566067" lon="10.342346818274736"><ele>487.0</ele><time>2026-05-02T12:02:05Z</time></trkpt><trkpt lat="44.46950059235308" lon="10.342566332518889"><ele>487.0</ele><time>2026-05-02T12:02:06Z</time></trkpt><trkpt lat="44.46960008756552" lon="10.342790797416077"><ele>487.0</ele><time>2026-05-02T12:02:07Z</time></trkpt><trkpt lat="44.46969044189326" lon="10.342993699051117"><ele>487.0</ele><time>2026-05-02T12:02:08Z</time></trkpt><trkpt lat="44.46976832187605" lon="10.343161430416666"><ele>489.40000000000003</ele><time>2026-05-02T12:02:09Z</time></trkpt><trkpt lat="44.469805753175464" lon="10.343313422314887"><ele>491.80000000000007</ele><time>2026-05-02T12:02:10Z</time></trkpt><trkpt lat="44.469834966719795" lon="10.343453349680711"><ele>494.2</ele><time>2026-05-02T12:02:11Z</time></trkpt><trkpt lat="44.46981958720383" lon="10.343583805004616"><ele>496.6</ele><time>2026-05-02T12:02:12Z</time></trkpt><trkpt lat="44.46976384037858" lon="10.343691125690423"><ele>499.0</ele><time>2026-05-02T12:02:13Z</time></trkpt><trkpt lat="44.46967311811559" lon="10.343736241136991"><ele>498.5</ele><time>2026-05-02T12:02:14Z</time></trkpt><trkpt lat="44.46957616599296" lon="10.343824600873475"><ele>498.0</ele><time>2026-05-02T12:02:15Z</time></trkpt><trkpt lat="44.46944813061325" lon="10.343857455944873"><ele>497.5</ele><time>2026-05-02T12:02:16Z</time></trkpt><trkpt lat="44.46931119690492" lon="10.343869707119358"><ele>497.0</ele><time>2026-05-02T12:02:17Z</time></trkpt><trkpt lat="44.469173849157855" lon="10.343820144387717"><ele>497.0</ele><time>2026-05-02T12:02:18Z</time></trkpt><trkpt lat="44.469074643357665" lon="10.343656288292006"><ele>497.0</ele><time>2026-05-02T12:02:19Z</time></trkpt><trkpt lat="44.46895248655557" lon="10.3435104136131"><ele>497.0</ele><time>2026-05-02T12:02:20Z</time></trkpt><trkpt lat="44.46882017659829" lon="10.343362561511993"><ele>499.0</ele><time>2026-05-02T12:02:20.999Z</time></trkpt><trkpt lat="44.46869619298777" lon="10.343204935297486"><ele>501.0</ele><time>2026-05-02T12:02:21.999Z</time></trkpt><trkpt lat="44.46857602266185" lon="10.343056538426216"><ele>503.0</ele><time>2026-05-02T12:02:22.999Z</time></trkpt><trkpt lat="44.468465894730855" lon="10.342887448537205"><ele>503.0</ele><time>2026-05-02T12:02:23.999Z</time></trkpt><trkpt lat="44.46838634200108" lon="10.342690524631458"><ele>503.0</ele><time>2026-05-02T12:02:24.999Z</time></trkpt><trkpt lat="44.46829976080333" lon="10.342532802113364"><ele>503.0</ele><time>2026-05-02T12:02:25.999Z</time></trkpt><trkpt lat="44.46818726113503" lon="10.34242654784711"><ele>503.0</ele><time>2026-05-02T12:02:26.999Z</time></trkpt><trkpt lat="44.46805015921786" lon="10.342378031161273"><ele>506.0</ele><time>2026-05-02T12:02:27.999Z</time></trkpt><trkpt lat="44.46789082260954" lon="10.34238371805656"><ele>509.0</ele><time>2026-05-02T12:02:28.999Z</time></trkpt><trkpt lat="44.46771992990949" lon="10.342424911252023"><ele>512.0</ele><time>2026-05-02T12:02:29.999Z</time></trkpt><trkpt lat="44.46754483757171" lon="10.342460663882335"><ele>512.0</ele><time>2026-05-02T12:02:30.999Z</time></trkpt><trkpt lat="44.46736977145468" lon="10.342482399780085"><ele>512.0</ele><time>2026-05-02T12:02:31.999Z</time></trkpt><trkpt lat="44.467197047612665" lon="10.342494142669493"><ele>512.0</ele><time>2026-05-02T12:02:32.999Z</time></trkpt><trkpt lat="44.467029139374254" lon="10.342443123632057"><ele>514.3333333333333</ele><time>2026-05-02T12:02:33.999Z</time></trkpt><trkpt lat="44.466856453910715" lon="10.342394279095593"><ele>516.6666666666666</ele><time>2026-05-02T12:02:34.999Z</time></trkpt><trkpt lat="44.46668125161376" lon="10.342303552936876"><ele>519.0</ele><time>2026-05-02T12:02:35.999Z</time></trkpt><trkpt lat="44.46650316436008" lon="10.342215482137316"><ele>518.3333333333334</ele><time>2026-05-02T12:02:36.999Z</time></trkpt><trkpt lat="44.46633336508031" lon="10.342128741062584"><ele>517.6666666666667</ele><time>2026-05-02T12:02:37.999Z</time></trkpt><trkpt lat="44.46616561296153" lon="10.342024093544737"><ele>517.0</ele><time>2026-05-02T12:02:38.999Z</time></trkpt><trkpt lat="44.46601845028428" lon="10.341834580142285"><ele>517.0</ele><time>2026-05-02T12:02:39.999Z</time></trkpt><trkpt lat="44.465864173371834" lon="10.341666786349224"><ele>517.0</ele><time>2026-05-02T12:02:40.999Z</time></trkpt><trkpt lat="44.46572040962539" lon="10.341475945344785"><ele>517.0</ele><time>2026-05-02T12:02:41.999Z</time></trkpt><trkpt lat="44.46557462790356" lon="10.341294714349035"><ele>517.6666666666667</ele><time>2026-05-02T12:02:42.999Z</time></trkpt><trkpt lat="44.46543804987534" lon="10.341133001781671"><ele>518.3333333333334</ele><time>2026-05-02T12:02:43.999Z</time></trkpt><trkpt lat="44.46530529679208" lon="10.340970604983202"><ele>519.0</ele><time>2026-05-02T12:02:44.999Z</time></trkpt><trkpt lat="44.46518517026472" lon="10.340821324755405"><ele>519.0</ele><time>2026-05-02T12:02:45.999Z</time></trkpt><trkpt lat="44.46508091083847" lon="10.340704579621217"><ele>519.0</ele><time>2026-05-02T12:02:46.999Z</time></trkpt><trkpt lat="44.46497026266554" lon="10.340633052809368"><ele>519.0</ele><time>2026-05-02T12:02:47.999Z</time></trkpt><trkpt lat="44.46484745697378" lon="10.340643719387327"><ele>519.0</ele><time>2026-05-02T12:02:48.999Z</time></trkpt><trkpt lat="44.464743587311965" lon="10.340713713022401"><ele>519.0</ele><time>2026-05-02T12:02:49.999Z</time></trkpt><trkpt lat="44.46466249601033" lon="10.340832835494366"><ele>519.0</ele><time>2026-05-02T12:02:50.999Z</time></trkpt><trkpt lat="44.464640000549466" lon="10.341002088219255"><ele>519.0</ele><time>2026-05-02T12:02:51.999Z</time></trkpt><trkpt lat="44.464661164665834" lon="10.34118702117036"><ele>519.0</ele><time>2026-05-02T12:02:52.999Z</time></trkpt><trkpt lat="44.464743032612084" lon="10.34136263285573"><ele>523.3333333333334</ele><time>2026-05-02T12:02:53.999Z</time></trkpt><trkpt lat="44.46486448693654" lon="10.34150658450369"><ele>527.6666666666667</ele><time>2026-05-02T12:02:54.999Z</time></trkpt><trkpt lat="44.465001440757064" lon="10.341646607470208"><ele>532.0</ele><time>2026-05-02T12:02:55.999Z</time></trkpt><trkpt lat="44.465142943989655" lon="10.341770122600602"><ele>532.0</ele><time>2026-05-02T12:02:56.999Z</time></trkpt><trkpt lat="44.465290208907" lon="10.341860351632484"><ele>532.0</ele><time>2026-05-02T12:02:57.999Z</time></trkpt><trkpt lat="44.46543321649164" lon="10.341950047564971"><ele>532.0</ele><time>2026-05-02T12:02:58.999Z</time></trkpt><trkpt lat="44.46554411845275" lon="10.342087636767957"><ele>534.3333333333334</ele><time>2026-05-02T12:02:59.999Z</time></trkpt><trkpt lat="44.46565383473096" lon="10.342234777745306"><ele>536.6666666666666</ele><time>2026-05-02T12:03:00.999Z</time></trkpt><trkpt lat="44.46576739654658" lon="10.342388730915674"><ele>539.0</ele><time>2026-05-02T12:03:01.999Z</time></trkpt><trkpt lat="44.46583079415128" lon="10.342595199669555"><ele>539.0</ele><time>2026-05-02T12:03:02.999Z</time></trkpt><trkpt lat="44.46589247606279" lon="10.342797656189774"><ele>539.0</ele><time>2026-05-02T12:03:03.999Z</time></trkpt><trkpt lat="44.465974937307195" lon="10.342960436263603"><ele>539.0</ele><time>2026-05-02T12:03:04.999Z</time></trkpt><trkpt lat="44.46606406211655" lon="10.343102252946652"><ele>539.0</ele><time>2026-05-02T12:03:05.999Z</time></trkpt><trkpt lat="44.46618565052819" lon="10.343197946520595"><ele>540.6666666666666</ele><time>2026-05-02T12:03:06.999Z</time></trkpt><trkpt lat="44.46633445874872" lon="10.343243383989773"><ele>542.3333333333334</ele><time>2026-05-02T12:03:07.999Z</time></trkpt><trkpt lat="44.46649510671908" lon="10.343234262225538"><ele>544.0</ele><time>2026-05-02T12:03:08.999Z</time></trkpt><trkpt lat="44.46666635101245" lon="10.343205350897803"><ele>544.0</ele><time>2026-05-02T12:03:09.999Z</time></trkpt><trkpt lat="44.46684071488357" lon="10.343193054282365"><ele>544.0</ele><time>2026-05-02T12:03:10.999Z</time></trkpt><trkpt lat="44.46701267076362" lon="10.343218146828006"><ele>544.0</ele><time>2026-05-02T12:03:11.999Z</time></trkpt><trkpt lat="44.46717648721672" lon="10.343252756175753"><ele>542.3333333333334</ele><time>2026-05-02T12:03:12.999Z</time></trkpt><trkpt lat="44.46733437303001" lon="10.343331917831485"><ele>540.6666666666666</ele><time>2026-05-02T12:03:13.999Z</time></trkpt><trkpt lat="44.46750041654425" lon="10.34342334675319"><ele>539.0</ele><time>2026-05-02T12:03:14.999Z</time></trkpt><trkpt lat="44.46766905605072" lon="10.343478209200136"><ele>539.0</ele><time>2026-05-02T12:03:15.999Z</time></trkpt><trkpt lat="44.46781497371981" lon="10.34351873647867"><ele>539.0</ele><time>2026-05-02T12:03:16.999Z</time></trkpt><trkpt lat="44.467951175496715" lon="10.34358822293814"><ele>539.0</ele><time>2026-05-02T12:03:17.999Z</time></trkpt><trkpt lat="44.46807905858111" lon="10.343698741109893"><ele>539.0</ele><time>2026-05-02T12:03:18.999Z</time></trkpt><trkpt lat="44.46816942387031" lon="10.34384882965976"><ele>544.3333333333333</ele><time>2026-05-02T12:03:19.999Z</time></trkpt><trkpt lat="44.46824251364458" lon="10.344036107266751"><ele>549.6666666666666</ele><time>2026-05-02T12:03:20.999Z</time></trkpt><trkpt lat="44.46831971758424" lon="10.344225342877145"><ele>555.0</ele><time>2026-05-02T12:03:21.999Z</time></trkpt><trkpt lat="44.46839087048361" lon="10.344405511774898"><ele>555.0</ele><time>2026-05-02T12:03:22.999Z</time></trkpt><trkpt lat="44.46843814499068" lon="10.344571215110003"><ele>555.0</ele><time>2026-05-02T12:03:23.999Z</time></trkpt><trkpt lat="44.46842815798503" lon="10.344718336024513"><ele>555.0</ele><time>2026-05-02T12:03:24.999Z</time></trkpt><trkpt lat="44.46837892826213" lon="10.344867070852779"><ele>555.0</ele><time>2026-05-02T12:03:25.999Z</time></trkpt><trkpt lat="44.468294516366164" lon="10.34498918772089"><ele>555.0</ele><time>2026-05-02T12:03:26.999Z</time></trkpt><trkpt lat="44.468183236176266" lon="10.345110187272084"><ele>555.0</ele><time>2026-05-02T12:03:27.999Z</time></trkpt><trkpt lat="44.468052815789406" lon="10.345217814466901"><ele>555.0</ele><time>2026-05-02T12:03:28.999Z</time></trkpt><trkpt lat="44.467943404628286" lon="10.345354836370868"><ele>555.0</ele><time>2026-05-02T12:03:29.999Z</time></trkpt><trkpt lat="44.46786018323622" lon="10.345496469481102"><ele>555.5</ele><time>2026-05-02T12:03:30.999Z</time></trkpt><trkpt lat="44.467757265641275" lon="10.345626846497579"><ele>556.0</ele><time>2026-05-02T12:03:31.999Z</time></trkpt><trkpt lat="44.46762629819451" lon="10.345671267382686"><ele>556.5</ele><time>2026-05-02T12:03:32.999Z</time></trkpt><trkpt lat="44.467466173812966" lon="10.345653264881744"><ele>557.0</ele><time>2026-05-02T12:03:33.999Z</time></trkpt><trkpt lat="44.46731509192549" lon="10.345642090289246"><ele>557.0</ele><time>2026-05-02T12:03:35Z</time></trkpt><trkpt lat="44.467153209047474" lon="10.345678099637647"><ele>557.0</ele><time>2026-05-02T12:03:36Z</time></trkpt><trkpt lat="44.46699017323472" lon="10.345718394827005"><ele>557.0</ele><time>2026-05-02T12:03:37Z</time></trkpt><trkpt lat="44.4668333668338" lon="10.345740546874827"><ele>559.3333333333333</ele><time>2026-05-02T12:03:38Z</time></trkpt><trkpt lat="44.466677828230786" lon="10.345729567655031"><ele>561.6666666666666</ele><time>2026-05-02T12:03:39Z</time></trkpt><trkpt lat="44.46652093497235" lon="10.345680501900128"><ele>564.0</ele><time>2026-05-02T12:03:40Z</time></trkpt><trkpt lat="44.46636810825332" lon="10.345610146089573"><ele>566.6666666666666</ele><time>2026-05-02T12:03:41Z</time></trkpt><trkpt lat="44.46620921723349" lon="10.345574169457276"><ele>569.3333333333333</ele><time>2026-05-02T12:03:42Z</time></trkpt><trkpt lat="44.46605385544317" lon="10.345582770965306"><ele>572.0</ele><time>2026-05-02T12:03:43Z</time></trkpt><trkpt lat="44.4659158516857" lon="10.345609598569435"><ele>572.0</ele><time>2026-05-02T12:03:44Z</time></trkpt><trkpt lat="44.46578853635208" lon="10.345631411878069"><ele>572.0</ele><time>2026-05-02T12:03:45Z</time></trkpt><trkpt lat="44.465679275222115" lon="10.345693660096071"><ele>572.0</ele><time>2026-05-02T12:03:46Z</time></trkpt><trkpt lat="44.46559005256706" lon="10.345838043563788"><ele>572.0</ele><time>2026-05-02T12:03:47Z</time></trkpt><trkpt lat="44.46554124111629" lon="10.346019024393126"><ele>572.0</ele><time>2026-05-02T12:03:48Z</time></trkpt><trkpt lat="44.465512479352206" lon="10.346202072356629"><ele>572.0</ele><time>2026-05-02T12:03:49Z</time></trkpt><trkpt lat="44.46542566047626" lon="10.346339543804733"><ele>572.0</ele><time>2026-05-02T12:03:50Z</time></trkpt><trkpt lat="44.465309477944416" lon="10.346484704625063"><ele>572.0</ele><time>2026-05-02T12:03:51Z</time></trkpt><trkpt lat="44.465165014770285" lon="10.34661073381605"><ele>576.3333333333333</ele><time>2026-05-02T12:03:52Z</time></trkpt><trkpt lat="44.46502606070059" lon="10.34676350409657"><ele>580.6666666666666</ele><time>2026-05-02T12:03:53Z</time></trkpt><trkpt lat="44.46487150034064" lon="10.346914102352619"><ele>585.0</ele><time>2026-05-02T12:03:54Z</time></trkpt><trkpt lat="44.46472159895952" lon="10.347067560245602"><ele>586.0</ele><time>2026-05-02T12:03:55Z</time></trkpt><trkpt lat="44.46458939788049" lon="10.347227939750042"><ele>587.0</ele><time>2026-05-02T12:03:56Z</time></trkpt><trkpt lat="44.46447083140219" lon="10.347402578881196"><ele>588.0</ele><time>2026-05-02T12:03:57Z</time></trkpt><trkpt lat="44.46436670689845" lon="10.34761239208377"><ele>588.0</ele><time>2026-05-02T12:03:58Z</time></trkpt><trkpt lat="44.46427356585685" lon="10.34784128201962"><ele>588.0</ele><time>2026-05-02T12:03:59Z</time></trkpt><trkpt lat="44.46418034043746" lon="10.348072653190988"><ele>588.0</ele><time>2026-05-02T12:04:00Z</time></trkpt><trkpt lat="44.4640852428286" lon="10.348308054183349"><ele>587.6666666666666</ele><time>2026-05-02T12:04:01Z</time></trkpt><trkpt lat="44.463989280804334" lon="10.348541682402532"><ele>587.3333333333333</ele><time>2026-05-02T12:04:02Z</time></trkpt><trkpt lat="44.46389314161182" lon="10.348782439140981"><ele>587.0</ele><time>2026-05-02T12:04:03Z</time></trkpt><trkpt lat="44.46380927209702" lon="10.34903460389762"><ele>582.6666666666666</ele><time>2026-05-02T12:04:04Z</time></trkpt><trkpt lat="44.46373891337717" lon="10.349291847621476"><ele>578.3333333333334</ele><time>2026-05-02T12:04:05Z</time></trkpt><trkpt lat="44.46367664005697" lon="10.349532223074611"><ele>574.0</ele><time>2026-05-02T12:04:06Z</time></trkpt><trkpt lat="44.46362477145219" lon="10.349791069438973"><ele>574.0</ele><time>2026-05-02T12:04:07Z</time></trkpt><trkpt lat="44.46352885615765" lon="10.350006732932437"><ele>574.0</ele><time>2026-05-02T12:04:08Z</time></trkpt><trkpt lat="44.46341308100247" lon="10.350191124236574"><ele>574.0</ele><time>2026-05-02T12:04:09Z</time></trkpt><trkpt lat="44.4632778511288" lon="10.35034787393213"><ele>574.0</ele><time>2026-05-02T12:04:10Z</time></trkpt><trkpt lat="44.46311819502794" lon="10.350458981582458"><ele>574.0</ele><time>2026-05-02T12:04:11Z</time></trkpt><trkpt lat="44.4629312540675" lon="10.35053531794824"><ele>574.0</ele><time>2026-05-02T12:04:12Z</time></trkpt><trkpt lat="44.4627316751181" lon="10.350614765185972"><ele>575.3333333333334</ele><time>2026-05-02T12:04:13Z</time></trkpt><trkpt lat="44.46252234108904" lon="10.350667697234748"><ele>576.6666666666666</ele><time>2026-05-02T12:04:14Z</time></trkpt><trkpt lat="44.462317282786245" lon="10.350730181411182"><ele>578.0</ele><time>2026-05-02T12:04:15Z</time></trkpt><trkpt lat="44.46212461453981" lon="10.35079502450868"><ele>573.3333333333333</ele><time>2026-05-02T12:04:16Z</time></trkpt><trkpt lat="44.461940325070614" lon="10.350873460652139"><ele>568.6666666666666</ele><time>2026-05-02T12:04:17Z</time></trkpt><trkpt lat="44.4617557787081" lon="10.350972492840986"><ele>564.0</ele><time>2026-05-02T12:04:18Z</time></trkpt><trkpt lat="44.46157904704644" lon="10.351088202514019"><ele>564.0</ele><time>2026-05-02T12:04:19Z</time></trkpt><trkpt lat="44.461398879099754" lon="10.35122767507509"><ele>564.0</ele><time>2026-05-02T12:04:20Z</time></trkpt><trkpt lat="44.461220715498186" lon="10.351365661758503"><ele>564.0</ele><time>2026-05-02T12:04:21Z</time></trkpt><trkpt lat="44.46103614789327" lon="10.351487689055421"><ele>564.6666666666666</ele><time>2026-05-02T12:04:22Z</time></trkpt><trkpt lat="44.46083746569984" lon="10.351543275580948"><ele>565.3333333333333</ele><time>2026-05-02T12:04:23Z</time></trkpt><trkpt lat="44.460643275804856" lon="10.351616317841144"><ele>566.0</ele><time>2026-05-02T12:04:24Z</time></trkpt><trkpt lat="44.460451137481414" lon="10.351659568517778"><ele>562.3333333333333</ele><time>2026-05-02T12:04:25Z</time></trkpt><trkpt lat="44.46028746886224" lon="10.351725827492997"><ele>558.6666666666666</ele><time>2026-05-02T12:04:26Z</time></trkpt><trkpt lat="44.46013432137112" lon="10.351816164088062"><ele>555.0</ele><time>2026-05-02T12:04:27Z</time></trkpt><trkpt lat="44.4599852057896" lon="10.351915194839815"><ele>555.0</ele><time>2026-05-02T12:04:28Z</time></trkpt><trkpt lat="44.45983711351075" lon="10.352015279805832"><ele>555.0</ele><time>2026-05-02T12:04:29Z</time></trkpt><trkpt lat="44.459691181701636" lon="10.352122632405246"><ele>555.0</ele><time>2026-05-02T12:04:29.999Z</time></trkpt><trkpt lat="44.45954666202063" lon="10.352238992974442"><ele>555.0</ele><time>2026-05-02T12:04:30.999Z</time></trkpt><trkpt lat="44.45940818339593" lon="10.352367336930607"><ele>555.0</ele><time>2026-05-02T12:04:31.999Z</time></trkpt><trkpt lat="44.45926974582323" lon="10.352474526590797"><ele>555.0</ele><time>2026-05-02T12:04:32.999Z</time></trkpt><trkpt lat="44.4591492972814" lon="10.352577474413774"><ele>555.0</ele><time>2026-05-02T12:04:33.999Z</time></trkpt><trkpt lat="44.45903250874456" lon="10.352691033393413"><ele>555.0</ele><time>2026-05-02T12:04:34.999Z</time></trkpt><trkpt lat="44.458931096123145" lon="10.352802729273812"><ele>555.0</ele><time>2026-05-02T12:04:35.999Z</time></trkpt><trkpt lat="44.45884463969076" lon="10.352926276520709"><ele>555.0</ele><time>2026-05-02T12:04:36.999Z</time></trkpt><trkpt lat="44.458774785874546" lon="10.353020903866906"><ele>555.75</ele><time>2026-05-02T12:04:37.999Z</time></trkpt><trkpt lat="44.45866594547149" lon="10.353082260878072"><ele>556.5</ele><time>2026-05-02T12:04:38.999Z</time></trkpt><trkpt lat="44.45855036624386" lon="10.353102953132021"><ele>557.25</ele><time>2026-05-02T12:04:39.999Z</time></trkpt><trkpt lat="44.458412285638445" lon="10.353088071608417"><ele>558.0</ele><time>2026-05-02T12:04:40.999Z</time></trkpt><trkpt lat="44.45826530772752" lon="10.353045134652358"><ele>554.3333333333334</ele><time>2026-05-02T12:04:41.999Z</time></trkpt><trkpt lat="44.4581080753996" lon="10.353002578030882"><ele>550.6666666666667</ele><time>2026-05-02T12:04:42.999Z</time></trkpt><trkpt lat="44.45794092448798" lon="10.352983089638435"><ele>547.0</ele><time>2026-05-02T12:04:43.999Z</time></trkpt><trkpt lat="44.457778038476135" lon="10.352989612099492"><ele>547.0</ele><time>2026-05-02T12:04:44.999Z</time></trkpt><trkpt lat="44.45762116532993" lon="10.352995022427677"><ele>547.0</ele><time>2026-05-02T12:04:45.999Z</time></trkpt><trkpt lat="44.457449242955015" lon="10.353003010261272"><ele>547.0</ele><time>2026-05-02T12:04:46.999Z</time></trkpt><trkpt lat="44.457276410811104" lon="10.3530111154557"><ele>546.3333333333334</ele><time>2026-05-02T12:04:47.999Z</time></trkpt><trkpt lat="44.45710206925454" lon="10.353015948034207"><ele>545.6666666666666</ele><time>2026-05-02T12:04:48.999Z</time></trkpt><trkpt lat="44.45692370027964" lon="10.353024959102807"><ele>545.0</ele><time>2026-05-02T12:04:49.999Z</time></trkpt><trkpt lat="44.456766398161626" lon="10.353024889791923"><ele>545.0</ele><time>2026-05-02T12:04:50.999Z</time></trkpt><trkpt lat="44.456619824856574" lon="10.353030772298288"><ele>545.0</ele><time>2026-05-02T12:04:51.999Z</time></trkpt><trkpt lat="44.45649628092942" lon="10.353060004470738"><ele>545.0</ele><time>2026-05-02T12:04:52.999Z</time></trkpt><trkpt lat="44.456401630616156" lon="10.353145484953776"><ele>545.0</ele><time>2026-05-02T12:04:53.999Z</time></trkpt><trkpt lat="44.45632346882361" lon="10.353268845921278"><ele>544.25</ele><time>2026-05-02T12:04:54.999Z</time></trkpt><trkpt lat="44.456268729223375" lon="10.353446714345628"><ele>543.5</ele><time>2026-05-02T12:04:55.999Z</time></trkpt><trkpt lat="44.45624017829127" lon="10.353651341083514"><ele>542.75</ele><time>2026-05-02T12:04:56.999Z</time></trkpt><trkpt lat="44.45621989730698" lon="10.353867143275721"><ele>542.0</ele><time>2026-05-02T12:04:57.999Z</time></trkpt><trkpt lat="44.4561876067006" lon="10.354097970010859"><ele>544.5</ele><time>2026-05-02T12:04:58.999Z</time></trkpt><trkpt lat="44.45615785948212" lon="10.354319480001093"><ele>547.0</ele><time>2026-05-02T12:04:59.999Z</time></trkpt><trkpt lat="44.45613073976267" lon="10.354518049296768"><ele>549.5</ele><time>2026-05-02T12:05:00.999Z</time></trkpt><trkpt lat="44.456105020792236" lon="10.35469669031715"><ele>552.0</ele><time>2026-05-02T12:05:01.999Z</time></trkpt><trkpt lat="44.45608474239879" lon="10.354861639748872"><ele>554.4</ele><time>2026-05-02T12:05:02.999Z</time></trkpt><trkpt lat="44.45606344015123" lon="10.35501829768889"><ele>556.8000000000001</ele><time>2026-05-02T12:05:03.999Z</time></trkpt><trkpt lat="44.45603674398745" lon="10.355166029749382"><ele>559.2</ele><time>2026-05-02T12:05:04.999Z</time></trkpt><trkpt lat="44.45601023159917" lon="10.355300753380453"><ele>561.6</ele><time>2026-05-02T12:05:05.999Z</time></trkpt><trkpt lat="44.45596804066895" lon="10.355409184833624"><ele>564.0</ele><time>2026-05-02T12:05:06.999Z</time></trkpt><trkpt lat="44.45592573674423" lon="10.35549582020816"><ele>565.3333333333334</ele><time>2026-05-02T12:05:07.999Z</time></trkpt><trkpt lat="44.455895801023026" lon="10.355578143739551"><ele>566.6666666666666</ele><time>2026-05-02T12:05:08.999Z</time></trkpt><trkpt lat="44.45584359665561" lon="10.355645998446734"><ele>568.0</ele><time>2026-05-02T12:05:09.999Z</time></trkpt><trkpt lat="44.455765939045335" lon="10.355765190577745"><ele>569.3333333333333</ele><time>2026-05-02T12:05:11.999Z</time></trkpt><trkpt lat="44.45570562257342" lon="10.355869253533815"><ele>570.6666666666666</ele><time>2026-05-02T12:05:13.999Z</time></trkpt><trkpt lat="44.455667903930106" lon="10.355953879560433"><ele>572.0</ele><time>2026-05-02T12:05:14.999Z</time></trkpt><trkpt lat="44.45563019381074" lon="10.356074098323907"><ele>572.0</ele><time>2026-05-02T12:05:15.999Z</time></trkpt><trkpt lat="44.455626796657114" lon="10.356228033176691"><ele>572.0</ele><time>2026-05-02T12:05:16.999Z</time></trkpt><trkpt lat="44.45564329956404" lon="10.35639859157823"><ele>572.0</ele><time>2026-05-02T12:05:17.999Z</time></trkpt><trkpt lat="44.45566492364223" lon="10.356579898400808"><ele>572.0</ele><time>2026-05-02T12:05:18.999Z</time></trkpt><trkpt lat="44.45566638835455" lon="10.356768059548623"><ele>572.5</ele><time>2026-05-02T12:05:19.999Z</time></trkpt><trkpt lat="44.455649830332234" lon="10.35694873275883"><ele>573.0</ele><time>2026-05-02T12:05:20.999Z</time></trkpt><trkpt lat="44.455598298445175" lon="10.357127577809106"><ele>573.5</ele><time>2026-05-02T12:05:21.999Z</time></trkpt><trkpt lat="44.45550101296911" lon="10.357281766507061"><ele>574.0</ele><time>2026-05-02T12:05:22.999Z</time></trkpt><trkpt lat="44.45542420542684" lon="10.357465504890703"><ele>572.0</ele><time>2026-05-02T12:05:23.999Z</time></trkpt><trkpt lat="44.455327481491096" lon="10.357636121713691"><ele>570.0</ele><time>2026-05-02T12:05:24.999Z</time></trkpt><trkpt lat="44.455225990970696" lon="10.357787057108334"><ele>568.0</ele><time>2026-05-02T12:05:25.999Z</time></trkpt><trkpt lat="44.45510950869095" lon="10.357895252383525"><ele>566.0</ele><time>2026-05-02T12:05:26.999Z</time></trkpt><trkpt lat="44.45496664043005" lon="10.357933716982213"><ele>566.0</ele><time>2026-05-02T12:05:27.999Z</time></trkpt><trkpt lat="44.45483182488098" lon="10.357995698843109"><ele>566.0</ele><time>2026-05-02T12:05:28.999Z</time></trkpt><trkpt lat="44.45471554410782" lon="10.3580379143747"><ele>566.0</ele><time>2026-05-02T12:05:29.999Z</time></trkpt><trkpt lat="44.45461812556495" lon="10.358101483964974"><ele>566.0</ele><time>2026-05-02T12:05:30.999Z</time></trkpt><trkpt lat="44.45454994173529" lon="10.358218133042065"><ele>566.75</ele><time>2026-05-02T12:05:31.999Z</time></trkpt><trkpt lat="44.454501972498434" lon="10.358371439743149"><ele>567.5</ele><time>2026-05-02T12:05:32.999Z</time></trkpt><trkpt lat="44.454473019827184" lon="10.358551024315052"><ele>568.25</ele><time>2026-05-02T12:05:33.999Z</time></trkpt><trkpt lat="44.45445389283766" lon="10.358748005972274"><ele>569.0</ele><time>2026-05-02T12:05:34.999Z</time></trkpt><trkpt lat="44.454444348857805" lon="10.358955392052538"><ele>570.75</ele><time>2026-05-02T12:05:35.999Z</time></trkpt><trkpt lat="44.45445229591711" lon="10.35916412736604"><ele>572.5</ele><time>2026-05-02T12:05:36.999Z</time></trkpt><trkpt lat="44.45443262820279" lon="10.359341976482083"><ele>574.25</ele><time>2026-05-02T12:05:37.999Z</time></trkpt><trkpt lat="44.45441202800176" lon="10.359504812215041"><ele>576.0</ele><time>2026-05-02T12:05:38.999Z</time></trkpt><trkpt lat="44.45429875110231" lon="10.359617776279274"><ele>581.3333333333334</ele><time>2026-05-02T12:05:39.999Z</time></trkpt><trkpt lat="44.454194075747395" lon="10.359756876041596"><ele>586.6666666666667</ele><time>2026-05-02T12:05:41Z</time></trkpt><trkpt lat="44.45408554456678" lon="10.359911857409344"><ele>592.0</ele><time>2026-05-02T12:05:42Z</time></trkpt><trkpt lat="44.45397465023334" lon="10.36006457025333"><ele>592.0</ele><time>2026-05-02T12:05:43Z</time></trkpt><trkpt lat="44.45386174268385" lon="10.360215102866524"><ele>592.0</ele><time>2026-05-02T12:05:44Z</time></trkpt><trkpt lat="44.45374543043767" lon="10.360362453701178"><ele>592.0</ele><time>2026-05-02T12:05:45Z</time></trkpt><trkpt lat="44.45362473373792" lon="10.360491276227092"><ele>593.5</ele><time>2026-05-02T12:05:46Z</time></trkpt><trkpt lat="44.45349177848429" lon="10.36058831393604"><ele>595.0</ele><time>2026-05-02T12:05:47Z</time></trkpt><trkpt lat="44.4533535057883" lon="10.360646324276908"><ele>596.5</ele><time>2026-05-02T12:05:48Z</time></trkpt><trkpt lat="44.453245327248865" lon="10.360722147291355"><ele>598.0</ele><time>2026-05-02T12:05:49Z</time></trkpt><trkpt lat="44.45316075853593" lon="10.360847602934065"><ele>598.0</ele><time>2026-05-02T12:05:50Z</time></trkpt><trkpt lat="44.45308810092127" lon="10.361026063715476"><ele>598.0</ele><time>2026-05-02T12:05:51Z</time></trkpt><trkpt lat="44.45302567845374" lon="10.361235983541324"><ele>598.0</ele><time>2026-05-02T12:05:52Z</time></trkpt><trkpt lat="44.452933151062254" lon="10.36143512456069"><ele>597.0</ele><time>2026-05-02T12:05:53Z</time></trkpt><trkpt lat="44.45286201232768" lon="10.361657305155784"><ele>596.0</ele><time>2026-05-02T12:05:54Z</time></trkpt><trkpt lat="44.45278380664186" lon="10.361860228905249"><ele>595.0</ele><time>2026-05-02T12:05:55Z</time></trkpt><trkpt lat="44.4527116415862" lon="10.362065333059798"><ele>597.6666666666667</ele><time>2026-05-02T12:05:56Z</time></trkpt><trkpt lat="44.45265466674635" lon="10.362287651778397"><ele>600.3333333333334</ele><time>2026-05-02T12:05:57Z</time></trkpt><trkpt lat="44.45261223986346" lon="10.362512418659916"><ele>603.0</ele><time>2026-05-02T12:05:58Z</time></trkpt><trkpt lat="44.45258068591698" lon="10.362742251488452"><ele>603.0</ele><time>2026-05-02T12:05:59Z</time></trkpt><trkpt lat="44.452541122719495" lon="10.362976893710348"><ele>603.0</ele><time>2026-05-02T12:06:00Z</time></trkpt><trkpt lat="44.452477750741004" lon="10.363205275152369"><ele>603.0</ele><time>2026-05-02T12:06:01Z</time></trkpt><trkpt lat="44.452398582311545" lon="10.363414511780014"><ele>607.5</ele><time>2026-05-02T12:06:02Z</time></trkpt><trkpt lat="44.4523035656611" lon="10.363616206151203"><ele>612.0</ele><time>2026-05-02T12:06:03Z</time></trkpt><trkpt lat="44.45221665987657" lon="10.363786215047833"><ele>616.5</ele><time>2026-05-02T12:06:04Z</time></trkpt><trkpt lat="44.45213912429037" lon="10.363897873248325"><ele>621.0</ele><time>2026-05-02T12:06:05Z</time></trkpt><trkpt lat="44.452029867648754" lon="10.363932879481744"><ele>621.0</ele><time>2026-05-02T12:06:06Z</time></trkpt><trkpt lat="44.45189441505412" lon="10.363947374815133"><ele>621.0</ele><time>2026-05-02T12:06:07Z</time></trkpt><trkpt lat="44.45176715615859" lon="10.363966267501864"><ele>621.0</ele><time>2026-05-02T12:06:08Z</time></trkpt><trkpt lat="44.45166413800847" lon="10.36398252284016"><ele>621.0</ele><time>2026-05-02T12:06:09Z</time></trkpt><trkpt lat="44.45159675642133" lon="10.364046156347053"><ele>621.0</ele><time>2026-05-02T12:06:10Z</time></trkpt><trkpt lat="44.45156813975971" lon="10.364169076281723"><ele>621.0</ele><time>2026-05-02T12:06:11Z</time></trkpt><trkpt lat="44.45159201761681" lon="10.364307058859069"><ele>621.0</ele><time>2026-05-02T12:06:12Z</time></trkpt><trkpt lat="44.45166009722625" lon="10.364417595987703"><ele>621.0</ele><time>2026-05-02T12:06:13Z</time></trkpt><trkpt lat="44.451763516425395" lon="10.36451777262676"><ele>621.0</ele><time>2026-05-02T12:06:14Z</time></trkpt><trkpt lat="44.45187433820997" lon="10.364644944816012"><ele>620.3333333333334</ele><time>2026-05-02T12:06:15Z</time></trkpt><trkpt lat="44.45197306783224" lon="10.36481917271156"><ele>619.6666666666667</ele><time>2026-05-02T12:06:16Z</time></trkpt><trkpt lat="44.45209699566902" lon="10.36497884960702"><ele>619.0</ele><time>2026-05-02T12:06:17Z</time></trkpt><trkpt lat="44.452176252053654" lon="10.36518852059331"><ele>625.6666666666667</ele><time>2026-05-02T12:06:18Z</time></trkpt><trkpt lat="44.45224040055062" lon="10.3654097952998"><ele>632.3333333333334</ele><time>2026-05-02T12:06:19Z</time></trkpt><trkpt lat="44.452303305145286" lon="10.365635858079031"><ele>639.0</ele><time>2026-05-02T12:06:20Z</time></trkpt><trkpt lat="44.452374529298226" lon="10.365851352104286"><ele>639.0</ele><time>2026-05-02T12:06:21Z</time></trkpt><trkpt lat="44.4524365045588" lon="10.366064640004868"><ele>639.0</ele><time>2026-05-02T12:06:22Z</time></trkpt><trkpt lat="44.452512158616095" lon="10.366264930821028"><ele>639.0</ele><time>2026-05-02T12:06:23Z</time></trkpt><trkpt lat="44.45261214834865" lon="10.366451250333835"><ele>632.6666666666666</ele><time>2026-05-02T12:06:24Z</time></trkpt><trkpt lat="44.45273459025762" lon="10.36661015152778"><ele>626.3333333333333</ele><time>2026-05-02T12:06:25Z</time></trkpt><trkpt lat="44.45283416852358" lon="10.366757578698884"><ele>620.0</ele><time>2026-05-02T12:06:26Z</time></trkpt><trkpt lat="44.45293495419124" lon="10.366905369254226"><ele>631.0</ele><time>2026-05-02T12:06:27Z</time></trkpt><trkpt lat="44.45302747412526" lon="10.367057147751622"><ele>642.0</ele><time>2026-05-02T12:06:28Z</time></trkpt><trkpt lat="44.45304779880282" lon="10.367279605014456"><ele>653.0</ele><time>2026-05-02T12:06:29Z</time></trkpt><trkpt lat="44.4530732649204" lon="10.367503356253591"><ele>653.0</ele><time>2026-05-02T12:06:30Z</time></trkpt><trkpt lat="44.453097687532996" lon="10.367720757551584"><ele>653.0</ele><time>2026-05-02T12:06:31Z</time></trkpt><trkpt lat="44.453127755492424" lon="10.367923435165308"><ele>653.0</ele><time>2026-05-02T12:06:32Z</time></trkpt><trkpt lat="44.45313979675629" lon="10.368126705804688"><ele>653.5</ele><time>2026-05-02T12:06:33Z</time></trkpt><trkpt lat="44.45314626670916" lon="10.368329891812603"><ele>654.0</ele><time>2026-05-02T12:06:33.999Z</time></trkpt><trkpt lat="44.45314167075798" lon="10.368541223868927"><ele>654.5</ele><time>2026-05-02T12:06:34.999Z</time></trkpt><trkpt lat="44.45313776473244" lon="10.368752795172828"><ele>655.0</ele><time>2026-05-02T12:06:35.999Z</time></trkpt><trkpt lat="44.45313759984424" lon="10.368955912546225"><ele>653.75</ele><time>2026-05-02T12:06:36.999Z</time></trkpt><trkpt lat="44.45315542160605" lon="10.36914384531229"><ele>652.5</ele><time>2026-05-02T12:06:37.999Z</time></trkpt><trkpt lat="44.453203408861384" lon="10.36932284975857"><ele>651.25</ele><time>2026-05-02T12:06:38.999Z</time></trkpt><trkpt lat="44.453278142882745" lon="10.36949070412491"><ele>650.0</ele><time>2026-05-02T12:06:39.999Z</time></trkpt><trkpt lat="44.45338394704141" lon="10.369635710189241"><ele>655.3333333333333</ele><time>2026-05-02T12:06:40.999Z</time></trkpt><trkpt lat="44.45352090042838" lon="10.369747267605332"><ele>660.6666666666666</ele><time>2026-05-02T12:06:41.999Z</time></trkpt><trkpt lat="44.4536789673525" lon="10.3698339429082"><ele>666.0</ele><time>2026-05-02T12:06:42.999Z</time></trkpt><trkpt lat="44.45382524425888" lon="10.369964963903817"><ele>666.0</ele><time>2026-05-02T12:06:43.999Z</time></trkpt><trkpt lat="44.453963996651375" lon="10.370121238519829"><ele>666.0</ele><time>2026-05-02T12:06:44.999Z</time></trkpt><trkpt lat="44.45410775486193" lon="10.370275758930212"><ele>666.0</ele><time>2026-05-02T12:06:45.999Z</time></trkpt><trkpt lat="44.45423150735987" lon="10.370449846199097"><ele>659.0</ele><time>2026-05-02T12:06:46.999Z</time></trkpt><trkpt lat="44.4543588609396" lon="10.370595261894056"><ele>652.0</ele><time>2026-05-02T12:06:47.999Z</time></trkpt><trkpt lat="44.45449801621041" lon="10.370701342052026"><ele>645.0</ele><time>2026-05-02T12:06:48.999Z</time></trkpt><trkpt lat="44.4546322157208" lon="10.370767123255145"><ele>645.0</ele><time>2026-05-02T12:06:49.999Z</time></trkpt><trkpt lat="44.45475084920379" lon="10.370813081582359"><ele>645.0</ele><time>2026-05-02T12:06:50.999Z</time></trkpt><trkpt lat="44.45484420289101" lon="10.37082713888656"><ele>645.0</ele><time>2026-05-02T12:06:51.999Z</time></trkpt><trkpt lat="44.45494512844901" lon="10.370781304615244"><ele>645.0</ele><time>2026-05-02T12:06:52.999Z</time></trkpt><trkpt lat="44.45503868783819" lon="10.370673396143937"><ele>645.0</ele><time>2026-05-02T12:06:53.999Z</time></trkpt><trkpt lat="44.455109087610246" lon="10.370512007438363"><ele>650.75</ele><time>2026-05-02T12:06:54.999Z</time></trkpt><trkpt lat="44.45517821980978" lon="10.370336596728187"><ele>656.5</ele><time>2026-05-02T12:06:55.999Z</time></trkpt><trkpt lat="44.455266629770534" lon="10.370239334464534"><ele>662.25</ele><time>2026-05-02T12:06:56.999Z</time></trkpt><trkpt lat="44.45536309326821" lon="10.370200189688235"><ele>668.0</ele><time>2026-05-02T12:06:57.999Z</time></trkpt><trkpt lat="44.455473774058504" lon="10.370201723289258"><ele>668.0</ele><time>2026-05-02T12:06:58.999Z</time></trkpt><trkpt lat="44.45556246836538" lon="10.37030098690569"><ele>668.0</ele><time>2026-05-02T12:06:59.999Z</time></trkpt><trkpt lat="44.45565493222804" lon="10.370451263627807"><ele>668.0</ele><time>2026-05-02T12:07:00.999Z</time></trkpt><trkpt lat="44.45577934539499" lon="10.370603246959085"><ele>668.0</ele><time>2026-05-02T12:07:01.999Z</time></trkpt><trkpt lat="44.455896894086315" lon="10.370785086188171"><ele>661.6666666666666</ele><time>2026-05-02T12:07:02.999Z</time></trkpt><trkpt lat="44.45600759609598" lon="10.370969265132295"><ele>655.3333333333334</ele><time>2026-05-02T12:07:03.999Z</time></trkpt><trkpt lat="44.45613393431758" lon="10.371123955880973"><ele>649.0</ele><time>2026-05-02T12:07:04.999Z</time></trkpt><trkpt lat="44.45623300725503" lon="10.371286140017647"><ele>648.75</ele><time>2026-05-02T12:07:05.999Z</time></trkpt><trkpt lat="44.45633412486592" lon="10.371439048850114"><ele>648.5</ele><time>2026-05-02T12:07:06.999Z</time></trkpt><trkpt lat="44.45643092720137" lon="10.371540238009947"><ele>648.25</ele><time>2026-05-02T12:07:07.999Z</time></trkpt><trkpt lat="44.45654378837643" lon="10.371583982224042"><ele>648.0</ele><time>2026-05-02T12:07:08.999Z</time></trkpt><trkpt lat="44.45667468539193" lon="10.371566477909138"><ele>648.0</ele><time>2026-05-02T12:07:09.999Z</time></trkpt><trkpt lat="44.45681241934091" lon="10.371513213154806"><ele>648.0</ele><time>2026-05-02T12:07:10.999Z</time></trkpt><trkpt lat="44.45695158987295" lon="10.371520974606524"><ele>648.0</ele><time>2026-05-02T12:07:11.999Z</time></trkpt><trkpt lat="44.45705638452707" lon="10.371597983265719"><ele>648.0</ele><time>2026-05-02T12:07:12.999Z</time></trkpt><trkpt lat="44.457162547624385" lon="10.371716968923225"><ele>651.25</ele><time>2026-05-02T12:07:13.999Z</time></trkpt><trkpt lat="44.457277209926396" lon="10.371849398861665"><ele>654.5</ele><time>2026-05-02T12:07:14.999Z</time></trkpt><trkpt lat="44.45737654673493" lon="10.371974167702167"><ele>657.75</ele><time>2026-05-02T12:07:15.999Z</time></trkpt><trkpt lat="44.45749670158672" lon="10.372046479514932"><ele>661.0</ele><time>2026-05-02T12:07:16.999Z</time></trkpt><trkpt lat="44.4576537927563" lon="10.372056400937224"><ele>661.0</ele><time>2026-05-02T12:07:17.999Z</time></trkpt><trkpt lat="44.45782122008064" lon="10.372041273075254"><ele>661.0</ele><time>2026-05-02T12:07:18.999Z</time></trkpt><trkpt lat="44.45800242594005" lon="10.372053976983537"><ele>661.0</ele><time>2026-05-02T12:07:19.999Z</time></trkpt><trkpt lat="44.45818119641137" lon="10.372065516254002"><ele>665.0</ele><time>2026-05-02T12:07:20.999Z</time></trkpt><trkpt lat="44.45834681415436" lon="10.372080600044471"><ele>669.0</ele><time>2026-05-02T12:07:21.999Z</time></trkpt><trkpt lat="44.458503546166185" lon="10.372099023338588"><ele>673.0</ele><time>2026-05-02T12:07:22.999Z</time></trkpt><trkpt lat="44.458639919058456" lon="10.37211425187012"><ele>673.0</ele><time>2026-05-02T12:07:23.999Z</time></trkpt><trkpt lat="44.45874103869942" lon="10.37216308033024"><ele>673.0</ele><time>2026-05-02T12:07:24.999Z</time></trkpt><trkpt lat="44.458817121830656" lon="10.372243626590292"><ele>673.0</ele><time>2026-05-02T12:07:25.999Z</time></trkpt><trkpt lat="44.45887312863915" lon="10.372372719149837"><ele>673.0</ele><time>2026-05-02T12:07:26.999Z</time></trkpt><trkpt lat="44.45886915909181" lon="10.372538143381362"><ele>673.0</ele><time>2026-05-02T12:07:27.999Z</time></trkpt><trkpt lat="44.45881945489892" lon="10.37267784354525"><ele>669.6666666666667</ele><time>2026-05-02T12:07:28.999Z</time></trkpt><trkpt lat="44.45877619870528" lon="10.372870384038738"><ele>666.3333333333334</ele><time>2026-05-02T12:07:29.999Z</time></trkpt><trkpt lat="44.45872899291833" lon="10.373080659857788"><ele>663.0</ele><time>2026-05-02T12:07:30.999Z</time></trkpt><trkpt lat="44.45867982375643" lon="10.373294811230902"><ele>663.0</ele><time>2026-05-02T12:07:31.999Z</time></trkpt><trkpt lat="44.45863231437664" lon="10.373489022669364"><ele>663.0</ele><time>2026-05-02T12:07:32.999Z</time></trkpt><trkpt lat="44.458576971521936" lon="10.373661604662567"><ele>663.0</ele><time>2026-05-02T12:07:33.999Z</time></trkpt><trkpt lat="44.458496477390696" lon="10.373791266611319"><ele>663.0</ele><time>2026-05-02T12:07:34.999Z</time></trkpt><trkpt lat="44.45838745586398" lon="10.373826918459333"><ele>663.0</ele><time>2026-05-02T12:07:35.999Z</time></trkpt><trkpt lat="44.45826866084989" lon="10.373790118854387"><ele>663.0</ele><time>2026-05-02T12:07:36.999Z</time></trkpt><trkpt lat="44.458113144219105" lon="10.37376073781993"><ele>663.0</ele><time>2026-05-02T12:07:37.999Z</time></trkpt><trkpt lat="44.457948660076624" lon="10.373739620355073"><ele>663.0</ele><time>2026-05-02T12:07:38.999Z</time></trkpt><trkpt lat="44.457775999162976" lon="10.373733229739928"><ele>661.6666666666666</ele><time>2026-05-02T12:07:39.999Z</time></trkpt><trkpt lat="44.4576063286872" lon="10.373732279258626"><ele>660.3333333333333</ele><time>2026-05-02T12:07:40.999Z</time></trkpt><trkpt lat="44.45743745532988" lon="10.373731559338502"><ele>659.0</ele><time>2026-05-02T12:07:41.999Z</time></trkpt><trkpt lat="44.45727844847873" lon="10.373728857934491"><ele>659.0</ele><time>2026-05-02T12:07:42.999Z</time></trkpt><trkpt lat="44.457134207497255" lon="10.373749579514476"><ele>659.0</ele><time>2026-05-02T12:07:43.999Z</time></trkpt><trkpt lat="44.45700454496485" lon="10.37376010155853"><ele>659.0</ele><time>2026-05-02T12:07:44.999Z</time></trkpt><trkpt lat="44.45687088522439" lon="10.373815746772216"><ele>659.0</ele><time>2026-05-02T12:07:45.999Z</time></trkpt><trkpt lat="44.45674848108536" lon="10.373935678166115"><ele>662.0</ele><time>2026-05-02T12:07:47Z</time></trkpt><trkpt lat="44.45664566235041" lon="10.374070128496767"><ele>665.0</ele><time>2026-05-02T12:07:48Z</time></trkpt><trkpt lat="44.45657853340294" lon="10.374202851269594"><ele>668.0</ele><time>2026-05-02T12:07:49Z</time></trkpt><trkpt lat="44.45655664583373" lon="10.374320173170615"><ele>671.0</ele><time>2026-05-02T12:07:50Z</time></trkpt><trkpt lat="44.45658601712786" lon="10.374446602846401"><ele>674.0</ele><time>2026-05-02T12:07:51Z</time></trkpt><trkpt lat="44.45666940321525" lon="10.374583681581154"><ele>675.0</ele><time>2026-05-02T12:07:52Z</time></trkpt><trkpt lat="44.45676617001702" lon="10.374800228082815"><ele>676.0</ele><time>2026-05-02T12:07:53Z</time></trkpt><trkpt lat="44.45682592801089" lon="10.374972281614637"><ele>677.0</ele><time>2026-05-02T12:07:54Z</time></trkpt><trkpt lat="44.456888902079086" lon="10.375152109886237"><ele>677.0</ele><time>2026-05-02T12:07:55Z</time></trkpt><trkpt lat="44.45695569480457" lon="10.375342842930547"><ele>677.0</ele><time>2026-05-02T12:07:56Z</time></trkpt><trkpt lat="44.457020707945546" lon="10.37553250977551"><ele>677.0</ele><time>2026-05-02T12:07:57Z</time></trkpt><trkpt lat="44.45708636411089" lon="10.375724319813367"><ele>679.3333333333333</ele><time>2026-05-02T12:07:58Z</time></trkpt><trkpt lat="44.457153605046145" lon="10.375920759687078"><ele>681.6666666666666</ele><time>2026-05-02T12:07:59Z</time></trkpt><trkpt lat="44.45723788733658" lon="10.376116017336926"><ele>684.0</ele><time>2026-05-02T12:08:00Z</time></trkpt><trkpt lat="44.45730956763372" lon="10.376320144109927"><ele>682.6666666666666</ele><time>2026-05-02T12:08:01Z</time></trkpt><trkpt lat="44.45737311116441" lon="10.376523198863238"><ele>681.3333333333333</ele><time>2026-05-02T12:08:02Z</time></trkpt><trkpt lat="44.45744453302096" lon="10.376732409808481"><ele>680.0</ele><time>2026-05-02T12:08:03Z</time></trkpt><trkpt lat="44.457517714023005" lon="10.376935317614251"><ele>680.0</ele><time>2026-05-02T12:08:04Z</time></trkpt><trkpt lat="44.45758582097279" lon="10.377145134275493"><ele>680.0</ele><time>2026-05-02T12:08:05Z</time></trkpt><trkpt lat="44.45765637704321" lon="10.377336901525192"><ele>680.0</ele><time>2026-05-02T12:08:06Z</time></trkpt><trkpt lat="44.45774507081768" lon="10.377505941356013"><ele>679.0</ele><time>2026-05-02T12:08:07Z</time></trkpt><trkpt lat="44.45785983839449" lon="10.377657921413016"><ele>678.0</ele><time>2026-05-02T12:08:08Z</time></trkpt><trkpt lat="44.45798985788422" lon="10.377801348661828"><ele>677.0</ele><time>2026-05-02T12:08:09Z</time></trkpt><trkpt lat="44.45813046260388" lon="10.377948643753424"><ele>675.0</ele><time>2026-05-02T12:08:10Z</time></trkpt><trkpt lat="44.45826337379499" lon="10.378096368668265"><ele>673.0</ele><time>2026-05-02T12:08:11Z</time></trkpt><trkpt lat="44.45839703482916" lon="10.378256703604475"><ele>671.0</ele><time>2026-05-02T12:08:12Z</time></trkpt><trkpt lat="44.45851375415958" lon="10.378415288260125"><ele>671.0</ele><time>2026-05-02T12:08:13Z</time></trkpt><trkpt lat="44.45860137329522" lon="10.378596599113449"><ele>671.0</ele><time>2026-05-02T12:08:14Z</time></trkpt><trkpt lat="44.458683117752365" lon="10.378786816375442"><ele>671.0</ele><time>2026-05-02T12:08:15Z</time></trkpt><trkpt lat="44.45876063986379" lon="10.378987672737201"><ele>672.3333333333333</ele><time>2026-05-02T12:08:16Z</time></trkpt><trkpt lat="44.45884347956622" lon="10.379206729698163"><ele>673.6666666666666</ele><time>2026-05-02T12:08:17Z</time></trkpt><trkpt lat="44.45892617333132" lon="10.379398722511581"><ele>675.0</ele><time>2026-05-02T12:08:18Z</time></trkpt><trkpt lat="44.45899447017373" lon="10.379584924490874"><ele>674.75</ele><time>2026-05-02T12:08:19Z</time></trkpt><trkpt lat="44.459043757854026" lon="10.379767871717407"><ele>674.5</ele><time>2026-05-02T12:08:20Z</time></trkpt><trkpt lat="44.45903645328598" lon="10.379951343744235"><ele>674.25</ele><time>2026-05-02T12:08:21Z</time></trkpt><trkpt lat="44.45902724376333" lon="10.38012061928462"><ele>674.0</ele><time>2026-05-02T12:08:22Z</time></trkpt><trkpt lat="44.459027010815085" lon="10.38027178139834"><ele>674.0</ele><time>2026-05-02T12:08:23Z</time></trkpt><trkpt lat="44.459007686621945" lon="10.380397329610375"><ele>674.0</ele><time>2026-05-02T12:08:24Z</time></trkpt><trkpt lat="44.45899039254145" lon="10.380501106334998"><ele>674.0</ele><time>2026-05-02T12:08:25Z</time></trkpt><trkpt lat="44.458968610146776" lon="10.380596265938113"><ele>674.0</ele><time>2026-05-02T12:08:26Z</time></trkpt><trkpt lat="44.458933103909764" lon="10.38068546601932"><ele>674.0</ele><time>2026-05-02T12:08:27Z</time></trkpt><trkpt lat="44.458874359322" lon="10.380777552476275"><ele>674.0</ele><time>2026-05-02T12:08:28Z</time></trkpt><trkpt lat="44.45880233926703" lon="10.380867511720048"><ele>674.0</ele><time>2026-05-02T12:08:29Z</time></trkpt><trkpt lat="44.45872132963404" lon="10.380941729196214"><ele>674.0</ele><time>2026-05-02T12:08:30Z</time></trkpt><trkpt lat="44.45864180876189" lon="10.381016430798436"><ele>674.0</ele><time>2026-05-02T12:08:31Z</time></trkpt><trkpt lat="44.458568735971944" lon="10.381093936248691"><ele>674.0</ele><time>2026-05-02T12:08:32Z</time></trkpt><trkpt lat="44.458491491871385" lon="10.38117698450368"><ele>674.0</ele><time>2026-05-02T12:08:33Z</time></trkpt><trkpt lat="44.45842055317446" lon="10.381262438999542"><ele>674.4000000000001</ele><time>2026-05-02T12:08:34Z</time></trkpt><trkpt lat="44.458361040502254" lon="10.381356363837112"><ele>674.8</ele><time>2026-05-02T12:08:35Z</time></trkpt><trkpt lat="44.45833232216297" lon="10.381470707183954"><ele>675.2</ele><time>2026-05-02T12:08:36Z</time></trkpt><trkpt lat="44.45833487970498" lon="10.381619517418459"><ele>675.5999999999999</ele><time>2026-05-02T12:08:36.999Z</time></trkpt><trkpt lat="44.45835416265933" lon="10.381783319670516"><ele>676.0</ele><time>2026-05-02T12:08:37.999Z</time></trkpt><trkpt lat="44.458354652083344" lon="10.38195057138825"><ele>676.0</ele><time>2026-05-02T12:08:38.999Z</time></trkpt><trkpt lat="44.458363660263274" lon="10.382111004690202"><ele>676.0</ele><time>2026-05-02T12:08:39.999Z</time></trkpt><trkpt lat="44.45836725327569" lon="10.38225789534767"><ele>676.0</ele><time>2026-05-02T12:08:40.999Z</time></trkpt><trkpt lat="44.458354531677585" lon="10.382404456628946"><ele>676.0</ele><time>2026-05-02T12:08:41.999Z</time></trkpt><trkpt lat="44.45830071146296" lon="10.38254614312387"><ele>676.0</ele><time>2026-05-02T12:08:42.999Z</time></trkpt><trkpt lat="44.458223390392504" lon="10.382690448922988"><ele>674.25</ele><time>2026-05-02T12:08:43.999Z</time></trkpt><trkpt lat="44.458128500182234" lon="10.382839087429529"><ele>672.5</ele><time>2026-05-02T12:08:44.999Z</time></trkpt><trkpt lat="44.45803477255351" lon="10.383007433256722"><ele>670.75</ele><time>2026-05-02T12:08:45.999Z</time></trkpt><trkpt lat="44.45793687113194" lon="10.383149920745689"><ele>669.0</ele><time>2026-05-02T12:08:46.999Z</time></trkpt><trkpt lat="44.457851640304106" lon="10.383279073813771"><ele>668.8000000000001</ele><time>2026-05-02T12:08:47.999Z</time></trkpt><trkpt lat="44.457775932741356" lon="10.383406092862689"><ele>668.6</ele><time>2026-05-02T12:08:48.999Z</time></trkpt><trkpt lat="44.45770781893924" lon="10.383530724427905"><ele>668.4</ele><time>2026-05-02T12:08:49.999Z</time></trkpt><trkpt lat="44.45764781998561" lon="10.383656701577957"><ele>668.2</ele><time>2026-05-02T12:08:50.999Z</time></trkpt><trkpt lat="44.45761510115183" lon="10.3837691435332"><ele>668.0</ele><time>2026-05-02T12:08:51.999Z</time></trkpt><trkpt lat="44.45759444504306" lon="10.383929556501144"><ele>667.25</ele><time>2026-05-02T12:08:52.999Z</time></trkpt><trkpt lat="44.45759318302184" lon="10.384093992534659"><ele>666.5</ele><time>2026-05-02T12:08:53.999Z</time></trkpt><trkpt lat="44.45759702264122" lon="10.384269198337964"><ele>665.75</ele><time>2026-05-02T12:08:54.999Z</time></trkpt><trkpt lat="44.45760149848027" lon="10.38444604100312"><ele>665.0</ele><time>2026-05-02T12:08:55.999Z</time></trkpt><trkpt lat="44.45759263228595" lon="10.38461792685647"><ele>661.6</ele><time>2026-05-02T12:08:56.999Z</time></trkpt><trkpt lat="44.45758769383949" lon="10.38477402467641"><ele>658.2</ele><time>2026-05-02T12:08:57.999Z</time></trkpt><trkpt lat="44.45755596736271" lon="10.38488705176477"><ele>654.8</ele><time>2026-05-02T12:08:58.999Z</time></trkpt><trkpt lat="44.457493883439014" lon="10.384962032028875"><ele>651.4</ele><time>2026-05-02T12:08:59.999Z</time></trkpt><trkpt lat="44.4574003989519" lon="10.384981739585324"><ele>648.0</ele><time>2026-05-02T12:09:00.999Z</time></trkpt><trkpt lat="44.457304373833075" lon="10.384950432031461"><ele>648.0</ele><time>2026-05-02T12:09:01.999Z</time></trkpt><trkpt lat="44.45719683322986" lon="10.384893573028725"><ele>648.0</ele><time>2026-05-02T12:09:02.999Z</time></trkpt><trkpt lat="44.457083246262926" lon="10.38483049027319"><ele>648.0</ele><time>2026-05-02T12:09:03.999Z</time></trkpt><trkpt lat="44.4569578830394" lon="10.384755055446947"><ele>648.0</ele><time>2026-05-02T12:09:04.999Z</time></trkpt><trkpt lat="44.45681879440467" lon="10.384675078654306"><ele>651.6666666666666</ele><time>2026-05-02T12:09:05.999Z</time></trkpt><trkpt lat="44.45666763466685" lon="10.384580438947102"><ele>655.3333333333333</ele><time>2026-05-02T12:09:06.999Z</time></trkpt><trkpt lat="44.456522241191855" lon="10.384465970284852"><ele>659.0</ele><time>2026-05-02T12:09:07.999Z</time></trkpt><trkpt lat="44.456381623136295" lon="10.384321539078867"><ele>652.3333333333333</ele><time>2026-05-02T12:09:08.999Z</time></trkpt><trkpt lat="44.45625154004562" lon="10.38417369911876"><ele>645.6666666666666</ele><time>2026-05-02T12:09:09.999Z</time></trkpt><trkpt lat="44.45611022471214" lon="10.384073052481135"><ele>639.0</ele><time>2026-05-02T12:09:10.999Z</time></trkpt><trkpt lat="44.45595405138327" lon="10.384008750005039"><ele>639.0</ele><time>2026-05-02T12:09:11.999Z</time></trkpt><trkpt lat="44.455801239333994" lon="10.383989802011587"><ele>639.0</ele><time>2026-05-02T12:09:12.999Z</time></trkpt><trkpt lat="44.45563701232821" lon="10.383992191315206"><ele>639.0</ele><time>2026-05-02T12:09:13.999Z</time></trkpt><trkpt lat="44.455489584345116" lon="10.384001258301513"><ele>638.5</ele><time>2026-05-02T12:09:14.999Z</time></trkpt><trkpt lat="44.45536086114925" lon="10.383989993793143"><ele>638.0</ele><time>2026-05-02T12:09:15.999Z</time></trkpt><trkpt lat="44.45524434444814" lon="10.38393286002504"><ele>637.5</ele><time>2026-05-02T12:09:16.999Z</time></trkpt><trkpt lat="44.45514170464693" lon="10.38380010402579"><ele>637.0</ele><time>2026-05-02T12:09:17.999Z</time></trkpt><trkpt lat="44.45504005878818" lon="10.383632256095773"><ele>637.0</ele><time>2026-05-02T12:09:18.999Z</time></trkpt><trkpt lat="44.45493893718992" lon="10.383475321626294"><ele>637.0</ele><time>2026-05-02T12:09:19.999Z</time></trkpt><trkpt lat="44.454865212489736" lon="10.383344817742941"><ele>637.0</ele><time>2026-05-02T12:09:20.999Z</time></trkpt><trkpt lat="44.45478137213119" lon="10.383273123587108"><ele>637.0</ele><time>2026-05-02T12:09:21.999Z</time></trkpt><trkpt lat="44.45469029960564" lon="10.3832578833523"><ele>635.5</ele><time>2026-05-02T12:09:22.999Z</time></trkpt><trkpt lat="44.45459710940636" lon="10.383297046124689"><ele>634.0</ele><time>2026-05-02T12:09:23.999Z</time></trkpt><trkpt lat="44.454507928363896" lon="10.383394839917512"><ele>632.5</ele><time>2026-05-02T12:09:24.999Z</time></trkpt><trkpt lat="44.45440950127175" lon="10.383498300912965"><ele>631.0</ele><time>2026-05-02T12:09:25.999Z</time></trkpt><trkpt lat="44.454282523102066" lon="10.38361587172104"><ele>631.0</ele><time>2026-05-02T12:09:26.999Z</time></trkpt><trkpt lat="44.45415829484791" lon="10.383725421902376"><ele>631.0</ele><time>2026-05-02T12:09:27.999Z</time></trkpt><trkpt lat="44.45403787273781" lon="10.38383802684122"><ele>631.0</ele><time>2026-05-02T12:09:28.999Z</time></trkpt><trkpt lat="44.45391175311069" lon="10.383953957118516"><ele>631.0</ele><time>2026-05-02T12:09:29.999Z</time></trkpt><trkpt lat="44.453785438670295" lon="10.38405936858502"><ele>628.0</ele><time>2026-05-02T12:09:30.999Z</time></trkpt><trkpt lat="44.45365872949308" lon="10.384158791360958"><ele>625.0</ele><time>2026-05-02T12:09:31.999Z</time></trkpt><trkpt lat="44.45353305319832" lon="10.384259725760332"><ele>622.0</ele><time>2026-05-02T12:09:32.999Z</time></trkpt><trkpt lat="44.453411933229354" lon="10.384368005422472"><ele>619.0</ele><time>2026-05-02T12:09:33.999Z</time></trkpt><trkpt lat="44.45329548583902" lon="10.38447821270262"><ele>619.0</ele><time>2026-05-02T12:09:34.999Z</time></trkpt><trkpt lat="44.453173456249964" lon="10.384584608871727"><ele>619.0</ele><time>2026-05-02T12:09:35.999Z</time></trkpt><trkpt lat="44.45305035288776" lon="10.384687212554043"><ele>619.0</ele><time>2026-05-02T12:09:36.999Z</time></trkpt><trkpt lat="44.45292933697829" lon="10.384821389766199"><ele>619.0</ele><time>2026-05-02T12:09:37.999Z</time></trkpt><trkpt lat="44.45281500312481" lon="10.384987330766254"><ele>617.6666666666667</ele><time>2026-05-02T12:09:38.999Z</time></trkpt><trkpt lat="44.45270785371535" lon="10.385165048536155"><ele>616.3333333333334</ele><time>2026-05-02T12:09:39.999Z</time></trkpt><trkpt lat="44.45259252463774" lon="10.38535842596552"><ele>615.0</ele><time>2026-05-02T12:09:40.999Z</time></trkpt><trkpt lat="44.45247498105654" lon="10.38554865101444"><ele>615.0</ele><time>2026-05-02T12:09:41.999Z</time></trkpt><trkpt lat="44.45236324377676" lon="10.385727426272151"><ele>615.0</ele><time>2026-05-02T12:09:42.999Z</time></trkpt><trkpt lat="44.45225254965122" lon="10.385913138722797"><ele>615.0</ele><time>2026-05-02T12:09:43.999Z</time></trkpt><trkpt lat="44.45213881853125" lon="10.386095549795211"><ele>614.6666666666666</ele><time>2026-05-02T12:09:44.999Z</time></trkpt><trkpt lat="44.4520315930531" lon="10.386270385922982"><ele>614.3333333333333</ele><time>2026-05-02T12:09:45.999Z</time></trkpt><trkpt lat="44.451925217203126" lon="10.386436679424795"><ele>614.0</ele><time>2026-05-02T12:09:46.999Z</time></trkpt><trkpt lat="44.451817990698196" lon="10.386614388492083"><ele>614.0</ele><time>2026-05-02T12:09:47.999Z</time></trkpt><trkpt lat="44.451701677260175" lon="10.386797268983669"><ele>614.0</ele><time>2026-05-02T12:09:48.999Z</time></trkpt><trkpt lat="44.45158475667706" lon="10.386984934861092"><ele>614.0</ele><time>2026-05-02T12:09:49.999Z</time></trkpt><trkpt lat="44.451467604619495" lon="10.387174294301762"><ele>613.6666666666666</ele><time>2026-05-02T12:09:50.999Z</time></trkpt><trkpt lat="44.45134779956497" lon="10.387356847071043"><ele>613.3333333333334</ele><time>2026-05-02T12:09:51.999Z</time></trkpt><trkpt lat="44.451231824158704" lon="10.38754953469704"><ele>613.0</ele><time>2026-05-02T12:09:53Z</time></trkpt><trkpt lat="44.45111396815957" lon="10.387737959195467"><ele>614.0</ele><time>2026-05-02T12:09:54Z</time></trkpt><trkpt lat="44.450998439255024" lon="10.387929821136845"><ele>615.0</ele><time>2026-05-02T12:09:55Z</time></trkpt><trkpt lat="44.450882092701185" lon="10.388115023974237"><ele>616.0</ele><time>2026-05-02T12:09:56Z</time></trkpt><trkpt lat="44.4507716152631" lon="10.388295772852063"><ele>617.0</ele><time>2026-05-02T12:09:57Z</time></trkpt><trkpt lat="44.45066866453186" lon="10.388476287537008"><ele>618.0</ele><time>2026-05-02T12:09:58Z</time></trkpt><trkpt lat="44.450556145635545" lon="10.388655979890336"><ele>619.0</ele><time>2026-05-02T12:09:59Z</time></trkpt><trkpt lat="44.45044209655797" lon="10.388826210998927"><ele>620.3333333333334</ele><time>2026-05-02T12:10:00Z</time></trkpt><trkpt lat="44.45031110458418" lon="10.388981283633296"><ele>621.6666666666666</ele><time>2026-05-02T12:10:01Z</time></trkpt><trkpt lat="44.45016624745678" lon="10.389122734326666"><ele>623.0</ele><time>2026-05-02T12:10:02Z</time></trkpt><trkpt lat="44.45002277165982" lon="10.389255576884853"><ele>623.0</ele><time>2026-05-02T12:10:03Z</time></trkpt><trkpt lat="44.44988688620495" lon="10.389382941931855"><ele>623.0</ele><time>2026-05-02T12:10:04Z</time></trkpt><trkpt lat="44.44976010649173" lon="10.389500725449512"><ele>623.0</ele><time>2026-05-02T12:10:05Z</time></trkpt><trkpt lat="44.44964306760275" lon="10.389631894506522"><ele>622.3333333333333</ele><time>2026-05-02T12:10:06Z</time></trkpt><trkpt lat="44.449537956825274" lon="10.389778011675794"><ele>621.6666666666666</ele><time>2026-05-02T12:10:07Z</time></trkpt><trkpt lat="44.44944013689138" lon="10.38994329722469"><ele>621.0</ele><time>2026-05-02T12:10:08Z</time></trkpt><trkpt lat="44.44936157277258" lon="10.390119829232173"><ele>621.0</ele><time>2026-05-02T12:10:09Z</time></trkpt><trkpt lat="44.44929651337241" lon="10.390323013919671"><ele>621.0</ele><time>2026-05-02T12:10:10Z</time></trkpt><trkpt lat="44.44924114211356" lon="10.390538935140658"><ele>621.0</ele><time>2026-05-02T12:10:11Z</time></trkpt><trkpt lat="44.4491724183233" lon="10.390735103046202"><ele>621.0</ele><time>2026-05-02T12:10:12Z</time></trkpt><trkpt lat="44.449112146206254" lon="10.390965565960181"><ele>621.0</ele><time>2026-05-02T12:10:13Z</time></trkpt><trkpt lat="44.44904642912839" lon="10.391199661221256"><ele>621.0</ele><time>2026-05-02T12:10:14Z</time></trkpt><trkpt lat="44.448946024833155" lon="10.391382997077935"><ele>621.0</ele><time>2026-05-02T12:10:15Z</time></trkpt><trkpt lat="44.448826319010465" lon="10.391528621801458"><ele>621.0</ele><time>2026-05-02T12:10:16Z</time></trkpt><trkpt lat="44.4486881992276" lon="10.391647992530048"><ele>621.0</ele><time>2026-05-02T12:10:17Z</time></trkpt><trkpt lat="44.44853462210192" lon="10.391753380498425"><ele>620.6666666666666</ele><time>2026-05-02T12:10:18Z</time></trkpt><trkpt lat="44.44836883004757" lon="10.39184853286393"><ele>620.3333333333333</ele><time>2026-05-02T12:10:19Z</time></trkpt><trkpt lat="44.44819013822266" lon="10.391933330272717"><ele>620.0</ele><time>2026-05-02T12:10:20Z</time></trkpt><trkpt lat="44.448008300476694" lon="10.392038905222586"><ele>620.3333333333333</ele><time>2026-05-02T12:10:21Z</time></trkpt><trkpt lat="44.447825835463014" lon="10.39211429604308"><ele>620.6666666666666</ele><time>2026-05-02T12:10:22Z</time></trkpt><trkpt lat="44.44765163227498" lon="10.392198212493094"><ele>621.0</ele><time>2026-05-02T12:10:23Z</time></trkpt><trkpt lat="44.44747996763339" lon="10.392281345535649"><ele>624.3333333333334</ele><time>2026-05-02T12:10:24Z</time></trkpt><trkpt lat="44.44731677545168" lon="10.392358037776377"><ele>627.6666666666667</ele><time>2026-05-02T12:10:25Z</time></trkpt><trkpt lat="44.44716126344372" lon="10.392425068383659"><ele>631.0</ele><time>2026-05-02T12:10:26Z</time></trkpt><trkpt lat="44.446997413169996" lon="10.392460535134376"><ele>631.6666666666667</ele><time>2026-05-02T12:10:27Z</time></trkpt><trkpt lat="44.44682802856512" lon="10.392395523875376"><ele>632.3333333333334</ele><time>2026-05-02T12:10:28Z</time></trkpt><trkpt lat="44.446652409701535" lon="10.392364065366205"><ele>633.0</ele><time>2026-05-02T12:10:29Z</time></trkpt><trkpt lat="44.446475468198635" lon="10.392353393302322"><ele>633.0</ele><time>2026-05-02T12:10:30Z</time></trkpt><trkpt lat="44.446297723718075" lon="10.392309736329059"><ele>633.0</ele><time>2026-05-02T12:10:30.999Z</time></trkpt><trkpt lat="44.446121663660094" lon="10.392270292013794"><ele>633.0</ele><time>2026-05-02T12:10:31.999Z</time></trkpt><trkpt lat="44.44594779292717" lon="10.392234269696928"><ele>632.0</ele><time>2026-05-02T12:10:32.999Z</time></trkpt><trkpt lat="44.44577429706145" lon="10.392200125457766"><ele>631.0</ele><time>2026-05-02T12:10:33.999Z</time></trkpt><trkpt lat="44.445602515534254" lon="10.39216192212055"><ele>630.0</ele><time>2026-05-02T12:10:34.999Z</time></trkpt><trkpt lat="44.44543321185666" lon="10.392135434990918"><ele>632.6666666666666</ele><time>2026-05-02T12:10:35.999Z</time></trkpt><trkpt lat="44.44525768992361" lon="10.3921103899533"><ele>635.3333333333333</ele><time>2026-05-02T12:10:36.999Z</time></trkpt><trkpt lat="44.445086556745" lon="10.392079482307674"><ele>638.0</ele><time>2026-05-02T12:10:37.999Z</time></trkpt><trkpt lat="44.44492094382479" lon="10.392050854874421"><ele>638.0</ele><time>2026-05-02T12:10:38.999Z</time></trkpt><trkpt lat="44.44478234719418" lon="10.392019909065842"><ele>638.0</ele><time>2026-05-02T12:10:39.999Z</time></trkpt><trkpt lat="44.44464216326404" lon="10.391989448626006"><ele>638.0</ele><time>2026-05-02T12:10:40.999Z</time></trkpt><trkpt lat="44.44448784343573" lon="10.391963571222096"><ele>638.0</ele><time>2026-05-02T12:10:41.999Z</time></trkpt><trkpt lat="44.444346378597956" lon="10.391948361407024"><ele>641.5</ele><time>2026-05-02T12:10:42.999Z</time></trkpt><trkpt lat="44.444205181741694" lon="10.391964714791532"><ele>645.0</ele><time>2026-05-02T12:10:43.999Z</time></trkpt><trkpt lat="44.44405976026619" lon="10.392014098777729"><ele>648.5</ele><time>2026-05-02T12:10:44.999Z</time></trkpt><trkpt lat="44.443909451321744" lon="10.392082436035839"><ele>652.0</ele><time>2026-05-02T12:10:45.999Z</time></trkpt><trkpt lat="44.44375825324419" lon="10.392165077302261"><ele>651.6666666666667</ele><time>2026-05-02T12:10:46.999Z</time></trkpt><trkpt lat="44.44359706214967" lon="10.392231654234001"><ele>651.3333333333334</ele><time>2026-05-02T12:10:47.999Z</time></trkpt><trkpt lat="44.443434244479825" lon="10.392292773071643"><ele>651.0</ele><time>2026-05-02T12:10:48.999Z</time></trkpt><trkpt lat="44.44327881986992" lon="10.392345775804655"><ele>651.0</ele><time>2026-05-02T12:10:49.999Z</time></trkpt><trkpt lat="44.44312824254094" lon="10.392383102019645"><ele>651.0</ele><time>2026-05-02T12:10:50.999Z</time></trkpt><trkpt lat="44.44297390925134" lon="10.39241500224304"><ele>651.0</ele><time>2026-05-02T12:10:51.999Z</time></trkpt><trkpt lat="44.44281683516331" lon="10.392438278350067"><ele>649.3333333333334</ele><time>2026-05-02T12:10:52.999Z</time></trkpt><trkpt lat="44.442651373342564" lon="10.392466623755794"><ele>647.6666666666667</ele><time>2026-05-02T12:10:53.999Z</time></trkpt><trkpt lat="44.44248968630956" lon="10.392470027519497"><ele>646.0</ele><time>2026-05-02T12:10:54.999Z</time></trkpt><trkpt lat="44.44233962093675" lon="10.3924643342156"><ele>646.0</ele><time>2026-05-02T12:10:55.999Z</time></trkpt><trkpt lat="44.44219691642509" lon="10.392489845596812"><ele>646.0</ele><time>2026-05-02T12:10:56.999Z</time></trkpt><trkpt lat="44.442067325659195" lon="10.392568510466138"><ele>646.0</ele><time>2026-05-02T12:10:57.999Z</time></trkpt><trkpt lat="44.44195886815333" lon="10.39269349334073"><ele>646.0</ele><time>2026-05-02T12:10:58.999Z</time></trkpt><trkpt lat="44.44187099330641" lon="10.392847048161208"><ele>648.75</ele><time>2026-05-02T12:10:59.999Z</time></trkpt><trkpt lat="44.44180585491137" lon="10.393020986742401"><ele>651.5</ele><time>2026-05-02T12:11:00.999Z</time></trkpt><trkpt lat="44.44175147941038" lon="10.393200905238572"><ele>654.25</ele><time>2026-05-02T12:11:01.999Z</time></trkpt><trkpt lat="44.441704040031" lon="10.393370580090577"><ele>657.0</ele><time>2026-05-02T12:11:02.999Z</time></trkpt><trkpt lat="44.4416633237828" lon="10.393540432884802"><ele>657.0</ele><time>2026-05-02T12:11:03.999Z</time></trkpt><trkpt lat="44.44162232344512" lon="10.393706703089967"><ele>657.0</ele><time>2026-05-02T12:11:04.999Z</time></trkpt><trkpt lat="44.4415821612209" lon="10.393870556149613"><ele>657.0</ele><time>2026-05-02T12:11:05.999Z</time></trkpt><trkpt lat="44.44153337211636" lon="10.394026309161232"><ele>657.0</ele><time>2026-05-02T12:11:06.999Z</time></trkpt><trkpt lat="44.441488009993996" lon="10.3941555694003"><ele>657.4000000000001</ele><time>2026-05-02T12:11:07.999Z</time></trkpt><trkpt lat="44.441436329408305" lon="10.394271918600058"><ele>657.8000000000001</ele><time>2026-05-02T12:11:08.999Z</time></trkpt><trkpt lat="44.44136174635854" lon="10.394364351038686"><ele>658.2</ele><time>2026-05-02T12:11:09.999Z</time></trkpt><trkpt lat="44.44127059813528" lon="10.394405962577766"><ele>658.6</ele><time>2026-05-02T12:11:10.999Z</time></trkpt><trkpt lat="44.44117875306162" lon="10.394387851373496"><ele>659.0</ele><time>2026-05-02T12:11:11.999Z</time></trkpt><trkpt lat="44.44109171804306" lon="10.394344269120186"><ele>659.4000000000001</ele><time>2026-05-02T12:11:12.999Z</time></trkpt><trkpt lat="44.44100351605064" lon="10.394273988331209"><ele>659.8</ele><time>2026-05-02T12:11:13.999Z</time></trkpt><trkpt lat="44.44092383917989" lon="10.394192436437459"><ele>660.2</ele><time>2026-05-02T12:11:14.999Z</time></trkpt><trkpt lat="44.44084598942757" lon="10.39409998484343"><ele>660.5999999999999</ele><time>2026-05-02T12:11:15.999Z</time></trkpt><trkpt lat="44.4407682342558" lon="10.39402444320543"><ele>661.0</ele><time>2026-05-02T12:11:16.999Z</time></trkpt><trkpt lat="44.44070165840503" lon="10.39395449346165"><ele>661.0</ele><time>2026-05-02T12:11:17.999Z</time></trkpt><trkpt lat="44.44064215864499" lon="10.39389266386003"><ele>661.0</ele><time>2026-05-02T12:11:18.999Z</time></trkpt><trkpt lat="44.440582459253285" lon="10.393828928581529"><ele>661.0</ele><time>2026-05-02T12:11:19.999Z</time></trkpt><trkpt lat="44.44051792985988" lon="10.393762222628688"><ele>661.0</ele><time>2026-05-02T12:11:20.999Z</time></trkpt><trkpt lat="44.44044355213439" lon="10.393706293289014"><ele>661.0</ele><time>2026-05-02T12:11:21.999Z</time></trkpt><trkpt lat="44.44036836886932" lon="10.393631005869596"><ele>661.0</ele><time>2026-05-02T12:11:22.999Z</time></trkpt><trkpt lat="44.440284057835775" lon="10.393591626803781"><ele>660.6666666666667</ele><time>2026-05-02T12:11:23.999Z</time></trkpt><trkpt lat="44.44019163849288" lon="10.393577362413843"><ele>660.3333333333334</ele><time>2026-05-02T12:11:24.999Z</time></trkpt><trkpt lat="44.44010417516013" lon="10.393585470113628"><ele>660.0</ele><time>2026-05-02T12:11:25.999Z</time></trkpt><trkpt lat="44.44002372721803" lon="10.393616141976064"><ele>659.6666666666666</ele><time>2026-05-02T12:11:26.999Z</time></trkpt><trkpt lat="44.43994897576038" lon="10.393682076933157"><ele>659.3333333333333</ele><time>2026-05-02T12:11:27.999Z</time></trkpt><trkpt lat="44.439886037400605" lon="10.393772827384359"><ele>659.0</ele><time>2026-05-02T12:11:28.999Z</time></trkpt><trkpt lat="44.43983358486095" lon="10.393878195443689"><ele>659.0</ele><time>2026-05-02T12:11:29.999Z</time></trkpt><trkpt lat="44.439780425812884" lon="10.3939889765803"><ele>659.0</ele><time>2026-05-02T12:11:30.999Z</time></trkpt><trkpt lat="44.43973099487647" lon="10.39410242936405"><ele>659.0</ele><time>2026-05-02T12:11:31.999Z</time></trkpt><trkpt lat="44.43970063965061" lon="10.39418748927636"><ele>659.0</ele><time>2026-05-02T12:11:32.999Z</time></trkpt><trkpt lat="44.43966192706156" lon="10.394272668120001"><ele>659.0</ele><time>2026-05-02T12:11:34.999Z</time></trkpt><trkpt lat="44.43963263747744" lon="10.394377520453768"><ele>659.0</ele><time>2026-05-02T12:23:12Z</time></trkpt><trkpt lat="44.439595203845485" lon="10.394568122991235"><ele>661.6</ele><time>2026-05-02T12:23:14Z</time></trkpt><trkpt lat="44.43956822516934" lon="10.394686970057478"><ele>664.2</ele><time>2026-05-02T12:23:15Z</time></trkpt><trkpt lat="44.43953404177487" lon="10.39483080629378"><ele>666.8000000000001</ele><time>2026-05-02T12:23:16Z</time></trkpt><trkpt lat="44.43949068361461" lon="10.394970248601329"><ele>669.4000000000001</ele><time>2026-05-02T12:23:17Z</time></trkpt><trkpt lat="44.439446311034025" lon="10.395111831124007"><ele>672.0</ele><time>2026-05-02T12:23:18Z</time></trkpt><trkpt lat="44.43940730012387" lon="10.395264862045607"><ele>672.0</ele><time>2026-05-02T12:23:19Z</time></trkpt><trkpt lat="44.43935128052807" lon="10.395426241390169"><ele>672.0</ele><time>2026-05-02T12:23:20Z</time></trkpt><trkpt lat="44.43928211666151" lon="10.395586392675067"><ele>672.0</ele><time>2026-05-02T12:23:21Z</time></trkpt><trkpt lat="44.43920413430225" lon="10.395742084624798"><ele>672.0</ele><time>2026-05-02T12:23:22Z</time></trkpt><trkpt lat="44.43912592679269" lon="10.395894017278538"><ele>672.25</ele><time>2026-05-02T12:23:23Z</time></trkpt><trkpt lat="44.439049254214616" lon="10.396054044497197"><ele>672.5</ele><time>2026-05-02T12:23:24Z</time></trkpt><trkpt lat="44.438971415897136" lon="10.39621256926776"><ele>672.75</ele><time>2026-05-02T12:23:25Z</time></trkpt><trkpt lat="44.43888835500731" lon="10.396367405039145"><ele>673.0</ele><time>2026-05-02T12:23:26Z</time></trkpt><trkpt lat="44.43879354773487" lon="10.396516923823588"><ele>679.6666666666667</ele><time>2026-05-02T12:23:27Z</time></trkpt><trkpt lat="44.4386773006362" lon="10.396653321346104"><ele>686.3333333333334</ele><time>2026-05-02T12:23:28Z</time></trkpt><trkpt lat="44.43856270012297" lon="10.396795765483933"><ele>693.0</ele><time>2026-05-02T12:23:29Z</time></trkpt><trkpt lat="44.438440245720564" lon="10.39693839470953"><ele>693.0</ele><time>2026-05-02T12:23:30Z</time></trkpt><trkpt lat="44.438327993713884" lon="10.397079675073023"><ele>693.0</ele><time>2026-05-02T12:23:31Z</time></trkpt><trkpt lat="44.43820606940936" lon="10.397213575382642"><ele>693.0</ele><time>2026-05-02T12:23:32Z</time></trkpt><trkpt lat="44.4380987416976" lon="10.397357462959727"><ele>687.6666666666666</ele><time>2026-05-02T12:23:33Z</time></trkpt><trkpt lat="44.437998971431696" lon="10.39752643091799"><ele>682.3333333333333</ele><time>2026-05-02T12:23:34Z</time></trkpt><trkpt lat="44.43790654910348" lon="10.397718410958857"><ele>677.0</ele><time>2026-05-02T12:23:35Z</time></trkpt><trkpt lat="44.43780802207682" lon="10.39791199434625"><ele>681.6666666666666</ele><time>2026-05-02T12:23:36Z</time></trkpt><trkpt lat="44.43770792777883" lon="10.398099758175222"><ele>686.3333333333334</ele><time>2026-05-02T12:23:37Z</time></trkpt><trkpt lat="44.43760516289721" lon="10.398288366168444"><ele>691.0</ele><time>2026-05-02T12:23:38Z</time></trkpt><trkpt lat="44.437505001574344" lon="10.398472106065373"><ele>691.0</ele><time>2026-05-02T12:23:39Z</time></trkpt><trkpt lat="44.43741412552721" lon="10.398648890722713"><ele>691.0</ele><time>2026-05-02T12:23:40Z</time></trkpt><trkpt lat="44.43732327807857" lon="10.398809018858369"><ele>691.0</ele><time>2026-05-02T12:23:41Z</time></trkpt><trkpt lat="44.437242386123856" lon="10.39896099243485"><ele>691.0</ele><time>2026-05-02T12:23:42Z</time></trkpt><trkpt lat="44.437172159634606" lon="10.399106170304227"><ele>690.5</ele><time>2026-05-02T12:23:43Z</time></trkpt><trkpt lat="44.43711167848475" lon="10.39924961440172"><ele>690.0</ele><time>2026-05-02T12:23:44Z</time></trkpt><trkpt lat="44.4370658291131" lon="10.39939074118649"><ele>689.5</ele><time>2026-05-02T12:23:45Z</time></trkpt><trkpt lat="44.43703237718084" lon="10.399541253776047"><ele>689.0</ele><time>2026-05-02T12:23:46Z</time></trkpt><trkpt lat="44.437015968812084" lon="10.399707035779745"><ele>689.0</ele><time>2026-05-02T12:23:47Z</time></trkpt><trkpt lat="44.43701006827429" lon="10.399907857250911"><ele>689.0</ele><time>2026-05-02T12:23:48Z</time></trkpt><trkpt lat="44.43698971482192" lon="10.400118786457494"><ele>689.0</ele><time>2026-05-02T12:23:49Z</time></trkpt><trkpt lat="44.43696574902057" lon="10.400340158993702"><ele>689.3333333333333</ele><time>2026-05-02T12:23:50Z</time></trkpt><trkpt lat="44.43694416528764" lon="10.400564871045388"><ele>689.6666666666666</ele><time>2026-05-02T12:23:51Z</time></trkpt><trkpt lat="44.4369237738609" lon="10.40078090897902"><ele>690.0</ele><time>2026-05-02T12:23:52Z</time></trkpt><trkpt lat="44.43690248028173" lon="10.400996401016721"><ele>690.0</ele><time>2026-05-02T12:23:53Z</time></trkpt><trkpt lat="44.43688519694221" lon="10.401184371408048"><ele>690.0</ele><time>2026-05-02T12:23:54Z</time></trkpt><trkpt lat="44.436869151101455" lon="10.401352498689791"><ele>690.0</ele><time>2026-05-02T12:23:55Z</time></trkpt><trkpt lat="44.436839468987394" lon="10.401510080375681"><ele>690.0</ele><time>2026-05-02T12:23:56Z</time></trkpt><trkpt lat="44.436796934288665" lon="10.401679995138435"><ele>691.75</ele><time>2026-05-02T12:23:57Z</time></trkpt><trkpt lat="44.43675374835727" lon="10.401858093268979"><ele>693.5</ele><time>2026-05-02T12:23:58Z</time></trkpt><trkpt lat="44.43671540586194" lon="10.40203093444999"><ele>695.25</ele><time>2026-05-02T12:23:59Z</time></trkpt><trkpt lat="44.436679137871565" lon="10.402197386774205"><ele>697.0</ele><time>2026-05-02T12:24:00Z</time></trkpt><trkpt lat="44.43664163673787" lon="10.402348558045372"><ele>697.0</ele><time>2026-05-02T12:24:01Z</time></trkpt><trkpt lat="44.436616531443455" lon="10.402490332081724"><ele>697.0</ele><time>2026-05-02T12:24:02Z</time></trkpt><trkpt lat="44.436588793724525" lon="10.402620512187564"><ele>697.0</ele><time>2026-05-02T12:24:03Z</time></trkpt><trkpt lat="44.4365558752395" lon="10.402727297213053"><ele>697.0</ele><time>2026-05-02T12:24:04Z</time></trkpt><trkpt lat="44.43647630834956" lon="10.402831926717958"><ele>697.0</ele><time>2026-05-02T12:24:06Z</time></trkpt><trkpt lat="44.436391488517984" lon="10.40280387130443"><ele>697.0</ele><time>2026-05-02T12:24:08Z</time></trkpt><trkpt lat="44.436336300992764" lon="10.402645438107662"><ele>697.0</ele><time>2026-05-02T12:24:10Z</time></trkpt><trkpt lat="44.436312646899175" lon="10.40253003411431"><ele>697.0</ele><time>2026-05-02T12:24:11Z</time></trkpt><trkpt lat="44.436273372964585" lon="10.402393413682569"><ele>697.0</ele><time>2026-05-02T12:24:12Z</time></trkpt><trkpt lat="44.436233055633636" lon="10.402253082835246"><ele>697.0</ele><time>2026-05-02T12:24:13Z</time></trkpt><trkpt lat="44.436196207456916" lon="10.40211527899541"><ele>698.5</ele><time>2026-05-02T12:24:14Z</time></trkpt><trkpt lat="44.43611309838702" lon="10.402003908739763"><ele>700.0</ele><time>2026-05-02T12:24:15Z</time></trkpt><trkpt lat="44.43604994313767" lon="10.401911868880156"><ele>701.5</ele><time>2026-05-02T12:24:16Z</time></trkpt><trkpt lat="44.43598906474904" lon="10.401834384666234"><ele>703.0</ele><time>2026-05-02T12:24:17Z</time></trkpt><trkpt lat="44.43592813637604" lon="10.4017627150653"><ele>704.5</ele><time>2026-05-02T12:24:18Z</time></trkpt><trkpt lat="44.43586870403216" lon="10.401697864312474"><ele>706.0</ele><time>2026-05-02T12:24:19Z</time></trkpt><trkpt lat="44.43578561561716" lon="10.401587043451086"><ele>706.0</ele><time>2026-05-02T12:24:21Z</time></trkpt><trkpt lat="44.435692171653635" lon="10.401474093222333"><ele>706.0</ele><time>2026-05-02T12:24:23Z</time></trkpt><trkpt lat="44.4356419992194" lon="10.401413586650827"><ele>706.0</ele><time>2026-05-02T12:24:24Z</time></trkpt><trkpt lat="44.43556040511465" lon="10.401329362931529"><ele>706.0</ele><time>2026-05-02T12:24:26Z</time></trkpt><trkpt lat="44.43544780910389" lon="10.401274678340783"><ele>706.0</ele><time>2026-05-02T12:24:28Z</time></trkpt><trkpt lat="44.43537147253078" lon="10.401256754158217"><ele>706.75</ele><time>2026-05-02T12:24:29Z</time></trkpt><trkpt lat="44.43527322023583" lon="10.401244766583904"><ele>707.5</ele><time>2026-05-02T12:24:30Z</time></trkpt><trkpt lat="44.4351667335869" lon="10.401230064097042"><ele>708.25</ele><time>2026-05-02T12:24:31Z</time></trkpt><trkpt lat="44.43503926407883" lon="10.401217389702621"><ele>709.0</ele><time>2026-05-02T12:24:32Z</time></trkpt><trkpt lat="44.434914436999996" lon="10.401198824144284"><ele>709.0</ele><time>2026-05-02T12:24:33Z</time></trkpt><trkpt lat="44.43479811366874" lon="10.401170390847518"><ele>709.0</ele><time>2026-05-02T12:24:34Z</time></trkpt><trkpt lat="44.4346943491123" lon="10.401147626627223"><ele>709.0</ele><time>2026-05-02T12:24:34.999Z</time></trkpt><trkpt lat="44.43458793619615" lon="10.401133480269962"><ele>709.0</ele><time>2026-05-02T12:24:35.999Z</time></trkpt><trkpt lat="44.43447223864331" lon="10.401086897789183"><ele>709.8000000000001</ele><time>2026-05-02T12:24:36.999Z</time></trkpt><trkpt lat="44.43436228015065" lon="10.401040024848283"><ele>710.6</ele><time>2026-05-02T12:24:37.999Z</time></trkpt><trkpt lat="44.43425847408117" lon="10.40099141860424"><ele>711.4</ele><time>2026-05-02T12:24:38.999Z</time></trkpt><trkpt lat="44.434163150030166" lon="10.400936194576525"><ele>712.2</ele><time>2026-05-02T12:24:39.999Z</time></trkpt><trkpt lat="44.43407027367244" lon="10.400869387537583"><ele>713.0</ele><time>2026-05-02T12:24:40.999Z</time></trkpt><trkpt lat="44.43399560286787" lon="10.400814232682336"><ele>713.0</ele><time>2026-05-02T12:24:41.999Z</time></trkpt><trkpt lat="44.433943399215" lon="10.400753910333275"><ele>713.0</ele><time>2026-05-02T12:24:42.999Z</time></trkpt><trkpt lat="44.433900310186694" lon="10.400684569685898"><ele>713.0</ele><time>2026-05-02T12:24:43.999Z</time></trkpt><trkpt lat="44.43384786219246" lon="10.400598583592968"><ele>713.0</ele><time>2026-05-02T12:24:44.999Z</time></trkpt><trkpt lat="44.43378626222128" lon="10.400497956876041"><ele>713.0</ele><time>2026-05-02T12:24:45.999Z</time></trkpt><trkpt lat="44.43372636816935" lon="10.400385023603413"><ele>713.0</ele><time>2026-05-02T12:24:46.999Z</time></trkpt><trkpt lat="44.43367856671005" lon="10.400262612065568"><ele>713.5999999999999</ele><time>2026-05-02T12:24:47.999Z</time></trkpt><trkpt lat="44.433619095704074" lon="10.400134623724165"><ele>714.1999999999999</ele><time>2026-05-02T12:24:48.999Z</time></trkpt><trkpt lat="44.43355131549951" lon="10.400018496461142"><ele>714.8</ele><time>2026-05-02T12:24:49.999Z</time></trkpt><trkpt lat="44.43348505735313" lon="10.399911372439687"><ele>715.4</ele><time>2026-05-02T12:24:51Z</time></trkpt><trkpt lat="44.433424420225364" lon="10.39981788889842"><ele>716.0</ele><time>2026-05-02T12:24:52Z</time></trkpt><trkpt lat="44.433371597359354" lon="10.399750353273326"><ele>716.0</ele><time>2026-05-02T12:24:53Z</time></trkpt><trkpt lat="44.43329960587133" lon="10.39976395360434"><ele>716.0</ele><time>2026-05-02T12:24:55Z</time></trkpt><trkpt lat="44.433277584242106" lon="10.399939390945184"><ele>716.0</ele><time>2026-05-02T12:24:57Z</time></trkpt><trkpt lat="44.433264695110196" lon="10.400071886438608"><ele>716.0</ele><time>2026-05-02T12:24:58Z</time></trkpt><trkpt lat="44.4332492082199" lon="10.400223938425649"><ele>716.0</ele><time>2026-05-02T12:24:59Z</time></trkpt><trkpt lat="44.43323347943064" lon="10.400380476822555"><ele>715.1999999999999</ele><time>2026-05-02T12:25:00Z</time></trkpt><trkpt lat="44.43322019097771" lon="10.400529059264272"><ele>714.4</ele><time>2026-05-02T12:25:01Z</time></trkpt><trkpt lat="44.433208081127596" lon="10.400657672189972"><ele>713.6</ele><time>2026-05-02T12:25:02Z</time></trkpt><trkpt lat="44.433169090608494" lon="10.400780377761762"><ele>712.8</ele><time>2026-05-02T12:25:03Z</time></trkpt><trkpt lat="44.43310801802405" lon="10.400897969223271"><ele>712.0</ele><time>2026-05-02T12:25:04Z</time></trkpt><trkpt lat="44.43304501101578" lon="10.401017206526854"><ele>712.0</ele><time>2026-05-02T12:25:05Z</time></trkpt><trkpt lat="44.4330049838204" lon="10.401149334154287"><ele>712.0</ele><time>2026-05-02T12:25:06Z</time></trkpt><trkpt lat="44.4329819333303" lon="10.401289558102002"><ele>712.0</ele><time>2026-05-02T12:25:07Z</time></trkpt><trkpt lat="44.432962423523264" lon="10.401415180226852"><ele>712.0</ele><time>2026-05-02T12:25:08Z</time></trkpt><trkpt lat="44.432925649914644" lon="10.401522816935465"><ele>712.0</ele><time>2026-05-02T12:25:09Z</time></trkpt><trkpt lat="44.43285269867303" lon="10.401604145533245"><ele>709.0</ele><time>2026-05-02T12:25:10Z</time></trkpt><trkpt lat="44.43276495426374" lon="10.401657630567806"><ele>706.0</ele><time>2026-05-02T12:25:11Z</time></trkpt><trkpt lat="44.43268603931626" lon="10.401696484198757"><ele>703.0</ele><time>2026-05-02T12:25:12Z</time></trkpt><trkpt lat="44.43259842249345" lon="10.40175329907903"><ele>700.0</ele><time>2026-05-02T12:25:14Z</time></trkpt><trkpt lat="44.43252619544695" lon="10.401799032073791"><ele>697.0</ele><time>2026-05-02T12:25:18Z</time></trkpt><trkpt lat="44.43245807199274" lon="10.401869007479174"><ele>694.0</ele><time>2026-05-02T12:25:20Z</time></trkpt><trkpt lat="44.4324565141374" lon="10.401976968927952"><ele>694.0</ele><time>2026-05-02T12:25:21Z</time></trkpt><trkpt lat="44.4325011767382" lon="10.402080871407476"><ele>694.0</ele><time>2026-05-02T12:25:22Z</time></trkpt><trkpt lat="44.432554743310654" lon="10.40217051986445"><ele>694.0</ele><time>2026-05-02T12:25:23Z</time></trkpt><trkpt lat="44.4326181876466" lon="10.402281042053277"><ele>694.0</ele><time>2026-05-02T12:25:24Z</time></trkpt><trkpt lat="44.43269706721623" lon="10.402429842049996"><ele>694.0</ele><time>2026-05-02T12:25:25Z</time></trkpt><trkpt lat="44.43277857030938" lon="10.40261189520231"><ele>693.3333333333334</ele><time>2026-05-02T12:25:26Z</time></trkpt><trkpt lat="44.43285366726019" lon="10.402808395812283"><ele>692.6666666666666</ele><time>2026-05-02T12:25:27Z</time></trkpt><trkpt lat="44.432933297548374" lon="10.403009914404427"><ele>692.0</ele><time>2026-05-02T12:25:28Z</time></trkpt><trkpt lat="44.43301975038811" lon="10.40321280109554"><ele>694.6666666666666</ele><time>2026-05-02T12:25:29Z</time></trkpt><trkpt lat="44.43311018594817" lon="10.403418651192831"><ele>697.3333333333334</ele><time>2026-05-02T12:25:30Z</time></trkpt><trkpt lat="44.43320543022479" lon="10.403623486033355"><ele>700.0</ele><time>2026-05-02T12:25:31Z</time></trkpt><trkpt lat="44.43329868713649" lon="10.403828027879106"><ele>697.6666666666667</ele><time>2026-05-02T12:25:32Z</time></trkpt><trkpt lat="44.43338952342128" lon="10.404034107500232"><ele>695.3333333333334</ele><time>2026-05-02T12:25:33Z</time></trkpt><trkpt lat="44.433479515409836" lon="10.404241325673901"><ele>693.0</ele><time>2026-05-02T12:25:34Z</time></trkpt><trkpt lat="44.43357465588267" lon="10.404455541927964"><ele>693.0</ele><time>2026-05-02T12:25:35Z</time></trkpt><trkpt lat="44.43366255016341" lon="10.40465778970746"><ele>693.0</ele><time>2026-05-02T12:25:36Z</time></trkpt><trkpt lat="44.433751525793234" lon="10.404860395985239"><ele>693.0</ele><time>2026-05-02T12:25:37Z</time></trkpt><trkpt lat="44.433835359958934" lon="10.405056753556753"><ele>693.75</ele><time>2026-05-02T12:25:38Z</time></trkpt><trkpt lat="44.43391307330776" lon="10.40523787113362"><ele>694.5</ele><time>2026-05-02T12:25:39Z</time></trkpt><trkpt lat="44.43397608815219" lon="10.405421927716613"><ele>695.25</ele><time>2026-05-02T12:25:40Z</time></trkpt><trkpt lat="44.434021177941275" lon="10.405602587821118"><ele>696.0</ele><time>2026-05-02T12:25:41Z</time></trkpt><trkpt lat="44.43404621650728" lon="10.405793040286339"><ele>696.0</ele><time>2026-05-02T12:25:42Z</time></trkpt><trkpt lat="44.43405579964535" lon="10.4059956223473"><ele>696.0</ele><time>2026-05-02T12:25:43Z</time></trkpt><trkpt lat="44.43405150551643" lon="10.406213251668417"><ele>696.0</ele><time>2026-05-02T12:25:44Z</time></trkpt><trkpt lat="44.434020937125126" lon="10.406439358595575"><ele>696.75</ele><time>2026-05-02T12:25:45Z</time></trkpt><trkpt lat="44.433982213024095" lon="10.406645263992376"><ele>697.5</ele><time>2026-05-02T12:25:46Z</time></trkpt><trkpt lat="44.433932898540036" lon="10.406838620933229"><ele>698.25</ele><time>2026-05-02T12:25:47Z</time></trkpt><trkpt lat="44.433893923000205" lon="10.407021196855107"><ele>699.0</ele><time>2026-05-02T12:25:48Z</time></trkpt><trkpt lat="44.43386174960646" lon="10.407171535848804"><ele>699.3333333333334</ele><time>2026-05-02T12:25:49Z</time></trkpt><trkpt lat="44.43383324873435" lon="10.407300556677885"><ele>699.6666666666666</ele><time>2026-05-02T12:25:50Z</time></trkpt><trkpt lat="44.43380680578956" lon="10.407402293899905"><ele>700.0</ele><time>2026-05-02T12:25:51Z</time></trkpt><trkpt lat="44.43378328682922" lon="10.407485231050742"><ele>700.3333333333333</ele><time>2026-05-02T12:25:52Z</time></trkpt><trkpt lat="44.433743817960355" lon="10.407603139557231"><ele>700.6666666666666</ele><time>2026-05-02T12:25:54Z</time></trkpt><trkpt lat="44.43369796935587" lon="10.407698462270067"><ele>701.0</ele><time>2026-05-02T12:25:56Z</time></trkpt><trkpt lat="44.43362643258395" lon="10.407867491281726"><ele>702.0</ele><time>2026-05-02T12:25:58Z</time></trkpt><trkpt lat="44.4335567048474" lon="10.407975190141116"><ele>703.0</ele><time>2026-05-02T12:25:59Z</time></trkpt><trkpt lat="44.43344364742314" lon="10.408072036247207"><ele>704.0</ele><time>2026-05-02T12:26:00Z</time></trkpt><trkpt lat="44.43333786042019" lon="10.408161647412122"><ele>705.0</ele><time>2026-05-02T12:26:01Z</time></trkpt><trkpt lat="44.43323857545222" lon="10.4082099216299"><ele>705.0</ele><time>2026-05-02T12:26:02Z</time></trkpt><trkpt lat="44.433162096099316" lon="10.40820412493523"><ele>705.0</ele><time>2026-05-02T12:26:03Z</time></trkpt><trkpt lat="44.43309814953704" lon="10.40813728730451"><ele>705.0</ele><time>2026-05-02T12:26:04Z</time></trkpt><trkpt lat="44.43301912438402" lon="10.40807863734599"><ele>705.0</ele><time>2026-05-02T12:26:05Z</time></trkpt><trkpt lat="44.432921289617816" lon="10.408023112521276"><ele>705.0</ele><time>2026-05-02T12:26:06Z</time></trkpt><trkpt lat="44.4328155730224" lon="10.407967195098129"><ele>707.75</ele><time>2026-05-02T12:26:07Z</time></trkpt><trkpt lat="44.43269023583661" lon="10.407910649834498"><ele>710.5</ele><time>2026-05-02T12:26:08Z</time></trkpt><trkpt lat="44.432561528697434" lon="10.407853616753323"><ele>713.25</ele><time>2026-05-02T12:26:09Z</time></trkpt><trkpt lat="44.43242883391735" lon="10.407782913947678"><ele>716.0</ele><time>2026-05-02T12:26:10Z</time></trkpt><trkpt lat="44.43231178887808" lon="10.4077358497859"><ele>716.0</ele><time>2026-05-02T12:26:11Z</time></trkpt><trkpt lat="44.43218987650274" lon="10.407669113784603"><ele>716.0</ele><time>2026-05-02T12:26:12Z</time></trkpt><trkpt lat="44.432073702915844" lon="10.407620738434641"><ele>716.0</ele><time>2026-05-02T12:26:13Z</time></trkpt><trkpt lat="44.43194112327148" lon="10.40762589715938"><ele>716.0</ele><time>2026-05-02T12:26:14Z</time></trkpt><trkpt lat="44.431797366687945" lon="10.407631568608382"><ele>719.0</ele><time>2026-05-02T12:26:15Z</time></trkpt><trkpt lat="44.43164781892158" lon="10.407627848556539"><ele>722.0</ele><time>2026-05-02T12:26:16Z</time></trkpt><trkpt lat="44.4314944117278" lon="10.407611100410318"><ele>725.0</ele><time>2026-05-02T12:26:17Z</time></trkpt><trkpt lat="44.43134662565242" lon="10.407622984185034"><ele>726.75</ele><time>2026-05-02T12:26:18Z</time></trkpt><trkpt lat="44.43120013797706" lon="10.40761836874777"><ele>728.5</ele><time>2026-05-02T12:26:19Z</time></trkpt><trkpt lat="44.431050403340386" lon="10.407617734216242"><ele>730.25</ele><time>2026-05-02T12:26:20Z</time></trkpt><trkpt lat="44.430909842933445" lon="10.407594835448494"><ele>732.0</ele><time>2026-05-02T12:26:21Z</time></trkpt><trkpt lat="44.430773220627515" lon="10.407570353951721"><ele>732.0</ele><time>2026-05-02T12:26:22Z</time></trkpt><trkpt lat="44.43063666711889" lon="10.40753817522421"><ele>732.0</ele><time>2026-05-02T12:26:23Z</time></trkpt><trkpt lat="44.43048643484223" lon="10.4075052105894"><ele>732.0</ele><time>2026-05-02T12:26:24Z</time></trkpt><trkpt lat="44.430337778396996" lon="10.407463464737633"><ele>732.0</ele><time>2026-05-02T12:26:25Z</time></trkpt><trkpt lat="44.43021422369351" lon="10.407425333571805"><ele>732.4000000000001</ele><time>2026-05-02T12:26:26Z</time></trkpt><trkpt lat="44.43009951983304" lon="10.407397576102213"><ele>732.8000000000001</ele><time>2026-05-02T12:26:27Z</time></trkpt><trkpt lat="44.4300109938739" lon="10.407410378328718"><ele>733.2</ele><time>2026-05-02T12:26:28Z</time></trkpt><trkpt lat="44.42993264880336" lon="10.407486408402956"><ele>733.6</ele><time>2026-05-02T12:26:29Z</time></trkpt><trkpt lat="44.42987461732053" lon="10.407622619818858"><ele>734.0</ele><time>2026-05-02T12:26:30Z</time></trkpt><trkpt lat="44.42982246987156" lon="10.407782244426622"><ele>734.0</ele><time>2026-05-02T12:26:31Z</time></trkpt><trkpt lat="44.429763424848055" lon="10.407951768824232"><ele>734.0</ele><time>2026-05-02T12:26:32Z</time></trkpt><trkpt lat="44.429687836022765" lon="10.408126274316261"><ele>734.0</ele><time>2026-05-02T12:26:33Z</time></trkpt><trkpt lat="44.42960545075077" lon="10.408303579522977"><ele>734.0</ele><time>2026-05-02T12:26:34Z</time></trkpt><trkpt lat="44.42951283724535" lon="10.408495553183513"><ele>734.6666666666666</ele><time>2026-05-02T12:26:35Z</time></trkpt><trkpt lat="44.42942685181042" lon="10.408683888725148"><ele>735.3333333333334</ele><time>2026-05-02T12:26:36Z</time></trkpt><trkpt lat="44.42933871588275" lon="10.40887053501473"><ele>736.0</ele><time>2026-05-02T12:26:37Z</time></trkpt><trkpt lat="44.42925467407302" lon="10.409067400782279"><ele>738.25</ele><time>2026-05-02T12:26:38Z</time></trkpt><trkpt lat="44.429178561324626" lon="10.409234946914202"><ele>740.5</ele><time>2026-05-02T12:26:39Z</time></trkpt><trkpt lat="44.42908969951589" lon="10.409354901015428"><ele>742.75</ele><time>2026-05-02T12:26:40Z</time></trkpt><trkpt lat="44.42899141131566" lon="10.409438604800053"><ele>745.0</ele><time>2026-05-02T12:26:40.998Z</time></trkpt><trkpt lat="44.42888580253981" lon="10.409479130111235"><ele>747.0</ele><time>2026-05-02T12:26:41.998Z</time></trkpt><trkpt lat="44.42876824251972" lon="10.409457954450568"><ele>749.0</ele><time>2026-05-02T12:26:42.998Z</time></trkpt><trkpt lat="44.42864418044407" lon="10.409381472681925"><ele>751.0</ele><time>2026-05-02T12:26:43.998Z</time></trkpt><trkpt lat="44.428518259014005" lon="10.409279761351046"><ele>753.0</ele><time>2026-05-02T12:26:44.999Z</time></trkpt><trkpt lat="44.428386099749844" lon="10.409167501429547"><ele>753.0</ele><time>2026-05-02T12:26:45.999Z</time></trkpt><trkpt lat="44.42827211828328" lon="10.4090728541847"><ele>753.0</ele><time>2026-05-02T12:26:46.999Z</time></trkpt><trkpt lat="44.42815629095672" lon="10.409001321976586"><ele>753.0</ele><time>2026-05-02T12:26:47.999Z</time></trkpt><trkpt lat="44.42804265011448" lon="10.408976704472876"><ele>753.0</ele><time>2026-05-02T12:26:48.999Z</time></trkpt><trkpt lat="44.42793234240169" lon="10.408994567652835"><ele>752.5999999999999</ele><time>2026-05-02T12:26:49.999Z</time></trkpt><trkpt lat="44.427821355874684" lon="10.409007138650002"><ele>752.1999999999999</ele><time>2026-05-02T12:26:50.999Z</time></trkpt><trkpt lat="44.42771334687898" lon="10.408988669409894"><ele>751.8</ele><time>2026-05-02T12:26:51.999Z</time></trkpt><trkpt lat="44.42761207870674" lon="10.408954406467487"><ele>751.4</ele><time>2026-05-02T12:26:52.999Z</time></trkpt><trkpt lat="44.427512170807994" lon="10.408892874788592"><ele>751.0</ele><time>2026-05-02T12:26:53.999Z</time></trkpt><trkpt lat="44.42741844482075" lon="10.408808120179653"><ele>751.0</ele><time>2026-05-02T12:26:54.999Z</time></trkpt><trkpt lat="44.42733066767016" lon="10.408692801879896"><ele>751.0</ele><time>2026-05-02T12:26:55.999Z</time></trkpt><trkpt lat="44.42725087780258" lon="10.408545978556814"><ele>751.0</ele><time>2026-05-02T12:26:56.999Z</time></trkpt><trkpt lat="44.42717282210618" lon="10.408380659636936"><ele>751.0</ele><time>2026-05-02T12:26:57.999Z</time></trkpt><trkpt lat="44.42707962927333" lon="10.408205166041192"><ele>752.0</ele><time>2026-05-02T12:26:58.999Z</time></trkpt><trkpt lat="44.4269701425133" lon="10.408017195883394"><ele>753.0</ele><time>2026-05-02T12:26:59.999Z</time></trkpt><trkpt lat="44.426853519803835" lon="10.407828645048648"><ele>754.0</ele><time>2026-05-02T12:27:00.999Z</time></trkpt><trkpt lat="44.4267218134404" lon="10.40765983890402"><ele>754.0</ele><time>2026-05-02T12:27:01.999Z</time></trkpt><trkpt lat="44.42657448861854" lon="10.407501762800594"><ele>754.0</ele><time>2026-05-02T12:27:02.999Z</time></trkpt><trkpt lat="44.42642546777839" lon="10.407337352098324"><ele>754.0</ele><time>2026-05-02T12:27:03.999Z</time></trkpt><trkpt lat="44.42627776871664" lon="10.407173849842055"><ele>756.0</ele><time>2026-05-02T12:27:04.999Z</time></trkpt><trkpt lat="44.42611655228774" lon="10.40698342884859"><ele>758.0</ele><time>2026-05-02T12:27:05.999Z</time></trkpt><trkpt lat="44.425954820175704" lon="10.406804349754585"><ele>760.0</ele><time>2026-05-02T12:27:06.999Z</time></trkpt><trkpt lat="44.42579328610809" lon="10.406634331788776"><ele>760.0</ele><time>2026-05-02T12:27:07.999Z</time></trkpt><trkpt lat="44.42563353630356" lon="10.406457710265162"><ele>760.0</ele><time>2026-05-02T12:27:08.999Z</time></trkpt><trkpt lat="44.42547290650587" lon="10.40628578964223"><ele>760.0</ele><time>2026-05-02T12:27:09.999Z</time></trkpt><trkpt lat="44.42531061326159" lon="10.406104438215792"><ele>761.6666666666667</ele><time>2026-05-02T12:27:10.999Z</time></trkpt><trkpt lat="44.42515035537091" lon="10.405925036533018"><ele>763.3333333333334</ele><time>2026-05-02T12:27:11.999Z</time></trkpt><trkpt lat="44.42499362630604" lon="10.405747464476951"><ele>765.0</ele><time>2026-05-02T12:27:12.999Z</time></trkpt><trkpt lat="44.424842861311554" lon="10.405578155431972"><ele>763.3333333333334</ele><time>2026-05-02T12:27:13.999Z</time></trkpt><trkpt lat="44.424690649772664" lon="10.405412297837676"><ele>761.6666666666667</ele><time>2026-05-02T12:27:14.999Z</time></trkpt><trkpt lat="44.42453056623382" lon="10.405240604383376"><ele>760.0</ele><time>2026-05-02T12:27:15.999Z</time></trkpt><trkpt lat="44.424376797690535" lon="10.405080566374027"><ele>764.6666666666667</ele><time>2026-05-02T12:27:16.999Z</time></trkpt><trkpt lat="44.424207746020414" lon="10.404945091186223"><ele>769.3333333333334</ele><time>2026-05-02T12:27:17.999Z</time></trkpt><trkpt lat="44.424032720011" lon="10.404847034661852"><ele>774.0</ele><time>2026-05-02T12:27:18.999Z</time></trkpt><trkpt lat="44.42385456302153" lon="10.404782224207615"><ele>776.6666666666667</ele><time>2026-05-02T12:27:19.999Z</time></trkpt><trkpt lat="44.42367579964725" lon="10.404753534593855"><ele>779.3333333333334</ele><time>2026-05-02T12:27:20.999Z</time></trkpt><trkpt lat="44.423514787839714" lon="10.40471960694479"><ele>782.0</ele><time>2026-05-02T12:27:21.999Z</time></trkpt><trkpt lat="44.42336953893515" lon="10.404657302885596"><ele>781.0</ele><time>2026-05-02T12:27:22.999Z</time></trkpt><trkpt lat="44.423255070748674" lon="10.40453237560834"><ele>780.0</ele><time>2026-05-02T12:27:24Z</time></trkpt><trkpt lat="44.42314205219189" lon="10.404432945876758"><ele>779.0</ele><time>2026-05-02T12:27:25Z</time></trkpt><trkpt lat="44.4230370507211" lon="10.404314830608445"><ele>778.0</ele><time>2026-05-02T12:27:26Z</time></trkpt><trkpt lat="44.42292754386259" lon="10.404217583254836"><ele>778.0</ele><time>2026-05-02T12:27:27Z</time></trkpt><trkpt lat="44.422816247613575" lon="10.40414269665066"><ele>778.0</ele><time>2026-05-02T12:27:28Z</time></trkpt><trkpt lat="44.42270586471023" lon="10.404116431155522"><ele>778.0</ele><time>2026-05-02T12:27:29Z</time></trkpt><trkpt lat="44.42258276740976" lon="10.404109328696022"><ele>778.0</ele><time>2026-05-02T12:27:30Z</time></trkpt><trkpt lat="44.42246223676692" lon="10.404131883942027"><ele>778.0</ele><time>2026-05-02T12:27:31Z</time></trkpt><trkpt lat="44.422345456581695" lon="10.404168052537797"><ele>778.0</ele><time>2026-05-02T12:27:32Z</time></trkpt><trkpt lat="44.42223252528198" lon="10.404187126077634"><ele>778.0</ele><time>2026-05-02T12:27:33Z</time></trkpt><trkpt lat="44.422128385449135" lon="10.404177288839012"><ele>778.0</ele><time>2026-05-02T12:27:34Z</time></trkpt><trkpt lat="44.42202881418964" lon="10.404124155884558"><ele>778.0</ele><time>2026-05-02T12:27:35Z</time></trkpt><trkpt lat="44.4219358064285" lon="10.404011355799279"><ele>777.5</ele><time>2026-05-02T12:27:36Z</time></trkpt><trkpt lat="44.421860982528464" lon="10.403850117070995"><ele>777.0</ele><time>2026-05-02T12:27:37Z</time></trkpt><trkpt lat="44.42179550242442" lon="10.403672740771286"><ele>776.5</ele><time>2026-05-02T12:27:38Z</time></trkpt><trkpt lat="44.42171220123206" lon="10.403502671628159"><ele>776.0</ele><time>2026-05-02T12:27:39Z</time></trkpt><trkpt lat="44.42161547305762" lon="10.403342386846067"><ele>776.0</ele><time>2026-05-02T12:27:40Z</time></trkpt><trkpt lat="44.42151264563046" lon="10.403196341940923"><ele>776.0</ele><time>2026-05-02T12:27:41Z</time></trkpt><trkpt lat="44.421408694822375" lon="10.403063208061129"><ele>776.0</ele><time>2026-05-02T12:27:42Z</time></trkpt><trkpt lat="44.421310884062144" lon="10.402931500802381"><ele>776.0</ele><time>2026-05-02T12:27:43Z</time></trkpt><trkpt lat="44.42121038372761" lon="10.402816911753527"><ele>775.0</ele><time>2026-05-02T12:27:44Z</time></trkpt><trkpt lat="44.42110011562821" lon="10.402729366203078"><ele>774.0</ele><time>2026-05-02T12:27:45Z</time></trkpt><trkpt lat="44.42098774949005" lon="10.402658534382109"><ele>773.0</ele><time>2026-05-02T12:27:46Z</time></trkpt><trkpt lat="44.420868401400355" lon="10.402597912017832"><ele>772.0</ele><time>2026-05-02T12:27:47Z</time></trkpt><trkpt lat="44.42074256459794" lon="10.402568948317228"><ele>772.0</ele><time>2026-05-02T12:27:48Z</time></trkpt><trkpt lat="44.42061331325518" lon="10.402554615029254"><ele>772.0</ele><time>2026-05-02T12:27:49Z</time></trkpt><trkpt lat="44.42048576426657" lon="10.402560962469193"><ele>772.0</ele><time>2026-05-02T12:27:50Z</time></trkpt><trkpt lat="44.42035145245514" lon="10.402604932804145"><ele>772.0</ele><time>2026-05-02T12:27:51Z</time></trkpt><trkpt lat="44.4202034019461" lon="10.402705670448736"><ele>770.6666666666666</ele><time>2026-05-02T12:27:52Z</time></trkpt><trkpt lat="44.42003553797879" lon="10.402810173503905"><ele>769.3333333333333</ele><time>2026-05-02T12:27:53Z</time></trkpt><trkpt lat="44.41983415587697" lon="10.40293709394917"><ele>768.0</ele><time>2026-05-02T12:27:54Z</time></trkpt><trkpt lat="44.419604753562034" lon="10.403043894418344"><ele>768.0</ele><time>2026-05-02T12:27:55Z</time></trkpt><trkpt lat="44.41938189197948" lon="10.403164407774836"><ele>768.0</ele><time>2026-05-02T12:27:56Z</time></trkpt><trkpt lat="44.41917069789272" lon="10.403257627153875"><ele>768.0</ele><time>2026-05-02T12:27:57Z</time></trkpt><trkpt lat="44.41897613797927" lon="10.40336332201878"><ele>768.0</ele><time>2026-05-02T12:27:58Z</time></trkpt><trkpt lat="44.41878379960834" lon="10.403468999296397"><ele>768.0</ele><time>2026-05-02T12:27:59Z</time></trkpt><trkpt lat="44.4185972457685" lon="10.40356218436952"><ele>765.6666666666666</ele><time>2026-05-02T12:28:00Z</time></trkpt><trkpt lat="44.41842017610432" lon="10.403623219163839"><ele>763.3333333333333</ele><time>2026-05-02T12:28:01Z</time></trkpt><trkpt lat="44.4182460585346" lon="10.403630399784808"><ele>761.0</ele><time>2026-05-02T12:28:02Z</time></trkpt><trkpt lat="44.418080143294794" lon="10.403593134399635"><ele>761.6666666666666</ele><time>2026-05-02T12:28:03Z</time></trkpt><trkpt lat="44.41792315060095" lon="10.403509286963391"><ele>762.3333333333334</ele><time>2026-05-02T12:28:04Z</time></trkpt><trkpt lat="44.41776562986318" lon="10.403394120002853"><ele>763.0</ele><time>2026-05-02T12:28:05Z</time></trkpt><trkpt lat="44.41759110942768" lon="10.403260810127149"><ele>763.0</ele><time>2026-05-02T12:28:06Z</time></trkpt><trkpt lat="44.417408443446796" lon="10.403114209443341"><ele>763.0</ele><time>2026-05-02T12:28:07Z</time></trkpt><trkpt lat="44.41721497612766" lon="10.402954806181164"><ele>763.0</ele><time>2026-05-02T12:28:08Z</time></trkpt><trkpt lat="44.41702311654789" lon="10.402803117474589"><ele>760.3333333333334</ele><time>2026-05-02T12:28:09Z</time></trkpt><trkpt lat="44.416835386195785" lon="10.40266867405806"><ele>757.6666666666666</ele><time>2026-05-02T12:28:10Z</time></trkpt><trkpt lat="44.4166547929221" lon="10.4025451877302"><ele>755.0</ele><time>2026-05-02T12:28:11Z</time></trkpt><trkpt lat="44.41648312054442" lon="10.402422029594536"><ele>755.0</ele><time>2026-05-02T12:28:12Z</time></trkpt><trkpt lat="44.41632286191074" lon="10.402288781782039"><ele>755.0</ele><time>2026-05-02T12:28:13Z</time></trkpt><trkpt lat="44.416168044495194" lon="10.402127861127537"><ele>755.0</ele><time>2026-05-02T12:28:14Z</time></trkpt><trkpt lat="44.41603059251998" lon="10.401921767015804"><ele>754.0</ele><time>2026-05-02T12:28:15Z</time></trkpt><trkpt lat="44.415907808118334" lon="10.4016928590753"><ele>753.0</ele><time>2026-05-02T12:28:16Z</time></trkpt><trkpt lat="44.415803803268226" lon="10.401458121464438"><ele>752.0</ele><time>2026-05-02T12:28:17Z</time></trkpt><trkpt lat="44.41572106731224" lon="10.401234439548892"><ele>752.25</ele><time>2026-05-02T12:28:18Z</time></trkpt><trkpt lat="44.41565754727424" lon="10.401048381505031"><ele>752.5</ele><time>2026-05-02T12:28:19Z</time></trkpt><trkpt lat="44.415605280617086" lon="10.400909193764663"><ele>752.75</ele><time>2026-05-02T12:28:20Z</time></trkpt><trkpt lat="44.415536062791325" lon="10.400807247281135"><ele>753.0</ele><time>2026-05-02T12:28:21Z</time></trkpt><trkpt lat="44.415441259927654" lon="10.400732117704163"><ele>753.0</ele><time>2026-05-02T12:28:22Z</time></trkpt><trkpt lat="44.41532926673537" lon="10.400672525439493"><ele>753.0</ele><time>2026-05-02T12:28:23Z</time></trkpt><trkpt lat="44.41520091908008" lon="10.400637594219628"><ele>753.0</ele><time>2026-05-02T12:28:24Z</time></trkpt><trkpt lat="44.415077275715475" lon="10.400606703537063"><ele>753.0</ele><time>2026-05-02T12:28:25Z</time></trkpt><trkpt lat="44.41498884843991" lon="10.40049551288539"><ele>752.1666666666666</ele><time>2026-05-02T12:28:26Z</time></trkpt><trkpt lat="44.41490592907929" lon="10.40040657714236"><ele>751.3333333333334</ele><time>2026-05-02T12:28:27Z</time></trkpt><trkpt lat="44.41483901941404" lon="10.40034146066242"><ele>750.5</ele><time>2026-05-02T12:28:28Z</time></trkpt><trkpt lat="44.41476259829751" lon="10.40036070207702"><ele>749.6666666666667</ele><time>2026-05-02T12:28:29Z</time></trkpt><trkpt lat="44.41469559614176" lon="10.400432487079032"><ele>748.8333333333334</ele><time>2026-05-02T12:28:30Z</time></trkpt><trkpt lat="44.41465256946118" lon="10.400535246205557"><ele>748.0</ele><time>2026-05-02T12:28:31Z</time></trkpt><trkpt lat="44.41461323873304" lon="10.400680703122616"><ele>747.2</ele><time>2026-05-02T12:28:32Z</time></trkpt><trkpt lat="44.414581367428234" lon="10.400844033230262"><ele>746.4</ele><time>2026-05-02T12:28:33Z</time></trkpt><trkpt lat="44.41452502982921" lon="10.400970280093606"><ele>745.6</ele><time>2026-05-02T12:28:34Z</time></trkpt><trkpt lat="44.41447612132505" lon="10.401067074424482"><ele>744.8000000000001</ele><time>2026-05-02T12:28:35Z</time></trkpt><trkpt lat="44.41437716760944" lon="10.401069912787785"><ele>744.0</ele><time>2026-05-02T12:28:36Z</time></trkpt><trkpt lat="44.41428169411935" lon="10.4011365527064"><ele>744.0</ele><time>2026-05-02T12:28:37Z</time></trkpt><trkpt lat="44.414189246745664" lon="10.401203663791806"><ele>744.0</ele><time>2026-05-02T12:28:38Z</time></trkpt><trkpt lat="44.41413745818882" lon="10.401323064358913"><ele>744.0</ele><time>2026-05-02T12:28:39Z</time></trkpt><trkpt lat="44.414110501136854" lon="10.401488032238891"><ele>744.0</ele><time>2026-05-02T12:28:40Z</time></trkpt><trkpt lat="44.414055057340875" lon="10.40165830311981"><ele>744.0</ele><time>2026-05-02T12:28:41Z</time></trkpt><trkpt lat="44.41400941292893" lon="10.401823241751636"><ele>744.0</ele><time>2026-05-02T12:28:42Z</time></trkpt><trkpt lat="44.41396686647681" lon="10.401952484508584"><ele>744.0</ele><time>2026-05-02T12:28:43Z</time></trkpt><trkpt lat="44.41390168175417" lon="10.402053514817078"><ele>744.0</ele><time>2026-05-02T12:28:44Z</time></trkpt><trkpt lat="44.41379769742665" lon="10.402106765806453"><ele>744.0</ele><time>2026-05-02T12:28:45Z</time></trkpt><trkpt lat="44.41367923708388" lon="10.402190460879643"><ele>741.75</ele><time>2026-05-02T12:28:46Z</time></trkpt><trkpt lat="44.41355687762986" lon="10.402257421087008"><ele>739.5</ele><time>2026-05-02T12:28:47Z</time></trkpt><trkpt lat="44.41344331767793" lon="10.402329471152369"><ele>737.25</ele><time>2026-05-02T12:28:48Z</time></trkpt><trkpt lat="44.413334926358424" lon="10.402389987828439"><ele>735.0</ele><time>2026-05-02T12:28:49Z</time></trkpt><trkpt lat="44.41322594050766" lon="10.402422880051038"><ele>735.0</ele><time>2026-05-02T12:28:50Z</time></trkpt><trkpt lat="44.413113939360436" lon="10.402442714484708"><ele>735.0</ele><time>2026-05-02T12:28:51Z</time></trkpt><trkpt lat="44.41300520447731" lon="10.402438695029874"><ele>735.0</ele><time>2026-05-02T12:28:52Z</time></trkpt><trkpt lat="44.4129002783712" lon="10.40241405474201"><ele>735.0</ele><time>2026-05-02T12:28:53Z</time></trkpt><trkpt lat="44.412803025014895" lon="10.402373504071306"><ele>735.0</ele><time>2026-05-02T12:28:54Z</time></trkpt><trkpt lat="44.41270534057039" lon="10.402332235758028"><ele>734.4</ele><time>2026-05-02T12:28:55Z</time></trkpt><trkpt lat="44.41260671739544" lon="10.40229559254359"><ele>733.8</ele><time>2026-05-02T12:28:56Z</time></trkpt><trkpt lat="44.41250861989585" lon="10.402272636690894"><ele>733.2</ele><time>2026-05-02T12:28:57Z</time></trkpt><trkpt lat="44.41240830249661" lon="10.40226579389635"><ele>732.6</ele><time>2026-05-02T12:28:58Z</time></trkpt><trkpt lat="44.412301264252676" lon="10.402271448452117"><ele>732.0</ele><time>2026-05-02T12:28:59Z</time></trkpt><trkpt lat="44.41218952969912" lon="10.402284522162386"><ele>730.4000000000001</ele><time>2026-05-02T12:29:00Z</time></trkpt><trkpt lat="44.41207243812761" lon="10.402302187901567"><ele>728.8000000000001</ele><time>2026-05-02T12:29:01Z</time></trkpt><trkpt lat="44.411952541431354" lon="10.402324392485959"><ele>727.2</ele><time>2026-05-02T12:29:02Z</time></trkpt><trkpt lat="44.411842638201755" lon="10.402343378124387"><ele>725.6</ele><time>2026-05-02T12:29:03Z</time></trkpt><trkpt lat="44.41174508021509" lon="10.402353628926274"><ele>724.0</ele><time>2026-05-02T12:29:04Z</time></trkpt><trkpt lat="44.41164526595524" lon="10.402361225657097"><ele>724.0</ele><time>2026-05-02T12:29:05Z</time></trkpt><trkpt lat="44.41154668966842" lon="10.402370689809619"><ele>724.0</ele><time>2026-05-02T12:29:06Z</time></trkpt><trkpt lat="44.41144896168219" lon="10.402386213362695"><ele>724.0</ele><time>2026-05-02T12:29:07Z</time></trkpt><trkpt lat="44.411356271700576" lon="10.4023705638571"><ele>724.0</ele><time>2026-05-02T12:29:08Z</time></trkpt><trkpt lat="44.41127611719384" lon="10.402308552450808"><ele>724.0</ele><time>2026-05-02T12:29:09Z</time></trkpt><trkpt lat="44.41121900521497" lon="10.40219990181357"><ele>720.5</ele><time>2026-05-02T12:29:10Z</time></trkpt><trkpt lat="44.411188787154245" lon="10.402064730052173"><ele>717.0</ele><time>2026-05-02T12:29:11Z</time></trkpt><trkpt lat="44.411194095117544" lon="10.401902012988968"><ele>713.5</ele><time>2026-05-02T12:29:12Z</time></trkpt><trkpt lat="44.41122990617021" lon="10.40172377157899"><ele>710.0</ele><time>2026-05-02T12:29:13Z</time></trkpt><trkpt lat="44.41127260964069" lon="10.401555630709364"><ele>710.0</ele><time>2026-05-02T12:29:14Z</time></trkpt><trkpt lat="44.411312026343296" lon="10.401397229856345"><ele>710.0</ele><time>2026-05-02T12:29:15Z</time></trkpt><trkpt lat="44.41134749072726" lon="10.401246517813027"><ele>710.0</ele><time>2026-05-02T12:29:16Z</time></trkpt><trkpt lat="44.41138039189113" lon="10.40110655201891"><ele>710.0</ele><time>2026-05-02T12:29:17Z</time></trkpt><trkpt lat="44.411418198578254" lon="10.400968147374165"><ele>710.0</ele><time>2026-05-02T12:29:18Z</time></trkpt><trkpt lat="44.41144982432409" lon="10.400830305150246"><ele>710.6666666666666</ele><time>2026-05-02T12:29:19Z</time></trkpt><trkpt lat="44.41151840214392" lon="10.400721436922332"><ele>711.3333333333333</ele><time>2026-05-02T12:29:20Z</time></trkpt><trkpt lat="44.411586236113955" lon="10.400635951201401"><ele>712.0</ele><time>2026-05-02T12:29:21Z</time></trkpt><trkpt lat="44.41166020030688" lon="10.400596381537056"><ele>712.6666666666666</ele><time>2026-05-02T12:29:22Z</time></trkpt><trkpt lat="44.41174043363799" lon="10.400577700696177"><ele>713.3333333333334</ele><time>2026-05-02T12:29:23Z</time></trkpt><trkpt lat="44.41182060567225" lon="10.400549730563256"><ele>714.0</ele><time>2026-05-02T12:29:24Z</time></trkpt><trkpt lat="44.41189781774965" lon="10.400521614235066"><ele>712.8000000000001</ele><time>2026-05-02T12:29:25Z</time></trkpt><trkpt lat="44.411962349788205" lon="10.400446819000337"><ele>711.6</ele><time>2026-05-02T12:29:26Z</time></trkpt><trkpt lat="44.412002966864584" lon="10.400331554529096"><ele>710.4</ele><time>2026-05-02T12:29:27Z</time></trkpt><trkpt lat="44.411995116832216" lon="10.40019152832681"><ele>709.2</ele><time>2026-05-02T12:29:28Z</time></trkpt><trkpt lat="44.41194317676303" lon="10.400060139040571"><ele>708.0</ele><time>2026-05-02T12:29:29Z</time></trkpt><trkpt lat="44.41187126131642" lon="10.39993075697853"><ele>708.0</ele><time>2026-05-02T12:29:30Z</time></trkpt><trkpt lat="44.411814518043464" lon="10.399787956688847"><ele>708.0</ele><time>2026-05-02T12:29:31Z</time></trkpt><trkpt lat="44.41176874745891" lon="10.399647533826064"><ele>708.0</ele><time>2026-05-02T12:29:32Z</time></trkpt><trkpt lat="44.41172326500348" lon="10.399507141207273"><ele>708.0</ele><time>2026-05-02T12:29:33Z</time></trkpt><trkpt lat="44.41169593579992" lon="10.399363160339458"><ele>708.0</ele><time>2026-05-02T12:29:34Z</time></trkpt><trkpt lat="44.41172982970673" lon="10.399201169925462"><ele>706.8</ele><time>2026-05-02T12:29:35Z</time></trkpt><trkpt lat="44.411775735927016" lon="10.399059003453516"><ele>705.5999999999999</ele><time>2026-05-02T12:29:36Z</time></trkpt><trkpt lat="44.41182609976961" lon="10.398923451966516"><ele>704.4000000000001</ele><time>2026-05-02T12:29:37Z</time></trkpt><trkpt lat="44.4118594275138" lon="10.398787897521172"><ele>703.2</ele><time>2026-05-02T12:29:38Z</time></trkpt><trkpt lat="44.41187742089839" lon="10.398669321506635"><ele>702.0</ele><time>2026-05-02T12:29:39Z</time></trkpt><trkpt lat="44.41185570444992" lon="10.39855627529899"><ele>702.0</ele><time>2026-05-02T12:29:40Z</time></trkpt><trkpt lat="44.411806669897466" lon="10.398453364320094"><ele>702.0</ele><time>2026-05-02T12:29:41Z</time></trkpt><trkpt lat="44.411718703278005" lon="10.398396142958571"><ele>702.0</ele><time>2026-05-02T12:29:42Z</time></trkpt><trkpt lat="44.41161437976621" lon="10.398398748931841"><ele>702.0</ele><time>2026-05-02T12:29:43Z</time></trkpt><trkpt lat="44.41149461846598" lon="10.39843094806949"><ele>702.0</ele><time>2026-05-02T12:29:44Z</time></trkpt><trkpt lat="44.411334104098074" lon="10.398473117413982"><ele>700.0</ele><time>2026-05-02T12:29:45Z</time></trkpt><trkpt lat="44.41113293418357" lon="10.39852059751288"><ele>698.0</ele><time>2026-05-02T12:29:46Z</time></trkpt><trkpt lat="44.41092872625451" lon="10.39856013322685"><ele>696.0</ele><time>2026-05-02T12:29:47Z</time></trkpt><trkpt lat="44.410717872096654" lon="10.398598011014203"><ele>696.0</ele><time>2026-05-02T12:29:48Z</time></trkpt><trkpt lat="44.410513829792755" lon="10.398632078572929"><ele>696.0</ele><time>2026-05-02T12:29:49Z</time></trkpt><trkpt lat="44.410322448462495" lon="10.398687127632764"><ele>696.0</ele><time>2026-05-02T12:29:50Z</time></trkpt><trkpt lat="44.41013912405908" lon="10.398718616078147"><ele>695.3333333333334</ele><time>2026-05-02T12:29:51Z</time></trkpt><trkpt lat="44.40998164669989" lon="10.3987410732846"><ele>694.6666666666667</ele><time>2026-05-02T12:29:52Z</time></trkpt><trkpt lat="44.4098265532361" lon="10.398744159352193"><ele>694.0</ele><time>2026-05-02T12:29:53Z</time></trkpt><trkpt lat="44.40968495068645" lon="10.398683553213301"><ele>690.0</ele><time>2026-05-02T12:29:54Z</time></trkpt><trkpt lat="44.409538276969975" lon="10.398596428285984"><ele>686.0</ele><time>2026-05-02T12:29:55Z</time></trkpt><trkpt lat="44.4093640120924" lon="10.398486718451904"><ele>682.0</ele><time>2026-05-02T12:29:56Z</time></trkpt><trkpt lat="44.40917360965568" lon="10.3983989249622"><ele>682.0</ele><time>2026-05-02T12:29:57Z</time></trkpt><trkpt lat="44.40898463748651" lon="10.398282757983758"><ele>682.0</ele><time>2026-05-02T12:29:58Z</time></trkpt><trkpt lat="44.408793099644434" lon="10.398178618859106"><ele>682.0</ele><time>2026-05-02T12:29:59Z</time></trkpt><trkpt lat="44.40860566407135" lon="10.398082751939263"><ele>679.6666666666667</ele><time>2026-05-02T12:30:00Z</time></trkpt><trkpt lat="44.40843015733169" lon="10.397991065483485"><ele>677.3333333333334</ele><time>2026-05-02T12:30:01Z</time></trkpt><trkpt lat="44.408263854861" lon="10.3978939385017"><ele>675.0</ele><time>2026-05-02T12:30:02Z</time></trkpt><trkpt lat="44.40810176770291" lon="10.397775609071587"><ele>671.6666666666666</ele><time>2026-05-02T12:30:03Z</time></trkpt><trkpt lat="44.40796629125711" lon="10.397604557900992"><ele>668.3333333333333</ele><time>2026-05-02T12:30:04Z</time></trkpt><trkpt lat="44.40781228835217" lon="10.39746461187643"><ele>665.0</ele><time>2026-05-02T12:30:05Z</time></trkpt><trkpt lat="44.40765952373441" lon="10.397358453243552"><ele>665.0</ele><time>2026-05-02T12:30:06Z</time></trkpt><trkpt lat="44.40748803967438" lon="10.397295344225777"><ele>665.0</ele><time>2026-05-02T12:30:07Z</time></trkpt><trkpt lat="44.40731570196744" lon="10.397240560953563"><ele>665.0</ele><time>2026-05-02T12:30:08Z</time></trkpt><trkpt lat="44.40715244784262" lon="10.39717788993268"><ele>663.25</ele><time>2026-05-02T12:30:09Z</time></trkpt><trkpt lat="44.40700980650432" lon="10.397103068463242"><ele>661.5</ele><time>2026-05-02T12:30:10Z</time></trkpt><trkpt lat="44.40687819895555" lon="10.397021948359287"><ele>659.75</ele><time>2026-05-02T12:30:11Z</time></trkpt><trkpt lat="44.40677654542104" lon="10.396945870475227"><ele>658.0</ele><time>2026-05-02T12:30:12Z</time></trkpt><trkpt lat="44.4066974937745" lon="10.396885472311498"><ele>658.0</ele><time>2026-05-02T12:30:13Z</time></trkpt><trkpt lat="44.40662606907785" lon="10.396870357770236"><ele>658.0</ele><time>2026-05-02T12:30:14Z</time></trkpt><trkpt lat="44.40654999657846" lon="10.396920724995717"><ele>658.0</ele><time>2026-05-02T12:30:15Z</time></trkpt><trkpt lat="44.406504345552726" lon="10.397030503210738"><ele>658.0</ele><time>2026-05-02T12:30:16Z</time></trkpt><trkpt lat="44.406510481093626" lon="10.39715581747531"><ele>658.0</ele><time>2026-05-02T12:30:17Z</time></trkpt><trkpt lat="44.40658750996808" lon="10.397278408712085"><ele>656.75</ele><time>2026-05-02T12:30:18Z</time></trkpt><trkpt lat="44.40667910723754" lon="10.397401725019085"><ele>655.5</ele><time>2026-05-02T12:30:19Z</time></trkpt><trkpt lat="44.40677241589053" lon="10.397566192355672"><ele>654.25</ele><time>2026-05-02T12:30:20Z</time></trkpt><trkpt lat="44.40682890330153" lon="10.397755119700278"><ele>653.0</ele><time>2026-05-02T12:30:21Z</time></trkpt><trkpt lat="44.40692165126933" lon="10.397939167338132"><ele>654.25</ele><time>2026-05-02T12:30:22Z</time></trkpt><trkpt lat="44.407007483771274" lon="10.398105270862759"><ele>655.5</ele><time>2026-05-02T12:30:23Z</time></trkpt><trkpt lat="44.40709302420444" lon="10.398251603612302"><ele>656.75</ele><time>2026-05-02T12:30:24Z</time></trkpt><trkpt lat="44.40717557309117" lon="10.398401563252506"><ele>658.0</ele><time>2026-05-02T12:30:25Z</time></trkpt><trkpt lat="44.40724835186894" lon="10.398544739865745"><ele>658.0</ele><time>2026-05-02T12:30:26Z</time></trkpt><trkpt lat="44.407283800862324" lon="10.398695501053426"><ele>658.0</ele><time>2026-05-02T12:30:27Z</time></trkpt><trkpt lat="44.40729650055689" lon="10.39882954820171"><ele>658.0</ele><time>2026-05-02T12:30:28Z</time></trkpt><trkpt lat="44.40728720516623" lon="10.398961129327907"><ele>658.0</ele><time>2026-05-02T12:30:29Z</time></trkpt><trkpt lat="44.40721621931088" lon="10.399056541737448"><ele>658.0</ele><time>2026-05-02T12:30:30Z</time></trkpt><trkpt lat="44.40709127201473" lon="10.39909596101979"><ele>653.3333333333334</ele><time>2026-05-02T12:30:31Z</time></trkpt><trkpt lat="44.406964243854375" lon="10.399128991564409"><ele>648.6666666666666</ele><time>2026-05-02T12:30:32.001Z</time></trkpt><trkpt lat="44.406808273402994" lon="10.39915182182667"><ele>644.0</ele><time>2026-05-02T12:30:33.001Z</time></trkpt><trkpt lat="44.406631203845656" lon="10.39916912547734"><ele>644.0</ele><time>2026-05-02T12:30:34.001Z</time></trkpt><trkpt lat="44.406454402355195" lon="10.399168455952076"><ele>644.0</ele><time>2026-05-02T12:30:35.001Z</time></trkpt><trkpt lat="44.40627116073107" lon="10.399170743868517"><ele>644.0</ele><time>2026-05-02T12:30:36.001Z</time></trkpt><trkpt lat="44.4060951166936" lon="10.399164995520408"><ele>640.6666666666666</ele><time>2026-05-02T12:30:37.001Z</time></trkpt><trkpt lat="44.40592501901691" lon="10.39916635142371"><ele>637.3333333333334</ele><time>2026-05-02T12:30:38.001Z</time></trkpt><trkpt lat="44.40576884220856" lon="10.399169870841387"><ele>634.0</ele><time>2026-05-02T12:30:39.001Z</time></trkpt><trkpt lat="44.40561751477235" lon="10.399162167181549"><ele>633.3333333333334</ele><time>2026-05-02T12:30:40.001Z</time></trkpt><trkpt lat="44.40546537659628" lon="10.399115856843714"><ele>632.6666666666666</ele><time>2026-05-02T12:30:41.001Z</time></trkpt><trkpt lat="44.4053195732791" lon="10.399021124966179"><ele>632.0</ele><time>2026-05-02T12:30:42.001Z</time></trkpt><trkpt lat="44.40516517382403" lon="10.398902502436492"><ele>627.6666666666666</ele><time>2026-05-02T12:30:43.001Z</time></trkpt><trkpt lat="44.40499392023599" lon="10.398797062412287"><ele>623.3333333333334</ele><time>2026-05-02T12:30:44.001Z</time></trkpt><trkpt lat="44.40483374261517" lon="10.398675529397728"><ele>619.0</ele><time>2026-05-02T12:30:45.001Z</time></trkpt><trkpt lat="44.40467027574976" lon="10.398563266394452"><ele>617.3333333333334</ele><time>2026-05-02T12:30:46.001Z</time></trkpt><trkpt lat="44.40449575095374" lon="10.398481717892295"><ele>615.6666666666666</ele><time>2026-05-02T12:30:47.001Z</time></trkpt><trkpt lat="44.40430224131658" lon="10.39844481751943"><ele>614.0</ele><time>2026-05-02T12:30:48.001Z</time></trkpt><trkpt lat="44.40410363521654" lon="10.398423629053907"><ele>614.0</ele><time>2026-05-02T12:30:49.001Z</time></trkpt><trkpt lat="44.40390295248273" lon="10.398382476751584"><ele>614.0</ele><time>2026-05-02T12:30:50.001Z</time></trkpt><trkpt lat="44.403708689192435" lon="10.398341948251879"><ele>614.0</ele><time>2026-05-02T12:30:51.001Z</time></trkpt><trkpt lat="44.4035167600521" lon="10.398299588639784"><ele>612.3333333333333</ele><time>2026-05-02T12:30:52.002Z</time></trkpt><trkpt lat="44.40332821736403" lon="10.39825886259055"><ele>610.6666666666666</ele><time>2026-05-02T12:30:53.002Z</time></trkpt><trkpt lat="44.40314858880319" lon="10.398221605854948"><ele>609.0</ele><time>2026-05-02T12:30:54.001Z</time></trkpt><trkpt lat="44.402989173099265" lon="10.39818639933725"><ele>608.0</ele><time>2026-05-02T12:30:55.001Z</time></trkpt><trkpt lat="44.402861576240234" lon="10.398153711808517"><ele>607.0</ele><time>2026-05-02T12:30:56.001Z</time></trkpt><trkpt lat="44.40275307703825" lon="10.39812567015899"><ele>606.0</ele><time>2026-05-02T12:30:57.001Z</time></trkpt><trkpt lat="44.402675532075264" lon="10.398105185202603"><ele>605.0</ele><time>2026-05-02T12:30:58.001Z</time></trkpt><trkpt lat="44.402595972021814" lon="10.397975853921752"><ele>604.0</ele><time>2026-05-02T12:31:00.001Z</time></trkpt><trkpt lat="44.40263773401066" lon="10.39785832061701"><ele>603.5</ele><time>2026-05-02T12:31:01.001Z</time></trkpt><trkpt lat="44.402709565130635" lon="10.397790686973332"><ele>603.0</ele><time>2026-05-02T12:31:02.001Z</time></trkpt><trkpt lat="44.40279913266425" lon="10.397732542106006"><ele>602.5</ele><time>2026-05-02T12:31:03.001Z</time></trkpt><trkpt lat="44.4029171636665" lon="10.39763961951732"><ele>602.0</ele><time>2026-05-02T12:31:04.001Z</time></trkpt><trkpt lat="44.40304475992777" lon="10.397544223515352"><ele>602.0</ele><time>2026-05-02T12:31:05.001Z</time></trkpt><trkpt lat="44.403155326706425" lon="10.39744006770448"><ele>602.0</ele><time>2026-05-02T12:31:06.001Z</time></trkpt><trkpt lat="44.40320213322438" lon="10.397355742559283"><ele>602.0</ele><time>2026-05-02T12:31:07.001Z</time></trkpt><trkpt lat="44.403229788913976" lon="10.39726030732348"><ele>602.0</ele><time>2026-05-02T12:31:08.001Z</time></trkpt><trkpt lat="44.403171366209854" lon="10.39714495676384"><ele>602.0</ele><time>2026-05-02T12:31:09.001Z</time></trkpt><trkpt lat="44.40308906444165" lon="10.397094482215847"><ele>602.0</ele><time>2026-05-02T12:31:10.001Z</time></trkpt><trkpt lat="44.40297916542379" lon="10.397098944260561"><ele>602.0</ele><time>2026-05-02T12:31:11.001Z</time></trkpt><trkpt lat="44.4028569028838" lon="10.39716486309138"><ele>602.0</ele><time>2026-05-02T12:31:12.001Z</time></trkpt><trkpt lat="44.40271948888266" lon="10.397230737512052"><ele>602.0</ele><time>2026-05-02T12:31:13.001Z</time></trkpt><trkpt lat="44.40257125461692" lon="10.397238631601569"><ele>602.0</ele><time>2026-05-02T12:31:14.001Z</time></trkpt><trkpt lat="44.40242463735933" lon="10.397195917366568"><ele>602.0</ele><time>2026-05-02T12:31:15.001Z</time></trkpt><trkpt lat="44.402283570496735" lon="10.397141638473792"><ele>602.0</ele><time>2026-05-02T12:31:16.001Z</time></trkpt><trkpt lat="44.40214842725869" lon="10.397138232836989"><ele>602.0</ele><time>2026-05-02T12:31:17.001Z</time></trkpt><trkpt lat="44.402001363787406" lon="10.397205672098496"><ele>599.0</ele><time>2026-05-02T12:31:18.001Z</time></trkpt><trkpt lat="44.40184717283484" lon="10.397283745139726"><ele>596.0</ele><time>2026-05-02T12:31:19.001Z</time></trkpt><trkpt lat="44.40167718713864" lon="10.397317953394692"><ele>593.0</ele><time>2026-05-02T12:31:20.001Z</time></trkpt><trkpt lat="44.40149962209976" lon="10.397339137537193"><ele>590.3333333333333</ele><time>2026-05-02T12:31:21.001Z</time></trkpt><trkpt lat="44.40132065048637" lon="10.39736615976536"><ele>587.6666666666666</ele><time>2026-05-02T12:31:22.001Z</time></trkpt><trkpt lat="44.40115088191112" lon="10.397392515040762"><ele>585.0</ele><time>2026-05-02T12:31:23.001Z</time></trkpt><trkpt lat="44.40098724475985" lon="10.397415648471497"><ele>585.0</ele><time>2026-05-02T12:31:24.001Z</time></trkpt><trkpt lat="44.40083568695704" lon="10.397440621646268"><ele>585.0</ele><time>2026-05-02T12:31:25.001Z</time></trkpt><trkpt lat="44.400695356311" lon="10.397466502473424"><ele>585.0</ele><time>2026-05-02T12:31:26.001Z</time></trkpt><trkpt lat="44.40056376511586" lon="10.397500927362936"><ele>585.0</ele><time>2026-05-02T12:31:27.001Z</time></trkpt><trkpt lat="44.40045771857866" lon="10.39757579735743"><ele>582.75</ele><time>2026-05-02T12:31:28.001Z</time></trkpt><trkpt lat="44.40037121115401" lon="10.397717904346681"><ele>580.5</ele><time>2026-05-02T12:31:29.001Z</time></trkpt><trkpt lat="44.400298319136596" lon="10.397906447886006"><ele>578.25</ele><time>2026-05-02T12:31:30.001Z</time></trkpt><trkpt lat="44.40022476611141" lon="10.398077815356574"><ele>576.0</ele><time>2026-05-02T12:31:31.001Z</time></trkpt><trkpt lat="44.40015608401437" lon="10.398216149076616"><ele>576.0</ele><time>2026-05-02T12:31:32.001Z</time></trkpt><trkpt lat="44.40008974075729" lon="10.398309036649259"><ele>576.0</ele><time>2026-05-02T12:31:33.001Z</time></trkpt><trkpt lat="44.400020146206366" lon="10.398335015968346"><ele>576.0</ele><time>2026-05-02T12:31:34.001Z</time></trkpt><trkpt lat="44.399947259305804" lon="10.398299143013144"><ele>576.0</ele><time>2026-05-02T12:31:35.001Z</time></trkpt><trkpt lat="44.39990244718511" lon="10.398198463122785"><ele>576.0</ele><time>2026-05-02T12:31:36.001Z</time></trkpt><trkpt lat="44.399886603897464" lon="10.398051620841533"><ele>576.0</ele><time>2026-05-02T12:31:37.001Z</time></trkpt><trkpt lat="44.39990401793644" lon="10.397861426756807"><ele>574.6666666666666</ele><time>2026-05-02T12:31:38.001Z</time></trkpt><trkpt lat="44.399930975296506" lon="10.397645140501128"><ele>573.3333333333333</ele><time>2026-05-02T12:31:39.001Z</time></trkpt><trkpt lat="44.399951438838706" lon="10.39741206548815"><ele>572.0</ele><time>2026-05-02T12:31:40.001Z</time></trkpt><trkpt lat="44.39996787320926" lon="10.39719751134157"><ele>571.4</ele><time>2026-05-02T12:31:41.001Z</time></trkpt><trkpt lat="44.39998305369936" lon="10.397007236503155"><ele>570.8000000000001</ele><time>2026-05-02T12:31:42.001Z</time></trkpt><trkpt lat="44.39999661431893" lon="10.39685891635966"><ele>570.2</ele><time>2026-05-02T12:31:43.001Z</time></trkpt><trkpt lat="44.399996514600076" lon="10.396736704587735"><ele>569.6</ele><time>2026-05-02T12:31:44.001Z</time></trkpt><trkpt lat="44.39995202875006" lon="10.39664396711286"><ele>569.0</ele><time>2026-05-02T12:31:45.001Z</time></trkpt><trkpt lat="44.39985837205496" lon="10.39661013499146"><ele>569.0</ele><time>2026-05-02T12:31:46.001Z</time></trkpt><trkpt lat="44.399752201945695" lon="10.396665433233006"><ele>569.0</ele><time>2026-05-02T12:31:47.001Z</time></trkpt><trkpt lat="44.399664781504576" lon="10.396805209865905"><ele>569.0</ele><time>2026-05-02T12:31:48.001Z</time></trkpt><trkpt lat="44.399586583785755" lon="10.397001802939643"><ele>569.0</ele><time>2026-05-02T12:31:49.001Z</time></trkpt><trkpt lat="44.39950224658908" lon="10.39721531557364"><ele>566.0</ele><time>2026-05-02T12:31:50.001Z</time></trkpt><trkpt lat="44.39941442941761" lon="10.397415280381326"><ele>563.0</ele><time>2026-05-02T12:31:51.001Z</time></trkpt><trkpt lat="44.39933212134616" lon="10.397610876149178"><ele>560.0</ele><time>2026-05-02T12:31:52.001Z</time></trkpt><trkpt lat="44.39925834524668" lon="10.39780975182743"><ele>560.5</ele><time>2026-05-02T12:31:53.001Z</time></trkpt><trkpt lat="44.39920757440711" lon="10.398017066873964"><ele>561.0</ele><time>2026-05-02T12:31:54.001Z</time></trkpt><trkpt lat="44.399204547722356" lon="10.39821740418773"><ele>561.5</ele><time>2026-05-02T12:31:55.001Z</time></trkpt><trkpt lat="44.39923178093213" lon="10.398389338928816"><ele>562.0</ele><time>2026-05-02T12:31:56.001Z</time></trkpt><trkpt lat="44.3992590546405" lon="10.398541191617099"><ele>562.0</ele><time>2026-05-02T12:31:57.001Z</time></trkpt><trkpt lat="44.399147250171254" lon="10.398657029381736"><ele>562.0</ele><time>2026-05-02T12:31:58.001Z</time></trkpt><trkpt lat="44.39903400491996" lon="10.398713719287494"><ele>562.0</ele><time>2026-05-02T12:31:59.001Z</time></trkpt><trkpt lat="44.39888889797025" lon="10.398713896237016"><ele>562.0</ele><time>2026-05-02T12:32:00.001Z</time></trkpt><trkpt lat="44.3987436589711" lon="10.398702288406879"><ele>559.6</ele><time>2026-05-02T12:32:01.001Z</time></trkpt><trkpt lat="44.39862858399522" lon="10.398713375816131"><ele>557.2</ele><time>2026-05-02T12:32:02.001Z</time></trkpt><trkpt lat="44.39853878207301" lon="10.398688971673808"><ele>554.8</ele><time>2026-05-02T12:32:03.001Z</time></trkpt><trkpt lat="44.39847452087983" lon="10.398666098279083"><ele>552.4</ele><time>2026-05-02T12:32:04.001Z</time></trkpt><trkpt lat="44.39841938823345" lon="10.398588084025695"><ele>550.0</ele><time>2026-05-02T12:32:05.001Z</time></trkpt><trkpt lat="44.398417206392196" lon="10.398443235169847"><ele>550.0</ele><time>2026-05-02T12:32:06.001Z</time></trkpt><trkpt lat="44.39847354923142" lon="10.398318656323797"><ele>550.0</ele><time>2026-05-02T12:32:07.001Z</time></trkpt><trkpt lat="44.398589321450444" lon="10.398273198772387"><ele>550.0</ele><time>2026-05-02T12:32:08.001Z</time></trkpt><trkpt lat="44.398649593072946" lon="10.398165893962963"><ele>550.0</ele><time>2026-05-02T12:32:09.001Z</time></trkpt><trkpt lat="44.398659755301196" lon="10.397995558895955"><ele>550.0</ele><time>2026-05-02T12:32:10.001Z</time></trkpt><trkpt lat="44.39861802403216" lon="10.397803587315336"><ele>548.5</ele><time>2026-05-02T12:32:11.001Z</time></trkpt><trkpt lat="44.398555893540774" lon="10.397612264420813"><ele>547.0</ele><time>2026-05-02T12:32:12.001Z</time></trkpt><trkpt lat="44.398513013915725" lon="10.397422276040304"><ele>545.5</ele><time>2026-05-02T12:32:13.001Z</time></trkpt><trkpt lat="44.3984839478788" lon="10.397240145484526"><ele>544.0</ele><time>2026-05-02T12:32:14.001Z</time></trkpt><trkpt lat="44.39845970325888" lon="10.397080959057435"><ele>543.2</ele><time>2026-05-02T12:32:15.001Z</time></trkpt><trkpt lat="44.39843435836693" lon="10.396958079098109"><ele>542.4</ele><time>2026-05-02T12:32:16.001Z</time></trkpt><trkpt lat="44.39838184056126" lon="10.396873323129345"><ele>541.6</ele><time>2026-05-02T12:32:17.001Z</time></trkpt><trkpt lat="44.39829454662521" lon="10.396863175178327"><ele>540.8</ele><time>2026-05-02T12:32:18.001Z</time></trkpt><trkpt lat="44.39818896807592" lon="10.3968977606312"><ele>540.0</ele><time>2026-05-02T12:32:19.001Z</time></trkpt><trkpt lat="44.398104919014656" lon="10.397042636320426"><ele>541.0</ele><time>2026-05-02T12:32:20.001Z</time></trkpt><trkpt lat="44.39806974958354" lon="10.397239310045174"><ele>542.0</ele><time>2026-05-02T12:32:21.001Z</time></trkpt><trkpt lat="44.398006699541874" lon="10.397426044728613"><ele>543.0</ele><time>2026-05-02T12:32:22.001Z</time></trkpt><trkpt lat="44.397877092938764" lon="10.397533069206299"><ele>544.0</ele><time>2026-05-02T12:32:23.001Z</time></trkpt><trkpt lat="44.397727243204194" lon="10.397577880199481"><ele>540.3333333333334</ele><time>2026-05-02T12:32:24.001Z</time></trkpt><trkpt lat="44.39757704224997" lon="10.397666531156478"><ele>536.6666666666666</ele><time>2026-05-02T12:32:25.001Z</time></trkpt><trkpt lat="44.39741848971962" lon="10.397734779272927"><ele>533.0</ele><time>2026-05-02T12:32:26.001Z</time></trkpt><trkpt lat="44.39727166970355" lon="10.397821402461547"><ele>531.5</ele><time>2026-05-02T12:32:27.001Z</time></trkpt><trkpt lat="44.39713223475185" lon="10.397879293734047"><ele>530.0</ele><time>2026-05-02T12:32:28.001Z</time></trkpt><trkpt lat="44.39699493672923" lon="10.397906049737038"><ele>528.5</ele><time>2026-05-02T12:32:29.001Z</time></trkpt><trkpt lat="44.39687271666014" lon="10.397907522439661"><ele>527.0</ele><time>2026-05-02T12:32:30.001Z</time></trkpt><trkpt lat="44.39676558142232" lon="10.39791895783928"><ele>527.0</ele><time>2026-05-02T12:32:31.001Z</time></trkpt><trkpt lat="44.396683832793016" lon="10.397968165408415"><ele>527.0</ele><time>2026-05-02T12:32:32.001Z</time></trkpt><trkpt lat="44.396619926904" lon="10.398078186072249"><ele>527.0</ele><time>2026-05-02T12:32:33.001Z</time></trkpt><trkpt lat="44.39661356847" lon="10.398235147244563"><ele>527.0</ele><time>2026-05-02T12:32:34.001Z</time></trkpt><trkpt lat="44.396654915330586" lon="10.39840002731226"><ele>527.0</ele><time>2026-05-02T12:32:35.001Z</time></trkpt><trkpt lat="44.396721499265205" lon="10.398576716388755"><ele>527.75</ele><time>2026-05-02T12:32:36.001Z</time></trkpt><trkpt lat="44.39680068295493" lon="10.398755577927515"><ele>528.5</ele><time>2026-05-02T12:32:37.001Z</time></trkpt><trkpt lat="44.3968598549732" lon="10.398938233637436"><ele>529.25</ele><time>2026-05-02T12:32:38.001Z</time></trkpt><trkpt lat="44.39691265193412" lon="10.399103634006936"><ele>530.0</ele><time>2026-05-02T12:32:39.001Z</time></trkpt><trkpt lat="44.3969312081037" lon="10.399277685676903"><ele>528.6</ele><time>2026-05-02T12:32:40.001Z</time></trkpt><trkpt lat="44.39692604552371" lon="10.399440148354785"><ele>527.2</ele><time>2026-05-02T12:32:41.001Z</time></trkpt><trkpt lat="44.39690326886757" lon="10.399548848506996"><ele>525.8</ele><time>2026-05-02T12:32:42.001Z</time></trkpt><trkpt lat="44.39681513912448" lon="10.399611793588017"><ele>524.4</ele><time>2026-05-02T12:32:43.001Z</time></trkpt><trkpt lat="44.396695971604835" lon="10.399582152128614"><ele>523.0</ele><time>2026-05-02T12:32:44.001Z</time></trkpt><trkpt lat="44.39657780863171" lon="10.399512123454896"><ele>523.0</ele><time>2026-05-02T12:32:45.001Z</time></trkpt><trkpt lat="44.39648828698794" lon="10.399391862224922"><ele>523.0</ele><time>2026-05-02T12:32:46.001Z</time></trkpt><trkpt lat="44.39644169895707" lon="10.399248919923428"><ele>523.0</ele><time>2026-05-02T12:32:47.001Z</time></trkpt><trkpt lat="44.39639221381197" lon="10.39912551494796"><ele>523.0</ele><time>2026-05-02T12:32:48.001Z</time></trkpt><trkpt lat="44.39632294312376" lon="10.399037713340752"><ele>523.0</ele><time>2026-05-02T12:32:49.001Z</time></trkpt><trkpt lat="44.396220214093724" lon="10.39902026964899"><ele>519.25</ele><time>2026-05-02T12:32:50.001Z</time></trkpt><trkpt lat="44.396123715941265" lon="10.39907972071064"><ele>515.5</ele><time>2026-05-02T12:32:51.001Z</time></trkpt><trkpt lat="44.39603945263321" lon="10.399205913484444"><ele>511.75</ele><time>2026-05-02T12:32:52.001Z</time></trkpt><trkpt lat="44.39595938067574" lon="10.399373273322169"><ele>508.0</ele><time>2026-05-02T12:32:53.001Z</time></trkpt><trkpt lat="44.39586652356684" lon="10.399559447125311"><ele>507.5</ele><time>2026-05-02T12:32:54.001Z</time></trkpt><trkpt lat="44.39576460626745" lon="10.39972741223487"><ele>507.0</ele><time>2026-05-02T12:32:55.001Z</time></trkpt><trkpt lat="44.395665766789676" lon="10.399882144227634"><ele>506.5</ele><time>2026-05-02T12:32:56.001Z</time></trkpt><trkpt lat="44.39558048270347" lon="10.400012019297444"><ele>506.0</ele><time>2026-05-02T12:32:57.001Z</time></trkpt><trkpt lat="44.39548845951738" lon="10.400116984808184"><ele>504.25</ele><time>2026-05-02T12:32:58.002Z</time></trkpt><trkpt lat="44.39537345292668" lon="10.400162752948454"><ele>502.5</ele><time>2026-05-02T12:32:59.002Z</time></trkpt><trkpt lat="44.39525088368569" lon="10.40014618591178"><ele>500.75</ele><time>2026-05-02T12:33:00.002Z</time></trkpt><trkpt lat="44.39514457531436" lon="10.400069618819993"><ele>499.0</ele><time>2026-05-02T12:33:01.002Z</time></trkpt><trkpt lat="44.39506319465701" lon="10.399958368497478"><ele>499.0</ele><time>2026-05-02T12:33:02.002Z</time></trkpt><trkpt lat="44.3950372583618" lon="10.399797684026636"><ele>499.0</ele><time>2026-05-02T12:33:03.002Z</time></trkpt><trkpt lat="44.39499061651458" lon="10.39968027139412"><ele>499.0</ele><time>2026-05-02T12:33:04.002Z</time></trkpt><trkpt lat="44.3949215873162" lon="10.399601432507165"><ele>499.0</ele><time>2026-05-02T12:33:05.002Z</time></trkpt><trkpt lat="44.39482059393752" lon="10.399602368655264"><ele>499.0</ele><time>2026-05-02T12:33:06.002Z</time></trkpt><trkpt lat="44.394733702545096" lon="10.39968222384223"><ele>499.0</ele><time>2026-05-02T12:33:07.002Z</time></trkpt><trkpt lat="44.39467648042717" lon="10.399825215361044"><ele>499.0</ele><time>2026-05-02T12:33:08.002Z</time></trkpt><trkpt lat="44.39467213135296" lon="10.399996430696232"><ele>499.0</ele><time>2026-05-02T12:33:09.001Z</time></trkpt><trkpt lat="44.39471877769397" lon="10.400159409325433"><ele>499.0</ele><time>2026-05-02T12:33:10.001Z</time></trkpt><trkpt lat="44.39480693009936" lon="10.40029191879112"><ele>499.0</ele><time>2026-05-02T12:33:11.001Z</time></trkpt><trkpt lat="44.39493818864755" lon="10.400405334867518"><ele>499.0</ele><time>2026-05-02T12:33:12.001Z</time></trkpt><trkpt lat="44.39506873106454" lon="10.400512006433893"><ele>499.0</ele><time>2026-05-02T12:33:13.001Z</time></trkpt><trkpt lat="44.395170084282334" lon="10.400641977626671"><ele>499.0</ele><time>2026-05-02T12:33:14.001Z</time></trkpt><trkpt lat="44.39524690008917" lon="10.400721085545557"><ele>495.75</ele><time>2026-05-02T12:33:15.001Z</time></trkpt><trkpt lat="44.39530606062651" lon="10.400772109655172"><ele>492.5</ele><time>2026-05-02T12:33:16.001Z</time></trkpt><trkpt lat="44.39540692007301" lon="10.4009796719964"><ele>489.25</ele><time>2026-05-02T12:33:17.001Z</time></trkpt><trkpt lat="44.39539836906314" lon="10.401127907607172"><ele>486.0</ele><time>2026-05-02T12:33:18.001Z</time></trkpt><trkpt lat="44.395359441601634" lon="10.401263911980061"><ele>487.75</ele><time>2026-05-02T12:33:19.001Z</time></trkpt><trkpt lat="44.39529438205675" lon="10.401367245801904"><ele>489.5</ele><time>2026-05-02T12:33:20.001Z</time></trkpt><trkpt lat="44.39520249896394" lon="10.401413193935497"><ele>491.25</ele><time>2026-05-02T12:33:21.001Z</time></trkpt><trkpt lat="44.395077110184566" lon="10.401470646996438"><ele>493.0</ele><time>2026-05-02T12:33:22.001Z</time></trkpt><trkpt lat="44.3949330869963" lon="10.401535239391622"><ele>493.0</ele><time>2026-05-02T12:33:23.001Z</time></trkpt><trkpt lat="44.39479439259069" lon="10.401593031469229"><ele>493.0</ele><time>2026-05-02T12:33:24.001Z</time></trkpt><trkpt lat="44.394656444287236" lon="10.401616356403515"><ele>493.0</ele><time>2026-05-02T12:33:25.001Z</time></trkpt><trkpt lat="44.3945041983174" lon="10.401593256112406"><ele>493.0</ele><time>2026-05-02T12:33:26.001Z</time></trkpt><trkpt lat="44.39434232821913" lon="10.401546794900863"><ele>487.0</ele><time>2026-05-02T12:33:27.001Z</time></trkpt><trkpt lat="44.394172016692856" lon="10.40149694047213"><ele>481.0</ele><time>2026-05-02T12:33:28.001Z</time></trkpt><trkpt lat="44.39401169092267" lon="10.401444136115803"><ele>475.0</ele><time>2026-05-02T12:33:29.001Z</time></trkpt><trkpt lat="44.39386777629897" lon="10.401381764321279"><ele>470.75</ele><time>2026-05-02T12:33:30.001Z</time></trkpt><trkpt lat="44.393753591027334" lon="10.401320866876373"><ele>466.5</ele><time>2026-05-02T12:33:31.001Z</time></trkpt><trkpt lat="44.39365381957075" lon="10.401278083292741"><ele>462.25</ele><time>2026-05-02T12:33:32.001Z</time></trkpt><trkpt lat="44.393539302821736" lon="10.401252172021714"><ele>458.0</ele><time>2026-05-02T12:33:33.001Z</time></trkpt><trkpt lat="44.393428617477" lon="10.40131241876762"><ele>458.5</ele><time>2026-05-02T12:33:34.001Z</time></trkpt><trkpt lat="44.39333445522977" lon="10.401434242174506"><ele>459.0</ele><time>2026-05-02T12:33:35.001Z</time></trkpt><trkpt lat="44.39327410132067" lon="10.401579840881132"><ele>459.5</ele><time>2026-05-02T12:33:36.001Z</time></trkpt><trkpt lat="44.393245377085165" lon="10.401717486944952"><ele>460.0</ele><time>2026-05-02T12:33:37.001Z</time></trkpt><trkpt lat="44.39326976650552" lon="10.401856910820365"><ele>460.0</ele><time>2026-05-02T12:33:38.001Z</time></trkpt><trkpt lat="44.3933441484771" lon="10.401997881146308"><ele>460.0</ele><time>2026-05-02T12:33:39.001Z</time></trkpt><trkpt lat="44.39345414124017" lon="10.402091032228777"><ele>460.0</ele><time>2026-05-02T12:33:40.001Z</time></trkpt><trkpt lat="44.393571532766586" lon="10.40215484150517"><ele>460.0</ele><time>2026-05-02T12:33:41.001Z</time></trkpt><trkpt lat="44.39367412142447" lon="10.402221067834633"><ele>461.2</ele><time>2026-05-02T12:33:42.001Z</time></trkpt><trkpt lat="44.39373809756713" lon="10.402308227580875"><ele>462.4</ele><time>2026-05-02T12:33:43.001Z</time></trkpt><trkpt lat="44.39374879085502" lon="10.402428484670219"><ele>463.6</ele><time>2026-05-02T12:33:44.001Z</time></trkpt><trkpt lat="44.39369954317246" lon="10.402524302483805"><ele>464.8</ele><time>2026-05-02T12:33:45.001Z</time></trkpt><trkpt lat="44.39361442932077" lon="10.402582139950768"><ele>466.0</ele><time>2026-05-02T12:33:46.001Z</time></trkpt><trkpt lat="44.39348361888875" lon="10.402556528046803"><ele>466.0</ele><time>2026-05-02T12:33:47.001Z</time></trkpt><trkpt lat="44.39334550600325" lon="10.402625010724572"><ele>466.0</ele><time>2026-05-02T12:33:48.001Z</time></trkpt><trkpt lat="44.39318560780577" lon="10.402699398478251"><ele>466.0</ele><time>2026-05-02T12:33:49.001Z</time></trkpt><trkpt lat="44.393028863527846" lon="10.402808241080558"><ele>464.6666666666667</ele><time>2026-05-02T12:33:50.001Z</time></trkpt><trkpt lat="44.39285935484287" lon="10.402914683706534"><ele>463.33333333333337</ele><time>2026-05-02T12:33:51.001Z</time></trkpt><trkpt lat="44.39268936161734" lon="10.403055795427004"><ele>462.0</ele><time>2026-05-02T12:33:52.001Z</time></trkpt><trkpt lat="44.392532172349654" lon="10.403216513938048"><ele>462.0</ele><time>2026-05-02T12:33:53.001Z</time></trkpt><trkpt lat="44.39235751709509" lon="10.403380816151067"><ele>462.0</ele><time>2026-05-02T12:33:54.001Z</time></trkpt><trkpt lat="44.39217373640279" lon="10.403527586326883"><ele>462.0</ele><time>2026-05-02T12:33:55Z</time></trkpt><trkpt lat="44.392007002169166" lon="10.403707579820496"><ele>460.0</ele><time>2026-05-02T12:33:56Z</time></trkpt><trkpt lat="44.39183732541789" lon="10.403858060702698"><ele>458.0</ele><time>2026-05-02T12:33:57Z</time></trkpt><trkpt lat="44.39166442751949" lon="10.404013324685003"><ele>456.0</ele><time>2026-05-02T12:33:58Z</time></trkpt><trkpt lat="44.391494657888025" lon="10.404169189496603"><ele>453.33333333333337</ele><time>2026-05-02T12:33:59Z</time></trkpt><trkpt lat="44.39132664433099" lon="10.404315580884425"><ele>450.6666666666667</ele><time>2026-05-02T12:34:00Z</time></trkpt><trkpt lat="44.3911519267195" lon="10.40440926908591"><ele>448.0</ele><time>2026-05-02T12:34:01Z</time></trkpt><trkpt lat="44.390994786921645" lon="10.40454457648256"><ele>447.33333333333337</ele><time>2026-05-02T12:34:02Z</time></trkpt><trkpt lat="44.39083045570968" lon="10.404694893142477"><ele>446.66666666666663</ele><time>2026-05-02T12:34:03Z</time></trkpt><trkpt lat="44.390653801817145" lon="10.404856481588403"><ele>446.0</ele><time>2026-05-02T12:34:04Z</time></trkpt><trkpt lat="44.390472208900235" lon="10.405022587938982"><ele>446.0</ele><time>2026-05-02T12:34:05Z</time></trkpt><trkpt lat="44.39030235758182" lon="10.405182847617324"><ele>446.0</ele><time>2026-05-02T12:34:06Z</time></trkpt><trkpt lat="44.39011852527612" lon="10.405356177759842"><ele>446.0</ele><time>2026-05-02T12:34:07Z</time></trkpt><trkpt lat="44.389961534670924" lon="10.405500977713352"><ele>445.66666666666663</ele><time>2026-05-02T12:34:08Z</time></trkpt><trkpt lat="44.38980585004186" lon="10.405643135277808"><ele>445.33333333333337</ele><time>2026-05-02T12:34:09Z</time></trkpt><trkpt lat="44.38966441399939" lon="10.405772222940561"><ele>445.0</ele><time>2026-05-02T12:34:10Z</time></trkpt><trkpt lat="44.38954304032442" lon="10.4059387090982"><ele>445.0</ele><time>2026-05-02T12:34:11Z</time></trkpt><trkpt lat="44.389420386845096" lon="10.406053925691934"><ele>445.0</ele><time>2026-05-02T12:34:12Z</time></trkpt><trkpt lat="44.38929259876761" lon="10.406154332925654"><ele>445.0</ele><time>2026-05-02T12:34:13Z</time></trkpt><trkpt lat="44.389163887088785" lon="10.406315931080332"><ele>446.33333333333337</ele><time>2026-05-02T12:34:14Z</time></trkpt><trkpt lat="44.38899163042406" lon="10.406388237571665"><ele>447.66666666666663</ele><time>2026-05-02T12:34:15Z</time></trkpt><trkpt lat="44.38878213322337" lon="10.406332791655458"><ele>449.0</ele><time>2026-05-02T12:34:16Z</time></trkpt><trkpt lat="44.388580894661736" lon="10.4063420537793"><ele>445.3333333333333</ele><time>2026-05-02T12:34:17Z</time></trkpt><trkpt lat="44.38837072759707" lon="10.406322611900027"><ele>441.66666666666663</ele><time>2026-05-02T12:34:18Z</time></trkpt><trkpt lat="44.388160765843224" lon="10.406281992049529"><ele>438.0</ele><time>2026-05-02T12:34:19Z</time></trkpt><trkpt lat="44.38794456901936" lon="10.406235906955027"><ele>437.66666666666663</ele><time>2026-05-02T12:34:20Z</time></trkpt><trkpt lat="44.38772924674383" lon="10.406200314155475"><ele>437.3333333333333</ele><time>2026-05-02T12:34:21Z</time></trkpt><trkpt lat="44.38751704196725" lon="10.406171763507162"><ele>437.0</ele><time>2026-05-02T12:34:22Z</time></trkpt><trkpt lat="44.387314775538705" lon="10.406116523248212"><ele>437.0</ele><time>2026-05-02T12:34:23Z</time></trkpt><trkpt lat="44.387111460027185" lon="10.406079579759204"><ele>437.0</ele><time>2026-05-02T12:34:24Z</time></trkpt><trkpt lat="44.38690922269115" lon="10.40606588595459"><ele>437.0</ele><time>2026-05-02T12:34:25Z</time></trkpt><trkpt lat="44.38670631986187" lon="10.406030138290376"><ele>437.0</ele><time>2026-05-02T12:34:26Z</time></trkpt><trkpt lat="44.38650291901436" lon="10.40599669706574"><ele>437.0</ele><time>2026-05-02T12:34:27Z</time></trkpt><trkpt lat="44.38630004516484" lon="10.405958648965576"><ele>437.0</ele><time>2026-05-02T12:34:28Z</time></trkpt><trkpt lat="44.38610207116263" lon="10.405923182351845"><ele>436.66666666666663</ele><time>2026-05-02T12:34:29Z</time></trkpt><trkpt lat="44.38591805044347" lon="10.405893724463452"><ele>436.33333333333337</ele><time>2026-05-02T12:34:30Z</time></trkpt><trkpt lat="44.385738200375286" lon="10.405866056988334"><ele>436.0</ele><time>2026-05-02T12:34:31Z</time></trkpt><trkpt lat="44.385568188083006" lon="10.405838353166155"><ele>438.25</ele><time>2026-05-02T12:34:32Z</time></trkpt><trkpt lat="44.38541684020291" lon="10.405809799243357"><ele>440.5</ele><time>2026-05-02T12:34:33Z</time></trkpt><trkpt lat="44.38528600137223" lon="10.40574159837215"><ele>442.75</ele><time>2026-05-02T12:34:34Z</time></trkpt><trkpt lat="44.38515893275376" lon="10.405666118740013"><ele>445.0</ele><time>2026-05-02T12:34:35Z</time></trkpt><trkpt lat="44.38506185579106" lon="10.405519838508416"><ele>446.0</ele><time>2026-05-02T12:34:36Z</time></trkpt><trkpt lat="44.38499425120661" lon="10.405341013290538"><ele>447.0</ele><time>2026-05-02T12:34:37Z</time></trkpt><trkpt lat="44.38498653290556" lon="10.405144920977282"><ele>448.0</ele><time>2026-05-02T12:34:38Z</time></trkpt><trkpt lat="44.38500810714203" lon="10.404932769008534"><ele>449.0</ele><time>2026-05-02T12:34:39Z</time></trkpt><trkpt lat="44.385016529952885" lon="10.404686890022704"><ele>450.66666666666663</ele><time>2026-05-02T12:34:40Z</time></trkpt><trkpt lat="44.38505270657829" lon="10.404429505729896"><ele>452.33333333333337</ele><time>2026-05-02T12:34:41Z</time></trkpt><trkpt lat="44.38508162420542" lon="10.404154071390648"><ele>454.0</ele><time>2026-05-02T12:34:42Z</time></trkpt><trkpt lat="44.38510844261491" lon="10.40387134537107"><ele>454.6666666666667</ele><time>2026-05-02T12:34:43Z</time></trkpt><trkpt lat="44.38512958565195" lon="10.403590460517744"><ele>455.33333333333337</ele><time>2026-05-02T12:34:44Z</time></trkpt><trkpt lat="44.385142143503714" lon="10.403299833621858"><ele>456.0</ele><time>2026-05-02T12:34:45Z</time></trkpt><trkpt lat="44.38514597880505" lon="10.402996556126608"><ele>457.0</ele><time>2026-05-02T12:34:46Z</time></trkpt><trkpt lat="44.38514850619997" lon="10.402678787005986"><ele>458.0</ele><time>2026-05-02T12:34:47Z</time></trkpt><trkpt lat="44.38515887831102" lon="10.402358785157066"><ele>458.5</ele><time>2026-05-02T12:34:48Z</time></trkpt><trkpt lat="44.38516945896545" lon="10.402036934278376"><ele>459.0</ele><time>2026-05-02T12:34:49Z</time></trkpt><trkpt lat="44.38518083499011" lon="10.40170886911101"><ele>459.0</ele><time>2026-05-02T12:34:50Z</time></trkpt><trkpt lat="44.38519215762855" lon="10.401378556389218"><ele>459.0</ele><time>2026-05-02T12:34:51Z</time></trkpt><trkpt lat="44.385203269945045" lon="10.401051403582647"><ele>459.5</ele><time>2026-05-02T12:34:52Z</time></trkpt><trkpt lat="44.38521254932351" lon="10.400723088539603"><ele>460.0</ele><time>2026-05-02T12:34:53Z</time></trkpt><trkpt lat="44.38522085782224" lon="10.40040319942077"><ele>460.33333333333337</ele><time>2026-05-02T12:34:54Z</time></trkpt><trkpt lat="44.38523094384419" lon="10.400088185161579"><ele>460.66666666666663</ele><time>2026-05-02T12:34:55Z</time></trkpt><trkpt lat="44.385239121034076" lon="10.399779712018162"><ele>461.0</ele><time>2026-05-02T12:34:56Z</time></trkpt><trkpt lat="44.385248147264754" lon="10.399483912708247"><ele>461.0</ele><time>2026-05-02T12:34:57Z</time></trkpt><trkpt lat="44.38526023525458" lon="10.399207776981829"><ele>461.0</ele><time>2026-05-02T12:34:58Z</time></trkpt><trkpt lat="44.38526581066188" lon="10.39895244876063"><ele>461.0</ele><time>2026-05-02T12:34:59Z</time></trkpt><trkpt lat="44.38525563686493" lon="10.398724005316508"><ele>459.25</ele><time>2026-05-02T12:35:00Z</time></trkpt><trkpt lat="44.38522315079671" lon="10.398529796728138"><ele>457.5</ele><time>2026-05-02T12:35:01Z</time></trkpt><trkpt lat="44.385144668869216" lon="10.398372490014365"><ele>455.75</ele><time>2026-05-02T12:35:02Z</time></trkpt><trkpt lat="44.38502421649957" lon="10.398239779994572"><ele>454.0</ele><time>2026-05-02T12:35:03Z</time></trkpt><trkpt lat="44.3848625956834" lon="10.39813190486956"><ele>455.0</ele><time>2026-05-02T12:35:04.001Z</time></trkpt><trkpt lat="44.384677451316705" lon="10.39804959809971"><ele>456.0</ele><time>2026-05-02T12:35:05.001Z</time></trkpt><trkpt lat="44.38449205457795" lon="10.397960505682402"><ele>457.0</ele><time>2026-05-02T12:35:06.001Z</time></trkpt><trkpt lat="44.384297243283456" lon="10.397857095761179"><ele>457.0</ele><time>2026-05-02T12:35:07.001Z</time></trkpt><trkpt lat="44.38409757660654" lon="10.397738340695224"><ele>457.0</ele><time>2026-05-02T12:35:08.001Z</time></trkpt><trkpt lat="44.383889523065925" lon="10.39761459609726"><ele>457.0</ele><time>2026-05-02T12:35:09.001Z</time></trkpt><trkpt lat="44.38367265494533" lon="10.397490224736718"><ele>460.0</ele><time>2026-05-02T12:35:10.001Z</time></trkpt><trkpt lat="44.383450234348295" lon="10.397365590113795"><ele>463.0</ele><time>2026-05-02T12:35:11.001Z</time></trkpt><trkpt lat="44.38323007675974" lon="10.397236048873433"><ele>462.0</ele><time>2026-05-02T12:35:12.001Z</time></trkpt><trkpt lat="44.38300546239339" lon="10.397108652808177"><ele>461.0</ele><time>2026-05-02T12:35:13.001Z</time></trkpt><trkpt lat="44.38277618549409" lon="10.396978510719695"><ele>461.0</ele><time>2026-05-02T12:35:14.001Z</time></trkpt><trkpt lat="44.3825480723688" lon="10.396846749663837"><ele>461.0</ele><time>2026-05-02T12:35:15.001Z</time></trkpt><trkpt lat="44.38231870756908" lon="10.39671617630975"><ele>466.5</ele><time>2026-05-02T12:35:16.001Z</time></trkpt><trkpt lat="44.382082378900215" lon="10.39658062246519"><ele>472.0</ele><time>2026-05-02T12:35:17.001Z</time></trkpt><trkpt lat="44.38184761998996" lon="10.396448028102785"><ele>468.0</ele><time>2026-05-02T12:35:18.001Z</time></trkpt><trkpt lat="44.3816137096539" lon="10.396318147137638"><ele>464.0</ele><time>2026-05-02T12:35:19.001Z</time></trkpt><trkpt lat="44.38137953811032" lon="10.396186986810777"><ele>468.5</ele><time>2026-05-02T12:35:20.001Z</time></trkpt><trkpt lat="44.381145037521506" lon="10.39605418264498"><ele>473.0</ele><time>2026-05-02T12:35:21.001Z</time></trkpt><trkpt lat="44.380910060217076" lon="10.395922237883306"><ele>473.0</ele><time>2026-05-02T12:35:22.001Z</time></trkpt><trkpt lat="44.38068156224309" lon="10.395792024162454"><ele>473.0</ele><time>2026-05-02T12:35:23.001Z</time></trkpt><trkpt lat="44.380454317289434" lon="10.395656747274195"><ele>474.0</ele><time>2026-05-02T12:35:24.001Z</time></trkpt><trkpt lat="44.38023953671279" lon="10.395496605109413"><ele>475.0</ele><time>2026-05-02T12:35:25.001Z</time></trkpt><trkpt lat="44.380052774388425" lon="10.395327043257712"><ele>475.0</ele><time>2026-05-02T12:35:26.001Z</time></trkpt><trkpt lat="44.37987747968502" lon="10.395151835254097"><ele>475.0</ele><time>2026-05-02T12:35:27.001Z</time></trkpt><trkpt lat="44.379711742940174" lon="10.394984610025311"><ele>475.0</ele><time>2026-05-02T12:35:28.001Z</time></trkpt><trkpt lat="44.37956380409516" lon="10.394845782603248"><ele>475.25</ele><time>2026-05-02T12:35:29.001Z</time></trkpt><trkpt lat="44.379441316250634" lon="10.3947329113522"><ele>475.5</ele><time>2026-05-02T12:35:30.001Z</time></trkpt><trkpt lat="44.379355946345534" lon="10.394617469132971"><ele>475.75</ele><time>2026-05-02T12:35:31.001Z</time></trkpt><trkpt lat="44.379302020231115" lon="10.394446818833716"><ele>476.0</ele><time>2026-05-02T12:35:32.001Z</time></trkpt><trkpt lat="44.3792830955442" lon="10.394240069522276"><ele>476.0</ele><time>2026-05-02T12:35:33.001Z</time></trkpt><trkpt lat="44.37927673585547" lon="10.394017264055828"><ele>476.0</ele><time>2026-05-02T12:35:34.001Z</time></trkpt><trkpt lat="44.379266363464396" lon="10.393780042306405"><ele>476.0</ele><time>2026-05-02T12:35:35Z</time></trkpt><trkpt lat="44.37924390708357" lon="10.393554667293428"><ele>476.5</ele><time>2026-05-02T12:35:36Z</time></trkpt><trkpt lat="44.37921450190144" lon="10.393370266006704"><ele>477.0</ele><time>2026-05-02T12:35:37Z</time></trkpt><trkpt lat="44.37915984620442" lon="10.393217060504135"><ele>477.5</ele><time>2026-05-02T12:35:38Z</time></trkpt><trkpt lat="44.3790593797373" lon="10.393094020479328"><ele>478.0</ele><time>2026-05-02T12:35:39Z</time></trkpt><trkpt lat="44.37890852182285" lon="10.392990913908868"><ele>480.0</ele><time>2026-05-02T12:35:40Z</time></trkpt><trkpt lat="44.37874037572541" lon="10.392891256166898"><ele>482.0</ele><time>2026-05-02T12:35:41Z</time></trkpt><trkpt lat="44.37857214348393" lon="10.392761103066682"><ele>484.0</ele><time>2026-05-02T12:35:42Z</time></trkpt><trkpt lat="44.37839689315923" lon="10.392618621338885"><ele>484.0</ele><time>2026-05-02T12:35:43Z</time></trkpt><trkpt lat="44.37820496165848" lon="10.392465858254917"><ele>484.0</ele><time>2026-05-02T12:35:44Z</time></trkpt><trkpt lat="44.377999905145984" lon="10.39230281428951"><ele>491.0</ele><time>2026-05-02T12:35:45Z</time></trkpt><trkpt lat="44.37778941613544" lon="10.392132139096937"><ele>498.0</ele><time>2026-05-02T12:35:46Z</time></trkpt><trkpt lat="44.37757802348371" lon="10.391965893152657"><ele>498.0</ele><time>2026-05-02T12:35:47Z</time></trkpt><trkpt lat="44.37735908242891" lon="10.39179551721677"><ele>498.0</ele><time>2026-05-02T12:35:48Z</time></trkpt><trkpt lat="44.377137310199885" lon="10.391619114493968"><ele>501.0</ele><time>2026-05-02T12:35:49Z</time></trkpt><trkpt lat="44.37691747765298" lon="10.391442110680659"><ele>504.0</ele><time>2026-05-02T12:35:50Z</time></trkpt><trkpt lat="44.37669268917572" lon="10.391260063600948"><ele>504.0</ele><time>2026-05-02T12:35:51Z</time></trkpt><trkpt lat="44.37646163699807" lon="10.391077478423481"><ele>504.0</ele><time>2026-05-02T12:35:52Z</time></trkpt><trkpt lat="44.37623266410476" lon="10.390902167157806"><ele>500.0</ele><time>2026-05-02T12:35:53Z</time></trkpt><trkpt lat="44.376003447414995" lon="10.39072472665884"><ele>496.0</ele><time>2026-05-02T12:35:54Z</time></trkpt><trkpt lat="44.37577272920332" lon="10.390542459321715"><ele>498.0</ele><time>2026-05-02T12:35:55Z</time></trkpt><trkpt lat="44.37554266082145" lon="10.390354601923164"><ele>500.0</ele><time>2026-05-02T12:35:56Z</time></trkpt><trkpt lat="44.37530830761757" lon="10.390168537048893"><ele>500.0</ele><time>2026-05-02T12:35:57Z</time></trkpt><trkpt lat="44.37506833527068" lon="10.389983651823774"><ele>500.0</ele><time>2026-05-02T12:35:58Z</time></trkpt><trkpt lat="44.37482643087458" lon="10.389794739063346"><ele>503.0</ele><time>2026-05-02T12:35:59Z</time></trkpt><trkpt lat="44.37458339874283" lon="10.38960269989696"><ele>506.0</ele><time>2026-05-02T12:36:00Z</time></trkpt><trkpt lat="44.37434028976276" lon="10.389409065301843"><ele>506.0</ele><time>2026-05-02T12:36:01Z</time></trkpt><trkpt lat="44.37410597575979" lon="10.389221809020379"><ele>506.0</ele><time>2026-05-02T12:36:02Z</time></trkpt><trkpt lat="44.37387005925042" lon="10.389029095284178"><ele>510.0</ele><time>2026-05-02T12:36:03Z</time></trkpt><trkpt lat="44.37364077416567" lon="10.388841975924958"><ele>514.0</ele><time>2026-05-02T12:36:04Z</time></trkpt><trkpt lat="44.37342032745568" lon="10.38867092370524"><ele>514.0</ele><time>2026-05-02T12:36:05Z</time></trkpt><trkpt lat="44.37321617368837" lon="10.388510395202884"><ele>514.0</ele><time>2026-05-02T12:36:06Z</time></trkpt><trkpt lat="44.37302851798658" lon="10.388359016184381"><ele>514.3333333333334</ele><time>2026-05-02T12:36:07Z</time></trkpt><trkpt lat="44.37285363066549" lon="10.388218002628232"><ele>514.6666666666666</ele><time>2026-05-02T12:36:08Z</time></trkpt><trkpt lat="44.37269592977954" lon="10.388073113235285"><ele>515.0</ele><time>2026-05-02T12:36:09Z</time></trkpt><trkpt lat="44.37256384894263" lon="10.387907919033335"><ele>520.3333333333333</ele><time>2026-05-02T12:36:10Z</time></trkpt><trkpt lat="44.37246367699175" lon="10.38770842182322"><ele>525.6666666666666</ele><time>2026-05-02T12:36:11Z</time></trkpt><trkpt lat="44.372369176868446" lon="10.387500670548569"><ele>531.0</ele><time>2026-05-02T12:36:12Z</time></trkpt><trkpt lat="44.37226189081236" lon="10.387330331934864"><ele>530.0</ele><time>2026-05-02T12:36:13Z</time></trkpt><trkpt lat="44.372117357372026" lon="10.387202632880312"><ele>529.0</ele><time>2026-05-02T12:36:14Z</time></trkpt><trkpt lat="44.37196841301212" lon="10.387097541650412"><ele>528.0</ele><time>2026-05-02T12:36:15Z</time></trkpt><trkpt lat="44.37183666563878" lon="10.387014072157811"><ele>528.8</ele><time>2026-05-02T12:36:16Z</time></trkpt><trkpt lat="44.37172713553239" lon="10.386974680613777"><ele>529.5999999999999</ele><time>2026-05-02T12:36:17Z</time></trkpt><trkpt lat="44.371615107882384" lon="10.386967158016128"><ele>530.4000000000001</ele><time>2026-05-02T12:36:18Z</time></trkpt><trkpt lat="44.37150727072786" lon="10.387017277536861"><ele>531.2</ele><time>2026-05-02T12:36:19Z</time></trkpt><trkpt lat="44.371417355617005" lon="10.387106891113405"><ele>532.0</ele><time>2026-05-02T12:36:20Z</time></trkpt><trkpt lat="44.37132876316908" lon="10.387206087299628"><ele>532.0</ele><time>2026-05-02T12:36:21Z</time></trkpt><trkpt lat="44.37120893756117" lon="10.387270165387363"><ele>532.0</ele><time>2026-05-02T12:36:22Z</time></trkpt><trkpt lat="44.371078406890376" lon="10.387274184448449"><ele>532.0</ele><time>2026-05-02T12:36:23Z</time></trkpt><trkpt lat="44.37092931483561" lon="10.387239639905983"><ele>532.0</ele><time>2026-05-02T12:36:24Z</time></trkpt><trkpt lat="44.370767585754884" lon="10.387176924991165"><ele>537.0</ele><time>2026-05-02T12:36:25Z</time></trkpt><trkpt lat="44.37059324507776" lon="10.387128018901784"><ele>542.0</ele><time>2026-05-02T12:36:26Z</time></trkpt><trkpt lat="44.37041478942377" lon="10.387081495758489"><ele>547.0</ele><time>2026-05-02T12:36:27Z</time></trkpt><trkpt lat="44.370240471539006" lon="10.38702932422441"><ele>547.0</ele><time>2026-05-02T12:36:28Z</time></trkpt><trkpt lat="44.37007769681776" lon="10.38698420859179"><ele>547.0</ele><time>2026-05-02T12:36:29Z</time></trkpt><trkpt lat="44.369940077805516" lon="10.386948160670038"><ele>547.0</ele><time>2026-05-02T12:36:30Z</time></trkpt><trkpt lat="44.36984378164897" lon="10.386901684865046"><ele>547.0</ele><time>2026-05-02T12:36:31Z</time></trkpt><trkpt lat="44.36978438493054" lon="10.386845506787612"><ele>547.0</ele><time>2026-05-02T12:36:32Z</time></trkpt><trkpt lat="44.36972772439309" lon="10.386737650933693"><ele>547.0</ele><time>2026-05-02T12:36:33Z</time></trkpt><trkpt lat="44.36978855520187" lon="10.386546044294116"><ele>547.0</ele><time>2026-05-02T12:36:34Z</time></trkpt><trkpt lat="44.36997542388316" lon="10.38651476976661"><ele>547.0</ele><time>2026-05-02T12:36:35Z</time></trkpt><trkpt lat="44.370116022728986" lon="10.386477432042028"><ele>547.0</ele><time>2026-05-02T12:36:36Z</time></trkpt><trkpt lat="44.36986845508489" lon="10.386537877255915"><ele>547.0</ele><time>2026-05-02T12:36:37Z</time></trkpt><trkpt lat="44.36999709789416" lon="10.386505999725966"><ele>547.0</ele><time>2026-05-02T12:36:38Z</time></trkpt><trkpt lat="44.370140524351875" lon="10.386471669136986"><ele>547.0</ele><time>2026-05-02T12:36:39Z</time></trkpt><trkpt lat="44.37029885519984" lon="10.386434429395182"><ele>547.0</ele><time>2026-05-02T12:36:40Z</time></trkpt><trkpt lat="44.37043963499716" lon="10.386399594116616"><ele>547.0</ele><time>2026-05-02T12:36:41Z</time></trkpt><trkpt lat="44.37056255876893" lon="10.386357335539037"><ele>547.0</ele><time>2026-05-02T12:36:42Z</time></trkpt><trkpt lat="44.37067266260971" lon="10.386329096524207"><ele>551.6</ele><time>2026-05-02T12:36:43Z</time></trkpt><trkpt lat="44.37076525819658" lon="10.386289157208019"><ele>556.2</ele><time>2026-05-02T12:36:44Z</time></trkpt><trkpt lat="44.3708355308895" lon="10.386217547813857"><ele>560.8</ele><time>2026-05-02T12:36:45Z</time></trkpt><trkpt lat="44.37085935791693" lon="10.386097926774669"><ele>565.4</ele><time>2026-05-02T12:36:46Z</time></trkpt><trkpt lat="44.370825483500305" lon="10.38598557273678"><ele>570.0</ele><time>2026-05-02T12:36:47Z</time></trkpt><trkpt lat="44.37074708016473" lon="10.385901637845917"><ele>570.0</ele><time>2026-05-02T12:36:48Z</time></trkpt><trkpt lat="44.37064290240525" lon="10.385876345452504"><ele>570.0</ele><time>2026-05-02T12:36:49Z</time></trkpt><trkpt lat="44.37053427653945" lon="10.385908472722345"><ele>570.0</ele><time>2026-05-02T12:36:50Z</time></trkpt><trkpt lat="44.37042083226116" lon="10.385958733537874"><ele>570.0</ele><time>2026-05-02T12:36:51Z</time></trkpt><trkpt lat="44.37030578298107" lon="10.38599493351478"><ele>567.5</ele><time>2026-05-02T12:36:52Z</time></trkpt><trkpt lat="44.37017099144329" lon="10.386011286469097"><ele>565.0</ele><time>2026-05-02T12:36:53Z</time></trkpt><trkpt lat="44.370033299411155" lon="10.385980992782201"><ele>562.5</ele><time>2026-05-02T12:36:54Z</time></trkpt><trkpt lat="44.36992131893015" lon="10.385859022495284"><ele>560.0</ele><time>2026-05-02T12:36:55Z</time></trkpt><trkpt lat="44.36983447860879" lon="10.385720354283139"><ele>560.0</ele><time>2026-05-02T12:36:56Z</time></trkpt><trkpt lat="44.36978595446359" lon="10.38554685966948"><ele>560.0</ele><time>2026-05-02T12:36:57Z</time></trkpt><trkpt lat="44.369753051588795" lon="10.385341738383485"><ele>560.0</ele><time>2026-05-02T12:36:58Z</time></trkpt><trkpt lat="44.369720193906026" lon="10.385110774488137"><ele>561.75</ele><time>2026-05-02T12:36:59Z</time></trkpt><trkpt lat="44.369683469336216" lon="10.38490965856517"><ele>563.5</ele><time>2026-05-02T12:37:00Z</time></trkpt><trkpt lat="44.369655925587594" lon="10.384736225739028"><ele>565.25</ele><time>2026-05-02T12:37:01Z</time></trkpt><trkpt lat="44.36960872111603" lon="10.384585127474937"><ele>567.0</ele><time>2026-05-02T12:37:02Z</time></trkpt><trkpt lat="44.36953160546044" lon="10.38449001028219"><ele>571.25</ele><time>2026-05-02T12:37:03Z</time></trkpt><trkpt lat="44.36942340879505" lon="10.384448545262533"><ele>575.5</ele><time>2026-05-02T12:37:04Z</time></trkpt><trkpt lat="44.369291202731816" lon="10.384452512476699"><ele>579.75</ele><time>2026-05-02T12:37:05Z</time></trkpt><trkpt lat="44.369150898572975" lon="10.384482561511001"><ele>584.0</ele><time>2026-05-02T12:37:06Z</time></trkpt><trkpt lat="44.36899325872036" lon="10.384508485674996"><ele>584.0</ele><time>2026-05-02T12:37:07Z</time></trkpt><trkpt lat="44.36883669761816" lon="10.384523311009733"><ele>584.0</ele><time>2026-05-02T12:37:08Z</time></trkpt><trkpt lat="44.368686623200325" lon="10.384535771170933"><ele>584.0</ele><time>2026-05-02T12:37:09Z</time></trkpt><trkpt lat="44.3685492066591" lon="10.384512964837532"><ele>584.0</ele><time>2026-05-02T12:37:10.001Z</time></trkpt><trkpt lat="44.36843098278181" lon="10.384407683646922"><ele>584.0</ele><time>2026-05-02T12:37:11.001Z</time></trkpt><trkpt lat="44.36834918462359" lon="10.384299139986869"><ele>584.0</ele><time>2026-05-02T12:37:12.001Z</time></trkpt><trkpt lat="44.36825007981947" lon="10.3841853871144"><ele>584.0</ele><time>2026-05-02T12:37:13.001Z</time></trkpt><trkpt lat="44.36812272064657" lon="10.384079607162626"><ele>584.0</ele><time>2026-05-02T12:37:14.001Z</time></trkpt><trkpt lat="44.367868098448675" lon="10.383953169716575"><ele>585.1666666666666</ele><time>2026-05-02T12:37:15.001Z</time></trkpt><trkpt lat="44.36778589297269" lon="10.38383620705223"><ele>586.3333333333333</ele><time>2026-05-02T12:37:16.001Z</time></trkpt><trkpt lat="44.367730907504786" lon="10.383774616011985"><ele>587.5</ele><time>2026-05-02T12:37:17.001Z</time></trkpt><trkpt lat="44.36773764654115" lon="10.383679222196664"><ele>588.6666666666666</ele><time>2026-05-02T12:37:18.001Z</time></trkpt><trkpt lat="44.36781807814711" lon="10.383611304748024"><ele>589.8333333333334</ele><time>2026-05-02T12:37:19.001Z</time></trkpt><trkpt lat="44.3678914645556" lon="10.383617873069962"><ele>591.0</ele><time>2026-05-02T12:37:20.001Z</time></trkpt><trkpt lat="44.36795999897057" lon="10.383660760909939"><ele>592.25</ele><time>2026-05-02T12:37:21.001Z</time></trkpt><trkpt lat="44.36805784642526" lon="10.383707789044198"><ele>593.5</ele><time>2026-05-02T12:37:22.001Z</time></trkpt><trkpt lat="44.36816927786169" lon="10.38378439538731"><ele>594.75</ele><time>2026-05-02T12:37:23.001Z</time></trkpt><trkpt lat="44.36828596745497" lon="10.383866893837963"><ele>596.0</ele><time>2026-05-02T12:37:24.001Z</time></trkpt><trkpt lat="44.36841354988313" lon="10.383942046469775"><ele>596.0</ele><time>2026-05-02T12:37:25.001Z</time></trkpt><trkpt lat="44.368554479325276" lon="10.383953477111849"><ele>596.0</ele><time>2026-05-02T12:37:26.001Z</time></trkpt><trkpt lat="44.368697993576134" lon="10.38392192753839"><ele>596.0</ele><time>2026-05-02T12:37:27Z</time></trkpt><trkpt lat="44.36882078005642" lon="10.383869395292177"><ele>596.0</ele><time>2026-05-02T12:37:28Z</time></trkpt><trkpt lat="44.36893088641511" lon="10.383838559130133"><ele>596.0</ele><time>2026-05-02T12:37:29Z</time></trkpt><trkpt lat="44.369018106111234" lon="10.38380340177239"><ele>596.0</ele><time>2026-05-02T12:37:30Z</time></trkpt><trkpt lat="44.36908424323421" lon="10.383720811001961"><ele>596.0</ele><time>2026-05-02T12:37:31Z</time></trkpt><trkpt lat="44.3691148996656" lon="10.38361455432732"><ele>596.0</ele><time>2026-05-02T12:37:32Z</time></trkpt><trkpt lat="44.36908426609377" lon="10.383490237341658"><ele>596.0</ele><time>2026-05-02T12:37:33Z</time></trkpt><trkpt lat="44.36900940077011" lon="10.383378012115271"><ele>596.0</ele><time>2026-05-02T12:37:34Z</time></trkpt><trkpt lat="44.36888846873109" lon="10.383281180969195"><ele>596.0</ele><time>2026-05-02T12:37:35Z</time></trkpt><trkpt lat="44.3687549715136" lon="10.383188987607019"><ele>596.0</ele><time>2026-05-02T12:37:36Z</time></trkpt><trkpt lat="44.36861686364582" lon="10.38306845787632"><ele>600.6666666666666</ele><time>2026-05-02T12:37:37Z</time></trkpt><trkpt lat="44.3684874963391" lon="10.382951530768223"><ele>605.3333333333334</ele><time>2026-05-02T12:37:38Z</time></trkpt><trkpt lat="44.368357027890795" lon="10.382829214886923"><ele>610.0</ele><time>2026-05-02T12:37:39Z</time></trkpt><trkpt lat="44.36822580206918" lon="10.382709430920393"><ele>610.0</ele><time>2026-05-02T12:37:40Z</time></trkpt><trkpt lat="44.36809694793746" lon="10.382587020587424"><ele>610.0</ele><time>2026-05-02T12:37:41Z</time></trkpt><trkpt lat="44.36798030126245" lon="10.382451056215984"><ele>610.0</ele><time>2026-05-02T12:37:42Z</time></trkpt><trkpt lat="44.36786366495304" lon="10.382297286178016"><ele>611.3333333333334</ele><time>2026-05-02T12:37:43Z</time></trkpt><trkpt lat="44.367754764941836" lon="10.38213299592927"><ele>612.6666666666666</ele><time>2026-05-02T12:37:44Z</time></trkpt><trkpt lat="44.367646117450185" lon="10.381967308056229"><ele>614.0</ele><time>2026-05-02T12:37:45Z</time></trkpt><trkpt lat="44.36757426570038" lon="10.38176344681433"><ele>614.0</ele><time>2026-05-02T12:37:46Z</time></trkpt><trkpt lat="44.367515790389746" lon="10.381548593818067"><ele>614.0</ele><time>2026-05-02T12:37:47Z</time></trkpt><trkpt lat="44.36746506804126" lon="10.381335127306382"><ele>614.0</ele><time>2026-05-02T12:37:48Z</time></trkpt><trkpt lat="44.36744626020627" lon="10.381144621128964"><ele>615.25</ele><time>2026-05-02T12:37:49Z</time></trkpt><trkpt lat="44.36742283568227" lon="10.380964496098777"><ele>616.5</ele><time>2026-05-02T12:37:50Z</time></trkpt><trkpt lat="44.367375864473985" lon="10.380815751479942"><ele>617.75</ele><time>2026-05-02T12:37:51Z</time></trkpt><trkpt lat="44.36731263116145" lon="10.380696115508268"><ele>619.0</ele><time>2026-05-02T12:37:52Z</time></trkpt><trkpt lat="44.36720287323474" lon="10.380588909462846"><ele>619.8333333333334</ele><time>2026-05-02T12:37:53Z</time></trkpt><trkpt lat="44.3670952206837" lon="10.38049781154516"><ele>620.6666666666667</ele><time>2026-05-02T12:37:54Z</time></trkpt><trkpt lat="44.36703837055546" lon="10.3804134611839"><ele>621.5</ele><time>2026-05-02T12:37:55Z</time></trkpt><trkpt lat="44.367029264326845" lon="10.380321365316671"><ele>622.3333333333334</ele><time>2026-05-02T12:37:56Z</time></trkpt><trkpt lat="44.367071332777215" lon="10.380238489516172"><ele>623.1666666666666</ele><time>2026-05-02T12:37:57Z</time></trkpt><trkpt lat="44.367155391198395" lon="10.380189287672406"><ele>624.0</ele><time>2026-05-02T12:37:58Z</time></trkpt><trkpt lat="44.36727296167139" lon="10.380175420703809"><ele>625.0</ele><time>2026-05-02T12:37:59Z</time></trkpt><trkpt lat="44.367415519848066" lon="10.380173908575253"><ele>626.0</ele><time>2026-05-02T12:38:00Z</time></trkpt><trkpt lat="44.367554413122285" lon="10.380177986235323"><ele>627.0</ele><time>2026-05-02T12:38:01Z</time></trkpt><trkpt lat="44.36769405764378" lon="10.380179197118641"><ele>628.0</ele><time>2026-05-02T12:38:02Z</time></trkpt><trkpt lat="44.36785118286347" lon="10.380181453364605"><ele>628.0</ele><time>2026-05-02T12:38:03Z</time></trkpt><trkpt lat="44.368002856739736" lon="10.380176894384075"><ele>628.0</ele><time>2026-05-02T12:38:04Z</time></trkpt><trkpt lat="44.368139319357816" lon="10.38018137990876"><ele>628.0</ele><time>2026-05-02T12:38:05Z</time></trkpt><trkpt lat="44.36826009629157" lon="10.380244918029629"><ele>628.0</ele><time>2026-05-02T12:38:06Z</time></trkpt><trkpt lat="44.36835761923837" lon="10.380343689665686"><ele>628.0</ele><time>2026-05-02T12:38:07Z</time></trkpt><trkpt lat="44.3684118923478" lon="10.380487855567397"><ele>628.0</ele><time>2026-05-02T12:38:08Z</time></trkpt><trkpt lat="44.36847770076942" lon="10.380584943749021"><ele>628.0</ele><time>2026-05-02T12:38:09Z</time></trkpt><trkpt lat="44.36854276656345" lon="10.380636804375351"><ele>628.0</ele><time>2026-05-02T12:38:10Z</time></trkpt><trkpt lat="44.36862122658938" lon="10.380597892831194"><ele>628.0</ele><time>2026-05-02T12:38:11Z</time></trkpt><trkpt lat="44.36867417805295" lon="10.380487133695242"><ele>629.75</ele><time>2026-05-02T12:38:12Z</time></trkpt><trkpt lat="44.36868583366627" lon="10.38033815619759"><ele>631.5</ele><time>2026-05-02T12:38:13Z</time></trkpt><trkpt lat="44.36864684174106" lon="10.38016187419009"><ele>633.25</ele><time>2026-05-02T12:38:14Z</time></trkpt><trkpt lat="44.368588776680504" lon="10.379994590058402"><ele>635.0</ele><time>2026-05-02T12:38:15Z</time></trkpt><trkpt lat="44.36852031301135" lon="10.379846955357285"><ele>635.0</ele><time>2026-05-02T12:38:16Z</time></trkpt><trkpt lat="44.36841143767599" lon="10.379717436751013"><ele>635.0</ele><time>2026-05-02T12:38:17Z</time></trkpt><trkpt lat="44.36828642793676" lon="10.379591013796691"><ele>635.0</ele><time>2026-05-02T12:38:18Z</time></trkpt><trkpt lat="44.368214627420166" lon="10.37943024881617"><ele>635.0</ele><time>2026-05-02T12:38:19Z</time></trkpt><trkpt lat="44.36810919623406" lon="10.37930279433211"><ele>636.5</ele><time>2026-05-02T12:38:20Z</time></trkpt><trkpt lat="44.36797003490349" lon="10.37924715279801"><ele>638.0</ele><time>2026-05-02T12:38:21Z</time></trkpt><trkpt lat="44.36783161564715" lon="10.379192338328698"><ele>639.5</ele><time>2026-05-02T12:38:22Z</time></trkpt><trkpt lat="44.36770044970302" lon="10.379152864321156"><ele>641.0</ele><time>2026-05-02T12:38:23Z</time></trkpt><trkpt lat="44.3675950350937" lon="10.379072959900094"><ele>641.0</ele><time>2026-05-02T12:38:24Z</time></trkpt><trkpt lat="44.367495810154594" lon="10.378998650191278"><ele>641.0</ele><time>2026-05-02T12:38:25Z</time></trkpt><trkpt lat="44.36744489563926" lon="10.378848655624548"><ele>641.0</ele><time>2026-05-02T12:38:26Z</time></trkpt><trkpt lat="44.36735696071077" lon="10.378699516061602"><ele>641.0</ele><time>2026-05-02T12:38:27Z</time></trkpt><trkpt lat="44.367283848646444" lon="10.378530755948905"><ele>642.75</ele><time>2026-05-02T12:38:28Z</time></trkpt><trkpt lat="44.36719213849204" lon="10.37839901797929"><ele>644.5</ele><time>2026-05-02T12:38:29Z</time></trkpt><trkpt lat="44.36707831870549" lon="10.378302588895448"><ele>646.25</ele><time>2026-05-02T12:38:30Z</time></trkpt><trkpt lat="44.36695160139131" lon="10.37823977612275"><ele>648.0</ele><time>2026-05-02T12:38:31Z</time></trkpt><trkpt lat="44.36683652764187" lon="10.378147184506377"><ele>648.0</ele><time>2026-05-02T12:38:32Z</time></trkpt><trkpt lat="44.366727198289176" lon="10.3780407003375"><ele>648.0</ele><time>2026-05-02T12:38:33Z</time></trkpt><trkpt lat="44.36661837930046" lon="10.377898649668227"><ele>648.0</ele><time>2026-05-02T12:38:34Z</time></trkpt><trkpt lat="44.36650161579625" lon="10.377768217401755"><ele>648.0</ele><time>2026-05-02T12:38:35Z</time></trkpt><trkpt lat="44.36637446817553" lon="10.377657602703177"><ele>650.0</ele><time>2026-05-02T12:38:36Z</time></trkpt><trkpt lat="44.366235897176274" lon="10.377578728522078"><ele>652.0</ele><time>2026-05-02T12:38:37Z</time></trkpt><trkpt lat="44.36610771317015" lon="10.37748924374894"><ele>654.0</ele><time>2026-05-02T12:38:38Z</time></trkpt><trkpt lat="44.365991525319174" lon="10.377418564334667"><ele>656.0</ele><time>2026-05-02T12:38:39Z</time></trkpt><trkpt lat="44.36586539742466" lon="10.377385134341848"><ele>656.0</ele><time>2026-05-02T12:38:40Z</time></trkpt><trkpt lat="44.36572029343595" lon="10.377391000214093"><ele>656.0</ele><time>2026-05-02T12:38:41Z</time></trkpt><trkpt lat="44.36557604842665" lon="10.377412956344488"><ele>656.0</ele><time>2026-05-02T12:38:42Z</time></trkpt><trkpt lat="44.36543614013269" lon="10.377419015523213"><ele>656.0</ele><time>2026-05-02T12:38:43Z</time></trkpt><trkpt lat="44.365317573431085" lon="10.377356644911433"><ele>656.25</ele><time>2026-05-02T12:38:44Z</time></trkpt><trkpt lat="44.3651935650193" lon="10.377289899121312"><ele>656.5</ele><time>2026-05-02T12:38:45Z</time></trkpt><trkpt lat="44.36506418500547" lon="10.377201195427151"><ele>656.75</ele><time>2026-05-02T12:38:45.999Z</time></trkpt><trkpt lat="44.364925090892605" lon="10.377129371928095"><ele>657.0</ele><time>2026-05-02T12:38:46.999Z</time></trkpt><trkpt lat="44.36476915708237" lon="10.377159440319137"><ele>659.25</ele><time>2026-05-02T12:38:47.999Z</time></trkpt><trkpt lat="44.36462611082453" lon="10.377258774871363"><ele>661.5</ele><time>2026-05-02T12:38:48.999Z</time></trkpt><trkpt lat="44.36450147258621" lon="10.377340902417663"><ele>663.75</ele><time>2026-05-02T12:38:49.999Z</time></trkpt><trkpt lat="44.36438369246652" lon="10.377378559696014"><ele>666.0</ele><time>2026-05-02T12:38:50.999Z</time></trkpt><trkpt lat="44.36425934113462" lon="10.377305717821102"><ele>666.0</ele><time>2026-05-02T12:38:51.999Z</time></trkpt><trkpt lat="44.36411721069293" lon="10.377278294121805"><ele>666.0</ele><time>2026-05-02T12:38:52.999Z</time></trkpt><trkpt lat="44.36399497833053" lon="10.377272047831072"><ele>666.0</ele><time>2026-05-02T12:38:53.999Z</time></trkpt><trkpt lat="44.36388648377156" lon="10.37732791708051"><ele>666.0</ele><time>2026-05-02T12:38:54.999Z</time></trkpt><trkpt lat="44.36379356128925" lon="10.377349955506157"><ele>665.1666666666666</ele><time>2026-05-02T12:38:55.999Z</time></trkpt><trkpt lat="44.36373053491793" lon="10.377336537561776"><ele>664.3333333333334</ele><time>2026-05-02T12:38:56.999Z</time></trkpt><trkpt lat="44.36368984788766" lon="10.377236664214314"><ele>663.5</ele><time>2026-05-02T12:38:57.999Z</time></trkpt><trkpt lat="44.36366591668042" lon="10.377125623218921"><ele>662.6666666666667</ele><time>2026-05-02T12:38:58.999Z</time></trkpt><trkpt lat="44.36363389365383" lon="10.377006703372473"><ele>661.8333333333334</ele><time>2026-05-02T12:38:59.999Z</time></trkpt><trkpt lat="44.363569108972186" lon="10.376873659775114"><ele>661.0</ele><time>2026-05-02T12:39:00.999Z</time></trkpt><trkpt lat="44.36347714050179" lon="10.376750874052787"><ele>665.0</ele><time>2026-05-02T12:39:01.999Z</time></trkpt><trkpt lat="44.36335304312629" lon="10.376648017976503"><ele>669.0</ele><time>2026-05-02T12:39:02.999Z</time></trkpt><trkpt lat="44.36320476323794" lon="10.376549839272135"><ele>673.0</ele><time>2026-05-02T12:39:03.999Z</time></trkpt><trkpt lat="44.363069866386574" lon="10.376433262568906"><ele>675.3333333333334</ele><time>2026-05-02T12:39:04.999Z</time></trkpt><trkpt lat="44.36294199524678" lon="10.376302965610808"><ele>677.6666666666666</ele><time>2026-05-02T12:39:05.999Z</time></trkpt><trkpt lat="44.36280213234062" lon="10.376192234744664"><ele>680.0</ele><time>2026-05-02T12:39:06.999Z</time></trkpt><trkpt lat="44.36265191184371" lon="10.376097190316283"><ele>680.0</ele><time>2026-05-02T12:39:07.999Z</time></trkpt><trkpt lat="44.36250294083296" lon="10.376027582862244"><ele>680.0</ele><time>2026-05-02T12:39:08.999Z</time></trkpt><trkpt lat="44.362345510341356" lon="10.375963580105573"><ele>680.0</ele><time>2026-05-02T12:39:09.999Z</time></trkpt><trkpt lat="44.362196767603265" lon="10.375902773022304"><ele>678.75</ele><time>2026-05-02T12:39:10.999Z</time></trkpt><trkpt lat="44.362042841113194" lon="10.375829871507525"><ele>677.5</ele><time>2026-05-02T12:39:11.999Z</time></trkpt><trkpt lat="44.36189696074669" lon="10.375767312667294"><ele>676.25</ele><time>2026-05-02T12:39:12.999Z</time></trkpt><trkpt lat="44.361769345644234" lon="10.375712333231471"><ele>675.0</ele><time>2026-05-02T12:39:13.999Z</time></trkpt><trkpt lat="44.36166362058347" lon="10.375668387011563"><ele>675.0</ele><time>2026-05-02T12:39:14.999Z</time></trkpt><trkpt lat="44.36157085247403" lon="10.375660819963688"><ele>675.0</ele><time>2026-05-02T12:39:16Z</time></trkpt><trkpt lat="44.3614793879069" lon="10.375723399617867"><ele>675.0</ele><time>2026-05-02T12:39:17Z</time></trkpt><trkpt lat="44.3614128701592" lon="10.375843120998239"><ele>675.0</ele><time>2026-05-02T12:39:18Z</time></trkpt><trkpt lat="44.36138383905809" lon="10.37600600309776"><ele>675.0</ele><time>2026-05-02T12:39:19Z</time></trkpt><trkpt lat="44.36139097118026" lon="10.376198855175666"><ele>673.3333333333334</ele><time>2026-05-02T12:39:20Z</time></trkpt><trkpt lat="44.36140300948888" lon="10.37640943690184"><ele>671.6666666666667</ele><time>2026-05-02T12:39:21Z</time></trkpt><trkpt lat="44.36139868263341" lon="10.376628329681509"><ele>670.0</ele><time>2026-05-02T12:39:22Z</time></trkpt><trkpt lat="44.36139211835764" lon="10.37684352209947"><ele>670.0</ele><time>2026-05-02T12:39:23Z</time></trkpt><trkpt lat="44.361380755324944" lon="10.377054094702094"><ele>670.0</ele><time>2026-05-02T12:39:24Z</time></trkpt><trkpt lat="44.36136682965142" lon="10.3772768381173"><ele>670.0</ele><time>2026-05-02T12:39:25Z</time></trkpt><trkpt lat="44.36135564837858" lon="10.377494314443267"><ele>673.75</ele><time>2026-05-02T12:39:26Z</time></trkpt><trkpt lat="44.36134346190528" lon="10.3776973659632"><ele>677.5</ele><time>2026-05-02T12:39:27Z</time></trkpt><trkpt lat="44.36133247849043" lon="10.37788359991698"><ele>681.25</ele><time>2026-05-02T12:39:28Z</time></trkpt><trkpt lat="44.3613229528829" lon="10.378044726177048"><ele>685.0</ele><time>2026-05-02T12:39:29Z</time></trkpt><trkpt lat="44.361280933710304" lon="10.37818127857811"><ele>685.0</ele><time>2026-05-02T12:39:30Z</time></trkpt><trkpt lat="44.361230245123416" lon="10.378297630194167"><ele>685.0</ele><time>2026-05-02T12:39:31Z</time></trkpt><trkpt lat="44.36115287363104" lon="10.378343996622469"><ele>685.0</ele><time>2026-05-02T12:39:32Z</time></trkpt><trkpt lat="44.36106254775162" lon="10.378364948646599"><ele>685.0</ele><time>2026-05-02T12:39:33Z</time></trkpt><trkpt lat="44.36097344802509" lon="10.37832912648164"><ele>685.0</ele><time>2026-05-02T12:39:34Z</time></trkpt><trkpt lat="44.36084185142162" lon="10.378223944610943"><ele>685.0</ele><time>2026-05-02T12:39:35Z</time></trkpt><trkpt lat="44.36071978322502" lon="10.378123433693967"><ele>685.0</ele><time>2026-05-02T12:39:36Z</time></trkpt><trkpt lat="44.36059761803703" lon="10.37801645582718"><ele>685.0</ele><time>2026-05-02T12:39:37Z</time></trkpt><trkpt lat="44.36048144942159" lon="10.377939715075506"><ele>685.0</ele><time>2026-05-02T12:39:38Z</time></trkpt><trkpt lat="44.36037127463617" lon="10.377906574411652"><ele>687.5</ele><time>2026-05-02T12:39:39Z</time></trkpt><trkpt lat="44.36025999938929" lon="10.377933996439229"><ele>690.0</ele><time>2026-05-02T12:39:40Z</time></trkpt><trkpt lat="44.36013874010911" lon="10.378022829688843"><ele>692.5</ele><time>2026-05-02T12:39:41Z</time></trkpt><trkpt lat="44.36001959446783" lon="10.378163853985741"><ele>695.0</ele><time>2026-05-02T12:39:42Z</time></trkpt><trkpt lat="44.359889818930135" lon="10.37829291193868"><ele>695.0</ele><time>2026-05-02T12:39:43Z</time></trkpt><trkpt lat="44.359762062978355" lon="10.378428951395172"><ele>695.0</ele><time>2026-05-02T12:39:44Z</time></trkpt><trkpt lat="44.35963454905198" lon="10.378563816661384"><ele>695.0</ele><time>2026-05-02T12:39:45Z</time></trkpt><trkpt lat="44.35951042191238" lon="10.37869567435627"><ele>696.6666666666666</ele><time>2026-05-02T12:39:46Z</time></trkpt><trkpt lat="44.35938009117687" lon="10.378794302116685"><ele>698.3333333333334</ele><time>2026-05-02T12:39:47Z</time></trkpt><trkpt lat="44.35923259266365" lon="10.378860476241728"><ele>700.0</ele><time>2026-05-02T12:39:48Z</time></trkpt><trkpt lat="44.3590733705923" lon="10.37892543790981"><ele>700.0</ele><time>2026-05-02T12:39:49Z</time></trkpt><trkpt lat="44.358922440556945" lon="10.37899746205019"><ele>700.0</ele><time>2026-05-02T12:39:50Z</time></trkpt><trkpt lat="44.35876481539953" lon="10.379057136083032"><ele>700.0</ele><time>2026-05-02T12:39:51Z</time></trkpt><trkpt lat="44.35860784552277" lon="10.379132170015582"><ele>702.25</ele><time>2026-05-02T12:39:52Z</time></trkpt><trkpt lat="44.3584688313371" lon="10.379198083173168"><ele>704.5</ele><time>2026-05-02T12:39:53Z</time></trkpt><trkpt lat="44.358333642288855" lon="10.379220601114925"><ele>706.75</ele><time>2026-05-02T12:39:54Z</time></trkpt><trkpt lat="44.35820333809852" lon="10.379249651533273"><ele>709.0</ele><time>2026-05-02T12:39:55Z</time></trkpt><trkpt lat="44.3580691443826" lon="10.379173253377735"><ele>710.0</ele><time>2026-05-02T12:39:56Z</time></trkpt><trkpt lat="44.357919689341166" lon="10.379102992878178"><ele>711.0</ele><time>2026-05-02T12:39:57Z</time></trkpt><trkpt lat="44.35776198113277" lon="10.379042687215346"><ele>712.0</ele><time>2026-05-02T12:39:58Z</time></trkpt><trkpt lat="44.357625910878376" lon="10.378957975070783"><ele>712.0</ele><time>2026-05-02T12:39:59Z</time></trkpt><trkpt lat="44.35750063492291" lon="10.378898067078522"><ele>712.0</ele><time>2026-05-02T12:40:00Z</time></trkpt><trkpt lat="44.35738628174547" lon="10.378881535594493"><ele>712.0</ele><time>2026-05-02T12:40:01Z</time></trkpt><trkpt lat="44.357278078157684" lon="10.378929318296892"><ele>712.0</ele><time>2026-05-02T12:40:02Z</time></trkpt><trkpt lat="44.35719828536525" lon="10.379036108728647"><ele>712.0</ele><time>2026-05-02T12:40:03Z</time></trkpt><trkpt lat="44.357166692206924" lon="10.379179365532114"><ele>712.0</ele><time>2026-05-02T12:40:04Z</time></trkpt><trkpt lat="44.357166595287396" lon="10.379323299440308"><ele>712.0</ele><time>2026-05-02T12:40:05Z</time></trkpt><trkpt lat="44.357252782174555" lon="10.379452846418886"><ele>712.0</ele><time>2026-05-02T12:40:06Z</time></trkpt><trkpt lat="44.35734927436174" lon="10.37957641255541"><ele>712.0</ele><time>2026-05-02T12:40:07Z</time></trkpt><trkpt lat="44.35742631072996" lon="10.379695621254951"><ele>712.0</ele><time>2026-05-02T12:40:08Z</time></trkpt><trkpt lat="44.35745698407471" lon="10.379829259024195"><ele>712.0</ele><time>2026-05-02T12:40:09Z</time></trkpt><trkpt lat="44.3574261419865" lon="10.37995677436924"><ele>712.0</ele><time>2026-05-02T12:40:10Z</time></trkpt><trkpt lat="44.35733356789613" lon="10.380040035214076"><ele>712.0</ele><time>2026-05-02T12:40:11Z</time></trkpt><trkpt lat="44.3572361965974" lon="10.380153018506487"><ele>714.5</ele><time>2026-05-02T12:40:12Z</time></trkpt><trkpt lat="44.357116003603686" lon="10.380264644342239"><ele>717.0</ele><time>2026-05-02T12:40:13Z</time></trkpt><trkpt lat="44.357000002606725" lon="10.380389407237947"><ele>719.5</ele><time>2026-05-02T12:40:14Z</time></trkpt><trkpt lat="44.356883045206764" lon="10.38052854321594"><ele>722.0</ele><time>2026-05-02T12:40:15Z</time></trkpt><trkpt lat="44.35679621958105" lon="10.380688852947802"><ele>722.0</ele><time>2026-05-02T12:40:16Z</time></trkpt><trkpt lat="44.35672030242787" lon="10.380874891584673"><ele>722.0</ele><time>2026-05-02T12:40:17Z</time></trkpt><trkpt lat="44.35664174082769" lon="10.381058620669153"><ele>722.0</ele><time>2026-05-02T12:40:18Z</time></trkpt><trkpt lat="44.3565626367791" lon="10.3812455754329"><ele>722.0</ele><time>2026-05-02T12:40:19Z</time></trkpt><trkpt lat="44.35650392646402" lon="10.38143773575083"><ele>722.0</ele><time>2026-05-02T12:40:20Z</time></trkpt><trkpt lat="44.356458941924494" lon="10.381644350149516"><ele>722.0</ele><time>2026-05-02T12:40:21Z</time></trkpt><trkpt lat="44.35643340082138" lon="10.381862381596115"><ele>722.0</ele><time>2026-05-02T12:40:22Z</time></trkpt><trkpt lat="44.35642353580087" lon="10.382063606458361"><ele>722.0</ele><time>2026-05-02T12:40:23Z</time></trkpt><trkpt lat="44.356423676757274" lon="10.382203268575402"><ele>722.0</ele><time>2026-05-02T12:40:24Z</time></trkpt><trkpt lat="44.35642073142976" lon="10.382297564461538"><ele>722.0</ele><time>2026-05-02T12:40:25Z</time></trkpt><trkpt lat="44.356433538666145" lon="10.382412669909069"><ele>722.0</ele><time>2026-05-02T12:40:27Z</time></trkpt><trkpt lat="44.35642040465824" lon="10.382499831950552"><ele>722.0</ele><time>2026-05-02T12:40:28.999Z</time></trkpt><trkpt lat="44.35639759010748" lon="10.382633746747757"><ele>722.0</ele><time>2026-05-02T12:40:31.999Z</time></trkpt><trkpt lat="44.35631752243891" lon="10.382722415566183"><ele>722.0</ele><time>2026-05-02T12:40:33.999Z</time></trkpt><trkpt lat="44.35624524900187" lon="10.38267051122686"><ele>722.0</ele><time>2026-05-02T12:40:35.999Z</time></trkpt><trkpt lat="44.35620337000579" lon="10.38276421641213"><ele>722.0</ele><time>2026-05-02T12:40:38.999Z</time></trkpt><trkpt lat="44.35634868010074" lon="10.382778450768887"><ele>722.0</ele><time>2026-05-02T12:40:42.999Z</time></trkpt><trkpt lat="44.35640283090672" lon="10.382707918186453"><ele>722.0</ele><time>2026-05-02T12:40:43.999Z</time></trkpt><trkpt lat="44.35643229700431" lon="10.382610778480778"><ele>722.0</ele><time>2026-05-02T12:40:44.999Z</time></trkpt><trkpt lat="44.3564521471013" lon="10.382478229396181"><ele>722.0</ele><time>2026-05-02T12:40:45.999Z</time></trkpt><trkpt lat="44.356458413354126" lon="10.382350833499439"><ele>722.0</ele><time>2026-05-02T12:40:46.999Z</time></trkpt><trkpt lat="44.356457217887815" lon="10.382257605474987"><ele>722.0</ele><time>2026-05-02T12:40:47.999Z</time></trkpt><trkpt lat="44.356481771827724" lon="10.38213358206706"><ele>722.0</ele><time>2026-05-02T12:40:49.999Z</time></trkpt><trkpt lat="44.356516753272665" lon="10.382046272794218"><ele>722.0</ele><time>2026-05-02T12:40:51.999Z</time></trkpt><trkpt lat="44.356524678166814" lon="10.381957514814271"><ele>722.0</ele><time>2026-05-02T12:46:50.999Z</time></trkpt><trkpt lat="44.35644422825366" lon="10.38196559917267"><ele>722.0</ele><time>2026-05-02T12:46:54.999Z</time></trkpt><trkpt lat="44.356416400796206" lon="10.382136358370646"><ele>722.0</ele><time>2026-05-02T12:46:56.999Z</time></trkpt><trkpt lat="44.35643244735546" lon="10.382242023132456"><ele>722.0</ele><time>2026-05-02T12:46:57.999Z</time></trkpt><trkpt lat="44.356436227884736" lon="10.38234650008635"><ele>722.0</ele><time>2026-05-02T12:46:58.999Z</time></trkpt><trkpt lat="44.356430411704" lon="10.382455080982808"><ele>722.0</ele><time>2026-05-02T12:46:59.999Z</time></trkpt><trkpt lat="44.35642197055105" lon="10.382571478022122"><ele>722.0</ele><time>2026-05-02T12:47:00.999Z</time></trkpt><trkpt lat="44.35640066981382" lon="10.382667127601424"><ele>722.0</ele><time>2026-05-02T12:47:01.999Z</time></trkpt><trkpt lat="44.35631493126729" lon="10.382721596854518"><ele>722.0</ele><time>2026-05-02T12:47:03.999Z</time></trkpt><trkpt lat="44.3562467176126" lon="10.382658205837497"><ele>722.0</ele><time>2026-05-02T12:47:05.999Z</time></trkpt><trkpt lat="44.356201335449626" lon="10.382461239423861"><ele>724.5</ele><time>2026-05-02T12:47:07.999Z</time></trkpt><trkpt lat="44.35618004830821" lon="10.382321032964894"><ele>727.0</ele><time>2026-05-02T12:47:08.999Z</time></trkpt><trkpt lat="44.35614880260829" lon="10.382167877579853"><ele>729.5</ele><time>2026-05-02T12:47:09.999Z</time></trkpt><trkpt lat="44.35610597849473" lon="10.382022445500816"><ele>732.0</ele><time>2026-05-02T12:47:10.999Z</time></trkpt><trkpt lat="44.35606172045503" lon="10.381844955954591"><ele>732.75</ele><time>2026-05-02T12:47:11.999Z</time></trkpt><trkpt lat="44.35602192787262" lon="10.381663992948722"><ele>733.5</ele><time>2026-05-02T12:47:12.999Z</time></trkpt><trkpt lat="44.355974295978996" lon="10.38148894385318"><ele>734.25</ele><time>2026-05-02T12:47:13.999Z</time></trkpt><trkpt lat="44.355918101941036" lon="10.381305094800894"><ele>735.0</ele><time>2026-05-02T12:47:14.999Z</time></trkpt><trkpt lat="44.35585514059216" lon="10.381119725510576"><ele>735.25</ele><time>2026-05-02T12:47:15.999Z</time></trkpt><trkpt lat="44.3558035163153" lon="10.380918460476718"><ele>735.5</ele><time>2026-05-02T12:47:16.999Z</time></trkpt><trkpt lat="44.35574137072759" lon="10.38073598265356"><ele>735.75</ele><time>2026-05-02T12:47:17.999Z</time></trkpt><trkpt lat="44.35566997608014" lon="10.380557733404085"><ele>736.0</ele><time>2026-05-02T12:47:18.999Z</time></trkpt><trkpt lat="44.3556342459301" lon="10.380439316611817"><ele>737.5</ele><time>2026-05-02T12:47:19.999Z</time></trkpt><trkpt lat="44.35562368320084" lon="10.380272135175401"><ele>739.0</ele><time>2026-05-02T12:47:20.999Z</time></trkpt><trkpt lat="44.35563863998259" lon="10.380104246993275"><ele>740.5</ele><time>2026-05-02T12:47:21.999Z</time></trkpt><trkpt lat="44.35568081240317" lon="10.379970460521486"><ele>742.0</ele><time>2026-05-02T12:47:22.999Z</time></trkpt><trkpt lat="44.355749362834956" lon="10.379804458188094"><ele>743.75</ele><time>2026-05-02T12:47:23.999Z</time></trkpt><trkpt lat="44.3558266654091" lon="10.379632241589261"><ele>745.5</ele><time>2026-05-02T12:47:24.999Z</time></trkpt><trkpt lat="44.355897983274204" lon="10.379462345450548"><ele>747.25</ele><time>2026-05-02T12:47:25.999Z</time></trkpt><trkpt lat="44.355938249445664" lon="10.379308894346991"><ele>749.0</ele><time>2026-05-02T12:47:26.999Z</time></trkpt><trkpt lat="44.355938029398864" lon="10.379168219996755"><ele>749.0</ele><time>2026-05-02T12:47:27.999Z</time></trkpt><trkpt lat="44.3559115823871" lon="10.379022326022131"><ele>749.0</ele><time>2026-05-02T12:47:28.999Z</time></trkpt><trkpt lat="44.35583465575743" lon="10.378876673125452"><ele>749.0</ele><time>2026-05-02T12:47:29.999Z</time></trkpt><trkpt lat="44.35574600713468" lon="10.378715170878193"><ele>749.0</ele><time>2026-05-02T12:47:30.999Z</time></trkpt><trkpt lat="44.3557204280781" lon="10.378511158214849"><ele>748.5</ele><time>2026-05-02T12:47:31.999Z</time></trkpt><trkpt lat="44.35567581343778" lon="10.378319654569164"><ele>748.0</ele><time>2026-05-02T12:47:32.999Z</time></trkpt><trkpt lat="44.35563770704751" lon="10.378144482241042"><ele>747.5</ele><time>2026-05-02T12:47:33.999Z</time></trkpt><trkpt lat="44.355596234341675" lon="10.377992000041347"><ele>747.0</ele><time>2026-05-02T12:47:34.999Z</time></trkpt><trkpt lat="44.35556104781318" lon="10.37787661987684"><ele>751.3333333333334</ele><time>2026-05-02T12:47:35.999Z</time></trkpt><trkpt lat="44.35550383350259" lon="10.377807995345146"><ele>755.6666666666667</ele><time>2026-05-02T12:47:36.999Z</time></trkpt><trkpt lat="44.35542933420177" lon="10.377789716873188"><ele>760.0</ele><time>2026-05-02T12:47:37.999Z</time></trkpt><trkpt lat="44.355353618852256" lon="10.377825511423339"><ele>764.3333333333334</ele><time>2026-05-02T12:47:38.999Z</time></trkpt><trkpt lat="44.355296137329766" lon="10.377933223485002"><ele>768.6666666666667</ele><time>2026-05-02T12:47:39.999Z</time></trkpt><trkpt lat="44.35528667260271" lon="10.378077270561011"><ele>773.0</ele><time>2026-05-02T12:47:40.999Z</time></trkpt><trkpt lat="44.355341402934314" lon="10.378251145606784"><ele>773.5</ele><time>2026-05-02T12:47:41.999Z</time></trkpt><trkpt lat="44.355407726299504" lon="10.378425078903202"><ele>774.0</ele><time>2026-05-02T12:47:42.999Z</time></trkpt><trkpt lat="44.35546543409501" lon="10.378605849864373"><ele>774.5</ele><time>2026-05-02T12:47:43.999Z</time></trkpt><trkpt lat="44.355493604477665" lon="10.378766775919255"><ele>775.0</ele><time>2026-05-02T12:47:44.999Z</time></trkpt><trkpt lat="44.35543644359067" lon="10.378901469292225"><ele>772.75</ele><time>2026-05-02T12:47:45.999Z</time></trkpt><trkpt lat="44.35536492596708" lon="10.379001709872684"><ele>770.5</ele><time>2026-05-02T12:47:46.999Z</time></trkpt><trkpt lat="44.35526671850937" lon="10.379108495404848"><ele>768.25</ele><time>2026-05-02T12:47:47.999Z</time></trkpt><trkpt lat="44.35516480856916" lon="10.379226408509973"><ele>766.0</ele><time>2026-05-02T12:47:48.999Z</time></trkpt><trkpt lat="44.35505857757338" lon="10.379345730287579"><ele>766.0</ele><time>2026-05-02T12:47:49.999Z</time></trkpt><trkpt lat="44.35496189997246" lon="10.37943610998824"><ele>766.0</ele><time>2026-05-02T12:47:50.999Z</time></trkpt><trkpt lat="44.354847025819794" lon="10.379492032930978"><ele>766.0</ele><time>2026-05-02T12:47:51.999Z</time></trkpt><trkpt lat="44.35470178949015" lon="10.379510876837028"><ele>766.0</ele><time>2026-05-02T12:47:52.999Z</time></trkpt><trkpt lat="44.35452757156392" lon="10.379531064769388"><ele>766.6666666666667</ele><time>2026-05-02T12:47:53.999Z</time></trkpt><trkpt lat="44.354351690904785" lon="10.379552457736091"><ele>767.3333333333334</ele><time>2026-05-02T12:47:54.999Z</time></trkpt><trkpt lat="44.354190823324" lon="10.379580814456338"><ele>768.0</ele><time>2026-05-02T12:47:55.999Z</time></trkpt><trkpt lat="44.35406149431798" lon="10.379686871462871"><ele>768.0</ele><time>2026-05-02T12:47:56.999Z</time></trkpt><trkpt lat="44.35395685625596" lon="10.37981146802189"><ele>768.0</ele><time>2026-05-02T12:47:57.999Z</time></trkpt><trkpt lat="44.353874892575504" lon="10.379960209442508"><ele>768.0</ele><time>2026-05-02T12:47:58.999Z</time></trkpt><trkpt lat="44.35377114253551" lon="10.38006405273479"><ele>768.0</ele><time>2026-05-02T12:47:59.999Z</time></trkpt><trkpt lat="44.353661017919556" lon="10.380130884163442"><ele>770.25</ele><time>2026-05-02T12:48:00.999Z</time></trkpt><trkpt lat="44.35353890836605" lon="10.380107196691137"><ele>772.5</ele><time>2026-05-02T12:48:01.999Z</time></trkpt><trkpt lat="44.35343423587285" lon="10.379993466622015"><ele>774.75</ele><time>2026-05-02T12:48:02.999Z</time></trkpt><trkpt lat="44.353363974031176" lon="10.37984874205078"><ele>777.0</ele><time>2026-05-02T12:48:03.999Z</time></trkpt><trkpt lat="44.3533149772949" lon="10.379682863871441"><ele>779.25</ele><time>2026-05-02T12:48:04.999Z</time></trkpt><trkpt lat="44.35337544644113" lon="10.37951519505956"><ele>781.5</ele><time>2026-05-02T12:48:05.999Z</time></trkpt><trkpt lat="44.353449162508255" lon="10.379376712923492"><ele>783.75</ele><time>2026-05-02T12:48:06.999Z</time></trkpt><trkpt lat="44.353567654018754" lon="10.379260547912363"><ele>786.0</ele><time>2026-05-02T12:48:07.999Z</time></trkpt><trkpt lat="44.35369442253972" lon="10.379114247665608"><ele>786.0</ele><time>2026-05-02T12:48:08.999Z</time></trkpt><trkpt lat="44.35383420854735" lon="10.378985449129146"><ele>786.0</ele><time>2026-05-02T12:48:09.999Z</time></trkpt><trkpt lat="44.35397640901007" lon="10.378846054600732"><ele>786.0</ele><time>2026-05-02T12:48:10.999Z</time></trkpt><trkpt lat="44.354117474305454" lon="10.37870462407998"><ele>788.0</ele><time>2026-05-02T12:48:11.999Z</time></trkpt><trkpt lat="44.354248904923736" lon="10.378570766110867"><ele>790.0</ele><time>2026-05-02T12:48:12.999Z</time></trkpt><trkpt lat="44.35436444510139" lon="10.378447011425322"><ele>792.0</ele><time>2026-05-02T12:48:13.999Z</time></trkpt><trkpt lat="44.3544607913814" lon="10.378341827825974"><ele>794.0</ele><time>2026-05-02T12:48:14.999Z</time></trkpt><trkpt lat="44.35452851119144" lon="10.378217635636872"><ele>794.0</ele><time>2026-05-02T12:48:15.999Z</time></trkpt><trkpt lat="44.354553716333335" lon="10.378056060972852"><ele>794.0</ele><time>2026-05-02T12:48:16.999Z</time></trkpt><trkpt lat="44.35452928429065" lon="10.377874457585614"><ele>794.0</ele><time>2026-05-02T12:48:17.999Z</time></trkpt><trkpt lat="44.35447141411025" lon="10.37767725658199"><ele>794.0</ele><time>2026-05-02T12:48:18.999Z</time></trkpt><trkpt lat="44.35440853159965" lon="10.37748703898936"><ele>793.0</ele><time>2026-05-02T12:48:19.999Z</time></trkpt><trkpt lat="44.35434831873475" lon="10.377298496481744"><ele>792.0</ele><time>2026-05-02T12:48:20.999Z</time></trkpt><trkpt lat="44.35426123299291" lon="10.377136972338594"><ele>791.0</ele><time>2026-05-02T12:48:21.999Z</time></trkpt><trkpt lat="44.35413574462805" lon="10.377021881181534"><ele>790.0</ele><time>2026-05-02T12:48:22.999Z</time></trkpt><trkpt lat="44.35399553273235" lon="10.37693786617066"><ele>795.0</ele><time>2026-05-02T12:48:23.999Z</time></trkpt><trkpt lat="44.353870739546146" lon="10.376829582117717"><ele>800.0</ele><time>2026-05-02T12:48:24.999Z</time></trkpt><trkpt lat="44.35378395656045" lon="10.376669371197597"><ele>805.0</ele><time>2026-05-02T12:48:25.999Z</time></trkpt><trkpt lat="44.353715082789414" lon="10.376471296201522"><ele>810.0</ele><time>2026-05-02T12:48:26.999Z</time></trkpt><trkpt lat="44.35367325148122" lon="10.376302482171543"><ele>810.0</ele><time>2026-05-02T12:48:27.999Z</time></trkpt><trkpt lat="44.35361940375766" lon="10.376105900483639"><ele>810.0</ele><time>2026-05-02T12:48:28.999Z</time></trkpt><trkpt lat="44.35357558025273" lon="10.375925216200512"><ele>810.0</ele><time>2026-05-02T12:48:29.999Z</time></trkpt><trkpt lat="44.35349829387432" lon="10.375787371860618"><ele>810.0</ele><time>2026-05-02T12:48:30.999Z</time></trkpt><trkpt lat="44.3533911182537" lon="10.375669495533307"><ele>810.0</ele><time>2026-05-02T12:48:31.999Z</time></trkpt><trkpt lat="44.35328027543629" lon="10.375566146237588"><ele>810.0</ele><time>2026-05-02T12:48:32.999Z</time></trkpt><trkpt lat="44.353166395509" lon="10.375457427054783"><ele>810.0</ele><time>2026-05-02T12:48:33.999Z</time></trkpt><trkpt lat="44.35308309904989" lon="10.375310746560816"><ele>810.0</ele><time>2026-05-02T12:48:34.999Z</time></trkpt><trkpt lat="44.353054401447274" lon="10.375141694437486"><ele>809.5</ele><time>2026-05-02T12:48:35.999Z</time></trkpt><trkpt lat="44.353060537620344" lon="10.374984606497048"><ele>809.0</ele><time>2026-05-02T12:48:36.999Z</time></trkpt><trkpt lat="44.3530895707151" lon="10.374812649509009"><ele>808.5</ele><time>2026-05-02T12:48:37.999Z</time></trkpt><trkpt lat="44.35315815731262" lon="10.374642798520679"><ele>808.0</ele><time>2026-05-02T12:48:38.999Z</time></trkpt><trkpt lat="44.353217263232075" lon="10.37449239496506"><ele>808.8</ele><time>2026-05-02T12:48:39.999Z</time></trkpt><trkpt lat="44.35323684896882" lon="10.37435097284602"><ele>809.5999999999999</ele><time>2026-05-02T12:48:40.999Z</time></trkpt><trkpt lat="44.35321656126037" lon="10.374216960653238"><ele>810.4000000000001</ele><time>2026-05-02T12:48:41.999Z</time></trkpt><trkpt lat="44.35314954773806" lon="10.374098664224247"><ele>811.2</ele><time>2026-05-02T12:48:42.999Z</time></trkpt><trkpt lat="44.35304820898461" lon="10.373990017097725"><ele>812.0</ele><time>2026-05-02T12:48:43.999Z</time></trkpt><trkpt lat="44.35294305576864" lon="10.37387266883722"><ele>816.5</ele><time>2026-05-02T12:48:44.999Z</time></trkpt><trkpt lat="44.35285956100589" lon="10.373720367273572"><ele>821.0</ele><time>2026-05-02T12:48:45.999Z</time></trkpt><trkpt lat="44.35283620922287" lon="10.373537481555957"><ele>825.5</ele><time>2026-05-02T12:48:46.999Z</time></trkpt><trkpt lat="44.35285058123756" lon="10.373357651521445"><ele>830.0</ele><time>2026-05-02T12:48:47.999Z</time></trkpt><trkpt lat="44.35289156693966" lon="10.37323131895892"><ele>830.0</ele><time>2026-05-02T12:48:48.999Z</time></trkpt><trkpt lat="44.352960813231725" lon="10.373139254578648"><ele>830.0</ele><time>2026-05-02T12:48:49.999Z</time></trkpt><trkpt lat="44.35306287718525" lon="10.373024680496016"><ele>830.0</ele><time>2026-05-02T12:48:50.999Z</time></trkpt><trkpt lat="44.35319447593572" lon="10.372916796883889"><ele>830.0</ele><time>2026-05-02T12:48:51.999Z</time></trkpt><trkpt lat="44.35331638447402" lon="10.372807165045744"><ele>830.0</ele><time>2026-05-02T12:48:52.999Z</time></trkpt><trkpt lat="44.353440672614035" lon="10.372711243924456"><ele>830.0</ele><time>2026-05-02T12:48:53.999Z</time></trkpt><trkpt lat="44.353562516411586" lon="10.372629875433276"><ele>830.0</ele><time>2026-05-02T12:48:54.999Z</time></trkpt><trkpt lat="44.35366453647761" lon="10.37253931059078"><ele>830.0</ele><time>2026-05-02T12:48:55.999Z</time></trkpt><trkpt lat="44.35372958201137" lon="10.372410993067161"><ele>830.0</ele><time>2026-05-02T12:48:56.999Z</time></trkpt><trkpt lat="44.35375602000261" lon="10.372231376945761"><ele>830.0</ele><time>2026-05-02T12:48:57.999Z</time></trkpt><trkpt lat="44.353739287575586" lon="10.372028103507482"><ele>830.0</ele><time>2026-05-02T12:48:58.999Z</time></trkpt><trkpt lat="44.35370362166653" lon="10.371814978260206"><ele>830.0</ele><time>2026-05-02T12:48:59.999Z</time></trkpt><trkpt lat="44.35372463500011" lon="10.37162092541271"><ele>833.0</ele><time>2026-05-02T12:49:00.999Z</time></trkpt><trkpt lat="44.35377406920057" lon="10.371436844053134"><ele>836.0</ele><time>2026-05-02T12:49:01.999Z</time></trkpt><trkpt lat="44.353875014553985" lon="10.371288049925194"><ele>839.0</ele><time>2026-05-02T12:49:02.999Z</time></trkpt><trkpt lat="44.35398982373373" lon="10.371115595163461"><ele>839.0</ele><time>2026-05-02T12:49:03.999Z</time></trkpt><trkpt lat="44.35410936359871" lon="10.370917978862746"><ele>839.0</ele><time>2026-05-02T12:49:04.999Z</time></trkpt><trkpt lat="44.35424214755315" lon="10.370719944764065"><ele>839.0</ele><time>2026-05-02T12:49:05.999Z</time></trkpt><trkpt lat="44.354367393893305" lon="10.370516298579792"><ele>840.0</ele><time>2026-05-02T12:49:06.999Z</time></trkpt><trkpt lat="44.354495441414635" lon="10.370309508945843"><ele>841.0</ele><time>2026-05-02T12:49:07.999Z</time></trkpt><trkpt lat="44.354635881776" lon="10.37013459295517"><ele>842.0</ele><time>2026-05-02T12:49:08.999Z</time></trkpt><trkpt lat="44.354755158440135" lon="10.36996935995172"><ele>842.0</ele><time>2026-05-02T12:49:09.999Z</time></trkpt><trkpt lat="44.354858468977106" lon="10.369817705385401"><ele>842.0</ele><time>2026-05-02T12:49:10.999Z</time></trkpt><trkpt lat="44.35497163499582" lon="10.369723618256648"><ele>842.0</ele><time>2026-05-02T12:49:11.999Z</time></trkpt><trkpt lat="44.355110237823645" lon="10.369701578150982"><ele>842.0</ele><time>2026-05-02T12:49:12.999Z</time></trkpt><trkpt lat="44.355274477929335" lon="10.369708566336115"><ele>842.0</ele><time>2026-05-02T12:49:13.999Z</time></trkpt><trkpt lat="44.35543566153762" lon="10.369696853259642"><ele>842.0</ele><time>2026-05-02T12:49:14.999Z</time></trkpt><trkpt lat="44.35558780949916" lon="10.36967209324489"><ele>842.0</ele><time>2026-05-02T12:49:15.999Z</time></trkpt><trkpt lat="44.35572587211536" lon="10.369585100144283"><ele>846.3333333333334</ele><time>2026-05-02T12:49:16.999Z</time></trkpt><trkpt lat="44.35584322877426" lon="10.369456310214877"><ele>850.6666666666667</ele><time>2026-05-02T12:49:17.999Z</time></trkpt><trkpt lat="44.35596767987481" lon="10.36930821503276"><ele>855.0</ele><time>2026-05-02T12:49:18.999Z</time></trkpt><trkpt lat="44.356085045891554" lon="10.36917434095754"><ele>855.0</ele><time>2026-05-02T12:49:19.999Z</time></trkpt><trkpt lat="44.35619500088601" lon="10.36906906756064"><ele>855.0</ele><time>2026-05-02T12:49:20.999Z</time></trkpt><trkpt lat="44.35631666634553" lon="10.36897680445951"><ele>855.0</ele><time>2026-05-02T12:49:21.999Z</time></trkpt><trkpt lat="44.35645118278484" lon="10.36888348658804"><ele>855.0</ele><time>2026-05-02T12:49:22.999Z</time></trkpt><trkpt lat="44.35659348103973" lon="10.368788322620684"><ele>856.0</ele><time>2026-05-02T12:49:23.999Z</time></trkpt><trkpt lat="44.35672300297815" lon="10.368696405057126"><ele>857.0</ele><time>2026-05-02T12:49:24.999Z</time></trkpt><trkpt lat="44.35683207904427" lon="10.368600798610704"><ele>858.0</ele><time>2026-05-02T12:49:25.999Z</time></trkpt><trkpt lat="44.35692066080943" lon="10.368498922666165"><ele>859.0</ele><time>2026-05-02T12:49:26.999Z</time></trkpt><trkpt lat="44.35698346158931" lon="10.36836253220101"><ele>859.0</ele><time>2026-05-02T12:49:27.999Z</time></trkpt><trkpt lat="44.357012261749965" lon="10.36818089386194"><ele>859.0</ele><time>2026-05-02T12:49:28.999Z</time></trkpt><trkpt lat="44.35702458774601" lon="10.367972363707725"><ele>859.0</ele><time>2026-05-02T12:49:29.999Z</time></trkpt><trkpt lat="44.35703900076775" lon="10.36775683473059"><ele>859.0</ele><time>2026-05-02T12:49:30.999Z</time></trkpt><trkpt lat="44.35706757457943" lon="10.367537994924978"><ele>861.25</ele><time>2026-05-02T12:49:31.999Z</time></trkpt><trkpt lat="44.35710024588729" lon="10.367325238253454"><ele>863.5</ele><time>2026-05-02T12:49:32.999Z</time></trkpt><trkpt lat="44.35712768656211" lon="10.367127441408389"><ele>865.75</ele><time>2026-05-02T12:49:33.999Z</time></trkpt><trkpt lat="44.35715375488884" lon="10.366962732767073"><ele>868.0</ele><time>2026-05-02T12:49:34.999Z</time></trkpt><trkpt lat="44.357185602598875" lon="10.36682732124324"><ele>865.75</ele><time>2026-05-02T12:49:35.999Z</time></trkpt><trkpt lat="44.35724285589273" lon="10.366700902906311"><ele>863.5</ele><time>2026-05-02T12:49:36.999Z</time></trkpt><trkpt lat="44.35735510781945" lon="10.366628402404261"><ele>861.25</ele><time>2026-05-02T12:49:37.998Z</time></trkpt><trkpt lat="44.3574842351634" lon="10.366560341953058"><ele>859.0</ele><time>2026-05-02T12:49:38.998Z</time></trkpt><trkpt lat="44.3576197679855" lon="10.366492379392405"><ele>859.0</ele><time>2026-05-02T12:49:39.998Z</time></trkpt><trkpt lat="44.3577458781467" lon="10.366425504582454"><ele>859.0</ele><time>2026-05-02T12:49:40.998Z</time></trkpt><trkpt lat="44.357855936944944" lon="10.366316407165865"><ele>859.0</ele><time>2026-05-02T12:49:41.998Z</time></trkpt><trkpt lat="44.35795376181689" lon="10.366164584080586"><ele>859.0</ele><time>2026-05-02T12:49:42.998Z</time></trkpt><trkpt lat="44.358034301116476" lon="10.365978064549399"><ele>858.6666666666666</ele><time>2026-05-02T12:49:43.998Z</time></trkpt><trkpt lat="44.358123847528674" lon="10.365790290047212"><ele>858.3333333333333</ele><time>2026-05-02T12:49:44.999Z</time></trkpt><trkpt lat="44.35821846342928" lon="10.365597592932298"><ele>858.0</ele><time>2026-05-02T12:49:45.999Z</time></trkpt><trkpt lat="44.358304519920075" lon="10.36538964187792"><ele>860.0</ele><time>2026-05-02T12:49:46.999Z</time></trkpt><trkpt lat="44.358411044678206" lon="10.365199554439693"><ele>862.0</ele><time>2026-05-02T12:49:47.999Z</time></trkpt><trkpt lat="44.35850584880311" lon="10.36500698788054"><ele>864.0</ele><time>2026-05-02T12:49:48.999Z</time></trkpt><trkpt lat="44.35859109061269" lon="10.364819930085748"><ele>864.75</ele><time>2026-05-02T12:49:49.999Z</time></trkpt><trkpt lat="44.358662940620036" lon="10.364663955878775"><ele>865.5</ele><time>2026-05-02T12:49:50.999Z</time></trkpt><trkpt lat="44.358721234455096" lon="10.364532241392542"><ele>866.25</ele><time>2026-05-02T12:49:51.999Z</time></trkpt><trkpt lat="44.35876108428536" lon="10.364398633179256"><ele>867.0</ele><time>2026-05-02T12:49:52.999Z</time></trkpt><trkpt lat="44.35882101286298" lon="10.364262920587695"><ele>867.0</ele><time>2026-05-02T12:49:53.999Z</time></trkpt><trkpt lat="44.35881443871517" lon="10.364084744837673"><ele>867.0</ele><time>2026-05-02T12:49:54.999Z</time></trkpt><trkpt lat="44.35867222709817" lon="10.363941014079147"><ele>867.0</ele><time>2026-05-02T12:49:55.999Z</time></trkpt><trkpt lat="44.35857510258211" lon="10.363786612087896"><ele>867.25</ele><time>2026-05-02T12:49:56.999Z</time></trkpt><trkpt lat="44.358485750721016" lon="10.363629846099176"><ele>867.5</ele><time>2026-05-02T12:49:57.999Z</time></trkpt><trkpt lat="44.35842901552666" lon="10.363457565908673"><ele>867.75</ele><time>2026-05-02T12:49:58.999Z</time></trkpt><trkpt lat="44.3584200957928" lon="10.363252324765114"><ele>868.0</ele><time>2026-05-02T12:49:59.999Z</time></trkpt><trkpt lat="44.358366434707534" lon="10.363054714642011"><ele>868.3333333333333</ele><time>2026-05-02T12:50:00.999Z</time></trkpt><trkpt lat="44.35832848450502" lon="10.362843822072929"><ele>868.6666666666667</ele><time>2026-05-02T12:50:01.999Z</time></trkpt><trkpt lat="44.35829208734601" lon="10.362627812318186"><ele>869.0</ele><time>2026-05-02T12:50:02.999Z</time></trkpt><trkpt lat="44.35825996289413" lon="10.362424465761464"><ele>869.0</ele><time>2026-05-02T12:50:03.999Z</time></trkpt><trkpt lat="44.35827342725375" lon="10.362232845399177"><ele>869.0</ele><time>2026-05-02T12:50:04.999Z</time></trkpt><trkpt lat="44.35831448068448" lon="10.3620432571193"><ele>869.0</ele><time>2026-05-02T12:50:05.999Z</time></trkpt><trkpt lat="44.35839984949359" lon="10.361847963418384"><ele>869.0</ele><time>2026-05-02T12:50:06.999Z</time></trkpt><trkpt lat="44.35847940727466" lon="10.361648026018061"><ele>871.0</ele><time>2026-05-02T12:50:07.999Z</time></trkpt><trkpt lat="44.358562597970014" lon="10.361484210515687"><ele>873.0</ele><time>2026-05-02T12:50:08.999Z</time></trkpt><trkpt lat="44.358617666737274" lon="10.361307294680483"><ele>875.0</ele><time>2026-05-02T12:50:09.999Z</time></trkpt><trkpt lat="44.35861901545116" lon="10.3610925335234"><ele>877.0</ele><time>2026-05-02T12:50:10.999Z</time></trkpt><trkpt lat="44.358611269652016" lon="10.360873119010426"><ele>878.25</ele><time>2026-05-02T12:50:11.999Z</time></trkpt><trkpt lat="44.358609398344434" lon="10.360640918092965"><ele>879.5</ele><time>2026-05-02T12:50:12.999Z</time></trkpt><trkpt lat="44.35860827162824" lon="10.360436766742982"><ele>880.75</ele><time>2026-05-02T12:50:13.999Z</time></trkpt><trkpt lat="44.358594164729666" lon="10.360246327092243"><ele>882.0</ele><time>2026-05-02T12:50:14.999Z</time></trkpt><trkpt lat="44.3585526941196" lon="10.360062276195334"><ele>882.0</ele><time>2026-05-02T12:50:15.999Z</time></trkpt><trkpt lat="44.35846922347883" lon="10.359888597079562"><ele>882.0</ele><time>2026-05-02T12:50:16.999Z</time></trkpt><trkpt lat="44.358351821959765" lon="10.359726165773841"><ele>882.0</ele><time>2026-05-02T12:50:17.999Z</time></trkpt><trkpt lat="44.35823219818367" lon="10.359584827664268"><ele>880.25</ele><time>2026-05-02T12:50:18.999Z</time></trkpt><trkpt lat="44.35812223523861" lon="10.359463856733692"><ele>878.5</ele><time>2026-05-02T12:50:19.999Z</time></trkpt><trkpt lat="44.358035888704045" lon="10.359361898480195"><ele>876.75</ele><time>2026-05-02T12:50:20.999Z</time></trkpt><trkpt lat="44.35793395238998" lon="10.359146604645172"><ele>875.0</ele><time>2026-05-02T12:50:21.999Z</time></trkpt><trkpt lat="44.35789681322715" lon="10.358946224860611"><ele>882.0</ele><time>2026-05-02T12:50:22.999Z</time></trkpt><trkpt lat="44.3578986720409" lon="10.358729909550355"><ele>889.0</ele><time>2026-05-02T12:50:23.999Z</time></trkpt><trkpt lat="44.35793385175903" lon="10.358502730924412"><ele>896.0</ele><time>2026-05-02T12:50:24.999Z</time></trkpt><trkpt lat="44.3579865198781" lon="10.358257054329178"><ele>891.3333333333334</ele><time>2026-05-02T12:50:25.999Z</time></trkpt><trkpt lat="44.3580369677208" lon="10.35801511824534"><ele>886.6666666666667</ele><time>2026-05-02T12:50:26.999Z</time></trkpt><trkpt lat="44.35808236949309" lon="10.357765102994678"><ele>882.0</ele><time>2026-05-02T12:50:27.999Z</time></trkpt><trkpt lat="44.35811545346984" lon="10.357506921379835"><ele>882.0</ele><time>2026-05-02T12:50:28.999Z</time></trkpt><trkpt lat="44.358126369830075" lon="10.35724814677391"><ele>882.0</ele><time>2026-05-02T12:50:29.999Z</time></trkpt><trkpt lat="44.35813616978596" lon="10.356960630204789"><ele>882.0</ele><time>2026-05-02T12:50:30.999Z</time></trkpt><trkpt lat="44.3581262024211" lon="10.35665704087593"><ele>883.0</ele><time>2026-05-02T12:50:31.999Z</time></trkpt><trkpt lat="44.35810658408096" lon="10.356418063434608"><ele>884.0</ele><time>2026-05-02T12:50:32.999Z</time></trkpt><trkpt lat="44.35810153685608" lon="10.356148992152972"><ele>885.0</ele><time>2026-05-02T12:50:33.999Z</time></trkpt><trkpt lat="44.35808842587705" lon="10.355895106317778"><ele>885.3333333333333</ele><time>2026-05-02T12:50:34.999Z</time></trkpt><trkpt lat="44.35805307568048" lon="10.35564491776186"><ele>885.6666666666666</ele><time>2026-05-02T12:50:35.999Z</time></trkpt><trkpt lat="44.35799145662799" lon="10.35538378097131"><ele>886.0</ele><time>2026-05-02T12:50:36.999Z</time></trkpt><trkpt lat="44.357920551310386" lon="10.35512898212109"><ele>891.3333333333333</ele><time>2026-05-02T12:50:37.999Z</time></trkpt><trkpt lat="44.35784473388585" lon="10.354891164959852"><ele>896.6666666666667</ele><time>2026-05-02T12:50:38.999Z</time></trkpt><trkpt lat="44.357776280546375" lon="10.354671511799532"><ele>902.0</ele><time>2026-05-02T12:50:39.999Z</time></trkpt><trkpt lat="44.35774964926732" lon="10.354448805812924"><ele>902.0</ele><time>2026-05-02T12:50:40.999Z</time></trkpt><trkpt lat="44.35774514643063" lon="10.354253196046539"><ele>902.0</ele><time>2026-05-02T12:50:41.999Z</time></trkpt><trkpt lat="44.357784838702145" lon="10.354079298054398"><ele>902.0</ele><time>2026-05-02T12:50:42.999Z</time></trkpt><trkpt lat="44.35786216183998" lon="10.353924472618514"><ele>902.0</ele><time>2026-05-02T12:50:43.999Z</time></trkpt><trkpt lat="44.35797497176414" lon="10.353771616082586"><ele>901.0</ele><time>2026-05-02T12:50:44.999Z</time></trkpt><trkpt lat="44.35811087854975" lon="10.353607446427654"><ele>900.0</ele><time>2026-05-02T12:50:45.999Z</time></trkpt><trkpt lat="44.35825220826095" lon="10.353432332683905"><ele>899.0</ele><time>2026-05-02T12:50:46.999Z</time></trkpt><trkpt lat="44.35838744926968" lon="10.353256865662551"><ele>899.0</ele><time>2026-05-02T12:50:47.999Z</time></trkpt><trkpt lat="44.35851733206366" lon="10.353100760066594"><ele>899.0</ele><time>2026-05-02T12:50:48.999Z</time></trkpt><trkpt lat="44.35863701015496" lon="10.352962025123876"><ele>899.0</ele><time>2026-05-02T12:50:49.999Z</time></trkpt><trkpt lat="44.358719623337294" lon="10.3528243531606"><ele>898.8000000000001</ele><time>2026-05-02T12:50:50.999Z</time></trkpt><trkpt lat="44.358785892181395" lon="10.35271750714859"><ele>898.6000000000001</ele><time>2026-05-02T12:50:51.999Z</time></trkpt><trkpt lat="44.35880652149897" lon="10.352581947534022"><ele>898.4</ele><time>2026-05-02T12:50:52.999Z</time></trkpt><trkpt lat="44.3587744478318" lon="10.352441605823518"><ele>898.2</ele><time>2026-05-02T12:50:53.999Z</time></trkpt><trkpt lat="44.3586824924855" lon="10.35232831489976"><ele>898.0</ele><time>2026-05-02T12:50:54.999Z</time></trkpt><trkpt lat="44.358515414105725" lon="10.352324384390021"><ele>898.0</ele><time>2026-05-02T12:50:55.999Z</time></trkpt><trkpt lat="44.35837950195875" lon="10.3523668173429"><ele>898.0</ele><time>2026-05-02T12:50:56.999Z</time></trkpt><trkpt lat="44.358234918105886" lon="10.35244801915473"><ele>898.0</ele><time>2026-05-02T12:50:57.999Z</time></trkpt><trkpt lat="44.35808406134188" lon="10.352510557040628"><ele>900.0</ele><time>2026-05-02T12:50:58.999Z</time></trkpt><trkpt lat="44.35793114472078" lon="10.352550590125682"><ele>902.0</ele><time>2026-05-02T12:50:59.999Z</time></trkpt><trkpt lat="44.35777143817338" lon="10.35252298900109"><ele>904.0</ele><time>2026-05-02T12:51:00.999Z</time></trkpt><trkpt lat="44.357627400154996" lon="10.352432302820729"><ele>904.0</ele><time>2026-05-02T12:51:01.999Z</time></trkpt><trkpt lat="44.357471726734175" lon="10.3523388890791"><ele>904.0</ele><time>2026-05-02T12:51:02.999Z</time></trkpt><trkpt lat="44.35730717859208" lon="10.35226620639106"><ele>904.0</ele><time>2026-05-02T12:51:03.999Z</time></trkpt><trkpt lat="44.357146008977544" lon="10.352183941555355"><ele>904.3333333333333</ele><time>2026-05-02T12:51:04.999Z</time></trkpt><trkpt lat="44.35697174740956" lon="10.352141295972501"><ele>904.6666666666667</ele><time>2026-05-02T12:51:05.999Z</time></trkpt><trkpt lat="44.35678727419475" lon="10.352116829162739"><ele>905.0</ele><time>2026-05-02T12:51:06.999Z</time></trkpt><trkpt lat="44.356589955784784" lon="10.352092901242328"><ele>905.0</ele><time>2026-05-02T12:51:07.999Z</time></trkpt><trkpt lat="44.35639152689835" lon="10.352042661914444"><ele>905.0</ele><time>2026-05-02T12:51:08.999Z</time></trkpt><trkpt lat="44.356196513105125" lon="10.352014897861762"><ele>905.0</ele><time>2026-05-02T12:51:09.999Z</time></trkpt><trkpt lat="44.35600244363584" lon="10.351987268266468"><ele>905.0</ele><time>2026-05-02T12:51:10.999Z</time></trkpt><trkpt lat="44.35580829780074" lon="10.351957579748422"><ele>905.0</ele><time>2026-05-02T12:51:11.999Z</time></trkpt><trkpt lat="44.35561517176855" lon="10.351923772987627"><ele>905.0</ele><time>2026-05-02T12:51:12.999Z</time></trkpt><trkpt lat="44.35545031416543" lon="10.351872727521878"><ele>905.0</ele><time>2026-05-02T12:51:13.999Z</time></trkpt><trkpt lat="44.35529032622543" lon="10.351807336251094"><ele>905.0</ele><time>2026-05-02T12:51:14.999Z</time></trkpt><trkpt lat="44.35513182657397" lon="10.35176164779156"><ele>905.0</ele><time>2026-05-02T12:51:15.999Z</time></trkpt><trkpt lat="44.35498335718879" lon="10.3517114168344"><ele>905.0</ele><time>2026-05-02T12:51:16.999Z</time></trkpt><trkpt lat="44.354826553656885" lon="10.351709016411892"><ele>905.0</ele><time>2026-05-02T12:51:17.999Z</time></trkpt><trkpt lat="44.35466169804965" lon="10.351759375189246"><ele>905.0</ele><time>2026-05-02T12:51:18.999Z</time></trkpt><trkpt lat="44.35449396123926" lon="10.351844261571072"><ele>903.3333333333334</ele><time>2026-05-02T12:51:19.999Z</time></trkpt><trkpt lat="44.35431493357495" lon="10.351895689969364"><ele>901.6666666666667</ele><time>2026-05-02T12:51:20.999Z</time></trkpt><trkpt lat="44.3541433200427" lon="10.351936676285067"><ele>900.0</ele><time>2026-05-02T12:51:21.999Z</time></trkpt><trkpt lat="44.35397224345258" lon="10.351934725215273"><ele>901.3333333333333</ele><time>2026-05-02T12:51:22.999Z</time></trkpt><trkpt lat="44.353784042387375" lon="10.351940606975232"><ele>902.6666666666666</ele><time>2026-05-02T12:51:23.999Z</time></trkpt><trkpt lat="44.35359248634105" lon="10.351873990931141"><ele>904.0</ele><time>2026-05-02T12:51:24.999Z</time></trkpt><trkpt lat="44.35340952128187" lon="10.351803523189801"><ele>904.0</ele><time>2026-05-02T12:51:25.999Z</time></trkpt><trkpt lat="44.35323037179076" lon="10.351744471171468"><ele>904.0</ele><time>2026-05-02T12:51:26.999Z</time></trkpt><trkpt lat="44.35306569038938" lon="10.351700596464674"><ele>904.0</ele><time>2026-05-02T12:51:27.999Z</time></trkpt><trkpt lat="44.352905126629736" lon="10.35170880736343"><ele>903.0</ele><time>2026-05-02T12:51:28.999Z</time></trkpt><trkpt lat="44.35274616046841" lon="10.351776208057048"><ele>902.0</ele><time>2026-05-02T12:51:29.999Z</time></trkpt><trkpt lat="44.352593465758034" lon="10.351878201479256"><ele>901.0</ele><time>2026-05-02T12:51:30.999Z</time></trkpt><trkpt lat="44.3524407917496" lon="10.352012199865436"><ele>901.0</ele><time>2026-05-02T12:51:31.999Z</time></trkpt><trkpt lat="44.35228800737836" lon="10.352156986822159"><ele>901.0</ele><time>2026-05-02T12:51:32.999Z</time></trkpt><trkpt lat="44.35213587011275" lon="10.352304598564022"><ele>901.0</ele><time>2026-05-02T12:51:33.999Z</time></trkpt><trkpt lat="44.3519870308368" lon="10.352461117424895"><ele>902.3333333333333</ele><time>2026-05-02T12:51:34.999Z</time></trkpt><trkpt lat="44.35183489232914" lon="10.35258321720023"><ele>903.6666666666667</ele><time>2026-05-02T12:51:35.999Z</time></trkpt><trkpt lat="44.35168402191982" lon="10.352678402370465"><ele>905.0</ele><time>2026-05-02T12:51:36.999Z</time></trkpt><trkpt lat="44.351514442367495" lon="10.352741538152253"><ele>904.0</ele><time>2026-05-02T12:51:37.999Z</time></trkpt><trkpt lat="44.35133504743702" lon="10.352799730194125"><ele>903.0</ele><time>2026-05-02T12:51:38.999Z</time></trkpt><trkpt lat="44.35115133145828" lon="10.352878611438111"><ele>902.0</ele><time>2026-05-02T12:51:39.999Z</time></trkpt><trkpt lat="44.35096304156051" lon="10.352913691880664"><ele>902.0</ele><time>2026-05-02T12:51:40.999Z</time></trkpt><trkpt lat="44.35078444657563" lon="10.35296805313399"><ele>902.0</ele><time>2026-05-02T12:51:41.999Z</time></trkpt><trkpt lat="44.350615453441264" lon="10.353020860687598"><ele>902.0</ele><time>2026-05-02T12:51:42.999Z</time></trkpt><trkpt lat="44.3504614099919" lon="10.353039884906723"><ele>905.3333333333334</ele><time>2026-05-02T12:51:43.999Z</time></trkpt><trkpt lat="44.35031936003766" lon="10.352997766427073"><ele>908.6666666666667</ele><time>2026-05-02T12:51:44.999Z</time></trkpt><trkpt lat="44.3501794650408" lon="10.352907987796018"><ele>912.0</ele><time>2026-05-02T12:51:45.999Z</time></trkpt><trkpt lat="44.35003642359734" lon="10.352807381753294"><ele>912.0</ele><time>2026-05-02T12:51:46.999Z</time></trkpt><trkpt lat="44.34989482415999" lon="10.352726635322627"><ele>912.0</ele><time>2026-05-02T12:51:47.999Z</time></trkpt><trkpt lat="44.34978006353627" lon="10.352668173031864"><ele>912.0</ele><time>2026-05-02T12:51:48.999Z</time></trkpt><trkpt lat="44.34964771071615" lon="10.352651377413757"><ele>912.0</ele><time>2026-05-02T12:51:49.999Z</time></trkpt><trkpt lat="44.34949950601524" lon="10.35267463277057"><ele>912.6666666666667</ele><time>2026-05-02T12:51:51Z</time></trkpt><trkpt lat="44.34935072247228" lon="10.352721349467531"><ele>913.3333333333334</ele><time>2026-05-02T12:51:52Z</time></trkpt><trkpt lat="44.34918939764518" lon="10.352742649746508"><ele>914.0</ele><time>2026-05-02T12:51:53Z</time></trkpt><trkpt lat="44.34903250280253" lon="10.352843745377879"><ele>915.0</ele><time>2026-05-02T12:51:54Z</time></trkpt><trkpt lat="44.348873092554385" lon="10.352947152462"><ele>916.0</ele><time>2026-05-02T12:51:55Z</time></trkpt><trkpt lat="44.34871839203463" lon="10.353060258656345"><ele>917.0</ele><time>2026-05-02T12:51:56Z</time></trkpt><trkpt lat="44.34855977591664" lon="10.353146612181277"><ele>917.0</ele><time>2026-05-02T12:51:57Z</time></trkpt><trkpt lat="44.34841260400791" lon="10.353247732361625"><ele>917.0</ele><time>2026-05-02T12:51:58Z</time></trkpt><trkpt lat="44.348288202692785" lon="10.353363433867575"><ele>917.0</ele><time>2026-05-02T12:51:59Z</time></trkpt><trkpt lat="44.34816383663862" lon="10.353464389274977"><ele>917.0</ele><time>2026-05-02T12:52:00Z</time></trkpt><trkpt lat="44.348062534166054" lon="10.353599565632601"><ele>917.0</ele><time>2026-05-02T12:52:01Z</time></trkpt><trkpt lat="44.34799282737881" lon="10.353764859519007"><ele>917.0</ele><time>2026-05-02T12:52:02Z</time></trkpt><trkpt lat="44.34795945084126" lon="10.353948918791387"><ele>917.0</ele><time>2026-05-02T12:52:03Z</time></trkpt><trkpt lat="44.34796593007334" lon="10.354164660617656"><ele>912.3333333333334</ele><time>2026-05-02T12:52:04Z</time></trkpt><trkpt lat="44.348008694442875" lon="10.354393339032994"><ele>907.6666666666667</ele><time>2026-05-02T12:52:05Z</time></trkpt><trkpt lat="44.34803177694822" lon="10.354622782445906"><ele>903.0</ele><time>2026-05-02T12:52:06Z</time></trkpt><trkpt lat="44.34804372034362" lon="10.354848035570686"><ele>905.0</ele><time>2026-05-02T12:52:07Z</time></trkpt><trkpt lat="44.34802470287446" lon="10.355070678838574"><ele>907.0</ele><time>2026-05-02T12:52:08Z</time></trkpt><trkpt lat="44.3479885283995" lon="10.355288966257067"><ele>909.0</ele><time>2026-05-02T12:52:09Z</time></trkpt><trkpt lat="44.34794654085071" lon="10.355488522871592"><ele>911.75</ele><time>2026-05-02T12:52:10Z</time></trkpt><trkpt lat="44.347889052430624" lon="10.355669666561296"><ele>914.5</ele><time>2026-05-02T12:52:11Z</time></trkpt><trkpt lat="44.347789838599034" lon="10.355809166424347"><ele>917.25</ele><time>2026-05-02T12:52:12Z</time></trkpt><trkpt lat="44.3476665499745" lon="10.355923764840979"><ele>920.0</ele><time>2026-05-02T12:52:13Z</time></trkpt><trkpt lat="44.34753121386999" lon="10.355991086685084"><ele>920.0</ele><time>2026-05-02T12:52:14Z</time></trkpt><trkpt lat="44.34738240760163" lon="10.356026945544398"><ele>920.0</ele><time>2026-05-02T12:52:15Z</time></trkpt><trkpt lat="44.34722887073714" lon="10.35600096368855"><ele>920.0</ele><time>2026-05-02T12:52:16Z</time></trkpt><trkpt lat="44.34708653624408" lon="10.355979109671145"><ele>920.0</ele><time>2026-05-02T12:52:17Z</time></trkpt><trkpt lat="44.34695447799575" lon="10.355955133866575"><ele>920.75</ele><time>2026-05-02T12:52:18Z</time></trkpt><trkpt lat="44.34683927012349" lon="10.355922570280812"><ele>921.5</ele><time>2026-05-02T12:52:19Z</time></trkpt><trkpt lat="44.34673624504429" lon="10.355859738563739"><ele>922.25</ele><time>2026-05-02T12:52:20Z</time></trkpt><trkpt lat="44.346639136636924" lon="10.355773702224194"><ele>923.0</ele><time>2026-05-02T12:52:21Z</time></trkpt><trkpt lat="44.346538377759074" lon="10.355704066611628"><ele>923.0</ele><time>2026-05-02T12:52:22Z</time></trkpt><trkpt lat="44.34644606377439" lon="10.355612635588754"><ele>923.0</ele><time>2026-05-02T12:52:23Z</time></trkpt><trkpt lat="44.34634040112699" lon="10.355531539268137"><ele>923.0</ele><time>2026-05-02T12:52:24Z</time></trkpt><trkpt lat="44.34622522254624" lon="10.355467423231724"><ele>923.0</ele><time>2026-05-02T12:52:25Z</time></trkpt><trkpt lat="44.346118134169764" lon="10.35543343588228"><ele>922.6666666666667</ele><time>2026-05-02T12:52:26Z</time></trkpt><trkpt lat="44.34602761613282" lon="10.355427730464594"><ele>922.3333333333334</ele><time>2026-05-02T12:52:27Z</time></trkpt><trkpt lat="44.345951820114315" lon="10.355465722637064"><ele>922.0</ele><time>2026-05-02T12:52:28Z</time></trkpt><trkpt lat="44.34588323595315" lon="10.355536214437022"><ele>921.6666666666667</ele><time>2026-05-02T12:52:29Z</time></trkpt><trkpt lat="44.34580349793" lon="10.355598902520166"><ele>921.3333333333334</ele><time>2026-05-02T12:52:30Z</time></trkpt><trkpt lat="44.34573209358365" lon="10.355678279223273"><ele>921.0</ele><time>2026-05-02T12:52:31Z</time></trkpt><trkpt lat="44.34565685813546" lon="10.355739579339756"><ele>921.0</ele><time>2026-05-02T12:52:32Z</time></trkpt><trkpt lat="44.34557822268281" lon="10.35577063532285"><ele>920.9999999999999</ele><time>2026-05-02T12:52:33Z</time></trkpt><trkpt lat="44.345500195912365" lon="10.355768313097679"><ele>920.9999999999999</ele><time>2026-05-02T12:52:34Z</time></trkpt><trkpt lat="44.345419343694815" lon="10.355754928411068"><ele>921.0</ele><time>2026-05-02T12:52:35Z</time></trkpt><trkpt lat="44.34533315483295" lon="10.355679638332852"><ele>921.0</ele><time>2026-05-02T12:52:36Z</time></trkpt><trkpt lat="44.345239084628204" lon="10.355589076703207"><ele>919.25</ele><time>2026-05-02T12:52:37Z</time></trkpt><trkpt lat="44.34514265886504" lon="10.355492581044052"><ele>917.5</ele><time>2026-05-02T12:52:38Z</time></trkpt><trkpt lat="44.34502429050241" lon="10.355464225170586"><ele>915.75</ele><time>2026-05-02T12:52:39Z</time></trkpt><trkpt lat="44.34489143062219" lon="10.355413775333043"><ele>914.0</ele><time>2026-05-02T12:52:40Z</time></trkpt><trkpt lat="44.344702676784244" lon="10.35537594420643"><ele>914.0</ele><time>2026-05-02T12:52:41Z</time></trkpt><trkpt lat="44.3444650819301" lon="10.355347176314543"><ele>914.0</ele><time>2026-05-02T12:52:42Z</time></trkpt><trkpt lat="44.34423619319042" lon="10.355357110459014"><ele>914.0</ele><time>2026-05-02T12:52:43Z</time></trkpt><trkpt lat="44.34405806783138" lon="10.355342620992555"><ele>914.0</ele><time>2026-05-02T12:52:44Z</time></trkpt><trkpt lat="44.34390330695888" lon="10.355323612590485"><ele>914.0</ele><time>2026-05-02T12:52:45Z</time></trkpt><trkpt lat="44.3437683924707" lon="10.355284064169624"><ele>915.25</ele><time>2026-05-02T12:52:46Z</time></trkpt><trkpt lat="44.343655978978596" lon="10.355196160467381"><ele>916.5</ele><time>2026-05-02T12:52:47Z</time></trkpt><trkpt lat="44.34358751277391" lon="10.355033598056991"><ele>917.75</ele><time>2026-05-02T12:52:48Z</time></trkpt><trkpt lat="44.343551741040365" lon="10.354835780736092"><ele>919.0</ele><time>2026-05-02T12:52:49Z</time></trkpt><trkpt lat="44.34351158745683" lon="10.354605895812254"><ele>919.0</ele><time>2026-05-02T12:52:50Z</time></trkpt><trkpt lat="44.34349585566432" lon="10.35437159185511"><ele>919.0</ele><time>2026-05-02T12:52:51Z</time></trkpt><trkpt lat="44.343470384705775" lon="10.354152832092533"><ele>919.0</ele><time>2026-05-02T12:52:52Z</time></trkpt><trkpt lat="44.34342903625987" lon="10.353933029366013"><ele>916.6666666666666</ele><time>2026-05-02T12:52:53Z</time></trkpt><trkpt lat="44.34337837625646" lon="10.353711295175108"><ele>914.3333333333333</ele><time>2026-05-02T12:52:54Z</time></trkpt><trkpt lat="44.343312703167584" lon="10.353485999696696"><ele>912.0</ele><time>2026-05-02T12:52:55Z</time></trkpt><trkpt lat="44.34323260936259" lon="10.353278231477988"><ele>912.0</ele><time>2026-05-02T12:52:56Z</time></trkpt><trkpt lat="44.34314138879297" lon="10.353079208523033"><ele>912.0</ele><time>2026-05-02T12:52:57Z</time></trkpt><trkpt lat="44.34305817967419" lon="10.352909083475058"><ele>912.0</ele><time>2026-05-02T12:52:58Z</time></trkpt><trkpt lat="44.34296761146659" lon="10.35276752171168"><ele>912.25</ele><time>2026-05-02T12:52:59Z</time></trkpt><trkpt lat="44.34285896787499" lon="10.352671108539697"><ele>912.5</ele><time>2026-05-02T12:53:00Z</time></trkpt><trkpt lat="44.34272488687478" lon="10.35261781556014"><ele>912.75</ele><time>2026-05-02T12:53:01Z</time></trkpt><trkpt lat="44.34256699456085" lon="10.352620055502612"><ele>913.0</ele><time>2026-05-02T12:53:02Z</time></trkpt><trkpt lat="44.34238942404486" lon="10.352665701681573"><ele>912.0</ele><time>2026-05-02T12:53:03Z</time></trkpt><trkpt lat="44.34221439921989" lon="10.352707256404882"><ele>911.0</ele><time>2026-05-02T12:53:04Z</time></trkpt><trkpt lat="44.342030778982526" lon="10.352718509041503"><ele>910.0</ele><time>2026-05-02T12:53:05Z</time></trkpt><trkpt lat="44.3418505526803" lon="10.352749157510045"><ele>910.0</ele><time>2026-05-02T12:53:06Z</time></trkpt><trkpt lat="44.341662819763435" lon="10.35278680861352"><ele>910.0</ele><time>2026-05-02T12:53:07Z</time></trkpt><trkpt lat="44.34147858816547" lon="10.352822289262503"><ele>910.0</ele><time>2026-05-02T12:53:08Z</time></trkpt><trkpt lat="44.34129202330207" lon="10.3528552087721"><ele>909.3333333333333</ele><time>2026-05-02T12:53:09Z</time></trkpt><trkpt lat="44.341101649918485" lon="10.352890123755847"><ele>908.6666666666667</ele><time>2026-05-02T12:53:10Z</time></trkpt><trkpt lat="44.340910279513714" lon="10.35292554001306"><ele>908.0</ele><time>2026-05-02T12:53:11Z</time></trkpt><trkpt lat="44.340725737093784" lon="10.352962190418282"><ele>907.6666666666667</ele><time>2026-05-02T12:53:12Z</time></trkpt><trkpt lat="44.34054828897154" lon="10.35299464715051"><ele>907.3333333333333</ele><time>2026-05-02T12:53:13Z</time></trkpt><trkpt lat="44.34038747207432" lon="10.353000052218931"><ele>907.0</ele><time>2026-05-02T12:53:13.999Z</time></trkpt><trkpt lat="44.34023649340518" lon="10.352950554203305"><ele>907.0</ele><time>2026-05-02T12:53:14.999Z</time></trkpt><trkpt lat="44.340113520812565" lon="10.35284273778329"><ele>907.0</ele><time>2026-05-02T12:53:15.999Z</time></trkpt><trkpt lat="44.339993531298006" lon="10.352761018908517"><ele>907.0</ele><time>2026-05-02T12:53:16.999Z</time></trkpt><trkpt lat="44.339903893195704" lon="10.35269660625714"><ele>907.0</ele><time>2026-05-02T12:53:17.999Z</time></trkpt><trkpt lat="44.33980889247424" lon="10.352709185781398"><ele>907.0</ele><time>2026-05-02T12:53:18.999Z</time></trkpt><trkpt lat="44.33972306327699" lon="10.352815017604218"><ele>907.0</ele><time>2026-05-02T12:53:19.999Z</time></trkpt><trkpt lat="44.33965563037105" lon="10.352988552564462"><ele>907.0</ele><time>2026-05-02T12:53:20.999Z</time></trkpt><trkpt lat="44.33964295742157" lon="10.353233278538697"><ele>907.0</ele><time>2026-05-02T12:53:21.999Z</time></trkpt><trkpt lat="44.33959359963634" lon="10.353443457298798"><ele>906.0</ele><time>2026-05-02T12:53:22.999Z</time></trkpt><trkpt lat="44.339539524587515" lon="10.353648162532808"><ele>905.0</ele><time>2026-05-02T12:53:23.999Z</time></trkpt><trkpt lat="44.33946738505531" lon="10.353850778227748"><ele>904.0</ele><time>2026-05-02T12:53:24.999Z</time></trkpt><trkpt lat="44.339378777797734" lon="10.354063882848429"><ele>904.0</ele><time>2026-05-02T12:53:25.999Z</time></trkpt><trkpt lat="44.33928997338763" lon="10.354264070976642"><ele>904.0</ele><time>2026-05-02T12:53:26.999Z</time></trkpt><trkpt lat="44.33921150831347" lon="10.354447543674764"><ele>904.0</ele><time>2026-05-02T12:53:27.999Z</time></trkpt><trkpt lat="44.339127925834106" lon="10.354592843866753"><ele>904.0</ele><time>2026-05-02T12:53:28.999Z</time></trkpt><trkpt lat="44.33900736568292" lon="10.354654841730987"><ele>904.0</ele><time>2026-05-02T12:53:29.999Z</time></trkpt><trkpt lat="44.33886420985256" lon="10.3547047190109"><ele>904.0</ele><time>2026-05-02T12:53:30.999Z</time></trkpt><trkpt lat="44.33872180157926" lon="10.354778037472359"><ele>904.0</ele><time>2026-05-02T12:53:31.999Z</time></trkpt><trkpt lat="44.338585037406155" lon="10.354837019741835"><ele>902.75</ele><time>2026-05-02T12:53:32.999Z</time></trkpt><trkpt lat="44.338462174876256" lon="10.354935036145234"><ele>901.5</ele><time>2026-05-02T12:53:33.999Z</time></trkpt><trkpt lat="44.338370050968194" lon="10.355077523129621"><ele>900.25</ele><time>2026-05-02T12:53:34.999Z</time></trkpt><trkpt lat="44.33832387705586" lon="10.355266609363182"><ele>899.0</ele><time>2026-05-02T12:53:35.999Z</time></trkpt><trkpt lat="44.33828380081253" lon="10.355468753188344"><ele>900.0</ele><time>2026-05-02T12:53:36.999Z</time></trkpt><trkpt lat="44.33820473581626" lon="10.355662294464796"><ele>901.0</ele><time>2026-05-02T12:53:37.999Z</time></trkpt><trkpt lat="44.33814544979684" lon="10.355874342282089"><ele>902.0</ele><time>2026-05-02T12:53:38.999Z</time></trkpt><trkpt lat="44.33808814938189" lon="10.356071760051737"><ele>902.0</ele><time>2026-05-02T12:53:39.999Z</time></trkpt><trkpt lat="44.33805182734074" lon="10.356274059332968"><ele>902.0</ele><time>2026-05-02T12:53:40.999Z</time></trkpt><trkpt lat="44.33801665220949" lon="10.35647759310751"><ele>902.0</ele><time>2026-05-02T12:53:41.999Z</time></trkpt><trkpt lat="44.33796288531336" lon="10.356665375343306"><ele>902.0</ele><time>2026-05-02T12:53:42.999Z</time></trkpt><trkpt lat="44.33786880866156" lon="10.356817317913464"><ele>899.0</ele><time>2026-05-02T12:53:43.999Z</time></trkpt><trkpt lat="44.33775351813294" lon="10.356982786559987"><ele>896.0</ele><time>2026-05-02T12:53:44.999Z</time></trkpt><trkpt lat="44.33763697539081" lon="10.357140071009383"><ele>893.0</ele><time>2026-05-02T12:53:45.999Z</time></trkpt><trkpt lat="44.33752036908273" lon="10.357274019704533"><ele>893.0</ele><time>2026-05-02T12:53:46.999Z</time></trkpt><trkpt lat="44.33739505199838" lon="10.357370258249999"><ele>893.0</ele><time>2026-05-02T12:53:47.999Z</time></trkpt><trkpt lat="44.33725996651077" lon="10.357370149514983"><ele>893.0</ele><time>2026-05-02T12:53:48.999Z</time></trkpt><trkpt lat="44.337103827058755" lon="10.357351909239224"><ele>893.0</ele><time>2026-05-02T12:53:49.999Z</time></trkpt><trkpt lat="44.336950340196466" lon="10.357341354460301"><ele>891.25</ele><time>2026-05-02T12:53:50.999Z</time></trkpt><trkpt lat="44.3368020849154" lon="10.357359725676606"><ele>889.5</ele><time>2026-05-02T12:53:51.999Z</time></trkpt><trkpt lat="44.336672615885384" lon="10.357441595129984"><ele>887.75</ele><time>2026-05-02T12:53:52.999Z</time></trkpt><trkpt lat="44.336551380914585" lon="10.35757395428041"><ele>886.0</ele><time>2026-05-02T12:53:53.999Z</time></trkpt><trkpt lat="44.336481528103285" lon="10.357770023354563"><ele>886.0</ele><time>2026-05-02T12:53:54.999Z</time></trkpt><trkpt lat="44.33646370587275" lon="10.358000737643412"><ele>886.0</ele><time>2026-05-02T12:53:55.999Z</time></trkpt><trkpt lat="44.33651856868238" lon="10.358222827692641"><ele>886.0</ele><time>2026-05-02T12:53:57.001Z</time></trkpt><trkpt lat="44.336592445839976" lon="10.358438564187248"><ele>886.0</ele><time>2026-05-02T12:53:58.001Z</time></trkpt><trkpt lat="44.336656257486005" lon="10.358631338283121"><ele>886.0</ele><time>2026-05-02T12:53:59.001Z</time></trkpt><trkpt lat="44.33669422721927" lon="10.358829209091665"><ele>886.0</ele><time>2026-05-02T12:54:00.001Z</time></trkpt><trkpt lat="44.33668113469299" lon="10.359036875561788"><ele>886.0</ele><time>2026-05-02T12:54:01.001Z</time></trkpt><trkpt lat="44.33656996249216" lon="10.359184480830079"><ele>886.5</ele><time>2026-05-02T12:54:02.001Z</time></trkpt><trkpt lat="44.33644721885934" lon="10.35926554248021"><ele>887.0</ele><time>2026-05-02T12:54:03.001Z</time></trkpt><trkpt lat="44.33631204765238" lon="10.3592754823936"><ele>887.5</ele><time>2026-05-02T12:54:04.001Z</time></trkpt><trkpt lat="44.336149675752644" lon="10.359265232438847"><ele>888.0</ele><time>2026-05-02T12:54:05.001Z</time></trkpt><trkpt lat="44.335989602052244" lon="10.359190142435798"><ele>886.6666666666667</ele><time>2026-05-02T12:54:06.001Z</time></trkpt><trkpt lat="44.335841117137015" lon="10.359067244826972"><ele>885.3333333333334</ele><time>2026-05-02T12:54:07.001Z</time></trkpt><trkpt lat="44.335687247097255" lon="10.35892729717913"><ele>884.0</ele><time>2026-05-02T12:54:08.001Z</time></trkpt><trkpt lat="44.33553193102722" lon="10.35878427942048"><ele>883.0</ele><time>2026-05-02T12:54:09.001Z</time></trkpt><trkpt lat="44.33537816789466" lon="10.358642046080593"><ele>882.0</ele><time>2026-05-02T12:54:10.001Z</time></trkpt><trkpt lat="44.335216372761735" lon="10.358514454881826"><ele>881.0</ele><time>2026-05-02T12:54:11Z</time></trkpt><trkpt lat="44.335065801357786" lon="10.35837217904127"><ele>881.0</ele><time>2026-05-02T12:54:12Z</time></trkpt><trkpt lat="44.33490895543646" lon="10.358230749242528"><ele>881.0</ele><time>2026-05-02T12:54:13Z</time></trkpt><trkpt lat="44.33474744399966" lon="10.358117062637755"><ele>881.0</ele><time>2026-05-02T12:54:14Z</time></trkpt><trkpt lat="44.334571278600706" lon="10.358043735702779"><ele>878.3333333333334</ele><time>2026-05-02T12:54:15Z</time></trkpt><trkpt lat="44.3343839051188" lon="10.358000226210638"><ele>875.6666666666667</ele><time>2026-05-02T12:54:16Z</time></trkpt><trkpt lat="44.3341880490258" lon="10.3579662815511"><ele>873.0</ele><time>2026-05-02T12:54:17Z</time></trkpt><trkpt lat="44.334014690115424" lon="10.357862838912567"><ele>876.0</ele><time>2026-05-02T12:54:18Z</time></trkpt><trkpt lat="44.33387384315921" lon="10.357708334785366"><ele>879.0</ele><time>2026-05-02T12:54:19Z</time></trkpt><trkpt lat="44.33371597410669" lon="10.357549207110523"><ele>882.0</ele><time>2026-05-02T12:54:20Z</time></trkpt><trkpt lat="44.333550514265326" lon="10.357416628128085"><ele>882.0</ele><time>2026-05-02T12:54:21Z</time></trkpt><trkpt lat="44.33339111316992" lon="10.357285309909534"><ele>882.0</ele><time>2026-05-02T12:54:22Z</time></trkpt><trkpt lat="44.33321400181259" lon="10.35719925696812"><ele>882.0</ele><time>2026-05-02T12:54:23Z</time></trkpt><trkpt lat="44.3330349682161" lon="10.357154908472385"><ele>879.0</ele><time>2026-05-02T12:54:24Z</time></trkpt><trkpt lat="44.332879561590794" lon="10.357063074390878"><ele>876.0</ele><time>2026-05-02T12:54:25Z</time></trkpt><trkpt lat="44.33274370391742" lon="10.356940067014959"><ele>873.0</ele><time>2026-05-02T12:54:26Z</time></trkpt><trkpt lat="44.332570884001726" lon="10.356885676439623"><ele>873.0</ele><time>2026-05-02T12:54:27Z</time></trkpt><trkpt lat="44.33250053966172" lon="10.356594341675148"><ele>873.0</ele><time>2026-05-02T12:54:28Z</time></trkpt><trkpt lat="44.33244899641027" lon="10.356330072143377"><ele>873.0</ele><time>2026-05-02T12:54:29Z</time></trkpt><trkpt lat="44.332423868352535" lon="10.356051212319256"><ele>870.6666666666667</ele><time>2026-05-02T12:54:30Z</time></trkpt><trkpt lat="44.33239425350763" lon="10.355788906831963"><ele>868.3333333333334</ele><time>2026-05-02T12:54:31Z</time></trkpt><trkpt lat="44.33234016669706" lon="10.35555156466564"><ele>866.0</ele><time>2026-05-02T12:54:32Z</time></trkpt><trkpt lat="44.332243614221845" lon="10.355333114740668"><ele>865.6666666666667</ele><time>2026-05-02T12:54:33Z</time></trkpt><trkpt lat="44.332114835905706" lon="10.355148099646769"><ele>865.3333333333333</ele><time>2026-05-02T12:54:34Z</time></trkpt><trkpt lat="44.33196658204537" lon="10.354995789711603"><ele>865.0</ele><time>2026-05-02T12:54:35Z</time></trkpt><trkpt lat="44.33183165932165" lon="10.354848522664609"><ele>865.0</ele><time>2026-05-02T12:54:36Z</time></trkpt><trkpt lat="44.33168135062241" lon="10.354740506824719"><ele>865.0</ele><time>2026-05-02T12:54:37Z</time></trkpt><trkpt lat="44.33150986271497" lon="10.35466872090108"><ele>865.0</ele><time>2026-05-02T12:54:38Z</time></trkpt><trkpt lat="44.331332702075244" lon="10.354636050399975"><ele>861.0</ele><time>2026-05-02T12:54:39Z</time></trkpt><trkpt lat="44.33116654268907" lon="10.354628911682871"><ele>857.0</ele><time>2026-05-02T12:54:40Z</time></trkpt><trkpt lat="44.331009404197545" lon="10.354618746286766"><ele>853.0</ele><time>2026-05-02T12:54:41Z</time></trkpt><trkpt lat="44.330873919507155" lon="10.354628580772056"><ele>853.0</ele><time>2026-05-02T12:54:42Z</time></trkpt><trkpt lat="44.33077526233077" lon="10.354700346352134"><ele>853.0</ele><time>2026-05-02T12:54:43Z</time></trkpt><trkpt lat="44.33071155728936" lon="10.354860822573695"><ele>853.0</ele><time>2026-05-02T12:54:44Z</time></trkpt><trkpt lat="44.330694183920876" lon="10.35507099208044"><ele>853.0</ele><time>2026-05-02T12:54:45Z</time></trkpt><trkpt lat="44.330728504518085" lon="10.355297354117669"><ele>856.6666666666666</ele><time>2026-05-02T12:54:46Z</time></trkpt><trkpt lat="44.33078542054824" lon="10.355525772283647"><ele>860.3333333333333</ele><time>2026-05-02T12:54:47Z</time></trkpt><trkpt lat="44.33079941564017" lon="10.355759789387934"><ele>864.0</ele><time>2026-05-02T12:54:48Z</time></trkpt><trkpt lat="44.33079863304199" lon="10.355980441682455"><ele>865.0</ele><time>2026-05-02T12:54:49Z</time></trkpt><trkpt lat="44.33076429107619" lon="10.35621725299143"><ele>866.0</ele><time>2026-05-02T12:54:50Z</time></trkpt><trkpt lat="44.33070742707826" lon="10.356449358053501"><ele>867.0</ele><time>2026-05-02T12:54:51Z</time></trkpt><trkpt lat="44.330668840530485" lon="10.356673147505981"><ele>868.0</ele><time>2026-05-02T12:54:52Z</time></trkpt><trkpt lat="44.33061604922944" lon="10.35685908655454"><ele>869.0</ele><time>2026-05-02T12:54:53Z</time></trkpt><trkpt lat="44.33059412891279" lon="10.357030533087203"><ele>870.0</ele><time>2026-05-02T12:54:54Z</time></trkpt><trkpt lat="44.33063477504213" lon="10.357196237459211"><ele>871.0</ele><time>2026-05-02T12:54:55Z</time></trkpt><trkpt lat="44.33072585697209" lon="10.357357985046896"><ele>871.0</ele><time>2026-05-02T12:54:56Z</time></trkpt><trkpt lat="44.33085340350598" lon="10.357511579920029"><ele>871.0</ele><time>2026-05-02T12:54:57Z</time></trkpt><trkpt lat="44.33097071373706" lon="10.357674956409518"><ele>871.0</ele><time>2026-05-02T12:54:58Z</time></trkpt><trkpt lat="44.33107414416018" lon="10.357843238175198"><ele>871.0</ele><time>2026-05-02T12:54:59Z</time></trkpt><trkpt lat="44.33117447128386" lon="10.358000963847202"><ele>871.0</ele><time>2026-05-02T12:55:00Z</time></trkpt><trkpt lat="44.331237062205886" lon="10.358172709383094"><ele>871.0</ele><time>2026-05-02T12:55:01Z</time></trkpt><trkpt lat="44.3312662552546" lon="10.358358823237"><ele>871.0</ele><time>2026-05-02T12:55:02Z</time></trkpt><trkpt lat="44.33120562083481" lon="10.358549037848697"><ele>871.0</ele><time>2026-05-02T12:55:03Z</time></trkpt><trkpt lat="44.33114924229866" lon="10.358771833309463"><ele>871.0</ele><time>2026-05-02T12:55:04Z</time></trkpt><trkpt lat="44.33110287375874" lon="10.358999764499561"><ele>871.0</ele><time>2026-05-02T12:55:05Z</time></trkpt><trkpt lat="44.33106242232436" lon="10.359231275431494"><ele>871.0</ele><time>2026-05-02T12:55:06Z</time></trkpt><trkpt lat="44.33104961484589" lon="10.359448469999265"><ele>871.0</ele><time>2026-05-02T12:55:07Z</time></trkpt><trkpt lat="44.33104766260297" lon="10.359658053666372"><ele>871.0</ele><time>2026-05-02T12:55:08Z</time></trkpt><trkpt lat="44.33098913684626" lon="10.359838647807061"><ele>871.0</ele><time>2026-05-02T12:55:09Z</time></trkpt><trkpt lat="44.3308996174684" lon="10.359982736225357"><ele>873.5</ele><time>2026-05-02T12:55:10Z</time></trkpt><trkpt lat="44.3307908190943" lon="10.360088459018675"><ele>876.0</ele><time>2026-05-02T12:55:11Z</time></trkpt><trkpt lat="44.330711120754124" lon="10.360214550601661"><ele>878.5</ele><time>2026-05-02T12:55:12Z</time></trkpt><trkpt lat="44.33067043122263" lon="10.360365276752502"><ele>881.0</ele><time>2026-05-02T12:55:13Z</time></trkpt><trkpt lat="44.330701500946496" lon="10.360563222899518"><ele>882.6666666666667</ele><time>2026-05-02T12:55:14Z</time></trkpt><trkpt lat="44.330781201599315" lon="10.360776688669388"><ele>884.3333333333333</ele><time>2026-05-02T12:55:15Z</time></trkpt><trkpt lat="44.33085344144757" lon="10.360994883917948"><ele>886.0</ele><time>2026-05-02T12:55:16Z</time></trkpt><trkpt lat="44.330901622465994" lon="10.36123179744696"><ele>886.0</ele><time>2026-05-02T12:55:17Z</time></trkpt><trkpt lat="44.33093423070257" lon="10.361478757152861"><ele>886.0</ele><time>2026-05-02T12:55:18Z</time></trkpt><trkpt lat="44.33095999355053" lon="10.361726035632898"><ele>886.0</ele><time>2026-05-02T12:55:19Z</time></trkpt><trkpt lat="44.330988721943726" lon="10.36196803610799"><ele>886.6666666666666</ele><time>2026-05-02T12:55:20Z</time></trkpt><trkpt lat="44.331018675597505" lon="10.362202650953673"><ele>887.3333333333333</ele><time>2026-05-02T12:55:21Z</time></trkpt><trkpt lat="44.331052368457605" lon="10.362426453218275"><ele>888.0</ele><time>2026-05-02T12:55:22Z</time></trkpt><trkpt lat="44.33107689207474" lon="10.362647440582197"><ele>888.0</ele><time>2026-05-02T12:55:23Z</time></trkpt><trkpt lat="44.33109829225862" lon="10.362843977841756"><ele>888.0</ele><time>2026-05-02T12:55:24Z</time></trkpt><trkpt lat="44.331121042494246" lon="10.363021375814187"><ele>888.0</ele><time>2026-05-02T12:55:25Z</time></trkpt><trkpt lat="44.331143425295565" lon="10.36318067359279"><ele>888.0</ele><time>2026-05-02T12:55:26Z</time></trkpt><trkpt lat="44.331135053494336" lon="10.36334736571942"><ele>888.5</ele><time>2026-05-02T12:55:27Z</time></trkpt><trkpt lat="44.33109973016938" lon="10.363520815421571"><ele>889.0</ele><time>2026-05-02T12:55:28Z</time></trkpt><trkpt lat="44.331024399314" lon="10.363696566586388"><ele>889.5</ele><time>2026-05-02T12:55:29Z</time></trkpt><trkpt lat="44.33094644820979" lon="10.363885576680618"><ele>890.0</ele><time>2026-05-02T12:55:30Z</time></trkpt><trkpt lat="44.330909739263866" lon="10.364078085916077"><ele>892.3333333333334</ele><time>2026-05-02T12:55:31Z</time></trkpt><trkpt lat="44.33089161217297" lon="10.364297554583473"><ele>894.6666666666667</ele><time>2026-05-02T12:55:32Z</time></trkpt><trkpt lat="44.33089278017153" lon="10.364530727969031"><ele>897.0</ele><time>2026-05-02T12:55:33Z</time></trkpt><trkpt lat="44.33085554369531" lon="10.364746285820267"><ele>900.3333333333333</ele><time>2026-05-02T12:55:34Z</time></trkpt><trkpt lat="44.33079189646133" lon="10.36495060570856"><ele>903.6666666666666</ele><time>2026-05-02T12:55:35Z</time></trkpt><trkpt lat="44.33071463232251" lon="10.365175053102506"><ele>907.0</ele><time>2026-05-02T12:55:36Z</time></trkpt><trkpt lat="44.330645839937695" lon="10.365380933266547"><ele>906.0</ele><time>2026-05-02T12:55:37Z</time></trkpt><trkpt lat="44.3305797070628" lon="10.365568147620033"><ele>905.0</ele><time>2026-05-02T12:55:38Z</time></trkpt><trkpt lat="44.33049819713844" lon="10.365702918863287"><ele>904.0</ele><time>2026-05-02T12:55:39Z</time></trkpt><trkpt lat="44.33038789174529" lon="10.365779817785162"><ele>903.0</ele><time>2026-05-02T12:55:40Z</time></trkpt><trkpt lat="44.33024200880396" lon="10.365856623817677"><ele>903.0</ele><time>2026-05-02T12:55:41Z</time></trkpt><trkpt lat="44.33010457548412" lon="10.365939504048118"><ele>903.0</ele><time>2026-05-02T12:55:42Z</time></trkpt><trkpt lat="44.32999574717254" lon="10.366041620286904"><ele>903.0</ele><time>2026-05-02T12:55:43Z</time></trkpt><trkpt lat="44.329934529415915" lon="10.366200756257955"><ele>903.0</ele><time>2026-05-02T12:55:44Z</time></trkpt><trkpt lat="44.32989994758951" lon="10.366406490919212"><ele>905.5</ele><time>2026-05-02T12:55:45Z</time></trkpt><trkpt lat="44.32984860351597" lon="10.366599441704492"><ele>908.0</ele><time>2026-05-02T12:55:46Z</time></trkpt><trkpt lat="44.32979687676966" lon="10.366748742988054"><ele>910.5</ele><time>2026-05-02T12:55:47Z</time></trkpt><trkpt lat="44.32975508127337" lon="10.366875164397948"><ele>913.0</ele><time>2026-05-02T12:55:48Z</time></trkpt><trkpt lat="44.32963979632519" lon="10.366881157684535"><ele>913.75</ele><time>2026-05-02T12:55:49Z</time></trkpt><trkpt lat="44.32954361750673" lon="10.366829704255718"><ele>914.5</ele><time>2026-05-02T12:55:49.999Z</time></trkpt><trkpt lat="44.32946131663111" lon="10.366716370302537"><ele>915.25</ele><time>2026-05-02T12:55:50.999Z</time></trkpt><trkpt lat="44.32934676272049" lon="10.366572818525638"><ele>916.0</ele><time>2026-05-02T12:55:51.999Z</time></trkpt><trkpt lat="44.329217005338435" lon="10.36642000591147"><ele>911.6666666666666</ele><time>2026-05-02T12:55:52.999Z</time></trkpt><trkpt lat="44.3290830355358" lon="10.366258713045472"><ele>907.3333333333333</ele><time>2026-05-02T12:55:53.999Z</time></trkpt><trkpt lat="44.328938646356534" lon="10.36611152696682"><ele>903.0</ele><time>2026-05-02T12:55:54.999Z</time></trkpt><trkpt lat="44.32878246215477" lon="10.365969168234523"><ele>903.0</ele><time>2026-05-02T12:55:55.999Z</time></trkpt><trkpt lat="44.32861889501588" lon="10.365840752750994"><ele>903.0</ele><time>2026-05-02T12:55:56.999Z</time></trkpt><trkpt lat="44.32845957367837" lon="10.365716150430888"><ele>903.0</ele><time>2026-05-02T12:55:57.999Z</time></trkpt><trkpt lat="44.328313784350804" lon="10.365575752855117"><ele>903.6666666666667</ele><time>2026-05-02T12:55:58.999Z</time></trkpt><trkpt lat="44.32815312357653" lon="10.365498531484986"><ele>904.3333333333334</ele><time>2026-05-02T12:55:59.999Z</time></trkpt><trkpt lat="44.328007984933485" lon="10.365430781077395"><ele>905.0</ele><time>2026-05-02T12:56:00.999Z</time></trkpt><trkpt lat="44.32788396128718" lon="10.365344444778307"><ele>905.0</ele><time>2026-05-02T12:56:01.999Z</time></trkpt><trkpt lat="44.32779091732954" lon="10.365216306107078"><ele>905.0</ele><time>2026-05-02T12:56:03.001Z</time></trkpt><trkpt lat="44.32772013100362" lon="10.365025953159455"><ele>905.0</ele><time>2026-05-02T12:56:04.001Z</time></trkpt><trkpt lat="44.3276665627848" lon="10.364784674616509"><ele>902.0</ele><time>2026-05-02T12:56:05.001Z</time></trkpt><trkpt lat="44.32759381349796" lon="10.364521060102364"><ele>899.0</ele><time>2026-05-02T12:56:06.001Z</time></trkpt><trkpt lat="44.32754248436661" lon="10.364245170443656"><ele>896.0</ele><time>2026-05-02T12:56:07.001Z</time></trkpt><trkpt lat="44.32748731049184" lon="10.363975895979491"><ele>892.6666666666667</ele><time>2026-05-02T12:56:08.001Z</time></trkpt><trkpt lat="44.327429947290376" lon="10.363705035866413"><ele>889.3333333333333</ele><time>2026-05-02T12:56:09.001Z</time></trkpt><trkpt lat="44.32738676724135" lon="10.363428439221236"><ele>886.0</ele><time>2026-05-02T12:56:10.001Z</time></trkpt><trkpt lat="44.32735873884456" lon="10.363147186822873"><ele>884.0</ele><time>2026-05-02T12:56:11.001Z</time></trkpt><trkpt lat="44.327335352613716" lon="10.362865322915571"><ele>882.0</ele><time>2026-05-02T12:56:12.001Z</time></trkpt><trkpt lat="44.327322744095774" lon="10.362580958991446"><ele>880.0</ele><time>2026-05-02T12:56:13.001Z</time></trkpt><trkpt lat="44.32730984020416" lon="10.362316253582033"><ele>877.25</ele><time>2026-05-02T12:56:14.001Z</time></trkpt><trkpt lat="44.32729326406691" lon="10.362103950391626"><ele>874.5</ele><time>2026-05-02T12:56:15.001Z</time></trkpt><trkpt lat="44.327270864687385" lon="10.36193222197753"><ele>871.75</ele><time>2026-05-02T12:56:16.001Z</time></trkpt><trkpt lat="44.3272120021938" lon="10.361783152259338"><ele>869.0</ele><time>2026-05-02T12:56:17.001Z</time></trkpt><trkpt lat="44.327089952900394" lon="10.361668232294539"><ele>867.3333333333334</ele><time>2026-05-02T12:56:18.001Z</time></trkpt><trkpt lat="44.32692899739472" lon="10.36158009250592"><ele>865.6666666666667</ele><time>2026-05-02T12:56:19.001Z</time></trkpt><trkpt lat="44.32675749307573" lon="10.36148183962292"><ele>864.0</ele><time>2026-05-02T12:56:20.001Z</time></trkpt><trkpt lat="44.32661856404103" lon="10.361322986517537"><ele>864.0</ele><time>2026-05-02T12:56:21.001Z</time></trkpt><trkpt lat="44.32647580285524" lon="10.361162387661551"><ele>864.0</ele><time>2026-05-02T12:56:22.001Z</time></trkpt><trkpt lat="44.32631263800684" lon="10.36102515719392"><ele>864.0</ele><time>2026-05-02T12:56:23.001Z</time></trkpt><trkpt lat="44.326164627704095" lon="10.360881380907102"><ele>862.0</ele><time>2026-05-02T12:56:24.001Z</time></trkpt><trkpt lat="44.32601369037339" lon="10.36075414312785"><ele>860.0</ele><time>2026-05-02T12:56:25Z</time></trkpt><trkpt lat="44.32588260087229" lon="10.360598601563774"><ele>858.0</ele><time>2026-05-02T12:56:26Z</time></trkpt><trkpt lat="44.32575058181918" lon="10.360444506787456"><ele>858.0</ele><time>2026-05-02T12:56:27Z</time></trkpt><trkpt lat="44.32562071853427" lon="10.36025886128513"><ele>858.0</ele><time>2026-05-02T12:56:28Z</time></trkpt><trkpt lat="44.32548936836288" lon="10.360078029361125"><ele>858.0</ele><time>2026-05-02T12:56:29Z</time></trkpt><trkpt lat="44.32537970849031" lon="10.359893449742176"><ele>857.3333333333333</ele><time>2026-05-02T12:56:30Z</time></trkpt><trkpt lat="44.325246958477315" lon="10.359743746785304"><ele>856.6666666666666</ele><time>2026-05-02T12:56:31Z</time></trkpt><trkpt lat="44.32509215339575" lon="10.35962853072006"><ele>856.0</ele><time>2026-05-02T12:56:32Z</time></trkpt><trkpt lat="44.32493245047224" lon="10.359561474377978"><ele>856.0</ele><time>2026-05-02T12:56:33Z</time></trkpt><trkpt lat="44.32476766377802" lon="10.35952725326758"><ele>856.0</ele><time>2026-05-02T12:56:34Z</time></trkpt><trkpt lat="44.324596045466954" lon="10.359522615779218"><ele>856.0</ele><time>2026-05-02T12:56:35Z</time></trkpt><trkpt lat="44.32443335698178" lon="10.359570861610582"><ele>856.0</ele><time>2026-05-02T12:56:36Z</time></trkpt><trkpt lat="44.324290267773556" lon="10.359605084973667"><ele>856.0</ele><time>2026-05-02T12:56:37Z</time></trkpt><trkpt lat="44.32416683976064" lon="10.359622509373626"><ele>856.0</ele><time>2026-05-02T12:56:38Z</time></trkpt><trkpt lat="44.32405365630309" lon="10.359600032953425"><ele>856.0</ele><time>2026-05-02T12:56:39Z</time></trkpt><trkpt lat="44.323986477648795" lon="10.359457239649418"><ele>860.25</ele><time>2026-05-02T12:56:40Z</time></trkpt><trkpt lat="44.32388041730457" lon="10.359319932262173"><ele>864.5</ele><time>2026-05-02T12:56:41Z</time></trkpt><trkpt lat="44.32378794698023" lon="10.359179624998749"><ele>868.75</ele><time>2026-05-02T12:56:42Z</time></trkpt><trkpt lat="44.32371691057682" lon="10.35903992180494"><ele>873.0</ele><time>2026-05-02T12:56:43Z</time></trkpt><trkpt lat="44.32365189300918" lon="10.358900628043735"><ele>870.2</ele><time>2026-05-02T12:56:44Z</time></trkpt><trkpt lat="44.32361787209386" lon="10.358756641787624"><ele>867.4</ele><time>2026-05-02T12:56:45Z</time></trkpt><trkpt lat="44.32357787569484" lon="10.358620044100414"><ele>864.6000000000001</ele><time>2026-05-02T12:56:46Z</time></trkpt><trkpt lat="44.32353876595088" lon="10.358482150525873"><ele>861.8000000000001</ele><time>2026-05-02T12:56:47Z</time></trkpt><trkpt lat="44.323496379349415" lon="10.358332702848793"><ele>859.0</ele><time>2026-05-02T12:56:48Z</time></trkpt><trkpt lat="44.32344529906529" lon="10.35818659218211"><ele>859.0</ele><time>2026-05-02T12:56:49Z</time></trkpt><trkpt lat="44.32337323250797" lon="10.358072316794665"><ele>859.0</ele><time>2026-05-02T12:56:50Z</time></trkpt><trkpt lat="44.323248590295" lon="10.35803295125332"><ele>859.0</ele><time>2026-05-02T12:56:51Z</time></trkpt><trkpt lat="44.32311797769833" lon="10.358023638042013"><ele>859.0</ele><time>2026-05-02T12:56:52Z</time></trkpt><trkpt lat="44.32298120429951" lon="10.358019682094742"><ele>857.75</ele><time>2026-05-02T12:56:53Z</time></trkpt><trkpt lat="44.32283954719759" lon="10.358028052862599"><ele>856.5</ele><time>2026-05-02T12:56:54Z</time></trkpt><trkpt lat="44.322696610473244" lon="10.358006265145802"><ele>855.25</ele><time>2026-05-02T12:56:55Z</time></trkpt><trkpt lat="44.32255577900068" lon="10.35793605433862"><ele>854.0</ele><time>2026-05-02T12:56:56Z</time></trkpt><trkpt lat="44.32239990564869" lon="10.357801413605344"><ele>854.0</ele><time>2026-05-02T12:56:57Z</time></trkpt><trkpt lat="44.32223664694925" lon="10.357623858678638"><ele>854.0</ele><time>2026-05-02T12:56:58Z</time></trkpt><trkpt lat="44.32213419474845" lon="10.357506704498833"><ele>854.0</ele><time>2026-05-02T12:57:00Z</time></trkpt><trkpt lat="44.32205538080877" lon="10.357382176317335"><ele>855.4000000000001</ele><time>2026-05-02T12:57:01Z</time></trkpt><trkpt lat="44.32199652105796" lon="10.357246377162758"><ele>856.8000000000001</ele><time>2026-05-02T12:57:02Z</time></trkpt><trkpt lat="44.32197373649255" lon="10.357105739476191"><ele>858.1999999999999</ele><time>2026-05-02T12:57:03Z</time></trkpt><trkpt lat="44.32194281303513" lon="10.356958692685158"><ele>859.5999999999999</ele><time>2026-05-02T12:57:04Z</time></trkpt><trkpt lat="44.32190385207153" lon="10.35683148959433"><ele>861.0</ele><time>2026-05-02T12:57:05Z</time></trkpt><trkpt lat="44.32184703362839" lon="10.356713624944028"><ele>861.0</ele><time>2026-05-02T12:57:06Z</time></trkpt><trkpt lat="44.321736775525714" lon="10.356632355081032"><ele>861.0</ele><time>2026-05-02T12:57:07Z</time></trkpt><trkpt lat="44.3216548431659" lon="10.35652499066292"><ele>861.0</ele><time>2026-05-02T12:57:08Z</time></trkpt><trkpt lat="44.321560323550464" lon="10.356440425105612"><ele>861.0</ele><time>2026-05-02T12:57:09Z</time></trkpt><trkpt lat="44.32144902041225" lon="10.35638217908827"><ele>860.25</ele><time>2026-05-02T12:57:10Z</time></trkpt><trkpt lat="44.321341706684294" lon="10.356344879883729"><ele>859.5</ele><time>2026-05-02T12:57:11Z</time></trkpt><trkpt lat="44.321218538733014" lon="10.356336328040152"><ele>858.75</ele><time>2026-05-02T12:57:12Z</time></trkpt><trkpt lat="44.32110487372784" lon="10.3563558620348"><ele>858.0</ele><time>2026-05-02T12:57:13Z</time></trkpt><trkpt lat="44.32099004219324" lon="10.356386419361288"><ele>858.0</ele><time>2026-05-02T12:57:14Z</time></trkpt><trkpt lat="44.320873394637864" lon="10.356406981904877"><ele>858.0</ele><time>2026-05-02T12:57:15Z</time></trkpt><trkpt lat="44.32076575744025" lon="10.356423917518736"><ele>858.0</ele><time>2026-05-02T12:57:16Z</time></trkpt><trkpt lat="44.32066971408919" lon="10.356365312354033"><ele>858.0</ele><time>2026-05-02T12:57:17Z</time></trkpt><trkpt lat="44.32059483825581" lon="10.356270881445738"><ele>858.0</ele><time>2026-05-02T12:57:18Z</time></trkpt><trkpt lat="44.32052764724579" lon="10.356162163131302"><ele>857.0</ele><time>2026-05-02T12:57:19Z</time></trkpt><trkpt lat="44.32045911320011" lon="10.356037540250526"><ele>856.0</ele><time>2026-05-02T12:57:20Z</time></trkpt><trkpt lat="44.32040615972072" lon="10.355902405853213"><ele>855.0</ele><time>2026-05-02T12:57:21Z</time></trkpt><trkpt lat="44.32037423945054" lon="10.355734992673147"><ele>854.0</ele><time>2026-05-02T12:57:22Z</time></trkpt><trkpt lat="44.32035063270436" lon="10.355596837124683"><ele>853.0</ele><time>2026-05-02T12:57:23Z</time></trkpt><trkpt lat="44.320340131987045" lon="10.35547398505098"><ele>852.9999999999999</ele><time>2026-05-02T12:57:24Z</time></trkpt><trkpt lat="44.32030375954592" lon="10.355376139978672"><ele>853.0</ele><time>2026-05-02T12:57:25Z</time></trkpt><trkpt lat="44.320239923427614" lon="10.355320496948782"><ele>853.0</ele><time>2026-05-02T12:57:26Z</time></trkpt><trkpt lat="44.32016365868521" lon="10.355310983715269"><ele>853.0</ele><time>2026-05-02T12:57:27Z</time></trkpt><trkpt lat="44.32008326299229" lon="10.355331995534527"><ele>852.9999999999999</ele><time>2026-05-02T12:57:28Z</time></trkpt><trkpt lat="44.31998964945279" lon="10.355371975410785"><ele>853.0</ele><time>2026-05-02T12:57:29Z</time></trkpt><trkpt lat="44.31988585726035" lon="10.355386530899471"><ele>853.0</ele><time>2026-05-02T12:57:30Z</time></trkpt><trkpt lat="44.319777740283754" lon="10.355416375374904"><ele>853.0</ele><time>2026-05-02T12:57:31Z</time></trkpt><trkpt lat="44.3196582983535" lon="10.355449152354325"><ele>853.0</ele><time>2026-05-02T12:57:32Z</time></trkpt><trkpt lat="44.319538000845256" lon="10.355479830308775"><ele>853.0</ele><time>2026-05-02T12:57:33Z</time></trkpt><trkpt lat="44.31942349152864" lon="10.355487920745182"><ele>851.5</ele><time>2026-05-02T12:57:34Z</time></trkpt><trkpt lat="44.319309947500855" lon="10.355463925956299"><ele>850.0</ele><time>2026-05-02T12:57:35Z</time></trkpt><trkpt lat="44.319201858594326" lon="10.355436578131064"><ele>848.5</ele><time>2026-05-02T12:57:36Z</time></trkpt><trkpt lat="44.319090791706394" lon="10.355410931296959"><ele>847.0</ele><time>2026-05-02T12:57:37Z</time></trkpt><trkpt lat="44.318978766330595" lon="10.355430354351986"><ele>847.0</ele><time>2026-05-02T12:57:38Z</time></trkpt><trkpt lat="44.318878925017366" lon="10.355446739126368"><ele>847.0</ele><time>2026-05-02T12:57:39Z</time></trkpt><trkpt lat="44.31878785282893" lon="10.355512864634878"><ele>847.0</ele><time>2026-05-02T12:57:40Z</time></trkpt><trkpt lat="44.318702025364594" lon="10.355564602258443"><ele>847.0</ele><time>2026-05-02T12:57:41Z</time></trkpt><trkpt lat="44.318614314513546" lon="10.355611968072907"><ele>847.0</ele><time>2026-05-02T12:57:42Z</time></trkpt><trkpt lat="44.318531126329134" lon="10.355614344749782"><ele>847.0</ele><time>2026-05-02T12:57:43Z</time></trkpt><trkpt lat="44.31845866943604" lon="10.355567807684887"><ele>847.0</ele><time>2026-05-02T12:57:44Z</time></trkpt><trkpt lat="44.31839615675807" lon="10.355477994791489"><ele>847.0</ele><time>2026-05-02T12:57:45Z</time></trkpt><trkpt lat="44.31830766247417" lon="10.355380452103523"><ele>847.0</ele><time>2026-05-02T12:57:46Z</time></trkpt><trkpt lat="44.31817462085269" lon="10.355275405254126"><ele>847.0</ele><time>2026-05-02T12:57:47Z</time></trkpt><trkpt lat="44.31797257478039" lon="10.3551763711498"><ele>852.0</ele><time>2026-05-02T12:57:47.999Z</time></trkpt><trkpt lat="44.31775534933154" lon="10.355081044270618"><ele>857.0</ele><time>2026-05-02T12:57:48.999Z</time></trkpt><trkpt lat="44.3175839174054" lon="10.355005722669189"><ele>862.0</ele><time>2026-05-02T12:57:49.999Z</time></trkpt><trkpt lat="44.31744849825039" lon="10.354932263432316"><ele>862.0</ele><time>2026-05-02T12:57:50.999Z</time></trkpt><trkpt lat="44.3173357641731" lon="10.354801005081312"><ele>862.0</ele><time>2026-05-02T12:57:51.999Z</time></trkpt><trkpt lat="44.31725068861708" lon="10.354582161011102"><ele>862.0</ele><time>2026-05-02T12:57:52.999Z</time></trkpt><trkpt lat="44.317166294573106" lon="10.35433912617533"><ele>859.6666666666666</ele><time>2026-05-02T12:57:53.999Z</time></trkpt><trkpt lat="44.31707568777764" lon="10.354109008050562"><ele>857.3333333333333</ele><time>2026-05-02T12:57:54.999Z</time></trkpt><trkpt lat="44.31700186415746" lon="10.353876290082994"><ele>855.0</ele><time>2026-05-02T12:57:55.999Z</time></trkpt><trkpt lat="44.316922231602966" lon="10.353646920471062"><ele>855.0</ele><time>2026-05-02T12:57:56.999Z</time></trkpt><trkpt lat="44.316848482189606" lon="10.35342287177208"><ele>855.0</ele><time>2026-05-02T12:57:57.999Z</time></trkpt><trkpt lat="44.3167771437537" lon="10.353222807951965"><ele>855.0</ele><time>2026-05-02T12:57:58.999Z</time></trkpt><trkpt lat="44.31669843960204" lon="10.353039437149267"><ele>851.0</ele><time>2026-05-02T12:57:59.999Z</time></trkpt><trkpt lat="44.31658605780613" lon="10.352885601154519"><ele>847.0</ele><time>2026-05-02T12:58:00.999Z</time></trkpt><trkpt lat="44.31645024019276" lon="10.352769766798255"><ele>843.0</ele><time>2026-05-02T12:58:01.999Z</time></trkpt><trkpt lat="44.316282879583014" lon="10.352660103642823"><ele>843.0</ele><time>2026-05-02T12:58:02.999Z</time></trkpt><trkpt lat="44.31613103257778" lon="10.35255107994041"><ele>843.0</ele><time>2026-05-02T12:58:03.999Z</time></trkpt><trkpt lat="44.31598179779271" lon="10.352461088636616"><ele>843.0</ele><time>2026-05-02T12:58:04.999Z</time></trkpt><trkpt lat="44.31581889715817" lon="10.352421512139063"><ele>843.0</ele><time>2026-05-02T12:58:05.999Z</time></trkpt><trkpt lat="44.315651782045265" lon="10.35244260290766"><ele>843.0</ele><time>2026-05-02T12:58:06.999Z</time></trkpt><trkpt lat="44.31547180335815" lon="10.352526069243714"><ele>843.0</ele><time>2026-05-02T12:58:07.999Z</time></trkpt><trkpt lat="44.31529097769353" lon="10.352595322226831"><ele>840.0</ele><time>2026-05-02T12:58:09.001Z</time></trkpt><trkpt lat="44.31511050351059" lon="10.35266067752242"><ele>837.0</ele><time>2026-05-02T12:58:10.001Z</time></trkpt><trkpt lat="44.3149303577639" lon="10.352698299801954"><ele>834.0</ele><time>2026-05-02T12:58:11.001Z</time></trkpt><trkpt lat="44.314747539091556" lon="10.352690501113745"><ele>833.6666666666667</ele><time>2026-05-02T12:58:12.001Z</time></trkpt><trkpt lat="44.3145588057378" lon="10.352642674343409"><ele>833.3333333333334</ele><time>2026-05-02T12:58:13.001Z</time></trkpt><trkpt lat="44.31435056311894" lon="10.352571331915021"><ele>833.0</ele><time>2026-05-02T12:58:14.001Z</time></trkpt><trkpt lat="44.314130739551224" lon="10.352514758322872"><ele>833.0</ele><time>2026-05-02T12:58:15.001Z</time></trkpt><trkpt lat="44.31391415176409" lon="10.35242855823813"><ele>833.0</ele><time>2026-05-02T12:58:16.001Z</time></trkpt><trkpt lat="44.313693350208354" lon="10.352364313971927"><ele>837.5</ele><time>2026-05-02T12:58:17.001Z</time></trkpt><trkpt lat="44.31347520373273" lon="10.352274566790975"><ele>842.0</ele><time>2026-05-02T12:58:18.001Z</time></trkpt><trkpt lat="44.31325304018732" lon="10.352221150532289"><ele>831.5</ele><time>2026-05-02T12:58:19.001Z</time></trkpt><trkpt lat="44.31303570808556" lon="10.352139271770223"><ele>821.0</ele><time>2026-05-02T12:58:20.001Z</time></trkpt><trkpt lat="44.312816950532984" lon="10.35205789037502"><ele>821.0</ele><time>2026-05-02T12:58:21.001Z</time></trkpt><trkpt lat="44.31261668229299" lon="10.351946421854745"><ele>821.0</ele><time>2026-05-02T12:58:22.001Z</time></trkpt><trkpt lat="44.312436987168894" lon="10.351857800106156"><ele>821.0</ele><time>2026-05-02T12:58:23.001Z</time></trkpt><trkpt lat="44.312284586190124" lon="10.351780404000774"><ele>821.0</ele><time>2026-05-02T12:58:24.001Z</time></trkpt><trkpt lat="44.31216033767641" lon="10.351717938718854"><ele>821.0</ele><time>2026-05-02T12:58:25.001Z</time></trkpt><trkpt lat="44.31208908179988" lon="10.351576029465498"><ele>821.0</ele><time>2026-05-02T12:58:26.001Z</time></trkpt><trkpt lat="44.312041091836576" lon="10.35140228643211"><ele>821.0</ele><time>2026-05-02T12:58:27.001Z</time></trkpt><trkpt lat="44.31197141298928" lon="10.3512136812271"><ele>826.25</ele><time>2026-05-02T12:58:28.001Z</time></trkpt><trkpt lat="44.31193790147348" lon="10.351043792198052"><ele>831.5</ele><time>2026-05-02T12:58:29Z</time></trkpt><trkpt lat="44.31194035211347" lon="10.350900946184806"><ele>836.75</ele><time>2026-05-02T12:58:30Z</time></trkpt><trkpt lat="44.31199457657584" lon="10.350777333192841"><ele>842.0</ele><time>2026-05-02T12:58:31Z</time></trkpt><trkpt lat="44.31209254682478" lon="10.350657834795001"><ele>842.0</ele><time>2026-05-02T12:58:32Z</time></trkpt><trkpt lat="44.312228056343" lon="10.350555963267505"><ele>842.0</ele><time>2026-05-02T12:58:33Z</time></trkpt><trkpt lat="44.31238834278475" lon="10.35046144997009"><ele>842.0</ele><time>2026-05-02T12:58:34Z</time></trkpt><trkpt lat="44.31256309850882" lon="10.350375838149075"><ele>840.3333333333334</ele><time>2026-05-02T12:58:35Z</time></trkpt><trkpt lat="44.312747262002624" lon="10.35032625082038"><ele>838.6666666666667</ele><time>2026-05-02T12:58:36Z</time></trkpt><trkpt lat="44.31291868922267" lon="10.35032166702342"><ele>837.0</ele><time>2026-05-02T12:58:37Z</time></trkpt><trkpt lat="44.313074288548236" lon="10.350321176963355"><ele>837.0</ele><time>2026-05-02T12:58:38Z</time></trkpt><trkpt lat="44.31320921055729" lon="10.350275372988344"><ele>837.0</ele><time>2026-05-02T12:58:39Z</time></trkpt><trkpt lat="44.313339426695684" lon="10.350158537699896"><ele>837.0</ele><time>2026-05-02T12:58:40Z</time></trkpt><trkpt lat="44.3134634959759" lon="10.34997500668964"><ele>837.0</ele><time>2026-05-02T12:58:41Z</time></trkpt><trkpt lat="44.313597384387215" lon="10.349778702905818"><ele>837.0</ele><time>2026-05-02T12:58:42Z</time></trkpt><trkpt lat="44.31373589569007" lon="10.349597721017254"><ele>837.0</ele><time>2026-05-02T12:58:43Z</time></trkpt><trkpt lat="44.31387325242112" lon="10.349427497537315"><ele>839.0</ele><time>2026-05-02T12:58:44Z</time></trkpt><trkpt lat="44.314003345930146" lon="10.349271864615115"><ele>841.0</ele><time>2026-05-02T12:58:45Z</time></trkpt><trkpt lat="44.31414865313803" lon="10.349147524480781"><ele>843.0</ele><time>2026-05-02T12:58:46Z</time></trkpt><trkpt lat="44.31431121644637" lon="10.349088029560818"><ele>843.0</ele><time>2026-05-02T12:58:47Z</time></trkpt><trkpt lat="44.3144828994703" lon="10.349035497883177"><ele>843.0</ele><time>2026-05-02T12:58:48Z</time></trkpt><trkpt lat="44.31465285939901" lon="10.348949771815624"><ele>843.0</ele><time>2026-05-02T12:58:49Z</time></trkpt><trkpt lat="44.31482214717481" lon="10.348817083659593"><ele>846.3333333333333</ele><time>2026-05-02T12:58:50Z</time></trkpt><trkpt lat="44.31498370540097" lon="10.34866432232389"><ele>849.6666666666666</ele><time>2026-05-02T12:58:51Z</time></trkpt><trkpt lat="44.315139961373134" lon="10.348518094019852"><ele>853.0</ele><time>2026-05-02T12:58:52Z</time></trkpt><trkpt lat="44.31529346230842" lon="10.348383565977194"><ele>853.0</ele><time>2026-05-02T12:58:53Z</time></trkpt><trkpt lat="44.315449299521326" lon="10.348276479856041"><ele>853.0</ele><time>2026-05-02T12:58:54Z</time></trkpt><trkpt lat="44.31560210569979" lon="10.348261877569415"><ele>853.0</ele><time>2026-05-02T12:58:55Z</time></trkpt><trkpt lat="44.31574790448076" lon="10.34830719594357"><ele>853.25</ele><time>2026-05-02T12:58:56Z</time></trkpt><trkpt lat="44.31590488721974" lon="10.34835856539009"><ele>853.5</ele><time>2026-05-02T12:58:57Z</time></trkpt><trkpt lat="44.31604480390246" lon="10.348384583155505"><ele>853.75</ele><time>2026-05-02T12:58:58Z</time></trkpt><trkpt lat="44.3161694965282" lon="10.348401577388499"><ele>854.0</ele><time>2026-05-02T12:58:59Z</time></trkpt><trkpt lat="44.316302142002" lon="10.34835877557015"><ele>850.6666666666667</ele><time>2026-05-02T12:59:00Z</time></trkpt><trkpt lat="44.31645053392121" lon="10.348258753597799"><ele>847.3333333333333</ele><time>2026-05-02T12:59:01Z</time></trkpt><trkpt lat="44.31659004196631" lon="10.34811602143812"><ele>844.0</ele><time>2026-05-02T12:59:02Z</time></trkpt><trkpt lat="44.31674055048696" lon="10.347986599504168"><ele>848.25</ele><time>2026-05-02T12:59:03Z</time></trkpt><trkpt lat="44.31689079979927" lon="10.347925434941759"><ele>852.5</ele><time>2026-05-02T12:59:04Z</time></trkpt><trkpt lat="44.317028308665876" lon="10.347904019127167"><ele>856.75</ele><time>2026-05-02T12:59:05Z</time></trkpt><trkpt lat="44.317161955653724" lon="10.347910039061466"><ele>861.0</ele><time>2026-05-02T12:59:06Z</time></trkpt><trkpt lat="44.31727377759013" lon="10.34789549474151"><ele>861.0</ele><time>2026-05-02T12:59:07Z</time></trkpt><trkpt lat="44.3173644592347" lon="10.34787544925054"><ele>860.9999999999999</ele><time>2026-05-02T12:59:08Z</time></trkpt><trkpt lat="44.317428926866846" lon="10.347789863602658"><ele>860.9999999999999</ele><time>2026-05-02T12:59:09Z</time></trkpt><trkpt lat="44.317480893629465" lon="10.347636468844469"><ele>861.0</ele><time>2026-05-02T12:59:10Z</time></trkpt><trkpt lat="44.31752004511426" lon="10.347459441930944"><ele>861.0</ele><time>2026-05-02T12:59:11Z</time></trkpt><trkpt lat="44.31756755216316" lon="10.347316865503027"><ele>861.0</ele><time>2026-05-02T12:59:12Z</time></trkpt><trkpt lat="44.317596441108286" lon="10.34720604375106"><ele>860.9999999999999</ele><time>2026-05-02T12:59:13Z</time></trkpt><trkpt lat="44.31758995804993" lon="10.34711791480446"><ele>860.9999999999999</ele><time>2026-05-02T12:59:14Z</time></trkpt><trkpt lat="44.317535193622206" lon="10.347038061187432"><ele>861.0</ele><time>2026-05-02T12:59:16Z</time></trkpt><trkpt lat="44.31739521781831" lon="10.347080481723422"><ele>861.0</ele><time>2026-05-02T12:59:20Z</time></trkpt><trkpt lat="44.31734261808483" lon="10.347212671123733"><ele>861.0</ele><time>2026-05-02T12:59:21Z</time></trkpt><trkpt lat="44.31732458461857" lon="10.347361905922067"><ele>860.9999999999999</ele><time>2026-05-02T12:59:22Z</time></trkpt><trkpt lat="44.31728651651639" lon="10.347489467494087"><ele>860.9999999999999</ele><time>2026-05-02T12:59:23Z</time></trkpt><trkpt lat="44.317246666570256" lon="10.34759496932232"><ele>861.0</ele><time>2026-05-02T12:59:24Z</time></trkpt><trkpt lat="44.31718707762639" lon="10.347659105390605"><ele>861.0</ele><time>2026-05-02T12:59:25Z</time></trkpt><trkpt lat="44.31706790440588" lon="10.347642450642914"><ele>867.25</ele><time>2026-05-02T12:59:26Z</time></trkpt><trkpt lat="44.31693424043874" lon="10.347668388665593"><ele>873.5</ele><time>2026-05-02T12:59:27Z</time></trkpt><trkpt lat="44.316786180122726" lon="10.347700563084054"><ele>879.75</ele><time>2026-05-02T12:59:28Z</time></trkpt><trkpt lat="44.31663248925196" lon="10.347754587937985"><ele>886.0</ele><time>2026-05-02T12:59:29Z</time></trkpt><trkpt lat="44.31647840337175" lon="10.347773854727551"><ele>885.75</ele><time>2026-05-02T12:59:30Z</time></trkpt><trkpt lat="44.31634587724991" lon="10.347814495035989"><ele>885.5</ele><time>2026-05-02T12:59:31Z</time></trkpt><trkpt lat="44.31621272025409" lon="10.347819469542756"><ele>885.25</ele><time>2026-05-02T12:59:32Z</time></trkpt><trkpt lat="44.31609106063315" lon="10.34777646438609"><ele>885.0</ele><time>2026-05-02T12:59:33Z</time></trkpt><trkpt lat="44.31595838544501" lon="10.347670121543299"><ele>885.0</ele><time>2026-05-02T12:59:34Z</time></trkpt><trkpt lat="44.31584764763907" lon="10.34756352066782"><ele>885.0</ele><time>2026-05-02T12:59:35Z</time></trkpt><trkpt lat="44.315710849564034" lon="10.347401133863"><ele>885.0</ele><time>2026-05-02T12:59:35.999Z</time></trkpt><trkpt lat="44.31558186281539" lon="10.347280202785928"><ele>890.0</ele><time>2026-05-02T12:59:36.999Z</time></trkpt><trkpt lat="44.315465541164116" lon="10.347167366588074"><ele>895.0</ele><time>2026-05-02T12:59:37.999Z</time></trkpt><trkpt lat="44.31536040355857" lon="10.347081665017743"><ele>900.0</ele><time>2026-05-02T12:59:38.999Z</time></trkpt><trkpt lat="44.31524420200659" lon="10.347048307296461"><ele>905.0</ele><time>2026-05-02T12:59:39.999Z</time></trkpt><trkpt lat="44.31511601869036" lon="10.347073175835018"><ele>905.0</ele><time>2026-05-02T12:59:40.999Z</time></trkpt><trkpt lat="44.31496883760406" lon="10.347152747532427"><ele>905.0</ele><time>2026-05-02T12:59:41.999Z</time></trkpt><trkpt lat="44.314800509708505" lon="10.347207309115783"><ele>905.0</ele><time>2026-05-02T12:59:42.999Z</time></trkpt><trkpt lat="44.31463761447388" lon="10.347266685341634"><ele>903.75</ele><time>2026-05-02T12:59:43.999Z</time></trkpt><trkpt lat="44.314480302002345" lon="10.34732371795427"><ele>902.5</ele><time>2026-05-02T12:59:44.999Z</time></trkpt><trkpt lat="44.3143472882112" lon="10.347396244827198"><ele>901.25</ele><time>2026-05-02T12:59:45.999Z</time></trkpt><trkpt lat="44.31423748013162" lon="10.347464784234456"><ele>900.0</ele><time>2026-05-02T12:59:46.999Z</time></trkpt><trkpt lat="44.31414517060763" lon="10.347548065963668"><ele>900.0</ele><time>2026-05-02T12:59:47.999Z</time></trkpt><trkpt lat="44.31411275092005" lon="10.347746241375706"><ele>900.0</ele><time>2026-05-02T12:59:48.999Z</time></trkpt><trkpt lat="44.314094980236554" lon="10.347909072032433"><ele>900.0</ele><time>2026-05-02T12:59:49.999Z</time></trkpt><trkpt lat="44.314042326170394" lon="10.348019243533958"><ele>900.0</ele><time>2026-05-02T12:59:50.999Z</time></trkpt><trkpt lat="44.31398088957533" lon="10.348097380965312"><ele>900.0</ele><time>2026-05-02T12:59:51.999Z</time></trkpt><trkpt lat="44.313873860334496" lon="10.34807697114463"><ele>901.0</ele><time>2026-05-02T12:59:52.999Z</time></trkpt><trkpt lat="44.31372954418848" lon="10.348111053790802"><ele>902.0</ele><time>2026-05-02T12:59:53.999Z</time></trkpt><trkpt lat="44.31357918421006" lon="10.34817637856274"><ele>903.0</ele><time>2026-05-02T12:59:54.999Z</time></trkpt><trkpt lat="44.313440294438664" lon="10.348274720151428"><ele>903.0</ele><time>2026-05-02T12:59:55.999Z</time></trkpt><trkpt lat="44.31327877550031" lon="10.348360680216008"><ele>903.0</ele><time>2026-05-02T12:59:56.999Z</time></trkpt><trkpt lat="44.313116130907524" lon="10.348476936204438"><ele>903.0</ele><time>2026-05-02T12:59:57.999Z</time></trkpt><trkpt lat="44.312967290178484" lon="10.348592886505978"><ele>899.6666666666667</ele><time>2026-05-02T12:59:58.999Z</time></trkpt><trkpt lat="44.31280511833031" lon="10.34870918208387"><ele>896.3333333333334</ele><time>2026-05-02T12:59:59.999Z</time></trkpt><trkpt lat="44.31264211478954" lon="10.348814310995763"><ele>893.0</ele><time>2026-05-02T13:00:00.999Z</time></trkpt><trkpt lat="44.312481473430225" lon="10.348917916437635"><ele>893.0</ele><time>2026-05-02T13:00:01.999Z</time></trkpt><trkpt lat="44.31232291965547" lon="10.349017557673855"><ele>893.0</ele><time>2026-05-02T13:00:02.999Z</time></trkpt><trkpt lat="44.312165231933726" lon="10.349114021026752"><ele>893.0</ele><time>2026-05-02T13:00:03.999Z</time></trkpt><trkpt lat="44.3119973920925" lon="10.349200883020531"><ele>902.6666666666667</ele><time>2026-05-02T13:00:04.999Z</time></trkpt><trkpt lat="44.31182135191136" lon="10.349281250889817"><ele>912.3333333333333</ele><time>2026-05-02T13:00:05.999Z</time></trkpt><trkpt lat="44.31165816320616" lon="10.349321938594954"><ele>922.0</ele><time>2026-05-02T13:00:06.999Z</time></trkpt><trkpt lat="44.31153203395464" lon="10.349352278744743"><ele>922.0</ele><time>2026-05-02T13:00:07.999Z</time></trkpt><trkpt lat="44.311451748811145" lon="10.349421560366034"><ele>922.0</ele><time>2026-05-02T13:00:08.999Z</time></trkpt><trkpt lat="44.31139345593436" lon="10.349488838994223"><ele>922.0</ele><time>2026-05-02T13:00:09.999Z</time></trkpt><trkpt lat="44.311327217449794" lon="10.349566467203"><ele>922.0</ele><time>2026-05-02T13:00:11.999Z</time></trkpt><trkpt lat="44.31130965009685" lon="10.349426807313659"><ele>922.0</ele><time>2026-05-02T13:00:13.999Z</time></trkpt><trkpt lat="44.31140315788369" lon="10.349386556626676"><ele>922.0</ele><time>2026-05-02T13:00:15.001Z</time></trkpt><trkpt lat="44.31148069226542" lon="10.349295054163"><ele>922.0</ele><time>2026-05-02T13:00:16.001Z</time></trkpt><trkpt lat="44.31159402589282" lon="10.349250132229857"><ele>922.0</ele><time>2026-05-02T13:00:17.001Z</time></trkpt><trkpt lat="44.311714100376626" lon="10.349244588894546"><ele>922.0</ele><time>2026-05-02T13:00:18Z</time></trkpt><trkpt lat="44.31181319775694" lon="10.349227269259407"><ele>922.0</ele><time>2026-05-02T13:00:19.001Z</time></trkpt><trkpt lat="44.311915336167345" lon="10.349120048571336"><ele>922.0</ele><time>2026-05-02T13:00:20Z</time></trkpt><trkpt lat="44.31204231280293" lon="10.349037645270009"><ele>922.0</ele><time>2026-05-02T13:00:21Z</time></trkpt><trkpt lat="44.312164063842964" lon="10.348916792297189"><ele>922.0</ele><time>2026-05-02T13:00:22Z</time></trkpt><trkpt lat="44.312292733422325" lon="10.348806315257523"><ele>922.0</ele><time>2026-05-02T13:00:23Z</time></trkpt><trkpt lat="44.31241605000395" lon="10.348698055704544"><ele>926.0</ele><time>2026-05-02T13:00:24Z</time></trkpt><trkpt lat="44.31254809987633" lon="10.348570819529796"><ele>930.0</ele><time>2026-05-02T13:00:25Z</time></trkpt><trkpt lat="44.31271245008979" lon="10.348482811648283"><ele>934.0</ele><time>2026-05-02T13:00:26Z</time></trkpt><trkpt lat="44.31284360714884" lon="10.34832050667728"><ele>934.0</ele><time>2026-05-02T13:00:27Z</time></trkpt><trkpt lat="44.312986730632296" lon="10.348171396081536"><ele>934.0</ele><time>2026-05-02T13:00:28Z</time></trkpt><trkpt lat="44.31313154382195" lon="10.348031052739085"><ele>934.0</ele><time>2026-05-02T13:00:29Z</time></trkpt><trkpt lat="44.31328590078712" lon="10.34790183622677"><ele>935.75</ele><time>2026-05-02T13:00:30Z</time></trkpt><trkpt lat="44.31342772739901" lon="10.347777238331817"><ele>937.5</ele><time>2026-05-02T13:00:31Z</time></trkpt><trkpt lat="44.313556427783986" lon="10.347662536950901"><ele>939.25</ele><time>2026-05-02T13:00:32Z</time></trkpt><trkpt lat="44.31366428716996" lon="10.347564198601773"><ele>941.0</ele><time>2026-05-02T13:00:33Z</time></trkpt><trkpt lat="44.31373283221056" lon="10.347482859255539"><ele>941.0</ele><time>2026-05-02T13:00:34Z</time></trkpt><trkpt lat="44.31378589747224" lon="10.347357499249062"><ele>940.9999999999999</ele><time>2026-05-02T13:00:35Z</time></trkpt><trkpt lat="44.31380883764333" lon="10.347202553304143"><ele>940.9999999999999</ele><time>2026-05-02T13:00:36Z</time></trkpt><trkpt lat="44.31378709829602" lon="10.347047174804603"><ele>941.0</ele><time>2026-05-02T13:00:37Z</time></trkpt><trkpt lat="44.3137637457908" lon="10.346885665092017"><ele>941.0</ele><time>2026-05-02T13:00:38Z</time></trkpt><trkpt lat="44.31374357464901" lon="10.346710294487515"><ele>940.5</ele><time>2026-05-02T13:00:39Z</time></trkpt><trkpt lat="44.31375814119577" lon="10.346539555727594"><ele>940.0</ele><time>2026-05-02T13:00:40Z</time></trkpt><trkpt lat="44.31379110599834" lon="10.34637790812509"><ele>939.5</ele><time>2026-05-02T13:00:41Z</time></trkpt><trkpt lat="44.31383765238518" lon="10.346225317909784"><ele>939.0</ele><time>2026-05-02T13:00:42Z</time></trkpt><trkpt lat="44.31391019147139" lon="10.346091119827529"><ele>939.0</ele><time>2026-05-02T13:00:43Z</time></trkpt><trkpt lat="44.31399229694103" lon="10.34597398094913"><ele>939.0000000000001</ele><time>2026-05-02T13:00:44Z</time></trkpt><trkpt lat="44.31408055919729" lon="10.34589395595979"><ele>939.0000000000001</ele><time>2026-05-02T13:00:45Z</time></trkpt><trkpt lat="44.31416245684567" lon="10.345832532608265"><ele>939.0</ele><time>2026-05-02T13:00:46Z</time></trkpt><trkpt lat="44.314219083969135" lon="10.345757458548587"><ele>939.0</ele><time>2026-05-02T13:00:47Z</time></trkpt><trkpt lat="44.314246135719316" lon="10.345654257185586"><ele>940.6</ele><time>2026-05-02T13:00:48Z</time></trkpt><trkpt lat="44.314277527854735" lon="10.345525583479862"><ele>942.2</ele><time>2026-05-02T13:00:49Z</time></trkpt><trkpt lat="44.31431372149456" lon="10.345361103220108"><ele>943.8000000000001</ele><time>2026-05-02T13:00:50Z</time></trkpt><trkpt lat="44.31437164890204" lon="10.345224848602571"><ele>945.4000000000001</ele><time>2026-05-02T13:00:51Z</time></trkpt><trkpt lat="44.31442522226401" lon="10.345098825395468"><ele>947.0</ele><time>2026-05-02T13:00:52Z</time></trkpt><trkpt lat="44.314438342357356" lon="10.344926512666758"><ele>947.0</ele><time>2026-05-02T13:00:53Z</time></trkpt><trkpt lat="44.31443440393872" lon="10.344755287257355"><ele>947.0</ele><time>2026-05-02T13:00:54Z</time></trkpt><trkpt lat="44.31444430299829" lon="10.344592596999458"><ele>947.0</ele><time>2026-05-02T13:00:55Z</time></trkpt><trkpt lat="44.31445792401491" lon="10.344398575010182"><ele>947.0</ele><time>2026-05-02T13:00:56Z</time></trkpt><trkpt lat="44.3144585938631" lon="10.344230839769834"><ele>947.0</ele><time>2026-05-02T13:00:57Z</time></trkpt><trkpt lat="44.31445301009187" lon="10.344045511776915"><ele>947.0</ele><time>2026-05-02T13:00:58Z</time></trkpt><trkpt lat="44.314424506133" lon="10.343862905225604"><ele>947.0</ele><time>2026-05-02T13:00:59Z</time></trkpt><trkpt lat="44.31439437562175" lon="10.343685188024216"><ele>947.0</ele><time>2026-05-02T13:01:00Z</time></trkpt><trkpt lat="44.31435857945181" lon="10.343499574512622"><ele>946.5</ele><time>2026-05-02T13:01:01Z</time></trkpt><trkpt lat="44.314324198312896" lon="10.343314103178859"><ele>946.0</ele><time>2026-05-02T13:01:02Z</time></trkpt><trkpt lat="44.314299566296256" lon="10.34312704274678"><ele>945.5</ele><time>2026-05-02T13:01:03Z</time></trkpt><trkpt lat="44.31426496526195" lon="10.342954017264516"><ele>945.0</ele><time>2026-05-02T13:01:04Z</time></trkpt><trkpt lat="44.31427040353194" lon="10.342791433078556"><ele>945.0</ele><time>2026-05-02T13:01:05Z</time></trkpt><trkpt lat="44.314293061307616" lon="10.342646179984746"><ele>945.0</ele><time>2026-05-02T13:01:06Z</time></trkpt><trkpt lat="44.314320228566906" lon="10.342474912924256"><ele>945.0</ele><time>2026-05-02T13:01:07Z</time></trkpt><trkpt lat="44.31435375796297" lon="10.342293091130664"><ele>945.0</ele><time>2026-05-02T13:01:08Z</time></trkpt><trkpt lat="44.31439674056272" lon="10.342143042573207"><ele>946.2</ele><time>2026-05-02T13:01:09Z</time></trkpt><trkpt lat="44.31445176392173" lon="10.342017764271603"><ele>947.4</ele><time>2026-05-02T13:01:10Z</time></trkpt><trkpt lat="44.31453852075351" lon="10.341991156257528"><ele>948.5999999999999</ele><time>2026-05-02T13:01:11Z</time></trkpt><trkpt lat="44.31463329029313" lon="10.341956062029347"><ele>949.8</ele><time>2026-05-02T13:01:12Z</time></trkpt><trkpt lat="44.31475230542645" lon="10.34193370739139"><ele>951.0</ele><time>2026-05-02T13:01:13Z</time></trkpt><trkpt lat="44.31487469405361" lon="10.34193498423123"><ele>951.25</ele><time>2026-05-02T13:01:14Z</time></trkpt><trkpt lat="44.31499980215161" lon="10.341950215302488"><ele>951.5</ele><time>2026-05-02T13:01:15Z</time></trkpt><trkpt lat="44.31512701295226" lon="10.341997682339231"><ele>951.75</ele><time>2026-05-02T13:01:16Z</time></trkpt><trkpt lat="44.31525023798568" lon="10.342077991280297"><ele>952.0</ele><time>2026-05-02T13:01:17Z</time></trkpt><trkpt lat="44.31538071930441" lon="10.342166976640051"><ele>952.75</ele><time>2026-05-02T13:01:18Z</time></trkpt><trkpt lat="44.31550156698702" lon="10.34224137962118"><ele>953.5</ele><time>2026-05-02T13:01:19Z</time></trkpt><trkpt lat="44.3156114548175" lon="10.342296340942914"><ele>954.25</ele><time>2026-05-02T13:01:20Z</time></trkpt><trkpt lat="44.315691589376875" lon="10.34238885405758"><ele>955.0</ele><time>2026-05-02T13:01:20.999Z</time></trkpt><trkpt lat="44.31575143226913" lon="10.34252647055952"><ele>955.0</ele><time>2026-05-02T13:01:21.999Z</time></trkpt><trkpt lat="44.31577950149777" lon="10.342689867820201"><ele>955.0</ele><time>2026-05-02T13:01:22.999Z</time></trkpt><trkpt lat="44.315790719971154" lon="10.342846958342752"><ele>955.0</ele><time>2026-05-02T13:01:23.999Z</time></trkpt><trkpt lat="44.315828157669024" lon="10.342977124565197"><ele>955.0</ele><time>2026-05-02T13:01:24.999Z</time></trkpt><trkpt lat="44.315903240886314" lon="10.343066311346313"><ele>955.0</ele><time>2026-05-02T13:01:25.999Z</time></trkpt><trkpt lat="44.31600163365201" lon="10.343118814668872"><ele>954.75</ele><time>2026-05-02T13:01:26.999Z</time></trkpt><trkpt lat="44.316101259892186" lon="10.343131886318925"><ele>954.5</ele><time>2026-05-02T13:01:27.999Z</time></trkpt><trkpt lat="44.31620609101809" lon="10.34312466536583"><ele>954.25</ele><time>2026-05-02T13:01:28.999Z</time></trkpt><trkpt lat="44.31632989834825" lon="10.343131849977363"><ele>954.0</ele><time>2026-05-02T13:01:29.999Z</time></trkpt><trkpt lat="44.3164596210935" lon="10.343145860001073"><ele>954.0</ele><time>2026-05-02T13:01:30.999Z</time></trkpt><trkpt lat="44.31658223761845" lon="10.34316727815754"><ele>954.0000000000001</ele><time>2026-05-02T13:01:31.999Z</time></trkpt><trkpt lat="44.31669688573113" lon="10.343187339778545"><ele>954.0000000000001</ele><time>2026-05-02T13:01:32.999Z</time></trkpt><trkpt lat="44.31680011274461" lon="10.343236965794016"><ele>954.0</ele><time>2026-05-02T13:01:33.999Z</time></trkpt><trkpt lat="44.31689057468178" lon="10.343296801174377"><ele>954.0</ele><time>2026-05-02T13:01:34.999Z</time></trkpt><trkpt lat="44.31694941568438" lon="10.343399097382218"><ele>954.0</ele><time>2026-05-02T13:01:35.999Z</time></trkpt><trkpt lat="44.31699222517153" lon="10.343493175922962"><ele>954.0</ele><time>2026-05-02T13:01:36.999Z</time></trkpt><trkpt lat="44.317043026823214" lon="10.34354514908536"><ele>954.0</ele><time>2026-05-02T13:01:37.999Z</time></trkpt><trkpt lat="44.31711639226326" lon="10.343603313103579"><ele>954.0</ele><time>2026-05-02T13:01:39.999Z</time></trkpt><trkpt lat="44.31716536480693" lon="10.343516511931771"><ele>954.0</ele><time>2026-05-02T13:01:41.999Z</time></trkpt><trkpt lat="44.31712177471306" lon="10.34337037616179"><ele>954.0</ele><time>2026-05-02T13:01:44.999Z</time></trkpt><trkpt lat="44.31705515844847" lon="10.34329950448549"><ele>954.0</ele><time>2026-05-02T13:01:45.999Z</time></trkpt><trkpt lat="44.31698157767273" lon="10.343236336234968"><ele>954.0</ele><time>2026-05-02T13:01:46.999Z</time></trkpt><trkpt lat="44.31691041245319" lon="10.343177777857514"><ele>954.0</ele><time>2026-05-02T13:01:47.999Z</time></trkpt><trkpt lat="44.316843100161506" lon="10.343131529371272"><ele>954.0</ele><time>2026-05-02T13:01:48.999Z</time></trkpt><trkpt lat="44.316774947279974" lon="10.34307848993935"><ele>954.0</ele><time>2026-05-02T13:01:49.999Z</time></trkpt><trkpt lat="44.31670284196575" lon="10.343015712203512"><ele>954.0</ele><time>2026-05-02T13:01:50.999Z</time></trkpt><trkpt lat="44.31662760415022" lon="10.34295013339748"><ele>954.1666666666666</ele><time>2026-05-02T13:01:51.999Z</time></trkpt><trkpt lat="44.31655144660559" lon="10.34288901941499"><ele>954.3333333333333</ele><time>2026-05-02T13:01:52.999Z</time></trkpt><trkpt lat="44.316475340577924" lon="10.342823644578985"><ele>954.5</ele><time>2026-05-02T13:01:53.999Z</time></trkpt><trkpt lat="44.316398553480184" lon="10.342759365240237"><ele>954.6666666666666</ele><time>2026-05-02T13:01:54.999Z</time></trkpt><trkpt lat="44.316326759042006" lon="10.34270570363762"><ele>954.8333333333333</ele><time>2026-05-02T13:01:55.999Z</time></trkpt><trkpt lat="44.316262351776636" lon="10.342633602003865"><ele>955.0</ele><time>2026-05-02T13:01:56.999Z</time></trkpt><trkpt lat="44.3162210971921" lon="10.342548236136505"><ele>955.0</ele><time>2026-05-02T13:01:57.999Z</time></trkpt><trkpt lat="44.316194788146575" lon="10.342436006689532"><ele>955.0</ele><time>2026-05-02T13:01:58.999Z</time></trkpt><trkpt lat="44.31619728364145" lon="10.342284287708294"><ele>955.0</ele><time>2026-05-02T13:01:59.999Z</time></trkpt><trkpt lat="44.316206208612236" lon="10.342137184120684"><ele>955.0</ele><time>2026-05-02T13:02:00.999Z</time></trkpt><trkpt lat="44.31621951808062" lon="10.341982072000368"><ele>955.0</ele><time>2026-05-02T13:02:01.999Z</time></trkpt><trkpt lat="44.31623548018021" lon="10.341797927825695"><ele>958.6666666666666</ele><time>2026-05-02T13:02:02.999Z</time></trkpt><trkpt lat="44.3163093900061" lon="10.341583609413538"><ele>962.3333333333333</ele><time>2026-05-02T13:02:03.999Z</time></trkpt><trkpt lat="44.31634950081689" lon="10.341348719889968"><ele>966.0</ele><time>2026-05-02T13:02:04.999Z</time></trkpt><trkpt lat="44.31639479414418" lon="10.34114728200759"><ele>969.4</ele><time>2026-05-02T13:02:05.999Z</time></trkpt><trkpt lat="44.31641421674831" lon="10.340975718836011"><ele>972.8</ele><time>2026-05-02T13:02:06.999Z</time></trkpt><trkpt lat="44.31643622034553" lon="10.340827795019706"><ele>976.1999999999999</ele><time>2026-05-02T13:02:07.999Z</time></trkpt><trkpt lat="44.31644948261154" lon="10.340697340354376"><ele>979.5999999999999</ele><time>2026-05-02T13:02:08.999Z</time></trkpt><trkpt lat="44.31644259225078" lon="10.340578249915335"><ele>983.0</ele><time>2026-05-02T13:02:09.999Z</time></trkpt><trkpt lat="44.31639511500346" lon="10.340465454379405"><ele>983.0000000000001</ele><time>2026-05-02T13:02:10.999Z</time></trkpt><trkpt lat="44.31632991399784" lon="10.340365888453492"><ele>983.0</ele><time>2026-05-02T13:02:11.999Z</time></trkpt><trkpt lat="44.316269771541144" lon="10.340265510179231"><ele>983.0</ele><time>2026-05-02T13:02:12.999Z</time></trkpt><trkpt lat="44.31623206381538" lon="10.340161868696372"><ele>983.0</ele><time>2026-05-02T13:02:13.999Z</time></trkpt><trkpt lat="44.31621306155435" lon="10.340043091630985"><ele>983.0000000000001</ele><time>2026-05-02T13:02:14.999Z</time></trkpt><trkpt lat="44.31618374534454" lon="10.339939904586037"><ele>983.0</ele><time>2026-05-02T13:02:15.999Z</time></trkpt><trkpt lat="44.31612586261729" lon="10.339854707864935"><ele>983.0</ele><time>2026-05-02T13:02:16.999Z</time></trkpt><trkpt lat="44.31605736499441" lon="10.339801745337077"><ele>983.0</ele><time>2026-05-02T13:02:17.999Z</time></trkpt><trkpt lat="44.31599159815484" lon="10.339731585421951"><ele>983.0</ele><time>2026-05-02T13:02:18.999Z</time></trkpt><trkpt lat="44.31589837630565" lon="10.339692939947167"><ele>983.0</ele><time>2026-05-02T13:02:19.999Z</time></trkpt><trkpt lat="44.31579448736641" lon="10.339633266958169"><ele>983.0</ele><time>2026-05-02T13:02:21Z</time></trkpt><trkpt lat="44.31568789084169" lon="10.339575721424021"><ele>983.25</ele><time>2026-05-02T13:02:22Z</time></trkpt><trkpt lat="44.31557216675859" lon="10.339538377375762"><ele>983.5</ele><time>2026-05-02T13:02:23Z</time></trkpt><trkpt lat="44.31546330759912" lon="10.33946958274719"><ele>983.75</ele><time>2026-05-02T13:02:24Z</time></trkpt><trkpt lat="44.31535359073359" lon="10.339409191039563"><ele>984.0</ele><time>2026-05-02T13:02:25Z</time></trkpt><trkpt lat="44.315254640728604" lon="10.339340649442873"><ele>984.0</ele><time>2026-05-02T13:02:26Z</time></trkpt><trkpt lat="44.315150727853116" lon="10.339275671303364"><ele>984.0</ele><time>2026-05-02T13:02:27Z</time></trkpt><trkpt lat="44.315036725935904" lon="10.339225960990564"><ele>984.0</ele><time>2026-05-02T13:02:28Z</time></trkpt><trkpt lat="44.31492075183494" lon="10.339179792842925"><ele>984.0</ele><time>2026-05-02T13:02:29Z</time></trkpt><trkpt lat="44.314797116726425" lon="10.339103594369814"><ele>985.25</ele><time>2026-05-02T13:02:30Z</time></trkpt><trkpt lat="44.3146707697245" lon="10.339072600314125"><ele>986.5</ele><time>2026-05-02T13:02:31Z</time></trkpt><trkpt lat="44.31453470845645" lon="10.339016976810557"><ele>987.75</ele><time>2026-05-02T13:02:32Z</time></trkpt><trkpt lat="44.31440013460985" lon="10.338965567422498"><ele>989.0</ele><time>2026-05-02T13:02:33Z</time></trkpt><trkpt lat="44.31426585169345" lon="10.338907066146183"><ele>988.5</ele><time>2026-05-02T13:02:34Z</time></trkpt><trkpt lat="44.314132847537095" lon="10.338827453676378"><ele>988.0</ele><time>2026-05-02T13:02:35Z</time></trkpt><trkpt lat="44.31399806586961" lon="10.338764479768074"><ele>987.5</ele><time>2026-05-02T13:02:36Z</time></trkpt><trkpt lat="44.313853881081585" lon="10.338715524447244"><ele>987.0</ele><time>2026-05-02T13:02:37Z</time></trkpt><trkpt lat="44.31370752162575" lon="10.338645834318076"><ele>987.0</ele><time>2026-05-02T13:02:38Z</time></trkpt><trkpt lat="44.3135595119957" lon="10.33857890423194"><ele>987.0</ele><time>2026-05-02T13:02:39Z</time></trkpt><trkpt lat="44.31339862298926" lon="10.338525446535916"><ele>987.0</ele><time>2026-05-02T13:02:40Z</time></trkpt><trkpt lat="44.31321545925617" lon="10.338493200276133"><ele>990.3333333333333</ele><time>2026-05-02T13:02:41Z</time></trkpt><trkpt lat="44.31303784057056" lon="10.338486418392753"><ele>993.6666666666666</ele><time>2026-05-02T13:02:42Z</time></trkpt><trkpt lat="44.31285615574661" lon="10.338463890212669"><ele>997.0</ele><time>2026-05-02T13:02:43Z</time></trkpt><trkpt lat="44.312689314882945" lon="10.338388751643564"><ele>997.0</ele><time>2026-05-02T13:02:44Z</time></trkpt><trkpt lat="44.31254209730102" lon="10.338288849790654"><ele>997.0</ele><time>2026-05-02T13:02:45Z</time></trkpt><trkpt lat="44.31241520329332" lon="10.338122732698642"><ele>997.0</ele><time>2026-05-02T13:02:46Z</time></trkpt><trkpt lat="44.31225397940995" lon="10.33802003061744"><ele>999.0</ele><time>2026-05-02T13:02:47Z</time></trkpt><trkpt lat="44.312100034588006" lon="10.337914409630146"><ele>1001.0</ele><time>2026-05-02T13:02:48Z</time></trkpt><trkpt lat="44.311960999641414" lon="10.337800971966335"><ele>1003.0</ele><time>2026-05-02T13:02:49Z</time></trkpt><trkpt lat="44.31185440261598" lon="10.337646478685171"><ele>1003.0</ele><time>2026-05-02T13:02:50Z</time></trkpt><trkpt lat="44.31175362570951" lon="10.337466781769072"><ele>1003.0</ele><time>2026-05-02T13:02:51Z</time></trkpt><trkpt lat="44.311676162704295" lon="10.33726447768281"><ele>1003.0</ele><time>2026-05-02T13:02:52Z</time></trkpt><trkpt lat="44.311616397675095" lon="10.337041259103046"><ele>1003.0</ele><time>2026-05-02T13:02:53Z</time></trkpt><trkpt lat="44.311587331108456" lon="10.336808361320557"><ele>1003.0</ele><time>2026-05-02T13:02:54Z</time></trkpt><trkpt lat="44.31159542562059" lon="10.336582934177386"><ele>1003.0</ele><time>2026-05-02T13:02:55Z</time></trkpt><trkpt lat="44.31159897109559" lon="10.336373605831767"><ele>1003.0</ele><time>2026-05-02T13:02:56Z</time></trkpt><trkpt lat="44.31161249849479" lon="10.33618839098041"><ele>1003.0</ele><time>2026-05-02T13:02:57Z</time></trkpt><trkpt lat="44.31161854207418" lon="10.33601863871055"><ele>1003.0</ele><time>2026-05-02T13:02:58Z</time></trkpt><trkpt lat="44.311617987035945" lon="10.335855564189433"><ele>1003.0</ele><time>2026-05-02T13:02:59Z</time></trkpt><trkpt lat="44.31158305016387" lon="10.335701082142528"><ele>1003.0</ele><time>2026-05-02T13:03:00Z</time></trkpt><trkpt lat="44.31150629753316" lon="10.33556158024762"><ele>1003.0</ele><time>2026-05-02T13:03:01Z</time></trkpt><trkpt lat="44.3113694309571" lon="10.33545180015073"><ele>1003.0</ele><time>2026-05-02T13:03:02Z</time></trkpt><trkpt lat="44.31122644348243" lon="10.335339277434597"><ele>1003.0</ele><time>2026-05-02T13:03:03Z</time></trkpt><trkpt lat="44.311085250322925" lon="10.335208276461389"><ele>1005.3333333333333</ele><time>2026-05-02T13:03:04Z</time></trkpt><trkpt lat="44.31094345106042" lon="10.335064920149575"><ele>1007.6666666666667</ele><time>2026-05-02T13:03:05Z</time></trkpt><trkpt lat="44.31080149016034" lon="10.334932313304838"><ele>1010.0</ele><time>2026-05-02T13:03:06Z</time></trkpt><trkpt lat="44.310650886765394" lon="10.33481466778487"><ele>1008.6666666666667</ele><time>2026-05-02T13:03:07Z</time></trkpt><trkpt lat="44.3104868550914" lon="10.3346842434396"><ele>1007.3333333333333</ele><time>2026-05-02T13:03:08Z</time></trkpt><trkpt lat="44.310309198278674" lon="10.33461230635492"><ele>1006.0</ele><time>2026-05-02T13:03:09Z</time></trkpt><trkpt lat="44.310145333427556" lon="10.334533919090624"><ele>1006.0</ele><time>2026-05-02T13:03:10Z</time></trkpt><trkpt lat="44.30998895866733" lon="10.334436780591947"><ele>1006.0</ele><time>2026-05-02T13:03:11Z</time></trkpt><trkpt lat="44.30983685417725" lon="10.334283280011537"><ele>1006.0</ele><time>2026-05-02T13:03:12Z</time></trkpt><trkpt lat="44.3096854485674" lon="10.33410317300937"><ele>1005.6666666666666</ele><time>2026-05-02T13:03:13Z</time></trkpt><trkpt lat="44.30954206739094" lon="10.333923810789027"><ele>1005.3333333333333</ele><time>2026-05-02T13:03:14Z</time></trkpt><trkpt lat="44.30938466418225" lon="10.333758119841734"><ele>1005.0</ele><time>2026-05-02T13:03:15Z</time></trkpt><trkpt lat="44.309227904835275" lon="10.33362254129765"><ele>1004.6666666666667</ele><time>2026-05-02T13:03:16Z</time></trkpt><trkpt lat="44.309092810386076" lon="10.333462930430759"><ele>1004.3333333333334</ele><time>2026-05-02T13:03:16.999Z</time></trkpt><trkpt lat="44.30895194021474" lon="10.333322825362943"><ele>1004.0</ele><time>2026-05-02T13:03:17.999Z</time></trkpt><trkpt lat="44.308816479558786" lon="10.333166849102453"><ele>1004.0</ele><time>2026-05-02T13:03:18.999Z</time></trkpt><trkpt lat="44.308671888024804" lon="10.333005975379775"><ele>1004.0</ele><time>2026-05-02T13:03:19.999Z</time></trkpt><trkpt lat="44.308511978282965" lon="10.332865588895809"><ele>1004.0</ele><time>2026-05-02T13:03:20.999Z</time></trkpt><trkpt lat="44.30834869377091" lon="10.332708649293341"><ele>1004.0</ele><time>2026-05-02T13:03:21.999Z</time></trkpt><trkpt lat="44.30819237041592" lon="10.332551938011274"><ele>1004.0</ele><time>2026-05-02T13:03:22.999Z</time></trkpt><trkpt lat="44.308055377430755" lon="10.33241149326522"><ele>1004.0</ele><time>2026-05-02T13:03:23.999Z</time></trkpt><trkpt lat="44.307955042061536" lon="10.332221410943454"><ele>1005.6666666666667</ele><time>2026-05-02T13:03:24.999Z</time></trkpt><trkpt lat="44.307856139355806" lon="10.332021306271146"><ele>1007.3333333333333</ele><time>2026-05-02T13:03:25.999Z</time></trkpt><trkpt lat="44.30777437048836" lon="10.331828296364785"><ele>1009.0</ele><time>2026-05-02T13:03:26.999Z</time></trkpt><trkpt lat="44.30770035245482" lon="10.331687544691041"><ele>1008.9999999999999</ele><time>2026-05-02T13:03:27.999Z</time></trkpt><trkpt lat="44.30765331574209" lon="10.33157561353219"><ele>1009.0</ele><time>2026-05-02T13:03:28.999Z</time></trkpt><trkpt lat="44.307616947026965" lon="10.331486883508795"><ele>1009.0</ele><time>2026-05-02T13:03:29.999Z</time></trkpt><trkpt lat="44.307583831563925" lon="10.331406770084302"><ele>1009.0</ele><time>2026-05-02T13:03:30.999Z</time></trkpt><trkpt lat="44.307542541327095" lon="10.331320894411753"><ele>1008.9999999999999</ele><time>2026-05-02T13:03:31.999Z</time></trkpt><trkpt lat="44.30748050973558" lon="10.331220599645254"><ele>1009.0</ele><time>2026-05-02T13:03:32.999Z</time></trkpt><trkpt lat="44.307411131241835" lon="10.331111917879152"><ele>1007.25</ele><time>2026-05-02T13:03:33.999Z</time></trkpt><trkpt lat="44.30733511818533" lon="10.330989774352583"><ele>1005.5</ele><time>2026-05-02T13:03:34.999Z</time></trkpt><trkpt lat="44.307244769751065" lon="10.330863164077115"><ele>1003.75</ele><time>2026-05-02T13:03:35.999Z</time></trkpt><trkpt lat="44.307136478879265" lon="10.330723438269157"><ele>1002.0</ele><time>2026-05-02T13:03:36.999Z</time></trkpt><trkpt lat="44.307040859856976" lon="10.33056518014254"><ele>1003.5</ele><time>2026-05-02T13:03:37.999Z</time></trkpt><trkpt lat="44.30694606139984" lon="10.330438780979183"><ele>1005.0</ele><time>2026-05-02T13:03:38.999Z</time></trkpt><trkpt lat="44.30685899500682" lon="10.330324319191856"><ele>1006.5</ele><time>2026-05-02T13:03:39.999Z</time></trkpt><trkpt lat="44.306764261374376" lon="10.330199777746857"><ele>1008.0</ele><time>2026-05-02T13:03:40.999Z</time></trkpt><trkpt lat="44.30660027563073" lon="10.329979498922464"><ele>1008.0</ele><time>2026-05-02T13:03:41.999Z</time></trkpt><trkpt lat="44.3065036094738" lon="10.329856483746099"><ele>1008.0</ele><time>2026-05-02T13:03:42.999Z</time></trkpt><trkpt lat="44.306428256784386" lon="10.329702951399216"><ele>1008.0</ele><time>2026-05-02T13:03:43.999Z</time></trkpt><trkpt lat="44.306354068766474" lon="10.329539153845264"><ele>1008.0</ele><time>2026-05-02T13:03:44.999Z</time></trkpt><trkpt lat="44.30627985422285" lon="10.329386746447053"><ele>1010.8</ele><time>2026-05-02T13:03:45.999Z</time></trkpt><trkpt lat="44.30622688901605" lon="10.329252788177406"><ele>1013.5999999999999</ele><time>2026-05-02T13:03:46.999Z</time></trkpt><trkpt lat="44.306161091820414" lon="10.329172175841695"><ele>1016.4000000000001</ele><time>2026-05-02T13:03:47.999Z</time></trkpt><trkpt lat="44.306072570508114" lon="10.329133171670716"><ele>1019.2</ele><time>2026-05-02T13:03:48.999Z</time></trkpt><trkpt lat="44.30597346995817" lon="10.32912313846746"><ele>1022.0</ele><time>2026-05-02T13:03:49.999Z</time></trkpt><trkpt lat="44.30590965192503" lon="10.329114432259713"><ele>1022.0</ele><time>2026-05-02T13:03:50.999Z</time></trkpt><trkpt lat="44.30582497364408" lon="10.329019427416327"><ele>1022.0</ele><time>2026-05-02T13:03:52.999Z</time></trkpt><trkpt lat="44.30586954627733" lon="10.32889186069157"><ele>1022.0</ele><time>2026-05-02T13:03:53.999Z</time></trkpt><trkpt lat="44.30587922772953" lon="10.328741029014424"><ele>1022.0</ele><time>2026-05-02T13:03:54.999Z</time></trkpt><trkpt lat="44.30595493139086" lon="10.328636925379557"><ele>1022.0</ele><time>2026-05-02T13:03:55.999Z</time></trkpt><trkpt lat="44.30605467693001" lon="10.328512574839069"><ele>1025.0</ele><time>2026-05-02T13:03:56.999Z</time></trkpt><trkpt lat="44.306156316137546" lon="10.328380518955683"><ele>1028.0</ele><time>2026-05-02T13:03:57.999Z</time></trkpt><trkpt lat="44.3062290463472" lon="10.328189333161982"><ele>1031.0</ele><time>2026-05-02T13:03:58.999Z</time></trkpt><trkpt lat="44.3063058080681" lon="10.328010142231006"><ele>1034.0</ele><time>2026-05-02T13:03:59.999Z</time></trkpt><trkpt lat="44.3063432023195" lon="10.327851055847526"><ele>1037.6000000000001</ele><time>2026-05-02T13:04:00.999Z</time></trkpt><trkpt lat="44.30639699930881" lon="10.327723071781651"><ele>1041.2</ele><time>2026-05-02T13:04:01.999Z</time></trkpt><trkpt lat="44.30644034092008" lon="10.327605700940344"><ele>1044.8000000000002</ele><time>2026-05-02T13:04:02.999Z</time></trkpt><trkpt lat="44.30645472408048" lon="10.327455421812282"><ele>1048.4</ele><time>2026-05-02T13:04:03.999Z</time></trkpt><trkpt lat="44.3064342998507" lon="10.327281535774178"><ele>1052.0</ele><time>2026-05-02T13:04:04.999Z</time></trkpt><trkpt lat="44.30641013127458" lon="10.327093133647276"><ele>1052.0</ele><time>2026-05-02T13:04:05.999Z</time></trkpt><trkpt lat="44.306383223917685" lon="10.326927493730105"><ele>1052.0</ele><time>2026-05-02T13:04:06.999Z</time></trkpt><trkpt lat="44.306363161674476" lon="10.326785767238846"><ele>1052.0</ele><time>2026-05-02T13:04:07.999Z</time></trkpt><trkpt lat="44.30632906857471" lon="10.326676455271992"><ele>1052.0</ele><time>2026-05-02T13:04:08.999Z</time></trkpt><trkpt lat="44.30625658926297" lon="10.326604775750894"><ele>1052.0</ele><time>2026-05-02T13:04:09.999Z</time></trkpt><trkpt lat="44.30615200887383" lon="10.326535249229382"><ele>1052.0</ele><time>2026-05-02T13:04:10.999Z</time></trkpt><trkpt lat="44.306049983751436" lon="10.326447258235293"><ele>1052.0</ele><time>2026-05-02T13:04:11.999Z</time></trkpt><trkpt lat="44.30595447036222" lon="10.326334216106455"><ele>1052.0</ele><time>2026-05-02T13:04:12.999Z</time></trkpt><trkpt lat="44.30588846377758" lon="10.326202351528108"><ele>1052.0</ele><time>2026-05-02T13:04:13.999Z</time></trkpt><trkpt lat="44.30583612747758" lon="10.326047011373452"><ele>1047.0</ele><time>2026-05-02T13:04:14.999Z</time></trkpt><trkpt lat="44.30583698919225" lon="10.325870640177671"><ele>1042.0</ele><time>2026-05-02T13:04:15.999Z</time></trkpt><trkpt lat="44.30581692616859" lon="10.32570141513822"><ele>1037.0</ele><time>2026-05-02T13:04:16.999Z</time></trkpt><trkpt lat="44.30580271709649" lon="10.32555053041152"><ele>1032.0</ele><time>2026-05-02T13:04:17.999Z</time></trkpt><trkpt lat="44.3057608323681" lon="10.325431155844454"><ele>1026.5</ele><time>2026-05-02T13:04:18.999Z</time></trkpt><trkpt lat="44.305674447593816" lon="10.325318388702797"><ele>1021.0</ele><time>2026-05-02T13:04:19.999Z</time></trkpt><trkpt lat="44.30559881047028" lon="10.325219747573747"><ele>1015.5</ele><time>2026-05-02T13:04:20.999Z</time></trkpt><trkpt lat="44.3055254329093" lon="10.325115621960176"><ele>1010.0</ele><time>2026-05-02T13:04:21.999Z</time></trkpt><trkpt lat="44.305495081488154" lon="10.324918977207362"><ele>1014.4</ele><time>2026-05-02T13:04:22.999Z</time></trkpt><trkpt lat="44.30545366406509" lon="10.324732686704087"><ele>1018.8</ele><time>2026-05-02T13:04:23.999Z</time></trkpt><trkpt lat="44.30542121774317" lon="10.32459270425493"><ele>1023.2</ele><time>2026-05-02T13:04:24.999Z</time></trkpt><trkpt lat="44.305382705635715" lon="10.324490827566272"><ele>1027.6</ele><time>2026-05-02T13:04:25.999Z</time></trkpt><trkpt lat="44.30531456141025" lon="10.324404046115466"><ele>1032.0</ele><time>2026-05-02T13:04:27Z</time></trkpt><trkpt lat="44.30519501609024" lon="10.324327825952178"><ele>1032.0</ele><time>2026-05-02T13:04:28Z</time></trkpt><trkpt lat="44.30507993387025" lon="10.324217064684525"><ele>1032.0</ele><time>2026-05-02T13:04:29Z</time></trkpt><trkpt lat="44.30496866344123" lon="10.324100020541781"><ele>1032.0</ele><time>2026-05-02T13:04:30Z</time></trkpt><trkpt lat="44.30485569942061" lon="10.323979210826955"><ele>1032.0</ele><time>2026-05-02T13:04:31Z</time></trkpt><trkpt lat="44.30475111953827" lon="10.323858337543909"><ele>1033.5</ele><time>2026-05-02T13:04:32Z</time></trkpt><trkpt lat="44.30462702223921" lon="10.323763740770653"><ele>1035.0</ele><time>2026-05-02T13:04:33Z</time></trkpt><trkpt lat="44.30450000741917" lon="10.323679244192471"><ele>1036.5</ele><time>2026-05-02T13:04:34Z</time></trkpt><trkpt lat="44.30435933256764" lon="10.323612162780236"><ele>1038.0</ele><time>2026-05-02T13:04:35Z</time></trkpt><trkpt lat="44.304242933145716" lon="10.323534748832975"><ele>1038.0</ele><time>2026-05-02T13:04:36Z</time></trkpt><trkpt lat="44.30412289896008" lon="10.323440027976172"><ele>1038.0</ele><time>2026-05-02T13:04:37Z</time></trkpt><trkpt lat="44.30399177130883" lon="10.323325565335631"><ele>1038.0</ele><time>2026-05-02T13:04:38Z</time></trkpt><trkpt lat="44.30385386333824" lon="10.323198581811647"><ele>1042.0</ele><time>2026-05-02T13:04:39Z</time></trkpt><trkpt lat="44.30371709965824" lon="10.323064508789312"><ele>1046.0</ele><time>2026-05-02T13:04:40Z</time></trkpt><trkpt lat="44.30357741556449" lon="10.322927536151326"><ele>1050.0</ele><time>2026-05-02T13:04:41Z</time></trkpt><trkpt lat="44.30343387383472" lon="10.322789987278096"><ele>1050.0</ele><time>2026-05-02T13:04:42Z</time></trkpt><trkpt lat="44.30328562545026" lon="10.322657060182298"><ele>1050.0</ele><time>2026-05-02T13:04:43Z</time></trkpt><trkpt lat="44.303148938477875" lon="10.322512826508238"><ele>1050.0</ele><time>2026-05-02T13:04:44Z</time></trkpt><trkpt lat="44.303046005553526" lon="10.322340575017856"><ele>1055.6666666666667</ele><time>2026-05-02T13:04:45Z</time></trkpt><trkpt lat="44.3029656752163" lon="10.3221489410232"><ele>1061.3333333333335</ele><time>2026-05-02T13:04:46Z</time></trkpt><trkpt lat="44.30290378122929" lon="10.321935349470982"><ele>1067.0</ele><time>2026-05-02T13:04:47Z</time></trkpt><trkpt lat="44.30284083542825" lon="10.321728743082284"><ele>1067.0</ele><time>2026-05-02T13:04:48Z</time></trkpt><trkpt lat="44.30277849763775" lon="10.32154160463254"><ele>1067.0</ele><time>2026-05-02T13:04:49Z</time></trkpt><trkpt lat="44.30267455606249" lon="10.321399720395899"><ele>1067.0</ele><time>2026-05-02T13:04:50Z</time></trkpt><trkpt lat="44.30252888353528" lon="10.32130046590468"><ele>1071.6666666666667</ele><time>2026-05-02T13:04:51Z</time></trkpt><trkpt lat="44.30235897572757" lon="10.321229378066166"><ele>1076.3333333333333</ele><time>2026-05-02T13:04:52Z</time></trkpt><trkpt lat="44.30218022132442" lon="10.321164796674845"><ele>1081.0</ele><time>2026-05-02T13:04:53Z</time></trkpt><trkpt lat="44.30199278438959" lon="10.321115011867843"><ele>1081.0</ele><time>2026-05-02T13:04:54Z</time></trkpt><trkpt lat="44.30180021846618" lon="10.32108063267884"><ele>1081.0</ele><time>2026-05-02T13:04:55Z</time></trkpt><trkpt lat="44.30161393450876" lon="10.321023967051518"><ele>1081.0</ele><time>2026-05-02T13:04:56Z</time></trkpt><trkpt lat="44.30143092687468" lon="10.320927162610374"><ele>1085.3333333333333</ele><time>2026-05-02T13:04:57Z</time></trkpt><trkpt lat="44.30124014619759" lon="10.320825892225285"><ele>1089.6666666666667</ele><time>2026-05-02T13:04:58Z</time></trkpt><trkpt lat="44.30104894420977" lon="10.320716549603182"><ele>1094.0</ele><time>2026-05-02T13:04:59Z</time></trkpt><trkpt lat="44.300872623699604" lon="10.320590962176414"><ele>1096.0</ele><time>2026-05-02T13:05:00Z</time></trkpt><trkpt lat="44.30070515898697" lon="10.32045098588289"><ele>1098.0</ele><time>2026-05-02T13:05:01Z</time></trkpt><trkpt lat="44.30055001914936" lon="10.320315135325961"><ele>1100.0</ele><time>2026-05-02T13:05:02Z</time></trkpt><trkpt lat="44.30040568155754" lon="10.320211820070494"><ele>1100.8333333333335</ele><time>2026-05-02T13:05:03Z</time></trkpt><trkpt lat="44.30029601315703" lon="10.320114681238838"><ele>1101.6666666666667</ele><time>2026-05-02T13:05:04Z</time></trkpt><trkpt lat="44.30021567762441" lon="10.320039482892879"><ele>1102.5</ele><time>2026-05-02T13:05:05Z</time></trkpt><trkpt lat="44.300175441375586" lon="10.319968062354027"><ele>1103.3333333333333</ele><time>2026-05-02T13:05:06Z</time></trkpt><trkpt lat="44.300169915502515" lon="10.319873085947826"><ele>1104.1666666666665</ele><time>2026-05-02T13:05:07Z</time></trkpt><trkpt lat="44.30019524046959" lon="10.3197822600164"><ele>1105.0</ele><time>2026-05-02T13:05:08Z</time></trkpt><trkpt lat="44.30030160724267" lon="10.319718190478994"><ele>1107.75</ele><time>2026-05-02T13:05:09Z</time></trkpt><trkpt lat="44.30041249945653" lon="10.319731776313303"><ele>1110.5</ele><time>2026-05-02T13:05:10Z</time></trkpt><trkpt lat="44.30054573664726" lon="10.319695027535674"><ele>1113.25</ele><time>2026-05-02T13:05:11Z</time></trkpt><trkpt lat="44.30069394449126" lon="10.319670826040417"><ele>1116.0</ele><time>2026-05-02T13:05:12Z</time></trkpt><trkpt lat="44.300845894142064" lon="10.319638513440648"><ele>1116.0</ele><time>2026-05-02T13:05:13Z</time></trkpt><trkpt lat="44.30100804219208" lon="10.319594050398694"><ele>1116.0</ele><time>2026-05-02T13:05:14Z</time></trkpt><trkpt lat="44.30117574944935" lon="10.319554333399342"><ele>1116.0</ele><time>2026-05-02T13:05:15Z</time></trkpt><trkpt lat="44.301325853682776" lon="10.319528727495774"><ele>1119.0</ele><time>2026-05-02T13:05:16Z</time></trkpt><trkpt lat="44.30145081427215" lon="10.319523866643959"><ele>1122.0</ele><time>2026-05-02T13:05:17Z</time></trkpt><trkpt lat="44.30153344169499" lon="10.319599712562221"><ele>1125.0</ele><time>2026-05-02T13:05:18Z</time></trkpt><trkpt lat="44.30160192568735" lon="10.319649846876183"><ele>1128.0</ele><time>2026-05-02T13:05:19Z</time></trkpt><trkpt lat="44.3016640439037" lon="10.319674611180501"><ele>1131.0</ele><time>2026-05-02T13:05:20Z</time></trkpt><trkpt lat="44.30177343160551" lon="10.319480291823357"><ele>1131.0</ele><time>2026-05-02T13:05:21.999Z</time></trkpt><trkpt lat="44.301742785743194" lon="10.319339933418805"><ele>1131.0</ele><time>2026-05-02T13:05:22.999Z</time></trkpt><trkpt lat="44.301679886392954" lon="10.319234690886585"><ele>1131.0</ele><time>2026-05-02T13:05:23.999Z</time></trkpt><trkpt lat="44.301552395136206" lon="10.319207708276217"><ele>1131.0</ele><time>2026-05-02T13:05:24.999Z</time></trkpt><trkpt lat="44.30140764155239" lon="10.319152159905752"><ele>1134.3333333333333</ele><time>2026-05-02T13:05:25.999Z</time></trkpt><trkpt lat="44.301290201921134" lon="10.318992988131203"><ele>1137.6666666666665</ele><time>2026-05-02T13:05:26.999Z</time></trkpt><trkpt lat="44.30115101905455" lon="10.31882367141203"><ele>1141.0</ele><time>2026-05-02T13:05:27.999Z</time></trkpt><trkpt lat="44.30098501010433" lon="10.318666297490168"><ele>1141.0</ele><time>2026-05-02T13:05:28.999Z</time></trkpt><trkpt lat="44.30082363566517" lon="10.318515270667403"><ele>1141.0</ele><time>2026-05-02T13:05:29.999Z</time></trkpt><trkpt lat="44.300662541894916" lon="10.318390337909927"><ele>1141.0</ele><time>2026-05-02T13:05:30.999Z</time></trkpt><trkpt lat="44.30050627640505" lon="10.31826922330484"><ele>1138.6666666666665</ele><time>2026-05-02T13:05:31.999Z</time></trkpt><trkpt lat="44.30035355266428" lon="10.318141895130404"><ele>1136.3333333333333</ele><time>2026-05-02T13:05:32.999Z</time></trkpt><trkpt lat="44.30021411762066" lon="10.31799981035524"><ele>1134.0</ele><time>2026-05-02T13:05:33.999Z</time></trkpt><trkpt lat="44.30008598793637" lon="10.317835403729472"><ele>1139.3333333333333</ele><time>2026-05-02T13:05:34.999Z</time></trkpt><trkpt lat="44.299958108338544" lon="10.317676200100534"><ele>1144.6666666666665</ele><time>2026-05-02T13:05:35.999Z</time></trkpt><trkpt lat="44.29982047231073" lon="10.317552051181774"><ele>1150.0</ele><time>2026-05-02T13:05:36.999Z</time></trkpt><trkpt lat="44.29967612583811" lon="10.317463644282233"><ele>1150.0</ele><time>2026-05-02T13:05:37.999Z</time></trkpt><trkpt lat="44.299526835178455" lon="10.317420920749116"><ele>1150.0</ele><time>2026-05-02T13:05:38.999Z</time></trkpt><trkpt lat="44.29939868818906" lon="10.317327016938457"><ele>1150.0</ele><time>2026-05-02T13:05:39.999Z</time></trkpt><trkpt lat="44.299282997782996" lon="10.317220363300594"><ele>1150.0</ele><time>2026-05-02T13:05:40.999Z</time></trkpt><trkpt lat="44.299138235394274" lon="10.317110817019765"><ele>1154.0</ele><time>2026-05-02T13:05:41.999Z</time></trkpt><trkpt lat="44.2990191469884" lon="10.317012073947302"><ele>1158.0</ele><time>2026-05-02T13:05:42.999Z</time></trkpt><trkpt lat="44.29890780468326" lon="10.316921150556889"><ele>1162.0</ele><time>2026-05-02T13:05:43.999Z</time></trkpt><trkpt lat="44.29880778159843" lon="10.316843393920715"><ele>1166.0</ele><time>2026-05-02T13:05:44.999Z</time></trkpt><trkpt lat="44.29872153898537" lon="10.316779005702509"><ele>1166.0</ele><time>2026-05-02T13:05:45.999Z</time></trkpt><trkpt lat="44.298653692673746" lon="10.316691827586817"><ele>1166.0</ele><time>2026-05-02T13:05:46.999Z</time></trkpt><trkpt lat="44.29858533815173" lon="10.316608209171957"><ele>1166.0</ele><time>2026-05-02T13:05:47.999Z</time></trkpt><trkpt lat="44.29851875690917" lon="10.3165019749367"><ele>1166.0</ele><time>2026-05-02T13:05:48.999Z</time></trkpt><trkpt lat="44.2984438392419" lon="10.316423782863444"><ele>1166.0</ele><time>2026-05-02T13:05:49.999Z</time></trkpt><trkpt lat="44.29836414528175" lon="10.316337191909948"><ele>1168.25</ele><time>2026-05-02T13:05:50.999Z</time></trkpt><trkpt lat="44.29826660480394" lon="10.316265518589692"><ele>1170.5</ele><time>2026-05-02T13:05:51.999Z</time></trkpt><trkpt lat="44.29815398796569" lon="10.316195818956194"><ele>1172.75</ele><time>2026-05-02T13:05:52.999Z</time></trkpt><trkpt lat="44.298045469187734" lon="10.316118985469286"><ele>1175.0</ele><time>2026-05-02T13:05:53.999Z</time></trkpt><trkpt lat="44.297945261697734" lon="10.31603112531747"><ele>1175.0</ele><time>2026-05-02T13:05:54.999Z</time></trkpt><trkpt lat="44.29785182071282" lon="10.315942879156282"><ele>1175.0</ele><time>2026-05-02T13:05:55.999Z</time></trkpt><trkpt lat="44.297757857391375" lon="10.315856647760741"><ele>1175.0</ele><time>2026-05-02T13:05:56.999Z</time></trkpt><trkpt lat="44.2976550011762" lon="10.315776148129203"><ele>1175.0</ele><time>2026-05-02T13:05:57.999Z</time></trkpt><trkpt lat="44.29755244654755" lon="10.315694899178052"><ele>1175.0</ele><time>2026-05-02T13:05:58.999Z</time></trkpt><trkpt lat="44.29749895409153" lon="10.315619184406215"><ele>1175.0</ele><time>2026-05-02T13:05:59.999Z</time></trkpt><trkpt lat="44.29743787859298" lon="10.315559352364833"><ele>1175.0</ele><time>2026-05-02T13:06:00.999Z</time></trkpt><trkpt lat="44.297286666719465" lon="10.315390984826513"><ele>1175.0</ele><time>2026-05-02T13:06:01.999Z</time></trkpt><trkpt lat="44.297209113326794" lon="10.315278703236446"><ele>1180.75</ele><time>2026-05-02T13:06:02.999Z</time></trkpt><trkpt lat="44.2971189381797" lon="10.31517504653845"><ele>1186.5</ele><time>2026-05-02T13:06:03.999Z</time></trkpt><trkpt lat="44.29701842366689" lon="10.315091035836442"><ele>1192.25</ele><time>2026-05-02T13:06:04.999Z</time></trkpt><trkpt lat="44.29689902625546" lon="10.315025439967338"><ele>1198.0</ele><time>2026-05-02T13:06:05.999Z</time></trkpt><trkpt lat="44.29675288005368" lon="10.314984797883588"><ele>1198.0</ele><time>2026-05-02T13:06:06.999Z</time></trkpt><trkpt lat="44.29661988160976" lon="10.314908152655539"><ele>1198.0</ele><time>2026-05-02T13:06:07.999Z</time></trkpt><trkpt lat="44.29649650045473" lon="10.314816984238403"><ele>1198.0</ele><time>2026-05-02T13:06:08.999Z</time></trkpt><trkpt lat="44.29637559189214" lon="10.314738238507841"><ele>1198.0</ele><time>2026-05-02T13:06:09.999Z</time></trkpt><trkpt lat="44.296271768465964" lon="10.314650362386487"><ele>1200.8333333333333</ele><time>2026-05-02T13:06:10.999Z</time></trkpt><trkpt lat="44.2961768765238" lon="10.314579276473953"><ele>1203.6666666666665</ele><time>2026-05-02T13:06:11.999Z</time></trkpt><trkpt lat="44.29610508541281" lon="10.314527076700738"><ele>1206.5</ele><time>2026-05-02T13:06:12.999Z</time></trkpt><trkpt lat="44.296059140328644" lon="10.314450299792844"><ele>1209.3333333333333</ele><time>2026-05-02T13:06:13.999Z</time></trkpt><trkpt lat="44.2960543712313" lon="10.314337922013578"><ele>1212.1666666666667</ele><time>2026-05-02T13:06:14.999Z</time></trkpt><trkpt lat="44.29610098008781" lon="10.314234288983982"><ele>1215.0</ele><time>2026-05-02T13:06:15.999Z</time></trkpt><trkpt lat="44.29617987464735" lon="10.314186181643212"><ele>1215.0</ele><time>2026-05-02T13:06:16.999Z</time></trkpt><trkpt lat="44.2962760159536" lon="10.31419944572019"><ele>1215.0</ele><time>2026-05-02T13:06:17.999Z</time></trkpt><trkpt lat="44.29638039661979" lon="10.314268128454774"><ele>1215.0</ele><time>2026-05-02T13:06:18.999Z</time></trkpt><trkpt lat="44.29648748972969" lon="10.314323719422884"><ele>1215.0</ele><time>2026-05-02T13:06:19.999Z</time></trkpt><trkpt lat="44.29657826224814" lon="10.314343724253149"><ele>1215.0</ele><time>2026-05-02T13:06:20.999Z</time></trkpt><trkpt lat="44.29664642969354" lon="10.314310366258788"><ele>1215.8</ele><time>2026-05-02T13:06:21.999Z</time></trkpt><trkpt lat="44.29669435732668" lon="10.314224631184603"><ele>1216.6</ele><time>2026-05-02T13:06:22.999Z</time></trkpt><trkpt lat="44.29668744419719" lon="10.314096329823121"><ele>1217.4</ele><time>2026-05-02T13:06:23.999Z</time></trkpt><trkpt lat="44.29660661399747" lon="10.313985818298658"><ele>1218.2</ele><time>2026-05-02T13:06:24.999Z</time></trkpt><trkpt lat="44.296499765724285" lon="10.313915016580722"><ele>1219.0</ele><time>2026-05-02T13:06:25.999Z</time></trkpt><trkpt lat="44.296393400224765" lon="10.313805222024936"><ele>1221.75</ele><time>2026-05-02T13:06:26.999Z</time></trkpt><trkpt lat="44.296276984292746" lon="10.313698309185893"><ele>1224.5</ele><time>2026-05-02T13:06:27.999Z</time></trkpt><trkpt lat="44.296172655350695" lon="10.313587949658904"><ele>1227.25</ele><time>2026-05-02T13:06:28.999Z</time></trkpt><trkpt lat="44.29605903008973" lon="10.313479159124045"><ele>1230.0</ele><time>2026-05-02T13:06:29.999Z</time></trkpt><trkpt lat="44.29594581653693" lon="10.313365294139013"><ele>1230.0</ele><time>2026-05-02T13:06:30.998Z</time></trkpt><trkpt lat="44.295850830947096" lon="10.313227042447872"><ele>1230.0</ele><time>2026-05-02T13:06:31.998Z</time></trkpt><trkpt lat="44.295770417703885" lon="10.313048307454618"><ele>1230.0</ele><time>2026-05-02T13:06:33Z</time></trkpt><trkpt lat="44.295679271889654" lon="10.31288174388538"><ele>1230.0</ele><time>2026-05-02T13:06:34Z</time></trkpt><trkpt lat="44.29557029380625" lon="10.312731623889853"><ele>1233.6</ele><time>2026-05-02T13:06:35Z</time></trkpt><trkpt lat="44.29547360862363" lon="10.312625321587646"><ele>1237.2</ele><time>2026-05-02T13:06:36Z</time></trkpt><trkpt lat="44.29540552540458" lon="10.31255692059268"><ele>1240.8</ele><time>2026-05-02T13:06:37Z</time></trkpt><trkpt lat="44.29539354320909" lon="10.312385545088704"><ele>1244.4</ele><time>2026-05-02T13:06:39Z</time></trkpt><trkpt lat="44.295454404224074" lon="10.312318712395857"><ele>1248.0</ele><time>2026-05-02T13:06:40Z</time></trkpt><trkpt lat="44.295520286477206" lon="10.312317540280043"><ele>1248.8</ele><time>2026-05-02T13:06:41Z</time></trkpt><trkpt lat="44.29559100836643" lon="10.312416000801276"><ele>1249.6</ele><time>2026-05-02T13:06:42Z</time></trkpt><trkpt lat="44.29566647992376" lon="10.312516070417196"><ele>1250.4</ele><time>2026-05-02T13:06:43Z</time></trkpt><trkpt lat="44.29575641494026" lon="10.31260668151213"><ele>1251.2</ele><time>2026-05-02T13:06:44Z</time></trkpt><trkpt lat="44.29583726247981" lon="10.312727701944478"><ele>1252.0</ele><time>2026-05-02T13:06:45Z</time></trkpt><trkpt lat="44.29590384595335" lon="10.312808734319812"><ele>1252.0</ele><time>2026-05-02T13:06:46Z</time></trkpt><trkpt lat="44.295961539173874" lon="10.312877772635776"><ele>1252.0</ele><time>2026-05-02T13:06:47Z</time></trkpt><trkpt lat="44.29605020575634" lon="10.312909439672886"><ele>1252.0</ele><time>2026-05-02T13:06:48Z</time></trkpt><trkpt lat="44.296129388942155" lon="10.312838116443174"><ele>1252.0</ele><time>2026-05-02T13:06:49Z</time></trkpt><trkpt lat="44.29613676431194" lon="10.31273323813796"><ele>1252.0</ele><time>2026-05-02T13:06:50Z</time></trkpt><trkpt lat="44.29609313969074" lon="10.31262238516137"><ele>1252.0</ele><time>2026-05-02T13:06:51Z</time></trkpt><trkpt lat="44.29600575289337" lon="10.312545893960078"><ele>1252.0</ele><time>2026-05-02T13:06:52Z</time></trkpt><trkpt lat="44.29591269886598" lon="10.312480474805056"><ele>1252.0</ele><time>2026-05-02T13:06:53Z</time></trkpt><trkpt lat="44.29582882636746" lon="10.312399295102281"><ele>1252.0</ele><time>2026-05-02T13:06:54Z</time></trkpt><trkpt lat="44.295752152381766" lon="10.312254185323997"><ele>1252.0</ele><time>2026-05-02T13:06:55Z</time></trkpt><trkpt lat="44.29569375238652" lon="10.312084764867258"><ele>1253.3333333333333</ele><time>2026-05-02T13:06:56Z</time></trkpt><trkpt lat="44.29565738483223" lon="10.311903273455684"><ele>1254.6666666666667</ele><time>2026-05-02T13:06:57Z</time></trkpt><trkpt lat="44.295611167707406" lon="10.311696043300378"><ele>1256.0</ele><time>2026-05-02T13:06:58Z</time></trkpt><trkpt lat="44.29556164051565" lon="10.311483884832958"><ele>1260.0</ele><time>2026-05-02T13:06:59Z</time></trkpt><trkpt lat="44.295511888372445" lon="10.3112705321722"><ele>1264.0</ele><time>2026-05-02T13:07:00Z</time></trkpt><trkpt lat="44.29546334980752" lon="10.311056284700024"><ele>1268.0</ele><time>2026-05-02T13:07:01Z</time></trkpt><trkpt lat="44.29541220690396" lon="10.310843430661661"><ele>1268.0</ele><time>2026-05-02T13:07:02Z</time></trkpt><trkpt lat="44.295360804522424" lon="10.310647504353891"><ele>1268.0</ele><time>2026-05-02T13:07:03Z</time></trkpt><trkpt lat="44.29527056850202" lon="10.31047685075215"><ele>1268.0</ele><time>2026-05-02T13:07:04Z</time></trkpt><trkpt lat="44.29517486590602" lon="10.310325238335396"><ele>1268.0</ele><time>2026-05-02T13:07:05Z</time></trkpt><trkpt lat="44.29506761124932" lon="10.31017716006346"><ele>1271.0</ele><time>2026-05-02T13:07:06Z</time></trkpt><trkpt lat="44.29497138574919" lon="10.310031475786303"><ele>1274.0</ele><time>2026-05-02T13:07:07Z</time></trkpt><trkpt lat="44.29489101199267" lon="10.309892977821958"><ele>1277.0</ele><time>2026-05-02T13:07:08Z</time></trkpt><trkpt lat="44.29484594980771" lon="10.309771916340909"><ele>1280.0</ele><time>2026-05-02T13:07:09Z</time></trkpt><trkpt lat="44.29478428555269" lon="10.30968188795831"><ele>1282.2</ele><time>2026-05-02T13:07:10Z</time></trkpt><trkpt lat="44.29479423879031" lon="10.309586795322858"><ele>1284.4</ele><time>2026-05-02T13:07:11Z</time></trkpt><trkpt lat="44.294872727913116" lon="10.309481979598262"><ele>1286.6</ele><time>2026-05-02T13:07:13Z</time></trkpt><trkpt lat="44.29494709208922" lon="10.309510384427778"><ele>1288.8</ele><time>2026-05-02T13:07:14Z</time></trkpt><trkpt lat="44.29502113131946" lon="10.309612561822716"><ele>1291.0</ele><time>2026-05-02T13:07:15Z</time></trkpt><trkpt lat="44.29515966226129" lon="10.3097044888517"><ele>1287.3333333333333</ele><time>2026-05-02T13:07:16Z</time></trkpt><trkpt lat="44.295362713746535" lon="10.309851334252198"><ele>1283.6666666666667</ele><time>2026-05-02T13:07:17Z</time></trkpt><trkpt lat="44.29550850558175" lon="10.309948244529977"><ele>1280.0</ele><time>2026-05-02T13:07:18Z</time></trkpt><trkpt lat="44.29561605165791" lon="10.31003923106339"><ele>1284.5</ele><time>2026-05-02T13:07:19Z</time></trkpt><trkpt lat="44.29564802570145" lon="10.310191559730807"><ele>1289.0</ele><time>2026-05-02T13:07:20Z</time></trkpt><trkpt lat="44.29567239325176" lon="10.310352269616343"><ele>1293.5</ele><time>2026-05-02T13:07:21Z</time></trkpt><trkpt lat="44.29572559721004" lon="10.31057213109767"><ele>1298.0</ele><time>2026-05-02T13:07:22Z</time></trkpt><trkpt lat="44.29577206100905" lon="10.310738007328633"><ele>1298.0</ele><time>2026-05-02T13:07:23Z</time></trkpt><trkpt lat="44.295824769002465" lon="10.310898196042425"><ele>1298.0</ele><time>2026-05-02T13:07:24Z</time></trkpt><trkpt lat="44.295888360762135" lon="10.311047082119716"><ele>1298.0</ele><time>2026-05-02T13:07:25Z</time></trkpt><trkpt lat="44.29598001451137" lon="10.311176431309038"><ele>1298.0</ele><time>2026-05-02T13:07:26Z</time></trkpt><trkpt lat="44.296092025507036" lon="10.311280433704283"><ele>1298.0</ele><time>2026-05-02T13:07:27Z</time></trkpt><trkpt lat="44.29621661055909" lon="10.311348501129146"><ele>1298.0</ele><time>2026-05-02T13:07:28Z</time></trkpt><trkpt lat="44.29635657239532" lon="10.311371091983105"><ele>1298.0</ele><time>2026-05-02T13:07:29Z</time></trkpt><trkpt lat="44.29651606794414" lon="10.3113343958754"><ele>1298.0</ele><time>2026-05-02T13:07:29.999Z</time></trkpt><trkpt lat="44.29664749124597" lon="10.311292281280979"><ele>1298.75</ele><time>2026-05-02T13:07:30.999Z</time></trkpt><trkpt lat="44.29680081646725" lon="10.311314922260419"><ele>1299.5</ele><time>2026-05-02T13:07:31.999Z</time></trkpt><trkpt lat="44.29692613632107" lon="10.311375573211803"><ele>1300.25</ele><time>2026-05-02T13:07:32.999Z</time></trkpt><trkpt lat="44.29702395258234" lon="10.31149517916874"><ele>1301.0</ele><time>2026-05-02T13:07:33.999Z</time></trkpt><trkpt lat="44.29708518703566" lon="10.31166299080973"><ele>1301.0</ele><time>2026-05-02T13:07:34.999Z</time></trkpt><trkpt lat="44.297172366074285" lon="10.31174844693564"><ele>1301.0</ele><time>2026-05-02T13:07:35.999Z</time></trkpt><trkpt lat="44.2972366133944" lon="10.311824858774676"><ele>1301.0</ele><time>2026-05-02T13:07:36.999Z</time></trkpt><trkpt lat="44.29732419385114" lon="10.311849897657451"><ele>1301.0</ele><time>2026-05-02T13:07:37.999Z</time></trkpt><trkpt lat="44.29742603427893" lon="10.311749963584985"><ele>1301.0</ele><time>2026-05-02T13:07:38.999Z</time></trkpt><trkpt lat="44.29752545906408" lon="10.31163802323099"><ele>1305.5</ele><time>2026-05-02T13:07:39.999Z</time></trkpt><trkpt lat="44.297635543807495" lon="10.311545836982672"><ele>1310.0</ele><time>2026-05-02T13:07:40.999Z</time></trkpt><trkpt lat="44.29774968372164" lon="10.31157158219342"><ele>1314.5</ele><time>2026-05-02T13:07:41.999Z</time></trkpt><trkpt lat="44.297834508406005" lon="10.311653627124487"><ele>1319.0</ele><time>2026-05-02T13:07:42.999Z</time></trkpt><trkpt lat="44.297922944766086" lon="10.311768154040687"><ele>1319.0</ele><time>2026-05-02T13:07:43.999Z</time></trkpt><trkpt lat="44.29803419434953" lon="10.311915859731302"><ele>1319.0</ele><time>2026-05-02T13:07:44.999Z</time></trkpt><trkpt lat="44.298120014957625" lon="10.311993309435959"><ele>1319.0</ele><time>2026-05-02T13:07:45.999Z</time></trkpt><trkpt lat="44.29822444057208" lon="10.312059235320726"><ele>1319.0</ele><time>2026-05-02T13:07:46.999Z</time></trkpt><trkpt lat="44.298329195917376" lon="10.312045550003248"><ele>1325.0</ele><time>2026-05-02T13:07:47.999Z</time></trkpt><trkpt lat="44.298443816332494" lon="10.311925436073016"><ele>1331.0</ele><time>2026-05-02T13:07:48.999Z</time></trkpt><trkpt lat="44.29858128707392" lon="10.311773689528492"><ele>1337.0</ele><time>2026-05-02T13:07:49.999Z</time></trkpt><trkpt lat="44.29872244353698" lon="10.311707393846651"><ele>1337.0</ele><time>2026-05-02T13:07:50.999Z</time></trkpt><trkpt lat="44.298853955818345" lon="10.311690212125965"><ele>1337.0</ele><time>2026-05-02T13:07:51.999Z</time></trkpt><trkpt lat="44.298974344034015" lon="10.31176542777051"><ele>1337.0</ele><time>2026-05-02T13:07:52.999Z</time></trkpt><trkpt lat="44.29910112893434" lon="10.311864209352155"><ele>1337.0</ele><time>2026-05-02T13:07:53.999Z</time></trkpt><trkpt lat="44.29924770297052" lon="10.31193223374407"><ele>1341.6666666666667</ele><time>2026-05-02T13:07:54.999Z</time></trkpt><trkpt lat="44.299400475492206" lon="10.311996508941515"><ele>1346.3333333333333</ele><time>2026-05-02T13:07:55.999Z</time></trkpt><trkpt lat="44.2995684575322" lon="10.312009786778619"><ele>1351.0</ele><time>2026-05-02T13:07:56.999Z</time></trkpt><trkpt lat="44.2997325453207" lon="10.312016522162919"><ele>1353.0</ele><time>2026-05-02T13:07:57.999Z</time></trkpt><trkpt lat="44.29989819948242" lon="10.31205175415288"><ele>1355.0</ele><time>2026-05-02T13:07:58.999Z</time></trkpt><trkpt lat="44.30004918033909" lon="10.312068280431204"><ele>1357.0</ele><time>2026-05-02T13:07:59.999Z</time></trkpt><trkpt lat="44.300182222738606" lon="10.312054609657102"><ele>1357.0</ele><time>2026-05-02T13:08:00.999Z</time></trkpt><trkpt lat="44.30028559866725" lon="10.311943390332571"><ele>1357.0</ele><time>2026-05-02T13:08:01.999Z</time></trkpt><trkpt lat="44.30035004316413" lon="10.311802487101835"><ele>1357.0</ele><time>2026-05-02T13:08:02.999Z</time></trkpt><trkpt lat="44.300399633534454" lon="10.311653668850632"><ele>1357.0</ele><time>2026-05-02T13:08:03.999Z</time></trkpt><trkpt lat="44.300457233959094" lon="10.311565481869108"><ele>1357.0</ele><time>2026-05-02T13:08:04.999Z</time></trkpt><trkpt lat="44.30053537362896" lon="10.311516859104396"><ele>1357.0</ele><time>2026-05-02T13:08:05.999Z</time></trkpt><trkpt lat="44.30063553440172" lon="10.311638304390897"><ele>1357.0</ele><time>2026-05-02T13:08:06.999Z</time></trkpt><trkpt lat="44.300752082171435" lon="10.311710946100387"><ele>1357.0</ele><time>2026-05-02T13:08:07.999Z</time></trkpt><trkpt lat="44.30088963778856" lon="10.311799634036252"><ele>1356.1999999999998</ele><time>2026-05-02T13:08:08.999Z</time></trkpt><trkpt lat="44.30100368598862" lon="10.311882416209869"><ele>1355.4</ele><time>2026-05-02T13:08:09.999Z</time></trkpt><trkpt lat="44.30110434071179" lon="10.31191167571813"><ele>1354.6</ele><time>2026-05-02T13:08:10.999Z</time></trkpt><trkpt lat="44.301185541655656" lon="10.311873947564212"><ele>1353.8000000000002</ele><time>2026-05-02T13:08:11.999Z</time></trkpt><trkpt lat="44.30124027334906" lon="10.311767619909867"><ele>1353.0</ele><time>2026-05-02T13:08:12.999Z</time></trkpt><trkpt lat="44.30126681339787" lon="10.31161401385779"><ele>1353.0</ele><time>2026-05-02T13:08:13.999Z</time></trkpt><trkpt lat="44.30125338585655" lon="10.311422660940575"><ele>1353.0</ele><time>2026-05-02T13:08:14.999Z</time></trkpt><trkpt lat="44.30124775971545" lon="10.311220855180878"><ele>1353.0</ele><time>2026-05-02T13:08:15.999Z</time></trkpt><trkpt lat="44.3012690333592" lon="10.310993115676258"><ele>1353.0</ele><time>2026-05-02T13:08:16.999Z</time></trkpt><trkpt lat="44.301304851313404" lon="10.310767103385336"><ele>1355.25</ele><time>2026-05-02T13:08:17.999Z</time></trkpt><trkpt lat="44.30131428767121" lon="10.310577224744474"><ele>1357.5</ele><time>2026-05-02T13:08:18.999Z</time></trkpt><trkpt lat="44.30129985685983" lon="10.310393798306873"><ele>1359.75</ele><time>2026-05-02T13:08:19.999Z</time></trkpt><trkpt lat="44.30123177354083" lon="10.310220643286982"><ele>1362.0</ele><time>2026-05-02T13:08:20.999Z</time></trkpt><trkpt lat="44.301131949063716" lon="10.31007977219012"><ele>1365.25</ele><time>2026-05-02T13:08:21.999Z</time></trkpt><trkpt lat="44.30101562416265" lon="10.309971632714193"><ele>1368.5</ele><time>2026-05-02T13:08:22.999Z</time></trkpt><trkpt lat="44.30089705125476" lon="10.30987574984215"><ele>1371.75</ele><time>2026-05-02T13:08:23.999Z</time></trkpt><trkpt lat="44.30076650194747" lon="10.309807571825528"><ele>1375.0</ele><time>2026-05-02T13:08:24.999Z</time></trkpt><trkpt lat="44.300625179785534" lon="10.309841728286514"><ele>1382.6666666666665</ele><time>2026-05-02T13:08:25.999Z</time></trkpt><trkpt lat="44.300499503340035" lon="10.309923162840475"><ele>1390.3333333333333</ele><time>2026-05-02T13:08:26.999Z</time></trkpt><trkpt lat="44.300381041444496" lon="10.310062989160329"><ele>1398.0</ele><time>2026-05-02T13:08:27.999Z</time></trkpt><trkpt lat="44.30028102561249" lon="10.310250727701867"><ele>1398.0</ele><time>2026-05-02T13:08:28.999Z</time></trkpt><trkpt lat="44.30018066919615" lon="10.310428399135944"><ele>1398.0</ele><time>2026-05-02T13:08:29.999Z</time></trkpt><trkpt lat="44.30007189482016" lon="10.310565391338192"><ele>1398.0</ele><time>2026-05-02T13:08:30.999Z</time></trkpt><trkpt lat="44.29994413344471" lon="10.310655635482597"><ele>1391.6666666666667</ele><time>2026-05-02T13:08:31.999Z</time></trkpt><trkpt lat="44.2997939457188" lon="10.31073768186443"><ele>1385.3333333333335</ele><time>2026-05-02T13:08:32.999Z</time></trkpt><trkpt lat="44.29963694445705" lon="10.310796076027676"><ele>1379.0</ele><time>2026-05-02T13:08:33.999Z</time></trkpt><trkpt lat="44.29948014961796" lon="10.310823181084215"><ele>1379.0</ele><time>2026-05-02T13:08:34.999Z</time></trkpt><trkpt lat="44.29934531396892" lon="10.310792028666754"><ele>1379.0</ele><time>2026-05-02T13:08:35.998Z</time></trkpt><trkpt lat="44.29920356579288" lon="10.310722052722463"><ele>1379.0</ele><time>2026-05-02T13:08:36.998Z</time></trkpt><trkpt lat="44.299058002029874" lon="10.310599476163128"><ele>1382.6666666666667</ele><time>2026-05-02T13:08:37.998Z</time></trkpt><trkpt lat="44.29890402083003" lon="10.310462931812756"><ele>1386.3333333333333</ele><time>2026-05-02T13:08:39Z</time></trkpt><trkpt lat="44.29874019192629" lon="10.310325833446262"><ele>1390.0</ele><time>2026-05-02T13:08:40Z</time></trkpt><trkpt lat="44.29859124998417" lon="10.310178323831073"><ele>1390.0</ele><time>2026-05-02T13:08:41Z</time></trkpt><trkpt lat="44.29845117008198" lon="10.310049727993157"><ele>1390.0</ele><time>2026-05-02T13:08:42Z</time></trkpt><trkpt lat="44.29833117646055" lon="10.309928363952281"><ele>1390.0</ele><time>2026-05-02T13:08:43Z</time></trkpt><trkpt lat="44.29824032912273" lon="10.309811827733448"><ele>1390.0</ele><time>2026-05-02T13:08:44Z</time></trkpt><trkpt lat="44.29819103233445" lon="10.309692039666118"><ele>1390.0</ele><time>2026-05-02T13:08:45Z</time></trkpt><trkpt lat="44.29816527637174" lon="10.309526389132776"><ele>1390.0</ele><time>2026-05-02T13:08:46Z</time></trkpt><trkpt lat="44.29814984096372" lon="10.309329933112544"><ele>1390.0</ele><time>2026-05-02T13:08:47Z</time></trkpt><trkpt lat="44.29812691151911" lon="10.309146941406794"><ele>1390.0</ele><time>2026-05-02T13:08:48Z</time></trkpt><trkpt lat="44.298084341320184" lon="10.309000727177091"><ele>1394.5</ele><time>2026-05-02T13:08:49Z</time></trkpt><trkpt lat="44.298007213897" lon="10.308889339045294"><ele>1399.0</ele><time>2026-05-02T13:08:50Z</time></trkpt><trkpt lat="44.297918299607296" lon="10.308803795983204"><ele>1403.5</ele><time>2026-05-02T13:08:51Z</time></trkpt><trkpt lat="44.297791823917024" lon="10.308766573665684"><ele>1408.0</ele><time>2026-05-02T13:08:52Z</time></trkpt><trkpt lat="44.297662490851785" lon="10.308746626113969"><ele>1408.0</ele><time>2026-05-02T13:08:53Z</time></trkpt><trkpt lat="44.297535341386414" lon="10.3087225539188"><ele>1408.0</ele><time>2026-05-02T13:08:54Z</time></trkpt><trkpt lat="44.297426304345876" lon="10.308685093984762"><ele>1408.0</ele><time>2026-05-02T13:08:55Z</time></trkpt><trkpt lat="44.2973388347816" lon="10.308579442713771"><ele>1408.0</ele><time>2026-05-02T13:08:56Z</time></trkpt><trkpt lat="44.297276947504706" lon="10.308420070227323"><ele>1399.0</ele><time>2026-05-02T13:08:57Z</time></trkpt><trkpt lat="44.29723340227799" lon="10.308207593679429"><ele>1390.0</ele><time>2026-05-02T13:08:58Z</time></trkpt><trkpt lat="44.29719843053734" lon="10.308001170498466"><ele>1381.0</ele><time>2026-05-02T13:08:59Z</time></trkpt><trkpt lat="44.29718838013694" lon="10.30777093174975"><ele>1381.0</ele><time>2026-05-02T13:09:00Z</time></trkpt><trkpt lat="44.2971805423564" lon="10.30754581503462"><ele>1381.0</ele><time>2026-05-02T13:09:01Z</time></trkpt><trkpt lat="44.297183167236746" lon="10.307340626585345"><ele>1381.0</ele><time>2026-05-02T13:09:02Z</time></trkpt><trkpt lat="44.297223307522515" lon="10.307178207190473"><ele>1381.0</ele><time>2026-05-02T13:09:03Z</time></trkpt><trkpt lat="44.297261791692335" lon="10.307018240008563"><ele>1386.0</ele><time>2026-05-02T13:09:04Z</time></trkpt><trkpt lat="44.297288028932925" lon="10.306885770830029"><ele>1391.0</ele><time>2026-05-02T13:09:05Z</time></trkpt><trkpt lat="44.29726642395032" lon="10.306756813613385"><ele>1396.0</ele><time>2026-05-02T13:09:06Z</time></trkpt><trkpt lat="44.297209997288235" lon="10.306653174771464"><ele>1401.0</ele><time>2026-05-02T13:09:07Z</time></trkpt><trkpt lat="44.29712319460713" lon="10.306561874354992"><ele>1406.0</ele><time>2026-05-02T13:09:08Z</time></trkpt><trkpt lat="44.29700283950183" lon="10.306476187385611"><ele>1418.0</ele><time>2026-05-02T13:09:09Z</time></trkpt><trkpt lat="44.29689385285071" lon="10.306371221749526"><ele>1430.0</ele><time>2026-05-02T13:09:10Z</time></trkpt><trkpt lat="44.296781914923656" lon="10.30626793805408"><ele>1442.0</ele><time>2026-05-02T13:09:11Z</time></trkpt><trkpt lat="44.296651456837026" lon="10.306217507747322"><ele>1454.0</ele><time>2026-05-02T13:09:12Z</time></trkpt><trkpt lat="44.296500985854124" lon="10.306187317519555"><ele>1449.0</ele><time>2026-05-02T13:09:13Z</time></trkpt><trkpt lat="44.296363456829404" lon="10.30615189912366"><ele>1444.0</ele><time>2026-05-02T13:09:14Z</time></trkpt><trkpt lat="44.296206013868954" lon="10.306297551837767"><ele>1439.0</ele><time>2026-05-02T13:09:15Z</time></trkpt><trkpt lat="44.296086196945886" lon="10.306304746719514"><ele>1434.0</ele><time>2026-05-02T13:09:16Z</time></trkpt><trkpt lat="44.29598279891271" lon="10.306271764652093"><ele>1434.0</ele><time>2026-05-02T13:09:17Z</time></trkpt><trkpt lat="44.29588435623019" lon="10.306187015315752"><ele>1434.0</ele><time>2026-05-02T13:09:18Z</time></trkpt><trkpt lat="44.295797461637235" lon="10.306054073878377"><ele>1434.0</ele><time>2026-05-02T13:09:19Z</time></trkpt><trkpt lat="44.2957171939066" lon="10.305884385516734"><ele>1434.0</ele><time>2026-05-02T13:09:20Z</time></trkpt><trkpt lat="44.295626037456096" lon="10.305701688914283"><ele>1439.6666666666667</ele><time>2026-05-02T13:09:21Z</time></trkpt><trkpt lat="44.295520904161094" lon="10.30552708116071"><ele>1445.3333333333335</ele><time>2026-05-02T13:09:22Z</time></trkpt><trkpt lat="44.295400137365085" lon="10.30538812983736"><ele>1451.0</ele><time>2026-05-02T13:09:23Z</time></trkpt><trkpt lat="44.2952680621289" lon="10.305309181496247"><ele>1451.0</ele><time>2026-05-02T13:09:24Z</time></trkpt><trkpt lat="44.29512480540387" lon="10.305265757085788"><ele>1451.0</ele><time>2026-05-02T13:09:25Z</time></trkpt><trkpt lat="44.29496285037517" lon="10.305273937359376"><ele>1451.0</ele><time>2026-05-02T13:09:26Z</time></trkpt><trkpt lat="44.29481044004033" lon="10.30529387209742"><ele>1447.5</ele><time>2026-05-02T13:09:27Z</time></trkpt><trkpt lat="44.294686160168155" lon="10.305262727419475"><ele>1444.0</ele><time>2026-05-02T13:09:28Z</time></trkpt><trkpt lat="44.294585890589204" lon="10.305155683478164"><ele>1440.5</ele><time>2026-05-02T13:09:29Z</time></trkpt><trkpt lat="44.29451072033357" lon="10.305001529814897"><ele>1437.0</ele><time>2026-05-02T13:09:30Z</time></trkpt><trkpt lat="44.29441855909506" lon="10.304842233234904"><ele>1444.25</ele><time>2026-05-02T13:09:31Z</time></trkpt><trkpt lat="44.294312678775455" lon="10.304740957289651"><ele>1451.5</ele><time>2026-05-02T13:09:32Z</time></trkpt><trkpt lat="44.29417637685261" lon="10.304688599769888"><ele>1458.75</ele><time>2026-05-02T13:09:32.999Z</time></trkpt><trkpt lat="44.294023606507025" lon="10.304671586123533"><ele>1466.0</ele><time>2026-05-02T13:09:33.999Z</time></trkpt><trkpt lat="44.293844503948755" lon="10.304680652332282"><ele>1466.0</ele><time>2026-05-02T13:09:34.999Z</time></trkpt><trkpt lat="44.29366204790481" lon="10.304683437645368"><ele>1466.0</ele><time>2026-05-02T13:09:35.999Z</time></trkpt><trkpt lat="44.29346971003127" lon="10.304680043551446"><ele>1466.0</ele><time>2026-05-02T13:09:36.999Z</time></trkpt><trkpt lat="44.29327324700934" lon="10.304663301957408"><ele>1467.0</ele><time>2026-05-02T13:09:37.999Z</time></trkpt><trkpt lat="44.293063637528796" lon="10.304645012683704"><ele>1468.0</ele><time>2026-05-02T13:09:38.999Z</time></trkpt><trkpt lat="44.29284648053777" lon="10.30461979474447"><ele>1469.0</ele><time>2026-05-02T13:09:39.999Z</time></trkpt><trkpt lat="44.292626196459956" lon="10.3045762688621"><ele>1469.0</ele><time>2026-05-02T13:09:40.999Z</time></trkpt><trkpt lat="44.292403138419516" lon="10.304547767109948"><ele>1469.0</ele><time>2026-05-02T13:09:41.999Z</time></trkpt><trkpt lat="44.29219348743473" lon="10.304520591525403"><ele>1469.0</ele><time>2026-05-02T13:09:42.999Z</time></trkpt><trkpt lat="44.29199886727161" lon="10.30450625584179"><ele>1471.3333333333335</ele><time>2026-05-02T13:09:43.999Z</time></trkpt><trkpt lat="44.29182499704787" lon="10.304534824231292"><ele>1473.6666666666667</ele><time>2026-05-02T13:09:44.999Z</time></trkpt><trkpt lat="44.2916553190867" lon="10.304613996438658"><ele>1476.0</ele><time>2026-05-02T13:09:45.999Z</time></trkpt><trkpt lat="44.291525144284876" lon="10.304705130517242"><ele>1472.5</ele><time>2026-05-02T13:09:46.999Z</time></trkpt><trkpt lat="44.29140992863181" lon="10.30479209311444"><ele>1469.0</ele><time>2026-05-02T13:09:47.999Z</time></trkpt><trkpt lat="44.29122448901906" lon="10.304889654448974"><ele>1465.5</ele><time>2026-05-02T13:09:48.999Z</time></trkpt><trkpt lat="44.29114734565892" lon="10.305006671564486"><ele>1462.0</ele><time>2026-05-02T13:09:49.999Z</time></trkpt><trkpt lat="44.291094116924256" lon="10.305099950539134"><ele>1462.0</ele><time>2026-05-02T13:09:50.999Z</time></trkpt><trkpt lat="44.29102466558234" lon="10.305120979426471"><ele>1462.0</ele><time>2026-05-02T13:09:51.999Z</time></trkpt><trkpt lat="44.290958673462896" lon="10.305060301306575"><ele>1462.0</ele><time>2026-05-02T13:09:52.999Z</time></trkpt><trkpt lat="44.29092229335603" lon="10.304938583838096"><ele>1462.0</ele><time>2026-05-02T13:09:53.999Z</time></trkpt><trkpt lat="44.29094014075942" lon="10.304803051096783"><ele>1462.0</ele><time>2026-05-02T13:09:54.999Z</time></trkpt><trkpt lat="44.29101043749333" lon="10.304691879517474"><ele>1462.0</ele><time>2026-05-02T13:09:55.999Z</time></trkpt><trkpt lat="44.29112214798653" lon="10.304624216733616"><ele>1466.6666666666665</ele><time>2026-05-02T13:09:56.999Z</time></trkpt><trkpt lat="44.29126770174111" lon="10.304567954672642"><ele>1471.3333333333333</ele><time>2026-05-02T13:09:57.999Z</time></trkpt><trkpt lat="44.29142480375116" lon="10.30447775426952"><ele>1476.0</ele><time>2026-05-02T13:09:58.999Z</time></trkpt><trkpt lat="44.29158776701536" lon="10.3043763853134"><ele>1476.0</ele><time>2026-05-02T13:09:59.999Z</time></trkpt><trkpt lat="44.29176205862129" lon="10.304255963877754"><ele>1476.0</ele><time>2026-05-02T13:10:00.999Z</time></trkpt><trkpt lat="44.29193557798606" lon="10.304126257871518"><ele>1476.0</ele><time>2026-05-02T13:10:01.999Z</time></trkpt><trkpt lat="44.29211618850019" lon="10.304002017581796"><ele>1473.6666666666667</ele><time>2026-05-02T13:10:02.999Z</time></trkpt><trkpt lat="44.29231878096529" lon="10.303942587523332"><ele>1471.3333333333335</ele><time>2026-05-02T13:10:03.999Z</time></trkpt><trkpt lat="44.29252170173546" lon="10.30391300708824"><ele>1469.0</ele><time>2026-05-02T13:10:04.999Z</time></trkpt><trkpt lat="44.29270214589923" lon="10.303880904698167"><ele>1480.0</ele><time>2026-05-02T13:10:05.999Z</time></trkpt><trkpt lat="44.29287089602743" lon="10.303841016798433"><ele>1491.0</ele><time>2026-05-02T13:10:06.999Z</time></trkpt><trkpt lat="44.29302671630412" lon="10.303816709581081"><ele>1502.0</ele><time>2026-05-02T13:10:07.999Z</time></trkpt><trkpt lat="44.29316436280503" lon="10.303828968089789"><ele>1502.0</ele><time>2026-05-02T13:10:08.999Z</time></trkpt><trkpt lat="44.293296004302604" lon="10.303871902030794"><ele>1502.0</ele><time>2026-05-02T13:10:09.999Z</time></trkpt><trkpt lat="44.2934121915048" lon="10.303941370960219"><ele>1502.0</ele><time>2026-05-02T13:10:10.999Z</time></trkpt><trkpt lat="44.2935018750333" lon="10.303983362752408"><ele>1502.0</ele><time>2026-05-02T13:10:11.999Z</time></trkpt><trkpt lat="44.29358744014938" lon="10.303971921390154"><ele>1502.0</ele><time>2026-05-02T13:10:12.999Z</time></trkpt><trkpt lat="44.29364169950189" lon="10.303894153064872"><ele>1502.0</ele><time>2026-05-02T13:10:13.999Z</time></trkpt><trkpt lat="44.29366666975776" lon="10.303764511767163"><ele>1502.0</ele><time>2026-05-02T13:10:14.999Z</time></trkpt><trkpt lat="44.293637099634786" lon="10.303615952762984"><ele>1502.0</ele><time>2026-05-02T13:10:15.999Z</time></trkpt><trkpt lat="44.29355105017031" lon="10.303525744957884"><ele>1502.0</ele><time>2026-05-02T13:10:16.999Z</time></trkpt><trkpt lat="44.293428441873225" lon="10.30349907201442"><ele>1502.0</ele><time>2026-05-02T13:10:17.999Z</time></trkpt><trkpt lat="44.29328706196835" lon="10.303539157493494"><ele>1502.0</ele><time>2026-05-02T13:10:18.999Z</time></trkpt><trkpt lat="44.29312807760683" lon="10.303601080761906"><ele>1502.0</ele><time>2026-05-02T13:10:19.999Z</time></trkpt><trkpt lat="44.29289184998712" lon="10.30367246483072"><ele>1502.0</ele><time>2026-05-02T13:10:20.999Z</time></trkpt><trkpt lat="44.29270554394277" lon="10.303695036315185"><ele>1503.6666666666667</ele><time>2026-05-02T13:10:21.999Z</time></trkpt><trkpt lat="44.292507646579175" lon="10.303697813583467"><ele>1505.3333333333333</ele><time>2026-05-02T13:10:22.999Z</time></trkpt><trkpt lat="44.29230314855989" lon="10.303647170063282"><ele>1507.0</ele><time>2026-05-02T13:10:23.999Z</time></trkpt><trkpt lat="44.29210789678734" lon="10.303575034254422"><ele>1507.6666666666665</ele><time>2026-05-02T13:10:24.999Z</time></trkpt><trkpt lat="44.29191321119826" lon="10.30353822126224"><ele>1508.3333333333333</ele><time>2026-05-02T13:10:25.999Z</time></trkpt><trkpt lat="44.29170486276092" lon="10.303541902483214"><ele>1509.0</ele><time>2026-05-02T13:10:26.999Z</time></trkpt><trkpt lat="44.29149528727542" lon="10.303581326584922"><ele>1509.6666666666667</ele><time>2026-05-02T13:10:27.999Z</time></trkpt><trkpt lat="44.291282014770466" lon="10.303638089320069"><ele>1510.3333333333335</ele><time>2026-05-02T13:10:28.999Z</time></trkpt><trkpt lat="44.29108056181588" lon="10.303678079694299"><ele>1511.0</ele><time>2026-05-02T13:10:29.999Z</time></trkpt><trkpt lat="44.29089347095999" lon="10.303696893422579"><ele>1511.0</ele><time>2026-05-02T13:10:30.999Z</time></trkpt><trkpt lat="44.29070570610708" lon="10.303702817250494"><ele>1511.0</ele><time>2026-05-02T13:10:31.999Z</time></trkpt><trkpt lat="44.29051662447968" lon="10.303667187312291"><ele>1511.0</ele><time>2026-05-02T13:10:32.999Z</time></trkpt><trkpt lat="44.290337637196515" lon="10.30360380874609"><ele>1512.3333333333335</ele><time>2026-05-02T13:10:33.999Z</time></trkpt><trkpt lat="44.290166154241255" lon="10.303545256524906"><ele>1513.6666666666667</ele><time>2026-05-02T13:10:34.999Z</time></trkpt><trkpt lat="44.290005199627686" lon="10.303510394238737"><ele>1515.0</ele><time>2026-05-02T13:10:35.999Z</time></trkpt><trkpt lat="44.28984088755919" lon="10.303540830130604"><ele>1517.0</ele><time>2026-05-02T13:10:36.999Z</time></trkpt><trkpt lat="44.28969539099571" lon="10.303631027309747"><ele>1519.0</ele><time>2026-05-02T13:10:37.998Z</time></trkpt><trkpt lat="44.28956036153195" lon="10.303775403109533"><ele>1521.0</ele><time>2026-05-02T13:10:38.998Z</time></trkpt><trkpt lat="44.28944933340135" lon="10.303922267464523"><ele>1517.0</ele><time>2026-05-02T13:10:39.998Z</time></trkpt><trkpt lat="44.28938294135145" lon="10.304066200509507"><ele>1513.0</ele><time>2026-05-02T13:10:40.998Z</time></trkpt><trkpt lat="44.28932986129101" lon="10.304152195611824"><ele>1509.0</ele><time>2026-05-02T13:10:41.998Z</time></trkpt><trkpt lat="44.289261517411674" lon="10.304152299783908"><ele>1505.0</ele><time>2026-05-02T13:10:42.998Z</time></trkpt><trkpt lat="44.28918016902988" lon="10.30411867855399"><ele>1501.0</ele><time>2026-05-02T13:10:43.998Z</time></trkpt><trkpt lat="44.28911516527939" lon="10.304014435146636"><ele>1505.0</ele><time>2026-05-02T13:10:45Z</time></trkpt><trkpt lat="44.28908842757211" lon="10.303890626232477"><ele>1509.0</ele><time>2026-05-02T13:10:46Z</time></trkpt><trkpt lat="44.28911859052067" lon="10.303771399920004"><ele>1513.0</ele><time>2026-05-02T13:10:47Z</time></trkpt><trkpt lat="44.28918543035235" lon="10.303669255452114"><ele>1517.0</ele><time>2026-05-02T13:10:48Z</time></trkpt><trkpt lat="44.28929121434048" lon="10.303591015699118"><ele>1521.0</ele><time>2026-05-02T13:10:49Z</time></trkpt><trkpt lat="44.28941810676552" lon="10.303536782723695"><ele>1521.0</ele><time>2026-05-02T13:10:50Z</time></trkpt><trkpt lat="44.28956916954647" lon="10.303479492531238"><ele>1521.0</ele><time>2026-05-02T13:10:51Z</time></trkpt><trkpt lat="44.28972724051806" lon="10.303410703282806"><ele>1521.0</ele><time>2026-05-02T13:10:52Z</time></trkpt><trkpt lat="44.28989906571741" lon="10.303331665632484"><ele>1519.0</ele><time>2026-05-02T13:10:53Z</time></trkpt><trkpt lat="44.2900805057215" lon="10.30323302761948"><ele>1517.0</ele><time>2026-05-02T13:10:54Z</time></trkpt><trkpt lat="44.2902720780657" lon="10.303146344796865"><ele>1515.0</ele><time>2026-05-02T13:10:55Z</time></trkpt><trkpt lat="44.29047815813033" lon="10.3030884572536"><ele>1523.0</ele><time>2026-05-02T13:10:56Z</time></trkpt><trkpt lat="44.2906757674868" lon="10.303025811964611"><ele>1531.0</ele><time>2026-05-02T13:10:57Z</time></trkpt><trkpt lat="44.290866798953125" lon="10.302954299178602"><ele>1539.0</ele><time>2026-05-02T13:10:58Z</time></trkpt><trkpt lat="44.29105584491064" lon="10.302877359646379"><ele>1539.0</ele><time>2026-05-02T13:10:59Z</time></trkpt><trkpt lat="44.2912443816247" lon="10.302839378651436"><ele>1539.0</ele><time>2026-05-02T13:11:00Z</time></trkpt><trkpt lat="44.29144032460776" lon="10.302839798673318"><ele>1539.0</ele><time>2026-05-02T13:11:01Z</time></trkpt><trkpt lat="44.29162560267831" lon="10.302850996191095"><ele>1540.25</ele><time>2026-05-02T13:11:02Z</time></trkpt><trkpt lat="44.29177912811648" lon="10.302860677770605"><ele>1541.5</ele><time>2026-05-02T13:11:03Z</time></trkpt><trkpt lat="44.29192972245121" lon="10.302833716546173"><ele>1542.75</ele><time>2026-05-02T13:11:04Z</time></trkpt><trkpt lat="44.292063588541325" lon="10.302773743770754"><ele>1544.0</ele><time>2026-05-02T13:11:05Z</time></trkpt><trkpt lat="44.29218563246528" lon="10.302688186319141"><ele>1543.0</ele><time>2026-05-02T13:11:06Z</time></trkpt><trkpt lat="44.29230655682223" lon="10.302622266415723"><ele>1542.0</ele><time>2026-05-02T13:11:07Z</time></trkpt><trkpt lat="44.29244239380668" lon="10.302603756983938"><ele>1541.0</ele><time>2026-05-02T13:11:08Z</time></trkpt><trkpt lat="44.292568434891884" lon="10.302631824830376"><ele>1540.0</ele><time>2026-05-02T13:11:09Z</time></trkpt><trkpt lat="44.292681497004345" lon="10.30269341709374"><ele>1540.0</ele><time>2026-05-02T13:11:10Z</time></trkpt><trkpt lat="44.2927766873046" lon="10.30270991366641"><ele>1540.0</ele><time>2026-05-02T13:11:11Z</time></trkpt><trkpt lat="44.29287590671904" lon="10.302678370834194"><ele>1540.0</ele><time>2026-05-02T13:11:13Z</time></trkpt><trkpt lat="44.29292299184214" lon="10.302600289918367"><ele>1540.0</ele><time>2026-05-02T13:11:14Z</time></trkpt><trkpt lat="44.292939153660654" lon="10.302464273387798"><ele>1540.0</ele><time>2026-05-02T13:11:15Z</time></trkpt><trkpt lat="44.292897569023516" lon="10.302335727873585"><ele>1540.0</ele><time>2026-05-02T13:11:16Z</time></trkpt><trkpt lat="44.29280624886004" lon="10.302256055659399"><ele>1540.0</ele><time>2026-05-02T13:11:17Z</time></trkpt><trkpt lat="44.2926852049069" lon="10.302244465516797"><ele>1540.0</ele><time>2026-05-02T13:11:18Z</time></trkpt><trkpt lat="44.29256218992412" lon="10.302308757246951"><ele>1540.0</ele><time>2026-05-02T13:11:19Z</time></trkpt><trkpt lat="44.2924215718579" lon="10.30238710165038"><ele>1540.0</ele><time>2026-05-02T13:11:20Z</time></trkpt><trkpt lat="44.29225773324829" lon="10.302442920720168"><ele>1540.0</ele><time>2026-05-02T13:11:21Z</time></trkpt><trkpt lat="44.29208886645303" lon="10.302510689625441"><ele>1540.0</ele><time>2026-05-02T13:11:22Z</time></trkpt><trkpt lat="44.29192183205867" lon="10.302555610786987"><ele>1539.6666666666667</ele><time>2026-05-02T13:11:23Z</time></trkpt><trkpt lat="44.291755384002656" lon="10.302583459583207"><ele>1539.3333333333335</ele><time>2026-05-02T13:11:24Z</time></trkpt><trkpt lat="44.291581973216836" lon="10.302544868619568"><ele>1539.0</ele><time>2026-05-02T13:11:25Z</time></trkpt><trkpt lat="44.291396541528755" lon="10.302526398768713"><ele>1539.0</ele><time>2026-05-02T13:11:26Z</time></trkpt><trkpt lat="44.29120809050627" lon="10.302471478487004"><ele>1539.0</ele><time>2026-05-02T13:11:27Z</time></trkpt><trkpt lat="44.291009345324674" lon="10.302401401442104"><ele>1539.0</ele><time>2026-05-02T13:11:28Z</time></trkpt><trkpt lat="44.29082455496873" lon="10.302322354384902"><ele>1544.6666666666665</ele><time>2026-05-02T13:11:29Z</time></trkpt><trkpt lat="44.29065782851003" lon="10.302241156380337"><ele>1550.3333333333333</ele><time>2026-05-02T13:11:30Z</time></trkpt><trkpt lat="44.2904985534256" lon="10.302140441728087"><ele>1556.0</ele><time>2026-05-02T13:11:31Z</time></trkpt><trkpt lat="44.29034377050337" lon="10.302003963975293"><ele>1556.0</ele><time>2026-05-02T13:11:31.999Z</time></trkpt><trkpt lat="44.29020753856514" lon="10.30183766263779"><ele>1556.0</ele><time>2026-05-02T13:11:32.999Z</time></trkpt><trkpt lat="44.2900796184344" lon="10.30169301774279"><ele>1556.0</ele><time>2026-05-02T13:11:33.999Z</time></trkpt><trkpt lat="44.289937975279294" lon="10.30160215590269"><ele>1556.0</ele><time>2026-05-02T13:11:34.999Z</time></trkpt><trkpt lat="44.2897761825777" lon="10.301584235448985"><ele>1556.0</ele><time>2026-05-02T13:11:35.999Z</time></trkpt><trkpt lat="44.28960316495968" lon="10.301604901464744"><ele>1556.0</ele><time>2026-05-02T13:11:36.999Z</time></trkpt><trkpt lat="44.289425197350276" lon="10.301644815979873"><ele>1556.6666666666665</ele><time>2026-05-02T13:11:37.999Z</time></trkpt><trkpt lat="44.28924064065305" lon="10.301665252229373"><ele>1557.3333333333335</ele><time>2026-05-02T13:11:38.999Z</time></trkpt><trkpt lat="44.28906414754654" lon="10.30166672380744"><ele>1558.0</ele><time>2026-05-02T13:11:39.999Z</time></trkpt><trkpt lat="44.28889043875936" lon="10.301670350681718"><ele>1559.0</ele><time>2026-05-02T13:11:40.999Z</time></trkpt><trkpt lat="44.28873344552941" lon="10.301679008263845"><ele>1560.0</ele><time>2026-05-02T13:11:41.999Z</time></trkpt><trkpt lat="44.288582097215595" lon="10.301664846410393"><ele>1561.0</ele><time>2026-05-02T13:11:42.999Z</time></trkpt><trkpt lat="44.28844072787367" lon="10.301571639489795"><ele>1561.0</ele><time>2026-05-02T13:11:43.999Z</time></trkpt><trkpt lat="44.2882863933734" lon="10.301459254559076"><ele>1561.0</ele><time>2026-05-02T13:11:44.999Z</time></trkpt><trkpt lat="44.288139048979666" lon="10.301355839684607"><ele>1561.0</ele><time>2026-05-02T13:11:45.999Z</time></trkpt><trkpt lat="44.287993960484904" lon="10.301225984988516"><ele>1564.3333333333335</ele><time>2026-05-02T13:11:46.999Z</time></trkpt><trkpt lat="44.287837812130796" lon="10.301110936918503"><ele>1567.6666666666665</ele><time>2026-05-02T13:11:47.999Z</time></trkpt><trkpt lat="44.287680753786006" lon="10.300993070012701"><ele>1571.0</ele><time>2026-05-02T13:11:48.999Z</time></trkpt><trkpt lat="44.28752210430534" lon="10.300884880041762"><ele>1571.0</ele><time>2026-05-02T13:11:49.999Z</time></trkpt><trkpt lat="44.28737188103289" lon="10.300769913726999"><ele>1571.0</ele><time>2026-05-02T13:11:50.999Z</time></trkpt><trkpt lat="44.287226358563174" lon="10.300649733139135"><ele>1571.0</ele><time>2026-05-02T13:11:51.999Z</time></trkpt><trkpt lat="44.28708181051331" lon="10.300537608634745"><ele>1574.0</ele><time>2026-05-02T13:11:52.999Z</time></trkpt><trkpt lat="44.286936106461965" lon="10.30042634089642"><ele>1577.0</ele><time>2026-05-02T13:11:53.999Z</time></trkpt><trkpt lat="44.28678750624892" lon="10.300318325157203"><ele>1580.0</ele><time>2026-05-02T13:11:54.999Z</time></trkpt><trkpt lat="44.28664949246854" lon="10.300205789438193"><ele>1580.0</ele><time>2026-05-02T13:11:55.999Z</time></trkpt><trkpt lat="44.28652466913612" lon="10.300111128069242"><ele>1580.0</ele><time>2026-05-02T13:11:56.999Z</time></trkpt><trkpt lat="44.286407848138545" lon="10.300058113109335"><ele>1580.0</ele><time>2026-05-02T13:11:57.999Z</time></trkpt><trkpt lat="44.286287292662514" lon="10.300043415102124"><ele>1580.0</ele><time>2026-05-02T13:11:58.999Z</time></trkpt><trkpt lat="44.28616773755676" lon="10.300059431692818"><ele>1579.75</ele><time>2026-05-02T13:11:59.999Z</time></trkpt><trkpt lat="44.286060982096295" lon="10.30013281254676"><ele>1579.5</ele><time>2026-05-02T13:12:00.999Z</time></trkpt><trkpt lat="44.285969283257145" lon="10.300217412446433"><ele>1579.25</ele><time>2026-05-02T13:12:01.999Z</time></trkpt><trkpt lat="44.285853814455685" lon="10.300318913976836"><ele>1579.0</ele><time>2026-05-02T13:12:02.999Z</time></trkpt><trkpt lat="44.2857314637409" lon="10.300406020960127"><ele>1579.0</ele><time>2026-05-02T13:12:03.999Z</time></trkpt><trkpt lat="44.285609956526244" lon="10.300509985511068"><ele>1579.0</ele><time>2026-05-02T13:12:04.999Z</time></trkpt><trkpt lat="44.28549385701316" lon="10.300634121824578"><ele>1579.0</ele><time>2026-05-02T13:12:05.999Z</time></trkpt><trkpt lat="44.285365550971655" lon="10.300734749693515"><ele>1579.0</ele><time>2026-05-02T13:12:06.999Z</time></trkpt><trkpt lat="44.285241277863506" lon="10.300839270021621"><ele>1578.25</ele><time>2026-05-02T13:12:07.999Z</time></trkpt><trkpt lat="44.285127087114454" lon="10.300928920853222"><ele>1577.5</ele><time>2026-05-02T13:12:08.999Z</time></trkpt><trkpt lat="44.2850205839169" lon="10.301016286757262"><ele>1576.75</ele><time>2026-05-02T13:12:09.999Z</time></trkpt><trkpt lat="44.28491042520528" lon="10.301090681370846"><ele>1576.0</ele><time>2026-05-02T13:12:10.999Z</time></trkpt><trkpt lat="44.284800035795485" lon="10.301178267559843"><ele>1574.75</ele><time>2026-05-02T13:12:11.999Z</time></trkpt><trkpt lat="44.28468382623352" lon="10.301262789833634"><ele>1573.5</ele><time>2026-05-02T13:12:12.999Z</time></trkpt><trkpt lat="44.28455865587582" lon="10.30132564000253"><ele>1572.25</ele><time>2026-05-02T13:12:13.999Z</time></trkpt><trkpt lat="44.2844226487463" lon="10.301374237131345"><ele>1571.0</ele><time>2026-05-02T13:12:14.999Z</time></trkpt><trkpt lat="44.28427330961112" lon="10.301386970701712"><ele>1571.0</ele><time>2026-05-02T13:12:15.999Z</time></trkpt><trkpt lat="44.28411480080853" lon="10.301396585763365"><ele>1571.0</ele><time>2026-05-02T13:12:16.999Z</time></trkpt><trkpt lat="44.28395289957959" lon="10.301330176034831"><ele>1571.0</ele><time>2026-05-02T13:12:17.999Z</time></trkpt><trkpt lat="44.283784235121864" lon="10.301297306798375"><ele>1570.0</ele><time>2026-05-02T13:12:18.999Z</time></trkpt><trkpt lat="44.283617704871006" lon="10.301229252850309"><ele>1569.0</ele><time>2026-05-02T13:12:19.999Z</time></trkpt><trkpt lat="44.28345508224677" lon="10.301198972997364"><ele>1568.0</ele><time>2026-05-02T13:12:20.999Z</time></trkpt><trkpt lat="44.283307149233046" lon="10.30119399847143"><ele>1568.0</ele><time>2026-05-02T13:12:21.999Z</time></trkpt><trkpt lat="44.28316672967318" lon="10.301201942550597"><ele>1568.0</ele><time>2026-05-02T13:12:22.999Z</time></trkpt><trkpt lat="44.28302864973562" lon="10.301203221006446"><ele>1568.0</ele><time>2026-05-02T13:12:23.999Z</time></trkpt><trkpt lat="44.2828824418687" lon="10.301238636826424"><ele>1568.0</ele><time>2026-05-02T13:12:24.999Z</time></trkpt><trkpt lat="44.2827327868906" lon="10.301310361290222"><ele>1570.0</ele><time>2026-05-02T13:12:25.999Z</time></trkpt><trkpt lat="44.28258257189295" lon="10.301400118049168"><ele>1572.0</ele><time>2026-05-02T13:12:26.999Z</time></trkpt><trkpt lat="44.28243991867711" lon="10.301509312128001"><ele>1574.0</ele><time>2026-05-02T13:12:27.999Z</time></trkpt><trkpt lat="44.28230828136926" lon="10.301596161510338"><ele>1566.25</ele><time>2026-05-02T13:12:28.999Z</time></trkpt><trkpt lat="44.282194499685744" lon="10.301671520501289"><ele>1558.5</ele><time>2026-05-02T13:12:29.999Z</time></trkpt><trkpt lat="44.2821122860105" lon="10.301759852495417"><ele>1550.75</ele><time>2026-05-02T13:12:30.999Z</time></trkpt><trkpt lat="44.28204781516025" lon="10.301894773442065"><ele>1543.0</ele><time>2026-05-02T13:12:31.999Z</time></trkpt><trkpt lat="44.28201868148881" lon="10.302081007585203"><ele>1545.3333333333335</ele><time>2026-05-02T13:12:32.999Z</time></trkpt><trkpt lat="44.28200013526366" lon="10.302293134719607"><ele>1547.6666666666665</ele><time>2026-05-02T13:12:33.999Z</time></trkpt><trkpt lat="44.28196979178349" lon="10.302521065880843"><ele>1550.0</ele><time>2026-05-02T13:12:34.999Z</time></trkpt><trkpt lat="44.28192060906585" lon="10.302745292632062"><ele>1550.0</ele><time>2026-05-02T13:12:35.998Z</time></trkpt><trkpt lat="44.2818536865525" lon="10.302978341972988"><ele>1550.0</ele><time>2026-05-02T13:12:36.999Z</time></trkpt><trkpt lat="44.28178920950803" lon="10.303217766114939"><ele>1550.0</ele><time>2026-05-02T13:12:37.998Z</time></trkpt><trkpt lat="44.281710495957185" lon="10.303439703090952"><ele>1552.5</ele><time>2026-05-02T13:12:38.998Z</time></trkpt><trkpt lat="44.2816394134345" lon="10.30362308956"><ele>1555.0</ele><time>2026-05-02T13:12:39.998Z</time></trkpt><trkpt lat="44.28156338453843" lon="10.303756280534778"><ele>1557.5</ele><time>2026-05-02T13:12:40.998Z</time></trkpt><trkpt lat="44.281483276398276" lon="10.303838436448038"><ele>1560.0</ele><time>2026-05-02T13:12:41.998Z</time></trkpt><trkpt lat="44.28136355251415" lon="10.303833988042209"><ele>1551.0</ele><time>2026-05-02T13:12:42.998Z</time></trkpt><trkpt lat="44.28123416960342" lon="10.303801357870153"><ele>1542.0</ele><time>2026-05-02T13:12:43.998Z</time></trkpt><trkpt lat="44.28109077268832" lon="10.303781141992165"><ele>1533.0</ele><time>2026-05-02T13:12:44.998Z</time></trkpt><trkpt lat="44.280913558900075" lon="10.303770171976117"><ele>1533.0</ele><time>2026-05-02T13:12:45.998Z</time></trkpt><trkpt lat="44.28073402461634" lon="10.303871141724347"><ele>1533.0</ele><time>2026-05-02T13:12:46.998Z</time></trkpt><trkpt lat="44.28058882526338" lon="10.304008520391623"><ele>1533.0</ele><time>2026-05-02T13:12:47.998Z</time></trkpt><trkpt lat="44.2804346960691" lon="10.304209552649487"><ele>1532.6666666666667</ele><time>2026-05-02T13:12:48.998Z</time></trkpt><trkpt lat="44.280323278522246" lon="10.304371251005838"><ele>1532.3333333333335</ele><time>2026-05-02T13:12:49.998Z</time></trkpt><trkpt lat="44.280137097707026" lon="10.304591925028992"><ele>1532.0</ele><time>2026-05-02T13:12:51Z</time></trkpt><trkpt lat="44.27994952590506" lon="10.304848002581931"><ele>1528.3333333333335</ele><time>2026-05-02T13:12:53Z</time></trkpt><trkpt lat="44.279797680980096" lon="10.305037277873977"><ele>1524.6666666666667</ele><time>2026-05-02T13:12:54Z</time></trkpt><trkpt lat="44.279667504210636" lon="10.305258735137018"><ele>1521.0</ele><time>2026-05-02T13:12:55Z</time></trkpt><trkpt lat="44.27956097974141" lon="10.305495060864175"><ele>1524.0</ele><time>2026-05-02T13:12:56Z</time></trkpt><trkpt lat="44.279459095378094" lon="10.305733776843057"><ele>1527.0</ele><time>2026-05-02T13:12:57Z</time></trkpt><trkpt lat="44.27933468502689" lon="10.305943647091791"><ele>1530.0</ele><time>2026-05-02T13:12:58Z</time></trkpt><trkpt lat="44.279241948367336" lon="10.30615858516289"><ele>1530.0</ele><time>2026-05-02T13:12:59Z</time></trkpt><trkpt lat="44.27915953145989" lon="10.306338794610538"><ele>1530.0</ele><time>2026-05-02T13:13:00Z</time></trkpt><trkpt lat="44.279088446363914" lon="10.306495108868422"><ele>1530.0</ele><time>2026-05-02T13:13:01Z</time></trkpt><trkpt lat="44.27908532407449" lon="10.306675355363984"><ele>1530.0</ele><time>2026-05-02T13:13:02Z</time></trkpt><trkpt lat="44.27910272870208" lon="10.30688139471292"><ele>1531.3333333333333</ele><time>2026-05-02T13:13:03Z</time></trkpt><trkpt lat="44.27911038968732" lon="10.307109182560835"><ele>1532.6666666666665</ele><time>2026-05-02T13:13:04Z</time></trkpt><trkpt lat="44.27911947129939" lon="10.307373109510667"><ele>1534.0</ele><time>2026-05-02T13:13:05Z</time></trkpt><trkpt lat="44.279113502248" lon="10.307638101073707"><ele>1535.0</ele><time>2026-05-02T13:13:06Z</time></trkpt><trkpt lat="44.27906732255512" lon="10.307921765260106"><ele>1536.0</ele><time>2026-05-02T13:13:07Z</time></trkpt><trkpt lat="44.27901769519978" lon="10.308182208645361"><ele>1537.0</ele><time>2026-05-02T13:13:08Z</time></trkpt><trkpt lat="44.27898315911877" lon="10.3084177847931"><ele>1539.0</ele><time>2026-05-02T13:13:09Z</time></trkpt><trkpt lat="44.27895634423556" lon="10.308630172049618"><ele>1541.0</ele><time>2026-05-02T13:13:10Z</time></trkpt><trkpt lat="44.27891210294468" lon="10.308804232550465"><ele>1543.0</ele><time>2026-05-02T13:13:11Z</time></trkpt><trkpt lat="44.278828932301934" lon="10.308940470356898"><ele>1545.0</ele><time>2026-05-02T13:13:12Z</time></trkpt><trkpt lat="44.278711886153374" lon="10.309070151367958"><ele>1538.5</ele><time>2026-05-02T13:13:13Z</time></trkpt><trkpt lat="44.27860236671287" lon="10.309231053585442"><ele>1532.0</ele><time>2026-05-02T13:13:14Z</time></trkpt><trkpt lat="44.278491991998465" lon="10.309338495257226"><ele>1525.5</ele><time>2026-05-02T13:13:15Z</time></trkpt><trkpt lat="44.27837026355756" lon="10.309381168735044"><ele>1519.0</ele><time>2026-05-02T13:13:16Z</time></trkpt><trkpt lat="44.278228750553794" lon="10.309326183394212"><ele>1513.3333333333333</ele><time>2026-05-02T13:13:17Z</time></trkpt><trkpt lat="44.27807295664457" lon="10.309314657856106"><ele>1507.6666666666667</ele><time>2026-05-02T13:13:18Z</time></trkpt><trkpt lat="44.277922541494" lon="10.309306660320296"><ele>1502.0</ele><time>2026-05-02T13:13:19Z</time></trkpt><trkpt lat="44.27777940005969" lon="10.30936480007407"><ele>1502.0</ele><time>2026-05-02T13:13:20Z</time></trkpt><trkpt lat="44.27765559421005" lon="10.309475739967429"><ele>1502.0</ele><time>2026-05-02T13:13:21Z</time></trkpt><trkpt lat="44.277537197596224" lon="10.309643182932094"><ele>1502.0</ele><time>2026-05-02T13:13:22Z</time></trkpt><trkpt lat="44.27743567455414" lon="10.309804978950654"><ele>1505.25</ele><time>2026-05-02T13:13:23Z</time></trkpt><trkpt lat="44.27732757226899" lon="10.309918307107003"><ele>1508.5</ele><time>2026-05-02T13:13:24Z</time></trkpt><trkpt lat="44.277214855291355" lon="10.310005537528998"><ele>1511.75</ele><time>2026-05-02T13:13:25Z</time></trkpt><trkpt lat="44.27707149714834" lon="10.309975087448828"><ele>1515.0</ele><time>2026-05-02T13:13:26Z</time></trkpt><trkpt lat="44.276902442061896" lon="10.309936072015548"><ele>1515.0</ele><time>2026-05-02T13:13:27Z</time></trkpt><trkpt lat="44.2767110371687" lon="10.30991257109147"><ele>1515.0</ele><time>2026-05-02T13:13:28Z</time></trkpt><trkpt lat="44.27650720037194" lon="10.30985686977417"><ele>1515.0</ele><time>2026-05-02T13:13:29Z</time></trkpt><trkpt lat="44.27631069084526" lon="10.309815920282366"><ele>1513.6666666666667</ele><time>2026-05-02T13:13:30Z</time></trkpt><trkpt lat="44.276115086768215" lon="10.309787579584968"><ele>1512.3333333333335</ele><time>2026-05-02T13:13:31Z</time></trkpt><trkpt lat="44.27591441644261" lon="10.309775653908948"><ele>1511.0</ele><time>2026-05-02T13:13:32Z</time></trkpt><trkpt lat="44.27571301678973" lon="10.309789233748912"><ele>1509.3333333333335</ele><time>2026-05-02T13:13:33Z</time></trkpt><trkpt lat="44.275512125060445" lon="10.309816939068178"><ele>1507.6666666666667</ele><time>2026-05-02T13:13:34Z</time></trkpt><trkpt lat="44.27531954693355" lon="10.309833479391115"><ele>1506.0</ele><time>2026-05-02T13:13:35Z</time></trkpt><trkpt lat="44.27513636003027" lon="10.309836663145218"><ele>1506.0</ele><time>2026-05-02T13:13:36Z</time></trkpt><trkpt lat="44.274963222097874" lon="10.309819732572253"><ele>1506.0</ele><time>2026-05-02T13:13:37Z</time></trkpt><trkpt lat="44.274810883850776" lon="10.309699576972136"><ele>1506.0</ele><time>2026-05-02T13:13:38Z</time></trkpt><trkpt lat="44.27465445599338" lon="10.30958579075754"><ele>1500.0</ele><time>2026-05-02T13:13:38.999Z</time></trkpt><trkpt lat="44.27450744847839" lon="10.309500511151432"><ele>1494.0</ele><time>2026-05-02T13:13:39.999Z</time></trkpt><trkpt lat="44.27438011680059" lon="10.309409108382692"><ele>1488.0</ele><time>2026-05-02T13:13:40.999Z</time></trkpt><trkpt lat="44.274246925332605" lon="10.309375327755326"><ele>1482.0</ele><time>2026-05-02T13:13:41.999Z</time></trkpt><trkpt lat="44.27409841861794" lon="10.309397053780595"><ele>1482.0</ele><time>2026-05-02T13:13:42.999Z</time></trkpt><trkpt lat="44.27394235937928" lon="10.309480070409624"><ele>1482.0</ele><time>2026-05-02T13:13:43.999Z</time></trkpt><trkpt lat="44.27378420638485" lon="10.309610235057468"><ele>1482.0</ele><time>2026-05-02T13:13:44.999Z</time></trkpt><trkpt lat="44.273617745526096" lon="10.309764435803837"><ele>1481.6666666666667</ele><time>2026-05-02T13:13:45.999Z</time></trkpt><trkpt lat="44.273456089926114" lon="10.30991968679098"><ele>1481.3333333333335</ele><time>2026-05-02T13:13:46.999Z</time></trkpt><trkpt lat="44.27330586676363" lon="10.310056848904328"><ele>1481.0</ele><time>2026-05-02T13:13:47.999Z</time></trkpt><trkpt lat="44.27318101763825" lon="10.310233503087375"><ele>1477.6666666666667</ele><time>2026-05-02T13:13:48.999Z</time></trkpt><trkpt lat="44.27309383062103" lon="10.310449863027252"><ele>1474.3333333333333</ele><time>2026-05-02T13:13:49.999Z</time></trkpt><trkpt lat="44.27300944456993" lon="10.31070094630545"><ele>1471.0</ele><time>2026-05-02T13:13:50.999Z</time></trkpt><trkpt lat="44.27292584900793" lon="10.310947657842549"><ele>1471.0</ele><time>2026-05-02T13:13:51.999Z</time></trkpt><trkpt lat="44.27283018117064" lon="10.311200495140648"><ele>1471.0</ele><time>2026-05-02T13:13:52.999Z</time></trkpt><trkpt lat="44.272708536667125" lon="10.311418515360284"><ele>1471.0</ele><time>2026-05-02T13:13:53.999Z</time></trkpt><trkpt lat="44.27257064726112" lon="10.3116055122756"><ele>1472.3333333333333</ele><time>2026-05-02T13:13:54.999Z</time></trkpt><trkpt lat="44.27242508148699" lon="10.311784075297988"><ele>1473.6666666666667</ele><time>2026-05-02T13:13:55.999Z</time></trkpt><trkpt lat="44.272308801541655" lon="10.311941791467843"><ele>1475.0</ele><time>2026-05-02T13:13:56.999Z</time></trkpt><trkpt lat="44.27220117122464" lon="10.312066640382834"><ele>1468.5</ele><time>2026-05-02T13:13:57.999Z</time></trkpt><trkpt lat="44.27212321527713" lon="10.31218751999577"><ele>1462.0</ele><time>2026-05-02T13:13:58.999Z</time></trkpt><trkpt lat="44.27208975961057" lon="10.312348428495135"><ele>1455.5</ele><time>2026-05-02T13:13:59.999Z</time></trkpt><trkpt lat="44.27208858171376" lon="10.312546090225316"><ele>1449.0</ele><time>2026-05-02T13:14:00.999Z</time></trkpt><trkpt lat="44.27211835845265" lon="10.312778260039924"><ele>1449.0</ele><time>2026-05-02T13:14:01.999Z</time></trkpt><trkpt lat="44.27214154597782" lon="10.312981276913435"><ele>1449.0</ele><time>2026-05-02T13:14:02.999Z</time></trkpt><trkpt lat="44.2721326596517" lon="10.313152689123243"><ele>1449.0</ele><time>2026-05-02T13:14:03.999Z</time></trkpt><trkpt lat="44.27211024415975" lon="10.313283123444455"><ele>1449.0</ele><time>2026-05-02T13:14:04.999Z</time></trkpt><trkpt lat="44.272040517859324" lon="10.313363979045373"><ele>1451.5</ele><time>2026-05-02T13:14:05.999Z</time></trkpt><trkpt lat="44.27191682801934" lon="10.313404353013306"><ele>1454.0</ele><time>2026-05-02T13:14:06.999Z</time></trkpt><trkpt lat="44.271777608543296" lon="10.313460497333503"><ele>1456.5</ele><time>2026-05-02T13:14:07.999Z</time></trkpt><trkpt lat="44.2716304144559" lon="10.313560912339181"><ele>1459.0</ele><time>2026-05-02T13:14:08.999Z</time></trkpt><trkpt lat="44.27146891390035" lon="10.313672319249388"><ele>1458.6666666666665</ele><time>2026-05-02T13:14:09.999Z</time></trkpt><trkpt lat="44.2713068762782" lon="10.313788220415892"><ele>1458.3333333333333</ele><time>2026-05-02T13:14:10.999Z</time></trkpt><trkpt lat="44.27113535826383" lon="10.313906048878772"><ele>1458.0</ele><time>2026-05-02T13:14:11.999Z</time></trkpt><trkpt lat="44.27095690281841" lon="10.314026136716864"><ele>1458.0</ele><time>2026-05-02T13:14:12.999Z</time></trkpt><trkpt lat="44.27077838241689" lon="10.31415026813041"><ele>1458.0</ele><time>2026-05-02T13:14:13.999Z</time></trkpt><trkpt lat="44.270598301372424" lon="10.314286356498323"><ele>1458.0</ele><time>2026-05-02T13:14:14.999Z</time></trkpt><trkpt lat="44.270423431102" lon="10.314411437154602"><ele>1458.6666666666667</ele><time>2026-05-02T13:14:15.999Z</time></trkpt><trkpt lat="44.27025893736599" lon="10.314537297128549"><ele>1459.3333333333335</ele><time>2026-05-02T13:14:16.999Z</time></trkpt><trkpt lat="44.27008174388887" lon="10.314683216673092"><ele>1460.0</ele><time>2026-05-02T13:14:17.999Z</time></trkpt><trkpt lat="44.26988176935485" lon="10.314811986661757"><ele>1449.6666666666667</ele><time>2026-05-02T13:14:18.999Z</time></trkpt><trkpt lat="44.26975992928929" lon="10.314933091351815"><ele>1439.3333333333333</ele><time>2026-05-02T13:14:19.999Z</time></trkpt><trkpt lat="44.26960215735289" lon="10.315072424743018"><ele>1429.0</ele><time>2026-05-02T13:14:20.999Z</time></trkpt><trkpt lat="44.26946427928453" lon="10.315216230777736"><ele>1429.0</ele><time>2026-05-02T13:14:21.999Z</time></trkpt><trkpt lat="44.2693447377865" lon="10.315359153351832"><ele>1429.0</ele><time>2026-05-02T13:14:22.999Z</time></trkpt><trkpt lat="44.26923568984425" lon="10.315525688995011"><ele>1429.0</ele><time>2026-05-02T13:14:23.999Z</time></trkpt><trkpt lat="44.269163254456465" lon="10.315694402469457"><ele>1432.0</ele><time>2026-05-02T13:14:24.999Z</time></trkpt><trkpt lat="44.26912125364885" lon="10.315894217500757"><ele>1435.0</ele><time>2026-05-02T13:14:25.999Z</time></trkpt><trkpt lat="44.269145522603964" lon="10.316106067079776"><ele>1438.0</ele><time>2026-05-02T13:14:26.999Z</time></trkpt><trkpt lat="44.269177716760616" lon="10.316313090096738"><ele>1435.0</ele><time>2026-05-02T13:14:27.999Z</time></trkpt><trkpt lat="44.269225375544394" lon="10.316514467455125"><ele>1432.0</ele><time>2026-05-02T13:14:28.999Z</time></trkpt><trkpt lat="44.269346815028534" lon="10.316668458743829"><ele>1429.0</ele><time>2026-05-02T13:14:29.999Z</time></trkpt><trkpt lat="44.26946797629936" lon="10.316831424123725"><ele>1429.0</ele><time>2026-05-02T13:14:30.999Z</time></trkpt><trkpt lat="44.2695532192314" lon="10.317004547007157"><ele>1429.0</ele><time>2026-05-02T13:14:31.999Z</time></trkpt><trkpt lat="44.26961861526448" lon="10.31719653852084"><ele>1429.0</ele><time>2026-05-02T13:14:32.999Z</time></trkpt><trkpt lat="44.26965880569895" lon="10.317355915292469"><ele>1429.0</ele><time>2026-05-02T13:14:33.999Z</time></trkpt><trkpt lat="44.269687205007976" lon="10.317503743898532"><ele>1429.25</ele><time>2026-05-02T13:14:34.999Z</time></trkpt><trkpt lat="44.269639584658115" lon="10.317644701119791"><ele>1429.5</ele><time>2026-05-02T13:14:35.999Z</time></trkpt><trkpt lat="44.26956041269871" lon="10.317755006648996"><ele>1429.75</ele><time>2026-05-02T13:14:36.999Z</time></trkpt><trkpt lat="44.26942612819483" lon="10.317810626931294"><ele>1430.0</ele><time>2026-05-02T13:14:37.999Z</time></trkpt><trkpt lat="44.269281997590646" lon="10.317899290366089"><ele>1430.0</ele><time>2026-05-02T13:14:38.998Z</time></trkpt><trkpt lat="44.269136762631405" lon="10.31795336724652"><ele>1430.0</ele><time>2026-05-02T13:14:39.998Z</time></trkpt><trkpt lat="44.26898570811859" lon="10.317967557960847"><ele>1430.0</ele><time>2026-05-02T13:14:40.998Z</time></trkpt><trkpt lat="44.268815939120564" lon="10.317912981409462"><ele>1425.6666666666667</ele><time>2026-05-02T13:14:41.998Z</time></trkpt><trkpt lat="44.268633643329245" lon="10.3178886519"><ele>1421.3333333333333</ele><time>2026-05-02T13:14:42.998Z</time></trkpt><trkpt lat="44.26844918594874" lon="10.317839827333232"><ele>1417.0</ele><time>2026-05-02T13:14:43.998Z</time></trkpt><trkpt lat="44.26824497912927" lon="10.317811734820156"><ele>1414.0</ele><time>2026-05-02T13:14:44.998Z</time></trkpt><trkpt lat="44.26804574896613" lon="10.317793255300156"><ele>1411.0</ele><time>2026-05-02T13:14:45.998Z</time></trkpt><trkpt lat="44.267856773887615" lon="10.317784412549042"><ele>1408.0</ele><time>2026-05-02T13:14:46.998Z</time></trkpt><trkpt lat="44.267670160216525" lon="10.31778559444708"><ele>1408.0</ele><time>2026-05-02T13:14:47.998Z</time></trkpt><trkpt lat="44.267502398743865" lon="10.317797064511332"><ele>1408.0</ele><time>2026-05-02T13:14:48.998Z</time></trkpt><trkpt lat="44.267338132441985" lon="10.317846612683013"><ele>1408.0</ele><time>2026-05-02T13:14:49.998Z</time></trkpt><trkpt lat="44.26719441238176" lon="10.317908714176196"><ele>1409.2</ele><time>2026-05-02T13:14:50.998Z</time></trkpt><trkpt lat="44.26705920301443" lon="10.317988206743863"><ele>1410.4</ele><time>2026-05-02T13:14:51.998Z</time></trkpt><trkpt lat="44.266949306834505" lon="10.318044264533814"><ele>1411.6000000000001</ele><time>2026-05-02T13:14:52.998Z</time></trkpt><trkpt lat="44.26686762706939" lon="10.318088567670372"><ele>1412.8000000000002</ele><time>2026-05-02T13:14:53.998Z</time></trkpt><trkpt lat="44.26679183709158" lon="10.31810909096672"><ele>1414.0</ele><time>2026-05-02T13:14:54.998Z</time></trkpt><trkpt lat="44.26671223542088" lon="10.317979001809764"><ele>1410.8000000000002</ele><time>2026-05-02T13:14:57Z</time></trkpt><trkpt lat="44.26673619865529" lon="10.317872568769106"><ele>1407.6000000000001</ele><time>2026-05-02T13:14:58Z</time></trkpt><trkpt lat="44.26680374579741" lon="10.317795397193045"><ele>1404.4</ele><time>2026-05-02T13:14:59Z</time></trkpt><trkpt lat="44.26691518300184" lon="10.317761472121703"><ele>1401.2</ele><time>2026-05-02T13:15:00Z</time></trkpt><trkpt lat="44.267061633309595" lon="10.317769721768514"><ele>1398.0</ele><time>2026-05-02T13:15:01Z</time></trkpt><trkpt lat="44.26722053257807" lon="10.317711021886279"><ele>1401.3333333333333</ele><time>2026-05-02T13:15:02Z</time></trkpt><trkpt lat="44.2673909981606" lon="10.317654877469801"><ele>1404.6666666666665</ele><time>2026-05-02T13:15:03Z</time></trkpt><trkpt lat="44.26757562229541" lon="10.317612326469748"><ele>1408.0</ele><time>2026-05-02T13:15:04Z</time></trkpt><trkpt lat="44.267764619281074" lon="10.31755073893274"><ele>1408.0</ele><time>2026-05-02T13:15:05Z</time></trkpt><trkpt lat="44.26795011695197" lon="10.317497628097357"><ele>1408.0</ele><time>2026-05-02T13:15:06Z</time></trkpt><trkpt lat="44.26812983538486" lon="10.317455705235382"><ele>1408.0</ele><time>2026-05-02T13:15:07Z</time></trkpt><trkpt lat="44.2683023120699" lon="10.317425037556843"><ele>1410.25</ele><time>2026-05-02T13:15:08Z</time></trkpt><trkpt lat="44.26845921578375" lon="10.31738276026152"><ele>1412.5</ele><time>2026-05-02T13:15:09Z</time></trkpt><trkpt lat="44.268601822759706" lon="10.317297843199473"><ele>1414.75</ele><time>2026-05-02T13:15:10Z</time></trkpt><trkpt lat="44.26870934007095" lon="10.31723672028351"><ele>1417.0</ele><time>2026-05-02T13:15:11Z</time></trkpt><trkpt lat="44.26878877094072" lon="10.317179146371531"><ele>1413.1999999999998</ele><time>2026-05-02T13:15:12Z</time></trkpt><trkpt lat="44.26884045778471" lon="10.317103567953918"><ele>1409.4</ele><time>2026-05-02T13:15:13Z</time></trkpt><trkpt lat="44.268844496405215" lon="10.31696756528381"><ele>1405.6</ele><time>2026-05-02T13:15:14Z</time></trkpt><trkpt lat="44.26881362247401" lon="10.316848359030837"><ele>1401.8000000000002</ele><time>2026-05-02T13:15:15Z</time></trkpt><trkpt lat="44.26874944694631" lon="10.316735871618532"><ele>1398.0</ele><time>2026-05-02T13:15:16Z</time></trkpt><trkpt lat="44.2686490199853" lon="10.31663375366988"><ele>1398.0</ele><time>2026-05-02T13:15:17Z</time></trkpt><trkpt lat="44.2685388945421" lon="10.316527474745216"><ele>1398.0</ele><time>2026-05-02T13:15:18Z</time></trkpt><trkpt lat="44.26845348339446" lon="10.316389699720293"><ele>1398.0</ele><time>2026-05-02T13:15:19Z</time></trkpt><trkpt lat="44.268428419030485" lon="10.316205471539057"><ele>1398.0</ele><time>2026-05-02T13:15:20Z</time></trkpt><trkpt lat="44.268413908509054" lon="10.315997741641567"><ele>1397.3333333333333</ele><time>2026-05-02T13:15:21Z</time></trkpt><trkpt lat="44.268381536949455" lon="10.315751637005667"><ele>1396.6666666666665</ele><time>2026-05-02T13:15:22Z</time></trkpt><trkpt lat="44.26837267217546" lon="10.31550514645406"><ele>1396.0</ele><time>2026-05-02T13:15:23Z</time></trkpt><trkpt lat="44.26836626279365" lon="10.315261130026238"><ele>1395.0</ele><time>2026-05-02T13:15:24Z</time></trkpt><trkpt lat="44.268350200144724" lon="10.315050252624902"><ele>1394.0</ele><time>2026-05-02T13:15:25Z</time></trkpt><trkpt lat="44.26835136866192" lon="10.314855870519674"><ele>1393.0</ele><time>2026-05-02T13:15:26Z</time></trkpt><trkpt lat="44.268392718678214" lon="10.314674504716303"><ele>1392.0</ele><time>2026-05-02T13:15:27Z</time></trkpt><trkpt lat="44.26846884271476" lon="10.314509816212032"><ele>1387.6666666666667</ele><time>2026-05-02T13:15:28Z</time></trkpt><trkpt lat="44.26854739376618" lon="10.314370455371387"><ele>1383.3333333333335</ele><time>2026-05-02T13:15:29Z</time></trkpt><trkpt lat="44.26865886654656" lon="10.314099964920695"><ele>1379.0</ele><time>2026-05-02T13:15:30Z</time></trkpt><trkpt lat="44.268758079883604" lon="10.313883094772267"><ele>1382.6666666666667</ele><time>2026-05-02T13:15:31Z</time></trkpt><trkpt lat="44.26886563288949" lon="10.313653906796684"><ele>1386.3333333333333</ele><time>2026-05-02T13:15:32Z</time></trkpt><trkpt lat="44.268972975894535" lon="10.313428307207433"><ele>1390.0</ele><time>2026-05-02T13:15:33Z</time></trkpt><trkpt lat="44.26907694517727" lon="10.313209797498548"><ele>1383.6666666666665</ele><time>2026-05-02T13:15:34Z</time></trkpt><trkpt lat="44.26917906693005" lon="10.313003699829224"><ele>1377.3333333333333</ele><time>2026-05-02T13:15:35Z</time></trkpt><trkpt lat="44.26929581415826" lon="10.312828189820566"><ele>1371.0</ele><time>2026-05-02T13:15:36Z</time></trkpt><trkpt lat="44.269437433857334" lon="10.312680256981901"><ele>1371.0</ele><time>2026-05-02T13:15:37Z</time></trkpt><trkpt lat="44.269595749264056" lon="10.312529885652012"><ele>1371.0</ele><time>2026-05-02T13:15:38Z</time></trkpt><trkpt lat="44.26975167084777" lon="10.312397227471328"><ele>1371.0</ele><time>2026-05-02T13:15:39Z</time></trkpt><trkpt lat="44.269902008666" lon="10.312262802441024"><ele>1371.5</ele><time>2026-05-02T13:15:40Z</time></trkpt><trkpt lat="44.27001558110295" lon="10.312141456463912"><ele>1372.0</ele><time>2026-05-02T13:15:41Z</time></trkpt><trkpt lat="44.27008606121141" lon="10.31199478360353"><ele>1372.5</ele><time>2026-05-02T13:15:42Z</time></trkpt><trkpt lat="44.27014183000123" lon="10.31184754174572"><ele>1373.0</ele><time>2026-05-02T13:15:43Z</time></trkpt><trkpt lat="44.27010785454536" lon="10.311659754656784"><ele>1373.0</ele><time>2026-05-02T13:15:44Z</time></trkpt><trkpt lat="44.270083425489084" lon="10.311443159159023"><ele>1373.0</ele><time>2026-05-02T13:15:44.999Z</time></trkpt><trkpt lat="44.270073931077825" lon="10.311257684446554"><ele>1373.0</ele><time>2026-05-02T13:15:45.999Z</time></trkpt><trkpt lat="44.27008774902391" lon="10.31112831723345"><ele>1373.0</ele><time>2026-05-02T13:15:46.999Z</time></trkpt><trkpt lat="44.27017420494736" lon="10.311072637096585"><ele>1375.4</ele><time>2026-05-02T13:15:47.999Z</time></trkpt><trkpt lat="44.27025660178882" lon="10.311070011220794"><ele>1377.8000000000002</ele><time>2026-05-02T13:15:48.999Z</time></trkpt><trkpt lat="44.27034341306756" lon="10.311097617549354"><ele>1380.2</ele><time>2026-05-02T13:15:49.999Z</time></trkpt><trkpt lat="44.270457447730934" lon="10.311117192562754"><ele>1382.6</ele><time>2026-05-02T13:15:50.999Z</time></trkpt><trkpt lat="44.27056657084913" lon="10.311132622053208"><ele>1385.0</ele><time>2026-05-02T13:15:51.999Z</time></trkpt><trkpt lat="44.270674465698825" lon="10.311070459318168"><ele>1385.0</ele><time>2026-05-02T13:15:52.999Z</time></trkpt><trkpt lat="44.27072921035387" lon="10.310923378888948"><ele>1385.0</ele><time>2026-05-02T13:15:53.999Z</time></trkpt><trkpt lat="44.27074776124208" lon="10.310759550513172"><ele>1385.0</ele><time>2026-05-02T13:15:54.999Z</time></trkpt><trkpt lat="44.270728452665516" lon="10.310561268650131"><ele>1385.0</ele><time>2026-05-02T13:15:55.999Z</time></trkpt><trkpt lat="44.27070049460735" lon="10.310339935874852"><ele>1381.3333333333335</ele><time>2026-05-02T13:15:56.999Z</time></trkpt><trkpt lat="44.27074934131042" lon="10.310095164966475"><ele>1377.6666666666667</ele><time>2026-05-02T13:15:57.999Z</time></trkpt><trkpt lat="44.27079009524999" lon="10.309840465205157"><ele>1374.0</ele><time>2026-05-02T13:15:58.999Z</time></trkpt><trkpt lat="44.270802279771665" lon="10.309590210013372"><ele>1370.3333333333333</ele><time>2026-05-02T13:15:59.999Z</time></trkpt><trkpt lat="44.27080233417233" lon="10.309342482461787"><ele>1366.6666666666665</ele><time>2026-05-02T13:16:00.999Z</time></trkpt><trkpt lat="44.27078293548254" lon="10.309100938453675"><ele>1363.0</ele><time>2026-05-02T13:16:01.999Z</time></trkpt><trkpt lat="44.27074528535929" lon="10.308848522959336"><ele>1361.5</ele><time>2026-05-02T13:16:02.999Z</time></trkpt><trkpt lat="44.27072080375253" lon="10.308610020161991"><ele>1360.0</ele><time>2026-05-02T13:16:03.999Z</time></trkpt><trkpt lat="44.27070377044782" lon="10.308387005600686"><ele>1358.5</ele><time>2026-05-02T13:16:04.999Z</time></trkpt><trkpt lat="44.270719475795104" lon="10.30822935058966"><ele>1357.0</ele><time>2026-05-02T13:16:05.999Z</time></trkpt><trkpt lat="44.270758265969995" lon="10.308093025894728"><ele>1351.0</ele><time>2026-05-02T13:16:06.999Z</time></trkpt><trkpt lat="44.27083988185931" lon="10.307956153773345"><ele>1345.0</ele><time>2026-05-02T13:16:07.999Z</time></trkpt><trkpt lat="44.270954725708776" lon="10.307822558768061"><ele>1339.0</ele><time>2026-05-02T13:16:08.999Z</time></trkpt><trkpt lat="44.27110267455333" lon="10.307652255723749"><ele>1339.0</ele><time>2026-05-02T13:16:09.999Z</time></trkpt><trkpt lat="44.27123373532524" lon="10.307480599332557"><ele>1339.0</ele><time>2026-05-02T13:16:10.999Z</time></trkpt><trkpt lat="44.27136906523842" lon="10.307336542402068"><ele>1339.0</ele><time>2026-05-02T13:16:11.999Z</time></trkpt><trkpt lat="44.27147749917261" lon="10.30715665342959"><ele>1341.0</ele><time>2026-05-02T13:16:12.999Z</time></trkpt><trkpt lat="44.27156665666416" lon="10.306938657879034"><ele>1343.0</ele><time>2026-05-02T13:16:13.999Z</time></trkpt><trkpt lat="44.27162241356832" lon="10.306686811818198"><ele>1345.0</ele><time>2026-05-02T13:16:14.999Z</time></trkpt><trkpt lat="44.271648268956724" lon="10.306448019355086"><ele>1341.0</ele><time>2026-05-02T13:16:15.999Z</time></trkpt><trkpt lat="44.271704275427425" lon="10.306255211112083"><ele>1337.0</ele><time>2026-05-02T13:16:16.999Z</time></trkpt><trkpt lat="44.27176864436257" lon="10.306076562557344"><ele>1333.0</ele><time>2026-05-02T13:16:17.999Z</time></trkpt><trkpt lat="44.271860543741525" lon="10.305917120126876"><ele>1329.0</ele><time>2026-05-02T13:16:18.999Z</time></trkpt><trkpt lat="44.27198624885078" lon="10.305786358057247"><ele>1329.0</ele><time>2026-05-02T13:16:19.999Z</time></trkpt><trkpt lat="44.27211416980387" lon="10.305641725372459"><ele>1329.0</ele><time>2026-05-02T13:16:20.999Z</time></trkpt><trkpt lat="44.27221937909824" lon="10.305473004748539"><ele>1329.0</ele><time>2026-05-02T13:16:21.999Z</time></trkpt><trkpt lat="44.27230092449119" lon="10.30526224838833"><ele>1329.6666666666667</ele><time>2026-05-02T13:16:22.999Z</time></trkpt><trkpt lat="44.2723578720874" lon="10.30501517756201"><ele>1330.3333333333335</ele><time>2026-05-02T13:16:23.999Z</time></trkpt><trkpt lat="44.27240421191912" lon="10.304759011634951"><ele>1331.0</ele><time>2026-05-02T13:16:24.999Z</time></trkpt><trkpt lat="44.27249839624373" lon="10.304548206570601"><ele>1328.0</ele><time>2026-05-02T13:16:25.999Z</time></trkpt><trkpt lat="44.27260806311962" lon="10.304330565426946"><ele>1325.0</ele><time>2026-05-02T13:16:26.999Z</time></trkpt><trkpt lat="44.272719625803525" lon="10.30410724385379"><ele>1322.0</ele><time>2026-05-02T13:16:27.999Z</time></trkpt><trkpt lat="44.27282533431189" lon="10.303895640888916"><ele>1323.6666666666667</ele><time>2026-05-02T13:16:28.999Z</time></trkpt><trkpt lat="44.27291782648466" lon="10.303672039565516"><ele>1325.3333333333333</ele><time>2026-05-02T13:16:29.999Z</time></trkpt><trkpt lat="44.273026950634396" lon="10.303466639554212"><ele>1327.0</ele><time>2026-05-02T13:16:30.999Z</time></trkpt><trkpt lat="44.27313205056633" lon="10.303264229053308"><ele>1322.3333333333333</ele><time>2026-05-02T13:16:31.999Z</time></trkpt><trkpt lat="44.273217404955666" lon="10.303049092377178"><ele>1317.6666666666667</ele><time>2026-05-02T13:16:32.999Z</time></trkpt><trkpt lat="44.27326502635685" lon="10.302816984665219"><ele>1313.0</ele><time>2026-05-02T13:16:33.999Z</time></trkpt><trkpt lat="44.27327774353341" lon="10.302537663560877"><ele>1313.0</ele><time>2026-05-02T13:16:34.999Z</time></trkpt><trkpt lat="44.27327694783932" lon="10.302255779333374"><ele>1313.0</ele><time>2026-05-02T13:16:35.999Z</time></trkpt><trkpt lat="44.27328834562096" lon="10.30196822916635"><ele>1313.0</ele><time>2026-05-02T13:16:36.999Z</time></trkpt><trkpt lat="44.27328905359816" lon="10.301707816884301"><ele>1311.5</ele><time>2026-05-02T13:16:37.999Z</time></trkpt><trkpt lat="44.273312213438224" lon="10.301487786743708"><ele>1310.0</ele><time>2026-05-02T13:16:38.999Z</time></trkpt><trkpt lat="44.273361035327426" lon="10.301316525743564"><ele>1308.5</ele><time>2026-05-02T13:16:39.999Z</time></trkpt><trkpt lat="44.27344229907891" lon="10.30115537888106"><ele>1307.0</ele><time>2026-05-02T13:16:40.999Z</time></trkpt><trkpt lat="44.27348996775289" lon="10.301013766639102"><ele>1305.5</ele><time>2026-05-02T13:16:41.999Z</time></trkpt><trkpt lat="44.2735379147908" lon="10.30091506658259"><ele>1304.0</ele><time>2026-05-02T13:16:42.999Z</time></trkpt><trkpt lat="44.27354318223149" lon="10.300802437540478"><ele>1302.5</ele><time>2026-05-02T13:16:43.999Z</time></trkpt><trkpt lat="44.273506073806125" lon="10.300694303795192"><ele>1301.0</ele><time>2026-05-02T13:16:44.998Z</time></trkpt><trkpt lat="44.27343328385721" lon="10.300616782866335"><ele>1299.5</ele><time>2026-05-02T13:16:45.998Z</time></trkpt><trkpt lat="44.27333131306259" lon="10.300607545001442"><ele>1298.0</ele><time>2026-05-02T13:16:46.998Z</time></trkpt><trkpt lat="44.27324399720845" lon="10.300665752946443"><ele>1298.0</ele><time>2026-05-02T13:16:47.998Z</time></trkpt><trkpt lat="44.27317485398396" lon="10.30079154773579"><ele>1298.0</ele><time>2026-05-02T13:16:48.998Z</time></trkpt><trkpt lat="44.27312633811814" lon="10.30096213684238"><ele>1298.0</ele><time>2026-05-02T13:16:49.998Z</time></trkpt><trkpt lat="44.2730884725557" lon="10.301163996664936"><ele>1298.0</ele><time>2026-05-02T13:16:50.998Z</time></trkpt><trkpt lat="44.27303921140353" lon="10.301376113272363"><ele>1291.6666666666667</ele><time>2026-05-02T13:16:51.998Z</time></trkpt><trkpt lat="44.272983143192256" lon="10.301591572834544"><ele>1285.3333333333333</ele><time>2026-05-02T13:16:52.998Z</time></trkpt><trkpt lat="44.2729260944325" lon="10.301800017815852"><ele>1279.0</ele><time>2026-05-02T13:16:53.998Z</time></trkpt><trkpt lat="44.27283694015801" lon="10.301977699953573"><ele>1279.0</ele><time>2026-05-02T13:16:54.998Z</time></trkpt><trkpt lat="44.27271579580759" lon="10.302118190595314"><ele>1279.0</ele><time>2026-05-02T13:16:55.998Z</time></trkpt><trkpt lat="44.272551705427" lon="10.302226895441716"><ele>1279.0</ele><time>2026-05-02T13:16:56.998Z</time></trkpt><trkpt lat="44.272383148818555" lon="10.30233156137557"><ele>1277.6666666666665</ele><time>2026-05-02T13:16:57.998Z</time></trkpt><trkpt lat="44.27220426747066" lon="10.302437593162672"><ele>1276.3333333333333</ele><time>2026-05-02T13:16:58.998Z</time></trkpt><trkpt lat="44.27201622965412" lon="10.3025675635478"><ele>1275.0</ele><time>2026-05-02T13:16:59.998Z</time></trkpt><trkpt lat="44.27183546718363" lon="10.302682795954924"><ele>1275.0</ele><time>2026-05-02T13:17:00.998Z</time></trkpt><trkpt lat="44.27166026657924" lon="10.302799527702511"><ele>1275.0</ele><time>2026-05-02T13:17:01.998Z</time></trkpt><trkpt lat="44.27147694054709" lon="10.302877818085696"><ele>1275.0</ele><time>2026-05-02T13:17:03Z</time></trkpt><trkpt lat="44.27129831262401" lon="10.302932747193953"><ele>1271.0</ele><time>2026-05-02T13:17:04Z</time></trkpt><trkpt lat="44.27113280224117" lon="10.30296700161027"><ele>1267.0</ele><time>2026-05-02T13:17:05Z</time></trkpt><trkpt lat="44.27091581954619" lon="10.303033421328488"><ele>1263.0</ele><time>2026-05-02T13:17:06Z</time></trkpt><trkpt lat="44.27073861255674" lon="10.303066429475464"><ele>1260.8</ele><time>2026-05-02T13:17:07Z</time></trkpt><trkpt lat="44.270590370250545" lon="10.303068289574473"><ele>1258.6</ele><time>2026-05-02T13:17:08Z</time></trkpt><trkpt lat="44.27048522165491" lon="10.303061475780313"><ele>1256.4</ele><time>2026-05-02T13:17:09Z</time></trkpt><trkpt lat="44.27041481498276" lon="10.303029142050248"><ele>1254.2</ele><time>2026-05-02T13:17:10Z</time></trkpt><trkpt lat="44.27036516266754" lon="10.302968108221707"><ele>1252.0</ele><time>2026-05-02T13:17:11Z</time></trkpt><trkpt lat="44.27036495855413" lon="10.302853805688828"><ele>1252.0</ele><time>2026-05-02T13:17:12Z</time></trkpt><trkpt lat="44.270426474396935" lon="10.302737986728786"><ele>1252.0</ele><time>2026-05-02T13:17:13Z</time></trkpt><trkpt lat="44.27055147660014" lon="10.302631243321981"><ele>1252.0</ele><time>2026-05-02T13:17:14Z</time></trkpt><trkpt lat="44.27067720367493" lon="10.302548396404275"><ele>1252.0</ele><time>2026-05-02T13:17:15Z</time></trkpt><trkpt lat="44.27080037814618" lon="10.302460978738885"><ele>1252.5</ele><time>2026-05-02T13:17:16Z</time></trkpt><trkpt lat="44.27090602132601" lon="10.302317736840456"><ele>1253.0</ele><time>2026-05-02T13:17:17Z</time></trkpt><trkpt lat="44.27096793953222" lon="10.30214926438144"><ele>1253.5</ele><time>2026-05-02T13:17:18Z</time></trkpt><trkpt lat="44.270993111817894" lon="10.301969043728235"><ele>1254.0</ele><time>2026-05-02T13:17:19Z</time></trkpt><trkpt lat="44.27098854884527" lon="10.301783335216626"><ele>1254.0</ele><time>2026-05-02T13:17:20Z</time></trkpt><trkpt lat="44.270945975738634" lon="10.301591598332386"><ele>1254.0</ele><time>2026-05-02T13:17:21Z</time></trkpt><trkpt lat="44.27088260531513" lon="10.301379013199416"><ele>1254.0</ele><time>2026-05-02T13:17:22Z</time></trkpt><trkpt lat="44.270815296929655" lon="10.301153986135962"><ele>1254.0</ele><time>2026-05-02T13:17:23Z</time></trkpt><trkpt lat="44.27075842192847" lon="10.300915730916087"><ele>1254.0</ele><time>2026-05-02T13:17:24Z</time></trkpt><trkpt lat="44.2707073745276" lon="10.300678493129512"><ele>1254.0</ele><time>2026-05-02T13:17:25Z</time></trkpt><trkpt lat="44.27065375430091" lon="10.300446263558792"><ele>1249.75</ele><time>2026-05-02T13:17:26Z</time></trkpt><trkpt lat="44.270606368309124" lon="10.300242231642947"><ele>1245.5</ele><time>2026-05-02T13:17:27Z</time></trkpt><trkpt lat="44.27056482677533" lon="10.300076166319027"><ele>1241.25</ele><time>2026-05-02T13:17:28Z</time></trkpt><trkpt lat="44.2705160428443" lon="10.299954251745362"><ele>1237.0</ele><time>2026-05-02T13:17:29Z</time></trkpt><trkpt lat="44.27044609388964" lon="10.299900539584751"><ele>1237.0</ele><time>2026-05-02T13:17:30Z</time></trkpt><trkpt lat="44.27037387717661" lon="10.299912083958377"><ele>1237.0</ele><time>2026-05-02T13:17:31Z</time></trkpt><trkpt lat="44.2703056142577" lon="10.29995574391212"><ele>1237.0</ele><time>2026-05-02T13:17:32Z</time></trkpt><trkpt lat="44.27025413568937" lon="10.300058497269351"><ele>1237.0</ele><time>2026-05-02T13:17:33Z</time></trkpt><trkpt lat="44.27023551185277" lon="10.300193768045705"><ele>1237.0</ele><time>2026-05-02T13:17:34Z</time></trkpt><trkpt lat="44.270236164679986" lon="10.300346527891671"><ele>1237.0</ele><time>2026-05-02T13:17:35Z</time></trkpt><trkpt lat="44.27025560649956" lon="10.300529739110956"><ele>1235.6666666666665</ele><time>2026-05-02T13:17:36Z</time></trkpt><trkpt lat="44.27027172061351" lon="10.300734796074787"><ele>1234.3333333333333</ele><time>2026-05-02T13:17:37Z</time></trkpt><trkpt lat="44.270269229396966" lon="10.300957228435294"><ele>1233.0</ele><time>2026-05-02T13:17:38Z</time></trkpt><trkpt lat="44.2702712308519" lon="10.30116541736051"><ele>1233.0</ele><time>2026-05-02T13:17:39Z</time></trkpt><trkpt lat="44.27025779405145" lon="10.301337351948067"><ele>1233.0</ele><time>2026-05-02T13:17:40Z</time></trkpt><trkpt lat="44.270207180685745" lon="10.301480411025613"><ele>1233.0</ele><time>2026-05-02T13:17:41Z</time></trkpt><trkpt lat="44.27012727330809" lon="10.301605764299163"><ele>1233.0</ele><time>2026-05-02T13:17:42Z</time></trkpt><trkpt lat="44.27001359411359" lon="10.301694299167082"><ele>1233.6666666666667</ele><time>2026-05-02T13:17:43Z</time></trkpt><trkpt lat="44.269875599492686" lon="10.301715510287881"><ele>1234.3333333333335</ele><time>2026-05-02T13:17:44Z</time></trkpt><trkpt lat="44.26971188232426" lon="10.301735487058872"><ele>1235.0</ele><time>2026-05-02T13:17:45Z</time></trkpt><trkpt lat="44.269538161890864" lon="10.30177155897143"><ele>1232.0</ele><time>2026-05-02T13:17:46Z</time></trkpt><trkpt lat="44.269366003215644" lon="10.301785048461243"><ele>1229.0</ele><time>2026-05-02T13:17:47Z</time></trkpt><trkpt lat="44.26922993395079" lon="10.30180177260287"><ele>1226.0</ele><time>2026-05-02T13:17:48Z</time></trkpt><trkpt lat="44.26910924031972" lon="10.301802818432561"><ele>1223.0</ele><time>2026-05-02T13:17:49Z</time></trkpt><trkpt lat="44.269004051674735" lon="10.301814025336112"><ele>1219.5</ele><time>2026-05-02T13:17:50Z</time></trkpt><trkpt lat="44.26890879593963" lon="10.30188060699445"><ele>1216.0</ele><time>2026-05-02T13:17:50.999Z</time></trkpt><trkpt lat="44.268827747076365" lon="10.302020296701574"><ele>1212.5</ele><time>2026-05-02T13:17:51.999Z</time></trkpt><trkpt lat="44.26877513752302" lon="10.302173123171526"><ele>1209.0</ele><time>2026-05-02T13:17:52.999Z</time></trkpt><trkpt lat="44.26876055056386" lon="10.302379184771343"><ele>1209.0</ele><time>2026-05-02T13:17:53.999Z</time></trkpt><trkpt lat="44.26876842288581" lon="10.30259824321791"><ele>1209.0</ele><time>2026-05-02T13:17:54.999Z</time></trkpt><trkpt lat="44.26876126292094" lon="10.302861553587622"><ele>1209.0</ele><time>2026-05-02T13:17:55.999Z</time></trkpt><trkpt lat="44.268755986076826" lon="10.303119483376541"><ele>1207.6666666666667</ele><time>2026-05-02T13:17:56.999Z</time></trkpt><trkpt lat="44.268739365915884" lon="10.303381256326224"><ele>1206.3333333333335</ele><time>2026-05-02T13:17:57.999Z</time></trkpt><trkpt lat="44.268725695182354" lon="10.303627099775493"><ele>1205.0</ele><time>2026-05-02T13:17:58.999Z</time></trkpt><trkpt lat="44.268717321929685" lon="10.303829372286714"><ele>1205.1666666666667</ele><time>2026-05-02T13:17:59.999Z</time></trkpt><trkpt lat="44.268709104597285" lon="10.303971461507068"><ele>1205.3333333333335</ele><time>2026-05-02T13:18:00.999Z</time></trkpt><trkpt lat="44.26868767420948" lon="10.30408993753778"><ele>1205.5</ele><time>2026-05-02T13:18:01.999Z</time></trkpt><trkpt lat="44.26864607760989" lon="10.304179140804475"><ele>1205.6666666666667</ele><time>2026-05-02T13:18:02.999Z</time></trkpt><trkpt lat="44.268579267391715" lon="10.304242420153326"><ele>1205.8333333333333</ele><time>2026-05-02T13:18:03.999Z</time></trkpt><trkpt lat="44.26848919103187" lon="10.30424703340734"><ele>1206.0</ele><time>2026-05-02T13:18:04.999Z</time></trkpt><trkpt lat="44.26840584391949" lon="10.304179418860864"><ele>1206.0</ele><time>2026-05-02T13:18:05.999Z</time></trkpt><trkpt lat="44.26835986546024" lon="10.304041131378431"><ele>1206.0</ele><time>2026-05-02T13:18:06.999Z</time></trkpt><trkpt lat="44.26830121990324" lon="10.303894908157222"><ele>1206.0</ele><time>2026-05-02T13:18:07.999Z</time></trkpt><trkpt lat="44.26822851605896" lon="10.303714748616002"><ele>1206.0</ele><time>2026-05-02T13:18:08.999Z</time></trkpt><trkpt lat="44.268155793095964" lon="10.30353327976899"><ele>1201.6666666666667</ele><time>2026-05-02T13:18:09.999Z</time></trkpt><trkpt lat="44.26807282989044" lon="10.303349590350848"><ele>1197.3333333333335</ele><time>2026-05-02T13:18:10.999Z</time></trkpt><trkpt lat="44.26798952608339" lon="10.30314633897448"><ele>1193.0</ele><time>2026-05-02T13:18:11.999Z</time></trkpt><trkpt lat="44.26790563383695" lon="10.302931919909957"><ele>1193.0</ele><time>2026-05-02T13:18:12.999Z</time></trkpt><trkpt lat="44.26782515463784" lon="10.302723750620304"><ele>1193.0</ele><time>2026-05-02T13:18:13.999Z</time></trkpt><trkpt lat="44.267763747656076" lon="10.302528487681771"><ele>1193.0</ele><time>2026-05-02T13:18:14.999Z</time></trkpt><trkpt lat="44.267761732848406" lon="10.302375831713762"><ele>1193.0</ele><time>2026-05-02T13:18:15.999Z</time></trkpt><trkpt lat="44.267786097337996" lon="10.302216444252513"><ele>1191.3333333333335</ele><time>2026-05-02T13:18:16.999Z</time></trkpt><trkpt lat="44.26784869225931" lon="10.302046770106054"><ele>1189.6666666666667</ele><time>2026-05-02T13:18:17.999Z</time></trkpt><trkpt lat="44.26793662156296" lon="10.301859077022113"><ele>1188.0</ele><time>2026-05-02T13:18:18.999Z</time></trkpt><trkpt lat="44.26802542070704" lon="10.30166785758206"><ele>1189.6666666666667</ele><time>2026-05-02T13:18:19.999Z</time></trkpt><trkpt lat="44.26811738967495" lon="10.301457385410213"><ele>1191.3333333333335</ele><time>2026-05-02T13:18:20.999Z</time></trkpt><trkpt lat="44.26820612760027" lon="10.301261234172118"><ele>1193.0</ele><time>2026-05-02T13:18:21.999Z</time></trkpt><trkpt lat="44.268297845411574" lon="10.301060688704334"><ele>1193.0</ele><time>2026-05-02T13:18:22.999Z</time></trkpt><trkpt lat="44.268408889399154" lon="10.300809834108271"><ele>1193.0</ele><time>2026-05-02T13:18:23.999Z</time></trkpt><trkpt lat="44.26850313511116" lon="10.300559309229447"><ele>1193.0</ele><time>2026-05-02T13:18:24.999Z</time></trkpt><trkpt lat="44.26850827354668" lon="10.300293472636714"><ele>1193.0</ele><time>2026-05-02T13:18:25.999Z</time></trkpt><trkpt lat="44.26847973801989" lon="10.300463011340497"><ele>1193.0</ele><time>2026-05-02T13:18:26.999Z</time></trkpt><trkpt lat="44.26845353993593" lon="10.300349938919798"><ele>1193.0</ele><time>2026-05-02T13:18:27.999Z</time></trkpt><trkpt lat="44.268390273811754" lon="10.30025749977253"><ele>1193.0</ele><time>2026-05-02T13:18:28.999Z</time></trkpt><trkpt lat="44.26829687384086" lon="10.300203699801552"><ele>1193.0</ele><time>2026-05-02T13:18:29.999Z</time></trkpt><trkpt lat="44.26818788443498" lon="10.300193035791823"><ele>1193.75</ele><time>2026-05-02T13:18:30.999Z</time></trkpt><trkpt lat="44.268077982427215" lon="10.300240237022237"><ele>1194.5</ele><time>2026-05-02T13:18:31.999Z</time></trkpt><trkpt lat="44.26795893454328" lon="10.300304176873931"><ele>1195.25</ele><time>2026-05-02T13:18:32.999Z</time></trkpt><trkpt lat="44.26782667248454" lon="10.300404936111558"><ele>1196.0</ele><time>2026-05-02T13:18:33.999Z</time></trkpt><trkpt lat="44.26768709454228" lon="10.300460658867074"><ele>1196.0</ele><time>2026-05-02T13:18:34.999Z</time></trkpt><trkpt lat="44.26752640881326" lon="10.300525722917953"><ele>1196.0</ele><time>2026-05-02T13:18:35.999Z</time></trkpt><trkpt lat="44.26736026336419" lon="10.300643967144687"><ele>1196.0</ele><time>2026-05-02T13:18:36.999Z</time></trkpt><trkpt lat="44.26720659483978" lon="10.300779825782852"><ele>1191.0</ele><time>2026-05-02T13:18:37.999Z</time></trkpt><trkpt lat="44.267055518164774" lon="10.300935134389118"><ele>1186.0</ele><time>2026-05-02T13:18:38.999Z</time></trkpt><trkpt lat="44.266895599711745" lon="10.301076226994475"><ele>1181.0</ele><time>2026-05-02T13:18:39.999Z</time></trkpt><trkpt lat="44.2667344971439" lon="10.301220157235065"><ele>1181.0</ele><time>2026-05-02T13:18:40.999Z</time></trkpt><trkpt lat="44.26656972703182" lon="10.301370278698544"><ele>1181.0</ele><time>2026-05-02T13:18:41.999Z</time></trkpt><trkpt lat="44.26639274655395" lon="10.301505217561811"><ele>1181.0</ele><time>2026-05-02T13:18:42.999Z</time></trkpt><trkpt lat="44.2662005399992" lon="10.301614090120905"><ele>1175.0</ele><time>2026-05-02T13:18:43.999Z</time></trkpt><trkpt lat="44.26600158591434" lon="10.30171816332728"><ele>1169.0</ele><time>2026-05-02T13:18:44.999Z</time></trkpt><trkpt lat="44.26580530858744" lon="10.301822060649968"><ele>1163.0</ele><time>2026-05-02T13:18:45.999Z</time></trkpt><trkpt lat="44.26561319130185" lon="10.301917643293447"><ele>1157.3333333333335</ele><time>2026-05-02T13:18:46.999Z</time></trkpt><trkpt lat="44.26543840180706" lon="10.302009286747827"><ele>1151.6666666666667</ele><time>2026-05-02T13:18:47.999Z</time></trkpt><trkpt lat="44.26528964657299" lon="10.30209553468205"><ele>1146.0</ele><time>2026-05-02T13:18:48.998Z</time></trkpt><trkpt lat="44.26514503760069" lon="10.302171573677489"><ele>1149.0</ele><time>2026-05-02T13:18:49.998Z</time></trkpt><trkpt lat="44.265043102007034" lon="10.302265397272445"><ele>1152.0</ele><time>2026-05-02T13:18:50.998Z</time></trkpt><trkpt lat="44.26493744969968" lon="10.302395430514954"><ele>1155.0</ele><time>2026-05-02T13:18:51.998Z</time></trkpt><trkpt lat="44.264857164763875" lon="10.30256628327782"><ele>1158.0</ele><time>2026-05-02T13:18:52.998Z</time></trkpt><trkpt lat="44.264797246158274" lon="10.302753219055878"><ele>1158.0</ele><time>2026-05-02T13:18:53.998Z</time></trkpt><trkpt lat="44.264803489404564" lon="10.302896382644226"><ele>1158.0</ele><time>2026-05-02T13:18:54.998Z</time></trkpt><trkpt lat="44.26483535274942" lon="10.303082411698187"><ele>1158.0</ele><time>2026-05-02T13:18:55.998Z</time></trkpt><trkpt lat="44.264890796484764" lon="10.303252129215128"><ele>1158.0</ele><time>2026-05-02T13:18:56.998Z</time></trkpt><trkpt lat="44.264927926660675" lon="10.303413387652894"><ele>1157.6666666666667</ele><time>2026-05-02T13:18:57.998Z</time></trkpt><trkpt lat="44.26495642102394" lon="10.303536604761074"><ele>1157.3333333333333</ele><time>2026-05-02T13:18:58.998Z</time></trkpt><trkpt lat="44.26496958249792" lon="10.303644938035267"><ele>1157.0</ele><time>2026-05-02T13:18:59.998Z</time></trkpt><trkpt lat="44.26492709711479" lon="10.303733382723317"><ele>1156.6666666666665</ele><time>2026-05-02T13:19:00.998Z</time></trkpt><trkpt lat="44.26485145289589" lon="10.303796819042283"><ele>1156.3333333333333</ele><time>2026-05-02T13:19:01.998Z</time></trkpt><trkpt lat="44.26474841574585" lon="10.303784730788681"><ele>1156.0</ele><time>2026-05-02T13:19:02.998Z</time></trkpt><trkpt lat="44.264653698758266" lon="10.303684074041907"><ele>1150.3333333333333</ele><time>2026-05-02T13:19:03.998Z</time></trkpt><trkpt lat="44.26454741294941" lon="10.303572303548396"><ele>1144.6666666666667</ele><time>2026-05-02T13:19:04.998Z</time></trkpt><trkpt lat="44.26441273122634" lon="10.303463036876305"><ele>1139.0</ele><time>2026-05-02T13:19:05.998Z</time></trkpt><trkpt lat="44.264279548616265" lon="10.303334945159433"><ele>1139.0</ele><time>2026-05-02T13:19:06.998Z</time></trkpt><trkpt lat="44.26415003122386" lon="10.303210881812147"><ele>1139.0</ele><time>2026-05-02T13:19:07.998Z</time></trkpt><trkpt lat="44.26403427764038" lon="10.3030711166411"><ele>1139.0</ele><time>2026-05-02T13:19:09Z</time></trkpt><trkpt lat="44.26395928035767" lon="10.302884378976986"><ele>1137.5</ele><time>2026-05-02T13:19:10Z</time></trkpt><trkpt lat="44.26387423557757" lon="10.302700125233924"><ele>1136.0</ele><time>2026-05-02T13:19:11Z</time></trkpt><trkpt lat="44.26381487434719" lon="10.30252014148319"><ele>1134.5</ele><time>2026-05-02T13:19:12Z</time></trkpt><trkpt lat="44.263760208988295" lon="10.302372244845778"><ele>1133.0</ele><time>2026-05-02T13:19:13Z</time></trkpt><trkpt lat="44.26369217411834" lon="10.302255139867443"><ele>1133.0</ele><time>2026-05-02T13:19:14Z</time></trkpt><trkpt lat="44.26360511270463" lon="10.302202198420932"><ele>1133.0</ele><time>2026-05-02T13:19:15Z</time></trkpt><trkpt lat="44.26350843141575" lon="10.302206129003045"><ele>1133.0</ele><time>2026-05-02T13:19:16Z</time></trkpt><trkpt lat="44.263411469319855" lon="10.302275016428174"><ele>1133.0</ele><time>2026-05-02T13:19:17Z</time></trkpt><trkpt lat="44.26331947416239" lon="10.302384021106722"><ele>1133.0</ele><time>2026-05-02T13:19:18Z</time></trkpt><trkpt lat="44.263230600124075" lon="10.302524254538787"><ele>1133.0</ele><time>2026-05-02T13:19:19Z</time></trkpt><trkpt lat="44.263166738554936" lon="10.30268407099346"><ele>1133.0</ele><time>2026-05-02T13:19:20Z</time></trkpt><trkpt lat="44.26312094439449" lon="10.30285929614816"><ele>1133.0</ele><time>2026-05-02T13:19:21Z</time></trkpt><trkpt lat="44.263112200002745" lon="10.303047942211265"><ele>1133.0</ele><time>2026-05-02T13:19:22Z</time></trkpt><trkpt lat="44.26310682441725" lon="10.303254283789267"><ele>1127.0</ele><time>2026-05-02T13:19:23Z</time></trkpt><trkpt lat="44.263103891215685" lon="10.303469405564403"><ele>1121.0</ele><time>2026-05-02T13:19:24Z</time></trkpt><trkpt lat="44.26308037312707" lon="10.303693699768989"><ele>1115.0</ele><time>2026-05-02T13:19:25Z</time></trkpt><trkpt lat="44.2630700273808" lon="10.30392436688157"><ele>1112.6666666666667</ele><time>2026-05-02T13:19:26Z</time></trkpt><trkpt lat="44.26305473234523" lon="10.304170847963745"><ele>1110.3333333333333</ele><time>2026-05-02T13:19:27Z</time></trkpt><trkpt lat="44.26303921068876" lon="10.30440677019409"><ele>1108.0</ele><time>2026-05-02T13:19:28Z</time></trkpt><trkpt lat="44.26301561597111" lon="10.304637274714885"><ele>1107.6666666666665</ele><time>2026-05-02T13:19:29Z</time></trkpt><trkpt lat="44.26297572632105" lon="10.304855432312793"><ele>1107.3333333333333</ele><time>2026-05-02T13:19:30Z</time></trkpt><trkpt lat="44.26291383895628" lon="10.305063673436246"><ele>1107.0</ele><time>2026-05-02T13:19:31Z</time></trkpt><trkpt lat="44.262830041102475" lon="10.305286767848756"><ele>1107.0</ele><time>2026-05-02T13:19:32Z</time></trkpt><trkpt lat="44.262740576891844" lon="10.305511155399076"><ele>1107.0</ele><time>2026-05-02T13:19:33Z</time></trkpt><trkpt lat="44.262651969732545" lon="10.30573735221516"><ele>1107.0</ele><time>2026-05-02T13:19:34Z</time></trkpt><trkpt lat="44.262580271737406" lon="10.305969252451295"><ele>1106.6666666666667</ele><time>2026-05-02T13:19:35Z</time></trkpt><trkpt lat="44.262493404573924" lon="10.3061957063954"><ele>1106.3333333333335</ele><time>2026-05-02T13:19:36Z</time></trkpt><trkpt lat="44.26240299158375" lon="10.306422264949896"><ele>1106.0</ele><time>2026-05-02T13:19:37Z</time></trkpt><trkpt lat="44.26230972727318" lon="10.306649605669874"><ele>1103.3333333333335</ele><time>2026-05-02T13:19:38Z</time></trkpt><trkpt lat="44.26222592334222" lon="10.306864511004976"><ele>1100.6666666666667</ele><time>2026-05-02T13:19:39Z</time></trkpt><trkpt lat="44.26214724089719" lon="10.307063415644858"><ele>1098.0</ele><time>2026-05-02T13:19:40Z</time></trkpt><trkpt lat="44.26208084831713" lon="10.307245257833284"><ele>1098.0</ele><time>2026-05-02T13:19:41Z</time></trkpt><trkpt lat="44.262018152017475" lon="10.307401982050209"><ele>1098.0</ele><time>2026-05-02T13:19:42Z</time></trkpt><trkpt lat="44.261925307659034" lon="10.307526615241345"><ele>1098.0</ele><time>2026-05-02T13:19:43Z</time></trkpt><trkpt lat="44.261808616009176" lon="10.307636301377823"><ele>1098.0</ele><time>2026-05-02T13:19:44Z</time></trkpt><trkpt lat="44.26167380947634" lon="10.30773817665126"><ele>1098.0</ele><time>2026-05-02T13:19:45Z</time></trkpt><trkpt lat="44.261504713132126" lon="10.307793089099597"><ele>1098.0</ele><time>2026-05-02T13:19:46Z</time></trkpt><trkpt lat="44.26133820763484" lon="10.307849203909749"><ele>1098.0</ele><time>2026-05-02T13:19:47Z</time></trkpt><trkpt lat="44.26118058299381" lon="10.307925360570422"><ele>1096.3333333333333</ele><time>2026-05-02T13:19:48Z</time></trkpt><trkpt lat="44.26104169396825" lon="10.30803896937753"><ele>1094.6666666666665</ele><time>2026-05-02T13:19:49Z</time></trkpt><trkpt lat="44.26089927094357" lon="10.308190368231926"><ele>1093.0</ele><time>2026-05-02T13:19:50Z</time></trkpt><trkpt lat="44.26075565174768" lon="10.308349956537132"><ele>1085.6666666666665</ele><time>2026-05-02T13:19:51Z</time></trkpt><trkpt lat="44.260608405195214" lon="10.308513544995863"><ele>1078.3333333333333</ele><time>2026-05-02T13:19:52Z</time></trkpt><trkpt lat="44.260460135559455" lon="10.308688440143086"><ele>1071.0</ele><time>2026-05-02T13:19:53Z</time></trkpt><trkpt lat="44.260325077524314" lon="10.30888216486313"><ele>1075.3333333333333</ele><time>2026-05-02T13:19:53.999Z</time></trkpt><trkpt lat="44.260197284940006" lon="10.30906647948131"><ele>1079.6666666666665</ele><time>2026-05-02T13:19:54.999Z</time></trkpt><trkpt lat="44.26007414387477" lon="10.309242485740484"><ele>1084.0</ele><time>2026-05-02T13:19:55.999Z</time></trkpt><trkpt lat="44.25991653049157" lon="10.309344775627057"><ele>1079.0</ele><time>2026-05-02T13:19:56.999Z</time></trkpt><trkpt lat="44.2597536097301" lon="10.309436144170395"><ele>1074.0</ele><time>2026-05-02T13:19:57.999Z</time></trkpt><trkpt lat="44.25960236501073" lon="10.309536314863948"><ele>1069.0</ele><time>2026-05-02T13:19:58.999Z</time></trkpt><trkpt lat="44.25944624215343" lon="10.30960283420287"><ele>1069.0</ele><time>2026-05-02T13:19:59.999Z</time></trkpt><trkpt lat="44.259288825910645" lon="10.3096367652396"><ele>1069.0</ele><time>2026-05-02T13:20:00.999Z</time></trkpt><trkpt lat="44.25911504850944" lon="10.309607267946424"><ele>1069.0</ele><time>2026-05-02T13:20:01.999Z</time></trkpt><trkpt lat="44.258951442405916" lon="10.30960327192908"><ele>1071.0</ele><time>2026-05-02T13:20:02.999Z</time></trkpt><trkpt lat="44.25880974185278" lon="10.30959027774296"><ele>1073.0</ele><time>2026-05-02T13:20:03.999Z</time></trkpt><trkpt lat="44.25867872580789" lon="10.309610558479807"><ele>1075.0</ele><time>2026-05-02T13:20:04.999Z</time></trkpt><trkpt lat="44.25854615717489" lon="10.309682111485577"><ele>1077.0</ele><time>2026-05-02T13:20:05.999Z</time></trkpt><trkpt lat="44.258413056164585" lon="10.309808730930158"><ele>1077.0</ele><time>2026-05-02T13:20:06.999Z</time></trkpt><trkpt lat="44.25826808064291" lon="10.309920133337886"><ele>1077.0</ele><time>2026-05-02T13:20:07.999Z</time></trkpt><trkpt lat="44.25812321928089" lon="10.31006338721586"><ele>1077.0</ele><time>2026-05-02T13:20:08.999Z</time></trkpt><trkpt lat="44.25796819816546" lon="10.31018543760793"><ele>1071.0</ele><time>2026-05-02T13:20:09.999Z</time></trkpt><trkpt lat="44.25780631237762" lon="10.310310537808556"><ele>1065.0</ele><time>2026-05-02T13:20:10.999Z</time></trkpt><trkpt lat="44.257647751901764" lon="10.310429421561402"><ele>1059.0</ele><time>2026-05-02T13:20:11.999Z</time></trkpt><trkpt lat="44.25748812563559" lon="10.310547852660553"><ele>1058.0</ele><time>2026-05-02T13:20:12.999Z</time></trkpt><trkpt lat="44.257331797704516" lon="10.310669661569927"><ele>1057.0</ele><time>2026-05-02T13:20:13.999Z</time></trkpt><trkpt lat="44.257188780409706" lon="10.310766209049529"><ele>1056.0</ele><time>2026-05-02T13:20:14.999Z</time></trkpt><trkpt lat="44.25704664567722" lon="10.310893770097435"><ele>1056.0</ele><time>2026-05-02T13:20:15.999Z</time></trkpt><trkpt lat="44.25692042736109" lon="10.311010955211728"><ele>1056.0</ele><time>2026-05-02T13:20:16.999Z</time></trkpt><trkpt lat="44.256793226331816" lon="10.311092295982098"><ele>1056.0</ele><time>2026-05-02T13:20:17.999Z</time></trkpt><trkpt lat="44.256676715492496" lon="10.311147042464567"><ele>1056.0</ele><time>2026-05-02T13:20:18.999Z</time></trkpt><trkpt lat="44.25655141319793" lon="10.31114474875196"><ele>1056.6666666666667</ele><time>2026-05-02T13:20:19.999Z</time></trkpt><trkpt lat="44.25642942349663" lon="10.3110227072193"><ele>1057.3333333333335</ele><time>2026-05-02T13:20:20.999Z</time></trkpt><trkpt lat="44.25627701585795" lon="10.310923539143987"><ele>1058.0</ele><time>2026-05-02T13:20:21.999Z</time></trkpt><trkpt lat="44.25611119870285" lon="10.310819759313121"><ele>1058.0</ele><time>2026-05-02T13:20:22.999Z</time></trkpt><trkpt lat="44.2559445780619" lon="10.310714343490643"><ele>1058.0</ele><time>2026-05-02T13:20:23.999Z</time></trkpt><trkpt lat="44.255774392749075" lon="10.310618499246123"><ele>1058.0</ele><time>2026-05-02T13:20:24.999Z</time></trkpt><trkpt lat="44.25561260266436" lon="10.310529817324767"><ele>1053.25</ele><time>2026-05-02T13:20:25.999Z</time></trkpt><trkpt lat="44.255464076496956" lon="10.310439102854351"><ele>1048.5</ele><time>2026-05-02T13:20:26.999Z</time></trkpt><trkpt lat="44.255340275591465" lon="10.310380765812024"><ele>1043.75</ele><time>2026-05-02T13:20:27.999Z</time></trkpt><trkpt lat="44.25521519511771" lon="10.310354435412048"><ele>1039.0</ele><time>2026-05-02T13:20:28.999Z</time></trkpt><trkpt lat="44.25507509362918" lon="10.310361775569097"><ele>1039.0</ele><time>2026-05-02T13:20:29.999Z</time></trkpt><trkpt lat="44.2549185110488" lon="10.31041706888604"><ele>1039.0</ele><time>2026-05-02T13:20:30.999Z</time></trkpt><trkpt lat="44.25475576867225" lon="10.310442247720422"><ele>1039.0</ele><time>2026-05-02T13:20:31.999Z</time></trkpt><trkpt lat="44.25460503866878" lon="10.310485679348606"><ele>1041.3333333333333</ele><time>2026-05-02T13:20:32.999Z</time></trkpt><trkpt lat="44.25445997385066" lon="10.310439049522543"><ele>1043.6666666666667</ele><time>2026-05-02T13:20:33.999Z</time></trkpt><trkpt lat="44.25430513399149" lon="10.310349958361973"><ele>1046.0</ele><time>2026-05-02T13:20:34.999Z</time></trkpt><trkpt lat="44.25416090319419" lon="10.310233761904492"><ele>1046.0</ele><time>2026-05-02T13:20:35.999Z</time></trkpt><trkpt lat="44.25403484059229" lon="10.310133179848966"><ele>1046.0</ele><time>2026-05-02T13:20:36.999Z</time></trkpt><trkpt lat="44.25392646235959" lon="10.31000809598186"><ele>1046.0</ele><time>2026-05-02T13:20:37.999Z</time></trkpt><trkpt lat="44.25383868932574" lon="10.309851034245197"><ele>1046.0</ele><time>2026-05-02T13:20:38.999Z</time></trkpt><trkpt lat="44.25376590908566" lon="10.309681468087929"><ele>1047.75</ele><time>2026-05-02T13:20:39.999Z</time></trkpt><trkpt lat="44.25372232295172" lon="10.309501942341015"><ele>1049.5</ele><time>2026-05-02T13:20:40.999Z</time></trkpt><trkpt lat="44.253747713734484" lon="10.309320728935669"><ele>1051.25</ele><time>2026-05-02T13:20:41.999Z</time></trkpt><trkpt lat="44.253796633198164" lon="10.309119521106565"><ele>1053.0</ele><time>2026-05-02T13:20:42.999Z</time></trkpt><trkpt lat="44.25385265635554" lon="10.308902445602664"><ele>1053.0</ele><time>2026-05-02T13:20:43.999Z</time></trkpt><trkpt lat="44.25390828595216" lon="10.308694018007792"><ele>1053.0</ele><time>2026-05-02T13:20:44.999Z</time></trkpt><trkpt lat="44.25394095153641" lon="10.30852183830363"><ele>1053.0</ele><time>2026-05-02T13:20:45.999Z</time></trkpt><trkpt lat="44.25393911941574" lon="10.308376274491199"><ele>1053.0</ele><time>2026-05-02T13:20:46.999Z</time></trkpt><trkpt lat="44.25390224267483" lon="10.308248250519085"><ele>1053.0</ele><time>2026-05-02T13:20:47.999Z</time></trkpt><trkpt lat="44.25382768576008" lon="10.308124579902648"><ele>1053.0</ele><time>2026-05-02T13:20:48.999Z</time></trkpt><trkpt lat="44.253725733067945" lon="10.308014932062726"><ele>1053.0</ele><time>2026-05-02T13:20:49.999Z</time></trkpt><trkpt lat="44.25360788053974" lon="10.307924056779848"><ele>1053.0</ele><time>2026-05-02T13:20:50.999Z</time></trkpt><trkpt lat="44.253495098756694" lon="10.307871588310515"><ele>1053.75</ele><time>2026-05-02T13:20:51.998Z</time></trkpt><trkpt lat="44.2533795029773" lon="10.30787245134441"><ele>1054.5</ele><time>2026-05-02T13:20:52.998Z</time></trkpt><trkpt lat="44.253261801968684" lon="10.307909533953483"><ele>1055.25</ele><time>2026-05-02T13:20:53.998Z</time></trkpt><trkpt lat="44.25314513568532" lon="10.307948801596446"><ele>1056.0</ele><time>2026-05-02T13:20:54.998Z</time></trkpt><trkpt lat="44.25303485160471" lon="10.30793293233981"><ele>1056.0</ele><time>2026-05-02T13:20:55.998Z</time></trkpt><trkpt lat="44.25294357355089" lon="10.307855663414623"><ele>1056.0</ele><time>2026-05-02T13:20:56.998Z</time></trkpt><trkpt lat="44.252874877220925" lon="10.307704039309392"><ele>1056.0</ele><time>2026-05-02T13:20:57.998Z</time></trkpt><trkpt lat="44.25282243545173" lon="10.307521448968618"><ele>1056.0</ele><time>2026-05-02T13:20:58.998Z</time></trkpt><trkpt lat="44.252753676364854" lon="10.307331537882451"><ele>1047.6666666666667</ele><time>2026-05-02T13:20:59.998Z</time></trkpt><trkpt lat="44.252629356602476" lon="10.307154606207375"><ele>1039.3333333333335</ele><time>2026-05-02T13:21:00.998Z</time></trkpt><trkpt lat="44.25249489660674" lon="10.306997870623965"><ele>1031.0</ele><time>2026-05-02T13:21:01.998Z</time></trkpt><trkpt lat="44.25236669772615" lon="10.306818344453115"><ele>1034.0</ele><time>2026-05-02T13:21:02.998Z</time></trkpt><trkpt lat="44.25223968035138" lon="10.306614298256422"><ele>1037.0</ele><time>2026-05-02T13:21:03.998Z</time></trkpt><trkpt lat="44.25212014724025" lon="10.306411301376583"><ele>1040.0</ele><time>2026-05-02T13:21:04.998Z</time></trkpt><trkpt lat="44.252000320657835" lon="10.306215335217853"><ele>1040.0</ele><time>2026-05-02T13:21:05.998Z</time></trkpt><trkpt lat="44.25187821800972" lon="10.306024266562511"><ele>1040.0</ele><time>2026-05-02T13:21:06.998Z</time></trkpt><trkpt lat="44.2517684084098" lon="10.305848621273359"><ele>1040.0</ele><time>2026-05-02T13:21:07.998Z</time></trkpt><trkpt lat="44.25166653793794" lon="10.305688835955294"><ele>1036.75</ele><time>2026-05-02T13:21:08.998Z</time></trkpt><trkpt lat="44.251555782787676" lon="10.305566878558796"><ele>1033.5</ele><time>2026-05-02T13:21:09.998Z</time></trkpt><trkpt lat="44.25143517031859" lon="10.305489659242701"><ele>1030.25</ele><time>2026-05-02T13:21:10.998Z</time></trkpt><trkpt lat="44.25128571052962" lon="10.305439355963342"><ele>1027.0</ele><time>2026-05-02T13:21:11.998Z</time></trkpt><trkpt lat="44.25110457746966" lon="10.305322133924745"><ele>1027.0</ele><time>2026-05-02T13:21:12.998Z</time></trkpt><trkpt lat="44.25096219856429" lon="10.305220286519726"><ele>1027.0</ele><time>2026-05-02T13:21:13.998Z</time></trkpt><trkpt lat="44.25083769201855" lon="10.305168537415863"><ele>1027.0</ele><time>2026-05-02T13:21:15Z</time></trkpt><trkpt lat="44.25071499669619" lon="10.305159865359967"><ele>1027.0</ele><time>2026-05-02T13:21:16Z</time></trkpt><trkpt lat="44.25057804026189" lon="10.305200875240876"><ele>1024.0</ele><time>2026-05-02T13:21:17Z</time></trkpt><trkpt lat="44.250432446834736" lon="10.305240391132072"><ele>1021.0</ele><time>2026-05-02T13:21:18Z</time></trkpt><trkpt lat="44.25028520056231" lon="10.305290025750937"><ele>1018.0</ele><time>2026-05-02T13:21:19Z</time></trkpt><trkpt lat="44.25013682714468" lon="10.30536588115755"><ele>1018.0</ele><time>2026-05-02T13:21:20Z</time></trkpt><trkpt lat="44.25000158438957" lon="10.305493575934236"><ele>1018.0</ele><time>2026-05-02T13:21:21Z</time></trkpt><trkpt lat="44.2498842215748" lon="10.305624429280446"><ele>1018.0</ele><time>2026-05-02T13:21:22Z</time></trkpt><trkpt lat="44.24976095103161" lon="10.305704456723143"><ele>1018.0</ele><time>2026-05-02T13:21:23Z</time></trkpt><trkpt lat="44.24963796568503" lon="10.305728653543147"><ele>1017.0</ele><time>2026-05-02T13:21:24Z</time></trkpt><trkpt lat="44.249511701300285" lon="10.305692557926116"><ele>1016.0</ele><time>2026-05-02T13:21:25Z</time></trkpt><trkpt lat="44.24939628634063" lon="10.305603556217033"><ele>1015.0</ele><time>2026-05-02T13:21:26Z</time></trkpt><trkpt lat="44.24926080985845" lon="10.305473660785113"><ele>1014.0</ele><time>2026-05-02T13:21:27Z</time></trkpt><trkpt lat="44.249114078681544" lon="10.30535274074605"><ele>1014.0</ele><time>2026-05-02T13:21:28Z</time></trkpt><trkpt lat="44.2489789845742" lon="10.305263456782619"><ele>1014.0</ele><time>2026-05-02T13:21:29Z</time></trkpt><trkpt lat="44.2488619435664" lon="10.305182151167475"><ele>1014.0</ele><time>2026-05-02T13:21:30Z</time></trkpt><trkpt lat="44.24874874719026" lon="10.305118367122438"><ele>1014.0</ele><time>2026-05-02T13:21:31Z</time></trkpt><trkpt lat="44.24862449946897" lon="10.305088663344431"><ele>1013.25</ele><time>2026-05-02T13:21:32Z</time></trkpt><trkpt lat="44.248491377407206" lon="10.305105921820008"><ele>1012.5</ele><time>2026-05-02T13:21:33Z</time></trkpt><trkpt lat="44.248357364423796" lon="10.305158734128803"><ele>1011.75</ele><time>2026-05-02T13:21:34Z</time></trkpt><trkpt lat="44.24822846883616" lon="10.305252562125915"><ele>1011.0</ele><time>2026-05-02T13:21:35Z</time></trkpt><trkpt lat="44.24807982083959" lon="10.305308508875848"><ele>1008.3333333333333</ele><time>2026-05-02T13:21:36Z</time></trkpt><trkpt lat="44.24791668808644" lon="10.305315457312838"><ele>1005.6666666666666</ele><time>2026-05-02T13:21:37Z</time></trkpt><trkpt lat="44.247743707526475" lon="10.305283441764175"><ele>1003.0</ele><time>2026-05-02T13:21:38Z</time></trkpt><trkpt lat="44.24758341384109" lon="10.305250151635216"><ele>1003.0</ele><time>2026-05-02T13:21:39Z</time></trkpt><trkpt lat="44.24745854538419" lon="10.305235633679665"><ele>1003.0</ele><time>2026-05-02T13:21:40Z</time></trkpt><trkpt lat="44.247347484285186" lon="10.305235828020898"><ele>1003.0</ele><time>2026-05-02T13:21:41Z</time></trkpt><trkpt lat="44.247230021025885" lon="10.305270761759305"><ele>1003.0</ele><time>2026-05-02T13:21:42Z</time></trkpt><trkpt lat="44.247116029673975" lon="10.30532175105048"><ele>1003.5</ele><time>2026-05-02T13:21:43Z</time></trkpt><trkpt lat="44.24700957955444" lon="10.305420531856637"><ele>1004.0</ele><time>2026-05-02T13:21:44Z</time></trkpt><trkpt lat="44.24692330948018" lon="10.30557664825377"><ele>1004.5</ele><time>2026-05-02T13:21:45Z</time></trkpt><trkpt lat="44.24687116636221" lon="10.305754957276218"><ele>1005.0</ele><time>2026-05-02T13:21:46Z</time></trkpt><trkpt lat="44.246872070995934" lon="10.305969295633313"><ele>1005.0</ele><time>2026-05-02T13:21:47Z</time></trkpt><trkpt lat="44.24686001723823" lon="10.306154934594314"><ele>1005.0</ele><time>2026-05-02T13:21:48Z</time></trkpt><trkpt lat="44.246840224675175" lon="10.306309859628357"><ele>1005.0</ele><time>2026-05-02T13:21:49Z</time></trkpt><trkpt lat="44.24679504938798" lon="10.306429356996745"><ele>1005.0</ele><time>2026-05-02T13:21:50Z</time></trkpt><trkpt lat="44.24671835001692" lon="10.306516526615168"><ele>1005.0</ele><time>2026-05-02T13:21:51Z</time></trkpt><trkpt lat="44.2466215659361" lon="10.30654539770093"><ele>1001.25</ele><time>2026-05-02T13:21:52Z</time></trkpt><trkpt lat="44.24651288696082" lon="10.30650902747768"><ele>997.5</ele><time>2026-05-02T13:21:52.999Z</time></trkpt><trkpt lat="44.24640024686245" lon="10.306420458941897"><ele>993.75</ele><time>2026-05-02T13:21:53.999Z</time></trkpt><trkpt lat="44.24629744584345" lon="10.306285102439483"><ele>990.0</ele><time>2026-05-02T13:21:54.999Z</time></trkpt><trkpt lat="44.24618291480413" lon="10.3061844976091"><ele>990.0</ele><time>2026-05-02T13:21:55.999Z</time></trkpt><trkpt lat="44.246045281823015" lon="10.306126642566493"><ele>990.0</ele><time>2026-05-02T13:21:56.999Z</time></trkpt><trkpt lat="44.245896284245504" lon="10.306108419104362"><ele>990.0</ele><time>2026-05-02T13:21:57.999Z</time></trkpt><trkpt lat="44.245745381401655" lon="10.30610439168503"><ele>990.0</ele><time>2026-05-02T13:21:58.999Z</time></trkpt><trkpt lat="44.24559565292223" lon="10.306125709056891"><ele>992.0</ele><time>2026-05-02T13:21:59.999Z</time></trkpt><trkpt lat="44.245461792634856" lon="10.306134391924633"><ele>994.0</ele><time>2026-05-02T13:22:00.999Z</time></trkpt><trkpt lat="44.245344001561705" lon="10.30608685788294"><ele>996.0</ele><time>2026-05-02T13:22:01.999Z</time></trkpt><trkpt lat="44.24524302451181" lon="10.305985138817489"><ele>998.0</ele><time>2026-05-02T13:22:02.999Z</time></trkpt><trkpt lat="44.24516357013335" lon="10.305835416027186"><ele>998.0</ele><time>2026-05-02T13:22:03.999Z</time></trkpt><trkpt lat="44.2450803046435" lon="10.305716017233818"><ele>998.0</ele><time>2026-05-02T13:22:04.999Z</time></trkpt><trkpt lat="44.24497617586502" lon="10.30566841653672"><ele>998.0</ele><time>2026-05-02T13:22:05.999Z</time></trkpt><trkpt lat="44.24485372175774" lon="10.305692353084101"><ele>998.0</ele><time>2026-05-02T13:22:06.999Z</time></trkpt><trkpt lat="44.24476223680002" lon="10.305761196321821"><ele>997.4</ele><time>2026-05-02T13:22:07.999Z</time></trkpt><trkpt lat="44.24468142138232" lon="10.305884117296497"><ele>996.8</ele><time>2026-05-02T13:22:08.999Z</time></trkpt><trkpt lat="44.244635808254" lon="10.306030016127155"><ele>996.2</ele><time>2026-05-02T13:22:09.999Z</time></trkpt><trkpt lat="44.24461282115679" lon="10.306152745076728"><ele>995.6</ele><time>2026-05-02T13:22:10.999Z</time></trkpt><trkpt lat="44.24454217109213" lon="10.306229658315994"><ele>995.0</ele><time>2026-05-02T13:22:11.999Z</time></trkpt><trkpt lat="44.24445087521354" lon="10.306233500289927"><ele>995.0</ele><time>2026-05-02T13:22:12.999Z</time></trkpt><trkpt lat="44.244351449305036" lon="10.306170158184273"><ele>995.0</ele><time>2026-05-02T13:22:13.999Z</time></trkpt><trkpt lat="44.24424671677598" lon="10.306056336808028"><ele>995.0</ele><time>2026-05-02T13:22:14.999Z</time></trkpt><trkpt lat="44.24414372259028" lon="10.305923905909424"><ele>995.0</ele><time>2026-05-02T13:22:15.999Z</time></trkpt><trkpt lat="44.24405055526273" lon="10.305845508748638"><ele>995.5</ele><time>2026-05-02T13:22:16.999Z</time></trkpt><trkpt lat="44.24393083999658" lon="10.305778400248345"><ele>996.0</ele><time>2026-05-02T13:22:17.999Z</time></trkpt><trkpt lat="44.24381193097731" lon="10.305763933676921"><ele>996.5</ele><time>2026-05-02T13:22:18.999Z</time></trkpt><trkpt lat="44.24371335852155" lon="10.305832345445705"><ele>997.0</ele><time>2026-05-02T13:22:19.999Z</time></trkpt><trkpt lat="44.24362198342849" lon="10.30590260259247"><ele>997.0</ele><time>2026-05-02T13:22:20.999Z</time></trkpt><trkpt lat="44.243525426885945" lon="10.305975699390796"><ele>997.0</ele><time>2026-05-02T13:22:21.999Z</time></trkpt><trkpt lat="44.24345144660307" lon="10.30602678982184"><ele>997.0</ele><time>2026-05-02T13:22:22.999Z</time></trkpt><trkpt lat="44.24337796065318" lon="10.306005303881765"><ele>997.0</ele><time>2026-05-02T13:22:23.999Z</time></trkpt><trkpt lat="44.2433356257969" lon="10.305873083761394"><ele>997.0</ele><time>2026-05-02T13:22:24.999Z</time></trkpt><trkpt lat="44.24330874413331" lon="10.305748879479557"><ele>997.0</ele><time>2026-05-02T13:22:25.999Z</time></trkpt><trkpt lat="44.243334749783344" lon="10.305630534395636"><ele>997.0</ele><time>2026-05-02T13:22:26.999Z</time></trkpt><trkpt lat="44.243383628193506" lon="10.305484398396096"><ele>997.0</ele><time>2026-05-02T13:22:27.999Z</time></trkpt><trkpt lat="44.243431327621295" lon="10.305301330491236"><ele>997.0</ele><time>2026-05-02T13:22:28.999Z</time></trkpt><trkpt lat="44.243478257403915" lon="10.305119341903783"><ele>994.0</ele><time>2026-05-02T13:22:29.999Z</time></trkpt><trkpt lat="44.243519830252126" lon="10.30493444780517"><ele>991.0</ele><time>2026-05-02T13:22:30.999Z</time></trkpt><trkpt lat="44.24353454013375" lon="10.304749168031044"><ele>988.0</ele><time>2026-05-02T13:22:31.999Z</time></trkpt><trkpt lat="44.24354262113795" lon="10.304541907835906"><ele>985.0</ele><time>2026-05-02T13:22:32.999Z</time></trkpt><trkpt lat="44.24352490528411" lon="10.304320928020802"><ele>983.0</ele><time>2026-05-02T13:22:33.999Z</time></trkpt><trkpt lat="44.24350665255462" lon="10.304112893023428"><ele>981.0</ele><time>2026-05-02T13:22:34.999Z</time></trkpt><trkpt lat="44.243494140794674" lon="10.303912948719942"><ele>979.0</ele><time>2026-05-02T13:22:35.999Z</time></trkpt><trkpt lat="44.24347082481805" lon="10.30373692061114"><ele>977.0</ele><time>2026-05-02T13:22:36.999Z</time></trkpt><trkpt lat="44.24338874068187" lon="10.303605273808264"><ele>972.75</ele><time>2026-05-02T13:22:37.999Z</time></trkpt><trkpt lat="44.24329054013668" lon="10.303464115972027"><ele>968.5</ele><time>2026-05-02T13:22:38.999Z</time></trkpt><trkpt lat="44.243181783454524" lon="10.303354937769836"><ele>964.25</ele><time>2026-05-02T13:22:39.999Z</time></trkpt><trkpt lat="44.24305315698765" lon="10.303302429265301"><ele>960.0</ele><time>2026-05-02T13:22:40.999Z</time></trkpt><trkpt lat="44.24292297065413" lon="10.303306742109335"><ele>960.0</ele><time>2026-05-02T13:22:41.999Z</time></trkpt><trkpt lat="44.24276245757091" lon="10.303327899392968"><ele>960.0</ele><time>2026-05-02T13:22:42.999Z</time></trkpt><trkpt lat="44.24259216818503" lon="10.303341560938108"><ele>960.0</ele><time>2026-05-02T13:22:43.999Z</time></trkpt><trkpt lat="44.24241844042403" lon="10.303381735599773"><ele>954.3333333333333</ele><time>2026-05-02T13:22:44.999Z</time></trkpt><trkpt lat="44.24224539647156" lon="10.303422362849568"><ele>948.6666666666666</ele><time>2026-05-02T13:22:45.999Z</time></trkpt><trkpt lat="44.242077166434775" lon="10.303496472283797"><ele>943.0</ele><time>2026-05-02T13:22:46.999Z</time></trkpt><trkpt lat="44.24190143521387" lon="10.303656110834877"><ele>943.0</ele><time>2026-05-02T13:22:47.999Z</time></trkpt><trkpt lat="44.24174173864417" lon="10.303750473187192"><ele>943.0</ele><time>2026-05-02T13:22:48.999Z</time></trkpt><trkpt lat="44.24157995430676" lon="10.303835740128568"><ele>943.0</ele><time>2026-05-02T13:22:49.998Z</time></trkpt><trkpt lat="44.24141825514981" lon="10.303869344192753"><ele>939.3333333333333</ele><time>2026-05-02T13:22:50.998Z</time></trkpt><trkpt lat="44.24125508491356" lon="10.30386037219161"><ele>935.6666666666667</ele><time>2026-05-02T13:22:51.998Z</time></trkpt><trkpt lat="44.241072068294294" lon="10.303842165498045"><ele>932.0</ele><time>2026-05-02T13:22:52.998Z</time></trkpt><trkpt lat="44.24089143453703" lon="10.303837176632024"><ele>932.0</ele><time>2026-05-02T13:22:53.998Z</time></trkpt><trkpt lat="44.24071323966556" lon="10.303794252331594"><ele>932.0</ele><time>2026-05-02T13:22:54.998Z</time></trkpt><trkpt lat="44.240538871742814" lon="10.303776450636732"><ele>932.0</ele><time>2026-05-02T13:22:55.998Z</time></trkpt><trkpt lat="44.24036854443127" lon="10.303750889482956"><ele>930.0</ele><time>2026-05-02T13:22:56.998Z</time></trkpt><trkpt lat="44.240206641491575" lon="10.30371935652152"><ele>928.0</ele><time>2026-05-02T13:22:57.998Z</time></trkpt><trkpt lat="44.24005915632109" lon="10.30368783147521"><ele>926.0</ele><time>2026-05-02T13:22:58.998Z</time></trkpt><trkpt lat="44.23990475334358" lon="10.303694889497034"><ele>923.5</ele><time>2026-05-02T13:22:59.998Z</time></trkpt><trkpt lat="44.239761886585704" lon="10.30374657961824"><ele>921.0</ele><time>2026-05-02T13:23:00.998Z</time></trkpt><trkpt lat="44.23964317196905" lon="10.303795380351358"><ele>918.5</ele><time>2026-05-02T13:23:01.998Z</time></trkpt><trkpt lat="44.23954627763474" lon="10.303850572590768"><ele>916.0</ele><time>2026-05-02T13:23:02.998Z</time></trkpt><trkpt lat="44.23947169991459" lon="10.303955501774311"><ele>916.0</ele><time>2026-05-02T13:23:03.998Z</time></trkpt><trkpt lat="44.239421077184964" lon="10.304116544209391"><ele>916.0</ele><time>2026-05-02T13:23:04.998Z</time></trkpt><trkpt lat="44.23936619521186" lon="10.304324259963488"><ele>916.0</ele><time>2026-05-02T13:23:05.998Z</time></trkpt><trkpt lat="44.2393045120471" lon="10.30454542446488"><ele>920.0</ele><time>2026-05-02T13:23:06.998Z</time></trkpt><trkpt lat="44.23923216500958" lon="10.304754973702565"><ele>924.0</ele><time>2026-05-02T13:23:07.998Z</time></trkpt><trkpt lat="44.23912971182651" lon="10.304925337661244"><ele>928.0</ele><time>2026-05-02T13:23:08.998Z</time></trkpt><trkpt lat="44.23905281821558" lon="10.305112081047303"><ele>928.0</ele><time>2026-05-02T13:23:09.998Z</time></trkpt><trkpt lat="44.238973930104216" lon="10.305246425992891"><ele>928.0</ele><time>2026-05-02T13:23:10.998Z</time></trkpt><trkpt lat="44.2389186133228" lon="10.305361576460239"><ele>928.0</ele><time>2026-05-02T13:23:11.998Z</time></trkpt><trkpt lat="44.238890131621204" lon="10.30549735264392"><ele>928.0</ele><time>2026-05-02T13:23:12.998Z</time></trkpt><trkpt lat="44.238900393085714" lon="10.305653044157584"><ele>928.0</ele><time>2026-05-02T13:23:13.998Z</time></trkpt><trkpt lat="44.23895238852858" lon="10.305795635175125"><ele>930.0</ele><time>2026-05-02T13:23:14.998Z</time></trkpt><trkpt lat="44.23902400976857" lon="10.30591879553247"><ele>932.0</ele><time>2026-05-02T13:23:15.998Z</time></trkpt><trkpt lat="44.23905686434045" lon="10.30604085416522"><ele>934.0</ele><time>2026-05-02T13:23:16.998Z</time></trkpt><trkpt lat="44.23907134053541" lon="10.306157116046586"><ele>936.0</ele><time>2026-05-02T13:23:17.998Z</time></trkpt><trkpt lat="44.239028779229166" lon="10.3062708773586"><ele>938.0</ele><time>2026-05-02T13:23:18.998Z</time></trkpt><trkpt lat="44.238966864139435" lon="10.306359725823905"><ele>933.0</ele><time>2026-05-02T13:23:20Z</time></trkpt><trkpt lat="44.238857289038215" lon="10.306333336283805"><ele>928.0</ele><time>2026-05-02T13:23:21Z</time></trkpt><trkpt lat="44.238746310640565" lon="10.306289296375763"><ele>923.0</ele><time>2026-05-02T13:23:22Z</time></trkpt><trkpt lat="44.23860170194299" lon="10.306247070119923"><ele>918.0</ele><time>2026-05-02T13:23:23Z</time></trkpt><trkpt lat="44.238468014333826" lon="10.306149265562329"><ele>918.0</ele><time>2026-05-02T13:23:24Z</time></trkpt><trkpt lat="44.23834106172873" lon="10.306020659050963"><ele>918.0</ele><time>2026-05-02T13:23:25Z</time></trkpt><trkpt lat="44.23819838221756" lon="10.305873213776362"><ele>918.0</ele><time>2026-05-02T13:23:26Z</time></trkpt><trkpt lat="44.23807042581316" lon="10.305736893771591"><ele>919.5</ele><time>2026-05-02T13:23:27Z</time></trkpt><trkpt lat="44.237951727226175" lon="10.305616980083672"><ele>921.0</ele><time>2026-05-02T13:23:28Z</time></trkpt><trkpt lat="44.237832828560144" lon="10.305532335254911"><ele>922.5</ele><time>2026-05-02T13:23:29Z</time></trkpt><trkpt lat="44.23768394855973" lon="10.30549494018383"><ele>924.0</ele><time>2026-05-02T13:23:30Z</time></trkpt><trkpt lat="44.23752083570056" lon="10.30546624883533"><ele>916.0</ele><time>2026-05-02T13:23:31Z</time></trkpt><trkpt lat="44.237346904506474" lon="10.30542783352405"><ele>908.0</ele><time>2026-05-02T13:23:32Z</time></trkpt><trkpt lat="44.237173339562574" lon="10.305378863482213"><ele>900.0</ele><time>2026-05-02T13:23:33Z</time></trkpt><trkpt lat="44.236994368888574" lon="10.305326639053796"><ele>898.0</ele><time>2026-05-02T13:23:34Z</time></trkpt><trkpt lat="44.23682435104001" lon="10.305277058527418"><ele>896.0</ele><time>2026-05-02T13:23:35Z</time></trkpt><trkpt lat="44.2366632527759" lon="10.305233124363038"><ele>894.0</ele><time>2026-05-02T13:23:36Z</time></trkpt><trkpt lat="44.23653572857275" lon="10.305205175090851"><ele>890.0</ele><time>2026-05-02T13:23:37Z</time></trkpt><trkpt lat="44.23642908609956" lon="10.305197948672527"><ele>886.0</ele><time>2026-05-02T13:23:38Z</time></trkpt><trkpt lat="44.23632605792666" lon="10.305241116905412"><ele>882.0</ele><time>2026-05-02T13:23:39Z</time></trkpt><trkpt lat="44.23622486027247" lon="10.305335094007653"><ele>878.0</ele><time>2026-05-02T13:23:40Z</time></trkpt><trkpt lat="44.23613016330619" lon="10.305481463910393"><ele>883.0</ele><time>2026-05-02T13:23:41Z</time></trkpt><trkpt lat="44.236048940180446" lon="10.305648627635886"><ele>888.0</ele><time>2026-05-02T13:23:42Z</time></trkpt><trkpt lat="44.23597696024898" lon="10.30579996428971"><ele>893.0</ele><time>2026-05-02T13:23:43Z</time></trkpt><trkpt lat="44.23587739739934" lon="10.305898722062517"><ele>898.0</ele><time>2026-05-02T13:23:44Z</time></trkpt><trkpt lat="44.2357740220933" lon="10.30596845900441"><ele>898.0</ele><time>2026-05-02T13:23:45Z</time></trkpt><trkpt lat="44.2356487375792" lon="10.305956904019956"><ele>898.0</ele><time>2026-05-02T13:23:46Z</time></trkpt><trkpt lat="44.23550295731399" lon="10.30592041416202"><ele>898.0</ele><time>2026-05-02T13:23:47Z</time></trkpt><trkpt lat="44.23532030126177" lon="10.305898179680621"><ele>896.3333333333333</ele><time>2026-05-02T13:23:48Z</time></trkpt><trkpt lat="44.23514582859187" lon="10.305840016019419"><ele>894.6666666666667</ele><time>2026-05-02T13:23:49Z</time></trkpt><trkpt lat="44.234952750602694" lon="10.305791443308411"><ele>893.0</ele><time>2026-05-02T13:23:50Z</time></trkpt><trkpt lat="44.23476235563804" lon="10.30574739858799"><ele>889.6666666666667</ele><time>2026-05-02T13:23:51Z</time></trkpt><trkpt lat="44.23458350376226" lon="10.305703901355411"><ele>886.3333333333333</ele><time>2026-05-02T13:23:52Z</time></trkpt><trkpt lat="44.23442191320304" lon="10.305670812834647"><ele>883.0</ele><time>2026-05-02T13:23:53Z</time></trkpt><trkpt lat="44.23428721141822" lon="10.30564887548452"><ele>883.0</ele><time>2026-05-02T13:23:54Z</time></trkpt><trkpt lat="44.23414507876026" lon="10.305674841126448"><ele>883.0</ele><time>2026-05-02T13:23:55Z</time></trkpt><trkpt lat="44.23399732461779" lon="10.305757665702933"><ele>883.0</ele><time>2026-05-02T13:23:56Z</time></trkpt><trkpt lat="44.23385077434366" lon="10.305794962844733"><ele>877.5</ele><time>2026-05-02T13:23:56.999Z</time></trkpt><trkpt lat="44.23369855485587" lon="10.305782867924341"><ele>872.0</ele><time>2026-05-02T13:23:57.999Z</time></trkpt><trkpt lat="44.23357348750761" lon="10.305822906169869"><ele>866.5</ele><time>2026-05-02T13:23:58.999Z</time></trkpt><trkpt lat="44.23344643638251" lon="10.30587941824105"><ele>861.0</ele><time>2026-05-02T13:23:59.999Z</time></trkpt><trkpt lat="44.233345737205376" lon="10.3059987281602"><ele>861.0</ele><time>2026-05-02T13:24:00.999Z</time></trkpt><trkpt lat="44.23327528893689" lon="10.306157854405518"><ele>861.0</ele><time>2026-05-02T13:24:01.999Z</time></trkpt><trkpt lat="44.23324237850508" lon="10.306348193760178"><ele>861.0</ele><time>2026-05-02T13:24:02.999Z</time></trkpt><trkpt lat="44.2332239325853" lon="10.306556483792775"><ele>861.0</ele><time>2026-05-02T13:24:03.999Z</time></trkpt><trkpt lat="44.23322104594268" lon="10.306763227409201"><ele>864.5999999999999</ele><time>2026-05-02T13:24:04.999Z</time></trkpt><trkpt lat="44.23320043750364" lon="10.306933746025411"><ele>868.1999999999999</ele><time>2026-05-02T13:24:05.999Z</time></trkpt><trkpt lat="44.23317033425815" lon="10.307070581714976"><ele>871.8000000000001</ele><time>2026-05-02T13:24:06.999Z</time></trkpt><trkpt lat="44.23309962366726" lon="10.307146180339558"><ele>875.4000000000001</ele><time>2026-05-02T13:24:07.999Z</time></trkpt><trkpt lat="44.23304350846508" lon="10.307192679092326"><ele>879.0</ele><time>2026-05-02T13:24:08.999Z</time></trkpt><trkpt lat="44.232967413084545" lon="10.307137095958055"><ele>879.0</ele><time>2026-05-02T13:24:09.999Z</time></trkpt><trkpt lat="44.2329158611725" lon="10.307004909666947"><ele>879.0</ele><time>2026-05-02T13:24:10.999Z</time></trkpt><trkpt lat="44.232864648391846" lon="10.306860916389237"><ele>879.0</ele><time>2026-05-02T13:24:11.999Z</time></trkpt><trkpt lat="44.23279905602259" lon="10.306676445245147"><ele>879.0</ele><time>2026-05-02T13:24:12.999Z</time></trkpt><trkpt lat="44.23274578809466" lon="10.306460695134707"><ele>870.0</ele><time>2026-05-02T13:24:13.999Z</time></trkpt><trkpt lat="44.232662881393225" lon="10.306283101273541"><ele>861.0</ele><time>2026-05-02T13:24:14.999Z</time></trkpt><trkpt lat="44.23254620333348" lon="10.30614763786417"><ele>852.0</ele><time>2026-05-02T13:24:15.999Z</time></trkpt><trkpt lat="44.23239191460829" lon="10.306035977424447"><ele>859.6666666666667</ele><time>2026-05-02T13:24:16.999Z</time></trkpt><trkpt lat="44.23223429990536" lon="10.305921302588693"><ele>867.3333333333334</ele><time>2026-05-02T13:24:17.999Z</time></trkpt><trkpt lat="44.2320828059383" lon="10.3057922359809"><ele>875.0</ele><time>2026-05-02T13:24:18.999Z</time></trkpt><trkpt lat="44.23194759864168" lon="10.305647785601932"><ele>867.25</ele><time>2026-05-02T13:24:19.999Z</time></trkpt><trkpt lat="44.23186662662763" lon="10.30546213829891"><ele>859.5</ele><time>2026-05-02T13:24:20.999Z</time></trkpt><trkpt lat="44.23181258870023" lon="10.30528878691231"><ele>851.75</ele><time>2026-05-02T13:24:21.999Z</time></trkpt><trkpt lat="44.23175263046214" lon="10.305141773726659"><ele>844.0</ele><time>2026-05-02T13:24:22.999Z</time></trkpt><trkpt lat="44.2316785329529" lon="10.305018283563802"><ele>844.0</ele><time>2026-05-02T13:24:23.999Z</time></trkpt><trkpt lat="44.23155827047771" lon="10.304931521091417"><ele>844.0</ele><time>2026-05-02T13:24:24.999Z</time></trkpt><trkpt lat="44.231413714693595" lon="10.304874837430155"><ele>844.0</ele><time>2026-05-02T13:24:25.999Z</time></trkpt><trkpt lat="44.231288554573574" lon="10.304825961214451"><ele>844.0</ele><time>2026-05-02T13:24:26.999Z</time></trkpt><trkpt lat="44.231184990118564" lon="10.3047990796619"><ele>846.25</ele><time>2026-05-02T13:24:27.999Z</time></trkpt><trkpt lat="44.231085873357785" lon="10.304852656189475"><ele>848.5</ele><time>2026-05-02T13:24:28.999Z</time></trkpt><trkpt lat="44.23100577785805" lon="10.304968690844385"><ele>850.75</ele><time>2026-05-02T13:24:29.999Z</time></trkpt><trkpt lat="44.23093263875645" lon="10.305132668458912"><ele>853.0</ele><time>2026-05-02T13:24:30.999Z</time></trkpt><trkpt lat="44.23084722266231" lon="10.305255351560424"><ele>853.0</ele><time>2026-05-02T13:24:31.999Z</time></trkpt><trkpt lat="44.23075044483929" lon="10.305300709629803"><ele>853.0</ele><time>2026-05-02T13:24:32.999Z</time></trkpt><trkpt lat="44.23065525104704" lon="10.305225051909968"><ele>853.0</ele><time>2026-05-02T13:24:33.999Z</time></trkpt><trkpt lat="44.230569352342876" lon="10.305128567431018"><ele>853.0</ele><time>2026-05-02T13:24:34.999Z</time></trkpt><trkpt lat="44.23051336516869" lon="10.304936305113985"><ele>848.6666666666666</ele><time>2026-05-02T13:24:35.999Z</time></trkpt><trkpt lat="44.23046162324603" lon="10.30471987703934"><ele>844.3333333333333</ele><time>2026-05-02T13:24:36.999Z</time></trkpt><trkpt lat="44.23039791770197" lon="10.304480967260524"><ele>840.0</ele><time>2026-05-02T13:24:37.999Z</time></trkpt><trkpt lat="44.23032987326553" lon="10.304250902537028"><ele>840.0</ele><time>2026-05-02T13:24:38.999Z</time></trkpt><trkpt lat="44.23026911339366" lon="10.30403572591348"><ele>840.0</ele><time>2026-05-02T13:24:39.999Z</time></trkpt><trkpt lat="44.23020249654819" lon="10.303899076796649"><ele>840.0</ele><time>2026-05-02T13:24:40.999Z</time></trkpt><trkpt lat="44.23013365410564" lon="10.303798745171202"><ele>840.0</ele><time>2026-05-02T13:24:41.999Z</time></trkpt><trkpt lat="44.2300098129368" lon="10.303706217303075"><ele>834.3333333333333</ele><time>2026-05-02T13:24:42.999Z</time></trkpt><trkpt lat="44.229852312631174" lon="10.303672841495352"><ele>828.6666666666666</ele><time>2026-05-02T13:24:43.999Z</time></trkpt><trkpt lat="44.22968287419418" lon="10.30361823180397"><ele>823.0</ele><time>2026-05-02T13:24:44.999Z</time></trkpt><trkpt lat="44.229519475000075" lon="10.303530657411969"><ele>823.0</ele><time>2026-05-02T13:24:45.999Z</time></trkpt><trkpt lat="44.22935883112832" lon="10.303486201423146"><ele>823.0</ele><time>2026-05-02T13:24:46.999Z</time></trkpt><trkpt lat="44.22921491539933" lon="10.303423801303822"><ele>823.0</ele><time>2026-05-02T13:24:47.999Z</time></trkpt><trkpt lat="44.22906113065141" lon="10.303400919692736"><ele>822.3333333333333</ele><time>2026-05-02T13:24:48.999Z</time></trkpt><trkpt lat="44.228890163726724" lon="10.30342034043721"><ele>821.6666666666667</ele><time>2026-05-02T13:24:49.999Z</time></trkpt><trkpt lat="44.22871680491429" lon="10.303452053489771"><ele>821.0</ele><time>2026-05-02T13:24:50.999Z</time></trkpt><trkpt lat="44.22854403926485" lon="10.30348242369205"><ele>821.0</ele><time>2026-05-02T13:24:51.999Z</time></trkpt><trkpt lat="44.228395323675194" lon="10.303496058536567"><ele>821.0</ele><time>2026-05-02T13:24:52.999Z</time></trkpt><trkpt lat="44.228253000606436" lon="10.303403698767172"><ele>821.0</ele><time>2026-05-02T13:24:53.999Z</time></trkpt><trkpt lat="44.228102494145865" lon="10.303317174876803"><ele>820.3333333333334</ele><time>2026-05-02T13:24:54.999Z</time></trkpt><trkpt lat="44.22793467628891" lon="10.303241973795245"><ele>819.6666666666667</ele><time>2026-05-02T13:24:55.998Z</time></trkpt><trkpt lat="44.22776420399675" lon="10.30316082702956"><ele>819.0</ele><time>2026-05-02T13:24:56.998Z</time></trkpt><trkpt lat="44.227591395049494" lon="10.303113460050302"><ele>815.0</ele><time>2026-05-02T13:24:57.998Z</time></trkpt><trkpt lat="44.227428767778314" lon="10.303072710890177"><ele>811.0</ele><time>2026-05-02T13:24:58.998Z</time></trkpt><trkpt lat="44.227295391026686" lon="10.303044651690142"><ele>807.0</ele><time>2026-05-02T13:24:59.998Z</time></trkpt><trkpt lat="44.22718438556406" lon="10.303035861271802"><ele>803.0</ele><time>2026-05-02T13:25:00.998Z</time></trkpt><trkpt lat="44.22707869679598" lon="10.303092664870665"><ele>803.0</ele><time>2026-05-02T13:25:01.998Z</time></trkpt><trkpt lat="44.22697522785215" lon="10.303188903976796"><ele>803.0</ele><time>2026-05-02T13:25:02.998Z</time></trkpt><trkpt lat="44.22688514625566" lon="10.303338421098353"><ele>803.0</ele><time>2026-05-02T13:25:03.998Z</time></trkpt><trkpt lat="44.2267776304724" lon="10.3034039600207"><ele>803.0</ele><time>2026-05-02T13:25:04.998Z</time></trkpt><trkpt lat="44.22667756426022" lon="10.303400465825389"><ele>803.0</ele><time>2026-05-02T13:25:05.998Z</time></trkpt><trkpt lat="44.22657422226238" lon="10.303307365039128"><ele>803.0</ele><time>2026-05-02T13:25:06.998Z</time></trkpt><trkpt lat="44.22642572936384" lon="10.303224990441727"><ele>803.0</ele><time>2026-05-02T13:25:07.998Z</time></trkpt><trkpt lat="44.22628131949149" lon="10.303111572610163"><ele>803.0</ele><time>2026-05-02T13:25:08.998Z</time></trkpt><trkpt lat="44.22613936074407" lon="10.30302189595716"><ele>797.5</ele><time>2026-05-02T13:25:09.998Z</time></trkpt><trkpt lat="44.22601484626177" lon="10.302961304730454"><ele>792.0</ele><time>2026-05-02T13:25:10.998Z</time></trkpt><trkpt lat="44.22588895976825" lon="10.302955098855959"><ele>786.5</ele><time>2026-05-02T13:25:11.998Z</time></trkpt><trkpt lat="44.22573058045834" lon="10.302991140529373"><ele>781.0</ele><time>2026-05-02T13:25:12.998Z</time></trkpt><trkpt lat="44.225560947915206" lon="10.30305370363259"><ele>780.3333333333333</ele><time>2026-05-02T13:25:13.998Z</time></trkpt><trkpt lat="44.22538793633702" lon="10.30308669061831"><ele>779.6666666666667</ele><time>2026-05-02T13:25:14.998Z</time></trkpt><trkpt lat="44.22521078016058" lon="10.303025703335342"><ele>779.0</ele><time>2026-05-02T13:25:15.998Z</time></trkpt><trkpt lat="44.2250218039721" lon="10.302969859628483"><ele>779.0</ele><time>2026-05-02T13:25:16.998Z</time></trkpt><trkpt lat="44.22483011717114" lon="10.302922511609504"><ele>779.0</ele><time>2026-05-02T13:25:17.998Z</time></trkpt><trkpt lat="44.22464840889807" lon="10.302863609590428"><ele>779.0</ele><time>2026-05-02T13:25:18.998Z</time></trkpt><trkpt lat="44.22447889267398" lon="10.302811504338077"><ele>778.25</ele><time>2026-05-02T13:25:19.998Z</time></trkpt><trkpt lat="44.2243258114823" lon="10.302772028727375"><ele>777.5</ele><time>2026-05-02T13:25:20.998Z</time></trkpt><trkpt lat="44.224203740683265" lon="10.302718296709346"><ele>776.75</ele><time>2026-05-02T13:25:21.998Z</time></trkpt><trkpt lat="44.224108674579085" lon="10.302700617128759"><ele>776.0</ele><time>2026-05-02T13:25:22.998Z</time></trkpt><trkpt lat="44.22400860801696" lon="10.302650667723169"><ele>776.0</ele><time>2026-05-02T13:25:24.998Z</time></trkpt><trkpt lat="44.22406605148542" lon="10.302479143939046"><ele>776.0</ele><time>2026-05-02T13:25:27Z</time></trkpt><trkpt lat="44.22414334938318" lon="10.302446712725997"><ele>776.0</ele><time>2026-05-02T13:25:28Z</time></trkpt><trkpt lat="44.22425795309238" lon="10.302424666545416"><ele>776.0</ele><time>2026-05-02T13:25:29Z</time></trkpt><trkpt lat="44.22439568393541" lon="10.302391138748625"><ele>776.0</ele><time>2026-05-02T13:25:30Z</time></trkpt><trkpt lat="44.22454221664755" lon="10.302359761495211"><ele>776.0</ele><time>2026-05-02T13:25:31Z</time></trkpt><trkpt lat="44.22469592923075" lon="10.302333230631474"><ele>776.0</ele><time>2026-05-02T13:25:32Z</time></trkpt><trkpt lat="44.2248409015584" lon="10.302314307631024"><ele>776.0</ele><time>2026-05-02T13:25:33Z</time></trkpt><trkpt lat="44.22498332824247" lon="10.302288449771599"><ele>777.0</ele><time>2026-05-02T13:25:34Z</time></trkpt><trkpt lat="44.225135055366515" lon="10.302280559726498"><ele>778.0</ele><time>2026-05-02T13:25:35Z</time></trkpt><trkpt lat="44.22528759165239" lon="10.30219357632136"><ele>779.0</ele><time>2026-05-02T13:25:36Z</time></trkpt><trkpt lat="44.225442647427414" lon="10.302143566293557"><ele>774.0</ele><time>2026-05-02T13:25:37Z</time></trkpt><trkpt lat="44.22559240160141" lon="10.302068237826012"><ele>769.0</ele><time>2026-05-02T13:25:38Z</time></trkpt><trkpt lat="44.2257454790595" lon="10.302001748906983"><ele>764.0</ele><time>2026-05-02T13:25:39Z</time></trkpt><trkpt lat="44.225867150743035" lon="10.301951153846005"><ele>759.0</ele><time>2026-05-02T13:25:40Z</time></trkpt><trkpt lat="44.225968069189776" lon="10.30191272800865"><ele>759.0</ele><time>2026-05-02T13:25:41Z</time></trkpt><trkpt lat="44.22603479834627" lon="10.301874607969562"><ele>759.0</ele><time>2026-05-02T13:25:42Z</time></trkpt><trkpt lat="44.22607759596341" lon="10.301724248417129"><ele>759.0</ele><time>2026-05-02T13:25:44Z</time></trkpt><trkpt lat="44.22602633505842" lon="10.301635660213902"><ele>759.0</ele><time>2026-05-02T13:25:45Z</time></trkpt><trkpt lat="44.2259369970134" lon="10.30158343353102"><ele>759.0</ele><time>2026-05-02T13:25:46Z</time></trkpt><trkpt lat="44.22582678132511" lon="10.301564187055014"><ele>759.0</ele><time>2026-05-02T13:25:47Z</time></trkpt><trkpt lat="44.22569897601645" lon="10.301567286828215"><ele>759.0</ele><time>2026-05-02T13:25:48Z</time></trkpt><trkpt lat="44.225578036671855" lon="10.301555151341425"><ele>759.0</ele><time>2026-05-02T13:25:49Z</time></trkpt><trkpt lat="44.22544868800549" lon="10.301544278288496"><ele>759.0</ele><time>2026-05-02T13:25:50Z</time></trkpt><trkpt lat="44.22530853149397" lon="10.301552098793614"><ele>757.75</ele><time>2026-05-02T13:25:51Z</time></trkpt><trkpt lat="44.22516096269604" lon="10.301597320268938"><ele>756.5</ele><time>2026-05-02T13:25:52Z</time></trkpt><trkpt lat="44.22501473793458" lon="10.301636637786087"><ele>755.25</ele><time>2026-05-02T13:25:53Z</time></trkpt><trkpt lat="44.22487249484557" lon="10.30160566490379"><ele>754.0</ele><time>2026-05-02T13:25:54Z</time></trkpt><trkpt lat="44.22473435235543" lon="10.301611435910427"><ele>753.0</ele><time>2026-05-02T13:25:55Z</time></trkpt><trkpt lat="44.22460690010902" lon="10.301592032150733"><ele>752.0</ele><time>2026-05-02T13:25:56Z</time></trkpt><trkpt lat="44.2244839596919" lon="10.30157885737376"><ele>751.0</ele><time>2026-05-02T13:25:57Z</time></trkpt><trkpt lat="44.224358432126195" lon="10.301585976435108"><ele>750.0</ele><time>2026-05-02T13:25:58Z</time></trkpt><trkpt lat="44.22424014677711" lon="10.30161130677352"><ele>750.0</ele><time>2026-05-02T13:25:59Z</time></trkpt><trkpt lat="44.22413088959933" lon="10.30162810327161"><ele>750.0</ele><time>2026-05-02T13:26:00Z</time></trkpt><trkpt lat="44.22402283945651" lon="10.301653964627233"><ele>750.0</ele><time>2026-05-02T13:26:01Z</time></trkpt><trkpt lat="44.223921514464365" lon="10.301694956071525"><ele>750.0</ele><time>2026-05-02T13:26:01.999Z</time></trkpt><trkpt lat="44.223811838854836" lon="10.301698209895548"><ele>750.0</ele><time>2026-05-02T13:26:02.999Z</time></trkpt><trkpt lat="44.223701050362905" lon="10.301713933746452"><ele>749.4</ele><time>2026-05-02T13:26:03.999Z</time></trkpt><trkpt lat="44.223584208472055" lon="10.301722995550179"><ele>748.8</ele><time>2026-05-02T13:26:04.999Z</time></trkpt><trkpt lat="44.22348395137237" lon="10.301769114078965"><ele>748.2</ele><time>2026-05-02T13:26:05.999Z</time></trkpt><trkpt lat="44.223379324400675" lon="10.301802417945199"><ele>747.6</ele><time>2026-05-02T13:26:06.999Z</time></trkpt><trkpt lat="44.223296819772045" lon="10.30182742228555"><ele>747.0</ele><time>2026-05-02T13:26:07.999Z</time></trkpt><trkpt lat="44.223217185695546" lon="10.301874652844175"><ele>745.2</ele><time>2026-05-02T13:26:08.999Z</time></trkpt><trkpt lat="44.2231377324421" lon="10.301882408296064"><ele>743.4000000000001</ele><time>2026-05-02T13:26:09.999Z</time></trkpt><trkpt lat="44.22306671666844" lon="10.301914716723275"><ele>741.5999999999999</ele><time>2026-05-02T13:26:10.999Z</time></trkpt><trkpt lat="44.22294538769797" lon="10.301961909630814"><ele>739.8</ele><time>2026-05-02T13:26:12.999Z</time></trkpt><trkpt lat="44.22281751619356" lon="10.30199523998469"><ele>738.0</ele><time>2026-05-02T13:26:14.999Z</time></trkpt><trkpt lat="44.2227311104666" lon="10.302010923770444"><ele>738.0</ele><time>2026-05-02T13:26:15.999Z</time></trkpt><trkpt lat="44.22261177950692" lon="10.30202761709553"><ele>738.0</ele><time>2026-05-02T13:26:16.999Z</time></trkpt><trkpt lat="44.2224947433864" lon="10.302033760408088"><ele>738.0</ele><time>2026-05-02T13:26:17.999Z</time></trkpt><trkpt lat="44.222388876142645" lon="10.302031284745217"><ele>738.0</ele><time>2026-05-02T13:26:18.999Z</time></trkpt><trkpt lat="44.222306388053426" lon="10.302018928394062"><ele>738.0</ele><time>2026-05-02T13:26:19.999Z</time></trkpt><trkpt lat="44.22220414853835" lon="10.301952229778149"><ele>738.0</ele><time>2026-05-02T13:26:21.999Z</time></trkpt><trkpt lat="44.22220902652157" lon="10.301781436317272"><ele>738.0</ele><time>2026-05-02T13:26:23.999Z</time></trkpt><trkpt lat="44.222254351640686" lon="10.301664326375278"><ele>738.0</ele><time>2026-05-02T13:26:24.999Z</time></trkpt><trkpt lat="44.22233738514124" lon="10.301550226233465"><ele>738.0</ele><time>2026-05-02T13:26:25.999Z</time></trkpt><trkpt lat="44.22240831735317" lon="10.301417684777645"><ele>735.0</ele><time>2026-05-02T13:26:26.999Z</time></trkpt><trkpt lat="44.22249694201497" lon="10.301280284167147"><ele>732.0</ele><time>2026-05-02T13:26:27.999Z</time></trkpt><trkpt lat="44.22257674938451" lon="10.301117652473025"><ele>729.0</ele><time>2026-05-02T13:26:28.999Z</time></trkpt><trkpt lat="44.222647113757084" lon="10.300948390553097"><ele>726.0</ele><time>2026-05-02T13:26:29.999Z</time></trkpt><trkpt lat="44.22270796289611" lon="10.300782934237445"><ele>726.0</ele><time>2026-05-02T13:26:30.999Z</time></trkpt><trkpt lat="44.22277185779828" lon="10.300634585217626"><ele>726.0</ele><time>2026-05-02T13:26:31.999Z</time></trkpt><trkpt lat="44.222837981438126" lon="10.300499505650583"><ele>726.0</ele><time>2026-05-02T13:26:32.999Z</time></trkpt><trkpt lat="44.22291250141796" lon="10.300377812476672"><ele>726.0</ele><time>2026-05-02T13:26:33.999Z</time></trkpt><trkpt lat="44.222994068052934" lon="10.300276080873186"><ele>726.25</ele><time>2026-05-02T13:26:34.999Z</time></trkpt><trkpt lat="44.223081685128896" lon="10.300200289369851"><ele>726.5</ele><time>2026-05-02T13:26:35.999Z</time></trkpt><trkpt lat="44.223197761576735" lon="10.300186957146156"><ele>726.75</ele><time>2026-05-02T13:26:36.999Z</time></trkpt><trkpt lat="44.22332462978053" lon="10.30012018431926"><ele>727.0</ele><time>2026-05-02T13:26:37.999Z</time></trkpt><trkpt lat="44.223462281019216" lon="10.300075484155794"><ele>727.0</ele><time>2026-05-02T13:26:38.999Z</time></trkpt><trkpt lat="44.22360549185103" lon="10.300023034897702"><ele>727.0</ele><time>2026-05-02T13:26:39.999Z</time></trkpt><trkpt lat="44.22375841608969" lon="10.299972429577803"><ele>727.0</ele><time>2026-05-02T13:26:40.999Z</time></trkpt><trkpt lat="44.223910873287466" lon="10.299918131582853"><ele>727.75</ele><time>2026-05-02T13:26:41.999Z</time></trkpt><trkpt lat="44.22405275670337" lon="10.29987339079618"><ele>728.5</ele><time>2026-05-02T13:26:42.999Z</time></trkpt><trkpt lat="44.22417863049895" lon="10.299836246853214"><ele>729.25</ele><time>2026-05-02T13:26:43.999Z</time></trkpt><trkpt lat="44.22430965911992" lon="10.299843464555188"><ele>730.0</ele><time>2026-05-02T13:26:44.999Z</time></trkpt><trkpt lat="44.224427692504605" lon="10.299921933984509"><ele>730.0</ele><time>2026-05-02T13:26:45.999Z</time></trkpt><trkpt lat="44.22453045500505" lon="10.299981855877379"><ele>730.0</ele><time>2026-05-02T13:26:46.999Z</time></trkpt><trkpt lat="44.22460288492022" lon="10.300033684461727"><ele>730.0</ele><time>2026-05-02T13:26:47.999Z</time></trkpt><trkpt lat="44.22467579487478" lon="10.300036900117682"><ele>730.0</ele><time>2026-05-02T13:26:48.999Z</time></trkpt><trkpt lat="44.2247543251467" lon="10.299981421262906"><ele>730.0</ele><time>2026-05-02T13:26:49.999Z</time></trkpt><trkpt lat="44.224816343068134" lon="10.299878577852887"><ele>729.6</ele><time>2026-05-02T13:26:50.999Z</time></trkpt><trkpt lat="44.22483745755426" lon="10.299754570212075"><ele>729.2</ele><time>2026-05-02T13:26:51.999Z</time></trkpt><trkpt lat="44.22481654751256" lon="10.299630835135096"><ele>728.8</ele><time>2026-05-02T13:26:52.999Z</time></trkpt><trkpt lat="44.2247564940039" lon="10.29952101934586"><ele>728.4</ele><time>2026-05-02T13:26:53.999Z</time></trkpt><trkpt lat="44.224664354321014" lon="10.299459739567675"><ele>728.0</ele><time>2026-05-02T13:26:54.999Z</time></trkpt><trkpt lat="44.224547288146546" lon="10.299437905825034"><ele>724.0</ele><time>2026-05-02T13:26:55.999Z</time></trkpt><trkpt lat="44.22439925714796" lon="10.29944434771671"><ele>720.0</ele><time>2026-05-02T13:26:56.999Z</time></trkpt><trkpt lat="44.22423334604277" lon="10.299450991408012"><ele>716.0</ele><time>2026-05-02T13:26:57.999Z</time></trkpt><trkpt lat="44.224060292784216" lon="10.29944465908263"><ele>715.0</ele><time>2026-05-02T13:26:58.999Z</time></trkpt><trkpt lat="44.22387940428106" lon="10.2994341893698"><ele>714.0</ele><time>2026-05-02T13:26:59.999Z</time></trkpt><trkpt lat="44.22370732333051" lon="10.299425311477274"><ele>713.0</ele><time>2026-05-02T13:27:00.999Z</time></trkpt><trkpt lat="44.223540836850425" lon="10.299419499169902"><ele>713.0</ele><time>2026-05-02T13:27:01.999Z</time></trkpt><trkpt lat="44.22338848344038" lon="10.2993776151003"><ele>713.0</ele><time>2026-05-02T13:27:02.998Z</time></trkpt><trkpt lat="44.22325111624208" lon="10.299303410319183"><ele>713.0</ele><time>2026-05-02T13:27:03.998Z</time></trkpt><trkpt lat="44.22310882226059" lon="10.299238703668987"><ele>710.75</ele><time>2026-05-02T13:27:04.998Z</time></trkpt><trkpt lat="44.22297517754108" lon="10.299174286455315"><ele>708.5</ele><time>2026-05-02T13:27:05.998Z</time></trkpt><trkpt lat="44.22285157297953" lon="10.29916175970319"><ele>706.25</ele><time>2026-05-02T13:27:06.998Z</time></trkpt><trkpt lat="44.222710163563654" lon="10.299207125350007"><ele>704.0</ele><time>2026-05-02T13:27:07.998Z</time></trkpt><trkpt lat="44.22255419289163" lon="10.299312181050169"><ele>704.0</ele><time>2026-05-02T13:27:08.998Z</time></trkpt><trkpt lat="44.22237682595023" lon="10.29939220171401"><ele>704.0</ele><time>2026-05-02T13:27:09.998Z</time></trkpt><trkpt lat="44.22219634660684" lon="10.29947471590016"><ele>704.0</ele><time>2026-05-02T13:27:10.998Z</time></trkpt><trkpt lat="44.22201668218478" lon="10.299540135219035"><ele>699.3333333333333</ele><time>2026-05-02T13:27:11.998Z</time></trkpt><trkpt lat="44.22183272435838" lon="10.299595498648042"><ele>694.6666666666666</ele><time>2026-05-02T13:27:12.998Z</time></trkpt><trkpt lat="44.22163879136007" lon="10.29962333318294"><ele>690.0</ele><time>2026-05-02T13:27:13.998Z</time></trkpt><trkpt lat="44.22144823871347" lon="10.299653683544799"><ele>691.75</ele><time>2026-05-02T13:27:14.998Z</time></trkpt><trkpt lat="44.221288232963566" lon="10.299675471991957"><ele>693.5</ele><time>2026-05-02T13:27:15.998Z</time></trkpt><trkpt lat="44.22114806190806" lon="10.299707993932811"><ele>695.25</ele><time>2026-05-02T13:27:16.998Z</time></trkpt><trkpt lat="44.221034856889744" lon="10.29973685638043"><ele>697.0</ele><time>2026-05-02T13:27:17.998Z</time></trkpt><trkpt lat="44.22092196460404" lon="10.299797315020012"><ele>697.0</ele><time>2026-05-02T13:27:18.998Z</time></trkpt><trkpt lat="44.22080883669033" lon="10.299934354808299"><ele>697.0</ele><time>2026-05-02T13:27:19.998Z</time></trkpt><trkpt lat="44.22069173165201" lon="10.300110756297409"><ele>697.0</ele><time>2026-05-02T13:27:20.998Z</time></trkpt><trkpt lat="44.22056978284157" lon="10.300286534706064"><ele>696.0</ele><time>2026-05-02T13:27:21.998Z</time></trkpt><trkpt lat="44.22044522686651" lon="10.300458056628678"><ele>695.0</ele><time>2026-05-02T13:27:22.998Z</time></trkpt><trkpt lat="44.22029095809852" lon="10.300579319751321"><ele>694.0</ele><time>2026-05-02T13:27:23.998Z</time></trkpt><trkpt lat="44.22011973647609" lon="10.300667761044707"><ele>694.0</ele><time>2026-05-02T13:27:24.998Z</time></trkpt><trkpt lat="44.21993696880003" lon="10.30074981124759"><ele>694.0</ele><time>2026-05-02T13:27:25.998Z</time></trkpt><trkpt lat="44.21975279233783" lon="10.300855147816929"><ele>694.0</ele><time>2026-05-02T13:27:26.998Z</time></trkpt><trkpt lat="44.21956885511027" lon="10.300931734597551"><ele>690.6666666666667</ele><time>2026-05-02T13:27:27.998Z</time></trkpt><trkpt lat="44.219400821983236" lon="10.30100768407075"><ele>687.3333333333334</ele><time>2026-05-02T13:27:28.998Z</time></trkpt><trkpt lat="44.21923931845983" lon="10.301081817510783"><ele>684.0</ele><time>2026-05-02T13:27:29.998Z</time></trkpt><trkpt lat="44.21910678197153" lon="10.301139461187608"><ele>684.0</ele><time>2026-05-02T13:27:30.998Z</time></trkpt><trkpt lat="44.21898959076565" lon="10.301196911968875"><ele>684.0</ele><time>2026-05-02T13:27:32Z</time></trkpt><trkpt lat="44.21889834446977" lon="10.301271754671223"><ele>684.0</ele><time>2026-05-02T13:27:33Z</time></trkpt><trkpt lat="44.21884692338407" lon="10.301368634565009"><ele>684.0</ele><time>2026-05-02T13:27:34Z</time></trkpt><trkpt lat="44.218833751897165" lon="10.301502683874851"><ele>684.0</ele><time>2026-05-02T13:27:35Z</time></trkpt><trkpt lat="44.21886511244386" lon="10.301641660327995"><ele>685.5</ele><time>2026-05-02T13:27:36Z</time></trkpt><trkpt lat="44.21893911766897" lon="10.301761252018213"><ele>687.0</ele><time>2026-05-02T13:27:37Z</time></trkpt><trkpt lat="44.21905183221704" lon="10.301865825772937"><ele>688.5</ele><time>2026-05-02T13:27:38Z</time></trkpt><trkpt lat="44.21918085178862" lon="10.301967827028061"><ele>690.0</ele><time>2026-05-02T13:27:39Z</time></trkpt><trkpt lat="44.21931678864844" lon="10.302088178767642"><ele>690.0</ele><time>2026-05-02T13:27:40Z</time></trkpt><trkpt lat="44.21941852239496" lon="10.302239593943444"><ele>690.0</ele><time>2026-05-02T13:27:41Z</time></trkpt><trkpt lat="44.2194989473292" lon="10.302394921849258"><ele>690.0</ele><time>2026-05-02T13:27:42Z</time></trkpt><trkpt lat="44.219557349102736" lon="10.30257183940972"><ele>690.0</ele><time>2026-05-02T13:27:43Z</time></trkpt><trkpt lat="44.21961683060538" lon="10.302750574483161"><ele>686.75</ele><time>2026-05-02T13:27:44Z</time></trkpt><trkpt lat="44.21970433262819" lon="10.30290795738494"><ele>683.5</ele><time>2026-05-02T13:27:45Z</time></trkpt><trkpt lat="44.21980130891109" lon="10.30305673121853"><ele>680.25</ele><time>2026-05-02T13:27:46Z</time></trkpt><trkpt lat="44.21992568443594" lon="10.303186487503899"><ele>677.0</ele><time>2026-05-02T13:27:47Z</time></trkpt><trkpt lat="44.22003465439224" lon="10.303336754206883"><ele>677.0</ele><time>2026-05-02T13:27:48Z</time></trkpt><trkpt lat="44.22013703970589" lon="10.303463658465624"><ele>677.0</ele><time>2026-05-02T13:27:49Z</time></trkpt><trkpt lat="44.22022917282048" lon="10.3035733457376"><ele>677.0</ele><time>2026-05-02T13:27:50Z</time></trkpt><trkpt lat="44.22030896933099" lon="10.303668537643961"><ele>677.0</ele><time>2026-05-02T13:27:51Z</time></trkpt><trkpt lat="44.22037209533213" lon="10.303754082437496"><ele>677.0</ele><time>2026-05-02T13:27:52Z</time></trkpt><trkpt lat="44.22042055729209" lon="10.3038424596043"><ele>677.0</ele><time>2026-05-02T13:27:53Z</time></trkpt><trkpt lat="44.22043395977308" lon="10.303948995954222"><ele>677.0</ele><time>2026-05-02T13:27:54Z</time></trkpt><trkpt lat="44.22039999267582" lon="10.304074168288547"><ele>677.0</ele><time>2026-05-02T13:27:55Z</time></trkpt><trkpt lat="44.22036242086897" lon="10.30422156435474"><ele>677.0</ele><time>2026-05-02T13:27:56Z</time></trkpt><trkpt lat="44.22032505940084" lon="10.304381017222966"><ele>674.25</ele><time>2026-05-02T13:27:57Z</time></trkpt><trkpt lat="44.220294842875795" lon="10.304547256386213"><ele>671.5</ele><time>2026-05-02T13:27:58Z</time></trkpt><trkpt lat="44.22029376213634" lon="10.30472161754071"><ele>668.75</ele><time>2026-05-02T13:27:59Z</time></trkpt><trkpt lat="44.220292726667" lon="10.304879361903573"><ele>666.0</ele><time>2026-05-02T13:28:00Z</time></trkpt><trkpt lat="44.22027581546133" lon="10.305033396079603"><ele>665.25</ele><time>2026-05-02T13:28:01Z</time></trkpt><trkpt lat="44.22025651254952" lon="10.305200885185018"><ele>664.5</ele><time>2026-05-02T13:28:02Z</time></trkpt><trkpt lat="44.22019569040863" lon="10.30536665385918"><ele>663.75</ele><time>2026-05-02T13:28:03Z</time></trkpt><trkpt lat="44.2201453945294" lon="10.305536526204458"><ele>663.0</ele><time>2026-05-02T13:28:04Z</time></trkpt><trkpt lat="44.22011997742662" lon="10.305714983290365"><ele>662.25</ele><time>2026-05-02T13:28:05Z</time></trkpt><trkpt lat="44.22011496428379" lon="10.30590521857275"><ele>661.5</ele><time>2026-05-02T13:28:06Z</time></trkpt><trkpt lat="44.22011086047617" lon="10.306101623540282"><ele>660.75</ele><time>2026-05-02T13:28:07Z</time></trkpt><trkpt lat="44.22008985686423" lon="10.30629487037039"><ele>660.0</ele><time>2026-05-02T13:28:08Z</time></trkpt><trkpt lat="44.2201114707396" lon="10.306498030487086"><ele>659.75</ele><time>2026-05-02T13:28:09Z</time></trkpt><trkpt lat="44.22013077649911" lon="10.30669888084048"><ele>659.5</ele><time>2026-05-02T13:28:10Z</time></trkpt><trkpt lat="44.220153371461784" lon="10.306891898464226"><ele>659.25</ele><time>2026-05-02T13:28:11Z</time></trkpt><trkpt lat="44.22018216544927" lon="10.307055112416297"><ele>659.0</ele><time>2026-05-02T13:28:11.999Z</time></trkpt><trkpt lat="44.22024466020538" lon="10.307203572746836"><ele>657.4000000000001</ele><time>2026-05-02T13:28:12.999Z</time></trkpt><trkpt lat="44.220317946524865" lon="10.307328198807879"><ele>655.8</ele><time>2026-05-02T13:28:13.999Z</time></trkpt><trkpt lat="44.220374530492435" lon="10.307438666168808"><ele>654.2</ele><time>2026-05-02T13:28:14.999Z</time></trkpt><trkpt lat="44.220410077563955" lon="10.307571203538098"><ele>652.5999999999999</ele><time>2026-05-02T13:28:15.999Z</time></trkpt><trkpt lat="44.22042021341849" lon="10.307721407713647"><ele>651.0</ele><time>2026-05-02T13:28:16.999Z</time></trkpt><trkpt lat="44.2204256263598" lon="10.307880833716178"><ele>651.0</ele><time>2026-05-02T13:28:17.999Z</time></trkpt><trkpt lat="44.22042670567165" lon="10.308028062029535"><ele>651.0</ele><time>2026-05-02T13:28:18.999Z</time></trkpt><trkpt lat="44.22039361449393" lon="10.308166302067264"><ele>651.0</ele><time>2026-05-02T13:28:19.999Z</time></trkpt><trkpt lat="44.22032403339446" lon="10.308285571571846"><ele>651.0</ele><time>2026-05-02T13:28:20.999Z</time></trkpt><trkpt lat="44.2202603657103" lon="10.308424224499987"><ele>651.0</ele><time>2026-05-02T13:28:21.999Z</time></trkpt><trkpt lat="44.220187724295506" lon="10.308552187219195"><ele>651.4</ele><time>2026-05-02T13:28:22.999Z</time></trkpt><trkpt lat="44.22012047752334" lon="10.308686487323838"><ele>651.8</ele><time>2026-05-02T13:28:23.999Z</time></trkpt><trkpt lat="44.22006026186002" lon="10.308817639292887"><ele>652.1999999999999</ele><time>2026-05-02T13:28:24.999Z</time></trkpt><trkpt lat="44.220016648529125" lon="10.308925726017296"><ele>652.5999999999999</ele><time>2026-05-02T13:28:25.999Z</time></trkpt><trkpt lat="44.21998498718505" lon="10.309022893479561"><ele>653.0</ele><time>2026-05-02T13:28:26.999Z</time></trkpt><trkpt lat="44.219948714902415" lon="10.309127532659094"><ele>654.2</ele><time>2026-05-02T13:28:27.999Z</time></trkpt><trkpt lat="44.21988996348659" lon="10.309229377854917"><ele>655.4</ele><time>2026-05-02T13:28:28.999Z</time></trkpt><trkpt lat="44.21979969349138" lon="10.309288167443812"><ele>656.6</ele><time>2026-05-02T13:28:29.999Z</time></trkpt><trkpt lat="44.21973047149333" lon="10.309362341001176"><ele>657.8000000000001</ele><time>2026-05-02T13:28:30.999Z</time></trkpt><trkpt lat="44.21964344295911" lon="10.309378933599339"><ele>659.0</ele><time>2026-05-02T13:28:31.999Z</time></trkpt><trkpt lat="44.21955923214722" lon="10.309329982081266"><ele>656.0</ele><time>2026-05-02T13:28:32.999Z</time></trkpt><trkpt lat="44.21947148741551" lon="10.309220829266033"><ele>653.0</ele><time>2026-05-02T13:28:33.999Z</time></trkpt><trkpt lat="44.21937258494002" lon="10.309062128603802"><ele>650.0</ele><time>2026-05-02T13:28:34.999Z</time></trkpt><trkpt lat="44.219255623467525" lon="10.308866595020135"><ele>650.0</ele><time>2026-05-02T13:28:35.999Z</time></trkpt><trkpt lat="44.219138286325496" lon="10.308641257391187"><ele>650.0</ele><time>2026-05-02T13:28:36.999Z</time></trkpt><trkpt lat="44.21902340721941" lon="10.308442664570034"><ele>650.0</ele><time>2026-05-02T13:28:37.999Z</time></trkpt><trkpt lat="44.21891550417657" lon="10.308260920339517"><ele>649.25</ele><time>2026-05-02T13:28:38.999Z</time></trkpt><trkpt lat="44.21880797559315" lon="10.308080781362591"><ele>648.5</ele><time>2026-05-02T13:28:39.999Z</time></trkpt><trkpt lat="44.21871616814619" lon="10.307948172570157"><ele>647.75</ele><time>2026-05-02T13:28:40.999Z</time></trkpt><trkpt lat="44.21861072937449" lon="10.307853489650133"><ele>647.0</ele><time>2026-05-02T13:28:41.999Z</time></trkpt><trkpt lat="44.21848268316133" lon="10.307816289154239"><ele>647.0</ele><time>2026-05-02T13:28:42.999Z</time></trkpt><trkpt lat="44.218335916967085" lon="10.307825721316892"><ele>647.0</ele><time>2026-05-02T13:28:43.999Z</time></trkpt><trkpt lat="44.21817725945427" lon="10.307879619792933"><ele>647.0</ele><time>2026-05-02T13:28:44.999Z</time></trkpt><trkpt lat="44.21801694817077" lon="10.307917331196784"><ele>646.3333333333333</ele><time>2026-05-02T13:28:45.999Z</time></trkpt><trkpt lat="44.21786169599992" lon="10.307919651164834"><ele>645.6666666666666</ele><time>2026-05-02T13:28:46.999Z</time></trkpt><trkpt lat="44.21770991095753" lon="10.307889288235685"><ele>645.0</ele><time>2026-05-02T13:28:47.999Z</time></trkpt><trkpt lat="44.21755363800834" lon="10.307843736464894"><ele>645.0</ele><time>2026-05-02T13:28:48.999Z</time></trkpt><trkpt lat="44.21739127373667" lon="10.307814578363935"><ele>645.0</ele><time>2026-05-02T13:28:49.999Z</time></trkpt><trkpt lat="44.21722612716328" lon="10.307760765910636"><ele>645.0</ele><time>2026-05-02T13:28:50.999Z</time></trkpt><trkpt lat="44.2170722352538" lon="10.307718405358843"><ele>647.25</ele><time>2026-05-02T13:28:51.999Z</time></trkpt><trkpt lat="44.21694540618806" lon="10.30767280552626"><ele>649.5</ele><time>2026-05-02T13:28:52.999Z</time></trkpt><trkpt lat="44.21684454394679" lon="10.307603783108997"><ele>651.75</ele><time>2026-05-02T13:28:53.999Z</time></trkpt><trkpt lat="44.216752030485054" lon="10.307473776284757"><ele>654.0</ele><time>2026-05-02T13:28:54.999Z</time></trkpt><trkpt lat="44.216649795171286" lon="10.307300853437606"><ele>657.3333333333334</ele><time>2026-05-02T13:28:55.999Z</time></trkpt><trkpt lat="44.216541995207805" lon="10.307107211459716"><ele>660.6666666666667</ele><time>2026-05-02T13:28:56.999Z</time></trkpt><trkpt lat="44.21642700988567" lon="10.30690413949546"><ele>664.0</ele><time>2026-05-02T13:28:57.999Z</time></trkpt><trkpt lat="44.21631379095563" lon="10.306687080972898"><ele>664.0</ele><time>2026-05-02T13:28:58.999Z</time></trkpt><trkpt lat="44.216203849929414" lon="10.30647787199374"><ele>664.0</ele><time>2026-05-02T13:28:59.999Z</time></trkpt><trkpt lat="44.21609937893582" lon="10.306273160020002"><ele>664.0</ele><time>2026-05-02T13:29:00.999Z</time></trkpt><trkpt lat="44.216002958995574" lon="10.306093419341245"><ele>660.25</ele><time>2026-05-02T13:29:01.999Z</time></trkpt><trkpt lat="44.21590031082399" lon="10.305963631543497"><ele>656.5</ele><time>2026-05-02T13:29:02.999Z</time></trkpt><trkpt lat="44.21580112838516" lon="10.30586164050125"><ele>652.75</ele><time>2026-05-02T13:29:03.999Z</time></trkpt><trkpt lat="44.21571778543157" lon="10.305787881617753"><ele>649.0</ele><time>2026-05-02T13:29:04.999Z</time></trkpt><trkpt lat="44.21565421185726" lon="10.305685904652103"><ele>650.6666666666667</ele><time>2026-05-02T13:29:05.999Z</time></trkpt><trkpt lat="44.21556839714997" lon="10.305482374820825"><ele>652.3333333333334</ele><time>2026-05-02T13:29:06.999Z</time></trkpt><trkpt lat="44.215541417362" lon="10.305275011245316"><ele>654.0</ele><time>2026-05-02T13:29:07.999Z</time></trkpt><trkpt lat="44.215520137910936" lon="10.305088461297762"><ele>654.0</ele><time>2026-05-02T13:29:08.999Z</time></trkpt><trkpt lat="44.21547672644241" lon="10.304930282664195"><ele>654.0</ele><time>2026-05-02T13:29:09.999Z</time></trkpt><trkpt lat="44.21539400323713" lon="10.304801361893137"><ele>654.0</ele><time>2026-05-02T13:29:10.999Z</time></trkpt><trkpt lat="44.21528189573006" lon="10.304701426080287"><ele>654.0</ele><time>2026-05-02T13:29:11.999Z</time></trkpt><trkpt lat="44.21514517835849" lon="10.304627029851616"><ele>649.0</ele><time>2026-05-02T13:29:12.999Z</time></trkpt><trkpt lat="44.21498983682954" lon="10.30458597402243"><ele>644.0</ele><time>2026-05-02T13:29:13.999Z</time></trkpt><trkpt lat="44.214826246396186" lon="10.304586203964794"><ele>639.0</ele><time>2026-05-02T13:29:14.998Z</time></trkpt><trkpt lat="44.21464784712881" lon="10.304630030329932"><ele>639.0</ele><time>2026-05-02T13:29:15.998Z</time></trkpt><trkpt lat="44.2144641847858" lon="10.304702904077006"><ele>639.0</ele><time>2026-05-02T13:29:16.998Z</time></trkpt><trkpt lat="44.21428429302071" lon="10.304747006074166"><ele>639.0</ele><time>2026-05-02T13:29:17.998Z</time></trkpt><trkpt lat="44.21410810833346" lon="10.30478347791925"><ele>646.0</ele><time>2026-05-02T13:29:18.998Z</time></trkpt><trkpt lat="44.21394969440123" lon="10.304811880994874"><ele>653.0</ele><time>2026-05-02T13:29:19.998Z</time></trkpt><trkpt lat="44.213828900945984" lon="10.304788960647397"><ele>660.0</ele><time>2026-05-02T13:29:21.998Z</time></trkpt><trkpt lat="44.213786413610734" lon="10.304679143955495"><ele>667.0</ele><time>2026-05-02T13:29:22.998Z</time></trkpt><trkpt lat="44.21375530602094" lon="10.30455324832697"><ele>667.0</ele><time>2026-05-02T13:29:23.998Z</time></trkpt><trkpt lat="44.21374928966289" lon="10.30439528503603"><ele>667.0</ele><time>2026-05-02T13:29:24.998Z</time></trkpt><trkpt lat="44.21376949699327" lon="10.30421439342841"><ele>667.0</ele><time>2026-05-02T13:29:25.998Z</time></trkpt><trkpt lat="44.2138196534557" lon="10.304008997127806"><ele>667.0</ele><time>2026-05-02T13:29:26.998Z</time></trkpt><trkpt lat="44.213873304432745" lon="10.303792956239574"><ele>663.3333333333334</ele><time>2026-05-02T13:29:27.998Z</time></trkpt><trkpt lat="44.21393089160962" lon="10.303577857034734"><ele>659.6666666666666</ele><time>2026-05-02T13:29:28.998Z</time></trkpt><trkpt lat="44.21397442549512" lon="10.303355292703827"><ele>656.0</ele><time>2026-05-02T13:29:29.998Z</time></trkpt><trkpt lat="44.21402425149069" lon="10.303171556057633"><ele>652.8</ele><time>2026-05-02T13:29:30.998Z</time></trkpt><trkpt lat="44.21406410504104" lon="10.303029331477184"><ele>649.5999999999999</ele><time>2026-05-02T13:29:31.998Z</time></trkpt><trkpt lat="44.2140690212122" lon="10.30290210049715"><ele>646.4</ele><time>2026-05-02T13:29:32.998Z</time></trkpt><trkpt lat="44.214028013173255" lon="10.302760747615164"><ele>643.2</ele><time>2026-05-02T13:29:33.998Z</time></trkpt><trkpt lat="44.21392346856175" lon="10.302651892779961"><ele>640.0</ele><time>2026-05-02T13:29:34.998Z</time></trkpt><trkpt lat="44.21380114215431" lon="10.302560895154151"><ele>640.0</ele><time>2026-05-02T13:29:35.998Z</time></trkpt><trkpt lat="44.213654789598934" lon="10.302440482311944"><ele>640.0</ele><time>2026-05-02T13:29:36.998Z</time></trkpt><trkpt lat="44.21349479687848" lon="10.302324383008278"><ele>640.0</ele><time>2026-05-02T13:29:38Z</time></trkpt><trkpt lat="44.21333496258789" lon="10.302205558161372"><ele>640.0</ele><time>2026-05-02T13:29:39Z</time></trkpt><trkpt lat="44.21316678790993" lon="10.3020699256524"><ele>640.0</ele><time>2026-05-02T13:29:40Z</time></trkpt><trkpt lat="44.21298980651498" lon="10.301926011974304"><ele>640.0</ele><time>2026-05-02T13:29:41Z</time></trkpt><trkpt lat="44.212815148996604" lon="10.301783967507623"><ele>640.0</ele><time>2026-05-02T13:29:42Z</time></trkpt><trkpt lat="44.21264822778884" lon="10.301644089782036"><ele>640.0</ele><time>2026-05-02T13:29:43Z</time></trkpt><trkpt lat="44.212479824216125" lon="10.301484259153922"><ele>640.0</ele><time>2026-05-02T13:29:44Z</time></trkpt><trkpt lat="44.21233055281" lon="10.301332046523727"><ele>635.0</ele><time>2026-05-02T13:29:45Z</time></trkpt><trkpt lat="44.21219138039714" lon="10.301181433901432"><ele>630.0</ele><time>2026-05-02T13:29:46Z</time></trkpt><trkpt lat="44.21206917357152" lon="10.301064956588299"><ele>625.0</ele><time>2026-05-02T13:29:47Z</time></trkpt><trkpt lat="44.211934442881315" lon="10.300996984868641"><ele>625.0</ele><time>2026-05-02T13:29:48Z</time></trkpt><trkpt lat="44.21177406022556" lon="10.300973248080282"><ele>625.0</ele><time>2026-05-02T13:29:49Z</time></trkpt><trkpt lat="44.21160678544471" lon="10.300983620610179"><ele>625.0</ele><time>2026-05-02T13:29:50Z</time></trkpt><trkpt lat="44.21146957425357" lon="10.300966509881768"><ele>626.5</ele><time>2026-05-02T13:29:51Z</time></trkpt><trkpt lat="44.21136367152449" lon="10.300898450175268"><ele>628.0</ele><time>2026-05-02T13:29:52Z</time></trkpt><trkpt lat="44.211260964061516" lon="10.300783204875772"><ele>629.5</ele><time>2026-05-02T13:29:53Z</time></trkpt><trkpt lat="44.21113361079417" lon="10.300672708654258"><ele>631.0</ele><time>2026-05-02T13:29:54Z</time></trkpt><trkpt lat="44.21102071468359" lon="10.300558412513332"><ele>625.0</ele><time>2026-05-02T13:29:55Z</time></trkpt><trkpt lat="44.2108872924923" lon="10.300504679778653"><ele>619.0</ele><time>2026-05-02T13:29:56Z</time></trkpt><trkpt lat="44.21074332553911" lon="10.300496939859721"><ele>613.0</ele><time>2026-05-02T13:29:57Z</time></trkpt><trkpt lat="44.21061852064365" lon="10.300545191387588"><ele>607.0</ele><time>2026-05-02T13:29:58Z</time></trkpt><trkpt lat="44.21051357575622" lon="10.300632482637576"><ele>607.0</ele><time>2026-05-02T13:29:59Z</time></trkpt><trkpt lat="44.210411295849426" lon="10.30079833438765"><ele>607.0</ele><time>2026-05-02T13:30:00Z</time></trkpt><trkpt lat="44.210334291485175" lon="10.30097117355066"><ele>607.0</ele><time>2026-05-02T13:30:01Z</time></trkpt><trkpt lat="44.210235175785016" lon="10.30108580808437"><ele>607.0</ele><time>2026-05-02T13:30:02Z</time></trkpt><trkpt lat="44.21013757025021" lon="10.301165015076483"><ele>607.0</ele><time>2026-05-02T13:30:03Z</time></trkpt><trkpt lat="44.2100255303745" lon="10.301190205055715"><ele>607.0</ele><time>2026-05-02T13:30:04Z</time></trkpt><trkpt lat="44.209909997152955" lon="10.301236610841698"><ele>607.0</ele><time>2026-05-02T13:30:05Z</time></trkpt><trkpt lat="44.20979115686032" lon="10.30131755538007"><ele>607.0</ele><time>2026-05-02T13:30:06Z</time></trkpt><trkpt lat="44.20965861394348" lon="10.301420679861918"><ele>607.3333333333334</ele><time>2026-05-02T13:30:07Z</time></trkpt><trkpt lat="44.209492302718026" lon="10.301547631031324"><ele>607.6666666666666</ele><time>2026-05-02T13:30:08Z</time></trkpt><trkpt lat="44.2093042961361" lon="10.301709365192313"><ele>608.0</ele><time>2026-05-02T13:30:09Z</time></trkpt><trkpt lat="44.209124018976944" lon="10.30188581399503"><ele>601.0</ele><time>2026-05-02T13:30:10Z</time></trkpt><trkpt lat="44.20893350670869" lon="10.302030183642879"><ele>594.0</ele><time>2026-05-02T13:30:11Z</time></trkpt><trkpt lat="44.20875524601702" lon="10.302154911410321"><ele>587.0</ele><time>2026-05-02T13:30:12Z</time></trkpt><trkpt lat="44.20856334709523" lon="10.302204116834119"><ele>593.0</ele><time>2026-05-02T13:30:12.999Z</time></trkpt><trkpt lat="44.208394817723814" lon="10.302300096916449"><ele>599.0</ele><time>2026-05-02T13:30:13.999Z</time></trkpt><trkpt lat="44.208244272946175" lon="10.302408632468019"><ele>605.0</ele><time>2026-05-02T13:30:14.999Z</time></trkpt><trkpt lat="44.20812304452476" lon="10.30252288660599"><ele>605.0</ele><time>2026-05-02T13:30:15.999Z</time></trkpt><trkpt lat="44.207990022733675" lon="10.302580980654833"><ele>605.0</ele><time>2026-05-02T13:30:16.999Z</time></trkpt><trkpt lat="44.2078461463409" lon="10.302550576215763"><ele>605.0</ele><time>2026-05-02T13:30:17.999Z</time></trkpt><trkpt lat="44.20768618892458" lon="10.302530557649522"><ele>605.0</ele><time>2026-05-02T13:30:18.999Z</time></trkpt><trkpt lat="44.20754044485188" lon="10.302510300512612"><ele>605.0</ele><time>2026-05-02T13:30:19.999Z</time></trkpt><trkpt lat="44.207391716881496" lon="10.302554311037888"><ele>605.0</ele><time>2026-05-02T13:30:20.999Z</time></trkpt><trkpt lat="44.20724443953536" lon="10.302627907977813"><ele>605.0</ele><time>2026-05-02T13:30:21.999Z</time></trkpt><trkpt lat="44.20710079619573" lon="10.302654584469368"><ele>603.6666666666666</ele><time>2026-05-02T13:30:22.999Z</time></trkpt><trkpt lat="44.20695429283732" lon="10.302560987148112"><ele>602.3333333333334</ele><time>2026-05-02T13:30:23.999Z</time></trkpt><trkpt lat="44.206769863008816" lon="10.302502454689634"><ele>601.0</ele><time>2026-05-02T13:30:24.999Z</time></trkpt><trkpt lat="44.20660204015919" lon="10.302418517195589"><ele>599.75</ele><time>2026-05-02T13:30:25.999Z</time></trkpt><trkpt lat="44.20644973238649" lon="10.302356065509988"><ele>598.5</ele><time>2026-05-02T13:30:26.999Z</time></trkpt><trkpt lat="44.206326757050675" lon="10.302301022945493"><ele>597.25</ele><time>2026-05-02T13:30:27.999Z</time></trkpt><trkpt lat="44.20622372795313" lon="10.302281748676844"><ele>596.0</ele><time>2026-05-02T13:30:28.999Z</time></trkpt><trkpt lat="44.206126464158956" lon="10.302324146233277"><ele>596.0</ele><time>2026-05-02T13:30:29.999Z</time></trkpt><trkpt lat="44.20604362267023" lon="10.302442030822093"><ele>596.0</ele><time>2026-05-02T13:30:30.999Z</time></trkpt><trkpt lat="44.2059728676477" lon="10.302602085430221"><ele>596.0</ele><time>2026-05-02T13:30:31.999Z</time></trkpt><trkpt lat="44.205897302570335" lon="10.30273846550377"><ele>596.0</ele><time>2026-05-02T13:30:32.999Z</time></trkpt><trkpt lat="44.20576930764737" lon="10.302736734756133"><ele>595.0</ele><time>2026-05-02T13:30:33.999Z</time></trkpt><trkpt lat="44.20562886084313" lon="10.302746101173028"><ele>594.0</ele><time>2026-05-02T13:30:34.999Z</time></trkpt><trkpt lat="44.20549115635014" lon="10.302776231409936"><ele>593.0</ele><time>2026-05-02T13:30:35.999Z</time></trkpt><trkpt lat="44.20537397801889" lon="10.302767457052603"><ele>592.0</ele><time>2026-05-02T13:30:36.999Z</time></trkpt><trkpt lat="44.205269305601654" lon="10.302702982620689"><ele>592.0</ele><time>2026-05-02T13:30:37.999Z</time></trkpt><trkpt lat="44.20519241836132" lon="10.302559453235233"><ele>592.0</ele><time>2026-05-02T13:30:38.999Z</time></trkpt><trkpt lat="44.20509319611023" lon="10.302475878490064"><ele>592.0</ele><time>2026-05-02T13:30:39.999Z</time></trkpt><trkpt lat="44.20498552280412" lon="10.30244741116009"><ele>592.0</ele><time>2026-05-02T13:30:40.999Z</time></trkpt><trkpt lat="44.204870931767694" lon="10.30249195598846"><ele>592.5</ele><time>2026-05-02T13:30:41.999Z</time></trkpt><trkpt lat="44.20477698516418" lon="10.302621636581557"><ele>593.0</ele><time>2026-05-02T13:30:42.999Z</time></trkpt><trkpt lat="44.20470051345297" lon="10.302783890211582"><ele>593.5</ele><time>2026-05-02T13:30:43.999Z</time></trkpt><trkpt lat="44.2046311076155" lon="10.30297852918562"><ele>594.0</ele><time>2026-05-02T13:30:44.999Z</time></trkpt><trkpt lat="44.20453413543746" lon="10.303123177622668"><ele>594.0</ele><time>2026-05-02T13:30:45.999Z</time></trkpt><trkpt lat="44.20442749363497" lon="10.303223161599117"><ele>594.0</ele><time>2026-05-02T13:30:46.999Z</time></trkpt><trkpt lat="44.20429707053228" lon="10.303270202278762"><ele>594.0</ele><time>2026-05-02T13:30:47.999Z</time></trkpt><trkpt lat="44.20414651779826" lon="10.303265416031884"><ele>594.0</ele><time>2026-05-02T13:30:48.999Z</time></trkpt><trkpt lat="44.20398486382498" lon="10.303233424332909"><ele>592.3333333333334</ele><time>2026-05-02T13:30:49.999Z</time></trkpt><trkpt lat="44.203825863097265" lon="10.303206900211984"><ele>590.6666666666667</ele><time>2026-05-02T13:30:50.999Z</time></trkpt><trkpt lat="44.203677017170065" lon="10.303182225960734"><ele>589.0</ele><time>2026-05-02T13:30:51.999Z</time></trkpt><trkpt lat="44.203531207350615" lon="10.303184425590532"><ele>589.0</ele><time>2026-05-02T13:30:52.999Z</time></trkpt><trkpt lat="44.20339196114849" lon="10.30321355017698"><ele>589.0</ele><time>2026-05-02T13:30:53.999Z</time></trkpt><trkpt lat="44.20324866388746" lon="10.303295188274424"><ele>589.0</ele><time>2026-05-02T13:30:54.999Z</time></trkpt><trkpt lat="44.203102312761416" lon="10.303401729981085"><ele>587.5</ele><time>2026-05-02T13:30:55.999Z</time></trkpt><trkpt lat="44.20296745999899" lon="10.303511578444878"><ele>586.0</ele><time>2026-05-02T13:30:56.999Z</time></trkpt><trkpt lat="44.20284975752648" lon="10.303630668861016"><ele>584.5</ele><time>2026-05-02T13:30:57.999Z</time></trkpt><trkpt lat="44.202752766474674" lon="10.303772809665029"><ele>583.0</ele><time>2026-05-02T13:30:58.999Z</time></trkpt><trkpt lat="44.20269356892993" lon="10.30394266257571"><ele>584.8</ele><time>2026-05-02T13:30:59.999Z</time></trkpt><trkpt lat="44.202646221173495" lon="10.304090378300252"><ele>586.5999999999999</ele><time>2026-05-02T13:31:00.999Z</time></trkpt><trkpt lat="44.20257880559985" lon="10.304174264281558"><ele>588.4000000000001</ele><time>2026-05-02T13:31:01.999Z</time></trkpt><trkpt lat="44.20247419771247" lon="10.30415413832825"><ele>590.2</ele><time>2026-05-02T13:31:02.999Z</time></trkpt><trkpt lat="44.20237439786778" lon="10.304150465317857"><ele>592.0</ele><time>2026-05-02T13:31:03.999Z</time></trkpt><trkpt lat="44.20226850259252" lon="10.304099691241248"><ele>592.0</ele><time>2026-05-02T13:31:04.999Z</time></trkpt><trkpt lat="44.20219291841159" lon="10.30396125297733"><ele>592.0</ele><time>2026-05-02T13:31:05.999Z</time></trkpt><trkpt lat="44.20208930939283" lon="10.303849653588827"><ele>592.0</ele><time>2026-05-02T13:31:06.999Z</time></trkpt><trkpt lat="44.20199430583572" lon="10.303749647535563"><ele>592.0</ele><time>2026-05-02T13:31:07.999Z</time></trkpt><trkpt lat="44.20188945479538" lon="10.30370185208956"><ele>588.3333333333334</ele><time>2026-05-02T13:31:08.999Z</time></trkpt><trkpt lat="44.20174550012243" lon="10.303777427967837"><ele>584.6666666666666</ele><time>2026-05-02T13:31:09.999Z</time></trkpt><trkpt lat="44.20161049189681" lon="10.303890735319007"><ele>581.0</ele><time>2026-05-02T13:31:10.999Z</time></trkpt><trkpt lat="44.2014615930963" lon="10.304013452158776"><ele>581.0</ele><time>2026-05-02T13:31:11.999Z</time></trkpt><trkpt lat="44.20129472482064" lon="10.3041394748073"><ele>581.0</ele><time>2026-05-02T13:31:12.999Z</time></trkpt><trkpt lat="44.201119141238344" lon="10.30426186179484"><ele>581.0</ele><time>2026-05-02T13:31:13.999Z</time></trkpt><trkpt lat="44.200949812233276" lon="10.304365868849805"><ele>581.0</ele><time>2026-05-02T13:31:14.999Z</time></trkpt><trkpt lat="44.200779135574756" lon="10.304416154680705"><ele>581.0</ele><time>2026-05-02T13:31:15.999Z</time></trkpt><trkpt lat="44.200607477424036" lon="10.30447423707142"><ele>581.0</ele><time>2026-05-02T13:31:16.999Z</time></trkpt><trkpt lat="44.200422351718274" lon="10.304460009949427"><ele>578.6666666666666</ele><time>2026-05-02T13:31:17.999Z</time></trkpt><trkpt lat="44.20022343337205" lon="10.304446173129666"><ele>576.3333333333334</ele><time>2026-05-02T13:31:18.998Z</time></trkpt><trkpt lat="44.200031556610405" lon="10.30443925477808"><ele>574.0</ele><time>2026-05-02T13:31:19.998Z</time></trkpt><trkpt lat="44.19986567664293" lon="10.304444006623232"><ele>570.75</ele><time>2026-05-02T13:31:20.998Z</time></trkpt><trkpt lat="44.1997299209282" lon="10.304464703571105"><ele>567.5</ele><time>2026-05-02T13:31:21.998Z</time></trkpt><trkpt lat="44.19960168564264" lon="10.304543853972808"><ele>564.25</ele><time>2026-05-02T13:31:22.998Z</time></trkpt><trkpt lat="44.19946837447705" lon="10.304673905923677"><ele>561.0</ele><time>2026-05-02T13:31:23.998Z</time></trkpt><trkpt lat="44.199340967684186" lon="10.304803247146852"><ele>569.3333333333334</ele><time>2026-05-02T13:31:24.998Z</time></trkpt><trkpt lat="44.19919093891354" lon="10.304872881024682"><ele>577.6666666666667</ele><time>2026-05-02T13:31:25.998Z</time></trkpt><trkpt lat="44.199041604889054" lon="10.304896893892113"><ele>586.0</ele><time>2026-05-02T13:31:26.998Z</time></trkpt><trkpt lat="44.19887687838665" lon="10.304891615750899"><ele>586.0</ele><time>2026-05-02T13:31:27.998Z</time></trkpt><trkpt lat="44.198740862099264" lon="10.304898819715559"><ele>586.0</ele><time>2026-05-02T13:31:28.998Z</time></trkpt><trkpt lat="44.19863600691829" lon="10.30493385188974"><ele>586.0</ele><time>2026-05-02T13:31:29.998Z</time></trkpt><trkpt lat="44.19855345629395" lon="10.30502668287284"><ele>586.0</ele><time>2026-05-02T13:31:30.998Z</time></trkpt><trkpt lat="44.19849086053418" lon="10.30517335706378"><ele>586.0</ele><time>2026-05-02T13:31:31.998Z</time></trkpt><trkpt lat="44.19844377192008" lon="10.30532489612679"><ele>586.0</ele><time>2026-05-02T13:31:32.998Z</time></trkpt><trkpt lat="44.19837712439197" lon="10.305434755511444"><ele>586.0</ele><time>2026-05-02T13:31:33.998Z</time></trkpt><trkpt lat="44.19828798339838" lon="10.305493571465222"><ele>586.0</ele><time>2026-05-02T13:31:34.998Z</time></trkpt><trkpt lat="44.198194397867624" lon="10.305483695576152"><ele>586.0</ele><time>2026-05-02T13:31:35.998Z</time></trkpt><trkpt lat="44.198104900719294" lon="10.305391562088133"><ele>588.0</ele><time>2026-05-02T13:31:36.998Z</time></trkpt><trkpt lat="44.19805131833639" lon="10.305265806786414"><ele>590.0</ele><time>2026-05-02T13:31:37.998Z</time></trkpt><trkpt lat="44.198004684236054" lon="10.30509657704747"><ele>592.0</ele><time>2026-05-02T13:31:38.998Z</time></trkpt><trkpt lat="44.197926592474886" lon="10.304927423113053"><ele>594.0</ele><time>2026-05-02T13:31:39.998Z</time></trkpt><trkpt lat="44.19783688549442" lon="10.304777672176483"><ele>586.6666666666666</ele><time>2026-05-02T13:31:40.998Z</time></trkpt><trkpt lat="44.19771473788723" lon="10.304675439384736"><ele>579.3333333333333</ele><time>2026-05-02T13:31:41.998Z</time></trkpt><trkpt lat="44.19757755838497" lon="10.304607773218752"><ele>572.0</ele><time>2026-05-02T13:31:42.998Z</time></trkpt><trkpt lat="44.197408268805475" lon="10.304566623208375"><ele>574.0</ele><time>2026-05-02T13:31:44Z</time></trkpt><trkpt lat="44.197225815723534" lon="10.30455853490479"><ele>576.0</ele><time>2026-05-02T13:31:45Z</time></trkpt><trkpt lat="44.19704457323146" lon="10.304553448536701"><ele>578.0</ele><time>2026-05-02T13:31:46Z</time></trkpt><trkpt lat="44.19686322647562" lon="10.304537482336084"><ele>578.0</ele><time>2026-05-02T13:31:47Z</time></trkpt><trkpt lat="44.19668589181602" lon="10.304515522643705"><ele>578.0</ele><time>2026-05-02T13:31:48Z</time></trkpt><trkpt lat="44.19652426431228" lon="10.304492591980365"><ele>578.0</ele><time>2026-05-02T13:31:49Z</time></trkpt><trkpt lat="44.196362787179666" lon="10.304463643534968"><ele>576.6666666666666</ele><time>2026-05-02T13:31:50Z</time></trkpt><trkpt lat="44.19620211926212" lon="10.304454706516086"><ele>575.3333333333334</ele><time>2026-05-02T13:31:51Z</time></trkpt><trkpt lat="44.196032883609696" lon="10.304453562529083"><ele>574.0</ele><time>2026-05-02T13:31:52Z</time></trkpt><trkpt lat="44.19585787459657" lon="10.304477005232357"><ele>574.0</ele><time>2026-05-02T13:31:53Z</time></trkpt><trkpt lat="44.195676263212405" lon="10.304532016158443"><ele>574.0</ele><time>2026-05-02T13:31:54Z</time></trkpt><trkpt lat="44.1955067879449" lon="10.30458775519093"><ele>574.0</ele><time>2026-05-02T13:31:55Z</time></trkpt><trkpt lat="44.195338267409454" lon="10.30461697002053"><ele>570.6666666666667</ele><time>2026-05-02T13:31:56Z</time></trkpt><trkpt lat="44.19518049684413" lon="10.304645635163467"><ele>567.3333333333334</ele><time>2026-05-02T13:31:57Z</time></trkpt><trkpt lat="44.195031090413444" lon="10.304696639983375"><ele>564.0</ele><time>2026-05-02T13:31:58Z</time></trkpt><trkpt lat="44.19489040206647" lon="10.304792081841944"><ele>568.3333333333334</ele><time>2026-05-02T13:31:59Z</time></trkpt><trkpt lat="44.194762888223444" lon="10.30493549815319"><ele>572.6666666666667</ele><time>2026-05-02T13:32:00Z</time></trkpt><trkpt lat="44.194636827780464" lon="10.305069104292476"><ele>577.0</ele><time>2026-05-02T13:32:01Z</time></trkpt><trkpt lat="44.19452871970735" lon="10.305202889041807"><ele>577.0</ele><time>2026-05-02T13:32:02Z</time></trkpt><trkpt lat="44.19443763478231" lon="10.305301220469145"><ele>577.0</ele><time>2026-05-02T13:32:03Z</time></trkpt><trkpt lat="44.194330792086966" lon="10.305309040871109"><ele>577.0</ele><time>2026-05-02T13:32:04Z</time></trkpt><trkpt lat="44.19421984335871" lon="10.305274567724357"><ele>577.0</ele><time>2026-05-02T13:32:05Z</time></trkpt><trkpt lat="44.19411592225582" lon="10.305164802580133"><ele>577.0</ele><time>2026-05-02T13:32:06Z</time></trkpt><trkpt lat="44.194007117611164" lon="10.305035241040187"><ele>577.0</ele><time>2026-05-02T13:32:07Z</time></trkpt><trkpt lat="44.19388774192174" lon="10.304957536673745"><ele>577.0</ele><time>2026-05-02T13:32:08Z</time></trkpt><trkpt lat="44.19373382757402" lon="10.304932478024545"><ele>577.0</ele><time>2026-05-02T13:32:09Z</time></trkpt><trkpt lat="44.193541968476936" lon="10.304987391828536"><ele>576.0</ele><time>2026-05-02T13:32:10Z</time></trkpt><trkpt lat="44.19338305575907" lon="10.305157264788086"><ele>575.0</ele><time>2026-05-02T13:32:11Z</time></trkpt><trkpt lat="44.193239179277384" lon="10.305302467045871"><ele>574.0</ele><time>2026-05-02T13:32:13Z</time></trkpt><trkpt lat="44.19309506022682" lon="10.305394455011589"><ele>574.0</ele><time>2026-05-02T13:32:14Z</time></trkpt><trkpt lat="44.192924817425705" lon="10.305424466616964"><ele>574.0</ele><time>2026-05-02T13:32:15Z</time></trkpt><trkpt lat="44.19277698631264" lon="10.30545951373119"><ele>574.0</ele><time>2026-05-02T13:32:15.999Z</time></trkpt><trkpt lat="44.192666492321806" lon="10.305457324854917"><ele>574.0</ele><time>2026-05-02T13:32:16.999Z</time></trkpt><trkpt lat="44.19256337367177" lon="10.30540998378533"><ele>574.0</ele><time>2026-05-02T13:32:17.999Z</time></trkpt><trkpt lat="44.19250008034067" lon="10.305276620015677"><ele>574.0</ele><time>2026-05-02T13:32:18.999Z</time></trkpt><trkpt lat="44.192398535338384" lon="10.305111681509745"><ele>574.0</ele><time>2026-05-02T13:32:19.999Z</time></trkpt><trkpt lat="44.19228529445549" lon="10.30491408011786"><ele>574.3333333333334</ele><time>2026-05-02T13:32:20.999Z</time></trkpt><trkpt lat="44.19217901854183" lon="10.304712402230829"><ele>574.6666666666666</ele><time>2026-05-02T13:32:21.999Z</time></trkpt><trkpt lat="44.192115838151295" lon="10.304510123666395"><ele>575.0</ele><time>2026-05-02T13:32:22.999Z</time></trkpt><trkpt lat="44.192060036080164" lon="10.304332107512952"><ele>575.0</ele><time>2026-05-02T13:32:23.999Z</time></trkpt><trkpt lat="44.19198815592971" lon="10.304194416648269"><ele>575.0</ele><time>2026-05-02T13:32:24.999Z</time></trkpt><trkpt lat="44.191917423255695" lon="10.304079755533309"><ele>575.0</ele><time>2026-05-02T13:32:25.999Z</time></trkpt><trkpt lat="44.191809948924735" lon="10.304015820853365"><ele>575.0</ele><time>2026-05-02T13:32:26.999Z</time></trkpt><trkpt lat="44.19166491137838" lon="10.304014322182853"><ele>575.0</ele><time>2026-05-02T13:32:27.999Z</time></trkpt><trkpt lat="44.19152535318784" lon="10.303969100294202"><ele>575.0</ele><time>2026-05-02T13:32:28.999Z</time></trkpt><trkpt lat="44.19140861604635" lon="10.303845982565324"><ele>575.0</ele><time>2026-05-02T13:32:29.999Z</time></trkpt><trkpt lat="44.191281132079055" lon="10.303694583947497"><ele>572.6666666666666</ele><time>2026-05-02T13:32:30.999Z</time></trkpt><trkpt lat="44.19114287996501" lon="10.303531564878403"><ele>570.3333333333334</ele><time>2026-05-02T13:32:31.999Z</time></trkpt><trkpt lat="44.191005284223394" lon="10.30337043643964"><ele>568.0</ele><time>2026-05-02T13:32:32.999Z</time></trkpt><trkpt lat="44.19086525112521" lon="10.303230281836337"><ele>568.0</ele><time>2026-05-02T13:32:33.999Z</time></trkpt><trkpt lat="44.19074558106507" lon="10.30309064547871"><ele>568.0</ele><time>2026-05-02T13:32:34.999Z</time></trkpt><trkpt lat="44.190630701864265" lon="10.302977834352019"><ele>568.0</ele><time>2026-05-02T13:32:35.999Z</time></trkpt><trkpt lat="44.190504041908" lon="10.302890730763602"><ele>568.0</ele><time>2026-05-02T13:32:36.999Z</time></trkpt><trkpt lat="44.190380161316355" lon="10.302806824686167"><ele>564.5</ele><time>2026-05-02T13:32:37.999Z</time></trkpt><trkpt lat="44.19025914683378" lon="10.302739413205622"><ele>561.0</ele><time>2026-05-02T13:32:38.999Z</time></trkpt><trkpt lat="44.19012120585151" lon="10.302686973530472"><ele>557.5</ele><time>2026-05-02T13:32:39.999Z</time></trkpt><trkpt lat="44.18997077305669" lon="10.302656964022633"><ele>554.0</ele><time>2026-05-02T13:32:40.999Z</time></trkpt><trkpt lat="44.18980336601115" lon="10.302645518442345"><ele>552.0</ele><time>2026-05-02T13:32:41.999Z</time></trkpt><trkpt lat="44.189595790090046" lon="10.302681280685869"><ele>550.0</ele><time>2026-05-02T13:32:42.999Z</time></trkpt><trkpt lat="44.18936705264554" lon="10.302717078741672"><ele>548.0</ele><time>2026-05-02T13:32:43.999Z</time></trkpt><trkpt lat="44.18913942337204" lon="10.302733136604228"><ele>546.6666666666666</ele><time>2026-05-02T13:32:44.999Z</time></trkpt><trkpt lat="44.18892105710631" lon="10.302731986342948"><ele>545.3333333333334</ele><time>2026-05-02T13:32:45.999Z</time></trkpt><trkpt lat="44.18872162502309" lon="10.302713324773505"><ele>544.0</ele><time>2026-05-02T13:32:46.999Z</time></trkpt><trkpt lat="44.188549420545556" lon="10.30263450220967"><ele>544.0</ele><time>2026-05-02T13:32:47.999Z</time></trkpt><trkpt lat="44.188398862651596" lon="10.302605903779519"><ele>544.0</ele><time>2026-05-02T13:32:48.999Z</time></trkpt><trkpt lat="44.188269767519245" lon="10.302583365981748"><ele>544.0</ele><time>2026-05-02T13:32:49.999Z</time></trkpt><trkpt lat="44.188155185332946" lon="10.302661414857457"><ele>544.0</ele><time>2026-05-02T13:32:50.999Z</time></trkpt><trkpt lat="44.18803377156475" lon="10.302772574900622"><ele>539.0</ele><time>2026-05-02T13:32:51.999Z</time></trkpt><trkpt lat="44.187894561319496" lon="10.302898443250212"><ele>534.0</ele><time>2026-05-02T13:32:52.999Z</time></trkpt><trkpt lat="44.1877528929239" lon="10.303021439604885"><ele>529.0</ele><time>2026-05-02T13:32:53.999Z</time></trkpt><trkpt lat="44.187602293663424" lon="10.303068027005098"><ele>529.0</ele><time>2026-05-02T13:32:54.999Z</time></trkpt><trkpt lat="44.187462321211775" lon="10.303059218361902"><ele>529.0</ele><time>2026-05-02T13:32:55.999Z</time></trkpt><trkpt lat="44.18735240925362" lon="10.30297678268256"><ele>529.0</ele><time>2026-05-02T13:32:56.999Z</time></trkpt><trkpt lat="44.18722110835029" lon="10.302889614082872"><ele>529.0</ele><time>2026-05-02T13:32:57.999Z</time></trkpt><trkpt lat="44.18708600430917" lon="10.302842207948975"><ele>527.0</ele><time>2026-05-02T13:32:58.999Z</time></trkpt><trkpt lat="44.18695363298603" lon="10.302799345240885"><ele>525.0</ele><time>2026-05-02T13:32:59.999Z</time></trkpt><trkpt lat="44.18681620777066" lon="10.302799120664314"><ele>523.0</ele><time>2026-05-02T13:33:00.999Z</time></trkpt><trkpt lat="44.18669506948474" lon="10.30281197010212"><ele>521.0</ele><time>2026-05-02T13:33:01.999Z</time></trkpt><trkpt lat="44.18660127317277" lon="10.302892524795661"><ele>521.0</ele><time>2026-05-02T13:33:02.999Z</time></trkpt><trkpt lat="44.186514849917195" lon="10.303001762147344"><ele>521.0</ele><time>2026-05-02T13:33:03.999Z</time></trkpt><trkpt lat="44.18641191534385" lon="10.303134748191901"><ele>521.0</ele><time>2026-05-02T13:33:04.999Z</time></trkpt><trkpt lat="44.18631029278827" lon="10.303291306319046"><ele>521.0</ele><time>2026-05-02T13:33:05.999Z</time></trkpt><trkpt lat="44.186204144975804" lon="10.303415317883799"><ele>522.0</ele><time>2026-05-02T13:33:06.999Z</time></trkpt><trkpt lat="44.18606610713052" lon="10.303465526529648"><ele>523.0</ele><time>2026-05-02T13:33:07.999Z</time></trkpt><trkpt lat="44.18591893114793" lon="10.303512113019757"><ele>524.0</ele><time>2026-05-02T13:33:08.999Z</time></trkpt><trkpt lat="44.18578084073254" lon="10.303560278585644"><ele>525.0</ele><time>2026-05-02T13:33:09.999Z</time></trkpt><trkpt lat="44.185635715242356" lon="10.303610428438269"><ele>521.75</ele><time>2026-05-02T13:33:10.999Z</time></trkpt><trkpt lat="44.18550022906664" lon="10.303672886471972"><ele>518.5</ele><time>2026-05-02T13:33:11.999Z</time></trkpt><trkpt lat="44.18537100964704" lon="10.303725113724706"><ele>515.25</ele><time>2026-05-02T13:33:12.999Z</time></trkpt><trkpt lat="44.18524449269186" lon="10.303774405402658"><ele>512.0</ele><time>2026-05-02T13:33:13.999Z</time></trkpt><trkpt lat="44.18512975580739" lon="10.303830091108798"><ele>512.0</ele><time>2026-05-02T13:33:14.999Z</time></trkpt><trkpt lat="44.18503103688414" lon="10.303902946862905"><ele>512.0</ele><time>2026-05-02T13:33:15.999Z</time></trkpt><trkpt lat="44.18494841160016" lon="10.304005416342925"><ele>512.0</ele><time>2026-05-02T13:33:16.999Z</time></trkpt><trkpt lat="44.18487767887767" lon="10.30412313184068"><ele>512.0</ele><time>2026-05-02T13:33:17.999Z</time></trkpt><trkpt lat="44.18477849712871" lon="10.30418602053737"><ele>512.0</ele><time>2026-05-02T13:33:18.999Z</time></trkpt><trkpt lat="44.18467728490782" lon="10.304230113217029"><ele>513.2</ele><time>2026-05-02T13:33:19.999Z</time></trkpt><trkpt lat="44.18458363264587" lon="10.304301403578773"><ele>514.4000000000001</ele><time>2026-05-02T13:33:20.999Z</time></trkpt><trkpt lat="44.18449876454389" lon="10.304345412626171"><ele>515.5999999999999</ele><time>2026-05-02T13:33:21.999Z</time></trkpt><trkpt lat="44.18443413295065" lon="10.304380624311499"><ele>516.8</ele><time>2026-05-02T13:33:22.999Z</time></trkpt><trkpt lat="44.184335402752865" lon="10.304431030771157"><ele>518.0</ele><time>2026-05-02T13:33:24.999Z</time></trkpt><trkpt lat="44.18425082036265" lon="10.304444571320728"><ele>518.0</ele><time>2026-05-02T13:33:30.998Z</time></trkpt><trkpt lat="44.184151186197376" lon="10.304458959751242"><ele>518.0</ele><time>2026-05-02T13:33:33.998Z</time></trkpt><trkpt lat="44.18412320021006" lon="10.304603561133714"><ele>518.0</ele><time>2026-05-02T13:33:34.998Z</time></trkpt><trkpt lat="44.184064256393874" lon="10.304787517183634"><ele>518.0</ele><time>2026-05-02T13:33:36.998Z</time></trkpt><trkpt lat="44.184027181231606" lon="10.304922390515287"><ele>517.5</ele><time>2026-05-02T13:33:37.998Z</time></trkpt><trkpt lat="44.18399892720262" lon="10.305066001100307"><ele>517.0</ele><time>2026-05-02T13:33:38.998Z</time></trkpt><trkpt lat="44.18398717955626" lon="10.305228508466223"><ele>516.5</ele><time>2026-05-02T13:33:39.998Z</time></trkpt><trkpt lat="44.18397264621397" lon="10.305406643754246"><ele>516.0</ele><time>2026-05-02T13:33:40.998Z</time></trkpt><trkpt lat="44.18397020115862" lon="10.305594913340101"><ele>511.33333333333337</ele><time>2026-05-02T13:33:41.998Z</time></trkpt><trkpt lat="44.18396756323791" lon="10.305798032876504"><ele>506.6666666666667</ele><time>2026-05-02T13:33:42.998Z</time></trkpt><trkpt lat="44.18396698050518" lon="10.306017137418317"><ele>502.0</ele><time>2026-05-02T13:33:43.998Z</time></trkpt><trkpt lat="44.18395413264775" lon="10.306231397283028"><ele>499.5</ele><time>2026-05-02T13:33:44.998Z</time></trkpt><trkpt lat="44.18392691028264" lon="10.306430482795811"><ele>497.0</ele><time>2026-05-02T13:33:45.998Z</time></trkpt><trkpt lat="44.183897926051564" lon="10.306631379010103"><ele>494.5</ele><time>2026-05-02T13:33:46.998Z</time></trkpt><trkpt lat="44.18386761428247" lon="10.30683994627094"><ele>492.0</ele><time>2026-05-02T13:33:47.998Z</time></trkpt><trkpt lat="44.1838364426344" lon="10.307050373401376"><ele>498.0</ele><time>2026-05-02T13:33:48.998Z</time></trkpt><trkpt lat="44.18379788170039" lon="10.307260519369681"><ele>504.0</ele><time>2026-05-02T13:33:50Z</time></trkpt><trkpt lat="44.18373650434429" lon="10.307461363210383"><ele>510.0</ele><time>2026-05-02T13:33:51Z</time></trkpt><trkpt lat="44.18366264884129" lon="10.307657101953458"><ele>510.0</ele><time>2026-05-02T13:33:52Z</time></trkpt><trkpt lat="44.183591571807014" lon="10.30785981754794"><ele>510.0</ele><time>2026-05-02T13:33:53Z</time></trkpt><trkpt lat="44.183497799454756" lon="10.308031389264274"><ele>510.0</ele><time>2026-05-02T13:33:54Z</time></trkpt><trkpt lat="44.18339243260674" lon="10.308171695345946"><ele>507.66666666666663</ele><time>2026-05-02T13:33:55Z</time></trkpt><trkpt lat="44.18327947223073" lon="10.308283265233888"><ele>505.3333333333333</ele><time>2026-05-02T13:33:56Z</time></trkpt><trkpt lat="44.18314869056934" lon="10.30839057429889"><ele>503.0</ele><time>2026-05-02T13:33:57Z</time></trkpt><trkpt lat="44.182998875675" lon="10.308484526766835"><ele>503.0</ele><time>2026-05-02T13:33:58Z</time></trkpt><trkpt lat="44.18282772653171" lon="10.308546208727451"><ele>503.0</ele><time>2026-05-02T13:33:59Z</time></trkpt><trkpt lat="44.182643999843435" lon="10.308578209450399"><ele>503.0</ele><time>2026-05-02T13:34:00Z</time></trkpt><trkpt lat="44.18245642771472" lon="10.308595408758881"><ele>508.0</ele><time>2026-05-02T13:34:01Z</time></trkpt><trkpt lat="44.182275480638864" lon="10.308614356946673"><ele>513.0</ele><time>2026-05-02T13:34:02Z</time></trkpt><trkpt lat="44.182094205702995" lon="10.308636081935557"><ele>518.0</ele><time>2026-05-02T13:34:03Z</time></trkpt><trkpt lat="44.181918529820614" lon="10.308663068833647"><ele>518.0</ele><time>2026-05-02T13:34:04Z</time></trkpt><trkpt lat="44.181745521361435" lon="10.308687377798899"><ele>518.0</ele><time>2026-05-02T13:34:05Z</time></trkpt><trkpt lat="44.18157621894658" lon="10.308714198983335"><ele>518.0</ele><time>2026-05-02T13:34:06Z</time></trkpt><trkpt lat="44.18141974532505" lon="10.308747729851012"><ele>519.0</ele><time>2026-05-02T13:34:07Z</time></trkpt><trkpt lat="44.18126714450859" lon="10.308793921801534"><ele>520.0</ele><time>2026-05-02T13:34:08Z</time></trkpt><trkpt lat="44.181116219570086" lon="10.308860646672084"><ele>521.0</ele><time>2026-05-02T13:34:09Z</time></trkpt><trkpt lat="44.18096152967543" lon="10.308931181207923"><ele>521.0</ele><time>2026-05-02T13:34:10.02Z</time></trkpt><trkpt lat="44.18082135570538" lon="10.309024580336084"><ele>521.0</ele><time>2026-05-02T13:34:11.026Z</time></trkpt><trkpt lat="44.18070402777059" lon="10.309147806457055"><ele>521.0</ele><time>2026-05-02T13:34:12.018Z</time></trkpt><trkpt lat="44.18064160728098" lon="10.309322395583708"><ele>521.0</ele><time>2026-05-02T13:34:13Z</time></trkpt><trkpt lat="44.18043268926816" lon="10.309545990523702"><ele>517.6666666666666</ele><time>2026-05-02T13:34:14Z</time></trkpt><trkpt lat="44.180292559836175" lon="10.309686560143945"><ele>514.3333333333334</ele><time>2026-05-02T13:34:15Z</time></trkpt><trkpt lat="44.18014508133905" lon="10.309805723697794"><ele>511.0</ele><time>2026-05-02T13:34:16Z</time></trkpt><trkpt lat="44.179975587594484" lon="10.309871175005545"><ele>507.0</ele><time>2026-05-02T13:34:17Z</time></trkpt><trkpt lat="44.17980263507596" lon="10.309905891961549"><ele>503.0</ele><time>2026-05-02T13:34:18Z</time></trkpt><trkpt lat="44.17963198196856" lon="10.30991943690334"><ele>499.0</ele><time>2026-05-02T13:34:19Z</time></trkpt><trkpt lat="44.17945950452412" lon="10.309929962734676"><ele>499.0</ele><time>2026-05-02T13:34:20Z</time></trkpt><trkpt lat="44.1792920723397" lon="10.309938753063104"><ele>499.0</ele><time>2026-05-02T13:34:21Z</time></trkpt><trkpt lat="44.17913054810178" lon="10.309944473095452"><ele>499.0</ele><time>2026-05-02T13:34:22Z</time></trkpt><trkpt lat="44.178971136463225" lon="10.309949785486651"><ele>494.6666666666667</ele><time>2026-05-02T13:34:23Z</time></trkpt><trkpt lat="44.17878509870565" lon="10.309950232819467"><ele>490.33333333333337</ele><time>2026-05-02T13:34:24Z</time></trkpt><trkpt lat="44.17863062923637" lon="10.309950010131264"><ele>486.0</ele><time>2026-05-02T13:34:25Z</time></trkpt><trkpt lat="44.1785122500982" lon="10.309956270904111"><ele>486.0</ele><time>2026-05-02T13:34:26Z</time></trkpt><trkpt lat="44.17839124948112" lon="10.309962670324566"><ele>486.0</ele><time>2026-05-02T13:34:27Z</time></trkpt><trkpt lat="44.178275914261086" lon="10.309970390247408"><ele>486.0</ele><time>2026-05-02T13:34:28Z</time></trkpt><trkpt lat="44.17817723705364" lon="10.309985211800088"><ele>486.0</ele><time>2026-05-02T13:34:29Z</time></trkpt><trkpt lat="44.17809314774848" lon="10.310008840203679"><ele>486.0</ele><time>2026-05-02T13:34:30Z</time></trkpt><trkpt lat="44.177976799206604" lon="10.310060277478708"><ele>484.5</ele><time>2026-05-02T13:34:32Z</time></trkpt><trkpt lat="44.17800877566338" lon="10.31034302584536"><ele>483.0</ele><time>2026-05-02T13:34:34Z</time></trkpt><trkpt lat="44.17804242799632" lon="10.310471265990055"><ele>481.5</ele><time>2026-05-02T13:34:34.999Z</time></trkpt><trkpt lat="44.17806303466581" lon="10.31061825272597"><ele>480.0</ele><time>2026-05-02T13:34:35.999Z</time></trkpt><trkpt lat="44.178027461263596" lon="10.310730780879439"><ele>480.0</ele><time>2026-05-02T13:34:36.999Z</time></trkpt><trkpt lat="44.177991553857325" lon="10.310836295672505"><ele>480.0</ele><time>2026-05-02T13:34:37.999Z</time></trkpt><trkpt lat="44.17794999656803" lon="10.310949242206304"><ele>480.0</ele><time>2026-05-02T13:34:38.999Z</time></trkpt><trkpt lat="44.17792645477644" lon="10.311061933598745"><ele>480.0</ele><time>2026-05-02T13:34:39.999Z</time></trkpt><trkpt lat="44.17787742136998" lon="10.311154029767389"><ele>480.0</ele><time>2026-05-02T13:34:40.999Z</time></trkpt><trkpt lat="44.17783778982877" lon="10.311248484480044"><ele>480.0</ele><time>2026-05-02T13:34:41.999Z</time></trkpt><trkpt lat="44.1777993112141" lon="10.311350594440343"><ele>481.8333333333333</ele><time>2026-05-02T13:34:42.999Z</time></trkpt><trkpt lat="44.17776646492115" lon="10.311449450881543"><ele>483.66666666666663</ele><time>2026-05-02T13:34:43.999Z</time></trkpt><trkpt lat="44.17773569188535" lon="10.311554306859573"><ele>485.5</ele><time>2026-05-02T13:34:44.999Z</time></trkpt><trkpt lat="44.17771454268969" lon="10.311657863264818"><ele>487.3333333333333</ele><time>2026-05-02T13:34:45.999Z</time></trkpt><trkpt lat="44.177694910184265" lon="10.311762865208536"><ele>489.16666666666663</ele><time>2026-05-02T13:34:46.999Z</time></trkpt><trkpt lat="44.17767111536683" lon="10.3118712486991"><ele>491.0</ele><time>2026-05-02T13:34:47.999Z</time></trkpt><trkpt lat="44.17765706364438" lon="10.311986276121624"><ele>491.0</ele><time>2026-05-02T13:34:48.999Z</time></trkpt><trkpt lat="44.17764225642074" lon="10.312096485166949"><ele>491.0</ele><time>2026-05-02T13:34:49.999Z</time></trkpt><trkpt lat="44.17761500762998" lon="10.312215240981125"><ele>491.0</ele><time>2026-05-02T13:34:50.999Z</time></trkpt><trkpt lat="44.177573785462386" lon="10.312340152811183"><ele>491.0</ele><time>2026-05-02T13:34:51.999Z</time></trkpt><trkpt lat="44.177498034826975" lon="10.312442044613174"><ele>491.0</ele><time>2026-05-02T13:34:52.999Z</time></trkpt><trkpt lat="44.17745201800194" lon="10.312560725072817"><ele>490.99999999999994</ele><time>2026-05-02T13:34:53.999Z</time></trkpt><trkpt lat="44.17738867765289" lon="10.312658861704017"><ele>491.0</ele><time>2026-05-02T13:34:54.999Z</time></trkpt><trkpt lat="44.1773076145649" lon="10.312741938515572"><ele>491.0</ele><time>2026-05-02T13:34:55.999Z</time></trkpt><trkpt lat="44.177276336831625" lon="10.312825332038646"><ele>491.0</ele><time>2026-05-02T13:34:56.999Z</time></trkpt><trkpt lat="44.17723887269902" lon="10.312926393105277"><ele>490.99999999999994</ele><time>2026-05-02T13:34:57.999Z</time></trkpt><trkpt lat="44.177199571565644" lon="10.313035156243236"><ele>491.0</ele><time>2026-05-02T13:34:58.999Z</time></trkpt><trkpt lat="44.1771696568506" lon="10.313156748675063"><ele>490.99999999999994</ele><time>2026-05-02T13:34:59.999Z</time></trkpt><trkpt lat="44.177156143138355" lon="10.313268522963899"><ele>491.0</ele><time>2026-05-02T13:35:00.999Z</time></trkpt><trkpt lat="44.177149332079146" lon="10.313374105299092"><ele>491.0</ele><time>2026-05-02T13:35:01.999Z</time></trkpt><trkpt lat="44.177150950152935" lon="10.313484166265408"><ele>491.0</ele><time>2026-05-02T13:35:02.999Z</time></trkpt><trkpt lat="44.17715529308764" lon="10.313600458525844"><ele>490.99999999999994</ele><time>2026-05-02T13:35:03.999Z</time></trkpt><trkpt lat="44.17715712985672" lon="10.313719665329662"><ele>491.0</ele><time>2026-05-02T13:35:04.999Z</time></trkpt><trkpt lat="44.177140588317776" lon="10.31383374407849"><ele>493.66666666666663</ele><time>2026-05-02T13:35:05.999Z</time></trkpt><trkpt lat="44.17709187513206" lon="10.313935938002684"><ele>496.3333333333333</ele><time>2026-05-02T13:35:06.999Z</time></trkpt><trkpt lat="44.17701634588657" lon="10.31400519331405"><ele>499.0</ele><time>2026-05-02T13:35:07.999Z</time></trkpt><trkpt lat="44.17692373869749" lon="10.314043792972718"><ele>501.66666666666663</ele><time>2026-05-02T13:35:08.999Z</time></trkpt><trkpt lat="44.1768377917848" lon="10.314021740708741"><ele>504.3333333333333</ele><time>2026-05-02T13:35:09.999Z</time></trkpt><trkpt lat="44.17675871983764" lon="10.313996932446308"><ele>507.0</ele><time>2026-05-02T13:35:10.999Z</time></trkpt><trkpt lat="44.17668233823022" lon="10.313956667759044"><ele>504.3333333333333</ele><time>2026-05-02T13:35:11.999Z</time></trkpt><trkpt lat="44.17665323218813" lon="10.31383649537053"><ele>501.66666666666663</ele><time>2026-05-02T13:35:12.999Z</time></trkpt><trkpt lat="44.17660614170401" lon="10.313746355147266"><ele>499.0</ele><time>2026-05-02T13:35:13.999Z</time></trkpt><trkpt lat="44.17654462656529" lon="10.313672018165326"><ele>496.3333333333333</ele><time>2026-05-02T13:35:14.999Z</time></trkpt><trkpt lat="44.17649870326971" lon="10.313586759297207"><ele>493.66666666666663</ele><time>2026-05-02T13:35:15.999Z</time></trkpt><trkpt lat="44.17644170080314" lon="10.313521596327288"><ele>491.0</ele><time>2026-05-02T13:35:16.999Z</time></trkpt><trkpt lat="44.17636365210761" lon="10.313470641035268"><ele>489.20000000000005</ele><time>2026-05-02T13:35:17.999Z</time></trkpt><trkpt lat="44.17627068539573" lon="10.313458645132147"><ele>487.40000000000003</ele><time>2026-05-02T13:35:18.999Z</time></trkpt><trkpt lat="44.17617940655015" lon="10.31347521152653"><ele>485.6</ele><time>2026-05-02T13:35:19.999Z</time></trkpt><trkpt lat="44.176069837097366" lon="10.31353125253587"><ele>483.8</ele><time>2026-05-02T13:35:20.999Z</time></trkpt><trkpt lat="44.17595468805448" lon="10.31359616172165"><ele>482.0</ele><time>2026-05-02T13:35:21.999Z</time></trkpt><trkpt lat="44.17581782688438" lon="10.313715644475423"><ele>482.0</ele><time>2026-05-02T13:35:23.999Z</time></trkpt><trkpt lat="44.17573698032166" lon="10.313805626178059"><ele>482.0</ele><time>2026-05-02T13:35:24.999Z</time></trkpt><trkpt lat="44.175655764663524" lon="10.313889902762519"><ele>482.0</ele><time>2026-05-02T13:35:25.999Z</time></trkpt><trkpt lat="44.17559475629423" lon="10.314007812358634"><ele>482.0</ele><time>2026-05-02T13:35:26.999Z</time></trkpt><trkpt lat="44.17556104455255" lon="10.31420015608916"><ele>474.0</ele><time>2026-05-02T13:35:27.999Z</time></trkpt><trkpt lat="44.17552890650896" lon="10.314487165164792"><ele>466.0</ele><time>2026-05-02T13:35:28.999Z</time></trkpt><trkpt lat="44.17546231403201" lon="10.314848756068715"><ele>465.5</ele><time>2026-05-02T13:35:29.999Z</time></trkpt><trkpt lat="44.175444430213986" lon="10.315280636024873"><ele>465.0</ele><time>2026-05-02T13:35:30.999Z</time></trkpt><trkpt lat="44.175415396158876" lon="10.315676594503216"><ele>465.0</ele><time>2026-05-02T13:35:31.999Z</time></trkpt><trkpt lat="44.175385608875324" lon="10.316015131990376"><ele>465.0</ele><time>2026-05-02T13:35:32.999Z</time></trkpt><trkpt lat="44.17530133743463" lon="10.316291751828158"><ele>468.33333333333337</ele><time>2026-05-02T13:35:33.999Z</time></trkpt><trkpt lat="44.175217753138014" lon="10.316559077554643"><ele>471.6666666666667</ele><time>2026-05-02T13:35:34.999Z</time></trkpt><trkpt lat="44.17514199541098" lon="10.316785036871728"><ele>475.0</ele><time>2026-05-02T13:35:35.999Z</time></trkpt><trkpt lat="44.17506663948726" lon="10.316984753861426"><ele>475.0</ele><time>2026-05-02T13:35:36.999Z</time></trkpt><trkpt lat="44.174983617797366" lon="10.317143486326788"><ele>475.0</ele><time>2026-05-02T13:35:37.999Z</time></trkpt><trkpt lat="44.17488672507879" lon="10.31725162918542"><ele>475.0</ele><time>2026-05-02T13:35:38.999Z</time></trkpt><trkpt lat="44.174767538685785" lon="10.317276616168668"><ele>475.0</ele><time>2026-05-02T13:35:39.999Z</time></trkpt><trkpt lat="44.17460519746719" lon="10.317322638015375"><ele>475.0</ele><time>2026-05-02T13:35:40.999Z</time></trkpt><trkpt lat="44.17441196751072" lon="10.31737136571955"><ele>475.0</ele><time>2026-05-02T13:35:41.999Z</time></trkpt><trkpt lat="44.1742080004856" lon="10.317428175400476"><ele>475.0</ele><time>2026-05-02T13:35:42.999Z</time></trkpt><trkpt lat="44.17400470269201" lon="10.317510056716024"><ele>469.0</ele><time>2026-05-02T13:35:43.999Z</time></trkpt><trkpt lat="44.173809327850705" lon="10.317627141399422"><ele>463.0</ele><time>2026-05-02T13:35:44.999Z</time></trkpt><trkpt lat="44.17362040212765" lon="10.317719402049375"><ele>457.0</ele><time>2026-05-02T13:35:45.999Z</time></trkpt><trkpt lat="44.17344138312938" lon="10.317814892125618"><ele>457.0</ele><time>2026-05-02T13:35:46.999Z</time></trkpt><trkpt lat="44.17326270126513" lon="10.317851335456096"><ele>457.0</ele><time>2026-05-02T13:35:47.999Z</time></trkpt><trkpt lat="44.17309242725953" lon="10.317865330597222"><ele>457.0</ele><time>2026-05-02T13:35:48.998Z</time></trkpt><trkpt lat="44.172924705537795" lon="10.317877485662352"><ele>455.75</ele><time>2026-05-02T13:35:49.998Z</time></trkpt><trkpt lat="44.1727947311569" lon="10.31792658860159"><ele>454.5</ele><time>2026-05-02T13:35:50.998Z</time></trkpt><trkpt lat="44.172693417321064" lon="10.31797888713092"><ele>453.25</ele><time>2026-05-02T13:35:51.998Z</time></trkpt><trkpt lat="44.1726053050556" lon="10.318083829505854"><ele>452.0</ele><time>2026-05-02T13:35:52.998Z</time></trkpt><trkpt lat="44.17254671141961" lon="10.318251498717833"><ele>457.3333333333333</ele><time>2026-05-02T13:35:53.998Z</time></trkpt><trkpt lat="44.172510943376295" lon="10.318459036021155"><ele>462.66666666666663</ele><time>2026-05-02T13:35:54.998Z</time></trkpt><trkpt lat="44.172493860250405" lon="10.318699888780822"><ele>468.0</ele><time>2026-05-02T13:35:56Z</time></trkpt><trkpt lat="44.17247199963816" lon="10.31895871136024"><ele>468.0</ele><time>2026-05-02T13:35:57Z</time></trkpt><trkpt lat="44.17244618977805" lon="10.319200816304464"><ele>468.0</ele><time>2026-05-02T13:35:58Z</time></trkpt><trkpt lat="44.172427981424555" lon="10.319407125935294"><ele>468.0</ele><time>2026-05-02T13:35:59Z</time></trkpt><trkpt lat="44.17244011784133" lon="10.319586486260697"><ele>466.5</ele><time>2026-05-02T13:36:00Z</time></trkpt><trkpt lat="44.1725002672493" lon="10.319761466191881"><ele>465.0</ele><time>2026-05-02T13:36:01Z</time></trkpt><trkpt lat="44.17260142116027" lon="10.319906745132808"><ele>463.5</ele><time>2026-05-02T13:36:02Z</time></trkpt><trkpt lat="44.17273843205428" lon="10.32003008192277"><ele>462.0</ele><time>2026-05-02T13:36:03Z</time></trkpt><trkpt lat="44.172881360987574" lon="10.320126595872459"><ele>462.0</ele><time>2026-05-02T13:36:04Z</time></trkpt><trkpt lat="44.17298483177603" lon="10.320242280270273"><ele>462.0</ele><time>2026-05-02T13:36:05Z</time></trkpt><trkpt lat="44.1729939847004" lon="10.320389756448561"><ele>462.0</ele><time>2026-05-02T13:36:06Z</time></trkpt><trkpt lat="44.17299585617669" lon="10.32057273457693"><ele>462.0</ele><time>2026-05-02T13:36:07Z</time></trkpt><trkpt lat="44.172951699629834" lon="10.320764219238"><ele>461.33333333333337</ele><time>2026-05-02T13:36:08Z</time></trkpt><trkpt lat="44.17290417681544" lon="10.321025785679916"><ele>460.6666666666667</ele><time>2026-05-02T13:36:09Z</time></trkpt><trkpt lat="44.172853452935954" lon="10.321298900322702"><ele>460.0</ele><time>2026-05-02T13:36:10Z</time></trkpt><trkpt lat="44.17280321607942" lon="10.321570913737983"><ele>460.0</ele><time>2026-05-02T13:36:11Z</time></trkpt><trkpt lat="44.172752734261906" lon="10.321844832477547"><ele>460.0</ele><time>2026-05-02T13:36:12Z</time></trkpt><trkpt lat="44.17269981166861" lon="10.322130405093615"><ele>460.0</ele><time>2026-05-02T13:36:13Z</time></trkpt><trkpt lat="44.17266064730552" lon="10.322405065278128"><ele>460.0</ele><time>2026-05-02T13:36:14Z</time></trkpt><trkpt lat="44.17261381337341" lon="10.322663088366804"><ele>460.0</ele><time>2026-05-02T13:36:15Z</time></trkpt><trkpt lat="44.172593335099855" lon="10.322922476308651"><ele>460.0</ele><time>2026-05-02T13:36:16Z</time></trkpt><trkpt lat="44.17259003083755" lon="10.323170563729828"><ele>460.0</ele><time>2026-05-02T13:36:17Z</time></trkpt><trkpt lat="44.17261577908198" lon="10.32341375740704"><ele>460.0</ele><time>2026-05-02T13:36:18Z</time></trkpt><trkpt lat="44.172662806968084" lon="10.32365997500846"><ele>460.0</ele><time>2026-05-02T13:36:19Z</time></trkpt><trkpt lat="44.172737697236634" lon="10.323917133084777"><ele>456.33333333333337</ele><time>2026-05-02T13:36:20Z</time></trkpt><trkpt lat="44.1728349451589" lon="10.324165111642435"><ele>452.66666666666663</ele><time>2026-05-02T13:36:21Z</time></trkpt><trkpt lat="44.1729530020167" lon="10.324397292346394"><ele>449.0</ele><time>2026-05-02T13:36:22Z</time></trkpt><trkpt lat="44.173082463497664" lon="10.3245966129829"><ele>453.75</ele><time>2026-05-02T13:36:23Z</time></trkpt><trkpt lat="44.17320726187809" lon="10.324745225845202"><ele>458.5</ele><time>2026-05-02T13:36:24Z</time></trkpt><trkpt lat="44.17332327260949" lon="10.324857168050274"><ele>463.25</ele><time>2026-05-02T13:36:25Z</time></trkpt><trkpt lat="44.17341145742742" lon="10.324980363235715"><ele>468.0</ele><time>2026-05-02T13:36:26Z</time></trkpt><trkpt lat="44.173425496533845" lon="10.325153219020438"><ele>468.0</ele><time>2026-05-02T13:36:27Z</time></trkpt><trkpt lat="44.173415209915184" lon="10.325304425325093"><ele>467.99999999999994</ele><time>2026-05-02T13:36:28Z</time></trkpt><trkpt lat="44.17336952985441" lon="10.325433549639298"><ele>467.99999999999994</ele><time>2026-05-02T13:36:29Z</time></trkpt><trkpt lat="44.173294828299355" lon="10.325598054305669"><ele>468.0</ele><time>2026-05-02T13:36:30Z</time></trkpt><trkpt lat="44.173236547901304" lon="10.325673591566535"><ele>468.0</ele><time>2026-05-02T13:36:31Z</time></trkpt><trkpt lat="44.17303542798093" lon="10.325824805960806"><ele>468.0</ele><time>2026-05-02T13:36:32Z</time></trkpt><trkpt lat="44.17287698232302" lon="10.325979639841092"><ele>468.0</ele><time>2026-05-02T13:36:33Z</time></trkpt><trkpt lat="44.17273817775509" lon="10.326102985393554"><ele>468.0</ele><time>2026-05-02T13:36:34Z</time></trkpt><trkpt lat="44.17261957480312" lon="10.326182539420316"><ele>468.0</ele><time>2026-05-02T13:36:35Z</time></trkpt><trkpt lat="44.172511602230884" lon="10.326211467703406"><ele>468.0</ele><time>2026-05-02T13:36:36Z</time></trkpt><trkpt lat="44.17240531360868" lon="10.326183935334862"><ele>468.0</ele><time>2026-05-02T13:36:37Z</time></trkpt><trkpt lat="44.17230989024656" lon="10.326077997335407"><ele>468.0</ele><time>2026-05-02T13:36:38Z</time></trkpt><trkpt lat="44.17216995668986" lon="10.325973031422544"><ele>467.5</ele><time>2026-05-02T13:36:38.999Z</time></trkpt><trkpt lat="44.17201086008295" lon="10.3259267852126"><ele>467.0</ele><time>2026-05-02T13:36:39.999Z</time></trkpt><trkpt lat="44.171875385149214" lon="10.325913158555316"><ele>466.5</ele><time>2026-05-02T13:36:40.999Z</time></trkpt><trkpt lat="44.17176264081905" lon="10.32595286154985"><ele>466.0</ele><time>2026-05-02T13:36:41.999Z</time></trkpt><trkpt lat="44.17169066566029" lon="10.326066976404128"><ele>466.0</ele><time>2026-05-02T13:36:42.999Z</time></trkpt><trkpt lat="44.17165596731172" lon="10.32623443334657"><ele>466.0</ele><time>2026-05-02T13:36:43.999Z</time></trkpt><trkpt lat="44.171662334686154" lon="10.326432896651822"><ele>466.0</ele><time>2026-05-02T13:36:44.999Z</time></trkpt><trkpt lat="44.17170495861844" lon="10.326648110753714"><ele>466.0</ele><time>2026-05-02T13:36:45.999Z</time></trkpt><trkpt lat="44.17175193101451" lon="10.326884169445135"><ele>468.6666666666667</ele><time>2026-05-02T13:36:46.999Z</time></trkpt><trkpt lat="44.17177129512347" lon="10.32711056298556"><ele>471.33333333333337</ele><time>2026-05-02T13:36:47.999Z</time></trkpt><trkpt lat="44.17178967168853" lon="10.327310547281735"><ele>474.0</ele><time>2026-05-02T13:36:48.999Z</time></trkpt><trkpt lat="44.17184744267639" lon="10.327508369302578"><ele>475.66666666666663</ele><time>2026-05-02T13:36:49.999Z</time></trkpt><trkpt lat="44.171953279620034" lon="10.327688574145082"><ele>477.3333333333333</ele><time>2026-05-02T13:36:50.999Z</time></trkpt><trkpt lat="44.17209742121511" lon="10.327850020957808"><ele>479.0</ele><time>2026-05-02T13:36:51.999Z</time></trkpt><trkpt lat="44.17224144070213" lon="10.327996621752874"><ele>477.3333333333333</ele><time>2026-05-02T13:36:52.999Z</time></trkpt><trkpt lat="44.17234012959117" lon="10.328182792745961"><ele>475.66666666666663</ele><time>2026-05-02T13:36:53.999Z</time></trkpt><trkpt lat="44.17238522914899" lon="10.328396349406725"><ele>474.0</ele><time>2026-05-02T13:36:54.999Z</time></trkpt><trkpt lat="44.172419723259225" lon="10.328627880255704"><ele>482.0</ele><time>2026-05-02T13:36:55.999Z</time></trkpt><trkpt lat="44.17246163336163" lon="10.328840129112457"><ele>490.0</ele><time>2026-05-02T13:36:56.999Z</time></trkpt><trkpt lat="44.17243550434549" lon="10.329054328542593"><ele>498.0</ele><time>2026-05-02T13:36:57.999Z</time></trkpt><trkpt lat="44.17239439621782" lon="10.329263153140731"><ele>498.0</ele><time>2026-05-02T13:36:58.999Z</time></trkpt><trkpt lat="44.172361618379526" lon="10.32947314200626"><ele>498.0</ele><time>2026-05-02T13:36:59.999Z</time></trkpt><trkpt lat="44.17235015100535" lon="10.329656073669405"><ele>498.0</ele><time>2026-05-02T13:37:00.999Z</time></trkpt><trkpt lat="44.17239791411462" lon="10.32979148351861"><ele>498.0</ele><time>2026-05-02T13:37:01.999Z</time></trkpt><trkpt lat="44.17248967433368" lon="10.329879196006265"><ele>497.0</ele><time>2026-05-02T13:37:02.999Z</time></trkpt><trkpt lat="44.17261139505742" lon="10.329923418635836"><ele>496.0</ele><time>2026-05-02T13:37:03.999Z</time></trkpt><trkpt lat="44.17274052154992" lon="10.329962761817958"><ele>495.0</ele><time>2026-05-02T13:37:04.999Z</time></trkpt><trkpt lat="44.172828269815774" lon="10.330069460991226"><ele>494.0</ele><time>2026-05-02T13:37:05.999Z</time></trkpt><trkpt lat="44.17283781193508" lon="10.330273596351438"><ele>494.0</ele><time>2026-05-02T13:37:06.999Z</time></trkpt><trkpt lat="44.172874247108446" lon="10.330493169475423"><ele>494.0</ele><time>2026-05-02T13:37:07.999Z</time></trkpt><trkpt lat="44.17292444963771" lon="10.33072981881179"><ele>494.0</ele><time>2026-05-02T13:37:08.999Z</time></trkpt><trkpt lat="44.17296242761368" lon="10.330985507618962"><ele>490.66666666666663</ele><time>2026-05-02T13:37:09.999Z</time></trkpt><trkpt lat="44.17299871694592" lon="10.331234087208614"><ele>487.33333333333337</ele><time>2026-05-02T13:37:10.999Z</time></trkpt><trkpt lat="44.173052117331" lon="10.331478321115098"><ele>484.0</ele><time>2026-05-02T13:37:11.999Z</time></trkpt><trkpt lat="44.173113830822196" lon="10.331723338033715"><ele>483.6666666666667</ele><time>2026-05-02T13:37:12.999Z</time></trkpt><trkpt lat="44.173171458369026" lon="10.33198356374377"><ele>483.33333333333337</ele><time>2026-05-02T13:37:13.999Z</time></trkpt><trkpt lat="44.17322338808994" lon="10.332251365800259"><ele>483.0</ele><time>2026-05-02T13:37:14.999Z</time></trkpt><trkpt lat="44.173266355529954" lon="10.332525064710666"><ele>490.0</ele><time>2026-05-02T13:37:15.999Z</time></trkpt><trkpt lat="44.173301248335505" lon="10.332801567766301"><ele>497.0</ele><time>2026-05-02T13:37:16.999Z</time></trkpt><trkpt lat="44.17332596707813" lon="10.333071297545006"><ele>504.0</ele><time>2026-05-02T13:37:17.999Z</time></trkpt><trkpt lat="44.17334680817086" lon="10.333318015576372"><ele>504.0</ele><time>2026-05-02T13:37:18.999Z</time></trkpt><trkpt lat="44.173368428051575" lon="10.333524604058384"><ele>504.0</ele><time>2026-05-02T13:37:19.999Z</time></trkpt><trkpt lat="44.17340095579804" lon="10.333712131155028"><ele>504.0</ele><time>2026-05-02T13:37:20.999Z</time></trkpt><trkpt lat="44.173470845584845" lon="10.333894128374915"><ele>504.0</ele><time>2026-05-02T13:37:21.999Z</time></trkpt><trkpt lat="44.17357800515236" lon="10.33406318352323"><ele>500.66666666666663</ele><time>2026-05-02T13:37:22.999Z</time></trkpt><trkpt lat="44.17370633695191" lon="10.334201078084146"><ele>497.3333333333333</ele><time>2026-05-02T13:37:23.999Z</time></trkpt><trkpt lat="44.1738203221169" lon="10.334350537498485"><ele>494.0</ele><time>2026-05-02T13:37:24.999Z</time></trkpt><trkpt lat="44.173901155033604" lon="10.33453335580764"><ele>490.66666666666663</ele><time>2026-05-02T13:37:25.999Z</time></trkpt><trkpt lat="44.17394647343586" lon="10.334764908410456"><ele>487.33333333333337</ele><time>2026-05-02T13:37:26.999Z</time></trkpt><trkpt lat="44.173980379348954" lon="10.335014164062077"><ele>484.0</ele><time>2026-05-02T13:37:27.999Z</time></trkpt><trkpt lat="44.1740453897724" lon="10.335237880707613"><ele>490.5</ele><time>2026-05-02T13:37:28.999Z</time></trkpt><trkpt lat="44.17411462588788" lon="10.335427951957175"><ele>497.0</ele><time>2026-05-02T13:37:29.999Z</time></trkpt><trkpt lat="44.17417345916208" lon="10.33560235014255"><ele>503.5</ele><time>2026-05-02T13:37:30.999Z</time></trkpt><trkpt lat="44.174193359113126" lon="10.335788653882032"><ele>510.0</ele><time>2026-05-02T13:37:31.999Z</time></trkpt><trkpt lat="44.17418399128825" lon="10.335972407909548"><ele>510.0</ele><time>2026-05-02T13:37:32.999Z</time></trkpt><trkpt lat="44.17413809068675" lon="10.336148212321405"><ele>510.0</ele><time>2026-05-02T13:37:33.999Z</time></trkpt><trkpt lat="44.17404284368162" lon="10.336282924890705"><ele>510.0</ele><time>2026-05-02T13:37:34.999Z</time></trkpt><trkpt lat="44.17391118913573" lon="10.33637594994892"><ele>510.0</ele><time>2026-05-02T13:37:35.999Z</time></trkpt><trkpt lat="44.17376234160181" lon="10.336490881137781"><ele>507.0</ele><time>2026-05-02T13:37:36.999Z</time></trkpt><trkpt lat="44.173603174358725" lon="10.336589758919944"><ele>504.0</ele><time>2026-05-02T13:37:37.999Z</time></trkpt><trkpt lat="44.17345560520017" lon="10.336733895038222"><ele>501.0</ele><time>2026-05-02T13:37:38.999Z</time></trkpt><trkpt lat="44.173312820871836" lon="10.336899190835789"><ele>503.0</ele><time>2026-05-02T13:37:39.999Z</time></trkpt><trkpt lat="44.17316090924412" lon="10.337067517297834"><ele>505.0</ele><time>2026-05-02T13:37:40.999Z</time></trkpt><trkpt lat="44.172987347259905" lon="10.337189906887062"><ele>507.0</ele><time>2026-05-02T13:37:41.999Z</time></trkpt><trkpt lat="44.172793968201404" lon="10.337252722219244"><ele>507.0</ele><time>2026-05-02T13:37:42.999Z</time></trkpt><trkpt lat="44.17259338285321" lon="10.33732662571799"><ele>507.0</ele><time>2026-05-02T13:37:43.999Z</time></trkpt><trkpt lat="44.17239087501292" lon="10.337410951697898"><ele>507.0</ele><time>2026-05-02T13:37:44.999Z</time></trkpt><trkpt lat="44.17219764842841" lon="10.337485279204868"><ele>504.0</ele><time>2026-05-02T13:37:45.999Z</time></trkpt><trkpt lat="44.172021294419636" lon="10.337540402555424"><ele>501.0</ele><time>2026-05-02T13:37:46.999Z</time></trkpt><trkpt lat="44.17186329649703" lon="10.337588510890125"><ele>498.0</ele><time>2026-05-02T13:37:47.999Z</time></trkpt><trkpt lat="44.17171886498075" lon="10.337645721273196"><ele>498.0</ele><time>2026-05-02T13:37:48.999Z</time></trkpt><trkpt lat="44.171590651847836" lon="10.337715443188198"><ele>498.0</ele><time>2026-05-02T13:37:49.999Z</time></trkpt><trkpt lat="44.17148317082498" lon="10.337810897623608"><ele>498.0</ele><time>2026-05-02T13:37:50.999Z</time></trkpt><trkpt lat="44.17140541517604" lon="10.337928822118467"><ele>498.0</ele><time>2026-05-02T13:37:51.999Z</time></trkpt><trkpt lat="44.17138487104709" lon="10.33807472610392"><ele>496.75</ele><time>2026-05-02T13:37:52.999Z</time></trkpt><trkpt lat="44.171413977772104" lon="10.338226489598446"><ele>495.5</ele><time>2026-05-02T13:37:53.999Z</time></trkpt><trkpt lat="44.1714769927031" lon="10.338385563722555"><ele>494.25</ele><time>2026-05-02T13:37:54.998Z</time></trkpt><trkpt lat="44.1715741016639" lon="10.33856166566726"><ele>493.0</ele><time>2026-05-02T13:37:55.998Z</time></trkpt><trkpt lat="44.17166249512544" lon="10.338768112664622"><ele>498.0</ele><time>2026-05-02T13:37:56.998Z</time></trkpt><trkpt lat="44.17174166689831" lon="10.338961620645575"><ele>503.0</ele><time>2026-05-02T13:37:57.998Z</time></trkpt><trkpt lat="44.17178771589941" lon="10.33913080429583"><ele>508.0</ele><time>2026-05-02T13:37:58.998Z</time></trkpt><trkpt lat="44.171791539174784" lon="10.339290695659153"><ele>513.0</ele><time>2026-05-02T13:37:59.998Z</time></trkpt><trkpt lat="44.17173752266078" lon="10.339452057647462"><ele>513.0</ele><time>2026-05-02T13:38:00.998Z</time></trkpt><trkpt lat="44.171666550393304" lon="10.339645368133407"><ele>513.0</ele><time>2026-05-02T13:38:02Z</time></trkpt><trkpt lat="44.17162028622985" lon="10.339828625264945"><ele>513.0</ele><time>2026-05-02T13:38:03Z</time></trkpt><trkpt lat="44.171592564289064" lon="10.340030916614191"><ele>513.0</ele><time>2026-05-02T13:38:04Z</time></trkpt><trkpt lat="44.171591927331654" lon="10.340264569082674"><ele>514.75</ele><time>2026-05-02T13:38:05Z</time></trkpt><trkpt lat="44.171601144973614" lon="10.340492546690449"><ele>516.5</ele><time>2026-05-02T13:38:06Z</time></trkpt><trkpt lat="44.17162353916439" lon="10.340688331655734"><ele>518.25</ele><time>2026-05-02T13:38:07Z</time></trkpt><trkpt lat="44.17168190538486" lon="10.34086842462772"><ele>520.0</ele><time>2026-05-02T13:38:08Z</time></trkpt><trkpt lat="44.17176507246939" lon="10.341011602666454"><ele>519.75</ele><time>2026-05-02T13:38:09Z</time></trkpt><trkpt lat="44.17182783291924" lon="10.341207369281209"><ele>519.5</ele><time>2026-05-02T13:38:10Z</time></trkpt><trkpt lat="44.17186304211704" lon="10.341395576420942"><ele>519.25</ele><time>2026-05-02T13:38:11Z</time></trkpt><trkpt lat="44.17187063756578" lon="10.341597100125945"><ele>519.0</ele><time>2026-05-02T13:38:12Z</time></trkpt><trkpt lat="44.17185144734297" lon="10.34181903686388"><ele>519.0</ele><time>2026-05-02T13:38:13Z</time></trkpt><trkpt lat="44.17180747332294" lon="10.342040079270173"><ele>519.0</ele><time>2026-05-02T13:38:14Z</time></trkpt><trkpt lat="44.171719098299285" lon="10.342235627791151"><ele>519.0</ele><time>2026-05-02T13:38:15Z</time></trkpt><trkpt lat="44.17162667597999" lon="10.342425232971621"><ele>520.0</ele><time>2026-05-02T13:38:16Z</time></trkpt><trkpt lat="44.17153746857313" lon="10.34262792661901"><ele>521.0</ele><time>2026-05-02T13:38:17Z</time></trkpt><trkpt lat="44.171448578962845" lon="10.342806748000081"><ele>522.0</ele><time>2026-05-02T13:38:18Z</time></trkpt><trkpt lat="44.17136268399194" lon="10.3429776010544"><ele>520.75</ele><time>2026-05-02T13:38:19Z</time></trkpt><trkpt lat="44.17128244264822" lon="10.34314524939268"><ele>519.5</ele><time>2026-05-02T13:38:20Z</time></trkpt><trkpt lat="44.171204177552596" lon="10.343303910705652"><ele>518.25</ele><time>2026-05-02T13:38:21Z</time></trkpt><trkpt lat="44.17112277751849" lon="10.343460688684742"><ele>517.0</ele><time>2026-05-02T13:38:22Z</time></trkpt><trkpt lat="44.17101208339198" lon="10.34360704444396"><ele>517.0</ele><time>2026-05-02T13:38:23Z</time></trkpt><trkpt lat="44.170862287457496" lon="10.343720162811321"><ele>517.0</ele><time>2026-05-02T13:38:24Z</time></trkpt><trkpt lat="44.170734149878804" lon="10.343859678967535"><ele>517.0</ele><time>2026-05-02T13:38:25Z</time></trkpt><trkpt lat="44.1706345989432" lon="10.344007660555114"><ele>516.3333333333334</ele><time>2026-05-02T13:38:26Z</time></trkpt><trkpt lat="44.17058348933199" lon="10.344198060318968"><ele>515.6666666666666</ele><time>2026-05-02T13:38:27Z</time></trkpt><trkpt lat="44.170564642130856" lon="10.344426606482141"><ele>515.0</ele><time>2026-05-02T13:38:28Z</time></trkpt><trkpt lat="44.170558090393925" lon="10.344687691350897"><ele>519.3333333333333</ele><time>2026-05-02T13:38:29Z</time></trkpt><trkpt lat="44.170540990783614" lon="10.344931584334978"><ele>523.6666666666666</ele><time>2026-05-02T13:38:30Z</time></trkpt><trkpt lat="44.17052066938128" lon="10.345150016899556"><ele>528.0</ele><time>2026-05-02T13:38:31Z</time></trkpt><trkpt lat="44.17050331881251" lon="10.345347565170695"><ele>528.0</ele><time>2026-05-02T13:38:32Z</time></trkpt><trkpt lat="44.170452845884036" lon="10.345509523174837"><ele>528.0</ele><time>2026-05-02T13:38:33Z</time></trkpt><trkpt lat="44.17039876292183" lon="10.345648346874096"><ele>528.0</ele><time>2026-05-02T13:38:34Z</time></trkpt><trkpt lat="44.170311548562026" lon="10.345753183665357"><ele>528.0</ele><time>2026-05-02T13:38:35Z</time></trkpt><trkpt lat="44.17020134753942" lon="10.345846187955107"><ele>530.5</ele><time>2026-05-02T13:38:36Z</time></trkpt><trkpt lat="44.170082146828776" lon="10.345911533941424"><ele>533.0</ele><time>2026-05-02T13:38:37Z</time></trkpt><trkpt lat="44.16994759000446" lon="10.345971487109642"><ele>535.5</ele><time>2026-05-02T13:38:38Z</time></trkpt><trkpt lat="44.16981519690787" lon="10.345900092546286"><ele>538.0</ele><time>2026-05-02T13:38:39Z</time></trkpt><trkpt lat="44.16969303946477" lon="10.345831531723054"><ele>538.75</ele><time>2026-05-02T13:38:40Z</time></trkpt><trkpt lat="44.16957515444662" lon="10.345741625107511"><ele>539.5</ele><time>2026-05-02T13:38:40.999Z</time></trkpt><trkpt lat="44.169458683812316" lon="10.345681482709765"><ele>540.25</ele><time>2026-05-02T13:38:41.999Z</time></trkpt><trkpt lat="44.169354114912196" lon="10.345613270346583"><ele>541.0</ele><time>2026-05-02T13:38:42.999Z</time></trkpt><trkpt lat="44.16925661257694" lon="10.345551339814072"><ele>538.4</ele><time>2026-05-02T13:38:43.999Z</time></trkpt><trkpt lat="44.169165634295524" lon="10.345512978908426"><ele>535.8</ele><time>2026-05-02T13:38:44.999Z</time></trkpt><trkpt lat="44.169066371423305" lon="10.345511422357399"><ele>533.1999999999999</ele><time>2026-05-02T13:38:45.999Z</time></trkpt><trkpt lat="44.16896698293857" lon="10.345537484737376"><ele>530.6</ele><time>2026-05-02T13:38:46.999Z</time></trkpt><trkpt lat="44.16887701338851" lon="10.345590544382029"><ele>528.0</ele><time>2026-05-02T13:38:47.999Z</time></trkpt><trkpt lat="44.168805961157304" lon="10.345674586710569"><ele>528.0</ele><time>2026-05-02T13:38:48.999Z</time></trkpt><trkpt lat="44.16875671970509" lon="10.345783660973087"><ele>528.0</ele><time>2026-05-02T13:38:49.999Z</time></trkpt><trkpt lat="44.168723653306635" lon="10.345902951881353"><ele>528.0</ele><time>2026-05-02T13:38:50.999Z</time></trkpt><trkpt lat="44.16872334648769" lon="10.346030596458684"><ele>528.0</ele><time>2026-05-02T13:38:51.999Z</time></trkpt><trkpt lat="44.16875085607682" lon="10.346166690349998"><ele>528.0</ele><time>2026-05-02T13:38:52.999Z</time></trkpt><trkpt lat="44.16880280210998" lon="10.346329610934069"><ele>527.8</ele><time>2026-05-02T13:38:53.999Z</time></trkpt><trkpt lat="44.168837128564824" lon="10.346459360022832"><ele>527.5999999999999</ele><time>2026-05-02T13:38:54.999Z</time></trkpt><trkpt lat="44.16882655207829" lon="10.346573054697863"><ele>527.4000000000001</ele><time>2026-05-02T13:38:55.999Z</time></trkpt><trkpt lat="44.168797552821616" lon="10.346671045464706"><ele>527.2</ele><time>2026-05-02T13:38:56.999Z</time></trkpt><trkpt lat="44.16873007971677" lon="10.346784338221061"><ele>527.0</ele><time>2026-05-02T13:38:57.999Z</time></trkpt><trkpt lat="44.16864602010209" lon="10.346936022670596"><ele>527.0</ele><time>2026-05-02T13:38:58.999Z</time></trkpt><trkpt lat="44.16853962558459" lon="10.3470777817947"><ele>527.0</ele><time>2026-05-02T13:38:59.999Z</time></trkpt><trkpt lat="44.168456468332536" lon="10.347216486016793"><ele>527.0</ele><time>2026-05-02T13:39:00.999Z</time></trkpt><trkpt lat="44.16839206110283" lon="10.347325166002436"><ele>527.0</ele><time>2026-05-02T13:39:01.999Z</time></trkpt><trkpt lat="44.168370944927425" lon="10.347412308169712"><ele>527.0</ele><time>2026-05-02T13:39:02.999Z</time></trkpt><trkpt lat="44.168375050166894" lon="10.347518208342306"><ele>527.0</ele><time>2026-05-02T13:39:03.999Z</time></trkpt><trkpt lat="44.16842382019777" lon="10.347623001147971"><ele>527.0</ele><time>2026-05-02T13:39:04.999Z</time></trkpt><trkpt lat="44.168493611992666" lon="10.347694834811337"><ele>527.0</ele><time>2026-05-02T13:39:05.999Z</time></trkpt><trkpt lat="44.16858788098287" lon="10.34772589821766"><ele>527.0</ele><time>2026-05-02T13:39:06.999Z</time></trkpt><trkpt lat="44.16870593525789" lon="10.347729193202458"><ele>527.0</ele><time>2026-05-02T13:39:07.999Z</time></trkpt><trkpt lat="44.1688168292157" lon="10.347746793292336"><ele>527.0</ele><time>2026-05-02T13:39:08.999Z</time></trkpt><trkpt lat="44.16891264599332" lon="10.347811850789915"><ele>527.0</ele><time>2026-05-02T13:39:09.999Z</time></trkpt><trkpt lat="44.16898213523603" lon="10.347912202455369"><ele>527.0</ele><time>2026-05-02T13:39:10.999Z</time></trkpt><trkpt lat="44.16898999018211" lon="10.348042571515943"><ele>527.0</ele><time>2026-05-02T13:39:11.999Z</time></trkpt><trkpt lat="44.1689671336864" lon="10.34818022029015"><ele>527.0</ele><time>2026-05-02T13:39:12.999Z</time></trkpt><trkpt lat="44.1689292218359" lon="10.348354116323184"><ele>522.0</ele><time>2026-05-02T13:39:13.999Z</time></trkpt><trkpt lat="44.16886798927062" lon="10.348530057427096"><ele>517.0</ele><time>2026-05-02T13:39:14.999Z</time></trkpt><trkpt lat="44.16879907313496" lon="10.348741675770592"><ele>512.0</ele><time>2026-05-02T13:39:15.999Z</time></trkpt><trkpt lat="44.16873315853837" lon="10.348943075112333"><ele>511.0</ele><time>2026-05-02T13:39:16.999Z</time></trkpt><trkpt lat="44.168668965173296" lon="10.349138578932818"><ele>510.0</ele><time>2026-05-02T13:39:17.999Z</time></trkpt><trkpt lat="44.16860677999225" lon="10.349335526539717"><ele>509.0</ele><time>2026-05-02T13:39:18.999Z</time></trkpt><trkpt lat="44.16853409708715" lon="10.349516528577661"><ele>509.0</ele><time>2026-05-02T13:39:19.999Z</time></trkpt><trkpt lat="44.16848696629137" lon="10.34968556427608"><ele>509.0</ele><time>2026-05-02T13:39:20.999Z</time></trkpt><trkpt lat="44.16844950359266" lon="10.349855629805269"><ele>509.0</ele><time>2026-05-02T13:39:21.999Z</time></trkpt><trkpt lat="44.168447990290694" lon="10.35004278962066"><ele>509.0</ele><time>2026-05-02T13:39:22.999Z</time></trkpt><trkpt lat="44.16847061412645" lon="10.350225158904873"><ele>508.79999999999995</ele><time>2026-05-02T13:39:23.999Z</time></trkpt><trkpt lat="44.168521867011094" lon="10.350391934140628"><ele>508.59999999999997</ele><time>2026-05-02T13:39:24.999Z</time></trkpt><trkpt lat="44.168597293383584" lon="10.350528901111502"><ele>508.4</ele><time>2026-05-02T13:39:25.999Z</time></trkpt><trkpt lat="44.16863864675031" lon="10.350640520063404"><ele>508.2</ele><time>2026-05-02T13:39:26.999Z</time></trkpt><trkpt lat="44.16868915142968" lon="10.350743506547186"><ele>508.0</ele><time>2026-05-02T13:39:27.999Z</time></trkpt><trkpt lat="44.168676777995415" lon="10.350877419999629"><ele>506.25</ele><time>2026-05-02T13:39:28.999Z</time></trkpt><trkpt lat="44.16862307840311" lon="10.351101734752227"><ele>504.5</ele><time>2026-05-02T13:39:29.999Z</time></trkpt><trkpt lat="44.16859458753691" lon="10.351283177879816"><ele>502.75</ele><time>2026-05-02T13:39:30.999Z</time></trkpt><trkpt lat="44.16856465621599" lon="10.351463437891832"><ele>501.0</ele><time>2026-05-02T13:39:31.999Z</time></trkpt><trkpt lat="44.168527783482446" lon="10.351600195565783"><ele>503.5</ele><time>2026-05-02T13:39:32.999Z</time></trkpt><trkpt lat="44.16845170831326" lon="10.351674866795218"><ele>506.0</ele><time>2026-05-02T13:39:33.999Z</time></trkpt><trkpt lat="44.1683526337896" lon="10.351729251054483"><ele>508.5</ele><time>2026-05-02T13:39:34.999Z</time></trkpt><trkpt lat="44.168233552178705" lon="10.35174910564272"><ele>511.0</ele><time>2026-05-02T13:39:35.999Z</time></trkpt><trkpt lat="44.16811124892895" lon="10.351676548914687"><ele>511.0</ele><time>2026-05-02T13:39:36.999Z</time></trkpt><trkpt lat="44.1679449312179" lon="10.351612334906246"><ele>511.0</ele><time>2026-05-02T13:39:37.999Z</time></trkpt><trkpt lat="44.16776111408349" lon="10.351587273250763"><ele>511.0</ele><time>2026-05-02T13:39:38.999Z</time></trkpt><trkpt lat="44.16758458206383" lon="10.351578753544343"><ele>511.0</ele><time>2026-05-02T13:39:39.999Z</time></trkpt><trkpt lat="44.1674378191419" lon="10.35162258474685"><ele>511.0</ele><time>2026-05-02T13:39:40.999Z</time></trkpt><trkpt lat="44.16729965766288" lon="10.35168392670528"><ele>511.0</ele><time>2026-05-02T13:39:41.999Z</time></trkpt><trkpt lat="44.16716032980094" lon="10.351806638629748"><ele>511.0</ele><time>2026-05-02T13:39:42.999Z</time></trkpt><trkpt lat="44.16702658771399" lon="10.351979257705729"><ele>511.0</ele><time>2026-05-02T13:39:43.999Z</time></trkpt><trkpt lat="44.16689920152371" lon="10.3521675699272"><ele>511.0</ele><time>2026-05-02T13:39:44.999Z</time></trkpt><trkpt lat="44.166775240975355" lon="10.352331177129331"><ele>511.0</ele><time>2026-05-02T13:39:45.999Z</time></trkpt><trkpt lat="44.16662417386038" lon="10.35240829116756"><ele>511.0</ele><time>2026-05-02T13:39:46.999Z</time></trkpt><trkpt lat="44.16645225943295" lon="10.35248083510338"><ele>511.0</ele><time>2026-05-02T13:39:47.999Z</time></trkpt><trkpt lat="44.16626918464223" lon="10.352552933819396"><ele>505.6666666666667</ele><time>2026-05-02T13:39:48.999Z</time></trkpt><trkpt lat="44.166088226663405" lon="10.352645186933506"><ele>500.33333333333337</ele><time>2026-05-02T13:39:49.999Z</time></trkpt><trkpt lat="44.16590170818535" lon="10.352720410084803"><ele>495.0</ele><time>2026-05-02T13:39:50.999Z</time></trkpt><trkpt lat="44.16571167243629" lon="10.352798628112776"><ele>493.0</ele><time>2026-05-02T13:39:51.999Z</time></trkpt><trkpt lat="44.16552184597602" lon="10.35287554356576"><ele>491.0</ele><time>2026-05-02T13:39:52.999Z</time></trkpt><trkpt lat="44.16534131531365" lon="10.352947681623073"><ele>489.0</ele><time>2026-05-02T13:39:53.999Z</time></trkpt><trkpt lat="44.16517239099146" lon="10.353016529193104"><ele>488.0</ele><time>2026-05-02T13:39:54.999Z</time></trkpt><trkpt lat="44.16502907918994" lon="10.353076402811915"><ele>487.0</ele><time>2026-05-02T13:39:55.999Z</time></trkpt><trkpt lat="44.164902463563415" lon="10.353148272422764"><ele>486.0</ele><time>2026-05-02T13:39:56.999Z</time></trkpt><trkpt lat="44.16479669060307" lon="10.353242791932049"><ele>485.0</ele><time>2026-05-02T13:39:57.999Z</time></trkpt><trkpt lat="44.16471721876863" lon="10.353371631349425"><ele>485.0</ele><time>2026-05-02T13:39:58.999Z</time></trkpt><trkpt lat="44.16464239964435" lon="10.353496920332626"><ele>485.0</ele><time>2026-05-02T13:39:59.999Z</time></trkpt><trkpt lat="44.164566513215085" lon="10.3536161918611"><ele>485.0</ele><time>2026-05-02T13:40:00.999Z</time></trkpt><trkpt lat="44.16448793443707" lon="10.353741198695753"><ele>485.0</ele><time>2026-05-02T13:40:01.999Z</time></trkpt><trkpt lat="44.16440218756281" lon="10.353869420583147"><ele>487.2</ele><time>2026-05-02T13:40:02.999Z</time></trkpt><trkpt lat="44.164327315579726" lon="10.353986222228414"><ele>489.4</ele><time>2026-05-02T13:40:03.998Z</time></trkpt><trkpt lat="44.164244606423544" lon="10.354080058063687"><ele>491.6</ele><time>2026-05-02T13:40:04.998Z</time></trkpt><trkpt lat="44.16416047403886" lon="10.354165820869186"><ele>493.8</ele><time>2026-05-02T13:40:05.998Z</time></trkpt><trkpt lat="44.16407168486013" lon="10.354232032079917"><ele>496.0</ele><time>2026-05-02T13:40:06.998Z</time></trkpt><trkpt lat="44.16397625298513" lon="10.354278541615672"><ele>496.0</ele><time>2026-05-02T13:40:08Z</time></trkpt><trkpt lat="44.16385854510373" lon="10.354307790216115"><ele>496.0</ele><time>2026-05-02T13:40:09Z</time></trkpt><trkpt lat="44.16374153502876" lon="10.354329225172236"><ele>496.0</ele><time>2026-05-02T13:40:10Z</time></trkpt><trkpt lat="44.16363215511763" lon="10.354362073354979"><ele>496.0</ele><time>2026-05-02T13:40:11Z</time></trkpt><trkpt lat="44.16352354865579" lon="10.35438681538448"><ele>496.0</ele><time>2026-05-02T13:40:12Z</time></trkpt><trkpt lat="44.16341868361967" lon="10.354408424186289"><ele>496.0</ele><time>2026-05-02T13:40:13Z</time></trkpt><trkpt lat="44.16330469690301" lon="10.354408727378205"><ele>496.0</ele><time>2026-05-02T13:40:14Z</time></trkpt><trkpt lat="44.16318107860041" lon="10.354430604491618"><ele>496.0</ele><time>2026-05-02T13:40:15Z</time></trkpt><trkpt lat="44.163040717863275" lon="10.354454246388173"><ele>495.75</ele><time>2026-05-02T13:40:16Z</time></trkpt><trkpt lat="44.16289973709453" lon="10.354475737645009"><ele>495.5</ele><time>2026-05-02T13:40:17Z</time></trkpt><trkpt lat="44.16276058472173" lon="10.354496950132672"><ele>495.25</ele><time>2026-05-02T13:40:18Z</time></trkpt><trkpt lat="44.162624998994765" lon="10.354514624221586"><ele>495.0</ele><time>2026-05-02T13:40:19Z</time></trkpt><trkpt lat="44.16249658527904" lon="10.354528465866705"><ele>495.0</ele><time>2026-05-02T13:40:20Z</time></trkpt><trkpt lat="44.16237329961888" lon="10.35451688114394"><ele>495.0</ele><time>2026-05-02T13:40:21Z</time></trkpt><trkpt lat="44.1622503168809" lon="10.354474377343756"><ele>495.0</ele><time>2026-05-02T13:40:22Z</time></trkpt><trkpt lat="44.162118941405524" lon="10.354386867070508"><ele>495.0</ele><time>2026-05-02T13:40:23Z</time></trkpt><trkpt lat="44.161986866353494" lon="10.354257244257667"><ele>497.66666666666663</ele><time>2026-05-02T13:40:24Z</time></trkpt><trkpt lat="44.16184425807573" lon="10.354103465823354"><ele>500.3333333333333</ele><time>2026-05-02T13:40:25Z</time></trkpt><trkpt lat="44.161703440165205" lon="10.353951350868117"><ele>503.0</ele><time>2026-05-02T13:40:26Z</time></trkpt><trkpt lat="44.161568075286084" lon="10.353832428734462"><ele>499.25</ele><time>2026-05-02T13:40:27Z</time></trkpt><trkpt lat="44.16146409574182" lon="10.35371112046096"><ele>495.5</ele><time>2026-05-02T13:40:28Z</time></trkpt><trkpt lat="44.16137531193582" lon="10.353614273484682"><ele>491.75</ele><time>2026-05-02T13:40:29Z</time></trkpt><trkpt lat="44.16127981131633" lon="10.353549556185106"><ele>488.0</ele><time>2026-05-02T13:40:30Z</time></trkpt><trkpt lat="44.16117748565452" lon="10.35352899805527"><ele>488.0</ele><time>2026-05-02T13:40:31Z</time></trkpt><trkpt lat="44.16108182623703" lon="10.353550530250503"><ele>487.99999999999994</ele><time>2026-05-02T13:40:32Z</time></trkpt><trkpt lat="44.160990366248434" lon="10.353583615959531"><ele>487.99999999999994</ele><time>2026-05-02T13:40:33Z</time></trkpt><trkpt lat="44.160923850472926" lon="10.353716390635045"><ele>488.0</ele><time>2026-05-02T13:40:34Z</time></trkpt><trkpt lat="44.16086315065808" lon="10.353833234902336"><ele>488.0</ele><time>2026-05-02T13:40:35Z</time></trkpt><trkpt lat="44.16081281648888" lon="10.353950992823794"><ele>486.59999999999997</ele><time>2026-05-02T13:40:36Z</time></trkpt><trkpt lat="44.16075287949203" lon="10.35406821199225"><ele>485.19999999999993</ele><time>2026-05-02T13:40:37Z</time></trkpt><trkpt lat="44.160696532153054" lon="10.354184856372415"><ele>483.8</ele><time>2026-05-02T13:40:38Z</time></trkpt><trkpt lat="44.16064641551321" lon="10.354284070648365"><ele>482.4</ele><time>2026-05-02T13:40:39Z</time></trkpt><trkpt lat="44.16060347203362" lon="10.35438944925419"><ele>481.0</ele><time>2026-05-02T13:40:40Z</time></trkpt><trkpt lat="44.160589102356546" lon="10.354497584221534"><ele>481.0</ele><time>2026-05-02T13:40:41Z</time></trkpt><trkpt lat="44.16059206911427" lon="10.354606560828076"><ele>481.0</ele><time>2026-05-02T13:40:42Z</time></trkpt><trkpt lat="44.160612853095394" lon="10.354720338155042"><ele>481.0</ele><time>2026-05-02T13:40:43Z</time></trkpt><trkpt lat="44.16065552356008" lon="10.354824033918938"><ele>481.0</ele><time>2026-05-02T13:40:44Z</time></trkpt><trkpt lat="44.16073400745008" lon="10.35492560164414"><ele>481.0</ele><time>2026-05-02T13:40:44.999Z</time></trkpt><trkpt lat="44.16084022321768" lon="10.355059705747731"><ele>484.6666666666667</ele><time>2026-05-02T13:40:45.999Z</time></trkpt><trkpt lat="44.160975668793725" lon="10.355225113331363"><ele>488.33333333333337</ele><time>2026-05-02T13:40:46.999Z</time></trkpt><trkpt lat="44.16110593450328" lon="10.3553853253652"><ele>492.0</ele><time>2026-05-02T13:40:47.999Z</time></trkpt><trkpt lat="44.16121291471451" lon="10.355531021105035"><ele>489.75</ele><time>2026-05-02T13:40:48.999Z</time></trkpt><trkpt lat="44.16131743858079" lon="10.355661012747404"><ele>487.5</ele><time>2026-05-02T13:40:49.999Z</time></trkpt><trkpt lat="44.16139873832782" lon="10.355776306891066"><ele>485.25</ele><time>2026-05-02T13:40:50.999Z</time></trkpt><trkpt lat="44.16144315194694" lon="10.355903510828036"><ele>483.0</ele><time>2026-05-02T13:40:51.999Z</time></trkpt><trkpt lat="44.16144004173673" lon="10.356041035130666"><ele>483.0</ele><time>2026-05-02T13:40:52.999Z</time></trkpt><trkpt lat="44.161367404918394" lon="10.35618836347025"><ele>483.0</ele><time>2026-05-02T13:40:53.999Z</time></trkpt><trkpt lat="44.161309295253375" lon="10.356385409467356"><ele>483.0</ele><time>2026-05-02T13:40:54.999Z</time></trkpt><trkpt lat="44.16125641351855" lon="10.356582556031329"><ele>483.0</ele><time>2026-05-02T13:40:55.999Z</time></trkpt><trkpt lat="44.16120724526542" lon="10.356763074242936"><ele>483.0</ele><time>2026-05-02T13:40:56.999Z</time></trkpt><trkpt lat="44.1611534969695" lon="10.356938937419933"><ele>483.0</ele><time>2026-05-02T13:40:57.999Z</time></trkpt><trkpt lat="44.1611000322747" lon="10.357122243576073"><ele>483.0</ele><time>2026-05-02T13:40:58.999Z</time></trkpt><trkpt lat="44.1610520982467" lon="10.357303516124313"><ele>483.0</ele><time>2026-05-02T13:40:59.999Z</time></trkpt><trkpt lat="44.16100622631016" lon="10.357477665738276"><ele>483.0</ele><time>2026-05-02T13:41:00.999Z</time></trkpt><trkpt lat="44.16095620547019" lon="10.357650876749434"><ele>483.0</ele><time>2026-05-02T13:41:01.999Z</time></trkpt><trkpt lat="44.16089547457428" lon="10.357825357474534"><ele>483.0</ele><time>2026-05-02T13:41:02.999Z</time></trkpt><trkpt lat="44.16081810512637" lon="10.357992136474003"><ele>483.0</ele><time>2026-05-02T13:41:03.999Z</time></trkpt><trkpt lat="44.160707745689805" lon="10.358147346328076"><ele>479.0</ele><time>2026-05-02T13:41:04.999Z</time></trkpt><trkpt lat="44.16062157849695" lon="10.358315821407938"><ele>475.0</ele><time>2026-05-02T13:41:05.999Z</time></trkpt><trkpt lat="44.160515312038136" lon="10.358488192112144"><ele>471.0</ele><time>2026-05-02T13:41:06.999Z</time></trkpt><trkpt lat="44.16040399319155" lon="10.35866321533679"><ele>471.0</ele><time>2026-05-02T13:41:07.999Z</time></trkpt><trkpt lat="44.160293279154246" lon="10.358842269984077"><ele>471.0</ele><time>2026-05-02T13:41:08.999Z</time></trkpt><trkpt lat="44.160189616670465" lon="10.359006931348587"><ele>471.0</ele><time>2026-05-02T13:41:09.999Z</time></trkpt><trkpt lat="44.160081029505164" lon="10.359166174210825"><ele>472.66666666666663</ele><time>2026-05-02T13:41:10.999Z</time></trkpt><trkpt lat="44.15994958814277" lon="10.359289654926231"><ele>474.3333333333333</ele><time>2026-05-02T13:41:11.999Z</time></trkpt><trkpt lat="44.159816081451524" lon="10.359396751980603"><ele>476.0</ele><time>2026-05-02T13:41:12.999Z</time></trkpt><trkpt lat="44.15965150910875" lon="10.359478782620434"><ele>470.66666666666663</ele><time>2026-05-02T13:41:13.999Z</time></trkpt><trkpt lat="44.159486624725425" lon="10.359568046230931"><ele>465.33333333333337</ele><time>2026-05-02T13:41:14.999Z</time></trkpt><trkpt lat="44.15931747369711" lon="10.359631092366126"><ele>460.0</ele><time>2026-05-02T13:41:15.999Z</time></trkpt><trkpt lat="44.159156668905375" lon="10.35969661828624"><ele>460.6666666666667</ele><time>2026-05-02T13:41:16.999Z</time></trkpt><trkpt lat="44.1590006643766" lon="10.35975087594454"><ele>461.33333333333337</ele><time>2026-05-02T13:41:17.999Z</time></trkpt><trkpt lat="44.15884912951933" lon="10.359807631078757"><ele>462.0</ele><time>2026-05-02T13:41:18.999Z</time></trkpt><trkpt lat="44.15870840046156" lon="10.35985757986416"><ele>462.0</ele><time>2026-05-02T13:41:19.999Z</time></trkpt><trkpt lat="44.1585899414901" lon="10.359897678241419"><ele>462.00000000000006</ele><time>2026-05-02T13:41:20.999Z</time></trkpt><trkpt lat="44.15847829348811" lon="10.359941501637316"><ele>462.00000000000006</ele><time>2026-05-02T13:41:21.999Z</time></trkpt><trkpt lat="44.15838475507066" lon="10.359993849395194"><ele>462.0</ele><time>2026-05-02T13:41:22.999Z</time></trkpt><trkpt lat="44.15830154048247" lon="10.360086458127524"><ele>462.0</ele><time>2026-05-02T13:41:23.999Z</time></trkpt><trkpt lat="44.15823487774966" lon="10.360241048561507"><ele>457.66666666666663</ele><time>2026-05-02T13:41:24.999Z</time></trkpt><trkpt lat="44.1581870466913" lon="10.360446594545957"><ele>453.3333333333333</ele><time>2026-05-02T13:41:25.999Z</time></trkpt><trkpt lat="44.15815069198376" lon="10.36068640659118"><ele>449.0</ele><time>2026-05-02T13:41:26.999Z</time></trkpt><trkpt lat="44.158097243469854" lon="10.360933475407277"><ele>449.0</ele><time>2026-05-02T13:41:27.999Z</time></trkpt><trkpt lat="44.15804958550408" lon="10.36116395842004"><ele>449.0</ele><time>2026-05-02T13:41:28.999Z</time></trkpt><trkpt lat="44.15798738009313" lon="10.361350018775694"><ele>449.0</ele><time>2026-05-02T13:41:29.999Z</time></trkpt><trkpt lat="44.15790287308747" lon="10.361482516956926"><ele>449.0</ele><time>2026-05-02T13:41:30.999Z</time></trkpt><trkpt lat="44.15783361513801" lon="10.361572696727"><ele>450.4</ele><time>2026-05-02T13:41:31.999Z</time></trkpt><trkpt lat="44.15777134360326" lon="10.361651328984228"><ele>451.79999999999995</ele><time>2026-05-02T13:41:32.999Z</time></trkpt><trkpt lat="44.15771759858882" lon="10.36171432268059"><ele>453.20000000000005</ele><time>2026-05-02T13:41:33.999Z</time></trkpt><trkpt lat="44.15762470024748" lon="10.3618265886489"><ele>454.6</ele><time>2026-05-02T13:41:35.999Z</time></trkpt><trkpt lat="44.15757381443158" lon="10.36189452997907"><ele>456.0</ele><time>2026-05-02T13:41:36.999Z</time></trkpt><trkpt lat="44.15749328606466" lon="10.36200353142659"><ele>456.0</ele><time>2026-05-02T13:41:38.999Z</time></trkpt><trkpt lat="44.15742122747822" lon="10.362094659131222"><ele>456.0</ele><time>2026-05-02T13:41:40.999Z</time></trkpt><trkpt lat="44.15733377868353" lon="10.362192650450568"><ele>456.0</ele><time>2026-05-02T13:41:42.999Z</time></trkpt><trkpt lat="44.15724650174634" lon="10.362280498409625"><ele>456.0</ele><time>2026-05-02T13:41:44.999Z</time></trkpt><trkpt lat="44.15713647557889" lon="10.362295787361965"><ele>456.0</ele><time>2026-05-02T13:41:46.999Z</time></trkpt><trkpt lat="44.15706466211285" lon="10.3622919090559"><ele>455.3333333333333</ele><time>2026-05-02T13:41:47.999Z</time></trkpt><trkpt lat="44.15699991142838" lon="10.3622876778036"><ele>454.66666666666663</ele><time>2026-05-02T13:41:48.999Z</time></trkpt><trkpt lat="44.15692768204567" lon="10.362262614718485"><ele>454.0</ele><time>2026-05-02T13:41:49.999Z</time></trkpt><trkpt lat="44.15686016253898" lon="10.362283069216641"><ele>453.3333333333333</ele><time>2026-05-02T13:41:50.999Z</time></trkpt><trkpt lat="44.15679435383007" lon="10.362286254021422"><ele>452.66666666666663</ele><time>2026-05-02T13:41:51.999Z</time></trkpt><trkpt lat="44.15673150219259" lon="10.362304697356944"><ele>452.0</ele><time>2026-05-02T13:41:52.999Z</time></trkpt><trkpt lat="44.156638545678675" lon="10.362401527805602"><ele>452.0</ele><time>2026-05-02T13:41:54.999Z</time></trkpt><trkpt lat="44.156582462246355" lon="10.362544365988665"><ele>452.0</ele><time>2026-05-02T13:41:56.999Z</time></trkpt><trkpt lat="44.156540460993014" lon="10.362673970354244"><ele>452.0</ele><time>2026-05-02T13:41:57.999Z</time></trkpt><trkpt lat="44.156494793108436" lon="10.362856791419526"><ele>452.0</ele><time>2026-05-02T13:41:58.999Z</time></trkpt><trkpt lat="44.15644544182282" lon="10.363070377877806"><ele>447.0</ele><time>2026-05-02T13:41:59.999Z</time></trkpt><trkpt lat="44.15638802928476" lon="10.363321734216957"><ele>442.0</ele><time>2026-05-02T13:42:00.999Z</time></trkpt><trkpt lat="44.15633261848056" lon="10.363581545586404"><ele>437.0</ele><time>2026-05-02T13:42:01.999Z</time></trkpt><trkpt lat="44.15628441228153" lon="10.363834049196997"><ele>436.0</ele><time>2026-05-02T13:42:02.999Z</time></trkpt><trkpt lat="44.15624155647613" lon="10.364072632016441"><ele>435.0</ele><time>2026-05-02T13:42:03.999Z</time></trkpt><trkpt lat="44.1562057451523" lon="10.364285651709586"><ele>434.0</ele><time>2026-05-02T13:42:04.999Z</time></trkpt><trkpt lat="44.15618142674801" lon="10.364479700954986"><ele>434.0</ele><time>2026-05-02T13:42:05.999Z</time></trkpt><trkpt lat="44.15618944892144" lon="10.364652561551631"><ele>434.0</ele><time>2026-05-02T13:42:06.999Z</time></trkpt><trkpt lat="44.156238825436624" lon="10.364819818475105"><ele>434.0</ele><time>2026-05-02T13:42:07.999Z</time></trkpt><trkpt lat="44.156324591862116" lon="10.364968902374812"><ele>434.0</ele><time>2026-05-02T13:42:08.999Z</time></trkpt><trkpt lat="44.156411984828445" lon="10.365097773272474"><ele>434.25</ele><time>2026-05-02T13:42:09.999Z</time></trkpt><trkpt lat="44.15646548862064" lon="10.365237141811413"><ele>434.5</ele><time>2026-05-02T13:42:10.999Z</time></trkpt><trkpt lat="44.156450051790735" lon="10.365384057942618"><ele>434.75</ele><time>2026-05-02T13:42:11.999Z</time></trkpt><trkpt lat="44.156394874477584" lon="10.36552480230443"><ele>435.0</ele><time>2026-05-02T13:42:12.999Z</time></trkpt><trkpt lat="44.15630789352462" lon="10.365703674248277"><ele>435.75</ele><time>2026-05-02T13:42:14Z</time></trkpt><trkpt lat="44.15621228715162" lon="10.365890948850627"><ele>436.5</ele><time>2026-05-02T13:42:15Z</time></trkpt><trkpt lat="44.156115136742606" lon="10.366007943160188"><ele>437.25</ele><time>2026-05-02T13:42:16Z</time></trkpt><trkpt lat="44.1560097313882" lon="10.366034183536655"><ele>438.0</ele><time>2026-05-02T13:42:17Z</time></trkpt><trkpt lat="44.15588215136923" lon="10.366019846182299"><ele>438.0</ele><time>2026-05-02T13:42:18Z</time></trkpt><trkpt lat="44.155740925563954" lon="10.366007375108296"><ele>438.0</ele><time>2026-05-02T13:42:19Z</time></trkpt><trkpt lat="44.15560957029931" lon="10.366022519682343"><ele>438.0</ele><time>2026-05-02T13:42:20Z</time></trkpt><trkpt lat="44.15548559916178" lon="10.366108808539872"><ele>438.0</ele><time>2026-05-02T13:42:21Z</time></trkpt><trkpt lat="44.15535918861598" lon="10.366266429364993"><ele>438.66666666666663</ele><time>2026-05-02T13:42:22Z</time></trkpt><trkpt lat="44.15525549179221" lon="10.366429494862386"><ele>439.3333333333333</ele><time>2026-05-02T13:42:23Z</time></trkpt><trkpt lat="44.15515407050403" lon="10.366589010140025"><ele>440.0</ele><time>2026-05-02T13:42:24Z</time></trkpt><trkpt lat="44.155041565316814" lon="10.366708204525523"><ele>440.0</ele><time>2026-05-02T13:42:25Z</time></trkpt><trkpt lat="44.15490660483123" lon="10.366766260883232"><ele>440.0</ele><time>2026-05-02T13:42:26Z</time></trkpt><trkpt lat="44.15474948423249" lon="10.366760468881441"><ele>440.0</ele><time>2026-05-02T13:42:27Z</time></trkpt><trkpt lat="44.15459719781122" lon="10.366675579197773"><ele>441.0</ele><time>2026-05-02T13:42:28Z</time></trkpt><trkpt lat="44.15442292260579" lon="10.366581191683995"><ele>442.0</ele><time>2026-05-02T13:42:29Z</time></trkpt><trkpt lat="44.154248909588794" lon="10.366473265171555"><ele>443.0</ele><time>2026-05-02T13:42:30Z</time></trkpt><trkpt lat="44.15404851014447" lon="10.366412102718133"><ele>444.0</ele><time>2026-05-02T13:42:31Z</time></trkpt><trkpt lat="44.153827804670854" lon="10.366382911776238"><ele>445.0</ele><time>2026-05-02T13:42:32Z</time></trkpt><trkpt lat="44.15359215803294" lon="10.36636487891086"><ele>430.5</ele><time>2026-05-02T13:42:33Z</time></trkpt><trkpt lat="44.15335361276693" lon="10.366352604076596"><ele>416.0</ele><time>2026-05-02T13:42:34Z</time></trkpt><trkpt lat="44.15312638443972" lon="10.366338275164088"><ele>415.66666666666663</ele><time>2026-05-02T13:42:35Z</time></trkpt><trkpt lat="44.15291860917829" lon="10.366320804716466"><ele>415.33333333333337</ele><time>2026-05-02T13:42:36Z</time></trkpt><trkpt lat="44.15273925494525" lon="10.366303525344472"><ele>415.0</ele><time>2026-05-02T13:42:37Z</time></trkpt><trkpt lat="44.1525792947287" lon="10.366297664148728"><ele>415.0</ele><time>2026-05-02T13:42:38Z</time></trkpt><trkpt lat="44.152432254458404" lon="10.366328466642708"><ele>415.0</ele><time>2026-05-02T13:42:39Z</time></trkpt><trkpt lat="44.15229114650368" lon="10.366417329264454"><ele>415.0</ele><time>2026-05-02T13:42:40Z</time></trkpt><trkpt lat="44.15216370020211" lon="10.366528661632735"><ele>419.25</ele><time>2026-05-02T13:42:41Z</time></trkpt><trkpt lat="44.15207278617076" lon="10.366653135066045"><ele>423.5</ele><time>2026-05-02T13:42:42Z</time></trkpt><trkpt lat="44.15197416197351" lon="10.366726516959357"><ele>427.75</ele><time>2026-05-02T13:42:43Z</time></trkpt><trkpt lat="44.15183507523345" lon="10.366760451385389"><ele>432.0</ele><time>2026-05-02T13:42:44Z</time></trkpt><trkpt lat="44.15161782656158" lon="10.366806068292988"><ele>427.66666666666663</ele><time>2026-05-02T13:42:45Z</time></trkpt><trkpt lat="44.15143152236249" lon="10.366814106053903"><ele>423.3333333333333</ele><time>2026-05-02T13:42:46Z</time></trkpt><trkpt lat="44.15125865641992" lon="10.366866115671826"><ele>419.0</ele><time>2026-05-02T13:42:47Z</time></trkpt><trkpt lat="44.15110773271588" lon="10.366970535735515"><ele>419.0</ele><time>2026-05-02T13:42:48Z</time></trkpt><trkpt lat="44.15096294910109" lon="10.367050245377987"><ele>419.0</ele><time>2026-05-02T13:42:49Z</time></trkpt><trkpt lat="44.15082830739713" lon="10.367140463143627"><ele>419.0</ele><time>2026-05-02T13:42:50Z</time></trkpt><trkpt lat="44.15069487245924" lon="10.367208871890499"><ele>419.0</ele><time>2026-05-02T13:42:51Z</time></trkpt><trkpt lat="44.15053665839185" lon="10.367168686434468"><ele>417.0</ele><time>2026-05-02T13:42:52Z</time></trkpt><trkpt lat="44.15038032667565" lon="10.367138535684958"><ele>415.0</ele><time>2026-05-02T13:42:53Z</time></trkpt><trkpt lat="44.15022004128941" lon="10.367169061359217"><ele>413.0</ele><time>2026-05-02T13:42:54Z</time></trkpt><trkpt lat="44.15007238504927" lon="10.367229558921315"><ele>415.66666666666663</ele><time>2026-05-02T13:42:55Z</time></trkpt><trkpt lat="44.14992767908804" lon="10.367305186520372"><ele>418.33333333333337</ele><time>2026-05-02T13:42:56Z</time></trkpt><trkpt lat="44.1497805241991" lon="10.367377471039646"><ele>421.0</ele><time>2026-05-02T13:42:57Z</time></trkpt><trkpt lat="44.14966542033549" lon="10.367511433860006"><ele>421.0</ele><time>2026-05-02T13:42:58Z</time></trkpt><trkpt lat="44.14952901967399" lon="10.36758304461466"><ele>421.0</ele><time>2026-05-02T13:42:59Z</time></trkpt><trkpt lat="44.14938486211826" lon="10.367661053146962"><ele>421.0</ele><time>2026-05-02T13:42:59.999Z</time></trkpt><trkpt lat="44.14926970812848" lon="10.367736404792304"><ele>421.0</ele><time>2026-05-02T13:43:00.999Z</time></trkpt><trkpt lat="44.14913770737975" lon="10.367687527167162"><ele>418.75</ele><time>2026-05-02T13:43:01.999Z</time></trkpt><trkpt lat="44.148971929943734" lon="10.367766974980682"><ele>416.5</ele><time>2026-05-02T13:43:02.999Z</time></trkpt><trkpt lat="44.14887358031479" lon="10.367821212108472"><ele>414.25</ele><time>2026-05-02T13:43:03.999Z</time></trkpt><trkpt lat="44.14877892686076" lon="10.367935738887608"><ele>412.0</ele><time>2026-05-02T13:43:04.999Z</time></trkpt><trkpt lat="44.14873802324869" lon="10.368111665004271"><ele>412.0</ele><time>2026-05-02T13:43:05.999Z</time></trkpt><trkpt lat="44.148731457240615" lon="10.368256149748508"><ele>412.0</ele><time>2026-05-02T13:43:06.999Z</time></trkpt><trkpt lat="44.14874081931344" lon="10.368394048910128"><ele>412.0</ele><time>2026-05-02T13:43:07.999Z</time></trkpt><trkpt lat="44.148741651730056" lon="10.368530416492797"><ele>412.0</ele><time>2026-05-02T13:43:08.999Z</time></trkpt><trkpt lat="44.14874165173043" lon="10.368659507968069"><ele>412.0</ele><time>2026-05-02T13:43:09.999Z</time></trkpt><trkpt lat="44.14874251734392" lon="10.368781487798564"><ele>413.75</ele><time>2026-05-02T13:43:10.999Z</time></trkpt><trkpt lat="44.148770028214685" lon="10.368927507658094"><ele>415.5</ele><time>2026-05-02T13:43:11.999Z</time></trkpt><trkpt lat="44.14876892903136" lon="10.369089991463143"><ele>417.25</ele><time>2026-05-02T13:43:12.999Z</time></trkpt><trkpt lat="44.14875476494769" lon="10.369275361183709"><ele>419.0</ele><time>2026-05-02T13:43:13.999Z</time></trkpt><trkpt lat="44.1487121561823" lon="10.369445362172916"><ele>419.0</ele><time>2026-05-02T13:43:14.999Z</time></trkpt><trkpt lat="44.14861551130968" lon="10.369555428178913"><ele>419.0</ele><time>2026-05-02T13:43:15.999Z</time></trkpt><trkpt lat="44.14853933492935" lon="10.369676547773066"><ele>419.0</ele><time>2026-05-02T13:43:16.999Z</time></trkpt><trkpt lat="44.14845491613767" lon="10.369763989856619"><ele>419.0</ele><time>2026-05-02T13:43:17.999Z</time></trkpt><trkpt lat="44.14836115856126" lon="10.369852457689081"><ele>419.0</ele><time>2026-05-02T13:43:18.999Z</time></trkpt><trkpt lat="44.148243533786406" lon="10.369868296594179"><ele>419.0</ele><time>2026-05-02T13:43:19.999Z</time></trkpt><trkpt lat="44.14810419638269" lon="10.369866687042707"><ele>419.0</ele><time>2026-05-02T13:43:20.999Z</time></trkpt><trkpt lat="44.14796615093108" lon="10.369883541693591"><ele>419.0</ele><time>2026-05-02T13:43:21.999Z</time></trkpt><trkpt lat="44.14783178090086" lon="10.369950329956922"><ele>419.0</ele><time>2026-05-02T13:43:22.999Z</time></trkpt><trkpt lat="44.14760062857661" lon="10.37016926790974"><ele>419.0</ele><time>2026-05-02T13:43:23.999Z</time></trkpt><trkpt lat="44.14745407285127" lon="10.370272885798785"><ele>419.0</ele><time>2026-05-02T13:43:24.999Z</time></trkpt><trkpt lat="44.14731781845355" lon="10.370403731584572"><ele>417.3333333333333</ele><time>2026-05-02T13:43:25.999Z</time></trkpt><trkpt lat="44.14719470331177" lon="10.370552309491726"><ele>415.66666666666663</ele><time>2026-05-02T13:43:26.999Z</time></trkpt><trkpt lat="44.1470759394262" lon="10.370709830480198"><ele>414.0</ele><time>2026-05-02T13:43:27.999Z</time></trkpt><trkpt lat="44.14696820122139" lon="10.370887468017118"><ele>414.0</ele><time>2026-05-02T13:43:28.999Z</time></trkpt><trkpt lat="44.146886448805006" lon="10.37109507430067"><ele>414.0</ele><time>2026-05-02T13:43:29.999Z</time></trkpt><trkpt lat="44.14682968643194" lon="10.371309718322951"><ele>414.0</ele><time>2026-05-02T13:43:30.999Z</time></trkpt><trkpt lat="44.146790143184184" lon="10.371549928595753"><ele>415.33333333333337</ele><time>2026-05-02T13:43:31.999Z</time></trkpt><trkpt lat="44.146778449332395" lon="10.371799406376724"><ele>416.6666666666667</ele><time>2026-05-02T13:43:32.999Z</time></trkpt><trkpt lat="44.146782548845174" lon="10.372050130549963"><ele>418.0</ele><time>2026-05-02T13:43:33.999Z</time></trkpt><trkpt lat="44.14680989272337" lon="10.372297917824723"><ele>418.0</ele><time>2026-05-02T13:43:34.999Z</time></trkpt><trkpt lat="44.14684786069582" lon="10.372515884299817"><ele>418.0</ele><time>2026-05-02T13:43:35.999Z</time></trkpt><trkpt lat="44.14684955170026" lon="10.372677761136947"><ele>418.0</ele><time>2026-05-02T13:43:36.999Z</time></trkpt><trkpt lat="44.14680581026392" lon="10.372780780451503"><ele>418.0</ele><time>2026-05-02T13:43:37.999Z</time></trkpt><trkpt lat="44.1467211074842" lon="10.372830687012586"><ele>418.0</ele><time>2026-05-02T13:43:38.999Z</time></trkpt><trkpt lat="44.146616518209555" lon="10.372892214725145"><ele>418.0</ele><time>2026-05-02T13:43:39.999Z</time></trkpt><trkpt lat="44.146497176989165" lon="10.372892788907219"><ele>418.0</ele><time>2026-05-02T13:43:40.999Z</time></trkpt><trkpt lat="44.146345897694104" lon="10.372859557244505"><ele>418.0</ele><time>2026-05-02T13:43:41.999Z</time></trkpt><trkpt lat="44.146187916483015" lon="10.37279414543339"><ele>416.75</ele><time>2026-05-02T13:43:42.999Z</time></trkpt><trkpt lat="44.14604017674534" lon="10.372734818853697"><ele>415.5</ele><time>2026-05-02T13:43:43.999Z</time></trkpt><trkpt lat="44.145912982557014" lon="10.372683923056227"><ele>414.25</ele><time>2026-05-02T13:43:44.999Z</time></trkpt><trkpt lat="44.1458030917143" lon="10.372644708255308"><ele>413.0</ele><time>2026-05-02T13:43:45.999Z</time></trkpt><trkpt lat="44.145716473856304" lon="10.37264522485411"><ele>413.5</ele><time>2026-05-02T13:43:46.999Z</time></trkpt><trkpt lat="44.14562826109295" lon="10.372686838466992"><ele>414.0</ele><time>2026-05-02T13:43:47.999Z</time></trkpt><trkpt lat="44.145508375018345" lon="10.372822926010492"><ele>414.5</ele><time>2026-05-02T13:43:48.999Z</time></trkpt><trkpt lat="44.145357294433104" lon="10.372963934552933"><ele>415.0</ele><time>2026-05-02T13:43:49.999Z</time></trkpt><trkpt lat="44.14518660446726" lon="10.373115784231292"><ele>415.0</ele><time>2026-05-02T13:43:50.999Z</time></trkpt><trkpt lat="44.14500057471396" lon="10.373278111826538"><ele>415.0</ele><time>2026-05-02T13:43:51.999Z</time></trkpt><trkpt lat="44.14481880633442" lon="10.373436315411158"><ele>415.0</ele><time>2026-05-02T13:43:52.999Z</time></trkpt><trkpt lat="44.144634563034955" lon="10.373592845461715"><ele>416.33333333333337</ele><time>2026-05-02T13:43:53.999Z</time></trkpt><trkpt lat="44.144453116859786" lon="10.373745669327667"><ele>417.66666666666663</ele><time>2026-05-02T13:43:54.999Z</time></trkpt><trkpt lat="44.14428900034743" lon="10.373879122182302"><ele>419.0</ele><time>2026-05-02T13:43:55.999Z</time></trkpt><trkpt lat="44.144129760320354" lon="10.37395795960655"><ele>417.66666666666663</ele><time>2026-05-02T13:43:56.999Z</time></trkpt><trkpt lat="44.14396768093648" lon="10.374006170457099"><ele>416.33333333333337</ele><time>2026-05-02T13:43:57.999Z</time></trkpt><trkpt lat="44.143813273566025" lon="10.374006505705665"><ele>415.0</ele><time>2026-05-02T13:43:58.999Z</time></trkpt><trkpt lat="44.143640905475976" lon="10.373973677599547"><ele>415.0</ele><time>2026-05-02T13:43:59.999Z</time></trkpt><trkpt lat="44.143471822626715" lon="10.37387052213301"><ele>415.0</ele><time>2026-05-02T13:44:00.999Z</time></trkpt><trkpt lat="44.14330847509353" lon="10.373758823227703"><ele>415.0</ele><time>2026-05-02T13:44:01.999Z</time></trkpt><trkpt lat="44.14317138058847" lon="10.37366669613987"><ele>414.4</ele><time>2026-05-02T13:44:02.999Z</time></trkpt><trkpt lat="44.143058577186125" lon="10.373588825915933"><ele>413.8</ele><time>2026-05-02T13:44:03.999Z</time></trkpt><trkpt lat="44.14296032853104" lon="10.373560399457775"><ele>413.20000000000005</ele><time>2026-05-02T13:44:04.999Z</time></trkpt><trkpt lat="44.1428577130371" lon="10.373591228068682"><ele>412.6</ele><time>2026-05-02T13:44:05.999Z</time></trkpt><trkpt lat="44.14274910522487" lon="10.3736318679291"><ele>412.0</ele><time>2026-05-02T13:44:06.999Z</time></trkpt><trkpt lat="44.14268084730378" lon="10.373815198906566"><ele>411.33333333333337</ele><time>2026-05-02T13:44:07.999Z</time></trkpt><trkpt lat="44.142621351983756" lon="10.374013927129463"><ele>410.66666666666663</ele><time>2026-05-02T13:44:08.999Z</time></trkpt><trkpt lat="44.14255089376638" lon="10.374248682285597"><ele>410.0</ele><time>2026-05-02T13:44:09.999Z</time></trkpt><trkpt lat="44.1424753524803" lon="10.374492025246145"><ele>409.0</ele><time>2026-05-02T13:44:10.999Z</time></trkpt><trkpt lat="44.14240420698319" lon="10.374722021562985"><ele>408.0</ele><time>2026-05-02T13:44:11.999Z</time></trkpt><trkpt lat="44.142347245440284" lon="10.374948382288771"><ele>407.0</ele><time>2026-05-02T13:44:12.999Z</time></trkpt><trkpt lat="44.14228568565827" lon="10.37516236350776"><ele>403.0</ele><time>2026-05-02T13:44:13.999Z</time></trkpt><trkpt lat="44.1422466839386" lon="10.37539157834649"><ele>399.0</ele><time>2026-05-02T13:44:14.999Z</time></trkpt><trkpt lat="44.14223881425438" lon="10.37564407879886"><ele>395.0</ele><time>2026-05-02T13:44:15.999Z</time></trkpt><trkpt lat="44.14223868976178" lon="10.375897355663422"><ele>395.0</ele><time>2026-05-02T13:44:16.999Z</time></trkpt><trkpt lat="44.142198231656685" lon="10.376151251412569"><ele>395.0</ele><time>2026-05-02T13:44:17.999Z</time></trkpt><trkpt lat="44.14214079028574" lon="10.376407069798663"><ele>395.0</ele><time>2026-05-02T13:44:18.999Z</time></trkpt><trkpt lat="44.142061416598246" lon="10.376639494780587"><ele>396.3333333333333</ele><time>2026-05-02T13:44:20Z</time></trkpt><trkpt lat="44.141977490500516" lon="10.376857995917478"><ele>397.66666666666663</ele><time>2026-05-02T13:44:21Z</time></trkpt><trkpt lat="44.141894003312665" lon="10.377055924117538"><ele>399.0</ele><time>2026-05-02T13:44:22Z</time></trkpt><trkpt lat="44.1418158640665" lon="10.377235644988641"><ele>399.0</ele><time>2026-05-02T13:44:23Z</time></trkpt><trkpt lat="44.14168643536849" lon="10.377343842293985"><ele>399.0</ele><time>2026-05-02T13:44:24Z</time></trkpt><trkpt lat="44.141543394686806" lon="10.377461996567005"><ele>399.0</ele><time>2026-05-02T13:44:25Z</time></trkpt><trkpt lat="44.141387769908945" lon="10.377606788130022"><ele>399.0</ele><time>2026-05-02T13:44:26Z</time></trkpt><trkpt lat="44.14123937626297" lon="10.377758834560458"><ele>399.0</ele><time>2026-05-02T13:44:27Z</time></trkpt><trkpt lat="44.14109642042899" lon="10.377876424321386"><ele>399.0</ele><time>2026-05-02T13:44:28Z</time></trkpt><trkpt lat="44.14094360115759" lon="10.37793797009301"><ele>399.0</ele><time>2026-05-02T13:44:29Z</time></trkpt><trkpt lat="44.14078870968424" lon="10.377951006662025"><ele>399.0</ele><time>2026-05-02T13:44:30Z</time></trkpt><trkpt lat="44.14063743501237" lon="10.377977098966838"><ele>399.0</ele><time>2026-05-02T13:44:31Z</time></trkpt><trkpt lat="44.140493878139885" lon="10.37800720294128"><ele>398.5</ele><time>2026-05-02T13:44:32Z</time></trkpt><trkpt lat="44.14037267571126" lon="10.378075080766406"><ele>398.0</ele><time>2026-05-02T13:44:33Z</time></trkpt><trkpt lat="44.14025998019815" lon="10.378180380942792"><ele>397.5</ele><time>2026-05-02T13:44:34Z</time></trkpt><trkpt lat="44.14016809716434" lon="10.378331862629196"><ele>397.0</ele><time>2026-05-02T13:44:35Z</time></trkpt><trkpt lat="44.140093932018196" lon="10.378520254989033"><ele>397.0</ele><time>2026-05-02T13:44:36Z</time></trkpt><trkpt lat="44.14002710997804" lon="10.37873811668379"><ele>397.0</ele><time>2026-05-02T13:44:37Z</time></trkpt><trkpt lat="44.13994840981333" lon="10.37896015533768"><ele>397.0</ele><time>2026-05-02T13:44:38Z</time></trkpt><trkpt lat="44.1398316779215" lon="10.379130862744102"><ele>392.33333333333337</ele><time>2026-05-02T13:44:39Z</time></trkpt><trkpt lat="44.139694961323954" lon="10.379296009480814"><ele>387.6666666666667</ele><time>2026-05-02T13:44:40Z</time></trkpt><trkpt lat="44.139562620062826" lon="10.379481957626133"><ele>383.0</ele><time>2026-05-02T13:44:41Z</time></trkpt><trkpt lat="44.13943254580991" lon="10.379649551129752"><ele>384.6666666666667</ele><time>2026-05-02T13:44:42Z</time></trkpt><trkpt lat="44.1393235036612" lon="10.379861543476279"><ele>386.33333333333337</ele><time>2026-05-02T13:44:43Z</time></trkpt><trkpt lat="44.139231790156266" lon="10.38008719251037"><ele>388.0</ele><time>2026-05-02T13:44:44Z</time></trkpt><trkpt lat="44.1391334495818" lon="10.38030236271357"><ele>385.0</ele><time>2026-05-02T13:44:45Z</time></trkpt><trkpt lat="44.13902980953766" lon="10.380502705626878"><ele>382.0</ele><time>2026-05-02T13:44:46Z</time></trkpt><trkpt lat="44.13888893047199" lon="10.380657801314037"><ele>379.0</ele><time>2026-05-02T13:44:47Z</time></trkpt><trkpt lat="44.13872664709349" lon="10.380813369898258"><ele>379.0</ele><time>2026-05-02T13:44:48Z</time></trkpt><trkpt lat="44.13855894617375" lon="10.380987708876134"><ele>379.0</ele><time>2026-05-02T13:44:49Z</time></trkpt><trkpt lat="44.13841894031331" lon="10.381152080350889"><ele>379.0</ele><time>2026-05-02T13:44:50Z</time></trkpt><trkpt lat="44.13829654847716" lon="10.381317890087844"><ele>376.75</ele><time>2026-05-02T13:44:51Z</time></trkpt><trkpt lat="44.13819222499166" lon="10.38149072825542"><ele>374.5</ele><time>2026-05-02T13:44:52Z</time></trkpt><trkpt lat="44.138070328808695" lon="10.381587260317696"><ele>372.25</ele><time>2026-05-02T13:44:53Z</time></trkpt><trkpt lat="44.13794446098579" lon="10.381675865851815"><ele>370.0</ele><time>2026-05-02T13:44:54Z</time></trkpt><trkpt lat="44.137843161539166" lon="10.381810425208913"><ele>370.0</ele><time>2026-05-02T13:44:55Z</time></trkpt><trkpt lat="44.13774904458349" lon="10.38197722658268"><ele>370.0</ele><time>2026-05-02T13:44:56Z</time></trkpt><trkpt lat="44.13767003862453" lon="10.382205954865091"><ele>370.0</ele><time>2026-05-02T13:44:57Z</time></trkpt><trkpt lat="44.13755128945645" lon="10.382392266777478"><ele>369.0</ele><time>2026-05-02T13:44:58Z</time></trkpt><trkpt lat="44.13741312812774" lon="10.38251930231072"><ele>368.0</ele><time>2026-05-02T13:44:59Z</time></trkpt><trkpt lat="44.13726076154692" lon="10.382615549163813"><ele>367.0</ele><time>2026-05-02T13:45:00Z</time></trkpt><trkpt lat="44.13710020038402" lon="10.382707685069882"><ele>367.0</ele><time>2026-05-02T13:45:01Z</time></trkpt><trkpt lat="44.13694953999962" lon="10.382809837638405"><ele>367.0</ele><time>2026-05-02T13:45:02Z</time></trkpt><trkpt lat="44.136818947952136" lon="10.382896140786773"><ele>367.0</ele><time>2026-05-02T13:45:03Z</time></trkpt><trkpt lat="44.13671523288779" lon="10.383011685290256"><ele>367.0</ele><time>2026-05-02T13:45:04Z</time></trkpt><trkpt lat="44.13663275596514" lon="10.383159151510021"><ele>368.75</ele><time>2026-05-02T13:45:05Z</time></trkpt><trkpt lat="44.13657088079004" lon="10.383330047623133"><ele>370.5</ele><time>2026-05-02T13:45:06Z</time></trkpt><trkpt lat="44.13654484701473" lon="10.38352127185399"><ele>372.25</ele><time>2026-05-02T13:45:07Z</time></trkpt><trkpt lat="44.13654657923807" lon="10.383728277708125"><ele>374.0</ele><time>2026-05-02T13:45:08Z</time></trkpt><trkpt lat="44.13657989131717" lon="10.383966968049943"><ele>374.0</ele><time>2026-05-02T13:45:09Z</time></trkpt><trkpt lat="44.136618795369806" lon="10.384217632374986"><ele>374.0</ele><time>2026-05-02T13:45:10Z</time></trkpt><trkpt lat="44.13665265027355" lon="10.384488103439223"><ele>374.0</ele><time>2026-05-02T13:45:11Z</time></trkpt><trkpt lat="44.136684186615874" lon="10.384777095176894"><ele>372.0</ele><time>2026-05-02T13:45:11.999Z</time></trkpt><trkpt lat="44.13672019539046" lon="10.385053969399078"><ele>370.0</ele><time>2026-05-02T13:45:12.999Z</time></trkpt><trkpt lat="44.13675812257291" lon="10.385316959575569"><ele>368.0</ele><time>2026-05-02T13:45:13.999Z</time></trkpt><trkpt lat="44.136793760397396" lon="10.38557130078296"><ele>367.0</ele><time>2026-05-02T13:45:14.999Z</time></trkpt><trkpt lat="44.13682225391098" lon="10.385784051724139"><ele>366.0</ele><time>2026-05-02T13:45:15.999Z</time></trkpt><trkpt lat="44.13685205944582" lon="10.385977796168763"><ele>365.0</ele><time>2026-05-02T13:45:16.999Z</time></trkpt><trkpt lat="44.1368682126322" lon="10.386128237394601"><ele>364.0</ele><time>2026-05-02T13:45:17.999Z</time></trkpt><trkpt lat="44.136837376634816" lon="10.386249182412255"><ele>362.75</ele><time>2026-05-02T13:45:18.999Z</time></trkpt><trkpt lat="44.13675887340312" lon="10.386357025205394"><ele>361.5</ele><time>2026-05-02T13:45:19.999Z</time></trkpt><trkpt lat="44.136631492025835" lon="10.386390728754899"><ele>360.25</ele><time>2026-05-02T13:45:20.999Z</time></trkpt><trkpt lat="44.13648710711983" lon="10.386457023853465"><ele>359.0</ele><time>2026-05-02T13:45:21.999Z</time></trkpt><trkpt lat="44.13632499035329" lon="10.386524742414876"><ele>359.0</ele><time>2026-05-02T13:45:22.999Z</time></trkpt><trkpt lat="44.13615891020177" lon="10.386597066781318"><ele>359.0</ele><time>2026-05-02T13:45:23.999Z</time></trkpt><trkpt lat="44.13599939486043" lon="10.386669518438536"><ele>359.0</ele><time>2026-05-02T13:45:24.999Z</time></trkpt><trkpt lat="44.135854887364125" lon="10.386739534773504"><ele>357.0</ele><time>2026-05-02T13:45:25.999Z</time></trkpt><trkpt lat="44.13570988480485" lon="10.386803640165995"><ele>355.0</ele><time>2026-05-02T13:45:26.999Z</time></trkpt><trkpt lat="44.1355793957412" lon="10.386859890481706"><ele>353.0</ele><time>2026-05-02T13:45:27.999Z</time></trkpt><trkpt lat="44.13547105084143" lon="10.386904900085941"><ele>351.0</ele><time>2026-05-02T13:45:28.999Z</time></trkpt><trkpt lat="44.13537370759863" lon="10.386969564535365"><ele>351.0</ele><time>2026-05-02T13:45:29.999Z</time></trkpt><trkpt lat="44.135293219016106" lon="10.387075400155323"><ele>351.0</ele><time>2026-05-02T13:45:30.999Z</time></trkpt><trkpt lat="44.135225960192436" lon="10.387236083010375"><ele>351.0</ele><time>2026-05-02T13:45:31.999Z</time></trkpt><trkpt lat="44.13515352976177" lon="10.387446183595195"><ele>351.0</ele><time>2026-05-02T13:45:32.999Z</time></trkpt><trkpt lat="44.135088778591616" lon="10.38767031412879"><ele>352.0</ele><time>2026-05-02T13:45:33.999Z</time></trkpt><trkpt lat="44.13502031282758" lon="10.387884932490481"><ele>353.0</ele><time>2026-05-02T13:45:34.999Z</time></trkpt><trkpt lat="44.134956786661796" lon="10.388058977626553"><ele>354.0</ele><time>2026-05-02T13:45:35.999Z</time></trkpt><trkpt lat="44.13490436997899" lon="10.388221495761979"><ele>355.0</ele><time>2026-05-02T13:45:36.999Z</time></trkpt><trkpt lat="44.13486164562993" lon="10.388333043695894"><ele>353.16666666666663</ele><time>2026-05-02T13:45:37.999Z</time></trkpt><trkpt lat="44.13483321399638" lon="10.388426059292279"><ele>351.3333333333333</ele><time>2026-05-02T13:45:38.999Z</time></trkpt><trkpt lat="44.13481743403614" lon="10.388527003585047"><ele>349.5</ele><time>2026-05-02T13:45:39.999Z</time></trkpt><trkpt lat="44.13480536188705" lon="10.388634668958142"><ele>347.6666666666667</ele><time>2026-05-02T13:45:40.999Z</time></trkpt><trkpt lat="44.13479294531721" lon="10.388769816408152"><ele>345.83333333333337</ele><time>2026-05-02T13:45:41.999Z</time></trkpt><trkpt lat="44.13478097170834" lon="10.388931180606958"><ele>344.0</ele><time>2026-05-02T13:45:42.999Z</time></trkpt><trkpt lat="44.13476082300922" lon="10.38910750265328"><ele>343.25</ele><time>2026-05-02T13:45:43.999Z</time></trkpt><trkpt lat="44.1347239908406" lon="10.389272043658647"><ele>342.5</ele><time>2026-05-02T13:45:44.999Z</time></trkpt><trkpt lat="44.13466834729239" lon="10.389432965692905"><ele>341.75</ele><time>2026-05-02T13:45:45.999Z</time></trkpt><trkpt lat="44.134612333181536" lon="10.389596953434033"><ele>341.0</ele><time>2026-05-02T13:45:46.999Z</time></trkpt><trkpt lat="44.134565802543136" lon="10.389749375357237"><ele>338.25</ele><time>2026-05-02T13:45:47.999Z</time></trkpt><trkpt lat="44.13454566910015" lon="10.389885758901999"><ele>335.5</ele><time>2026-05-02T13:45:48.999Z</time></trkpt><trkpt lat="44.134581589083965" lon="10.390055613468578"><ele>332.75</ele><time>2026-05-02T13:45:49.999Z</time></trkpt><trkpt lat="44.134648666828234" lon="10.390248545868786"><ele>330.0</ele><time>2026-05-02T13:45:50.999Z</time></trkpt><trkpt lat="44.134750925291286" lon="10.390477932955122"><ele>327.6666666666667</ele><time>2026-05-02T13:45:51.999Z</time></trkpt><trkpt lat="44.13484675214499" lon="10.390722739605495"><ele>325.33333333333337</ele><time>2026-05-02T13:45:52.999Z</time></trkpt><trkpt lat="44.13494083139463" lon="10.390967697047927"><ele>323.0</ele><time>2026-05-02T13:45:53.999Z</time></trkpt><trkpt lat="44.135043748321266" lon="10.391199726590912"><ele>326.33333333333337</ele><time>2026-05-02T13:45:54.999Z</time></trkpt><trkpt lat="44.13515599388139" lon="10.391405220078356"><ele>329.6666666666667</ele><time>2026-05-02T13:45:55.999Z</time></trkpt><trkpt lat="44.13527366305568" lon="10.391599809733142"><ele>333.0</ele><time>2026-05-02T13:45:56.999Z</time></trkpt><trkpt lat="44.135350719355394" lon="10.391746870898894"><ele>333.0</ele><time>2026-05-02T13:45:57.999Z</time></trkpt><trkpt lat="44.13542039266333" lon="10.391868964621452"><ele>333.0</ele><time>2026-05-02T13:45:58.999Z</time></trkpt><trkpt lat="44.135475039127115" lon="10.392007861175541"><ele>333.0</ele><time>2026-05-02T13:45:59.999Z</time></trkpt><trkpt lat="44.13548612998154" lon="10.392151216548514"><ele>333.0</ele><time>2026-05-02T13:46:00.999Z</time></trkpt><trkpt lat="44.135456366751626" lon="10.39228896821323"><ele>333.0</ele><time>2026-05-02T13:46:01.999Z</time></trkpt><trkpt lat="44.13535971974869" lon="10.39238494857649"><ele>333.25</ele><time>2026-05-02T13:46:02.999Z</time></trkpt><trkpt lat="44.13524090002899" lon="10.392511925087309"><ele>333.5</ele><time>2026-05-02T13:46:03.999Z</time></trkpt><trkpt lat="44.13513534104262" lon="10.392647410906216"><ele>333.75</ele><time>2026-05-02T13:46:04.999Z</time></trkpt><trkpt lat="44.13501703526641" lon="10.39273703795012"><ele>334.0</ele><time>2026-05-02T13:46:05.999Z</time></trkpt><trkpt lat="44.13486763899941" lon="10.392749494043573"><ele>334.75</ele><time>2026-05-02T13:46:06.999Z</time></trkpt><trkpt lat="44.13473752201499" lon="10.39276791276863"><ele>335.5</ele><time>2026-05-02T13:46:07.999Z</time></trkpt><trkpt lat="44.13462139006563" lon="10.392752785227984"><ele>336.25</ele><time>2026-05-02T13:46:08.999Z</time></trkpt><trkpt lat="44.13449761157842" lon="10.392781385167032"><ele>337.0</ele><time>2026-05-02T13:46:09.999Z</time></trkpt><trkpt lat="44.13439394503727" lon="10.39289028543763"><ele>337.0</ele><time>2026-05-02T13:46:10.999Z</time></trkpt><trkpt lat="44.13428781831865" lon="10.392960926975238"><ele>337.0</ele><time>2026-05-02T13:46:11.999Z</time></trkpt><trkpt lat="44.13418502200586" lon="10.393025608096673"><ele>337.0</ele><time>2026-05-02T13:46:12.999Z</time></trkpt><trkpt lat="44.13407366060748" lon="10.39303231826177"><ele>337.0</ele><time>2026-05-02T13:46:13.999Z</time></trkpt><trkpt lat="44.13396592706008" lon="10.393018037447044"><ele>338.5</ele><time>2026-05-02T13:46:14.999Z</time></trkpt><trkpt lat="44.133834550911956" lon="10.393015863800668"><ele>340.0</ele><time>2026-05-02T13:46:15.999Z</time></trkpt><trkpt lat="44.13371196348949" lon="10.392989196602906"><ele>341.5</ele><time>2026-05-02T13:46:16.999Z</time></trkpt><trkpt lat="44.13359403071365" lon="10.392968534828729"><ele>343.0</ele><time>2026-05-02T13:46:17.999Z</time></trkpt><trkpt lat="44.13347843792721" lon="10.3929080474791"><ele>343.0</ele><time>2026-05-02T13:46:18.999Z</time></trkpt><trkpt lat="44.133361193412476" lon="10.392832523301767"><ele>343.0</ele><time>2026-05-02T13:46:19.999Z</time></trkpt><trkpt lat="44.13323516046626" lon="10.392764607391571"><ele>343.0</ele><time>2026-05-02T13:46:20.999Z</time></trkpt><trkpt lat="44.13311958944647" lon="10.392692852902927"><ele>343.0</ele><time>2026-05-02T13:46:21.999Z</time></trkpt><trkpt lat="44.13299772401887" lon="10.392618877952494"><ele>344.66666666666663</ele><time>2026-05-02T13:46:22.999Z</time></trkpt><trkpt lat="44.13285323068513" lon="10.39257420918524"><ele>346.3333333333333</ele><time>2026-05-02T13:46:23.999Z</time></trkpt><trkpt lat="44.13270005466296" lon="10.392574316265954"><ele>348.0</ele><time>2026-05-02T13:46:24.999Z</time></trkpt><trkpt lat="44.132535066357" lon="10.392637347373897"><ele>348.0</ele><time>2026-05-02T13:46:27Z</time></trkpt><trkpt lat="44.132430764702676" lon="10.392670978995232"><ele>348.0</ele><time>2026-05-02T13:46:28Z</time></trkpt><trkpt lat="44.13232308057566" lon="10.392668427932511"><ele>348.0</ele><time>2026-05-02T13:46:29Z</time></trkpt><trkpt lat="44.132221489157416" lon="10.392664134443836"><ele>348.0</ele><time>2026-05-02T13:46:30Z</time></trkpt><trkpt lat="44.132115998030024" lon="10.392636306629658"><ele>348.0</ele><time>2026-05-02T13:46:31Z</time></trkpt><trkpt lat="44.13198984251209" lon="10.392632211888925"><ele>350.25</ele><time>2026-05-02T13:46:32Z</time></trkpt><trkpt lat="44.13187301451007" lon="10.392550899225748"><ele>352.5</ele><time>2026-05-02T13:46:33Z</time></trkpt><trkpt lat="44.13175382403151" lon="10.3924471335932"><ele>354.75</ele><time>2026-05-02T13:46:34Z</time></trkpt><trkpt lat="44.13162513969519" lon="10.39234002091623"><ele>357.0</ele><time>2026-05-02T13:46:35Z</time></trkpt><trkpt lat="44.13154820968856" lon="10.392215975515976"><ele>353.25</ele><time>2026-05-02T13:46:36Z</time></trkpt><trkpt lat="44.131434091055404" lon="10.392142893254073"><ele>349.5</ele><time>2026-05-02T13:46:37Z</time></trkpt><trkpt lat="44.13130838023043" lon="10.392092279806205"><ele>345.75</ele><time>2026-05-02T13:46:38Z</time></trkpt><trkpt lat="44.13117450353557" lon="10.392056394457338"><ele>342.0</ele><time>2026-05-02T13:46:39Z</time></trkpt><trkpt lat="44.13104722293585" lon="10.39202661492089"><ele>342.0</ele><time>2026-05-02T13:46:40Z</time></trkpt><trkpt lat="44.13093163202541" lon="10.391995280506709"><ele>342.0</ele><time>2026-05-02T13:46:41Z</time></trkpt><trkpt lat="44.13081824638977" lon="10.391969816154166"><ele>342.0</ele><time>2026-05-02T13:46:42Z</time></trkpt><trkpt lat="44.130705134399086" lon="10.391967168822811"><ele>342.0</ele><time>2026-05-02T13:46:43Z</time></trkpt><trkpt lat="44.130592586679754" lon="10.391951313033424"><ele>341.0</ele><time>2026-05-02T13:46:44Z</time></trkpt><trkpt lat="44.13046890212975" lon="10.391976631707804"><ele>340.0</ele><time>2026-05-02T13:46:45Z</time></trkpt><trkpt lat="44.13033417747131" lon="10.39202234879313"><ele>339.0</ele><time>2026-05-02T13:46:46Z</time></trkpt><trkpt lat="44.130206760745835" lon="10.392067419559313"><ele>338.0</ele><time>2026-05-02T13:46:47Z</time></trkpt><trkpt lat="44.13008362510106" lon="10.392089885238446"><ele>338.0</ele><time>2026-05-02T13:46:48Z</time></trkpt><trkpt lat="44.129950761081716" lon="10.392125536608722"><ele>338.0</ele><time>2026-05-02T13:46:49Z</time></trkpt><trkpt lat="44.129834532161546" lon="10.392147615126477"><ele>338.0</ele><time>2026-05-02T13:46:50Z</time></trkpt><trkpt lat="44.129727019550394" lon="10.392215019100615"><ele>338.0</ele><time>2026-05-02T13:46:51Z</time></trkpt><trkpt lat="44.1296242407164" lon="10.39230576292218"><ele>337.25</ele><time>2026-05-02T13:46:52Z</time></trkpt><trkpt lat="44.129517620599074" lon="10.392442672596248"><ele>336.5</ele><time>2026-05-02T13:46:53Z</time></trkpt><trkpt lat="44.12943991747165" lon="10.392598781782038"><ele>335.75</ele><time>2026-05-02T13:46:54Z</time></trkpt><trkpt lat="44.12934646635312" lon="10.392758703399698"><ele>335.0</ele><time>2026-05-02T13:46:55Z</time></trkpt><trkpt lat="44.129268931201224" lon="10.392894699246174"><ele>334.5</ele><time>2026-05-02T13:46:56Z</time></trkpt><trkpt lat="44.129185750640914" lon="10.393020610905703"><ele>334.0</ele><time>2026-05-02T13:46:57Z</time></trkpt><trkpt lat="44.12908224587519" lon="10.393113514059959"><ele>333.5</ele><time>2026-05-02T13:46:58Z</time></trkpt><trkpt lat="44.12897702449925" lon="10.393221082797863"><ele>333.0</ele><time>2026-05-02T13:46:59Z</time></trkpt><trkpt lat="44.128871882479444" lon="10.393316673461982"><ele>333.0</ele><time>2026-05-02T13:47:00Z</time></trkpt><trkpt lat="44.12875380683931" lon="10.3934019823386"><ele>333.0</ele><time>2026-05-02T13:47:01Z</time></trkpt><trkpt lat="44.12862967482232" lon="10.39346070212443"><ele>333.0</ele><time>2026-05-02T13:47:02Z</time></trkpt><trkpt lat="44.1285017135806" lon="10.39351346565017"><ele>333.0</ele><time>2026-05-02T13:47:03Z</time></trkpt><trkpt lat="44.12837997829198" lon="10.39359066400065"><ele>333.0</ele><time>2026-05-02T13:47:04Z</time></trkpt><trkpt lat="44.128268596787926" lon="10.393626630930287"><ele>333.0</ele><time>2026-05-02T13:47:05Z</time></trkpt><trkpt lat="44.12816045690088" lon="10.393661094195844"><ele>333.0</ele><time>2026-05-02T13:47:06Z</time></trkpt><trkpt lat="44.12805493139366" lon="10.393697695006674"><ele>333.0</ele><time>2026-05-02T13:47:07Z</time></trkpt><trkpt lat="44.12795603079525" lon="10.393750983928193"><ele>333.0</ele><time>2026-05-02T13:47:08Z</time></trkpt><trkpt lat="44.12785774980116" lon="10.393796774953861"><ele>331.2</ele><time>2026-05-02T13:47:09Z</time></trkpt><trkpt lat="44.12777653261782" lon="10.393880079515643"><ele>329.4</ele><time>2026-05-02T13:47:10Z</time></trkpt><trkpt lat="44.127715189873896" lon="10.393994932147754"><ele>327.59999999999997</ele><time>2026-05-02T13:47:11Z</time></trkpt><trkpt lat="44.12767800884857" lon="10.394129014353675"><ele>325.79999999999995</ele><time>2026-05-02T13:47:12Z</time></trkpt><trkpt lat="44.127655969035104" lon="10.39428637169626"><ele>324.0</ele><time>2026-05-02T13:47:13Z</time></trkpt><trkpt lat="44.12763603299946" lon="10.394463208549107"><ele>324.0</ele><time>2026-05-02T13:47:14Z</time></trkpt><trkpt lat="44.12761805771064" lon="10.39463920301776"><ele>324.0</ele><time>2026-05-02T13:47:15Z</time></trkpt><trkpt lat="44.12760408277653" lon="10.394796494763183"><ele>324.0</ele><time>2026-05-02T13:47:16Z</time></trkpt><trkpt lat="44.12759374601621" lon="10.394953635859009"><ele>324.0</ele><time>2026-05-02T13:47:17Z</time></trkpt><trkpt lat="44.12757318509385" lon="10.39512145496394"><ele>324.25</ele><time>2026-05-02T13:47:18Z</time></trkpt><trkpt lat="44.127547608110326" lon="10.395308199839675"><ele>324.5</ele><time>2026-05-02T13:47:19Z</time></trkpt><trkpt lat="44.12752722601284" lon="10.395496350122189"><ele>324.75</ele><time>2026-05-02T13:47:20Z</time></trkpt><trkpt lat="44.12750740752049" lon="10.395674852426561"><ele>325.0</ele><time>2026-05-02T13:47:21Z</time></trkpt><trkpt lat="44.1274723035523" lon="10.395831700462828"><ele>326.0</ele><time>2026-05-02T13:47:22Z</time></trkpt><trkpt lat="44.12742426285281" lon="10.395970941095806"><ele>327.0</ele><time>2026-05-02T13:47:23Z</time></trkpt><trkpt lat="44.12736153709328" lon="10.396098279527326"><ele>328.0</ele><time>2026-05-02T13:47:24Z</time></trkpt><trkpt lat="44.12729669584089" lon="10.396227106421398"><ele>329.0</ele><time>2026-05-02T13:47:25Z</time></trkpt><trkpt lat="44.12723005673071" lon="10.396350036339056"><ele>330.0</ele><time>2026-05-02T13:47:26Z</time></trkpt><trkpt lat="44.12715757309326" lon="10.396478659884531"><ele>327.6</ele><time>2026-05-02T13:47:27Z</time></trkpt><trkpt lat="44.12707853246911" lon="10.396579454952304"><ele>325.2</ele><time>2026-05-02T13:47:28Z</time></trkpt><trkpt lat="44.12702899432366" lon="10.396703645036915"><ele>322.8</ele><time>2026-05-02T13:47:29Z</time></trkpt><trkpt lat="44.12695797492394" lon="10.39679879648979"><ele>320.4</ele><time>2026-05-02T13:47:29.999Z</time></trkpt><trkpt lat="44.1269040012056" lon="10.396899830147037"><ele>318.0</ele><time>2026-05-02T13:47:30.999Z</time></trkpt><trkpt lat="44.126862804634804" lon="10.397011508887207"><ele>318.0</ele><time>2026-05-02T13:47:31.999Z</time></trkpt><trkpt lat="44.126794687104145" lon="10.397135401304846"><ele>318.0</ele><time>2026-05-02T13:47:32.999Z</time></trkpt><trkpt lat="44.12671128554111" lon="10.397280860019793"><ele>318.0</ele><time>2026-05-02T13:47:33.999Z</time></trkpt><trkpt lat="44.126622572807506" lon="10.397432834949388"><ele>318.0</ele><time>2026-05-02T13:47:34.999Z</time></trkpt><trkpt lat="44.12653705737337" lon="10.397565118887865"><ele>315.5</ele><time>2026-05-02T13:47:35.999Z</time></trkpt><trkpt lat="44.12645165266094" lon="10.397687576245383"><ele>313.0</ele><time>2026-05-02T13:47:36.999Z</time></trkpt><trkpt lat="44.12636557849184" lon="10.397821000755364"><ele>310.5</ele><time>2026-05-02T13:47:37.999Z</time></trkpt><trkpt lat="44.12628533892512" lon="10.397956817173197"><ele>308.0</ele><time>2026-05-02T13:47:38.999Z</time></trkpt><trkpt lat="44.12620547772866" lon="10.398085857248738"><ele>308.0</ele><time>2026-05-02T13:47:39.999Z</time></trkpt><trkpt lat="44.126129224719826" lon="10.398201885130527"><ele>308.0</ele><time>2026-05-02T13:47:40.999Z</time></trkpt><trkpt lat="44.12605896399013" lon="10.39830989163545"><ele>308.0</ele><time>2026-05-02T13:47:41.999Z</time></trkpt><trkpt lat="44.12599417557611" lon="10.39840798850883"><ele>308.0</ele><time>2026-05-02T13:47:42.999Z</time></trkpt><trkpt lat="44.12593716847063" lon="10.39849344020648"><ele>308.0</ele><time>2026-05-02T13:47:43.999Z</time></trkpt><trkpt lat="44.12588931756849" lon="10.398564185406146"><ele>308.0</ele><time>2026-05-02T13:47:44.999Z</time></trkpt><trkpt lat="44.12584675563333" lon="10.398632897424475"><ele>308.0</ele><time>2026-05-02T13:47:45.999Z</time></trkpt><trkpt lat="44.1257433653328" lon="10.398727161611923"><ele>308.0</ele><time>2026-05-02T13:47:47.999Z</time></trkpt><trkpt lat="44.12566040775823" lon="10.398732168059587"><ele>308.0</ele><time>2026-05-02T13:47:48.999Z</time></trkpt><trkpt lat="44.125575838074965" lon="10.398745504275992"><ele>308.0</ele><time>2026-05-02T13:47:49.999Z</time></trkpt><trkpt lat="44.12550110423862" lon="10.398764765961648"><ele>308.0</ele><time>2026-05-02T13:47:50.999Z</time></trkpt><trkpt lat="44.12544476048" lon="10.398846733243646"><ele>309.6</ele><time>2026-05-02T13:47:51.999Z</time></trkpt><trkpt lat="44.12539435249188" lon="10.398905452212789"><ele>311.20000000000005</ele><time>2026-05-02T13:47:52.999Z</time></trkpt><trkpt lat="44.12541130118504" lon="10.399044665795932"><ele>312.8</ele><time>2026-05-02T13:47:53.999Z</time></trkpt><trkpt lat="44.12545349555993" lon="10.399168562964404"><ele>314.40000000000003</ele><time>2026-05-02T13:47:54.999Z</time></trkpt><trkpt lat="44.12551789900232" lon="10.399312092172545"><ele>316.0</ele><time>2026-05-02T13:47:55.999Z</time></trkpt><trkpt lat="44.12558605741959" lon="10.399492943097004"><ele>316.66666666666663</ele><time>2026-05-02T13:47:56.999Z</time></trkpt><trkpt lat="44.12562902872652" lon="10.399723489717017"><ele>317.3333333333333</ele><time>2026-05-02T13:47:57.999Z</time></trkpt><trkpt lat="44.125619266405266" lon="10.400042863066842"><ele>318.0</ele><time>2026-05-02T13:47:58.999Z</time></trkpt><trkpt lat="44.12568669542256" lon="10.40037305209587"><ele>319.6666666666667</ele><time>2026-05-02T13:47:59.999Z</time></trkpt><trkpt lat="44.12573262344669" lon="10.400671802563377"><ele>321.33333333333337</ele><time>2026-05-02T13:48:00.999Z</time></trkpt><trkpt lat="44.12578314135895" lon="10.400934878042836"><ele>323.0</ele><time>2026-05-02T13:48:01.999Z</time></trkpt><trkpt lat="44.12586189571643" lon="10.401213028518823"><ele>324.33333333333337</ele><time>2026-05-02T13:48:02.999Z</time></trkpt><trkpt lat="44.12591954766476" lon="10.401504218652933"><ele>325.6666666666667</ele><time>2026-05-02T13:48:03.999Z</time></trkpt><trkpt lat="44.12598215401761" lon="10.401779467957986"><ele>327.0</ele><time>2026-05-02T13:48:04.999Z</time></trkpt><trkpt lat="44.12603292708645" lon="10.402051438096198"><ele>327.0</ele><time>2026-05-02T13:48:05.999Z</time></trkpt><trkpt lat="44.12606204110089" lon="10.402330834859033"><ele>327.0</ele><time>2026-05-02T13:48:06.999Z</time></trkpt><trkpt lat="44.1260724635768" lon="10.402597361242846"><ele>327.0</ele><time>2026-05-02T13:48:07.999Z</time></trkpt><trkpt lat="44.126066147687595" lon="10.402858385709196"><ele>327.3333333333333</ele><time>2026-05-02T13:48:08.999Z</time></trkpt><trkpt lat="44.12605777034467" lon="10.403107449722237"><ele>327.66666666666663</ele><time>2026-05-02T13:48:09.999Z</time></trkpt><trkpt lat="44.126049617497834" lon="10.403332798683987"><ele>328.0</ele><time>2026-05-02T13:48:10.999Z</time></trkpt><trkpt lat="44.126043109116985" lon="10.403507367884213"><ele>328.0</ele><time>2026-05-02T13:48:11.999Z</time></trkpt><trkpt lat="44.12603419268055" lon="10.40377791137067"><ele>328.0</ele><time>2026-05-02T13:48:12.999Z</time></trkpt><trkpt lat="44.12602658589261" lon="10.40401659232617"><ele>328.0</ele><time>2026-05-02T13:48:13.999Z</time></trkpt><trkpt lat="44.12601755321904" lon="10.404299567691625"><ele>329.0</ele><time>2026-05-02T13:48:14.999Z</time></trkpt><trkpt lat="44.12600764509557" lon="10.404584812646542"><ele>330.0</ele><time>2026-05-02T13:48:15.999Z</time></trkpt><trkpt lat="44.125999122347984" lon="10.404851246947446"><ele>331.0</ele><time>2026-05-02T13:48:16.999Z</time></trkpt><trkpt lat="44.12599069846933" lon="10.405114590366686"><ele>331.0</ele><time>2026-05-02T13:48:17.999Z</time></trkpt><trkpt lat="44.12598182535167" lon="10.405405570243628"><ele>331.0</ele><time>2026-05-02T13:48:18.999Z</time></trkpt><trkpt lat="44.125973675987325" lon="10.405711622788512"><ele>331.0</ele><time>2026-05-02T13:48:19.999Z</time></trkpt><trkpt lat="44.12596199061409" lon="10.406027880672873"><ele>332.5</ele><time>2026-05-02T13:48:20.999Z</time></trkpt><trkpt lat="44.125946737819525" lon="10.406359916977882"><ele>334.0</ele><time>2026-05-02T13:48:21.999Z</time></trkpt><trkpt lat="44.12593747901837" lon="10.406702809004894"><ele>334.0</ele><time>2026-05-02T13:48:22.999Z</time></trkpt><trkpt lat="44.12589978254893" lon="10.40703253506326"><ele>334.0</ele><time>2026-05-02T13:48:23.999Z</time></trkpt><trkpt lat="44.12584092898323" lon="10.407357410606012"><ele>335.0</ele><time>2026-05-02T13:48:24.999Z</time></trkpt><trkpt lat="44.12576854801004" lon="10.40765608647869"><ele>336.0</ele><time>2026-05-02T13:48:25.999Z</time></trkpt><trkpt lat="44.125688720682184" lon="10.407929229591401"><ele>337.0</ele><time>2026-05-02T13:48:26.999Z</time></trkpt><trkpt lat="44.12560557762117" lon="10.40817872483116"><ele>337.0</ele><time>2026-05-02T13:48:27.999Z</time></trkpt><trkpt lat="44.12551243816536" lon="10.408397021589677"><ele>337.0</ele><time>2026-05-02T13:48:28.999Z</time></trkpt><trkpt lat="44.125439857739565" lon="10.40860843951804"><ele>337.0</ele><time>2026-05-02T13:48:29.999Z</time></trkpt><trkpt lat="44.1253695957587" lon="10.408813103887498"><ele>337.5</ele><time>2026-05-02T13:48:30.999Z</time></trkpt><trkpt lat="44.12530410799761" lon="10.409003861636185"><ele>338.0</ele><time>2026-05-02T13:48:32Z</time></trkpt><trkpt lat="44.12524489830465" lon="10.409176332100957"><ele>338.5</ele><time>2026-05-02T13:48:33Z</time></trkpt><trkpt lat="44.12519074354858" lon="10.40933367250747"><ele>339.0</ele><time>2026-05-02T13:48:34Z</time></trkpt><trkpt lat="44.12514617693528" lon="10.409483271228586"><ele>339.0</ele><time>2026-05-02T13:48:35Z</time></trkpt><trkpt lat="44.12510525116191" lon="10.409598562032595"><ele>339.0</ele><time>2026-05-02T13:48:36Z</time></trkpt><trkpt lat="44.12506116041017" lon="10.409698297893303"><ele>339.0</ele><time>2026-05-02T13:48:37Z</time></trkpt><trkpt lat="44.12501371321956" lon="10.409785437853884"><ele>339.0</ele><time>2026-05-02T13:48:38Z</time></trkpt><trkpt lat="44.12495838523558" lon="10.409849614506472"><ele>339.0</ele><time>2026-05-02T13:48:39Z</time></trkpt><trkpt lat="44.12488997616485" lon="10.409905903510571"><ele>339.0</ele><time>2026-05-02T13:48:40Z</time></trkpt><trkpt lat="44.12481650323143" lon="10.409978122968562"><ele>339.2</ele><time>2026-05-02T13:48:41Z</time></trkpt><trkpt lat="44.124758558860954" lon="10.410075349734308"><ele>339.4</ele><time>2026-05-02T13:48:42Z</time></trkpt><trkpt lat="44.124711650845796" lon="10.410183419605303"><ele>339.6</ele><time>2026-05-02T13:48:43Z</time></trkpt><trkpt lat="44.12473264443979" lon="10.410339896830289"><ele>339.8</ele><time>2026-05-02T13:48:44Z</time></trkpt><trkpt lat="44.12474826958072" lon="10.410515187736436"><ele>340.0</ele><time>2026-05-02T13:48:45Z</time></trkpt><trkpt lat="44.124690340133995" lon="10.410708146361122"><ele>341.3333333333333</ele><time>2026-05-02T13:48:46Z</time></trkpt><trkpt lat="44.12461215740182" lon="10.410889531286188"><ele>342.6666666666667</ele><time>2026-05-02T13:48:47Z</time></trkpt><trkpt lat="44.12453910681775" lon="10.41106960595968"><ele>344.0</ele><time>2026-05-02T13:48:48Z</time></trkpt><trkpt lat="44.12444744877964" lon="10.411278090301542"><ele>344.0</ele><time>2026-05-02T13:48:49Z</time></trkpt><trkpt lat="44.12432935722801" lon="10.411529370065077"><ele>344.0</ele><time>2026-05-02T13:48:50Z</time></trkpt><trkpt lat="44.124190742064926" lon="10.41178718798272"><ele>344.0</ele><time>2026-05-02T13:48:51Z</time></trkpt><trkpt lat="44.124043199479786" lon="10.41204369528429"><ele>342.0</ele><time>2026-05-02T13:48:52Z</time></trkpt><trkpt lat="44.12387144813761" lon="10.41227945817116"><ele>340.0</ele><time>2026-05-02T13:48:53Z</time></trkpt><trkpt lat="44.123679491884424" lon="10.412467809719077"><ele>340.0</ele><time>2026-05-02T13:48:54Z</time></trkpt><trkpt lat="44.123496213597434" lon="10.412643363410579"><ele>340.0</ele><time>2026-05-02T13:48:55Z</time></trkpt><trkpt lat="44.123310678155725" lon="10.412800876188449"><ele>340.0</ele><time>2026-05-02T13:48:56Z</time></trkpt><trkpt lat="44.123121711172054" lon="10.41293542824912"><ele>339.0</ele><time>2026-05-02T13:48:57Z</time></trkpt><trkpt lat="44.122936365639596" lon="10.413050536843919"><ele>338.0</ele><time>2026-05-02T13:48:58Z</time></trkpt><trkpt lat="44.12270628937162" lon="10.413163069611356"><ele>337.0</ele><time>2026-05-02T13:48:59Z</time></trkpt><trkpt lat="44.122450944620944" lon="10.413250581168294"><ele>333.0</ele><time>2026-05-02T13:49:00Z</time></trkpt><trkpt lat="44.12217421361281" lon="10.41333855390705"><ele>329.0</ele><time>2026-05-02T13:49:01Z</time></trkpt><trkpt lat="44.12188568132058" lon="10.413365394718511"><ele>329.0</ele><time>2026-05-02T13:49:02Z</time></trkpt><trkpt lat="44.12158605997152" lon="10.41338005135815"><ele>329.0</ele><time>2026-05-02T13:49:03Z</time></trkpt><trkpt lat="44.12129165450922" lon="10.41338489913777"><ele>328.5</ele><time>2026-05-02T13:49:04Z</time></trkpt><trkpt lat="44.12099899710084" lon="10.413394640730042"><ele>328.0</ele><time>2026-05-02T13:49:05Z</time></trkpt><trkpt lat="44.120716876811066" lon="10.413398038557808"><ele>328.0</ele><time>2026-05-02T13:49:06Z</time></trkpt><trkpt lat="44.12043925431829" lon="10.413400409100802"><ele>328.0</ele><time>2026-05-02T13:49:07Z</time></trkpt><trkpt lat="44.12016106043603" lon="10.413401934049851"><ele>325.5</ele><time>2026-05-02T13:49:08Z</time></trkpt><trkpt lat="44.11988025815935" lon="10.413409348206399"><ele>323.0</ele><time>2026-05-02T13:49:09Z</time></trkpt><trkpt lat="44.11960692757705" lon="10.413415154216144"><ele>323.0</ele><time>2026-05-02T13:49:10Z</time></trkpt><trkpt lat="44.1193395050068" lon="10.413429580230698"><ele>323.0</ele><time>2026-05-02T13:49:11Z</time></trkpt><trkpt lat="44.11907058795776" lon="10.41345578116538"><ele>333.5</ele><time>2026-05-02T13:49:12Z</time></trkpt><trkpt lat="44.11879808508668" lon="10.413512872038316"><ele>344.0</ele><time>2026-05-02T13:49:13Z</time></trkpt><trkpt lat="44.118528394840986" lon="10.413583702705361"><ele>344.0</ele><time>2026-05-02T13:49:14Z</time></trkpt><trkpt lat="44.11825254886244" lon="10.413642038199809"><ele>344.0</ele><time>2026-05-02T13:49:15Z</time></trkpt><trkpt lat="44.11797820897002" lon="10.41374652942586"><ele>351.0</ele><time>2026-05-02T13:49:16Z</time></trkpt><trkpt lat="44.117705810289586" lon="10.413900672316773"><ele>358.0</ele><time>2026-05-02T13:49:17.027Z</time></trkpt><trkpt lat="44.11744005230019" lon="10.41405262002616"><ele>364.5</ele><time>2026-05-02T13:49:18.02Z</time></trkpt><trkpt lat="44.11717446659679" lon="10.414219408064518"><ele>371.0</ele><time>2026-05-02T13:49:19.018Z</time></trkpt><trkpt lat="44.116909144706895" lon="10.414388362397888"><ele>390.0</ele><time>2026-05-02T13:49:20.02Z</time></trkpt><trkpt lat="44.11597814967619" lon="10.415468633521153"><ele>392.5</ele><time>2026-05-02T13:49:24.169Z</time></trkpt><trkpt lat="44.11578620885862" lon="10.415772483041199"><ele>395.0</ele><time>2026-05-02T13:49:25.164Z</time></trkpt><trkpt lat="44.11560573664678" lon="10.41609074329738"><ele>384.0</ele><time>2026-05-02T13:49:26.166Z</time></trkpt><trkpt lat="44.11543933098995" lon="10.416423925255975"><ele>373.0</ele><time>2026-05-02T13:49:27.169Z</time></trkpt><trkpt lat="44.11530284883018" lon="10.416784164432723"><ele>373.0</ele><time>2026-05-02T13:49:28.174Z</time></trkpt><trkpt lat="44.11516939152769" lon="10.41713809127673"><ele>373.0</ele><time>2026-05-02T13:49:29.166Z</time></trkpt><trkpt lat="44.115036709685185" lon="10.417497288341021"><ele>352.0</ele><time>2026-05-02T13:49:30.164Z</time></trkpt><trkpt lat="44.114948226033285" lon="10.41788404817659"><ele>331.0</ele><time>2026-05-02T13:49:31.168Z</time></trkpt><trkpt lat="44.1147554386818" lon="10.418475558991002"><ele>312.0</ele><time>2026-05-02T13:49:33.999Z</time></trkpt><trkpt lat="44.11468403564358" lon="10.418763649257055"><ele>293.0</ele><time>2026-05-02T13:49:34.999Z</time></trkpt><trkpt lat="44.114643509009326" lon="10.419031954311237"><ele>274.0</ele><time>2026-05-02T13:49:35.999Z</time></trkpt><trkpt lat="44.11459667727769" lon="10.419212319761915"><ele>274.0</ele><time>2026-05-02T13:49:36.999Z</time></trkpt><trkpt lat="44.114555189210186" lon="10.419351150869419"><ele>274.0</ele><time>2026-05-02T13:49:37.999Z</time></trkpt><trkpt lat="44.114517495355166" lon="10.419444381887587"><ele>274.0</ele><time>2026-05-02T13:49:38.999Z</time></trkpt><trkpt lat="44.11439509713307" lon="10.419528848411037"><ele>274.0</ele><time>2026-05-02T13:49:40.999Z</time></trkpt><trkpt lat="44.11433540984707" lon="10.419588428911526"><ele>274.0</ele><time>2026-05-02T13:49:41.999Z</time></trkpt><trkpt lat="44.11431004719442" lon="10.419691048915604"><ele>278.25</ele><time>2026-05-02T13:49:42.999Z</time></trkpt><trkpt lat="44.11432414856698" lon="10.41982053123614"><ele>282.5</ele><time>2026-05-02T13:49:43.999Z</time></trkpt><trkpt lat="44.11436512119001" lon="10.419989893176187"><ele>286.75</ele><time>2026-05-02T13:49:44.999Z</time></trkpt><trkpt lat="44.11443173465308" lon="10.420190543559608"><ele>291.0</ele><time>2026-05-02T13:49:45.999Z</time></trkpt><trkpt lat="44.114478352025834" lon="10.420443443420147"><ele>291.0</ele><time>2026-05-02T13:49:46.999Z</time></trkpt><trkpt lat="44.11450812064078" lon="10.420738599488418"><ele>291.0</ele><time>2026-05-02T13:49:47.999Z</time></trkpt><trkpt lat="44.11454414429352" lon="10.421057108835463"><ele>291.0</ele><time>2026-05-02T13:49:48.999Z</time></trkpt><trkpt lat="44.114587692806296" lon="10.42139159465232"><ele>288.5</ele><time>2026-05-02T13:49:49.999Z</time></trkpt><trkpt lat="44.11462870568734" lon="10.421739529384396"><ele>286.0</ele><time>2026-05-02T13:49:50.999Z</time></trkpt><trkpt lat="44.114669898898946" lon="10.422091388712285"><ele>283.5</ele><time>2026-05-02T13:49:51.999Z</time></trkpt><trkpt lat="44.114712527063006" lon="10.422446057612982"><ele>281.0</ele><time>2026-05-02T13:49:52.999Z</time></trkpt><trkpt lat="44.11475629023101" lon="10.422791591128513"><ele>281.5</ele><time>2026-05-02T13:49:53.999Z</time></trkpt><trkpt lat="44.11479915081932" lon="10.42313232103568"><ele>282.0</ele><time>2026-05-02T13:49:54.999Z</time></trkpt><trkpt lat="44.114837661620065" lon="10.42345958860416"><ele>282.0</ele><time>2026-05-02T13:49:55.999Z</time></trkpt><trkpt lat="44.11487478763772" lon="10.423789225777846"><ele>282.0</ele><time>2026-05-02T13:49:56.999Z</time></trkpt><trkpt lat="44.11491614998368" lon="10.424103099381094"><ele>279.0</ele><time>2026-05-02T13:49:57.999Z</time></trkpt><trkpt lat="44.11495334241061" lon="10.424400959898769"><ele>276.0</ele><time>2026-05-02T13:49:58.999Z</time></trkpt><trkpt lat="44.11498847677944" lon="10.424686451903769"><ele>273.0</ele><time>2026-05-02T13:49:59.999Z</time></trkpt><trkpt lat="44.11502131177424" lon="10.42496738824605"><ele>273.0</ele><time>2026-05-02T13:50:00.999Z</time></trkpt><trkpt lat="44.1150341289666" lon="10.425255786490945"><ele>273.0</ele><time>2026-05-02T13:50:01.999Z</time></trkpt><trkpt lat="44.115018510367136" lon="10.425554192593989"><ele>273.0</ele><time>2026-05-02T13:50:02.999Z</time></trkpt><trkpt lat="44.11497407021595" lon="10.425849682087225"><ele>284.3333333333333</ele><time>2026-05-02T13:50:03.999Z</time></trkpt><trkpt lat="44.1148989312463" lon="10.42613593348511"><ele>295.66666666666663</ele><time>2026-05-02T13:50:04.999Z</time></trkpt><trkpt lat="44.11481628023408" lon="10.426421190662902"><ele>307.0</ele><time>2026-05-02T13:50:05.999Z</time></trkpt><trkpt lat="44.114760754484955" lon="10.426709396380055"><ele>309.5</ele><time>2026-05-02T13:50:06.999Z</time></trkpt><trkpt lat="44.114727284049245" lon="10.42701530797671"><ele>312.0</ele><time>2026-05-02T13:50:07.999Z</time></trkpt><trkpt lat="44.11470518579148" lon="10.427338479872247"><ele>312.0</ele><time>2026-05-02T13:50:08.999Z</time></trkpt><trkpt lat="44.114682056906254" lon="10.427661467788292"><ele>312.0</ele><time>2026-05-02T13:50:09.999Z</time></trkpt><trkpt lat="44.114640761466084" lon="10.427964059281736"><ele>310.0</ele><time>2026-05-02T13:50:10.999Z</time></trkpt><trkpt lat="44.11462930648761" lon="10.428250351354867"><ele>308.0</ele><time>2026-05-02T13:50:11.999Z</time></trkpt><trkpt lat="44.11461014387633" lon="10.428526082458024"><ele>306.0</ele><time>2026-05-02T13:50:12.999Z</time></trkpt><trkpt lat="44.1145856249319" lon="10.428780208401038"><ele>301.0</ele><time>2026-05-02T13:50:13.999Z</time></trkpt><trkpt lat="44.114546618980214" lon="10.429008358435206"><ele>296.0</ele><time>2026-05-02T13:50:14.999Z</time></trkpt><trkpt lat="44.11447194198507" lon="10.429207219941484"><ele>291.0</ele><time>2026-05-02T13:50:15.999Z</time></trkpt><trkpt lat="44.11437211881609" lon="10.429431888950377"><ele>288.3333333333333</ele><time>2026-05-02T13:50:16.999Z</time></trkpt><trkpt lat="44.114262084865594" lon="10.429673398337403"><ele>285.66666666666663</ele><time>2026-05-02T13:50:17.999Z</time></trkpt><trkpt lat="44.11414220272924" lon="10.429905864074358"><ele>283.0</ele><time>2026-05-02T13:50:18.999Z</time></trkpt><trkpt lat="44.11401209636211" lon="10.43010685507528"><ele>283.0</ele><time>2026-05-02T13:50:19.999Z</time></trkpt><trkpt lat="44.11386230863592" lon="10.430296182050256"><ele>283.0</ele><time>2026-05-02T13:50:20.999Z</time></trkpt><trkpt lat="44.113699435570645" lon="10.430445245402877"><ele>283.0</ele><time>2026-05-02T13:50:21.999Z</time></trkpt><trkpt lat="44.11351739332397" lon="10.430568586995303"><ele>280.0</ele><time>2026-05-02T13:50:22.999Z</time></trkpt><trkpt lat="44.11333471966945" lon="10.430668840530632"><ele>277.0</ele><time>2026-05-02T13:50:23.999Z</time></trkpt><trkpt lat="44.11316477792757" lon="10.430783894663387"><ele>274.0</ele><time>2026-05-02T13:50:24.999Z</time></trkpt><trkpt lat="44.11298747346587" lon="10.43093256173169"><ele>274.0</ele><time>2026-05-02T13:50:25.999Z</time></trkpt><trkpt lat="44.11284402660188" lon="10.431122905618318"><ele>274.0</ele><time>2026-05-02T13:50:26.999Z</time></trkpt><trkpt lat="44.11271656550154" lon="10.431340890785954"><ele>274.0</ele><time>2026-05-02T13:50:27.999Z</time></trkpt><trkpt lat="44.11260137540614" lon="10.431575567476584"><ele>271.3333333333333</ele><time>2026-05-02T13:50:28.999Z</time></trkpt><trkpt lat="44.11247542051361" lon="10.431806567764843"><ele>268.6666666666667</ele><time>2026-05-02T13:50:29.999Z</time></trkpt><trkpt lat="44.112364909598746" lon="10.43206064288144"><ele>266.0</ele><time>2026-05-02T13:50:30.999Z</time></trkpt><trkpt lat="44.11227441591215" lon="10.432314510454807"><ele>275.33333333333337</ele><time>2026-05-02T13:50:31.999Z</time></trkpt><trkpt lat="44.11218724672698" lon="10.432563231120247"><ele>284.6666666666667</ele><time>2026-05-02T13:50:32.999Z</time></trkpt><trkpt lat="44.11213136640365" lon="10.432800394814107"><ele>294.0</ele><time>2026-05-02T13:50:33.999Z</time></trkpt><trkpt lat="44.11209832427145" lon="10.433023402725293"><ele>294.0</ele><time>2026-05-02T13:50:34.999Z</time></trkpt><trkpt lat="44.112066100573784" lon="10.433244847168472"><ele>294.0</ele><time>2026-05-02T13:50:35.999Z</time></trkpt><trkpt lat="44.112050151175055" lon="10.43349000151456"><ele>294.0</ele><time>2026-05-02T13:50:36.999Z</time></trkpt><trkpt lat="44.11208017122161" lon="10.433761822641966"><ele>296.5</ele><time>2026-05-02T13:50:38Z</time></trkpt><trkpt lat="44.11215980200365" lon="10.434061893321303"><ele>299.0</ele><time>2026-05-02T13:50:39Z</time></trkpt><trkpt lat="44.1122729683564" lon="10.434342301943"><ele>284.5</ele><time>2026-05-02T13:50:40Z</time></trkpt><trkpt lat="44.112421406086625" lon="10.434633543759762"><ele>270.0</ele><time>2026-05-02T13:50:41Z</time></trkpt><trkpt lat="44.112578494104504" lon="10.434919540135716"><ele>270.0</ele><time>2026-05-02T13:50:42Z</time></trkpt><trkpt lat="44.112808174193965" lon="10.435114520193844"><ele>270.0</ele><time>2026-05-02T13:50:43Z</time></trkpt><trkpt lat="44.11302362106483" lon="10.43521197518431"><ele>270.0</ele><time>2026-05-02T13:50:44Z</time></trkpt><trkpt lat="44.113236967476375" lon="10.435265594567133"><ele>270.0</ele><time>2026-05-02T13:50:45Z</time></trkpt><trkpt lat="44.11346618260123" lon="10.435292397365489"><ele>270.0</ele><time>2026-05-02T13:50:46Z</time></trkpt><trkpt lat="44.11352948319272" lon="10.43531467094108"><ele>264.6666666666667</ele><time>2026-05-02T13:50:47Z</time></trkpt><trkpt lat="44.113755178626754" lon="10.435306019288205"><ele>259.33333333333337</ele><time>2026-05-02T13:50:48Z</time></trkpt><trkpt lat="44.1139749083344" lon="10.43531542536726"><ele>254.0</ele><time>2026-05-02T13:50:49Z</time></trkpt><trkpt lat="44.11418949075064" lon="10.435327131099411"><ele>252.66666666666669</ele><time>2026-05-02T13:50:50Z</time></trkpt><trkpt lat="44.1143916088139" lon="10.435335108226488"><ele>251.33333333333331</ele><time>2026-05-02T13:50:51Z</time></trkpt><trkpt lat="44.11458800417255" lon="10.435343167080912"><ele>250.0</ele><time>2026-05-02T13:50:52Z</time></trkpt><trkpt lat="44.11477619785156" lon="10.43535179502148"><ele>249.66666666666666</ele><time>2026-05-02T13:50:53Z</time></trkpt><trkpt lat="44.11495424682587" lon="10.435364946815838"><ele>249.33333333333331</ele><time>2026-05-02T13:50:54Z</time></trkpt><trkpt lat="44.11511490657448" lon="10.435376246112915"><ele>249.0</ele><time>2026-05-02T13:50:55Z</time></trkpt><trkpt lat="44.11526918556811" lon="10.435395284647779"><ele>249.0</ele><time>2026-05-02T13:50:56Z</time></trkpt><trkpt lat="44.115415067657025" lon="10.435436708014848"><ele>249.0</ele><time>2026-05-02T13:50:57Z</time></trkpt><trkpt lat="44.11555866430587" lon="10.435497070189317"><ele>249.0</ele><time>2026-05-02T13:50:58Z</time></trkpt><trkpt lat="44.115700756234496" lon="10.435587775776431"><ele>252.66666666666669</ele><time>2026-05-02T13:50:59Z</time></trkpt><trkpt lat="44.115833140833026" lon="10.435716186989985"><ele>256.33333333333337</ele><time>2026-05-02T13:51:00Z</time></trkpt><trkpt lat="44.115953805435026" lon="10.435872067334067"><ele>260.0</ele><time>2026-05-02T13:51:01Z</time></trkpt><trkpt lat="44.1160657725814" lon="10.436032725425495"><ele>260.0</ele><time>2026-05-02T13:51:02Z</time></trkpt><trkpt lat="44.116153373326796" lon="10.436208375235642"><ele>260.0</ele><time>2026-05-02T13:51:03Z</time></trkpt><trkpt lat="44.116226505258616" lon="10.436403476256237"><ele>260.0</ele><time>2026-05-02T13:51:04Z</time></trkpt><trkpt lat="44.11628134977685" lon="10.436628672711691"><ele>262.0</ele><time>2026-05-02T13:51:05Z</time></trkpt><trkpt lat="44.11624582132087" lon="10.4368694475028"><ele>264.0</ele><time>2026-05-02T13:51:06Z</time></trkpt><trkpt lat="44.116250551181345" lon="10.437097637120463"><ele>266.0</ele><time>2026-05-02T13:51:07Z</time></trkpt><trkpt lat="44.11623254238314" lon="10.437314599455659"><ele>266.0</ele><time>2026-05-02T13:51:08Z</time></trkpt><trkpt lat="44.11620803480919" lon="10.437535438242534"><ele>266.0</ele><time>2026-05-02T13:51:09Z</time></trkpt><trkpt lat="44.11619877091923" lon="10.437778243261125"><ele>266.0</ele><time>2026-05-02T13:51:10Z</time></trkpt><trkpt lat="44.11622255556316" lon="10.43800998132028"><ele>269.6666666666667</ele><time>2026-05-02T13:51:11Z</time></trkpt><trkpt lat="44.11627239389505" lon="10.438275550683946"><ele>273.3333333333333</ele><time>2026-05-02T13:51:12Z</time></trkpt><trkpt lat="44.11634907601981" lon="10.438587918671653"><ele>277.0</ele><time>2026-05-02T13:51:13Z</time></trkpt><trkpt lat="44.11643367994286" lon="10.438937233020177"><ele>265.5</ele><time>2026-05-02T13:51:14Z</time></trkpt><trkpt lat="44.116531476507966" lon="10.439271303771859"><ele>254.0</ele><time>2026-05-02T13:51:15Z</time></trkpt><trkpt lat="44.11660865857029" lon="10.439592312944551"><ele>266.0</ele><time>2026-05-02T13:51:16Z</time></trkpt><trkpt lat="44.11671430474774" lon="10.439879511217274"><ele>278.0</ele><time>2026-05-02T13:51:17Z</time></trkpt><trkpt lat="44.11684727793226" lon="10.440144486077713"><ele>278.0</ele><time>2026-05-02T13:51:18Z</time></trkpt><trkpt lat="44.117010658751276" lon="10.440387212246643"><ele>278.0</ele><time>2026-05-02T13:51:19Z</time></trkpt><trkpt lat="44.11717685868214" lon="10.440612000790248"><ele>273.33333333333337</ele><time>2026-05-02T13:51:20Z</time></trkpt><trkpt lat="44.1173608631112" lon="10.440799438293162"><ele>268.6666666666667</ele><time>2026-05-02T13:51:21Z</time></trkpt><trkpt lat="44.11753565558297" lon="10.44096577436633"><ele>264.0</ele><time>2026-05-02T13:51:22Z</time></trkpt><trkpt lat="44.11770610252397" lon="10.441132225844921"><ele>272.3333333333333</ele><time>2026-05-02T13:51:23Z</time></trkpt><trkpt lat="44.11784892239561" lon="10.4413189822625"><ele>280.66666666666663</ele><time>2026-05-02T13:51:24Z</time></trkpt><trkpt lat="44.11797609269035" lon="10.441531210915842"><ele>289.0</ele><time>2026-05-02T13:51:25Z</time></trkpt><trkpt lat="44.118050381428375" lon="10.441782676686554"><ele>289.0</ele><time>2026-05-02T13:51:26Z</time></trkpt><trkpt lat="44.118125926274516" lon="10.44202871200006"><ele>289.0</ele><time>2026-05-02T13:51:27Z</time></trkpt><trkpt lat="44.11813503475648" lon="10.44228916633244"><ele>289.0</ele><time>2026-05-02T13:51:28Z</time></trkpt><trkpt lat="44.118147902625715" lon="10.442548926462543"><ele>289.66666666666663</ele><time>2026-05-02T13:51:29Z</time></trkpt><trkpt lat="44.11811813344716" lon="10.442815858656274"><ele>290.3333333333333</ele><time>2026-05-02T13:51:30Z</time></trkpt><trkpt lat="44.11807662724865" lon="10.443095750838205"><ele>291.0</ele><time>2026-05-02T13:51:31Z</time></trkpt><trkpt lat="44.11802457101379" lon="10.443352896472815"><ele>291.0</ele><time>2026-05-02T13:51:32Z</time></trkpt><trkpt lat="44.117960631419955" lon="10.443594111539054"><ele>291.0</ele><time>2026-05-02T13:51:33Z</time></trkpt><trkpt lat="44.11786617016036" lon="10.443840250747941"><ele>291.0</ele><time>2026-05-02T13:51:34Z</time></trkpt><trkpt lat="44.11775184766747" lon="10.444060243356208"><ele>291.3333333333333</ele><time>2026-05-02T13:51:35Z</time></trkpt><trkpt lat="44.117610744058275" lon="10.444241702734532"><ele>291.66666666666663</ele><time>2026-05-02T13:51:36Z</time></trkpt><trkpt lat="44.11743067760035" lon="10.444374793415198"><ele>292.0</ele><time>2026-05-02T13:51:37Z</time></trkpt><trkpt lat="44.11724308834194" lon="10.444521583618739"><ele>269.0</ele><time>2026-05-02T13:51:38Z</time></trkpt><trkpt lat="44.11703129763782" lon="10.444640258927452"><ele>246.0</ele><time>2026-05-02T13:51:39Z</time></trkpt><trkpt lat="44.1168229370676" lon="10.444759188168197"><ele>246.0</ele><time>2026-05-02T13:51:40Z</time></trkpt><trkpt lat="44.116613930056694" lon="10.444867533568209"><ele>246.0</ele><time>2026-05-02T13:51:41Z</time></trkpt><trkpt lat="44.116402766929966" lon="10.444964491373112"><ele>246.0</ele><time>2026-05-02T13:51:42Z</time></trkpt><trkpt lat="44.116197480526765" lon="10.445046363194772"><ele>248.33333333333331</ele><time>2026-05-02T13:51:43Z</time></trkpt><trkpt lat="44.115990716809705" lon="10.445122948287073"><ele>250.66666666666666</ele><time>2026-05-02T13:51:44Z</time></trkpt><trkpt lat="44.115786724784954" lon="10.445204938947123"><ele>253.0</ele><time>2026-05-02T13:51:45Z</time></trkpt><trkpt lat="44.115587614134" lon="10.445289435121278"><ele>248.0</ele><time>2026-05-02T13:51:46Z</time></trkpt><trkpt lat="44.115393787479576" lon="10.445377408544967"><ele>243.0</ele><time>2026-05-02T13:51:47Z</time></trkpt><trkpt lat="44.115197592155326" lon="10.445463209925084"><ele>238.0</ele><time>2026-05-02T13:51:48Z</time></trkpt><trkpt lat="44.11500346316401" lon="10.44556416576688"><ele>255.66666666666666</ele><time>2026-05-02T13:51:49Z</time></trkpt><trkpt lat="44.11481847772115" lon="10.445698534851159"><ele>273.3333333333333</ele><time>2026-05-02T13:51:50Z</time></trkpt><trkpt lat="44.11464425845798" lon="10.445868402645777"><ele>291.0</ele><time>2026-05-02T13:51:51Z</time></trkpt><trkpt lat="44.11449161904137" lon="10.446076105690796"><ele>281.0</ele><time>2026-05-02T13:51:52Z</time></trkpt><trkpt lat="44.11436837602599" lon="10.446326248055565"><ele>271.0</ele><time>2026-05-02T13:51:53Z</time></trkpt><trkpt lat="44.11427359603536" lon="10.44659651059716"><ele>261.0</ele><time>2026-05-02T13:51:54Z</time></trkpt><trkpt lat="44.11420107498233" lon="10.446873960378769"><ele>256.3333333333333</ele><time>2026-05-02T13:51:55Z</time></trkpt><trkpt lat="44.114152643876956" lon="10.447155143379481"><ele>251.66666666666666</ele><time>2026-05-02T13:51:56Z</time></trkpt><trkpt lat="44.1141230044648" lon="10.447443790988496"><ele>247.0</ele><time>2026-05-02T13:51:57Z</time></trkpt><trkpt lat="44.11410453816927" lon="10.447732580467026"><ele>244.66666666666666</ele><time>2026-05-02T13:51:57.999Z</time></trkpt><trkpt lat="44.114110300139586" lon="10.448034407346636"><ele>242.33333333333331</ele><time>2026-05-02T13:51:58.999Z</time></trkpt><trkpt lat="44.11409103208911" lon="10.448317993005466"><ele>240.0</ele><time>2026-05-02T13:51:59.999Z</time></trkpt><trkpt lat="44.11407851610436" lon="10.448602666258779"><ele>252.0</ele><time>2026-05-02T13:52:00.999Z</time></trkpt><trkpt lat="44.11405113503218" lon="10.448869462462357"><ele>264.0</ele><time>2026-05-02T13:52:01.999Z</time></trkpt><trkpt lat="44.11398130682714" lon="10.449127583957841"><ele>276.0</ele><time>2026-05-02T13:52:02.999Z</time></trkpt><trkpt lat="44.11393050443223" lon="10.449360883923426"><ele>276.0</ele><time>2026-05-02T13:52:03.999Z</time></trkpt><trkpt lat="44.11385909269364" lon="10.449572726744824"><ele>276.0</ele><time>2026-05-02T13:52:04.999Z</time></trkpt><trkpt lat="44.11377116740695" lon="10.449761955390086"><ele>276.0</ele><time>2026-05-02T13:52:05.999Z</time></trkpt><trkpt lat="44.11365796238837" lon="10.449938697616142"><ele>270.0</ele><time>2026-05-02T13:52:06.999Z</time></trkpt><trkpt lat="44.11352770457588" lon="10.450100201097884"><ele>264.0</ele><time>2026-05-02T13:52:07.999Z</time></trkpt><trkpt lat="44.113393620879464" lon="10.45023504519948"><ele>258.0</ele><time>2026-05-02T13:52:08.999Z</time></trkpt><trkpt lat="44.11325289909868" lon="10.450361100963095"><ele>255.33333333333331</ele><time>2026-05-02T13:52:09.999Z</time></trkpt><trkpt lat="44.11311289390181" lon="10.45047964383948"><ele>252.66666666666666</ele><time>2026-05-02T13:52:10.999Z</time></trkpt><trkpt lat="44.11297932470386" lon="10.45058434789453"><ele>250.0</ele><time>2026-05-02T13:52:11.999Z</time></trkpt><trkpt lat="44.11285342831901" lon="10.450679563831198"><ele>250.0</ele><time>2026-05-02T13:52:12.999Z</time></trkpt><trkpt lat="44.11272320300178" lon="10.450770374784035"><ele>250.0</ele><time>2026-05-02T13:52:13.999Z</time></trkpt><trkpt lat="44.11259732282362" lon="10.450851454507786"><ele>250.0</ele><time>2026-05-02T13:52:14.999Z</time></trkpt><trkpt lat="44.11245609484553" lon="10.450924044996052"><ele>250.0</ele><time>2026-05-02T13:52:15.999Z</time></trkpt><trkpt lat="44.11231924562569" lon="10.450975153614472"><ele>249.0</ele><time>2026-05-02T13:52:16.999Z</time></trkpt><trkpt lat="44.11218881979315" lon="10.451007305314967"><ele>248.0</ele><time>2026-05-02T13:52:17.999Z</time></trkpt><trkpt lat="44.11206678347236" lon="10.451019362000462"><ele>247.0</ele><time>2026-05-02T13:52:18.999Z</time></trkpt><trkpt lat="44.11194870716098" lon="10.451030541635433"><ele>246.0</ele><time>2026-05-02T13:52:19.999Z</time></trkpt><trkpt lat="44.111826620815" lon="10.450997443342676"><ele>246.0</ele><time>2026-05-02T13:52:20.999Z</time></trkpt><trkpt lat="44.11168220258383" lon="10.450966118543144"><ele>246.0</ele><time>2026-05-02T13:52:21.999Z</time></trkpt><trkpt lat="44.11152819657728" lon="10.450914276016578"><ele>246.0</ele><time>2026-05-02T13:52:22.999Z</time></trkpt><trkpt lat="44.111351788407184" lon="10.45086546812878"><ele>242.66666666666669</ele><time>2026-05-02T13:52:23.999Z</time></trkpt><trkpt lat="44.111160091270825" lon="10.450820234819574"><ele>239.33333333333334</ele><time>2026-05-02T13:52:24.999Z</time></trkpt><trkpt lat="44.110964186409895" lon="10.450762181144391"><ele>236.0</ele><time>2026-05-02T13:52:25.999Z</time></trkpt><trkpt lat="44.110751167040135" lon="10.45071780157195"><ele>234.0</ele><time>2026-05-02T13:52:26.999Z</time></trkpt><trkpt lat="44.1105238870298" lon="10.450655435522448"><ele>232.0</ele><time>2026-05-02T13:52:27.999Z</time></trkpt><trkpt lat="44.11027428903996" lon="10.450610201264453"><ele>232.0</ele><time>2026-05-02T13:52:28.999Z</time></trkpt><trkpt lat="44.11001010554548" lon="10.450563670879333"><ele>232.0</ele><time>2026-05-02T13:52:29.999Z</time></trkpt><trkpt lat="44.10973668658832" lon="10.450515521124094"><ele>228.0</ele><time>2026-05-02T13:52:30.999Z</time></trkpt><trkpt lat="44.10946633357069" lon="10.450466822489005"><ele>224.0</ele><time>2026-05-02T13:52:31.999Z</time></trkpt><trkpt lat="44.109201720382934" lon="10.450414432948698"><ele>230.5</ele><time>2026-05-02T13:52:32.999Z</time></trkpt><trkpt lat="44.10894791921642" lon="10.450377547241294"><ele>237.0</ele><time>2026-05-02T13:52:33.999Z</time></trkpt><trkpt lat="44.10870857860615" lon="10.450282070300156"><ele>237.0</ele><time>2026-05-02T13:52:34.999Z</time></trkpt><trkpt lat="44.10847241040513" lon="10.450207031534765"><ele>237.0</ele><time>2026-05-02T13:52:35.999Z</time></trkpt><trkpt lat="44.10824161941616" lon="10.45009968939901"><ele>231.0</ele><time>2026-05-02T13:52:36.999Z</time></trkpt><trkpt lat="44.10802299910316" lon="10.449977235397728"><ele>225.0</ele><time>2026-05-02T13:52:37.999Z</time></trkpt><trkpt lat="44.10781682718581" lon="10.44982419306802"><ele>225.0</ele><time>2026-05-02T13:52:38.999Z</time></trkpt><trkpt lat="44.10763433044885" lon="10.449625785023295"><ele>225.0</ele><time>2026-05-02T13:52:39.999Z</time></trkpt><trkpt lat="44.107452871605126" lon="10.449415272128629"><ele>224.0</ele><time>2026-05-02T13:52:40.999Z</time></trkpt><trkpt lat="44.10729293384563" lon="10.449181982640962"><ele>223.0</ele><time>2026-05-02T13:52:41.999Z</time></trkpt><trkpt lat="44.1071045130211" lon="10.44899367441117"><ele>223.0</ele><time>2026-05-02T13:52:42.999Z</time></trkpt><trkpt lat="44.10689354306157" lon="10.44885020053766"><ele>223.0</ele><time>2026-05-02T13:52:44Z</time></trkpt><trkpt lat="44.10667574325329" lon="10.448745614815818"><ele>240.0</ele><time>2026-05-02T13:52:45Z</time></trkpt><trkpt lat="44.10644065399491" lon="10.44868906928124"><ele>257.0</ele><time>2026-05-02T13:52:46Z</time></trkpt><trkpt lat="44.10621743508012" lon="10.44864424827011"><ele>257.0</ele><time>2026-05-02T13:52:47Z</time></trkpt><trkpt lat="44.105999575824576" lon="10.448630789153151"><ele>257.0</ele><time>2026-05-02T13:52:48Z</time></trkpt><trkpt lat="44.10578266932731" lon="10.448656907283663"><ele>257.0</ele><time>2026-05-02T13:52:49Z</time></trkpt><trkpt lat="44.10555995761429" lon="10.448741182614794"><ele>242.0</ele><time>2026-05-02T13:52:50Z</time></trkpt><trkpt lat="44.105331220965994" lon="10.448843171695303"><ele>227.0</ele><time>2026-05-02T13:52:51Z</time></trkpt><trkpt lat="44.10510138384338" lon="10.44890237772643"><ele>240.0</ele><time>2026-05-02T13:52:52Z</time></trkpt><trkpt lat="44.1048826345657" lon="10.44900715233311"><ele>253.0</ele><time>2026-05-02T13:52:53Z</time></trkpt><trkpt lat="44.104661072023426" lon="10.449123280069541"><ele>253.0</ele><time>2026-05-02T13:52:54Z</time></trkpt><trkpt lat="44.10444661993412" lon="10.44927463523025"><ele>253.0</ele><time>2026-05-02T13:52:55Z</time></trkpt><trkpt lat="44.104246093778734" lon="10.449447045599081"><ele>258.0</ele><time>2026-05-02T13:52:56Z</time></trkpt><trkpt lat="44.10405412524348" lon="10.449617673817432"><ele>263.0</ele><time>2026-05-02T13:52:57Z</time></trkpt><trkpt lat="44.10385014376137" lon="10.449813565403964"><ele>263.0</ele><time>2026-05-02T13:52:58Z</time></trkpt><trkpt lat="44.103676534883185" lon="10.449966613620793"><ele>263.0</ele><time>2026-05-02T13:52:59Z</time></trkpt><trkpt lat="44.10353832985588" lon="10.45019245535394"><ele>263.0</ele><time>2026-05-02T13:53:00Z</time></trkpt><trkpt lat="44.103408598334724" lon="10.450454284150934"><ele>276.5</ele><time>2026-05-02T13:53:01Z</time></trkpt><trkpt lat="44.1032742590579" lon="10.450944516126585"><ele>290.0</ele><time>2026-05-02T13:53:02Z</time></trkpt><trkpt lat="44.10315295018331" lon="10.451261167618126"><ele>278.0</ele><time>2026-05-02T13:53:03Z</time></trkpt><trkpt lat="44.10303651896736" lon="10.451570349133231"><ele>266.0</ele><time>2026-05-02T13:53:04Z</time></trkpt><trkpt lat="44.10292498388309" lon="10.451857275950973"><ele>266.0</ele><time>2026-05-02T13:53:05Z</time></trkpt><trkpt lat="44.102796066072706" lon="10.452117221559403"><ele>266.0</ele><time>2026-05-02T13:53:06Z</time></trkpt><trkpt lat="44.102679907915196" lon="10.452371866970005"><ele>266.0</ele><time>2026-05-02T13:53:07Z</time></trkpt><trkpt lat="44.10254199347182" lon="10.452601114335055"><ele>262.0</ele><time>2026-05-02T13:53:08Z</time></trkpt><trkpt lat="44.10239260735771" lon="10.452810511070949"><ele>258.0</ele><time>2026-05-02T13:53:09Z</time></trkpt><trkpt lat="44.102238967076644" lon="10.453014702887357"><ele>254.0</ele><time>2026-05-02T13:53:10Z</time></trkpt><trkpt lat="44.10210223052865" lon="10.453194218197076"><ele>254.0</ele><time>2026-05-02T13:53:11Z</time></trkpt><trkpt lat="44.10198977364284" lon="10.453344836174034"><ele>254.0</ele><time>2026-05-02T13:53:12Z</time></trkpt><trkpt lat="44.101881575570296" lon="10.453491058692132"><ele>254.0</ele><time>2026-05-02T13:53:13Z</time></trkpt><trkpt lat="44.10178029582239" lon="10.4536282677519"><ele>254.0</ele><time>2026-05-02T13:53:14Z</time></trkpt><trkpt lat="44.10168101876255" lon="10.453763645907214"><ele>258.0</ele><time>2026-05-02T13:53:15Z</time></trkpt><trkpt lat="44.10157864635769" lon="10.453905908284892"><ele>262.0</ele><time>2026-05-02T13:53:16Z</time></trkpt><trkpt lat="44.101476153854186" lon="10.454049084676726"><ele>266.0</ele><time>2026-05-02T13:53:17Z</time></trkpt><trkpt lat="44.10136819304195" lon="10.454200011559973"><ele>270.0</ele><time>2026-05-02T13:53:18Z</time></trkpt><trkpt lat="44.10123281154259" lon="10.454383859031246"><ele>270.0</ele><time>2026-05-02T13:53:19Z</time></trkpt><trkpt lat="44.10107411075964" lon="10.454588884072752"><ele>270.0</ele><time>2026-05-02T13:53:20Z</time></trkpt><trkpt lat="44.10094228246665" lon="10.454750368356935"><ele>270.0</ele><time>2026-05-02T13:53:21Z</time></trkpt><trkpt lat="44.10082435886037" lon="10.454888685716048"><ele>270.75</ele><time>2026-05-02T13:53:22Z</time></trkpt><trkpt lat="44.10070770469808" lon="10.455014151254915"><ele>271.5</ele><time>2026-05-02T13:53:23Z</time></trkpt><trkpt lat="44.10058645313137" lon="10.455131463248382"><ele>272.25</ele><time>2026-05-02T13:53:24Z</time></trkpt><trkpt lat="44.1004600409492" lon="10.455241510944722"><ele>273.0</ele><time>2026-05-02T13:53:25Z</time></trkpt><trkpt lat="44.10032530170271" lon="10.455346052449954"><ele>261.3333333333333</ele><time>2026-05-02T13:53:26Z</time></trkpt><trkpt lat="44.100172989501296" lon="10.45545671312791"><ele>249.66666666666666</ele><time>2026-05-02T13:53:27Z</time></trkpt><trkpt lat="44.100029166111625" lon="10.45554693834465"><ele>238.0</ele><time>2026-05-02T13:53:28Z</time></trkpt><trkpt lat="44.099898089690925" lon="10.45561705349224"><ele>238.0</ele><time>2026-05-02T13:53:29Z</time></trkpt><trkpt lat="44.099811105651625" lon="10.45566765280815"><ele>238.0</ele><time>2026-05-02T13:53:30Z</time></trkpt><trkpt lat="44.09973130284926" lon="10.45567083802309"><ele>238.0</ele><time>2026-05-02T13:53:31Z</time></trkpt><trkpt lat="44.099647285140186" lon="10.455648569440294"><ele>238.0</ele><time>2026-05-02T13:53:32Z</time></trkpt><trkpt lat="44.09926225004269" lon="10.455877819453525"><ele>238.0</ele><time>2026-05-02T13:53:33Z</time></trkpt><trkpt lat="44.099113431915676" lon="10.455940860378648"><ele>238.0</ele><time>2026-05-02T13:53:34Z</time></trkpt><trkpt lat="44.09895071044638" lon="10.456029991020893"><ele>238.0</ele><time>2026-05-02T13:53:35Z</time></trkpt><trkpt lat="44.098784262456256" lon="10.45606753125445"><ele>241.0</ele><time>2026-05-02T13:53:36Z</time></trkpt><trkpt lat="44.09862056952842" lon="10.456120351460605"><ele>244.0</ele><time>2026-05-02T13:53:37Z</time></trkpt><trkpt lat="44.09845075765386" lon="10.456162920561978"><ele>247.0</ele><time>2026-05-02T13:53:38Z</time></trkpt><trkpt lat="44.098273367243394" lon="10.456193445868088"><ele>247.5</ele><time>2026-05-02T13:53:39Z</time></trkpt><trkpt lat="44.09805186649566" lon="10.456224774553267"><ele>248.0</ele><time>2026-05-02T13:53:40Z</time></trkpt><trkpt lat="44.0978034206135" lon="10.456258435934375"><ele>232.5</ele><time>2026-05-02T13:53:41Z</time></trkpt><trkpt lat="44.09753531811799" lon="10.45628969140711"><ele>217.0</ele><time>2026-05-02T13:53:42Z</time></trkpt><trkpt lat="44.09729822241313" lon="10.456317352934459"><ele>217.0</ele><time>2026-05-02T13:53:43Z</time></trkpt><trkpt lat="44.09707692067171" lon="10.456343717114873"><ele>217.0</ele><time>2026-05-02T13:53:44Z</time></trkpt><trkpt lat="44.09685834099994" lon="10.456372835727857"><ele>217.0</ele><time>2026-05-02T13:53:45Z</time></trkpt><trkpt lat="44.096634636187964" lon="10.45642743546959"><ele>217.33333333333331</ele><time>2026-05-02T13:53:46Z</time></trkpt><trkpt lat="44.09646385252678" lon="10.456496407111514"><ele>217.66666666666669</ele><time>2026-05-02T13:53:47Z</time></trkpt><trkpt lat="44.09632018091318" lon="10.456544000058262"><ele>218.0</ele><time>2026-05-02T13:53:48Z</time></trkpt><trkpt lat="44.09619177516595" lon="10.45659104462933"><ele>218.0</ele><time>2026-05-02T13:53:49Z</time></trkpt><trkpt lat="44.09603908738206" lon="10.456631800806461"><ele>218.0</ele><time>2026-05-02T13:53:50Z</time></trkpt><trkpt lat="44.095860379857385" lon="10.45666976700472"><ele>218.0</ele><time>2026-05-02T13:53:51Z</time></trkpt><trkpt lat="44.09568073113169" lon="10.456692725418302"><ele>218.5</ele><time>2026-05-02T13:53:52Z</time></trkpt><trkpt lat="44.09554885832872" lon="10.456692016283066"><ele>219.0</ele><time>2026-05-02T13:53:53Z</time></trkpt><trkpt lat="44.09541908035788" lon="10.456704691414814"><ele>219.5</ele><time>2026-05-02T13:53:54Z</time></trkpt><trkpt lat="44.09530094979279" lon="10.456713584271919"><ele>220.0</ele><time>2026-05-02T13:53:55Z</time></trkpt><trkpt lat="44.09519000228945" lon="10.456718943682379"><ele>220.0</ele><time>2026-05-02T13:53:56Z</time></trkpt><trkpt lat="44.09507194761202" lon="10.456721149047402"><ele>220.0</ele><time>2026-05-02T13:53:57Z</time></trkpt><trkpt lat="44.09492123027383" lon="10.456739037366539"><ele>220.0</ele><time>2026-05-02T13:53:58Z</time></trkpt><trkpt lat="44.09475371796439" lon="10.456705149383328"><ele>220.0</ele><time>2026-05-02T13:53:59Z</time></trkpt><trkpt lat="44.094568971848844" lon="10.456683989850449"><ele>217.66666666666666</ele><time>2026-05-02T13:54:00Z</time></trkpt><trkpt lat="44.09440538857598" lon="10.456655918455464"><ele>215.33333333333331</ele><time>2026-05-02T13:54:01Z</time></trkpt><trkpt lat="44.09425725013215" lon="10.45661715308788"><ele>213.0</ele><time>2026-05-02T13:54:02Z</time></trkpt><trkpt lat="44.09411308399174" lon="10.456563547344796"><ele>213.75</ele><time>2026-05-02T13:54:03Z</time></trkpt><trkpt lat="44.09397600966017" lon="10.456491992798252"><ele>214.5</ele><time>2026-05-02T13:54:03.999Z</time></trkpt><trkpt lat="44.09384024682393" lon="10.456397574564594"><ele>215.25</ele><time>2026-05-02T13:54:04.999Z</time></trkpt><trkpt lat="44.093716309431514" lon="10.45628915693754"><ele>216.0</ele><time>2026-05-02T13:54:05.999Z</time></trkpt><trkpt lat="44.093592630933685" lon="10.45618406974744"><ele>216.0</ele><time>2026-05-02T13:54:06.999Z</time></trkpt><trkpt lat="44.09347379634328" lon="10.456058754999583"><ele>216.0</ele><time>2026-05-02T13:54:07.999Z</time></trkpt><trkpt lat="44.09336163818553" lon="10.455941770615892"><ele>216.0</ele><time>2026-05-02T13:54:08.999Z</time></trkpt><trkpt lat="44.093243099868985" lon="10.455810838615038"><ele>216.0</ele><time>2026-05-02T13:54:09.999Z</time></trkpt><trkpt lat="44.09313475166685" lon="10.455684586564944"><ele>213.25</ele><time>2026-05-02T13:54:10.999Z</time></trkpt><trkpt lat="44.093034525257515" lon="10.455554962740646"><ele>210.5</ele><time>2026-05-02T13:54:11.999Z</time></trkpt><trkpt lat="44.092941812230464" lon="10.455414124543193"><ele>207.75</ele><time>2026-05-02T13:54:12.999Z</time></trkpt><trkpt lat="44.09285424820229" lon="10.455252554714741"><ele>205.0</ele><time>2026-05-02T13:54:13.999Z</time></trkpt><trkpt lat="44.09278984536467" lon="10.455074808218974"><ele>205.0</ele><time>2026-05-02T13:54:14.999Z</time></trkpt><trkpt lat="44.09274055171068" lon="10.454889149944455"><ele>205.0</ele><time>2026-05-02T13:54:15.999Z</time></trkpt><trkpt lat="44.09271521061734" lon="10.454698289966242"><ele>205.0</ele><time>2026-05-02T13:54:16.999Z</time></trkpt><trkpt lat="44.0927166908675" lon="10.454512930083544"><ele>205.0</ele><time>2026-05-02T13:54:17.999Z</time></trkpt><trkpt lat="44.092733558197224" lon="10.454327647332436"><ele>205.25</ele><time>2026-05-02T13:54:18.999Z</time></trkpt><trkpt lat="44.092741939710834" lon="10.454148809147174"><ele>205.5</ele><time>2026-05-02T13:54:19.999Z</time></trkpt><trkpt lat="44.09275143263858" lon="10.453966235654192"><ele>205.75</ele><time>2026-05-02T13:54:20.999Z</time></trkpt><trkpt lat="44.09276965020717" lon="10.453799459031094"><ele>206.0</ele><time>2026-05-02T13:54:21.999Z</time></trkpt><trkpt lat="44.092782763485204" lon="10.453636189499528"><ele>207.25</ele><time>2026-05-02T13:54:22.999Z</time></trkpt><trkpt lat="44.09278727255243" lon="10.453477732267741"><ele>208.5</ele><time>2026-05-02T13:54:23.999Z</time></trkpt><trkpt lat="44.09278497566248" lon="10.453324856330658"><ele>209.75</ele><time>2026-05-02T13:54:24.999Z</time></trkpt><trkpt lat="44.092752742864334" lon="10.45317569539862"><ele>211.0</ele><time>2026-05-02T13:54:25.999Z</time></trkpt><trkpt lat="44.09268592749168" lon="10.4530456141935"><ele>211.0</ele><time>2026-05-02T13:54:26.999Z</time></trkpt><trkpt lat="44.09259481121368" lon="10.452926688731402"><ele>211.0</ele><time>2026-05-02T13:54:27.999Z</time></trkpt><trkpt lat="44.0924984762974" lon="10.452824510287194"><ele>211.0</ele><time>2026-05-02T13:54:28.999Z</time></trkpt><trkpt lat="44.092408134755686" lon="10.452723190837007"><ele>211.0</ele><time>2026-05-02T13:54:29.999Z</time></trkpt><trkpt lat="44.09229295403753" lon="10.452631328738473"><ele>211.0</ele><time>2026-05-02T13:54:30.999Z</time></trkpt><trkpt lat="44.09219823513545" lon="10.452523523504327"><ele>211.0</ele><time>2026-05-02T13:54:31.999Z</time></trkpt><trkpt lat="44.09210982133061" lon="10.452441684494191"><ele>211.0</ele><time>2026-05-02T13:54:32.999Z</time></trkpt><trkpt lat="44.09202612215995" lon="10.452382465435969"><ele>211.0</ele><time>2026-05-02T13:54:33.999Z</time></trkpt><trkpt lat="44.09193742580718" lon="10.452290253135555"><ele>211.0</ele><time>2026-05-02T13:54:34.999Z</time></trkpt><trkpt lat="44.091850204187885" lon="10.452296629050712"><ele>210.99999999999997</ele><time>2026-05-02T13:54:35.999Z</time></trkpt><trkpt lat="44.09178589596126" lon="10.452265911241673"><ele>211.0</ele><time>2026-05-02T13:54:36.999Z</time></trkpt><trkpt lat="44.09167924830841" lon="10.452214735271355"><ele>211.0</ele><time>2026-05-02T13:54:37.999Z</time></trkpt><trkpt lat="44.091597711094245" lon="10.452190671677592"><ele>211.0</ele><time>2026-05-02T13:54:38.999Z</time></trkpt><trkpt lat="44.091516824550155" lon="10.452166836160023"><ele>210.99999999999997</ele><time>2026-05-02T13:54:39.999Z</time></trkpt><trkpt lat="44.091438802406074" lon="10.452145267190733"><ele>211.0</ele><time>2026-05-02T13:54:40.999Z</time></trkpt><trkpt lat="44.09137024223231" lon="10.452118948084472"><ele>211.33333333333331</ele><time>2026-05-02T13:54:41.999Z</time></trkpt><trkpt lat="44.09129186691818" lon="10.452092443588068"><ele>211.66666666666666</ele><time>2026-05-02T13:54:42.999Z</time></trkpt><trkpt lat="44.09121159872476" lon="10.452071197567399"><ele>212.0</ele><time>2026-05-02T13:54:43.999Z</time></trkpt><trkpt lat="44.09112948160932" lon="10.452047424163537"><ele>212.33333333333331</ele><time>2026-05-02T13:54:44.999Z</time></trkpt><trkpt lat="44.09105341471212" lon="10.452035249630988"><ele>212.66666666666666</ele><time>2026-05-02T13:54:45.999Z</time></trkpt><trkpt lat="44.09097317581652" lon="10.452020385639715"><ele>213.0</ele><time>2026-05-02T13:54:46.999Z</time></trkpt><trkpt lat="44.09088668847297" lon="10.452008648159582"><ele>212.99999999999997</ele><time>2026-05-02T13:54:47.999Z</time></trkpt><trkpt lat="44.09081025008988" lon="10.451997240104369"><ele>213.0</ele><time>2026-05-02T13:54:49Z</time></trkpt><trkpt lat="44.09074235045926" lon="10.451981950610058"><ele>213.0</ele><time>2026-05-02T13:54:50Z</time></trkpt><trkpt lat="44.090680947790716" lon="10.451950083554298"><ele>213.0</ele><time>2026-05-02T13:54:51Z</time></trkpt><trkpt lat="44.09062205822446" lon="10.451901438603311"><ele>213.0</ele><time>2026-05-02T13:54:52Z</time></trkpt><trkpt lat="44.09056890802962" lon="10.451835299933535"><ele>212.99999999999997</ele><time>2026-05-02T13:54:53Z</time></trkpt><trkpt lat="44.09051687234838" lon="10.451769455590082"><ele>213.0</ele><time>2026-05-02T13:54:54Z</time></trkpt><trkpt lat="44.09045002974852" lon="10.451666396472048"><ele>211.25</ele><time>2026-05-02T13:54:55Z</time></trkpt><trkpt lat="44.090358426251896" lon="10.451516713925525"><ele>209.5</ele><time>2026-05-02T13:54:56Z</time></trkpt><trkpt lat="44.09025404910161" lon="10.45135720559121"><ele>207.75</ele><time>2026-05-02T13:54:57Z</time></trkpt><trkpt lat="44.0901559966628" lon="10.451203125960337"><ele>206.0</ele><time>2026-05-02T13:54:58Z</time></trkpt><trkpt lat="44.09006790668806" lon="10.451056605925297"><ele>206.0</ele><time>2026-05-02T13:54:59Z</time></trkpt><trkpt lat="44.08997976528256" lon="10.450916623997758"><ele>206.0</ele><time>2026-05-02T13:55:00Z</time></trkpt><trkpt lat="44.0898894444293" lon="10.450778219665038"><ele>206.0</ele><time>2026-05-02T13:55:01Z</time></trkpt><trkpt lat="44.08980698276727" lon="10.45064610410682"><ele>206.0</ele><time>2026-05-02T13:55:02Z</time></trkpt><trkpt lat="44.089724039992525" lon="10.450518837758281"><ele>207.5</ele><time>2026-05-02T13:55:03Z</time></trkpt><trkpt lat="44.089639565345045" lon="10.450386882583729"><ele>209.0</ele><time>2026-05-02T13:55:04Z</time></trkpt><trkpt lat="44.08955772492113" lon="10.450255196117535"><ele>210.5</ele><time>2026-05-02T13:55:05Z</time></trkpt><trkpt lat="44.08946588926771" lon="10.450136934902806"><ele>212.0</ele><time>2026-05-02T13:55:06Z</time></trkpt><trkpt lat="44.08935613822463" lon="10.450051936425254"><ele>212.0</ele><time>2026-05-02T13:55:07Z</time></trkpt><trkpt lat="44.08924059258634" lon="10.450004445203012"><ele>212.0</ele><time>2026-05-02T13:55:08Z</time></trkpt><trkpt lat="44.08911100575788" lon="10.449988015796318"><ele>212.0</ele><time>2026-05-02T13:55:09Z</time></trkpt><trkpt lat="44.08897442433943" lon="10.449995870527498"><ele>212.0</ele><time>2026-05-02T13:55:10Z</time></trkpt><trkpt lat="44.088837964571155" lon="10.450006519764788"><ele>210.0</ele><time>2026-05-02T13:55:11Z</time></trkpt><trkpt lat="44.08869419721058" lon="10.449991562702184"><ele>208.0</ele><time>2026-05-02T13:55:12Z</time></trkpt><trkpt lat="44.08855409256772" lon="10.449952555779694"><ele>206.0</ele><time>2026-05-02T13:55:13Z</time></trkpt><trkpt lat="44.08841559920485" lon="10.449903856606845"><ele>204.0</ele><time>2026-05-02T13:55:14Z</time></trkpt><trkpt lat="44.088260829833075" lon="10.44983992912322"><ele>201.66666666666669</ele><time>2026-05-02T13:55:15Z</time></trkpt><trkpt lat="44.08810605515305" lon="10.449752391837993"><ele>199.33333333333334</ele><time>2026-05-02T13:55:16Z</time></trkpt><trkpt lat="44.08794778601991" lon="10.449626925489358"><ele>197.0</ele><time>2026-05-02T13:55:17Z</time></trkpt><trkpt lat="44.08775462970335" lon="10.44948652577022"><ele>197.0</ele><time>2026-05-02T13:55:18Z</time></trkpt><trkpt lat="44.08753444169641" lon="10.449308453095027"><ele>197.0</ele><time>2026-05-02T13:55:19Z</time></trkpt><trkpt lat="44.08731333180363" lon="10.449091774969702"><ele>197.5</ele><time>2026-05-02T13:55:20Z</time></trkpt><trkpt lat="44.087074947306874" lon="10.448880342916198"><ele>198.0</ele><time>2026-05-02T13:55:21Z</time></trkpt><trkpt lat="44.08683559365704" lon="10.448657973598923"><ele>194.0</ele><time>2026-05-02T13:55:22Z</time></trkpt><trkpt lat="44.086593577260736" lon="10.448443343771885"><ele>190.0</ele><time>2026-05-02T13:55:23Z</time></trkpt><trkpt lat="44.086365237707405" lon="10.448242803493635"><ele>190.0</ele><time>2026-05-02T13:55:24Z</time></trkpt><trkpt lat="44.08616049344173" lon="10.448030870676394"><ele>190.0</ele><time>2026-05-02T13:55:25Z</time></trkpt><trkpt lat="44.085955111816965" lon="10.447841045839152"><ele>190.0</ele><time>2026-05-02T13:55:26Z</time></trkpt><trkpt lat="44.08575824632165" lon="10.447658726676243"><ele>190.0</ele><time>2026-05-02T13:55:27Z</time></trkpt><trkpt lat="44.085573503544786" lon="10.44748763445853"><ele>190.0</ele><time>2026-05-02T13:55:28Z</time></trkpt><trkpt lat="44.08539836306142" lon="10.447325597251442"><ele>190.0</ele><time>2026-05-02T13:55:29Z</time></trkpt><trkpt lat="44.08522890594577" lon="10.447197011588047"><ele>190.0</ele><time>2026-05-02T13:55:30Z</time></trkpt><trkpt lat="44.08509284015368" lon="10.44704498942405"><ele>189.0</ele><time>2026-05-02T13:55:31Z</time></trkpt><trkpt lat="44.084942364192976" lon="10.446929521304956"><ele>188.0</ele><time>2026-05-02T13:55:32Z</time></trkpt><trkpt lat="44.08479088248763" lon="10.446783379358704"><ele>187.0</ele><time>2026-05-02T13:55:33Z</time></trkpt><trkpt lat="44.084638429072776" lon="10.446642358350351"><ele>187.0</ele><time>2026-05-02T13:55:34Z</time></trkpt><trkpt lat="44.08448476199826" lon="10.446502442720135"><ele>187.0</ele><time>2026-05-02T13:55:35Z</time></trkpt><trkpt lat="44.084328569929475" lon="10.446354913307058"><ele>187.0</ele><time>2026-05-02T13:55:36Z</time></trkpt><trkpt lat="44.08416407971795" lon="10.446209345307965"><ele>186.33333333333334</ele><time>2026-05-02T13:55:37Z</time></trkpt><trkpt lat="44.08399548023039" lon="10.44602989973324"><ele>185.66666666666666</ele><time>2026-05-02T13:55:38Z</time></trkpt><trkpt lat="44.08380914051895" lon="10.44585378475101"><ele>185.0</ele><time>2026-05-02T13:55:39Z</time></trkpt><trkpt lat="44.08361584669201" lon="10.445671096796877"><ele>185.0</ele><time>2026-05-02T13:55:40Z</time></trkpt><trkpt lat="44.08342440258104" lon="10.445491503258244"><ele>185.0</ele><time>2026-05-02T13:55:41Z</time></trkpt><trkpt lat="44.08323642137937" lon="10.445316781295757"><ele>184.33333333333331</ele><time>2026-05-02T13:55:42Z</time></trkpt><trkpt lat="44.08304424921172" lon="10.445164906337707"><ele>183.66666666666666</ele><time>2026-05-02T13:55:43Z</time></trkpt><trkpt lat="44.082873868381185" lon="10.444981337565096"><ele>183.0</ele><time>2026-05-02T13:55:44Z</time></trkpt><trkpt lat="44.08270157337391" lon="10.444822538338805"><ele>183.0</ele><time>2026-05-02T13:55:45Z</time></trkpt><trkpt lat="44.082526014014164" lon="10.444686348690233"><ele>183.0</ele><time>2026-05-02T13:55:46Z</time></trkpt><trkpt lat="44.08236501469953" lon="10.444537968493506"><ele>183.0</ele><time>2026-05-02T13:55:47Z</time></trkpt><trkpt lat="44.082210377050075" lon="10.444390401581641"><ele>183.0</ele><time>2026-05-02T13:55:48Z</time></trkpt><trkpt lat="44.082053683571324" lon="10.444247730325108"><ele>183.0</ele><time>2026-05-02T13:55:49Z</time></trkpt><trkpt lat="44.08189497700495" lon="10.444101416155313"><ele>183.0</ele><time>2026-05-02T13:55:50Z</time></trkpt><trkpt lat="44.081737696227535" lon="10.443952083336876"><ele>182.66666666666666</ele><time>2026-05-02T13:55:51Z</time></trkpt><trkpt lat="44.081578055367416" lon="10.443809513056786"><ele>182.33333333333331</ele><time>2026-05-02T13:55:52Z</time></trkpt><trkpt lat="44.08143087259737" lon="10.443673848564117"><ele>182.0</ele><time>2026-05-02T13:55:53Z</time></trkpt><trkpt lat="44.08129152721319" lon="10.443541071591781"><ele>182.0</ele><time>2026-05-02T13:55:54Z</time></trkpt><trkpt lat="44.081150567867" lon="10.443410785713365"><ele>182.0</ele><time>2026-05-02T13:55:55Z</time></trkpt><trkpt lat="44.08100534803527" lon="10.443278340568531"><ele>182.0</ele><time>2026-05-02T13:55:56Z</time></trkpt><trkpt lat="44.08085807869846" lon="10.443146563337633"><ele>181.66666666666666</ele><time>2026-05-02T13:55:57Z</time></trkpt><trkpt lat="44.08070679714539" lon="10.443012376242635"><ele>181.33333333333334</ele><time>2026-05-02T13:55:58Z</time></trkpt><trkpt lat="44.080549135643096" lon="10.442871619466422"><ele>181.0</ele><time>2026-05-02T13:55:59Z</time></trkpt><trkpt lat="44.080372565540294" lon="10.442729262618242"><ele>181.66666666666669</ele><time>2026-05-02T13:56:00Z</time></trkpt><trkpt lat="44.080175735546035" lon="10.442588359719393"><ele>182.33333333333334</ele><time>2026-05-02T13:56:01Z</time></trkpt><trkpt lat="44.07997556926817" lon="10.442452078628545"><ele>183.0</ele><time>2026-05-02T13:56:02Z</time></trkpt><trkpt lat="44.0797808009743" lon="10.442344053188473"><ele>184.0</ele><time>2026-05-02T13:56:03Z</time></trkpt><trkpt lat="44.07959226187674" lon="10.442258950578239"><ele>185.0</ele><time>2026-05-02T13:56:04Z</time></trkpt><trkpt lat="44.079405392232104" lon="10.442185480515043"><ele>186.0</ele><time>2026-05-02T13:56:05Z</time></trkpt><trkpt lat="44.07921685020067" lon="10.44213365577848"><ele>191.0</ele><time>2026-05-02T13:56:06Z</time></trkpt><trkpt lat="44.07903477376905" lon="10.442098554893459"><ele>196.0</ele><time>2026-05-02T13:56:07Z</time></trkpt><trkpt lat="44.07885212417784" lon="10.44207196695158"><ele>201.0</ele><time>2026-05-02T13:56:08Z</time></trkpt><trkpt lat="44.07866171779085" lon="10.442029131616158"><ele>201.0</ele><time>2026-05-02T13:56:09Z</time></trkpt><trkpt lat="44.07844927443854" lon="10.44200666786414"><ele>201.0</ele><time>2026-05-02T13:56:10Z</time></trkpt><trkpt lat="44.07821542662948" lon="10.441989392300357"><ele>201.0</ele><time>2026-05-02T13:56:11Z</time></trkpt><trkpt lat="44.077986494976464" lon="10.441979221286667"><ele>199.33333333333331</ele><time>2026-05-02T13:56:11.999Z</time></trkpt><trkpt lat="44.07777843189307" lon="10.441987389644297"><ele>197.66666666666666</ele><time>2026-05-02T13:56:12.999Z</time></trkpt><trkpt lat="44.07758955286906" lon="10.441974481302942"><ele>196.0</ele><time>2026-05-02T13:56:13.999Z</time></trkpt><trkpt lat="44.07741868627252" lon="10.44192956203583"><ele>195.0</ele><time>2026-05-02T13:56:14.999Z</time></trkpt><trkpt lat="44.07727227066947" lon="10.441900725903812"><ele>194.0</ele><time>2026-05-02T13:56:15.999Z</time></trkpt><trkpt lat="44.077127824589695" lon="10.44186389987142"><ele>193.0</ele><time>2026-05-02T13:56:16.999Z</time></trkpt><trkpt lat="44.07697895030878" lon="10.441817088633613"><ele>192.0</ele><time>2026-05-02T13:56:17.999Z</time></trkpt><trkpt lat="44.07682421363619" lon="10.441764911787239"><ele>192.0</ele><time>2026-05-02T13:56:18.999Z</time></trkpt><trkpt lat="44.07666518435405" lon="10.44171990085431"><ele>192.0</ele><time>2026-05-02T13:56:19.999Z</time></trkpt><trkpt lat="44.076507856311295" lon="10.441636499187974"><ele>192.0</ele><time>2026-05-02T13:56:20.999Z</time></trkpt><trkpt lat="44.076355357522964" lon="10.441546778777527"><ele>191.66666666666666</ele><time>2026-05-02T13:56:21.999Z</time></trkpt><trkpt lat="44.07619945087107" lon="10.441444868249363"><ele>191.33333333333331</ele><time>2026-05-02T13:56:22.999Z</time></trkpt><trkpt lat="44.07605033902434" lon="10.441334896091572"><ele>191.0</ele><time>2026-05-02T13:56:23.999Z</time></trkpt><trkpt lat="44.07590106636587" lon="10.441208387707318"><ele>187.66666666666666</ele><time>2026-05-02T13:56:24.999Z</time></trkpt><trkpt lat="44.075729230839826" lon="10.441066333708555"><ele>184.33333333333334</ele><time>2026-05-02T13:56:25.999Z</time></trkpt><trkpt lat="44.075551087082" lon="10.440886545329226"><ele>181.0</ele><time>2026-05-02T13:56:26.999Z</time></trkpt><trkpt lat="44.07539886864973" lon="10.440723892430523"><ele>181.0</ele><time>2026-05-02T13:56:27.999Z</time></trkpt><trkpt lat="44.075208431256094" lon="10.440539737559224"><ele>181.0</ele><time>2026-05-02T13:56:28.999Z</time></trkpt><trkpt lat="44.075011811852974" lon="10.44039677210275"><ele>180.33333333333334</ele><time>2026-05-02T13:56:29.999Z</time></trkpt><trkpt lat="44.07483439074613" lon="10.440247387385236"><ele>179.66666666666666</ele><time>2026-05-02T13:56:30.999Z</time></trkpt><trkpt lat="44.07465455926959" lon="10.440111316126865"><ele>179.0</ele><time>2026-05-02T13:56:31.999Z</time></trkpt><trkpt lat="44.074474327061" lon="10.439999010542017"><ele>179.0</ele><time>2026-05-02T13:56:32.999Z</time></trkpt><trkpt lat="44.07427371194539" lon="10.439885466741341"><ele>179.0</ele><time>2026-05-02T13:56:33.999Z</time></trkpt><trkpt lat="44.07404768894558" lon="10.439778548168087"><ele>180.5</ele><time>2026-05-02T13:56:34.999Z</time></trkpt><trkpt lat="44.07380512152939" lon="10.439679868218226"><ele>182.0</ele><time>2026-05-02T13:56:35.999Z</time></trkpt><trkpt lat="44.07356271172345" lon="10.439600148374423"><ele>186.0</ele><time>2026-05-02T13:56:36.999Z</time></trkpt><trkpt lat="44.073332870451985" lon="10.439545802706936"><ele>190.0</ele><time>2026-05-02T13:56:37.999Z</time></trkpt><trkpt lat="44.07309277705881" lon="10.439530070396623"><ele>190.0</ele><time>2026-05-02T13:56:38.999Z</time></trkpt><trkpt lat="44.072849438704466" lon="10.43954593281511"><ele>190.0</ele><time>2026-05-02T13:56:39.999Z</time></trkpt><trkpt lat="44.07260343830267" lon="10.439574948169186"><ele>190.5</ele><time>2026-05-02T13:56:40.999Z</time></trkpt><trkpt lat="44.07235509260485" lon="10.439617607352147"><ele>191.0</ele><time>2026-05-02T13:56:41.999Z</time></trkpt><trkpt lat="44.07210181066668" lon="10.439669623551845"><ele>191.0</ele><time>2026-05-02T13:56:42.999Z</time></trkpt><trkpt lat="44.0718490757242" lon="10.439725182533572"><ele>191.0</ele><time>2026-05-02T13:56:43.999Z</time></trkpt><trkpt lat="44.0715986795196" lon="10.439773462545165"><ele>190.0</ele><time>2026-05-02T13:56:44.999Z</time></trkpt><trkpt lat="44.07135352545695" lon="10.43982123061321"><ele>189.0</ele><time>2026-05-02T13:56:45.999Z</time></trkpt><trkpt lat="44.07111594485943" lon="10.439868556589001"><ele>189.0</ele><time>2026-05-02T13:56:46.999Z</time></trkpt><trkpt lat="44.07089883785097" lon="10.439919745215713"><ele>189.0</ele><time>2026-05-02T13:56:47.999Z</time></trkpt><trkpt lat="44.07068762559198" lon="10.439960905127947"><ele>189.0</ele><time>2026-05-02T13:56:48.999Z</time></trkpt><trkpt lat="44.07048861838645" lon="10.439983992577547"><ele>189.0</ele><time>2026-05-02T13:56:49.999Z</time></trkpt><trkpt lat="44.070296581235816" lon="10.440021824219274"><ele>189.0</ele><time>2026-05-02T13:56:50.999Z</time></trkpt><trkpt lat="44.07008135699843" lon="10.440064202451834"><ele>189.0</ele><time>2026-05-02T13:56:51.999Z</time></trkpt><trkpt lat="44.0698879270046" lon="10.440123063505014"><ele>188.0</ele><time>2026-05-02T13:56:52.999Z</time></trkpt><trkpt lat="44.06969580455799" lon="10.440159322495335"><ele>187.0</ele><time>2026-05-02T13:56:53.999Z</time></trkpt><trkpt lat="44.06950477034595" lon="10.440172345818599"><ele>186.0</ele><time>2026-05-02T13:56:55Z</time></trkpt><trkpt lat="44.06932716152912" lon="10.440205139381344"><ele>186.0</ele><time>2026-05-02T13:56:56Z</time></trkpt><trkpt lat="44.06914803823835" lon="10.440238212567754"><ele>186.0</ele><time>2026-05-02T13:56:57Z</time></trkpt><trkpt lat="44.068964102269504" lon="10.440272174371655"><ele>186.0</ele><time>2026-05-02T13:56:58Z</time></trkpt><trkpt lat="44.06878781127504" lon="10.44030544834873"><ele>186.33333333333334</ele><time>2026-05-02T13:56:59Z</time></trkpt><trkpt lat="44.06861796330896" lon="10.440337791112677"><ele>186.66666666666669</ele><time>2026-05-02T13:57:00Z</time></trkpt><trkpt lat="44.068459335499384" lon="10.440367997330695"><ele>187.0</ele><time>2026-05-02T13:57:01Z</time></trkpt><trkpt lat="44.06829618688586" lon="10.440399064390498"><ele>186.0</ele><time>2026-05-02T13:57:02Z</time></trkpt><trkpt lat="44.06811684731265" lon="10.440467712466484"><ele>185.0</ele><time>2026-05-02T13:57:03Z</time></trkpt><trkpt lat="44.06792146830799" lon="10.440499117771738"><ele>184.0</ele><time>2026-05-02T13:57:04Z</time></trkpt><trkpt lat="44.067731574660414" lon="10.440523697582979"><ele>184.0</ele><time>2026-05-02T13:57:05Z</time></trkpt><trkpt lat="44.06753897684815" lon="10.440552265950242"><ele>184.0</ele><time>2026-05-02T13:57:06Z</time></trkpt><trkpt lat="44.06735041788153" lon="10.440584204491477"><ele>184.0</ele><time>2026-05-02T13:57:07Z</time></trkpt><trkpt lat="44.06717323433437" lon="10.440617317558395"><ele>184.33333333333334</ele><time>2026-05-02T13:57:08Z</time></trkpt><trkpt lat="44.06700481912623" lon="10.44065425998429"><ele>184.66666666666666</ele><time>2026-05-02T13:57:09Z</time></trkpt><trkpt lat="44.06683269017703" lon="10.440689517961289"><ele>185.0</ele><time>2026-05-02T13:57:10Z</time></trkpt><trkpt lat="44.06666560517376" lon="10.440718487285793"><ele>186.0</ele><time>2026-05-02T13:57:11Z</time></trkpt><trkpt lat="44.066513051823414" lon="10.440744741077896"><ele>187.0</ele><time>2026-05-02T13:57:12Z</time></trkpt><trkpt lat="44.06637097569866" lon="10.440765675886245"><ele>188.0</ele><time>2026-05-02T13:57:13Z</time></trkpt><trkpt lat="44.06622100873937" lon="10.440790330801049"><ele>189.0</ele><time>2026-05-02T13:57:14Z</time></trkpt><trkpt lat="44.06607502627578" lon="10.440815371354986"><ele>189.0</ele><time>2026-05-02T13:57:15Z</time></trkpt><trkpt lat="44.06593008085142" lon="10.440842110622393"><ele>189.0</ele><time>2026-05-02T13:57:16Z</time></trkpt><trkpt lat="44.06580214438706" lon="10.440865488193962"><ele>189.0</ele><time>2026-05-02T13:57:17Z</time></trkpt><trkpt lat="44.06569072572752" lon="10.440890195631681"><ele>189.0</ele><time>2026-05-02T13:57:18Z</time></trkpt><trkpt lat="44.06558177449814" lon="10.44092272870608"><ele>189.5</ele><time>2026-05-02T13:57:19Z</time></trkpt><trkpt lat="44.06545943233092" lon="10.440957530479984"><ele>190.0</ele><time>2026-05-02T13:57:20Z</time></trkpt><trkpt lat="44.06532028585092" lon="10.440993673517097"><ele>190.5</ele><time>2026-05-02T13:57:21Z</time></trkpt><trkpt lat="44.06516767206021" lon="10.441039262944484"><ele>191.0</ele><time>2026-05-02T13:57:22Z</time></trkpt><trkpt lat="44.065006876660526" lon="10.441089529366783"><ele>190.66666666666666</ele><time>2026-05-02T13:57:23Z</time></trkpt><trkpt lat="44.064841246257004" lon="10.441150899691838"><ele>190.33333333333334</ele><time>2026-05-02T13:57:24Z</time></trkpt><trkpt lat="44.0646734266606" lon="10.441212913743243"><ele>190.0</ele><time>2026-05-02T13:57:25Z</time></trkpt><trkpt lat="44.06451302879537" lon="10.441277187543127"><ele>189.33333333333334</ele><time>2026-05-02T13:57:26Z</time></trkpt><trkpt lat="44.064368605271326" lon="10.44134133697955"><ele>188.66666666666666</ele><time>2026-05-02T13:57:27Z</time></trkpt><trkpt lat="44.06421989687849" lon="10.441411225283051"><ele>188.0</ele><time>2026-05-02T13:57:28Z</time></trkpt><trkpt lat="44.064059185525444" lon="10.441487108365225"><ele>187.33333333333331</ele><time>2026-05-02T13:57:29Z</time></trkpt><trkpt lat="44.063890556917094" lon="10.441572617555817"><ele>186.66666666666666</ele><time>2026-05-02T13:57:30Z</time></trkpt><trkpt lat="44.06372185267665" lon="10.441664282212628"><ele>186.0</ele><time>2026-05-02T13:57:31Z</time></trkpt><trkpt lat="44.06355703847024" lon="10.441764102789513"><ele>186.0</ele><time>2026-05-02T13:57:32Z</time></trkpt><trkpt lat="44.06338401706832" lon="10.441875019180044"><ele>186.0</ele><time>2026-05-02T13:57:33Z</time></trkpt><trkpt lat="44.063207656589576" lon="10.44199359517143"><ele>186.0</ele><time>2026-05-02T13:57:34Z</time></trkpt><trkpt lat="44.06301922499896" lon="10.442124323452195"><ele>184.66666666666666</ele><time>2026-05-02T13:57:35Z</time></trkpt><trkpt lat="44.06283163852322" lon="10.44226559196739"><ele>183.33333333333331</ele><time>2026-05-02T13:57:36Z</time></trkpt><trkpt lat="44.06264941549929" lon="10.442412133112418"><ele>182.0</ele><time>2026-05-02T13:57:37Z</time></trkpt><trkpt lat="44.06247053292919" lon="10.442563620447823"><ele>182.33333333333331</ele><time>2026-05-02T13:57:38Z</time></trkpt><trkpt lat="44.06229077301417" lon="10.442724395896125"><ele>182.66666666666666</ele><time>2026-05-02T13:57:39Z</time></trkpt><trkpt lat="44.062107557530155" lon="10.442885430762212"><ele>183.0</ele><time>2026-05-02T13:57:40Z</time></trkpt><trkpt lat="44.06191665533516" lon="10.44305125262732"><ele>182.33333333333334</ele><time>2026-05-02T13:57:41Z</time></trkpt><trkpt lat="44.06172218949086" lon="10.443189216492057"><ele>181.66666666666669</ele><time>2026-05-02T13:57:42Z</time></trkpt><trkpt lat="44.06151085153229" lon="10.443296855753443"><ele>181.0</ele><time>2026-05-02T13:57:43Z</time></trkpt><trkpt lat="44.06127597451746" lon="10.443395047454704"><ele>181.0</ele><time>2026-05-02T13:57:44Z</time></trkpt><trkpt lat="44.06103882713544" lon="10.443494284660325"><ele>181.0</ele><time>2026-05-02T13:57:45Z</time></trkpt><trkpt lat="44.06081098203339" lon="10.443591919986142"><ele>180.0</ele><time>2026-05-02T13:57:46Z</time></trkpt><trkpt lat="44.06058698759198" lon="10.443700971510609"><ele>179.0</ele><time>2026-05-02T13:57:47Z</time></trkpt><trkpt lat="44.060371563411145" lon="10.443829333728678"><ele>178.0</ele><time>2026-05-02T13:57:48Z</time></trkpt><trkpt lat="44.06016450672728" lon="10.443978330291925"><ele>177.0</ele><time>2026-05-02T13:57:49Z</time></trkpt><trkpt lat="44.059974182009164" lon="10.44415132732506"><ele>176.5</ele><time>2026-05-02T13:57:50Z</time></trkpt><trkpt lat="44.05979406924092" lon="10.444342591954172"><ele>176.0</ele><time>2026-05-02T13:57:51Z</time></trkpt><trkpt lat="44.059618923905695" lon="10.444559653683452"><ele>174.0</ele><time>2026-05-02T13:57:52Z</time></trkpt><trkpt lat="44.05944489799844" lon="10.444795706812485"><ele>172.0</ele><time>2026-05-02T13:57:53Z</time></trkpt><trkpt lat="44.0592700734869" lon="10.445035944621749"><ele>172.5</ele><time>2026-05-02T13:57:54Z</time></trkpt><trkpt lat="44.0590882425404" lon="10.445275070465724"><ele>173.0</ele><time>2026-05-02T13:57:55Z</time></trkpt><trkpt lat="44.05890643384651" lon="10.445519042582076"><ele>173.0</ele><time>2026-05-02T13:57:56Z</time></trkpt><trkpt lat="44.05872906505393" lon="10.44575525570811"><ele>173.0</ele><time>2026-05-02T13:57:57Z</time></trkpt><trkpt lat="44.058550160027075" lon="10.44599494189992"><ele>173.0</ele><time>2026-05-02T13:57:58Z</time></trkpt><trkpt lat="44.0583771920593" lon="10.446228192998287"><ele>173.0</ele><time>2026-05-02T13:57:59Z</time></trkpt><trkpt lat="44.05820588637078" lon="10.446461692057113"><ele>172.5</ele><time>2026-05-02T13:58:00Z</time></trkpt><trkpt lat="44.05803467071204" lon="10.446692411548042"><ele>172.0</ele><time>2026-05-02T13:58:01Z</time></trkpt><trkpt lat="44.05786817690994" lon="10.446917704495164"><ele>172.0</ele><time>2026-05-02T13:58:02Z</time></trkpt><trkpt lat="44.05771490973028" lon="10.44711481797423"><ele>172.0</ele><time>2026-05-02T13:58:03Z</time></trkpt><trkpt lat="44.05754081771686" lon="10.447357071438937"><ele>172.0</ele><time>2026-05-02T13:58:04Z</time></trkpt><trkpt lat="44.05737469557111" lon="10.447580542738775"><ele>172.0</ele><time>2026-05-02T13:58:05Z</time></trkpt><trkpt lat="44.057211831508894" lon="10.4477987385598"><ele>171.0</ele><time>2026-05-02T13:58:06Z</time></trkpt><trkpt lat="44.057054864756616" lon="10.448012714236803"><ele>170.0</ele><time>2026-05-02T13:58:07Z</time></trkpt><trkpt lat="44.05690094998172" lon="10.448219323987793"><ele>169.0</ele><time>2026-05-02T13:58:08Z</time></trkpt><trkpt lat="44.05675201336228" lon="10.448415869536904"><ele>170.0</ele><time>2026-05-02T13:58:09Z</time></trkpt><trkpt lat="44.056609519024214" lon="10.448605205571582"><ele>171.0</ele><time>2026-05-02T13:58:09.999Z</time></trkpt><trkpt lat="44.05647671470941" lon="10.448782912583967"><ele>172.0</ele><time>2026-05-02T13:58:10.999Z</time></trkpt><trkpt lat="44.05634720877179" lon="10.448953604984606"><ele>172.0</ele><time>2026-05-02T13:58:11.999Z</time></trkpt><trkpt lat="44.05622302186323" lon="10.449120317714403"><ele>172.0</ele><time>2026-05-02T13:58:12.999Z</time></trkpt><trkpt lat="44.05611077635879" lon="10.44927327388823"><ele>172.0</ele><time>2026-05-02T13:58:13.999Z</time></trkpt><trkpt lat="44.056008087148776" lon="10.449410608442578"><ele>172.0</ele><time>2026-05-02T13:58:14.999Z</time></trkpt><trkpt lat="44.055910130234" lon="10.44954054147487"><ele>172.0</ele><time>2026-05-02T13:58:15.999Z</time></trkpt><trkpt lat="44.055810121601596" lon="10.4496692691283"><ele>172.0</ele><time>2026-05-02T13:58:16.999Z</time></trkpt><trkpt lat="44.055711072589425" lon="10.44980039877452"><ele>172.0</ele><time>2026-05-02T13:58:17.999Z</time></trkpt><trkpt lat="44.055617485901465" lon="10.449920373728677"><ele>171.5</ele><time>2026-05-02T13:58:18.999Z</time></trkpt><trkpt lat="44.055527667608835" lon="10.450030887272906"><ele>171.0</ele><time>2026-05-02T13:58:19.999Z</time></trkpt><trkpt lat="44.055434305630996" lon="10.450136702388566"><ele>170.5</ele><time>2026-05-02T13:58:20.999Z</time></trkpt><trkpt lat="44.05532120896364" lon="10.450253249493336"><ele>170.0</ele><time>2026-05-02T13:58:21.999Z</time></trkpt><trkpt lat="44.05519417412271" lon="10.450368236300191"><ele>169.0</ele><time>2026-05-02T13:58:22.999Z</time></trkpt><trkpt lat="44.05504327610511" lon="10.450492401937206"><ele>168.0</ele><time>2026-05-02T13:58:23.999Z</time></trkpt><trkpt lat="44.05487825222653" lon="10.450620284080372"><ele>167.0</ele><time>2026-05-02T13:58:24.999Z</time></trkpt><trkpt lat="44.054691841132374" lon="10.450741428921852"><ele>166.33333333333331</ele><time>2026-05-02T13:58:25.999Z</time></trkpt><trkpt lat="44.05449129996888" lon="10.45085093304208"><ele>165.66666666666666</ele><time>2026-05-02T13:58:26.999Z</time></trkpt><trkpt lat="44.054274080295905" lon="10.45094433236114"><ele>165.0</ele><time>2026-05-02T13:58:27.999Z</time></trkpt><trkpt lat="44.05404975453742" lon="10.451025406228764"><ele>165.0</ele><time>2026-05-02T13:58:28.999Z</time></trkpt><trkpt lat="44.05382314099642" lon="10.451084651891888"><ele>165.0</ele><time>2026-05-02T13:58:29.999Z</time></trkpt><trkpt lat="44.053603590209036" lon="10.451137557052741"><ele>165.0</ele><time>2026-05-02T13:58:30.999Z</time></trkpt><trkpt lat="44.0533897632157" lon="10.451186499027612"><ele>165.0</ele><time>2026-05-02T13:58:31.999Z</time></trkpt><trkpt lat="44.05318446339069" lon="10.451235608601879"><ele>165.0</ele><time>2026-05-02T13:58:32.999Z</time></trkpt><trkpt lat="44.05298954464079" lon="10.451287297438226"><ele>164.66666666666666</ele><time>2026-05-02T13:58:33.999Z</time></trkpt><trkpt lat="44.0528010062703" lon="10.451341646201394"><ele>164.33333333333331</ele><time>2026-05-02T13:58:34.999Z</time></trkpt><trkpt lat="44.05262144782019" lon="10.451405029827129"><ele>164.0</ele><time>2026-05-02T13:58:35.999Z</time></trkpt><trkpt lat="44.05246056899982" lon="10.451478846277068"><ele>164.66666666666666</ele><time>2026-05-02T13:58:36.999Z</time></trkpt><trkpt lat="44.052305820612055" lon="10.451566129730079"><ele>165.33333333333334</ele><time>2026-05-02T13:58:37.999Z</time></trkpt><trkpt lat="44.05215505555014" lon="10.45166297437859"><ele>166.0</ele><time>2026-05-02T13:58:38.999Z</time></trkpt><trkpt lat="44.05201896275944" lon="10.451777534593024"><ele>166.0</ele><time>2026-05-02T13:58:39.999Z</time></trkpt><trkpt lat="44.051869838142395" lon="10.451891716250543"><ele>166.0</ele><time>2026-05-02T13:58:40.999Z</time></trkpt><trkpt lat="44.051723247138526" lon="10.452057151553793"><ele>166.0</ele><time>2026-05-02T13:58:41.999Z</time></trkpt><trkpt lat="44.051567550669034" lon="10.452274522245526"><ele>167.0</ele><time>2026-05-02T13:58:42.999Z</time></trkpt><trkpt lat="44.051412310728466" lon="10.452527009531506"><ele>168.0</ele><time>2026-05-02T13:58:43.999Z</time></trkpt><trkpt lat="44.051279781274424" lon="10.452832019403958"><ele>166.0</ele><time>2026-05-02T13:58:44.999Z</time></trkpt><trkpt lat="44.05113993647826" lon="10.453135046943174"><ele>164.0</ele><time>2026-05-02T13:58:45.999Z</time></trkpt><trkpt lat="44.051010077524914" lon="10.453445501616079"><ele>164.0</ele><time>2026-05-02T13:58:46.999Z</time></trkpt><trkpt lat="44.050896173111596" lon="10.453725813458592"><ele>164.0</ele><time>2026-05-02T13:58:47.999Z</time></trkpt><trkpt lat="44.05077731411918" lon="10.453995386471036"><ele>166.66666666666666</ele><time>2026-05-02T13:58:48.999Z</time></trkpt><trkpt lat="44.050624642673746" lon="10.454233862850524"><ele>169.33333333333334</ele><time>2026-05-02T13:58:49.999Z</time></trkpt><trkpt lat="44.050488143480365" lon="10.454462966267775"><ele>172.0</ele><time>2026-05-02T13:58:50.999Z</time></trkpt><trkpt lat="44.050349016854774" lon="10.45465372159843"><ele>172.0</ele><time>2026-05-02T13:58:51.999Z</time></trkpt><trkpt lat="44.05020941550377" lon="10.454818153075644"><ele>172.0</ele><time>2026-05-02T13:58:52.999Z</time></trkpt><trkpt lat="44.050067904006895" lon="10.454946881434909"><ele>172.0</ele><time>2026-05-02T13:58:53.999Z</time></trkpt><trkpt lat="44.04992692062927" lon="10.455059931829156"><ele>176.0</ele><time>2026-05-02T13:58:54.999Z</time></trkpt><trkpt lat="44.04978772320566" lon="10.455153809213906"><ele>180.0</ele><time>2026-05-02T13:58:55.999Z</time></trkpt><trkpt lat="44.049646148576436" lon="10.455238052431929"><ele>184.0</ele><time>2026-05-02T13:58:56.999Z</time></trkpt><trkpt lat="44.049498743076846" lon="10.455363751767274"><ele>184.66666666666669</ele><time>2026-05-02T13:58:57.999Z</time></trkpt><trkpt lat="44.04930777656681" lon="10.455472525078743"><ele>185.33333333333334</ele><time>2026-05-02T13:58:58.999Z</time></trkpt><trkpt lat="44.04909519699597" lon="10.455586170581906"><ele>186.0</ele><time>2026-05-02T13:58:59.999Z</time></trkpt><trkpt lat="44.04889562774832" lon="10.455698908958873"><ele>186.0</ele><time>2026-05-02T13:59:01Z</time></trkpt><trkpt lat="44.04869661507408" lon="10.455807703827523"><ele>186.0</ele><time>2026-05-02T13:59:02Z</time></trkpt><trkpt lat="44.04851003897457" lon="10.455927577932965"><ele>186.0</ele><time>2026-05-02T13:59:03Z</time></trkpt><trkpt lat="44.04833822783654" lon="10.45608918627897"><ele>187.66666666666666</ele><time>2026-05-02T13:59:04Z</time></trkpt><trkpt lat="44.04817384741628" lon="10.45629078110362"><ele>189.33333333333331</ele><time>2026-05-02T13:59:05Z</time></trkpt><trkpt lat="44.048016358598964" lon="10.456511903758106"><ele>191.0</ele><time>2026-05-02T13:59:06Z</time></trkpt><trkpt lat="44.04786076032302" lon="10.456733244200198"><ele>191.0</ele><time>2026-05-02T13:59:07Z</time></trkpt><trkpt lat="44.04770499042507" lon="10.456934281910407"><ele>191.0</ele><time>2026-05-02T13:59:08Z</time></trkpt><trkpt lat="44.047565456678434" lon="10.457133122495517"><ele>191.0</ele><time>2026-05-02T13:59:09Z</time></trkpt><trkpt lat="44.04744107490396" lon="10.457342619118732"><ele>195.66666666666666</ele><time>2026-05-02T13:59:10Z</time></trkpt><trkpt lat="44.0473139924984" lon="10.457516415210431"><ele>200.33333333333331</ele><time>2026-05-02T13:59:11Z</time></trkpt><trkpt lat="44.0472039132495" lon="10.457649551438514"><ele>205.0</ele><time>2026-05-02T13:59:12Z</time></trkpt><trkpt lat="44.047112605772234" lon="10.457780096489786"><ele>205.0</ele><time>2026-05-02T13:59:13Z</time></trkpt><trkpt lat="44.04703258073794" lon="10.457894511599536"><ele>205.0</ele><time>2026-05-02T13:59:14Z</time></trkpt><trkpt lat="44.04694819932442" lon="10.458015158700794"><ele>205.0</ele><time>2026-05-02T13:59:15Z</time></trkpt><trkpt lat="44.04669242555718" lon="10.458414965646114"><ele>205.0</ele><time>2026-05-02T13:59:16Z</time></trkpt><trkpt lat="44.04660989989682" lon="10.458650504493205"><ele>205.0</ele><time>2026-05-02T13:59:17Z</time></trkpt><trkpt lat="44.0465361146964" lon="10.458948865118108"><ele>205.0</ele><time>2026-05-02T13:59:18Z</time></trkpt><trkpt lat="44.04645716403744" lon="10.459284418858788"><ele>202.5</ele><time>2026-05-02T13:59:19Z</time></trkpt><trkpt lat="44.04635879790526" lon="10.459630645237509"><ele>200.0</ele><time>2026-05-02T13:59:20Z</time></trkpt><trkpt lat="44.04625246339068" lon="10.459955290154994"><ele>200.0</ele><time>2026-05-02T13:59:21Z</time></trkpt><trkpt lat="44.04615435327863" lon="10.460265720655253"><ele>200.0</ele><time>2026-05-02T13:59:22Z</time></trkpt><trkpt lat="44.04605267873259" lon="10.460552080487235"><ele>200.66666666666669</ele><time>2026-05-02T13:59:23Z</time></trkpt><trkpt lat="44.0459435482324" lon="10.460817701559176"><ele>201.33333333333331</ele><time>2026-05-02T13:59:24Z</time></trkpt><trkpt lat="44.04581156157593" lon="10.461055148121993"><ele>202.0</ele><time>2026-05-02T13:59:25Z</time></trkpt><trkpt lat="44.045654187636465" lon="10.46129221777999"><ele>202.0</ele><time>2026-05-02T13:59:26Z</time></trkpt><trkpt lat="44.04548105774414" lon="10.461517831270653"><ele>202.0</ele><time>2026-05-02T13:59:27Z</time></trkpt><trkpt lat="44.04530615669927" lon="10.461753393478554"><ele>202.0</ele><time>2026-05-02T13:59:28Z</time></trkpt><trkpt lat="44.04513395842416" lon="10.461992121043759"><ele>202.0</ele><time>2026-05-02T13:59:29Z</time></trkpt><trkpt lat="44.04495420094969" lon="10.462221399018812"><ele>208.0</ele><time>2026-05-02T13:59:30Z</time></trkpt><trkpt lat="44.04479243071322" lon="10.462446797712634"><ele>214.0</ele><time>2026-05-02T13:59:31Z</time></trkpt><trkpt lat="44.04462881773857" lon="10.462676074863449"><ele>214.0</ele><time>2026-05-02T13:59:32Z</time></trkpt><trkpt lat="44.044464633507374" lon="10.462904227082868"><ele>214.0</ele><time>2026-05-02T13:59:33Z</time></trkpt><trkpt lat="44.0443058048342" lon="10.463122787373424"><ele>216.33333333333331</ele><time>2026-05-02T13:59:34Z</time></trkpt><trkpt lat="44.04415239263219" lon="10.463337778987372"><ele>218.66666666666669</ele><time>2026-05-02T13:59:35Z</time></trkpt><trkpt lat="44.04399641979592" lon="10.463549321471152"><ele>221.0</ele><time>2026-05-02T13:59:36Z</time></trkpt><trkpt lat="44.04384916982248" lon="10.463764537398632"><ele>209.66666666666669</ele><time>2026-05-02T13:59:37Z</time></trkpt><trkpt lat="44.04371185725555" lon="10.46397093098797"><ele>198.33333333333334</ele><time>2026-05-02T13:59:38Z</time></trkpt><trkpt lat="44.04358488160615" lon="10.46416026730907"><ele>187.0</ele><time>2026-05-02T13:59:39Z</time></trkpt><trkpt lat="44.04345502711046" lon="10.46435117082374"><ele>187.0</ele><time>2026-05-02T13:59:40Z</time></trkpt><trkpt lat="44.04332166054554" lon="10.464540408591555"><ele>187.0</ele><time>2026-05-02T13:59:41Z</time></trkpt><trkpt lat="44.04319012196969" lon="10.464729611508504"><ele>187.0</ele><time>2026-05-02T13:59:42Z</time></trkpt><trkpt lat="44.04307056428672" lon="10.464910849159352"><ele>187.25</ele><time>2026-05-02T13:59:43Z</time></trkpt><trkpt lat="44.04295736921337" lon="10.465079596407934"><ele>187.5</ele><time>2026-05-02T13:59:44Z</time></trkpt><trkpt lat="44.04285033409007" lon="10.465219873090325"><ele>187.75</ele><time>2026-05-02T13:59:45Z</time></trkpt><trkpt lat="44.04276911006468" lon="10.465340258910654"><ele>188.0</ele><time>2026-05-02T13:59:46Z</time></trkpt><trkpt lat="44.04269981357609" lon="10.465449921610464"><ele>185.8</ele><time>2026-05-02T13:59:47Z</time></trkpt><trkpt lat="44.04263446567245" lon="10.465553789803105"><ele>183.60000000000002</ele><time>2026-05-02T13:59:48Z</time></trkpt><trkpt lat="44.0425645680727" lon="10.46566009449691"><ele>181.39999999999998</ele><time>2026-05-02T13:59:49Z</time></trkpt><trkpt lat="44.042491873960984" lon="10.465774800670289"><ele>179.2</ele><time>2026-05-02T13:59:50Z</time></trkpt><trkpt lat="44.042405867033615" lon="10.465891814506719"><ele>177.0</ele><time>2026-05-02T13:59:51Z</time></trkpt><trkpt lat="44.04233825727947" lon="10.466030184567478"><ele>177.0</ele><time>2026-05-02T13:59:52Z</time></trkpt><trkpt lat="44.042271554908496" lon="10.466172736310684"><ele>177.0</ele><time>2026-05-02T13:59:53Z</time></trkpt><trkpt lat="44.04220433075978" lon="10.466326533175586"><ele>177.0</ele><time>2026-05-02T13:59:54Z</time></trkpt><trkpt lat="44.04213653365424" lon="10.466498809477416"><ele>177.0</ele><time>2026-05-02T13:59:55Z</time></trkpt><trkpt lat="44.042086167284275" lon="10.466685598249722"><ele>175.33333333333334</ele><time>2026-05-02T13:59:56Z</time></trkpt><trkpt lat="44.042007649840606" lon="10.466867473907342"><ele>173.66666666666669</ele><time>2026-05-02T13:59:57Z</time></trkpt><trkpt lat="44.04194184987882" lon="10.467080596839125"><ele>172.0</ele><time>2026-05-02T13:59:58Z</time></trkpt><trkpt lat="44.0418776100224" lon="10.467310003123957"><ele>168.33333333333334</ele><time>2026-05-02T13:59:59Z</time></trkpt><trkpt lat="44.04182168043787" lon="10.467564437475152"><ele>164.66666666666666</ele><time>2026-05-02T14:00:00Z</time></trkpt><trkpt lat="44.04177494811054" lon="10.46782228948809"><ele>161.0</ele><time>2026-05-02T14:00:01Z</time></trkpt><trkpt lat="44.041739366929654" lon="10.46807150068301"><ele>159.33333333333331</ele><time>2026-05-02T14:00:01.999Z</time></trkpt><trkpt lat="44.04171426718444" lon="10.468310620917975"><ele>157.66666666666666</ele><time>2026-05-02T14:00:02.999Z</time></trkpt><trkpt lat="44.04169236104705" lon="10.468561942788536"><ele>156.0</ele><time>2026-05-02T14:00:03.999Z</time></trkpt><trkpt lat="44.04167589009596" lon="10.468809758846866"><ele>155.33333333333334</ele><time>2026-05-02T14:00:04.999Z</time></trkpt><trkpt lat="44.04165853073459" lon="10.469070941515202"><ele>154.66666666666669</ele><time>2026-05-02T14:00:05.999Z</time></trkpt><trkpt lat="44.04164101419526" lon="10.469334489099516"><ele>154.0</ele><time>2026-05-02T14:00:06.999Z</time></trkpt><trkpt lat="44.041622613801266" lon="10.469611334839067"><ele>157.33333333333334</ele><time>2026-05-02T14:00:07.999Z</time></trkpt><trkpt lat="44.04159844200123" lon="10.469880586598743"><ele>160.66666666666666</ele><time>2026-05-02T14:00:08.999Z</time></trkpt><trkpt lat="44.04156536061618" lon="10.470161751577734"><ele>164.0</ele><time>2026-05-02T14:00:09.999Z</time></trkpt><trkpt lat="44.04152671513513" lon="10.470427528633238"><ele>163.33333333333331</ele><time>2026-05-02T14:00:10.999Z</time></trkpt><trkpt lat="44.04147763053668" lon="10.47067649487796"><ele>162.66666666666666</ele><time>2026-05-02T14:00:11.999Z</time></trkpt><trkpt lat="44.04142628186703" lon="10.470909199422872"><ele>162.0</ele><time>2026-05-02T14:00:12.999Z</time></trkpt><trkpt lat="44.041392482933084" lon="10.471140532664906"><ele>160.0</ele><time>2026-05-02T14:00:13.999Z</time></trkpt><trkpt lat="44.04133084217318" lon="10.47135502168376"><ele>158.0</ele><time>2026-05-02T14:00:14.999Z</time></trkpt><trkpt lat="44.04126325441675" lon="10.471569588807656"><ele>156.0</ele><time>2026-05-02T14:00:15.999Z</time></trkpt><trkpt lat="44.04118059084361" lon="10.471770078690898"><ele>156.0</ele><time>2026-05-02T14:00:16.999Z</time></trkpt><trkpt lat="44.041085494735434" lon="10.471910965423108"><ele>156.0</ele><time>2026-05-02T14:00:17.999Z</time></trkpt><trkpt lat="44.04101919926217" lon="10.472048765700698"><ele>156.0</ele><time>2026-05-02T14:00:18.999Z</time></trkpt><trkpt lat="44.040952136521895" lon="10.472179929013652"><ele>156.0</ele><time>2026-05-02T14:00:19.999Z</time></trkpt><trkpt lat="44.040874672113155" lon="10.472323665938859"><ele>156.25</ele><time>2026-05-02T14:00:20.999Z</time></trkpt><trkpt lat="44.04080104513394" lon="10.472488815786129"><ele>156.5</ele><time>2026-05-02T14:00:21.999Z</time></trkpt><trkpt lat="44.04068940483594" lon="10.472629419908847"><ele>156.75</ele><time>2026-05-02T14:00:22.999Z</time></trkpt><trkpt lat="44.040583157867914" lon="10.472782739370205"><ele>157.0</ele><time>2026-05-02T14:00:23.999Z</time></trkpt><trkpt lat="44.04045614327401" lon="10.472952636881681"><ele>156.0</ele><time>2026-05-02T14:00:24.999Z</time></trkpt><trkpt lat="44.04031928541081" lon="10.473151003573788"><ele>155.0</ele><time>2026-05-02T14:00:25.999Z</time></trkpt><trkpt lat="44.04015555719565" lon="10.473320202825068"><ele>154.0</ele><time>2026-05-02T14:00:26.999Z</time></trkpt><trkpt lat="44.03998514334658" lon="10.4734742759162"><ele>154.66666666666669</ele><time>2026-05-02T14:00:27.999Z</time></trkpt><trkpt lat="44.03982109292575" lon="10.473630952517524"><ele>155.33333333333334</ele><time>2026-05-02T14:00:28.999Z</time></trkpt><trkpt lat="44.03967368234865" lon="10.473775313887367"><ele>156.0</ele><time>2026-05-02T14:00:29.999Z</time></trkpt><trkpt lat="44.03953772697889" lon="10.473912444358307"><ele>154.66666666666666</ele><time>2026-05-02T14:00:30.999Z</time></trkpt><trkpt lat="44.03938750425311" lon="10.474061197963927"><ele>153.33333333333331</ele><time>2026-05-02T14:00:31.999Z</time></trkpt><trkpt lat="44.03921641469156" lon="10.474230228180291"><ele>152.0</ele><time>2026-05-02T14:00:32.999Z</time></trkpt><trkpt lat="44.03903888069019" lon="10.474406028918718"><ele>154.0</ele><time>2026-05-02T14:00:33.999Z</time></trkpt><trkpt lat="44.03885279131846" lon="10.474592793112162"><ele>156.0</ele><time>2026-05-02T14:00:34.999Z</time></trkpt><trkpt lat="44.03865552841023" lon="10.474791390240334"><ele>156.0</ele><time>2026-05-02T14:00:35.999Z</time></trkpt><trkpt lat="44.03846107907439" lon="10.474993294352958"><ele>156.0</ele><time>2026-05-02T14:00:36.999Z</time></trkpt><trkpt lat="44.038277951645966" lon="10.47519542375584"><ele>167.5</ele><time>2026-05-02T14:00:37.999Z</time></trkpt><trkpt lat="44.03810858663687" lon="10.475411314950973"><ele>179.0</ele><time>2026-05-02T14:00:38.999Z</time></trkpt><trkpt lat="44.037949061812895" lon="10.475646799406602"><ele>179.0</ele><time>2026-05-02T14:00:39.999Z</time></trkpt><trkpt lat="44.037795379549294" lon="10.475897229465629"><ele>179.0</ele><time>2026-05-02T14:00:40.999Z</time></trkpt><trkpt lat="44.037649301083434" lon="10.476174470592618"><ele>172.0</ele><time>2026-05-02T14:00:41.999Z</time></trkpt><trkpt lat="44.037509507360134" lon="10.47646353691605"><ele>165.0</ele><time>2026-05-02T14:00:42.999Z</time></trkpt><trkpt lat="44.037385427172694" lon="10.476764931286594"><ele>172.0</ele><time>2026-05-02T14:00:43.999Z</time></trkpt><trkpt lat="44.03728290099591" lon="10.477070040300084"><ele>179.0</ele><time>2026-05-02T14:00:44.999Z</time></trkpt><trkpt lat="44.0371749533319" lon="10.477366595101723"><ele>179.0</ele><time>2026-05-02T14:00:45.999Z</time></trkpt><trkpt lat="44.037076643269344" lon="10.477669099419009"><ele>179.0</ele><time>2026-05-02T14:00:46.999Z</time></trkpt><trkpt lat="44.03697788608489" lon="10.477965626968306"><ele>173.0</ele><time>2026-05-02T14:00:47.999Z</time></trkpt><trkpt lat="44.0368758946216" lon="10.47826321823368"><ele>167.0</ele><time>2026-05-02T14:00:48.999Z</time></trkpt><trkpt lat="44.03677631634154" lon="10.478553690564103"><ele>163.0</ele><time>2026-05-02T14:00:49.999Z</time></trkpt><trkpt lat="44.03667195056002" lon="10.478849472874266"><ele>159.0</ele><time>2026-05-02T14:00:50.999Z</time></trkpt><trkpt lat="44.03655264782499" lon="10.479158828776185"><ele>167.0</ele><time>2026-05-02T14:00:51.999Z</time></trkpt><trkpt lat="44.036429765420785" lon="10.479512921256635"><ele>175.0</ele><time>2026-05-02T14:00:52.999Z</time></trkpt><trkpt lat="44.03630039110103" lon="10.479878555771432"><ele>175.0</ele><time>2026-05-02T14:00:53.999Z</time></trkpt><trkpt lat="44.03619995112101" lon="10.480250700719711"><ele>175.0</ele><time>2026-05-02T14:00:54.999Z</time></trkpt><trkpt lat="44.03609223744789" lon="10.480592533710203"><ele>171.0</ele><time>2026-05-02T14:00:55.999Z</time></trkpt><trkpt lat="44.03602124485644" lon="10.480943318610144"><ele>167.0</ele><time>2026-05-02T14:00:56.999Z</time></trkpt><trkpt lat="44.035966732639565" lon="10.481294636995147"><ele>164.5</ele><time>2026-05-02T14:00:57.999Z</time></trkpt><trkpt lat="44.03592109657315" lon="10.481650984332067"><ele>162.0</ele><time>2026-05-02T14:00:58.999Z</time></trkpt><trkpt lat="44.03586913674965" lon="10.481997154449589"><ele>162.5</ele><time>2026-05-02T14:00:59.999Z</time></trkpt><trkpt lat="44.03582921004152" lon="10.482345283697448"><ele>163.0</ele><time>2026-05-02T14:01:00.999Z</time></trkpt><trkpt lat="44.03579077384089" lon="10.482680416301209"><ele>171.5</ele><time>2026-05-02T14:01:01.999Z</time></trkpt><trkpt lat="44.035752690549955" lon="10.483012471816052"><ele>180.0</ele><time>2026-05-02T14:01:02.999Z</time></trkpt><trkpt lat="44.03572611020326" lon="10.483347816252614"><ele>180.0</ele><time>2026-05-02T14:01:03.999Z</time></trkpt><trkpt lat="44.035685756727936" lon="10.483679633881048"><ele>180.0</ele><time>2026-05-02T14:01:04.999Z</time></trkpt><trkpt lat="44.035646147100124" lon="10.484006708478947"><ele>176.5</ele><time>2026-05-02T14:01:05.999Z</time></trkpt><trkpt lat="44.03560756760177" lon="10.484343551778146"><ele>173.0</ele><time>2026-05-02T14:01:07Z</time></trkpt><trkpt lat="44.0355674065177" lon="10.484684966232363"><ele>169.5</ele><time>2026-05-02T14:01:08Z</time></trkpt><trkpt lat="44.03552200174703" lon="10.48502505266537"><ele>166.0</ele><time>2026-05-02T14:01:09Z</time></trkpt><trkpt lat="44.03547203130846" lon="10.485362295641588"><ele>164.5</ele><time>2026-05-02T14:01:10Z</time></trkpt><trkpt lat="44.035410548032665" lon="10.485691147977452"><ele>163.0</ele><time>2026-05-02T14:01:11Z</time></trkpt><trkpt lat="44.03532818399695" lon="10.486009677613117"><ele>158.5</ele><time>2026-05-02T14:01:12Z</time></trkpt><trkpt lat="44.035230032977985" lon="10.486324221775595"><ele>154.0</ele><time>2026-05-02T14:01:13Z</time></trkpt><trkpt lat="44.035113462084176" lon="10.486625804547582"><ele>154.0</ele><time>2026-05-02T14:01:14Z</time></trkpt><trkpt lat="44.03498366425862" lon="10.486914311843643"><ele>154.0</ele><time>2026-05-02T14:01:15Z</time></trkpt><trkpt lat="44.034830430017415" lon="10.48719051835117"><ele>154.0</ele><time>2026-05-02T14:01:16Z</time></trkpt><trkpt lat="44.03466616626031" lon="10.487456694546836"><ele>154.0</ele><time>2026-05-02T14:01:17Z</time></trkpt><trkpt lat="44.03448774897278" lon="10.487704304481632"><ele>147.5</ele><time>2026-05-02T14:01:18Z</time></trkpt><trkpt lat="44.03428936475194" lon="10.487927730960859"><ele>141.0</ele><time>2026-05-02T14:01:19Z</time></trkpt><trkpt lat="44.034082733740995" lon="10.48812687469872"><ele>141.0</ele><time>2026-05-02T14:01:20Z</time></trkpt><trkpt lat="44.03386643893008" lon="10.488316391842305"><ele>141.0</ele><time>2026-05-02T14:01:21Z</time></trkpt><trkpt lat="44.0336406941039" lon="10.488502459405911"><ele>141.0</ele><time>2026-05-02T14:01:22Z</time></trkpt><trkpt lat="44.03341830669345" lon="10.488686332798096"><ele>141.0</ele><time>2026-05-02T14:01:23Z</time></trkpt><trkpt lat="44.03320288752782" lon="10.488869365316432"><ele>136.5</ele><time>2026-05-02T14:01:24Z</time></trkpt><trkpt lat="44.03299623067785" lon="10.489045265993244"><ele>132.0</ele><time>2026-05-02T14:01:25Z</time></trkpt><trkpt lat="44.03279912327275" lon="10.48921094248638"><ele>132.0</ele><time>2026-05-02T14:01:26Z</time></trkpt><trkpt lat="44.03260887094147" lon="10.489371898111763"><ele>132.0</ele><time>2026-05-02T14:01:27Z</time></trkpt><trkpt lat="44.032419216434924" lon="10.489541532243832"><ele>132.0</ele><time>2026-05-02T14:01:28Z</time></trkpt><trkpt lat="44.03223268710738" lon="10.489723325404205"><ele>133.0</ele><time>2026-05-02T14:01:29Z</time></trkpt><trkpt lat="44.032055842494344" lon="10.489915328482269"><ele>134.0</ele><time>2026-05-02T14:01:30Z</time></trkpt><trkpt lat="44.03188180735614" lon="10.490129895641656"><ele>134.0</ele><time>2026-05-02T14:01:31Z</time></trkpt><trkpt lat="44.03172001401698" lon="10.490363932283119"><ele>134.0</ele><time>2026-05-02T14:01:32Z</time></trkpt><trkpt lat="44.03156329057124" lon="10.49061189303458"><ele>139.0</ele><time>2026-05-02T14:01:33Z</time></trkpt><trkpt lat="44.0314168412517" lon="10.49088052092258"><ele>144.0</ele><time>2026-05-02T14:01:34Z</time></trkpt><trkpt lat="44.03127729146672" lon="10.49116153405668"><ele>140.0</ele><time>2026-05-02T14:01:35Z</time></trkpt><trkpt lat="44.03114331542633" lon="10.491459388524703"><ele>136.0</ele><time>2026-05-02T14:01:36Z</time></trkpt><trkpt lat="44.03101164935306" lon="10.491742530694737"><ele>136.0</ele><time>2026-05-02T14:01:37Z</time></trkpt><trkpt lat="44.03087855811506" lon="10.492024344187215"><ele>136.0</ele><time>2026-05-02T14:01:38Z</time></trkpt><trkpt lat="44.030740647795874" lon="10.492312590784719"><ele>139.66666666666669</ele><time>2026-05-02T14:01:39Z</time></trkpt><trkpt lat="44.030623960298804" lon="10.492569940667376"><ele>143.33333333333334</ele><time>2026-05-02T14:01:40Z</time></trkpt><trkpt lat="44.030502365283056" lon="10.492828780958396"><ele>147.0</ele><time>2026-05-02T14:01:41Z</time></trkpt><trkpt lat="44.03038094421354" lon="10.49309392301045"><ele>147.0</ele><time>2026-05-02T14:01:42Z</time></trkpt><trkpt lat="44.03024883002361" lon="10.493372054830088"><ele>147.0</ele><time>2026-05-02T14:01:43Z</time></trkpt><trkpt lat="44.03011990809183" lon="10.493665897178508"><ele>141.0</ele><time>2026-05-02T14:01:44Z</time></trkpt><trkpt lat="44.029986112922586" lon="10.493965894830378"><ele>135.0</ele><time>2026-05-02T14:01:45Z</time></trkpt><trkpt lat="44.02984878805485" lon="10.494263935031723"><ele>145.5</ele><time>2026-05-02T14:01:46Z</time></trkpt><trkpt lat="44.02971050898392" lon="10.494557294343416"><ele>156.0</ele><time>2026-05-02T14:01:47Z</time></trkpt><trkpt lat="44.02957682258883" lon="10.494849945585855"><ele>156.0</ele><time>2026-05-02T14:01:48Z</time></trkpt><trkpt lat="44.029449466983856" lon="10.495124859613675"><ele>156.0</ele><time>2026-05-02T14:01:49Z</time></trkpt><trkpt lat="44.02933092044682" lon="10.495386653415396"><ele>161.66666666666666</ele><time>2026-05-02T14:01:50Z</time></trkpt><trkpt lat="44.029208569329654" lon="10.495643472054809"><ele>167.33333333333331</ele><time>2026-05-02T14:01:51Z</time></trkpt><trkpt lat="44.02908272029295" lon="10.495886080279641"><ele>173.0</ele><time>2026-05-02T14:01:52Z</time></trkpt><trkpt lat="44.0289344811394" lon="10.496108176301018"><ele>162.66666666666666</ele><time>2026-05-02T14:01:53Z</time></trkpt><trkpt lat="44.02876524266901" lon="10.496297871756928"><ele>152.33333333333334</ele><time>2026-05-02T14:01:54Z</time></trkpt><trkpt lat="44.02858219473911" lon="10.496456560062784"><ele>142.0</ele><time>2026-05-02T14:01:55Z</time></trkpt><trkpt lat="44.02838831452674" lon="10.49661376077606"><ele>148.33333333333334</ele><time>2026-05-02T14:01:56Z</time></trkpt><trkpt lat="44.02819728643737" lon="10.496777578093065"><ele>154.66666666666666</ele><time>2026-05-02T14:01:57Z</time></trkpt><trkpt lat="44.02801823365642" lon="10.496945971081308"><ele>161.0</ele><time>2026-05-02T14:01:58Z</time></trkpt><trkpt lat="44.02785165676107" lon="10.49712646665894"><ele>161.0</ele><time>2026-05-02T14:01:59Z</time></trkpt><trkpt lat="44.027711292257266" lon="10.497340241795142"><ele>161.0</ele><time>2026-05-02T14:02:00Z</time></trkpt><trkpt lat="44.027595607946076" lon="10.497583454250021"><ele>161.0</ele><time>2026-05-02T14:02:01Z</time></trkpt><trkpt lat="44.02748061031389" lon="10.49785142086265"><ele>169.5</ele><time>2026-05-02T14:02:02Z</time></trkpt><trkpt lat="44.02734656815937" lon="10.498115613695754"><ele>178.0</ele><time>2026-05-02T14:02:03Z</time></trkpt><trkpt lat="44.02722845959476" lon="10.498378434197187"><ele>178.0</ele><time>2026-05-02T14:02:04Z</time></trkpt><trkpt lat="44.0270940668734" lon="10.498634022799571"><ele>178.0</ele><time>2026-05-02T14:02:05Z</time></trkpt><trkpt lat="44.02694427401489" lon="10.498876600240052"><ele>164.0</ele><time>2026-05-02T14:02:06Z</time></trkpt><trkpt lat="44.026795249362976" lon="10.499119457602223"><ele>150.0</ele><time>2026-05-02T14:02:07Z</time></trkpt><trkpt lat="44.0266586976584" lon="10.499378546428089"><ele>161.5</ele><time>2026-05-02T14:02:08Z</time></trkpt><trkpt lat="44.02653123409118" lon="10.499662376348605"><ele>173.0</ele><time>2026-05-02T14:02:09Z</time></trkpt><trkpt lat="44.026415282474666" lon="10.499954499418825"><ele>173.0</ele><time>2026-05-02T14:02:09.999Z</time></trkpt><trkpt lat="44.026295616721605" lon="10.500253772431394"><ele>173.0</ele><time>2026-05-02T14:02:10.999Z</time></trkpt><trkpt lat="44.026173497260004" lon="10.500562180938083"><ele>162.5</ele><time>2026-05-02T14:02:11.999Z</time></trkpt><trkpt lat="44.0260478181219" lon="10.50087891804636"><ele>152.0</ele><time>2026-05-02T14:02:12.999Z</time></trkpt><trkpt lat="44.02592358145427" lon="10.501203584615636"><ele>160.5</ele><time>2026-05-02T14:02:13.999Z</time></trkpt><trkpt lat="44.02579760576612" lon="10.501512454166386"><ele>169.0</ele><time>2026-05-02T14:02:14.999Z</time></trkpt><trkpt lat="44.025669888770445" lon="10.501822134154036"><ele>158.5</ele><time>2026-05-02T14:02:15.999Z</time></trkpt><trkpt lat="44.02553998967861" lon="10.502129387950621"><ele>148.0</ele><time>2026-05-02T14:02:16.999Z</time></trkpt><trkpt lat="44.025420341838775" lon="10.502428847983222"><ele>148.0</ele><time>2026-05-02T14:02:17.999Z</time></trkpt><trkpt lat="44.02530611969837" lon="10.502707392531843"><ele>148.0</ele><time>2026-05-02T14:02:18.999Z</time></trkpt><trkpt lat="44.02519745860127" lon="10.502973450296892"><ele>142.5</ele><time>2026-05-02T14:02:19.999Z</time></trkpt><trkpt lat="44.02508524519574" lon="10.503245988618437"><ele>137.0</ele><time>2026-05-02T14:02:20.999Z</time></trkpt><trkpt lat="44.024968506571035" lon="10.503519736224732"><ele>140.0</ele><time>2026-05-02T14:02:21.999Z</time></trkpt><trkpt lat="44.02485764571808" lon="10.503785110062196"><ele>143.0</ele><time>2026-05-02T14:02:22.999Z</time></trkpt><trkpt lat="44.024753215070064" lon="10.504049142636136"><ele>146.0</ele><time>2026-05-02T14:02:23.999Z</time></trkpt><trkpt lat="44.02465591401899" lon="10.504299990033592"><ele>146.0</ele><time>2026-05-02T14:02:24.999Z</time></trkpt><trkpt lat="44.02456043474682" lon="10.504531196381778"><ele>146.0</ele><time>2026-05-02T14:02:25.999Z</time></trkpt><trkpt lat="44.02446407589445" lon="10.504763448850062"><ele>146.0</ele><time>2026-05-02T14:02:26.999Z</time></trkpt><trkpt lat="44.02437474035311" lon="10.504985311717196"><ele>148.33333333333331</ele><time>2026-05-02T14:02:27.999Z</time></trkpt><trkpt lat="44.02428182572845" lon="10.50521180121731"><ele>150.66666666666666</ele><time>2026-05-02T14:02:28.999Z</time></trkpt><trkpt lat="44.024188831441236" lon="10.5054383033831"><ele>153.0</ele><time>2026-05-02T14:02:29.999Z</time></trkpt><trkpt lat="44.02410276760388" lon="10.505647731997668"><ele>153.0</ele><time>2026-05-02T14:02:30.999Z</time></trkpt><trkpt lat="44.02401642747511" lon="10.505847760627951"><ele>153.0</ele><time>2026-05-02T14:02:31.999Z</time></trkpt><trkpt lat="44.02393327606462" lon="10.50604546478751"><ele>153.0</ele><time>2026-05-02T14:02:32.999Z</time></trkpt><trkpt lat="44.02384432295101" lon="10.50625044276885"><ele>151.0</ele><time>2026-05-02T14:02:33.999Z</time></trkpt><trkpt lat="44.023748944489526" lon="10.506476681001844"><ele>149.0</ele><time>2026-05-02T14:02:34.999Z</time></trkpt><trkpt lat="44.023646221753424" lon="10.506723956744944"><ele>147.0</ele><time>2026-05-02T14:02:35.999Z</time></trkpt><trkpt lat="44.02355032394074" lon="10.50697824688728"><ele>143.0</ele><time>2026-05-02T14:02:36.999Z</time></trkpt><trkpt lat="44.0234530807931" lon="10.507269517696368"><ele>139.0</ele><time>2026-05-02T14:02:37.999Z</time></trkpt><trkpt lat="44.0233688227766" lon="10.507559882952533"><ele>153.0</ele><time>2026-05-02T14:02:38.999Z</time></trkpt><trkpt lat="44.02327930497722" lon="10.50788232016899"><ele>167.0</ele><time>2026-05-02T14:02:39.999Z</time></trkpt><trkpt lat="44.0231892741677" lon="10.50820790369385"><ele>167.0</ele><time>2026-05-02T14:02:40.999Z</time></trkpt><trkpt lat="44.02308544264474" lon="10.508502683161659"><ele>167.0</ele><time>2026-05-02T14:02:41.999Z</time></trkpt><trkpt lat="44.02302120527223" lon="10.508780844434009"><ele>167.0</ele><time>2026-05-02T14:02:42.999Z</time></trkpt><trkpt lat="44.02294207051455" lon="10.509037695110203"><ele>164.33333333333331</ele><time>2026-05-02T14:02:43.999Z</time></trkpt><trkpt lat="44.02286251598804" lon="10.509277006499254"><ele>161.66666666666666</ele><time>2026-05-02T14:02:44.999Z</time></trkpt><trkpt lat="44.022775998014716" lon="10.50951335659904"><ele>159.0</ele><time>2026-05-02T14:02:45.999Z</time></trkpt><trkpt lat="44.02266012204478" lon="10.50973906176553"><ele>161.0</ele><time>2026-05-02T14:02:46.999Z</time></trkpt><trkpt lat="44.0225915403065" lon="10.509884467388053"><ele>163.0</ele><time>2026-05-02T14:02:47.999Z</time></trkpt><trkpt lat="44.02248704045791" lon="10.510078265856215"><ele>165.0</ele><time>2026-05-02T14:02:48.999Z</time></trkpt><trkpt lat="44.022372328452526" lon="10.510261491874168"><ele>160.0</ele><time>2026-05-02T14:02:49.999Z</time></trkpt><trkpt lat="44.02225540255568" lon="10.5104335362187"><ele>155.0</ele><time>2026-05-02T14:02:50.999Z</time></trkpt><trkpt lat="44.02213567759348" lon="10.510608935339459"><ele>150.0</ele><time>2026-05-02T14:02:51.999Z</time></trkpt><trkpt lat="44.02201753781143" lon="10.51078947100267"><ele>150.0</ele><time>2026-05-02T14:02:52.999Z</time></trkpt><trkpt lat="44.02191804151737" lon="10.510974829568871"><ele>150.0</ele><time>2026-05-02T14:02:53.999Z</time></trkpt><trkpt lat="44.02180322295565" lon="10.5111527879245"><ele>150.0</ele><time>2026-05-02T14:02:54.999Z</time></trkpt><trkpt lat="44.021697982043726" lon="10.511328212494558"><ele>158.66666666666666</ele><time>2026-05-02T14:02:55.999Z</time></trkpt><trkpt lat="44.02157857043901" lon="10.511492783777951"><ele>167.33333333333331</ele><time>2026-05-02T14:02:56.999Z</time></trkpt><trkpt lat="44.021469971538856" lon="10.511667657189435"><ele>176.0</ele><time>2026-05-02T14:02:57.999Z</time></trkpt><trkpt lat="44.02140256367008" lon="10.511883060197698"><ele>171.0</ele><time>2026-05-02T14:02:58.999Z</time></trkpt><trkpt lat="44.021308006385894" lon="10.512084404497514"><ele>166.0</ele><time>2026-05-02T14:02:59.999Z</time></trkpt><trkpt lat="44.02121482289494" lon="10.512279918686314"><ele>161.0</ele><time>2026-05-02T14:03:00.999Z</time></trkpt><trkpt lat="44.02113684296485" lon="10.51247246054682"><ele>161.0</ele><time>2026-05-02T14:03:01.999Z</time></trkpt><trkpt lat="44.02105334359737" lon="10.5126608916982"><ele>161.0</ele><time>2026-05-02T14:03:02.999Z</time></trkpt><trkpt lat="44.02097255677409" lon="10.512845885252956"><ele>161.0</ele><time>2026-05-02T14:03:03.999Z</time></trkpt><trkpt lat="44.02089123681079" lon="10.513045779865209"><ele>173.66666666666666</ele><time>2026-05-02T14:03:04.999Z</time></trkpt><trkpt lat="44.02080560340755" lon="10.513249694522537"><ele>186.33333333333331</ele><time>2026-05-02T14:03:05.999Z</time></trkpt><trkpt lat="44.02072288139714" lon="10.51344718241267"><ele>199.0</ele><time>2026-05-02T14:03:06.999Z</time></trkpt><trkpt lat="44.02063774953095" lon="10.513643216509141"><ele>187.0</ele><time>2026-05-02T14:03:07.999Z</time></trkpt><trkpt lat="44.020553437002114" lon="10.51383707675419"><ele>175.0</ele><time>2026-05-02T14:03:08.999Z</time></trkpt><trkpt lat="44.02046955838387" lon="10.514030614571297"><ele>163.0</ele><time>2026-05-02T14:03:09.999Z</time></trkpt><trkpt lat="44.02039222941921" lon="10.514228357768557"><ele>163.0</ele><time>2026-05-02T14:03:10.999Z</time></trkpt><trkpt lat="44.02030973050624" lon="10.514429515498517"><ele>163.0</ele><time>2026-05-02T14:03:11.999Z</time></trkpt><trkpt lat="44.02022942083371" lon="10.51462930606304"><ele>163.0</ele><time>2026-05-02T14:03:13Z</time></trkpt><trkpt lat="44.020140442612046" lon="10.514832855693129"><ele>164.66666666666669</ele><time>2026-05-02T14:03:14Z</time></trkpt><trkpt lat="44.02005217818913" lon="10.515036829992416"><ele>166.33333333333334</ele><time>2026-05-02T14:03:15Z</time></trkpt><trkpt lat="44.0199527637819" lon="10.515306576729706"><ele>168.0</ele><time>2026-05-02T14:03:16Z</time></trkpt><trkpt lat="44.01983302642697" lon="10.5156108991267"><ele>168.0</ele><time>2026-05-02T14:03:17Z</time></trkpt><trkpt lat="44.01968516951279" lon="10.515957973953954"><ele>168.0</ele><time>2026-05-02T14:03:18Z</time></trkpt><trkpt lat="44.01952486070986" lon="10.516316931124202"><ele>159.0</ele><time>2026-05-02T14:03:19Z</time></trkpt><trkpt lat="44.01935783264414" lon="10.516674673222616"><ele>150.0</ele><time>2026-05-02T14:03:20Z</time></trkpt><trkpt lat="44.01920797700136" lon="10.517007308672786"><ele>158.0</ele><time>2026-05-02T14:03:21Z</time></trkpt><trkpt lat="44.019074691864915" lon="10.517318302127341"><ele>166.0</ele><time>2026-05-02T14:03:22Z</time></trkpt><trkpt lat="44.01895201895539" lon="10.51761598838078"><ele>166.0</ele><time>2026-05-02T14:03:23Z</time></trkpt><trkpt lat="44.01882333577214" lon="10.517893412734956"><ele>166.0</ele><time>2026-05-02T14:03:24Z</time></trkpt><trkpt lat="44.01869090346256" lon="10.518177212942922"><ele>160.0</ele><time>2026-05-02T14:03:25Z</time></trkpt><trkpt lat="44.01855385454589" lon="10.518455623565828"><ele>154.0</ele><time>2026-05-02T14:03:26Z</time></trkpt><trkpt lat="44.018428873237205" lon="10.518741119806233"><ele>169.5</ele><time>2026-05-02T14:03:27Z</time></trkpt><trkpt lat="44.01831765029049" lon="10.519032033764134"><ele>185.0</ele><time>2026-05-02T14:03:28Z</time></trkpt><trkpt lat="44.018199291977346" lon="10.519316043913697"><ele>177.5</ele><time>2026-05-02T14:03:29Z</time></trkpt><trkpt lat="44.0180733137792" lon="10.519601560139627"><ele>170.0</ele><time>2026-05-02T14:03:30Z</time></trkpt><trkpt lat="44.01794264096171" lon="10.51989269903926"><ele>170.0</ele><time>2026-05-02T14:03:31Z</time></trkpt><trkpt lat="44.01781159926536" lon="10.520195282863684"><ele>170.0</ele><time>2026-05-02T14:03:32Z</time></trkpt><trkpt lat="44.017678816518135" lon="10.5205029786134"><ele>162.0</ele><time>2026-05-02T14:03:33Z</time></trkpt><trkpt lat="44.01754760900822" lon="10.520811510558378"><ele>154.0</ele><time>2026-05-02T14:03:34Z</time></trkpt><trkpt lat="44.01742290698808" lon="10.521119776029096"><ele>161.5</ele><time>2026-05-02T14:03:35Z</time></trkpt><trkpt lat="44.017295108939145" lon="10.521431994985182"><ele>169.0</ele><time>2026-05-02T14:03:36Z</time></trkpt><trkpt lat="44.01718050365052" lon="10.521742002592704"><ele>169.0</ele><time>2026-05-02T14:03:37Z</time></trkpt><trkpt lat="44.017082480415375" lon="10.52206338065652"><ele>169.0</ele><time>2026-05-02T14:03:38Z</time></trkpt><trkpt lat="44.01700238917006" lon="10.522383011545354"><ele>161.0</ele><time>2026-05-02T14:03:39Z</time></trkpt><trkpt lat="44.016933123908814" lon="10.522703559692573"><ele>153.0</ele><time>2026-05-02T14:03:40Z</time></trkpt><trkpt lat="44.01687599029766" lon="10.523041736308667"><ele>150.0</ele><time>2026-05-02T14:03:41Z</time></trkpt><trkpt lat="44.016845543941244" lon="10.523386213959961"><ele>147.0</ele><time>2026-05-02T14:03:42Z</time></trkpt><trkpt lat="44.01682314374203" lon="10.523734339683099"><ele>145.5</ele><time>2026-05-02T14:03:43Z</time></trkpt><trkpt lat="44.01681284438804" lon="10.524069233357213"><ele>144.0</ele><time>2026-05-02T14:03:44Z</time></trkpt><trkpt lat="44.01683409176978" lon="10.524390720147665"><ele>142.66666666666666</ele><time>2026-05-02T14:03:45Z</time></trkpt><trkpt lat="44.01685655590949" lon="10.524696289462259"><ele>141.33333333333331</ele><time>2026-05-02T14:03:46Z</time></trkpt><trkpt lat="44.016890893871235" lon="10.524988276625797"><ele>140.0</ele><time>2026-05-02T14:03:47Z</time></trkpt><trkpt lat="44.01693211115158" lon="10.525269677182308"><ele>138.33333333333331</ele><time>2026-05-02T14:03:48Z</time></trkpt><trkpt lat="44.0169769032884" lon="10.525537815965464"><ele>136.66666666666666</ele><time>2026-05-02T14:03:49Z</time></trkpt><trkpt lat="44.01702342762276" lon="10.525800569286726"><ele>135.0</ele><time>2026-05-02T14:03:50Z</time></trkpt><trkpt lat="44.01707944370786" lon="10.52603538246766"><ele>133.66666666666666</ele><time>2026-05-02T14:03:51Z</time></trkpt><trkpt lat="44.0171437382435" lon="10.526311259638595"><ele>132.33333333333331</ele><time>2026-05-02T14:03:52Z</time></trkpt><trkpt lat="44.01720730017271" lon="10.526596513982096"><ele>131.0</ele><time>2026-05-02T14:03:53Z</time></trkpt><trkpt lat="44.01727708546958" lon="10.526891105443392"><ele>134.0</ele><time>2026-05-02T14:03:54Z</time></trkpt><trkpt lat="44.017345488835346" lon="10.527204492683696"><ele>137.0</ele><time>2026-05-02T14:03:55Z</time></trkpt><trkpt lat="44.01741308459621" lon="10.527537405923978"><ele>133.5</ele><time>2026-05-02T14:03:56Z</time></trkpt><trkpt lat="44.01748724940233" lon="10.527887985795221"><ele>130.0</ele><time>2026-05-02T14:03:57Z</time></trkpt><trkpt lat="44.01755985694698" lon="10.52824698988363"><ele>130.0</ele><time>2026-05-02T14:03:58Z</time></trkpt><trkpt lat="44.0176401801289" lon="10.528604681651881"><ele>130.0</ele><time>2026-05-02T14:03:59Z</time></trkpt><trkpt lat="44.017717633259785" lon="10.52895646053341"><ele>130.5</ele><time>2026-05-02T14:04:00Z</time></trkpt><trkpt lat="44.01779211182237" lon="10.529300518332974"><ele>131.0</ele><time>2026-05-02T14:04:01Z</time></trkpt><trkpt lat="44.01785345761091" lon="10.52964559582908"><ele>128.5</ele><time>2026-05-02T14:04:02Z</time></trkpt><trkpt lat="44.017939281911254" lon="10.529973856047619"><ele>126.0</ele><time>2026-05-02T14:04:03Z</time></trkpt><trkpt lat="44.0180095422839" lon="10.530301951489756"><ele>126.33333333333334</ele><time>2026-05-02T14:04:04Z</time></trkpt><trkpt lat="44.018077510022174" lon="10.5306049810618"><ele>126.66666666666667</ele><time>2026-05-02T14:04:04.999Z</time></trkpt><trkpt lat="44.01813899317742" lon="10.530889122318031"><ele>127.0</ele><time>2026-05-02T14:04:05.999Z</time></trkpt><trkpt lat="44.0181820132502" lon="10.531166552291682"><ele>130.66666666666669</ele><time>2026-05-02T14:04:06.999Z</time></trkpt><trkpt lat="44.01824137869768" lon="10.531440782949568"><ele>134.33333333333334</ele><time>2026-05-02T14:04:07.999Z</time></trkpt><trkpt lat="44.01830557441244" lon="10.531742584962444"><ele>138.0</ele><time>2026-05-02T14:04:08.999Z</time></trkpt><trkpt lat="44.01837180140683" lon="10.532066656551882"><ele>139.5</ele><time>2026-05-02T14:04:09.999Z</time></trkpt><trkpt lat="44.01845936906411" lon="10.532389706241522"><ele>141.0</ele><time>2026-05-02T14:04:10.999Z</time></trkpt><trkpt lat="44.018535961685345" lon="10.532706215050895"><ele>151.0</ele><time>2026-05-02T14:04:11.999Z</time></trkpt><trkpt lat="44.01863500733225" lon="10.533011477902445"><ele>161.0</ele><time>2026-05-02T14:04:12.999Z</time></trkpt><trkpt lat="44.0187542765175" lon="10.533321701660025"><ele>161.0</ele><time>2026-05-02T14:04:13.999Z</time></trkpt><trkpt lat="44.01889860616306" lon="10.533625404304635"><ele>161.0</ele><time>2026-05-02T14:04:14.999Z</time></trkpt><trkpt lat="44.01904100317681" lon="10.533949790442955"><ele>150.0</ele><time>2026-05-02T14:04:15.999Z</time></trkpt><trkpt lat="44.019194013671246" lon="10.534232819084583"><ele>139.0</ele><time>2026-05-02T14:04:16.999Z</time></trkpt><trkpt lat="44.019330567039226" lon="10.534536176649935"><ele>146.0</ele><time>2026-05-02T14:04:17.999Z</time></trkpt><trkpt lat="44.01946541394283" lon="10.534819848582824"><ele>153.0</ele><time>2026-05-02T14:04:18.999Z</time></trkpt><trkpt lat="44.019582639913715" lon="10.535055388565624"><ele>153.0</ele><time>2026-05-02T14:04:19.999Z</time></trkpt><trkpt lat="44.019646950826356" lon="10.535320411367834"><ele>153.0</ele><time>2026-05-02T14:04:20.999Z</time></trkpt><trkpt lat="44.01969717459214" lon="10.53558726111311"><ele>153.0</ele><time>2026-05-02T14:04:21.999Z</time></trkpt><trkpt lat="44.01974211871228" lon="10.535854304089364"><ele>152.33333333333334</ele><time>2026-05-02T14:04:22.999Z</time></trkpt><trkpt lat="44.019738328095585" lon="10.536141103169992"><ele>151.66666666666669</ele><time>2026-05-02T14:04:23.999Z</time></trkpt><trkpt lat="44.01971480817558" lon="10.53643996850965"><ele>151.0</ele><time>2026-05-02T14:04:24.999Z</time></trkpt><trkpt lat="44.0196659707281" lon="10.53672721078238"><ele>151.0</ele><time>2026-05-02T14:04:25.999Z</time></trkpt><trkpt lat="44.01959103425155" lon="10.536998212382038"><ele>151.0</ele><time>2026-05-02T14:04:26.999Z</time></trkpt><trkpt lat="44.01946496732558" lon="10.537242949617923"><ele>151.0</ele><time>2026-05-02T14:04:27.999Z</time></trkpt><trkpt lat="44.01931733111223" lon="10.53749469521401"><ele>145.0</ele><time>2026-05-02T14:04:28.999Z</time></trkpt><trkpt lat="44.019153063598104" lon="10.537761399574416"><ele>139.0</ele><time>2026-05-02T14:04:29.999Z</time></trkpt><trkpt lat="44.01895373179546" lon="10.53798096766847"><ele>139.0</ele><time>2026-05-02T14:04:30.999Z</time></trkpt><trkpt lat="44.01876180961736" lon="10.538166905025529"><ele>139.0</ele><time>2026-05-02T14:04:31.999Z</time></trkpt><trkpt lat="44.01857864072755" lon="10.538330559386184"><ele>139.0</ele><time>2026-05-02T14:04:32.999Z</time></trkpt><trkpt lat="44.0183927542558" lon="10.538478684302406"><ele>139.0</ele><time>2026-05-02T14:04:33.999Z</time></trkpt><trkpt lat="44.018190402030314" lon="10.538603509929679"><ele>139.0</ele><time>2026-05-02T14:04:34.999Z</time></trkpt><trkpt lat="44.01798917858816" lon="10.538715255691416"><ele>140.0</ele><time>2026-05-02T14:04:35.999Z</time></trkpt><trkpt lat="44.01779259803267" lon="10.538784946394719"><ele>141.0</ele><time>2026-05-02T14:04:36.999Z</time></trkpt><trkpt lat="44.01759268146027" lon="10.538858178164975"><ele>142.0</ele><time>2026-05-02T14:04:37.999Z</time></trkpt><trkpt lat="44.01738725700402" lon="10.538930921530424"><ele>142.0</ele><time>2026-05-02T14:04:38.999Z</time></trkpt><trkpt lat="44.0171754310659" lon="10.539004637406839"><ele>142.0</ele><time>2026-05-02T14:04:39.999Z</time></trkpt><trkpt lat="44.01697461241279" lon="10.539091791265795"><ele>142.0</ele><time>2026-05-02T14:04:40.999Z</time></trkpt><trkpt lat="44.01678229021756" lon="10.539158151081036"><ele>147.33333333333334</ele><time>2026-05-02T14:04:41.999Z</time></trkpt><trkpt lat="44.016599115586466" lon="10.539216789196331"><ele>152.66666666666666</ele><time>2026-05-02T14:04:42.999Z</time></trkpt><trkpt lat="44.016424522536695" lon="10.539272540956327"><ele>158.0</ele><time>2026-05-02T14:04:43.999Z</time></trkpt><trkpt lat="44.016248880090934" lon="10.539333724788042"><ele>158.0</ele><time>2026-05-02T14:04:44.999Z</time></trkpt><trkpt lat="44.01607065511679" lon="10.539379861709401"><ele>158.0</ele><time>2026-05-02T14:04:45.999Z</time></trkpt><trkpt lat="44.01591347001757" lon="10.539445875571602"><ele>158.0</ele><time>2026-05-02T14:04:46.999Z</time></trkpt><trkpt lat="44.015751159571074" lon="10.539541110274579"><ele>146.33333333333331</ele><time>2026-05-02T14:04:47.999Z</time></trkpt><trkpt lat="44.015592752871946" lon="10.539614897631452"><ele>134.66666666666666</ele><time>2026-05-02T14:04:48.999Z</time></trkpt><trkpt lat="44.01543121221785" lon="10.539690675031189"><ele>123.0</ele><time>2026-05-02T14:04:49.999Z</time></trkpt><trkpt lat="44.01526226761353" lon="10.539756096165146"><ele>123.0</ele><time>2026-05-02T14:04:50.999Z</time></trkpt><trkpt lat="44.0150952891417" lon="10.539840911907238"><ele>123.0</ele><time>2026-05-02T14:04:51.999Z</time></trkpt><trkpt lat="44.014930179711214" lon="10.539924778268244"><ele>123.0</ele><time>2026-05-02T14:04:52.999Z</time></trkpt><trkpt lat="44.01476906950601" lon="10.540009147033265"><ele>128.33333333333334</ele><time>2026-05-02T14:04:53.999Z</time></trkpt><trkpt lat="44.014609019761025" lon="10.540093486841918"><ele>133.66666666666669</ele><time>2026-05-02T14:04:54.999Z</time></trkpt><trkpt lat="44.01444392212463" lon="10.540180189650785"><ele>139.0</ele><time>2026-05-02T14:04:55.999Z</time></trkpt><trkpt lat="44.014255620862734" lon="10.540279078091"><ele>131.0</ele><time>2026-05-02T14:04:56.999Z</time></trkpt><trkpt lat="44.01404642568174" lon="10.540385882352034"><ele>123.0</ele><time>2026-05-02T14:04:57.999Z</time></trkpt><trkpt lat="44.01382238160094" lon="10.540497654093663"><ele>123.0</ele><time>2026-05-02T14:04:58.999Z</time></trkpt><trkpt lat="44.013581707655106" lon="10.540614490403692"><ele>123.0</ele><time>2026-05-02T14:04:59.999Z</time></trkpt><trkpt lat="44.013333622633105" lon="10.540731550450712"><ele>125.5</ele><time>2026-05-02T14:05:00.999Z</time></trkpt><trkpt lat="44.013084766544885" lon="10.540841265071926"><ele>128.0</ele><time>2026-05-02T14:05:01.999Z</time></trkpt><trkpt lat="44.012832302574125" lon="10.540945295313422"><ele>128.0</ele><time>2026-05-02T14:05:02.999Z</time></trkpt><trkpt lat="44.0125801552603" lon="10.541071047936803"><ele>128.0</ele><time>2026-05-02T14:05:03.999Z</time></trkpt><trkpt lat="44.01232398233301" lon="10.54116149135514"><ele>124.0</ele><time>2026-05-02T14:05:04.999Z</time></trkpt><trkpt lat="44.01207038158537" lon="10.541245123534503"><ele>120.0</ele><time>2026-05-02T14:05:05.999Z</time></trkpt><trkpt lat="44.01183619080187" lon="10.541317141529024"><ele>119.5</ele><time>2026-05-02T14:05:06.999Z</time></trkpt><trkpt lat="44.01160372730575" lon="10.54135773092554"><ele>119.0</ele><time>2026-05-02T14:05:07.999Z</time></trkpt><trkpt lat="44.01138962820445" lon="10.541416999009558"><ele>119.0</ele><time>2026-05-02T14:05:08.999Z</time></trkpt><trkpt lat="44.01118241736419" lon="10.54147435126075"><ele>119.0</ele><time>2026-05-02T14:05:09.999Z</time></trkpt><trkpt lat="44.010968135670275" lon="10.54153366058838"><ele>119.0</ele><time>2026-05-02T14:05:10.999Z</time></trkpt><trkpt lat="44.01073525803624" lon="10.541598116940254"><ele>119.5</ele><time>2026-05-02T14:05:11.999Z</time></trkpt><trkpt lat="44.01049434304031" lon="10.541664797895233"><ele>120.0</ele><time>2026-05-02T14:05:12.999Z</time></trkpt><trkpt lat="44.010257071250614" lon="10.541748449114769"><ele>120.0</ele><time>2026-05-02T14:05:13.999Z</time></trkpt><trkpt lat="44.01002472264064" lon="10.541808857558689"><ele>120.0</ele><time>2026-05-02T14:05:14.999Z</time></trkpt><trkpt lat="44.009799587731386" lon="10.541869795271175"><ele>119.66666666666666</ele><time>2026-05-02T14:05:15.999Z</time></trkpt><trkpt lat="44.009578406898754" lon="10.54190755846214"><ele>119.33333333333333</ele><time>2026-05-02T14:05:16.999Z</time></trkpt><trkpt lat="44.00936110593706" lon="10.54196209525468"><ele>119.0</ele><time>2026-05-02T14:05:17.999Z</time></trkpt><trkpt lat="44.009148072802" lon="10.542023790342554"><ele>118.5</ele><time>2026-05-02T14:05:19Z</time></trkpt><trkpt lat="44.008968791565614" lon="10.54233954639361"><ele>118.0</ele><time>2026-05-02T14:05:20Z</time></trkpt><trkpt lat="44.008782148746526" lon="10.542524650613265"><ele>118.0</ele><time>2026-05-02T14:05:21Z</time></trkpt><trkpt lat="44.008607854083664" lon="10.542737183160707"><ele>118.0</ele><time>2026-05-02T14:05:22Z</time></trkpt><trkpt lat="44.008445246216894" lon="10.542973239509607"><ele>117.5</ele><time>2026-05-02T14:05:23Z</time></trkpt><trkpt lat="44.008299478265926" lon="10.543239260973237"><ele>117.0</ele><time>2026-05-02T14:05:24Z</time></trkpt><trkpt lat="44.008171085958054" lon="10.543521002928696"><ele>114.0</ele><time>2026-05-02T14:05:25Z</time></trkpt><trkpt lat="44.00806814037736" lon="10.543828068762558"><ele>111.0</ele><time>2026-05-02T14:05:26Z</time></trkpt><trkpt lat="44.007970933869636" lon="10.544143448821217"><ele>111.0</ele><time>2026-05-02T14:05:27Z</time></trkpt><trkpt lat="44.00787666285379" lon="10.544465588234054"><ele>111.0</ele><time>2026-05-02T14:05:28Z</time></trkpt><trkpt lat="44.007768029628345" lon="10.544777830059372"><ele>110.0</ele><time>2026-05-02T14:05:29Z</time></trkpt><trkpt lat="44.007645908404776" lon="10.545075383045544"><ele>109.0</ele><time>2026-05-02T14:05:30Z</time></trkpt><trkpt lat="44.00750542336381" lon="10.545356328303276"><ele>109.5</ele><time>2026-05-02T14:05:31Z</time></trkpt><trkpt lat="44.00734902750351" lon="10.545615901093706"><ele>110.0</ele><time>2026-05-02T14:05:32Z</time></trkpt><trkpt lat="44.0071798008404" lon="10.545853872905608"><ele>110.0</ele><time>2026-05-02T14:05:33Z</time></trkpt><trkpt lat="44.006993610790474" lon="10.54607657418589"><ele>110.0</ele><time>2026-05-02T14:05:34Z</time></trkpt><trkpt lat="44.00678994466334" lon="10.546284269268567"><ele>109.0</ele><time>2026-05-02T14:05:35Z</time></trkpt><trkpt lat="44.00658202665289" lon="10.546477826028926"><ele>108.0</ele><time>2026-05-02T14:05:36Z</time></trkpt><trkpt lat="44.006379460639295" lon="10.546667701988044"><ele>108.0</ele><time>2026-05-02T14:05:37Z</time></trkpt><trkpt lat="44.00618215282939" lon="10.54684904076193"><ele>108.0</ele><time>2026-05-02T14:05:38Z</time></trkpt><trkpt lat="44.00598693050778" lon="10.547031449929467"><ele>109.0</ele><time>2026-05-02T14:05:39Z</time></trkpt><trkpt lat="44.005790713825384" lon="10.547217666950502"><ele>110.0</ele><time>2026-05-02T14:05:40Z</time></trkpt><trkpt lat="44.00559215278836" lon="10.547411653108451"><ele>110.0</ele><time>2026-05-02T14:05:41Z</time></trkpt><trkpt lat="44.00537555313091" lon="10.547621530839185"><ele>110.0</ele><time>2026-05-02T14:05:42Z</time></trkpt><trkpt lat="44.0051413398853" lon="10.547836082947336"><ele>108.5</ele><time>2026-05-02T14:05:43Z</time></trkpt><trkpt lat="44.00490084331846" lon="10.54803743077466"><ele>107.0</ele><time>2026-05-02T14:05:44Z</time></trkpt><trkpt lat="44.004673002702035" lon="10.548241004819975"><ele>107.0</ele><time>2026-05-02T14:05:45Z</time></trkpt><trkpt lat="44.00444872450753" lon="10.548451525142232"><ele>107.0</ele><time>2026-05-02T14:05:46Z</time></trkpt><trkpt lat="44.00422273165619" lon="10.54865753245426"><ele>105.5</ele><time>2026-05-02T14:05:47Z</time></trkpt><trkpt lat="44.00398885544307" lon="10.548855853114196"><ele>104.0</ele><time>2026-05-02T14:05:48Z</time></trkpt><trkpt lat="44.003746795841344" lon="10.54903397178964"><ele>104.0</ele><time>2026-05-02T14:05:49Z</time></trkpt><trkpt lat="44.0034941321556" lon="10.549180606870657"><ele>104.0</ele><time>2026-05-02T14:05:50Z</time></trkpt><trkpt lat="44.00323139149415" lon="10.549302654299211"><ele>105.0</ele><time>2026-05-02T14:05:51Z</time></trkpt><trkpt lat="44.00297149360815" lon="10.549389890475707"><ele>106.0</ele><time>2026-05-02T14:05:52Z</time></trkpt><trkpt lat="44.0027140582209" lon="10.549460818677018"><ele>105.5</ele><time>2026-05-02T14:05:53Z</time></trkpt><trkpt lat="44.002454403563135" lon="10.54953249950349"><ele>105.0</ele><time>2026-05-02T14:05:54Z</time></trkpt><trkpt lat="44.00219802113974" lon="10.549607089831245"><ele>105.0</ele><time>2026-05-02T14:05:55Z</time></trkpt><trkpt lat="44.001946570664956" lon="10.549681912064063"><ele>105.0</ele><time>2026-05-02T14:05:56Z</time></trkpt><trkpt lat="44.00170447354092" lon="10.549763009536148"><ele>110.5</ele><time>2026-05-02T14:05:57Z</time></trkpt><trkpt lat="44.0014679387729" lon="10.549851170969522"><ele>116.0</ele><time>2026-05-02T14:05:58Z</time></trkpt><trkpt lat="44.00123237122019" lon="10.549966178050173"><ele>116.0</ele><time>2026-05-02T14:05:59Z</time></trkpt><trkpt lat="44.00100791565004" lon="10.55013990700795"><ele>116.0</ele><time>2026-05-02T14:06:00Z</time></trkpt><trkpt lat="44.000786313595334" lon="10.550319646025484"><ele>125.5</ele><time>2026-05-02T14:06:01Z</time></trkpt><trkpt lat="44.000583115916555" lon="10.550542728956046"><ele>135.0</ele><time>2026-05-02T14:06:02Z</time></trkpt><trkpt lat="44.00039876066863" lon="10.550794468856958"><ele>135.0</ele><time>2026-05-02T14:06:03Z</time></trkpt><trkpt lat="44.00021346141832" lon="10.551067854568524"><ele>135.0</ele><time>2026-05-02T14:06:04Z</time></trkpt><trkpt lat="44.000041763430474" lon="10.551323207975082"><ele>123.0</ele><time>2026-05-02T14:06:05Z</time></trkpt><trkpt lat="43.999868582285316" lon="10.551554959344086"><ele>111.0</ele><time>2026-05-02T14:06:06Z</time></trkpt><trkpt lat="43.99971129679276" lon="10.551766136393724"><ele>111.0</ele><time>2026-05-02T14:06:07Z</time></trkpt><trkpt lat="43.999545960623955" lon="10.55195364134315"><ele>111.0</ele><time>2026-05-02T14:06:08Z</time></trkpt><trkpt lat="43.99937803639317" lon="10.552109403416859"><ele>111.0</ele><time>2026-05-02T14:06:09Z</time></trkpt><trkpt lat="43.99919938763581" lon="10.552226178917739"><ele>110.0</ele><time>2026-05-02T14:06:10Z</time></trkpt><trkpt lat="43.99899955408823" lon="10.552312087632085"><ele>109.0</ele><time>2026-05-02T14:06:10.999Z</time></trkpt><trkpt lat="43.998767740855826" lon="10.552387100808597"><ele>108.0</ele><time>2026-05-02T14:06:11.999Z</time></trkpt><trkpt lat="43.998526028333806" lon="10.55245376455877"><ele>115.0</ele><time>2026-05-02T14:06:12.999Z</time></trkpt><trkpt lat="43.9982760846021" lon="10.552528856450605"><ele>122.0</ele><time>2026-05-02T14:06:13.999Z</time></trkpt><trkpt lat="43.998030498471024" lon="10.552613071072853"><ele>122.0</ele><time>2026-05-02T14:06:14.999Z</time></trkpt><trkpt lat="43.99778873299435" lon="10.552697779896066"><ele>122.0</ele><time>2026-05-02T14:06:15.999Z</time></trkpt><trkpt lat="43.99754674575199" lon="10.55278834692493"><ele>128.0</ele><time>2026-05-02T14:06:16.999Z</time></trkpt><trkpt lat="43.997301834511006" lon="10.552867929549624"><ele>134.0</ele><time>2026-05-02T14:06:17.999Z</time></trkpt><trkpt lat="43.997052196661585" lon="10.552922835620564"><ele>120.0</ele><time>2026-05-02T14:06:18.999Z</time></trkpt><trkpt lat="43.996800811091894" lon="10.552939927191453"><ele>106.0</ele><time>2026-05-02T14:06:19.999Z</time></trkpt><trkpt lat="43.99654490391652" lon="10.552929989650766"><ele>106.0</ele><time>2026-05-02T14:06:20.999Z</time></trkpt><trkpt lat="43.99627747103712" lon="10.552908964712033"><ele>106.0</ele><time>2026-05-02T14:06:21.999Z</time></trkpt><trkpt lat="43.99600335231386" lon="10.552886786824722"><ele>122.0</ele><time>2026-05-02T14:06:22.999Z</time></trkpt><trkpt lat="43.99572535259957" lon="10.55286367613806"><ele>138.0</ele><time>2026-05-02T14:06:23.999Z</time></trkpt><trkpt lat="43.99545241630302" lon="10.552842154824976"><ele>138.0</ele><time>2026-05-02T14:06:24.999Z</time></trkpt><trkpt lat="43.995187840589224" lon="10.552827431580576"><ele>138.0</ele><time>2026-05-02T14:06:25.999Z</time></trkpt><trkpt lat="43.994933264856314" lon="10.552808811146322"><ele>136.0</ele><time>2026-05-02T14:06:26.999Z</time></trkpt><trkpt lat="43.99468076504104" lon="10.552779833695741"><ele>134.0</ele><time>2026-05-02T14:06:27.999Z</time></trkpt><trkpt lat="43.99442515526996" lon="10.552744086321676"><ele>131.5</ele><time>2026-05-02T14:06:28.999Z</time></trkpt><trkpt lat="43.994165645952364" lon="10.552697685751964"><ele>129.0</ele><time>2026-05-02T14:06:29.999Z</time></trkpt><trkpt lat="43.993899158552445" lon="10.552645556087738"><ele>129.0</ele><time>2026-05-02T14:06:30.999Z</time></trkpt><trkpt lat="43.99363010065891" lon="10.552589812497656"><ele>129.0</ele><time>2026-05-02T14:06:31.999Z</time></trkpt><trkpt lat="43.99336727649638" lon="10.55253602105379"><ele>120.0</ele><time>2026-05-02T14:06:32.999Z</time></trkpt><trkpt lat="43.99310252824439" lon="10.552482161717744"><ele>111.0</ele><time>2026-05-02T14:06:33.999Z</time></trkpt><trkpt lat="43.99283825605338" lon="10.552429463527018"><ele>111.0</ele><time>2026-05-02T14:06:34.999Z</time></trkpt><trkpt lat="43.99257808077447" lon="10.552370942761177"><ele>111.0</ele><time>2026-05-02T14:06:35.999Z</time></trkpt><trkpt lat="43.99231477945327" lon="10.552319564080634"><ele>107.5</ele><time>2026-05-02T14:06:36.999Z</time></trkpt><trkpt lat="43.992048714374526" lon="10.552269357577316"><ele>104.0</ele><time>2026-05-02T14:06:37.999Z</time></trkpt><trkpt lat="43.991781104560935" lon="10.552215266895933"><ele>101.5</ele><time>2026-05-02T14:06:38.999Z</time></trkpt><trkpt lat="43.99150912619493" lon="10.552167384529696"><ele>99.0</ele><time>2026-05-02T14:06:39.999Z</time></trkpt><trkpt lat="43.991236148955025" lon="10.552093415004515"><ele>99.0</ele><time>2026-05-02T14:06:40.999Z</time></trkpt><trkpt lat="43.99095738095841" lon="10.552040155237048"><ele>99.0</ele><time>2026-05-02T14:06:41.999Z</time></trkpt><trkpt lat="43.99067992500267" lon="10.551993632262887"><ele>113.0</ele><time>2026-05-02T14:06:42.999Z</time></trkpt><trkpt lat="43.99040247276372" lon="10.5519560666279"><ele>127.0</ele><time>2026-05-02T14:06:43.999Z</time></trkpt><trkpt lat="43.99012362729239" lon="10.551926892368272"><ele>125.0</ele><time>2026-05-02T14:06:44.999Z</time></trkpt><trkpt lat="43.989850679346645" lon="10.551904290823234"><ele>123.0</ele><time>2026-05-02T14:06:45.999Z</time></trkpt><trkpt lat="43.989578446044675" lon="10.551887270364116"><ele>123.0</ele><time>2026-05-02T14:06:46.999Z</time></trkpt><trkpt lat="43.98930550553883" lon="10.551875648068886"><ele>123.0</ele><time>2026-05-02T14:06:47.999Z</time></trkpt><trkpt lat="43.98903468590566" lon="10.551869547247307"><ele>123.0</ele><time>2026-05-02T14:06:48.999Z</time></trkpt><trkpt lat="43.98876160298343" lon="10.55186830101628"><ele>123.0</ele><time>2026-05-02T14:06:49.999Z</time></trkpt><trkpt lat="43.98849517389067" lon="10.551870047031386"><ele>122.5</ele><time>2026-05-02T14:06:50.999Z</time></trkpt><trkpt lat="43.98824221113565" lon="10.551889149699274"><ele>122.0</ele><time>2026-05-02T14:06:51.999Z</time></trkpt><trkpt lat="43.98800246594751" lon="10.551886509282422"><ele>122.0</ele><time>2026-05-02T14:06:52.999Z</time></trkpt><trkpt lat="43.987770513607295" lon="10.551882727223347"><ele>122.0</ele><time>2026-05-02T14:06:53.999Z</time></trkpt><trkpt lat="43.987547682374704" lon="10.551853892261708"><ele>118.33333333333333</ele><time>2026-05-02T14:06:54.999Z</time></trkpt><trkpt lat="43.987352517599604" lon="10.551780366022928"><ele>114.66666666666666</ele><time>2026-05-02T14:06:55.999Z</time></trkpt><trkpt lat="43.987170101562434" lon="10.551668021691867"><ele>111.0</ele><time>2026-05-02T14:06:56.999Z</time></trkpt><trkpt lat="43.987000576052225" lon="10.551524259086143"><ele>111.0</ele><time>2026-05-02T14:06:57.999Z</time></trkpt><trkpt lat="43.98682562033534" lon="10.551365381297735"><ele>111.0</ele><time>2026-05-02T14:06:58.999Z</time></trkpt><trkpt lat="43.98668086978541" lon="10.551226537958645"><ele>111.0</ele><time>2026-05-02T14:06:59.999Z</time></trkpt><trkpt lat="43.98653347928035" lon="10.551143921125766"><ele>116.0</ele><time>2026-05-02T14:07:00.999Z</time></trkpt><trkpt lat="43.986366857202455" lon="10.55106040779617"><ele>121.0</ele><time>2026-05-02T14:07:01.999Z</time></trkpt><trkpt lat="43.986071436987174" lon="10.551022811018253"><ele>121.0</ele><time>2026-05-02T14:07:02.999Z</time></trkpt><trkpt lat="43.98585279134008" lon="10.55102952169848"><ele>121.0</ele><time>2026-05-02T14:07:03.999Z</time></trkpt><trkpt lat="43.98563557159024" lon="10.551048572196999"><ele>121.0</ele><time>2026-05-02T14:07:04.999Z</time></trkpt><trkpt lat="43.98542928457605" lon="10.551047283446453"><ele>119.33333333333334</ele><time>2026-05-02T14:07:05.999Z</time></trkpt><trkpt lat="43.98521227023364" lon="10.551014854733364"><ele>117.66666666666666</ele><time>2026-05-02T14:07:06.999Z</time></trkpt><trkpt lat="43.984982149012794" lon="10.550983705907662"><ele>116.0</ele><time>2026-05-02T14:07:07.999Z</time></trkpt><trkpt lat="43.98475814160369" lon="10.55092597281394"><ele>114.5</ele><time>2026-05-02T14:07:08.999Z</time></trkpt><trkpt lat="43.984528831887395" lon="10.550871608147133"><ele>113.0</ele><time>2026-05-02T14:07:09.999Z</time></trkpt><trkpt lat="43.98431101340855" lon="10.550754309508303"><ele>110.66666666666666</ele><time>2026-05-02T14:07:10.999Z</time></trkpt><trkpt lat="43.98409954954696" lon="10.55069750851436"><ele>108.33333333333334</ele><time>2026-05-02T14:07:11.999Z</time></trkpt><trkpt lat="43.98390833508051" lon="10.55063903917427"><ele>106.0</ele><time>2026-05-02T14:07:12.999Z</time></trkpt><trkpt lat="43.98371987844553" lon="10.550631058142674"><ele>106.0</ele><time>2026-05-02T14:07:13.999Z</time></trkpt><trkpt lat="43.98353607001649" lon="10.550686847719014"><ele>106.0</ele><time>2026-05-02T14:07:14.999Z</time></trkpt><trkpt lat="43.98333895076834" lon="10.550779871040902"><ele>106.0</ele><time>2026-05-02T14:07:15.999Z</time></trkpt><trkpt lat="43.98313017795634" lon="10.550897173302578"><ele>104.33333333333334</ele><time>2026-05-02T14:07:16.999Z</time></trkpt><trkpt lat="43.98293910684705" lon="10.551006409405984"><ele>102.66666666666666</ele><time>2026-05-02T14:07:17.999Z</time></trkpt><trkpt lat="43.98274515929818" lon="10.551046103844373"><ele>101.0</ele><time>2026-05-02T14:07:18.999Z</time></trkpt><trkpt lat="43.982552469722016" lon="10.551024940927455"><ele>100.33333333333333</ele><time>2026-05-02T14:07:19.999Z</time></trkpt><trkpt lat="43.98236127940288" lon="10.550970656706596"><ele>99.66666666666666</ele><time>2026-05-02T14:07:20.999Z</time></trkpt><trkpt lat="43.98215024775234" lon="10.550894565412078"><ele>99.0</ele><time>2026-05-02T14:07:21.999Z</time></trkpt><trkpt lat="43.98192684766505" lon="10.55080934352325"><ele>99.0</ele><time>2026-05-02T14:07:22.999Z</time></trkpt><trkpt lat="43.981713891600634" lon="10.550731970181248"><ele>99.0</ele><time>2026-05-02T14:07:23.999Z</time></trkpt><trkpt lat="43.98151006139291" lon="10.550663086622329"><ele>99.0</ele><time>2026-05-02T14:07:25Z</time></trkpt><trkpt lat="43.98132878659966" lon="10.550613396246044"><ele>97.25</ele><time>2026-05-02T14:07:26Z</time></trkpt><trkpt lat="43.98118084721756" lon="10.550572934884492"><ele>95.5</ele><time>2026-05-02T14:07:27Z</time></trkpt><trkpt lat="43.981060186195826" lon="10.550540781826742"><ele>93.75</ele><time>2026-05-02T14:07:28Z</time></trkpt><trkpt lat="43.98094760745931" lon="10.550536044471487"><ele>92.0</ele><time>2026-05-02T14:07:29Z</time></trkpt><trkpt lat="43.980847463165986" lon="10.550508520585657"><ele>91.83333333333334</ele><time>2026-05-02T14:07:30Z</time></trkpt><trkpt lat="43.98075209281662" lon="10.550485179135338"><ele>91.66666666666667</ele><time>2026-05-02T14:07:31Z</time></trkpt><trkpt lat="43.98066665247217" lon="10.55045715005529"><ele>91.5</ele><time>2026-05-02T14:07:32Z</time></trkpt><trkpt lat="43.98058573630452" lon="10.550426203023331"><ele>91.33333333333333</ele><time>2026-05-02T14:07:33Z</time></trkpt><trkpt lat="43.98052109595551" lon="10.550398899936718"><ele>91.16666666666666</ele><time>2026-05-02T14:07:34Z</time></trkpt><trkpt lat="43.980461394423784" lon="10.550356010693648"><ele>91.0</ele><time>2026-05-02T14:07:35Z</time></trkpt><trkpt lat="43.98040789738353" lon="10.55030244107043"><ele>91.6</ele><time>2026-05-02T14:07:36Z</time></trkpt><trkpt lat="43.98030707755786" lon="10.550213606447315"><ele>92.19999999999999</ele><time>2026-05-02T14:07:38Z</time></trkpt><trkpt lat="43.98023895725047" lon="10.55018079608016"><ele>92.80000000000001</ele><time>2026-05-02T14:07:39Z</time></trkpt><trkpt lat="43.98013825576118" lon="10.550139521552353"><ele>93.4</ele><time>2026-05-02T14:07:40Z</time></trkpt><trkpt lat="43.980023860345376" lon="10.550061862319406"><ele>94.0</ele><time>2026-05-02T14:07:41Z</time></trkpt><trkpt lat="43.979910042427086" lon="10.549960055678568"><ele>94.0</ele><time>2026-05-02T14:07:42Z</time></trkpt><trkpt lat="43.9798046632485" lon="10.54983766042238"><ele>94.0</ele><time>2026-05-02T14:07:43Z</time></trkpt><trkpt lat="43.979695642831956" lon="10.549709121508323"><ele>94.0</ele><time>2026-05-02T14:07:44Z</time></trkpt><trkpt lat="43.97958531080427" lon="10.549584697553296"><ele>94.0</ele><time>2026-05-02T14:07:45Z</time></trkpt><trkpt lat="43.97948090602695" lon="10.549477490162326"><ele>94.0</ele><time>2026-05-02T14:07:46Z</time></trkpt><trkpt lat="43.979387251507866" lon="10.549379259516172"><ele>94.0</ele><time>2026-05-02T14:07:47Z</time></trkpt><trkpt lat="43.979295948573125" lon="10.549286997732782"><ele>94.0</ele><time>2026-05-02T14:07:48Z</time></trkpt><trkpt lat="43.97921129490059" lon="10.549194631519596"><ele>94.0</ele><time>2026-05-02T14:07:49Z</time></trkpt><trkpt lat="43.97913053106259" lon="10.549124055178257"><ele>94.0</ele><time>2026-05-02T14:07:50Z</time></trkpt><trkpt lat="43.97906070684743" lon="10.549048437966016"><ele>94.0</ele><time>2026-05-02T14:07:51Z</time></trkpt><trkpt lat="43.978995833292295" lon="10.548980950520413"><ele>94.0</ele><time>2026-05-02T14:07:52Z</time></trkpt><trkpt lat="43.978938528729095" lon="10.548921128346525"><ele>94.0</ele><time>2026-05-02T14:07:53Z</time></trkpt><trkpt lat="43.978853898894336" lon="10.548829462189763"><ele>94.0</ele><time>2026-05-02T14:07:55Z</time></trkpt><trkpt lat="43.978810999104475" lon="10.548760981639532"><ele>94.0</ele><time>2026-05-02T14:08:04Z</time></trkpt><trkpt lat="43.9786941326333" lon="10.548877105843637"><ele>94.0</ele><time>2026-05-02T14:09:00.999Z</time></trkpt><trkpt lat="43.97875777155747" lon="10.548899805912608"><ele>94.0</ele><time>2026-05-02T14:09:56Z</time></trkpt><trkpt lat="43.97882006699996" lon="10.548928340508361"><ele>94.0</ele><time>2026-05-02T14:10:03Z</time></trkpt><trkpt lat="43.97886526202589" lon="10.54900204180034"><ele>94.0</ele><time>2026-05-02T14:10:09Z</time></trkpt><trkpt lat="43.97886130815177" lon="10.549099073033801"><ele>94.0</ele><time>2026-05-02T14:10:21Z</time></trkpt><trkpt lat="43.9789271454347" lon="10.549077487319128"><ele>94.0</ele><time>2026-05-02T14:10:42.999Z</time></trkpt><trkpt lat="43.97886626424289" lon="10.549168917117399"><ele>94.0</ele><time>2026-05-02T14:11:46Z</time></trkpt><trkpt lat="43.97890444459427" lon="10.549022921389838"><ele>94.0</ele><time>2026-05-02T14:13:27.999Z</time></trkpt><trkpt lat="43.97892116373278" lon="10.548936046600902"><ele>94.0</ele><time>2026-05-02T14:16:36Z</time></trkpt><trkpt lat="43.97887814326999" lon="10.549025835449083"><ele>94.0</ele><time>2026-05-02T14:17:38.999Z</time></trkpt><trkpt lat="43.97891154507056" lon="10.549113737975068"><ele>94.0</ele><time>2026-05-02T14:18:10Z</time></trkpt><trkpt lat="43.97884927586869" lon="10.549091159313383"><ele>94.0</ele><time>2026-05-02T14:19:04.999Z</time></trkpt><trkpt lat="43.978852138266596" lon="10.548996172579647"><ele>94.0</ele><time>2026-05-02T14:21:45.999Z</time></trkpt><trkpt lat="43.97879537192993" lon="10.548946743865763"><ele>94.0</ele><time>2026-05-02T14:21:49.999Z</time></trkpt><trkpt lat="43.978746284274116" lon="10.548871272258065"><ele>94.0</ele><time>2026-05-02T14:21:54.999Z</time></trkpt><trkpt lat="43.97879309887739" lon="10.54880146787937"><ele>94.0</ele><time>2026-05-02T14:25:55.999Z</time></trkpt><trkpt lat="43.97875381876629" lon="10.548662347355972"><ele>94.0</ele><time>2026-05-02T14:25:57.999Z</time></trkpt><trkpt lat="43.978684465921155" lon="10.548577335403092"><ele>94.0</ele><time>2026-05-02T14:25:58.999Z</time></trkpt><trkpt lat="43.978598715083116" lon="10.54850344950705"><ele>94.0</ele><time>2026-05-02T14:25:59.999Z</time></trkpt><trkpt lat="43.978519590600946" lon="10.548439889493201"><ele>94.0</ele><time>2026-05-02T14:26:00.999Z</time></trkpt><trkpt lat="43.97844197794217" lon="10.548355260806582"><ele>94.0</ele><time>2026-05-02T14:26:01.999Z</time></trkpt><trkpt lat="43.97836452153013" lon="10.54825910978442"><ele>94.0</ele><time>2026-05-02T14:26:02.999Z</time></trkpt><trkpt lat="43.978283640420464" lon="10.54816752826224"><ele>94.0</ele><time>2026-05-02T14:26:03.999Z</time></trkpt><trkpt lat="43.97819768225357" lon="10.54807097462887"><ele>94.0</ele><time>2026-05-02T14:26:04.999Z</time></trkpt><trkpt lat="43.97811073810546" lon="10.547964649276139"><ele>93.25</ele><time>2026-05-02T14:26:05.999Z</time></trkpt><trkpt lat="43.9780157244809" lon="10.547846033829474"><ele>92.5</ele><time>2026-05-02T14:26:06.999Z</time></trkpt><trkpt lat="43.977922088366334" lon="10.547718640054107"><ele>91.75</ele><time>2026-05-02T14:26:07.999Z</time></trkpt><trkpt lat="43.97782829595571" lon="10.547584053179152"><ele>91.0</ele><time>2026-05-02T14:26:08.998Z</time></trkpt><trkpt lat="43.977740338968836" lon="10.547435212295683"><ele>91.0</ele><time>2026-05-02T14:26:09.998Z</time></trkpt><trkpt lat="43.97765477914782" lon="10.547280010851102"><ele>91.0</ele><time>2026-05-02T14:26:10.998Z</time></trkpt><trkpt lat="43.97756507947197" lon="10.547106887195538"><ele>91.0</ele><time>2026-05-02T14:26:11.998Z</time></trkpt><trkpt lat="43.97747938709262" lon="10.546919316746397"><ele>90.0</ele><time>2026-05-02T14:26:12.998Z</time></trkpt><trkpt lat="43.97739302015998" lon="10.54672131534834"><ele>89.0</ele><time>2026-05-02T14:26:13.998Z</time></trkpt><trkpt lat="43.977301103845775" lon="10.546506703505704"><ele>88.0</ele><time>2026-05-02T14:26:14.998Z</time></trkpt><trkpt lat="43.977202136405815" lon="10.54626381386367"><ele>87.66666666666666</ele><time>2026-05-02T14:26:15.998Z</time></trkpt><trkpt lat="43.9771373144668" lon="10.546014488383081"><ele>87.33333333333333</ele><time>2026-05-02T14:26:16.998Z</time></trkpt><trkpt lat="43.977072717817634" lon="10.545757049829186"><ele>87.0</ele><time>2026-05-02T14:26:17.998Z</time></trkpt><trkpt lat="43.976984489214274" lon="10.545523578101845"><ele>87.0</ele><time>2026-05-02T14:26:18.999Z</time></trkpt><trkpt lat="43.97700256269395" lon="10.545378559845455"><ele>87.0</ele><time>2026-05-02T14:26:19.999Z</time></trkpt><trkpt lat="43.97696189481242" lon="10.545125627278273"><ele>87.0</ele><time>2026-05-02T14:26:20.999Z</time></trkpt><trkpt lat="43.976923325872534" lon="10.544866857709705"><ele>87.0</ele><time>2026-05-02T14:26:21.999Z</time></trkpt><trkpt lat="43.97688832956813" lon="10.544610545003824"><ele>87.0</ele><time>2026-05-02T14:26:22.999Z</time></trkpt><trkpt lat="43.9768517388331" lon="10.544353829331087"><ele>87.0</ele><time>2026-05-02T14:26:23.999Z</time></trkpt><trkpt lat="43.97681242740604" lon="10.544094340831899"><ele>87.0</ele><time>2026-05-02T14:26:24.999Z</time></trkpt><trkpt lat="43.976772749997" lon="10.543834398490887"><ele>87.0</ele><time>2026-05-02T14:26:25.999Z</time></trkpt><trkpt lat="43.97673511374387" lon="10.543576641065"><ele>87.0</ele><time>2026-05-02T14:26:26.999Z</time></trkpt><trkpt lat="43.97670116322072" lon="10.543321146379453"><ele>87.0</ele><time>2026-05-02T14:26:27.999Z</time></trkpt><trkpt lat="43.97666496700668" lon="10.54307104170323"><ele>87.0</ele><time>2026-05-02T14:26:28.999Z</time></trkpt><trkpt lat="43.976632585839425" lon="10.542819903287725"><ele>87.0</ele><time>2026-05-02T14:26:29.999Z</time></trkpt><trkpt lat="43.976600101103415" lon="10.54256172738798"><ele>87.0</ele><time>2026-05-02T14:26:30.999Z</time></trkpt><trkpt lat="43.9765614744875" lon="10.542300671031583"><ele>87.0</ele><time>2026-05-02T14:26:31.999Z</time></trkpt><trkpt lat="43.976519346810306" lon="10.542044788701403"><ele>87.0</ele><time>2026-05-02T14:26:32.999Z</time></trkpt><trkpt lat="43.97648031903614" lon="10.541783903144376"><ele>86.66666666666667</ele><time>2026-05-02T14:26:33.999Z</time></trkpt><trkpt lat="43.976442340943684" lon="10.541529587539387"><ele>86.33333333333334</ele><time>2026-05-02T14:26:34.999Z</time></trkpt><trkpt lat="43.97640583963001" lon="10.541274407904812"><ele>86.0</ele><time>2026-05-02T14:26:35.999Z</time></trkpt><trkpt lat="43.97637354427684" lon="10.54102102247405"><ele>86.66666666666667</ele><time>2026-05-02T14:26:36.999Z</time></trkpt><trkpt lat="43.976336344622986" lon="10.540777325204958"><ele>87.33333333333333</ele><time>2026-05-02T14:26:37.999Z</time></trkpt><trkpt lat="43.97630592456668" lon="10.540534230608033"><ele>88.0</ele><time>2026-05-02T14:26:38.999Z</time></trkpt><trkpt lat="43.97627599537715" lon="10.5402983434514"><ele>88.66666666666666</ele><time>2026-05-02T14:26:39.999Z</time></trkpt><trkpt lat="43.976249534454965" lon="10.540068622286372"><ele>89.33333333333333</ele><time>2026-05-02T14:26:40.999Z</time></trkpt><trkpt lat="43.976231802662646" lon="10.539850587015188"><ele>90.0</ele><time>2026-05-02T14:26:41.999Z</time></trkpt><trkpt lat="43.976234252548984" lon="10.539617941022184"><ele>90.66666666666667</ele><time>2026-05-02T14:26:42.999Z</time></trkpt><trkpt lat="43.9762454162128" lon="10.539367609028405"><ele>91.33333333333334</ele><time>2026-05-02T14:26:43.999Z</time></trkpt><trkpt lat="43.97625651991828" lon="10.539106714634768"><ele>92.0</ele><time>2026-05-02T14:26:44.999Z</time></trkpt><trkpt lat="43.97625987457786" lon="10.538838357379909"><ele>91.33333333333334</ele><time>2026-05-02T14:26:45.999Z</time></trkpt><trkpt lat="43.97626052941881" lon="10.538564779374415"><ele>90.66666666666667</ele><time>2026-05-02T14:26:46.999Z</time></trkpt><trkpt lat="43.97626079062453" lon="10.538287450225912"><ele>90.0</ele><time>2026-05-02T14:26:47.999Z</time></trkpt><trkpt lat="43.97624599295324" lon="10.53800855867758"><ele>90.0</ele><time>2026-05-02T14:26:48.999Z</time></trkpt><trkpt lat="43.97622095153968" lon="10.537729154111222"><ele>90.0</ele><time>2026-05-02T14:26:49.999Z</time></trkpt><trkpt lat="43.97618539717248" lon="10.537456882327652"><ele>90.0</ele><time>2026-05-02T14:26:50.999Z</time></trkpt><trkpt lat="43.976134481818036" lon="10.537198020272287"><ele>90.66666666666667</ele><time>2026-05-02T14:26:51.999Z</time></trkpt><trkpt lat="43.976064865188896" lon="10.536969818650123"><ele>91.33333333333334</ele><time>2026-05-02T14:26:52.999Z</time></trkpt><trkpt lat="43.975978343051274" lon="10.536761332053423"><ele>92.0</ele><time>2026-05-02T14:26:53.999Z</time></trkpt><trkpt lat="43.975880301373216" lon="10.536561161179332"><ele>89.66666666666667</ele><time>2026-05-02T14:26:54.999Z</time></trkpt><trkpt lat="43.97576924021012" lon="10.536368430971068"><ele>87.33333333333333</ele><time>2026-05-02T14:26:55.999Z</time></trkpt><trkpt lat="43.975648596941866" lon="10.536185182733044"><ele>85.0</ele><time>2026-05-02T14:26:56.999Z</time></trkpt><trkpt lat="43.975521055068015" lon="10.536005256066009"><ele>85.0</ele><time>2026-05-02T14:26:57.999Z</time></trkpt><trkpt lat="43.975385589729754" lon="10.535838863763049"><ele>85.0</ele><time>2026-05-02T14:26:58.999Z</time></trkpt><trkpt lat="43.975242051012465" lon="10.535669179267702"><ele>85.0</ele><time>2026-05-02T14:26:59.999Z</time></trkpt><trkpt lat="43.97509449766846" lon="10.53550009862906"><ele>86.66666666666666</ele><time>2026-05-02T14:27:00.999Z</time></trkpt><trkpt lat="43.97494484451498" lon="10.535330757438404"><ele>88.33333333333333</ele><time>2026-05-02T14:27:01.999Z</time></trkpt><trkpt lat="43.97479091562354" lon="10.535153525915042"><ele>90.0</ele><time>2026-05-02T14:27:02.999Z</time></trkpt><trkpt lat="43.97463562500776" lon="10.53496246520337"><ele>90.0</ele><time>2026-05-02T14:27:03.999Z</time></trkpt><trkpt lat="43.97448937608605" lon="10.534760285794725"><ele>90.0</ele><time>2026-05-02T14:27:04.999Z</time></trkpt><trkpt lat="43.97435504307252" lon="10.534537039331358"><ele>90.0</ele><time>2026-05-02T14:27:05.999Z</time></trkpt><trkpt lat="43.974234008928335" lon="10.534304874321375"><ele>90.0</ele><time>2026-05-02T14:27:06.999Z</time></trkpt><trkpt lat="43.974122183182175" lon="10.53406553291753"><ele>90.0</ele><time>2026-05-02T14:27:07.999Z</time></trkpt><trkpt lat="43.97401966152687" lon="10.533817638726063"><ele>90.0</ele><time>2026-05-02T14:27:08.999Z</time></trkpt><trkpt lat="43.973928766193914" lon="10.533554619032477"><ele>94.33333333333334</ele><time>2026-05-02T14:27:09.999Z</time></trkpt><trkpt lat="43.973856214559554" lon="10.533281845254296"><ele>98.66666666666667</ele><time>2026-05-02T14:27:10.999Z</time></trkpt><trkpt lat="43.97380329427485" lon="10.533014489666082"><ele>103.0</ele><time>2026-05-02T14:27:11.999Z</time></trkpt><trkpt lat="43.97376422764012" lon="10.532763446614522"><ele>107.66666666666667</ele><time>2026-05-02T14:27:12.999Z</time></trkpt><trkpt lat="43.97372796707233" lon="10.532521306771685"><ele>112.33333333333334</ele><time>2026-05-02T14:27:13.999Z</time></trkpt><trkpt lat="43.9736948505353" lon="10.532285250469632"><ele>117.0</ele><time>2026-05-02T14:27:14.999Z</time></trkpt><trkpt lat="43.97366333632785" lon="10.53205182425548"><ele>120.0</ele><time>2026-05-02T14:27:15.999Z</time></trkpt><trkpt lat="43.97363419494744" lon="10.531807650309297"><ele>123.0</ele><time>2026-05-02T14:27:16.999Z</time></trkpt><trkpt lat="43.973610006549016" lon="10.531558078588292"><ele>126.0</ele><time>2026-05-02T14:27:17.999Z</time></trkpt><trkpt lat="43.97358872354118" lon="10.531301616912629"><ele>129.0</ele><time>2026-05-02T14:27:18.999Z</time></trkpt><trkpt lat="43.973559357738026" lon="10.531031832563812"><ele>132.0</ele><time>2026-05-02T14:27:19.999Z</time></trkpt><trkpt lat="43.97353333896613" lon="10.53075816119393"><ele>135.0</ele><time>2026-05-02T14:27:20.999Z</time></trkpt><trkpt lat="43.973510831906815" lon="10.53047416776264"><ele>136.33333333333334</ele><time>2026-05-02T14:27:21.999Z</time></trkpt><trkpt lat="43.973487828073175" lon="10.530190980453943"><ele>137.66666666666669</ele><time>2026-05-02T14:27:22.999Z</time></trkpt><trkpt lat="43.973463513924564" lon="10.529904332058692"><ele>139.0</ele><time>2026-05-02T14:27:23.999Z</time></trkpt><trkpt lat="43.973439564262186" lon="10.52961170024042"><ele>135.66666666666669</ele><time>2026-05-02T14:27:24.999Z</time></trkpt><trkpt lat="43.97341194209149" lon="10.52931774656659"><ele>132.33333333333334</ele><time>2026-05-02T14:27:25.999Z</time></trkpt><trkpt lat="43.97338703838495" lon="10.5290140705038"><ele>129.0</ele><time>2026-05-02T14:27:26.999Z</time></trkpt><trkpt lat="43.9733597696253" lon="10.528711812392311"><ele>118.66666666666666</ele><time>2026-05-02T14:27:27.999Z</time></trkpt><trkpt lat="43.97332611389459" lon="10.528421668140782"><ele>108.33333333333333</ele><time>2026-05-02T14:27:28.999Z</time></trkpt><trkpt lat="43.97329926073349" lon="10.528131951096302"><ele>98.0</ele><time>2026-05-02T14:27:29.999Z</time></trkpt><trkpt lat="43.973271662434776" lon="10.527848387574807"><ele>98.0</ele><time>2026-05-02T14:27:30.999Z</time></trkpt><trkpt lat="43.97324526078853" lon="10.52757016218587"><ele>98.0</ele><time>2026-05-02T14:27:31.999Z</time></trkpt><trkpt lat="43.97321993984213" lon="10.527296302529082"><ele>98.0</ele><time>2026-05-02T14:27:32.999Z</time></trkpt><trkpt lat="43.97319447975788" lon="10.527031044952903"><ele>101.33333333333333</ele><time>2026-05-02T14:27:33.999Z</time></trkpt><trkpt lat="43.97317157601546" lon="10.52676548428915"><ele>104.66666666666666</ele><time>2026-05-02T14:27:34.999Z</time></trkpt><trkpt lat="43.97315187353156" lon="10.526517905018355"><ele>108.0</ele><time>2026-05-02T14:27:35.999Z</time></trkpt><trkpt lat="43.973128897699446" lon="10.526265251628637"><ele>111.0</ele><time>2026-05-02T14:27:36.999Z</time></trkpt><trkpt lat="43.973104575840814" lon="10.5260135879185"><ele>114.0</ele><time>2026-05-02T14:27:37.999Z</time></trkpt><trkpt lat="43.97308040573863" lon="10.525765916900545"><ele>117.0</ele><time>2026-05-02T14:27:38.999Z</time></trkpt><trkpt lat="43.973055353742716" lon="10.525527871926863"><ele>120.0</ele><time>2026-05-02T14:27:39.999Z</time></trkpt><trkpt lat="43.97302882697251" lon="10.525284848336304"><ele>123.0</ele><time>2026-05-02T14:27:40.999Z</time></trkpt><trkpt lat="43.97298577487436" lon="10.525036925515863"><ele>126.0</ele><time>2026-05-02T14:27:41.999Z</time></trkpt><trkpt lat="43.97292406762089" lon="10.524795115650717"><ele>123.33333333333334</ele><time>2026-05-02T14:27:42.999Z</time></trkpt><trkpt lat="43.97284673869605" lon="10.524554733636478"><ele>120.66666666666667</ele><time>2026-05-02T14:27:43.999Z</time></trkpt><trkpt lat="43.972771481882894" lon="10.524332313919567"><ele>118.0</ele><time>2026-05-02T14:27:44.999Z</time></trkpt><trkpt lat="43.972704891791786" lon="10.524113761746419"><ele>118.0</ele><time>2026-05-02T14:27:45.999Z</time></trkpt><trkpt lat="43.97263778577259" lon="10.523891977658558"><ele>118.0</ele><time>2026-05-02T14:27:46.999Z</time></trkpt><trkpt lat="43.97256865482151" lon="10.523669905897107"><ele>118.0</ele><time>2026-05-02T14:27:47.999Z</time></trkpt><trkpt lat="43.97250225825013" lon="10.523456436968058"><ele>109.66666666666667</ele><time>2026-05-02T14:27:48.999Z</time></trkpt><trkpt lat="43.97243042297268" lon="10.523255697488867"><ele>101.33333333333334</ele><time>2026-05-02T14:27:49.999Z</time></trkpt><trkpt lat="43.972340485737995" lon="10.523074691253383"><ele>93.0</ele><time>2026-05-02T14:27:50.999Z</time></trkpt><trkpt lat="43.97223887063278" lon="10.522899871433381"><ele>103.0</ele><time>2026-05-02T14:27:51.999Z</time></trkpt><trkpt lat="43.97212465793186" lon="10.52273777025391"><ele>113.0</ele><time>2026-05-02T14:27:52.999Z</time></trkpt><trkpt lat="43.97201317833124" lon="10.522581777819525"><ele>123.0</ele><time>2026-05-02T14:27:53.999Z</time></trkpt><trkpt lat="43.97190914295026" lon="10.522419167473148"><ele>123.0</ele><time>2026-05-02T14:27:54.999Z</time></trkpt><trkpt lat="43.97180801202213" lon="10.52225914217928"><ele>123.0</ele><time>2026-05-02T14:27:55.999Z</time></trkpt><trkpt lat="43.971707528696136" lon="10.522098064767986"><ele>123.0</ele><time>2026-05-02T14:27:56.999Z</time></trkpt><trkpt lat="43.97160552640328" lon="10.521937799938643"><ele>116.33333333333334</ele><time>2026-05-02T14:27:57.999Z</time></trkpt><trkpt lat="43.971499676268294" lon="10.521776586129857"><ele>109.66666666666667</ele><time>2026-05-02T14:27:58.999Z</time></trkpt><trkpt lat="43.97137345299836" lon="10.521593297597045"><ele>103.0</ele><time>2026-05-02T14:27:59.999Z</time></trkpt><trkpt lat="43.97123516394669" lon="10.521390228359381"><ele>99.33333333333334</ele><time>2026-05-02T14:28:00.999Z</time></trkpt><trkpt lat="43.97108883752212" lon="10.521171135257559"><ele>95.66666666666667</ele><time>2026-05-02T14:28:01.999Z</time></trkpt><trkpt lat="43.97092815800508" lon="10.520936209257892"><ele>92.0</ele><time>2026-05-02T14:28:02.999Z</time></trkpt><trkpt lat="43.97077058213359" lon="10.520707907584349"><ele>92.0</ele><time>2026-05-02T14:28:03.999Z</time></trkpt><trkpt lat="43.97061801547554" lon="10.52049025333016"><ele>92.0</ele><time>2026-05-02T14:28:04.999Z</time></trkpt><trkpt lat="43.970469520059545" lon="10.520311072341993"><ele>92.0</ele><time>2026-05-02T14:28:05.999Z</time></trkpt><trkpt lat="43.970309878199835" lon="10.520164521798808"><ele>91.0</ele><time>2026-05-02T14:28:06.999Z</time></trkpt><trkpt lat="43.97014307991997" lon="10.520052410156874"><ele>90.0</ele><time>2026-05-02T14:28:07.999Z</time></trkpt><trkpt lat="43.9699396206868" lon="10.519932459668288"><ele>89.0</ele><time>2026-05-02T14:28:08.999Z</time></trkpt><trkpt lat="43.96972159987526" lon="10.519795310091249"><ele>89.0</ele><time>2026-05-02T14:28:09.999Z</time></trkpt><trkpt lat="43.96950272221711" lon="10.51965015605979"><ele>89.0</ele><time>2026-05-02T14:28:10.999Z</time></trkpt><trkpt lat="43.96928767547353" lon="10.519505573175286"><ele>92.0</ele><time>2026-05-02T14:28:11.999Z</time></trkpt><trkpt lat="43.96907618168796" lon="10.519360899355199"><ele>95.0</ele><time>2026-05-02T14:28:12.999Z</time></trkpt><trkpt lat="43.96887469817277" lon="10.51922544889007"><ele>95.0</ele><time>2026-05-02T14:28:13.999Z</time></trkpt><trkpt lat="43.968681195864164" lon="10.51910494211892"><ele>95.0</ele><time>2026-05-02T14:28:14.999Z</time></trkpt><trkpt lat="43.96849756460342" lon="10.518990272141538"><ele>95.0</ele><time>2026-05-02T14:28:15.999Z</time></trkpt><trkpt lat="43.96832851556255" lon="10.51886432974302"><ele>94.66666666666667</ele><time>2026-05-02T14:28:16.999Z</time></trkpt><trkpt lat="43.968175434129904" lon="10.518725443479173"><ele>94.33333333333333</ele><time>2026-05-02T14:28:17.999Z</time></trkpt><trkpt lat="43.96803889106814" lon="10.518582567571737"><ele>94.0</ele><time>2026-05-02T14:28:18.999Z</time></trkpt><trkpt lat="43.96790852390155" lon="10.518420453622914"><ele>94.0</ele><time>2026-05-02T14:28:19.999Z</time></trkpt><trkpt lat="43.96779613336183" lon="10.518260530343582"><ele>94.0</ele><time>2026-05-02T14:28:20.999Z</time></trkpt><trkpt lat="43.967697664846455" lon="10.518103141205742"><ele>94.0</ele><time>2026-05-02T14:28:21.999Z</time></trkpt><trkpt lat="43.96760029423388" lon="10.517936630660573"><ele>90.66666666666666</ele><time>2026-05-02T14:28:22.999Z</time></trkpt><trkpt lat="43.967506605672526" lon="10.51776143136174"><ele>87.33333333333333</ele><time>2026-05-02T14:28:23.999Z</time></trkpt><trkpt lat="43.967412438507125" lon="10.517584103764442"><ele>84.0</ele><time>2026-05-02T14:28:24.999Z</time></trkpt><trkpt lat="43.967318827182815" lon="10.517410293545108"><ele>84.0</ele><time>2026-05-02T14:28:25.999Z</time></trkpt><trkpt lat="43.96723013760825" lon="10.517244191203176"><ele>84.0</ele><time>2026-05-02T14:28:26.999Z</time></trkpt><trkpt lat="43.96714502539005" lon="10.51708487156233"><ele>84.0</ele><time>2026-05-02T14:28:27.999Z</time></trkpt><trkpt lat="43.96705775970089" lon="10.516919380360521"><ele>84.0</ele><time>2026-05-02T14:28:28.999Z</time></trkpt><trkpt lat="43.966958721976745" lon="10.516736166161117"><ele>81.66666666666667</ele><time>2026-05-02T14:28:29.999Z</time></trkpt><trkpt lat="43.96685788396199" lon="10.516519516087499"><ele>79.33333333333334</ele><time>2026-05-02T14:28:30.999Z</time></trkpt><trkpt lat="43.96674206692703" lon="10.516288890346017"><ele>77.0</ele><time>2026-05-02T14:28:31.999Z</time></trkpt><trkpt lat="43.9666122573211" lon="10.516022766426461"><ele>77.0</ele><time>2026-05-02T14:28:32.999Z</time></trkpt><trkpt lat="43.96648138285249" lon="10.515749700706124"><ele>77.0</ele><time>2026-05-02T14:28:33.999Z</time></trkpt><trkpt lat="43.96635914085427" lon="10.515485262951982"><ele>81.66666666666667</ele><time>2026-05-02T14:28:34.999Z</time></trkpt><trkpt lat="43.96625000392375" lon="10.515271460091697"><ele>86.33333333333333</ele><time>2026-05-02T14:28:35.999Z</time></trkpt><trkpt lat="43.96615134599487" lon="10.51506085563228"><ele>91.0</ele><time>2026-05-02T14:28:36.999Z</time></trkpt><trkpt lat="43.966053367376794" lon="10.514860596716716"><ele>91.0</ele><time>2026-05-02T14:28:37.999Z</time></trkpt><trkpt lat="43.96596175811133" lon="10.514671910144868"><ele>91.0</ele><time>2026-05-02T14:28:38.999Z</time></trkpt><trkpt lat="43.96585731076607" lon="10.514484777393232"><ele>91.0</ele><time>2026-05-02T14:28:39.999Z</time></trkpt><trkpt lat="43.965733519802725" lon="10.514281060804553"><ele>86.33333333333333</ele><time>2026-05-02T14:28:40.999Z</time></trkpt><trkpt lat="43.96561154413616" lon="10.514075862024317"><ele>81.66666666666667</ele><time>2026-05-02T14:28:41.999Z</time></trkpt><trkpt lat="43.965498637771105" lon="10.513888457262883"><ele>77.0</ele><time>2026-05-02T14:28:42.999Z</time></trkpt><trkpt lat="43.96539304449601" lon="10.513726064158211"><ele>77.0</ele><time>2026-05-02T14:28:43.999Z</time></trkpt><trkpt lat="43.9652905810893" lon="10.513588017444215"><ele>77.0</ele><time>2026-05-02T14:28:44.999Z</time></trkpt><trkpt lat="43.96518445190704" lon="10.513455722715443"><ele>77.0</ele><time>2026-05-02T14:28:45.999Z</time></trkpt><trkpt lat="43.96506758347887" lon="10.513309302906316"><ele>77.0</ele><time>2026-05-02T14:28:46.999Z</time></trkpt><trkpt lat="43.96495047417118" lon="10.513146601720504"><ele>75.66666666666667</ele><time>2026-05-02T14:28:47.999Z</time></trkpt><trkpt lat="43.96482789136475" lon="10.51298191913724"><ele>74.33333333333333</ele><time>2026-05-02T14:28:48.999Z</time></trkpt><trkpt lat="43.96470834415987" lon="10.512834741884749"><ele>73.0</ele><time>2026-05-02T14:28:49.999Z</time></trkpt><trkpt lat="43.964596885481875" lon="10.51268923810134"><ele>73.0</ele><time>2026-05-02T14:28:50.999Z</time></trkpt><trkpt lat="43.9644898448061" lon="10.51254751777628"><ele>73.0</ele><time>2026-05-02T14:28:51.999Z</time></trkpt><trkpt lat="43.96438605308982" lon="10.512413743703002"><ele>73.0</ele><time>2026-05-02T14:28:52.999Z</time></trkpt><trkpt lat="43.96427766318167" lon="10.512266387624887"><ele>73.0</ele><time>2026-05-02T14:28:53.999Z</time></trkpt><trkpt lat="43.96416975865736" lon="10.51212332701248"><ele>73.25</ele><time>2026-05-02T14:28:54.999Z</time></trkpt><trkpt lat="43.9640620394481" lon="10.511984403747293"><ele>73.5</ele><time>2026-05-02T14:28:55.999Z</time></trkpt><trkpt lat="43.96395694639648" lon="10.511848450783162"><ele>73.75</ele><time>2026-05-02T14:28:56.999Z</time></trkpt><trkpt lat="43.963856360572" lon="10.511718449625146"><ele>74.0</ele><time>2026-05-02T14:28:57.999Z</time></trkpt><trkpt lat="43.963755849776646" lon="10.511587024159104"><ele>74.0</ele><time>2026-05-02T14:28:58.999Z</time></trkpt><trkpt lat="43.9636600136826" lon="10.511463349166611"><ele>74.0</ele><time>2026-05-02T14:28:59.999Z</time></trkpt><trkpt lat="43.963563533716446" lon="10.511337687351277"><ele>74.0</ele><time>2026-05-02T14:29:00.999Z</time></trkpt><trkpt lat="43.96345315968875" lon="10.511200201376763"><ele>74.0</ele><time>2026-05-02T14:29:01.999Z</time></trkpt><trkpt lat="43.963337086662875" lon="10.511051481900644"><ele>73.0</ele><time>2026-05-02T14:29:02.999Z</time></trkpt><trkpt lat="43.963222392271675" lon="10.510890100512594"><ele>72.0</ele><time>2026-05-02T14:29:03.999Z</time></trkpt><trkpt lat="43.96310043751423" lon="10.510738180210994"><ele>71.0</ele><time>2026-05-02T14:29:04.999Z</time></trkpt><trkpt lat="43.96298381500642" lon="10.510576708014764"><ele>71.0</ele><time>2026-05-02T14:29:05.999Z</time></trkpt><trkpt lat="43.962859208920825" lon="10.510417771620244"><ele>71.0</ele><time>2026-05-02T14:29:06.999Z</time></trkpt><trkpt lat="43.962735381173985" lon="10.51025453361097"><ele>71.0</ele><time>2026-05-02T14:29:07.999Z</time></trkpt><trkpt lat="43.96262344615453" lon="10.510107138806472"><ele>71.0</ele><time>2026-05-02T14:29:08.999Z</time></trkpt><trkpt lat="43.96250272182276" lon="10.50994459704123"><ele>71.0</ele><time>2026-05-02T14:29:09.999Z</time></trkpt><trkpt lat="43.9623903882203" lon="10.509793725371821"><ele>71.0</ele><time>2026-05-02T14:29:10.999Z</time></trkpt><trkpt lat="43.96228019451219" lon="10.509654111787041"><ele>71.33333333333334</ele><time>2026-05-02T14:29:11.999Z</time></trkpt><trkpt lat="43.962168001328465" lon="10.509513112756602"><ele>71.66666666666667</ele><time>2026-05-02T14:29:12.999Z</time></trkpt><trkpt lat="43.96204975795169" lon="10.509359267693915"><ele>72.0</ele><time>2026-05-02T14:29:13.999Z</time></trkpt><trkpt lat="43.96192045043392" lon="10.509193661347739"><ele>72.0</ele><time>2026-05-02T14:29:14.999Z</time></trkpt><trkpt lat="43.961787213092784" lon="10.509020885527372"><ele>72.0</ele><time>2026-05-02T14:29:15.999Z</time></trkpt><trkpt lat="43.9616608384914" lon="10.508845242664655"><ele>72.0</ele><time>2026-05-02T14:29:16.999Z</time></trkpt><trkpt lat="43.96154038163933" lon="10.508685735314057"><ele>72.0</ele><time>2026-05-02T14:29:17.999Z</time></trkpt><trkpt lat="43.96142617679767" lon="10.508535154591879"><ele>72.0</ele><time>2026-05-02T14:29:18.999Z</time></trkpt><trkpt lat="43.96131718867837" lon="10.508397341341375"><ele>72.0</ele><time>2026-05-02T14:29:19.999Z</time></trkpt><trkpt lat="43.961207549189524" lon="10.508258534947124"><ele>72.0</ele><time>2026-05-02T14:29:20.999Z</time></trkpt><trkpt lat="43.96109901073029" lon="10.508108496216801"><ele>72.0</ele><time>2026-05-02T14:29:21.999Z</time></trkpt><trkpt lat="43.960988730193996" lon="10.507956740619605"><ele>72.0</ele><time>2026-05-02T14:29:22.999Z</time></trkpt><trkpt lat="43.960874322784996" lon="10.507806296965452"><ele>72.0</ele><time>2026-05-02T14:29:23.999Z</time></trkpt><trkpt lat="43.9607503872931" lon="10.507651494257829"><ele>72.0</ele><time>2026-05-02T14:29:24.999Z</time></trkpt><trkpt lat="43.960611038793786" lon="10.507478503456126"><ele>72.0</ele><time>2026-05-02T14:29:25.999Z</time></trkpt><trkpt lat="43.960476226831425" lon="10.507305749961544"><ele>72.0</ele><time>2026-05-02T14:29:26.999Z</time></trkpt><trkpt lat="43.96035720892719" lon="10.507144106875304"><ele>72.0</ele><time>2026-05-02T14:29:27.999Z</time></trkpt><trkpt lat="43.960244284106096" lon="10.506992272178726"><ele>72.0</ele><time>2026-05-02T14:29:28.999Z</time></trkpt><trkpt lat="43.96013918465925" lon="10.506859572537564"><ele>72.5</ele><time>2026-05-02T14:29:29.999Z</time></trkpt><trkpt lat="43.96004187493777" lon="10.506732418094881"><ele>73.0</ele><time>2026-05-02T14:29:30.999Z</time></trkpt><trkpt lat="43.959957181911975" lon="10.50661333624288"><ele>73.5</ele><time>2026-05-02T14:29:31.999Z</time></trkpt><trkpt lat="43.959863144454545" lon="10.506487929588065"><ele>74.0</ele><time>2026-05-02T14:29:32.999Z</time></trkpt><trkpt lat="43.95976560917729" lon="10.506357327094287"><ele>74.0</ele><time>2026-05-02T14:29:33.999Z</time></trkpt><trkpt lat="43.95966567850764" lon="10.506214600260444"><ele>74.0</ele><time>2026-05-02T14:29:34.999Z</time></trkpt><trkpt lat="43.95956100670565" lon="10.506075572667772"><ele>74.0</ele><time>2026-05-02T14:29:35.999Z</time></trkpt><trkpt lat="43.95945060957232" lon="10.505934930937807"><ele>74.0</ele><time>2026-05-02T14:29:36.999Z</time></trkpt><trkpt lat="43.9593397342496" lon="10.505794932005413"><ele>74.0</ele><time>2026-05-02T14:29:37.999Z</time></trkpt><trkpt lat="43.95924109057673" lon="10.505662185903129"><ele>74.0</ele><time>2026-05-02T14:29:38.999Z</time></trkpt><trkpt lat="43.9591495123748" lon="10.505543683300544"><ele>74.0</ele><time>2026-05-02T14:29:39.999Z</time></trkpt><trkpt lat="43.959066939144485" lon="10.505435482083774"><ele>74.0</ele><time>2026-05-02T14:29:40.999Z</time></trkpt><trkpt lat="43.95898850723589" lon="10.505334252176938"><ele>73.5</ele><time>2026-05-02T14:29:41.999Z</time></trkpt><trkpt lat="43.95891519197143" lon="10.505243176733176"><ele>73.0</ele><time>2026-05-02T14:29:42.999Z</time></trkpt><trkpt lat="43.9588490614609" lon="10.505155383261396"><ele>72.5</ele><time>2026-05-02T14:29:43.999Z</time></trkpt><trkpt lat="43.95878425566149" lon="10.505072040643546"><ele>72.0</ele><time>2026-05-02T14:29:44.999Z</time></trkpt><trkpt lat="43.95872292252111" lon="10.504989097672802"><ele>71.5</ele><time>2026-05-02T14:29:45.999Z</time></trkpt><trkpt lat="43.958673341463985" lon="10.504900082449057"><ele>71.0</ele><time>2026-05-02T14:29:46.999Z</time></trkpt><trkpt lat="43.958625390941116" lon="10.504793607532324"><ele>71.0</ele><time>2026-05-02T14:29:47.999Z</time></trkpt><trkpt lat="43.95858399415285" lon="10.504681644991189"><ele>71.0</ele><time>2026-05-02T14:29:48.999Z</time></trkpt><trkpt lat="43.95853956451902" lon="10.504581917822874"><ele>71.0</ele><time>2026-05-02T14:29:49.999Z</time></trkpt><trkpt lat="43.958483710671246" lon="10.504496991298756"><ele>71.0</ele><time>2026-05-02T14:29:50.999Z</time></trkpt><trkpt lat="43.95839791738811" lon="10.50443468775792"><ele>71.0</ele><time>2026-05-02T14:29:51.999Z</time></trkpt><trkpt lat="43.95828986945119" lon="10.504439378166788"><ele>70.75</ele><time>2026-05-02T14:29:52.999Z</time></trkpt><trkpt lat="43.958176206568375" lon="10.504405368771994"><ele>70.5</ele><time>2026-05-02T14:29:53.999Z</time></trkpt><trkpt lat="43.95805856906439" lon="10.504368306472433"><ele>70.25</ele><time>2026-05-02T14:29:54.999Z</time></trkpt><trkpt lat="43.95793821765377" lon="10.504301296766656"><ele>70.0</ele><time>2026-05-02T14:29:55.999Z</time></trkpt><trkpt lat="43.9578165872064" lon="10.504227017735959"><ele>70.0</ele><time>2026-05-02T14:29:56.999Z</time></trkpt><trkpt lat="43.95769448436432" lon="10.504144087071944"><ele>70.0</ele><time>2026-05-02T14:29:57.999Z</time></trkpt><trkpt lat="43.95755884201653" lon="10.504050502531"><ele>70.0</ele><time>2026-05-02T14:29:58.999Z</time></trkpt><trkpt lat="43.95741289470255" lon="10.503939068052254"><ele>69.66666666666666</ele><time>2026-05-02T14:29:59.999Z</time></trkpt><trkpt lat="43.95726957329268" lon="10.503830770355885"><ele>69.33333333333333</ele><time>2026-05-02T14:30:00.999Z</time></trkpt><trkpt lat="43.95713178108328" lon="10.503728130803848"><ele>69.0</ele><time>2026-05-02T14:30:01.999Z</time></trkpt><trkpt lat="43.9569980383251" lon="10.503626825316559"><ele>68.66666666666667</ele><time>2026-05-02T14:30:02.999Z</time></trkpt><trkpt lat="43.956859433091644" lon="10.503524097664524"><ele>68.33333333333334</ele><time>2026-05-02T14:30:03.999Z</time></trkpt><trkpt lat="43.956722300605584" lon="10.503425569926007"><ele>68.0</ele><time>2026-05-02T14:30:04.999Z</time></trkpt><trkpt lat="43.9565849474374" lon="10.503324231903829"><ele>67.33333333333334</ele><time>2026-05-02T14:30:05.999Z</time></trkpt><trkpt lat="43.95644560224699" lon="10.503223233243816"><ele>66.66666666666667</ele><time>2026-05-02T14:30:06.999Z</time></trkpt><trkpt lat="43.95630557144698" lon="10.503125093310134"><ele>66.0</ele><time>2026-05-02T14:30:07.999Z</time></trkpt><trkpt lat="43.95616898637868" lon="10.503021475610774"><ele>66.0</ele><time>2026-05-02T14:30:08.999Z</time></trkpt><trkpt lat="43.95603417467116" lon="10.50292023298836"><ele>66.0</ele><time>2026-05-02T14:30:09.999Z</time></trkpt><trkpt lat="43.955898239709924" lon="10.50281810207478"><ele>66.0</ele><time>2026-05-02T14:30:10.999Z</time></trkpt><trkpt lat="43.95576297422586" lon="10.502718906971396"><ele>65.5</ele><time>2026-05-02T14:30:11.999Z</time></trkpt><trkpt lat="43.955629398877846" lon="10.502622899366107"><ele>65.0</ele><time>2026-05-02T14:30:12.999Z</time></trkpt><trkpt lat="43.95549720447652" lon="10.502530284522225"><ele>64.5</ele><time>2026-05-02T14:30:13.999Z</time></trkpt><trkpt lat="43.95536391787824" lon="10.502436131646599"><ele>64.0</ele><time>2026-05-02T14:30:14.999Z</time></trkpt><trkpt lat="43.95523695780731" lon="10.502345021684585"><ele>64.0</ele><time>2026-05-02T14:30:15.999Z</time></trkpt><trkpt lat="43.95511220639794" lon="10.502255524152508"><ele>64.0</ele><time>2026-05-02T14:30:16.999Z</time></trkpt><trkpt lat="43.95498784674223" lon="10.502169902770131"><ele>64.0</ele><time>2026-05-02T14:30:17.999Z</time></trkpt><trkpt lat="43.954871602674125" lon="10.502090070747178"><ele>64.0</ele><time>2026-05-02T14:30:18.999Z</time></trkpt><trkpt lat="43.954757322507575" lon="10.502007778597097"><ele>64.33333333333333</ele><time>2026-05-02T14:30:19.999Z</time></trkpt><trkpt lat="43.95464068329818" lon="10.501925071770597"><ele>64.66666666666667</ele><time>2026-05-02T14:30:20.999Z</time></trkpt><trkpt lat="43.95450733054506" lon="10.501836138922537"><ele>65.0</ele><time>2026-05-02T14:30:21.999Z</time></trkpt><trkpt lat="43.95434330397229" lon="10.501727963486097"><ele>64.66666666666667</ele><time>2026-05-02T14:30:22.999Z</time></trkpt><trkpt lat="43.95417165154449" lon="10.501607932244513"><ele>64.33333333333333</ele><time>2026-05-02T14:30:23.999Z</time></trkpt><trkpt lat="43.954012040862295" lon="10.501494269042572"><ele>64.0</ele><time>2026-05-02T14:30:24.999Z</time></trkpt><trkpt lat="43.95386111884594" lon="10.50138896102126"><ele>64.0</ele><time>2026-05-02T14:30:25.999Z</time></trkpt><trkpt lat="43.95371935413822" lon="10.501286538471575"><ele>64.0</ele><time>2026-05-02T14:30:26.999Z</time></trkpt><trkpt lat="43.95357227382574" lon="10.501186984901617"><ele>64.0</ele><time>2026-05-02T14:30:27.999Z</time></trkpt><trkpt lat="43.953425060901154" lon="10.5010860520881"><ele>64.33333333333333</ele><time>2026-05-02T14:30:28.999Z</time></trkpt><trkpt lat="43.953274712353576" lon="10.50098277381049"><ele>64.66666666666667</ele><time>2026-05-02T14:30:29.999Z</time></trkpt><trkpt lat="43.95312460965528" lon="10.500880202577443"><ele>65.0</ele><time>2026-05-02T14:30:31Z</time></trkpt><trkpt lat="43.952967319826236" lon="10.500776891550638"><ele>65.0</ele><time>2026-05-02T14:30:32Z</time></trkpt><trkpt lat="43.9528160767393" lon="10.50067816131497"><ele>65.0</ele><time>2026-05-02T14:30:33Z</time></trkpt><trkpt lat="43.95267047097654" lon="10.50058090187664"><ele>65.0</ele><time>2026-05-02T14:30:34Z</time></trkpt><trkpt lat="43.95251763557274" lon="10.500483262988233"><ele>64.66666666666667</ele><time>2026-05-02T14:30:35Z</time></trkpt><trkpt lat="43.952363528263916" lon="10.500397414250882"><ele>64.33333333333333</ele><time>2026-05-02T14:30:36Z</time></trkpt><trkpt lat="43.952188006665075" lon="10.500310428357452"><ele>64.0</ele><time>2026-05-02T14:30:37Z</time></trkpt><trkpt lat="43.95197439367186" lon="10.500215741129765"><ele>64.0</ele><time>2026-05-02T14:30:38Z</time></trkpt><trkpt lat="43.95173750493787" lon="10.500106243717234"><ele>64.0</ele><time>2026-05-02T14:30:39Z</time></trkpt><trkpt lat="43.951495358727186" lon="10.499958336318016"><ele>63.5</ele><time>2026-05-02T14:30:40Z</time></trkpt><trkpt lat="43.95123837157636" lon="10.499897708029087"><ele>63.0</ele><time>2026-05-02T14:30:41Z</time></trkpt><trkpt lat="43.95099329702094" lon="10.499809338065312"><ele>63.5</ele><time>2026-05-02T14:30:42Z</time></trkpt><trkpt lat="43.95074806726743" lon="10.499711356460026"><ele>64.0</ele><time>2026-05-02T14:30:43Z</time></trkpt><trkpt lat="43.95049698577121" lon="10.499610910923076"><ele>64.5</ele><time>2026-05-02T14:30:44Z</time></trkpt><trkpt lat="43.95025218109754" lon="10.499468614834354"><ele>65.0</ele><time>2026-05-02T14:30:45Z</time></trkpt><trkpt lat="43.94998855897014" lon="10.49936500689857"><ele>65.0</ele><time>2026-05-02T14:30:46Z</time></trkpt><trkpt lat="43.94971245604466" lon="10.49925574017627"><ele>65.0</ele><time>2026-05-02T14:30:47Z</time></trkpt><trkpt lat="43.94943521821312" lon="10.499146010240452"><ele>65.0</ele><time>2026-05-02T14:30:48Z</time></trkpt><trkpt lat="43.94915992529242" lon="10.499037050123826"><ele>65.0</ele><time>2026-05-02T14:30:49Z</time></trkpt><trkpt lat="43.94887862709355" lon="10.498948242689542"><ele>65.0</ele><time>2026-05-02T14:30:50Z</time></trkpt><trkpt lat="43.94860497472751" lon="10.498838472248258"><ele>65.0</ele><time>2026-05-02T14:30:51Z</time></trkpt><trkpt lat="43.94833563137319" lon="10.498728971689362"><ele>70.5</ele><time>2026-05-02T14:30:52Z</time></trkpt><trkpt lat="43.94806852048368" lon="10.498629325625847"><ele>76.0</ele><time>2026-05-02T14:30:53Z</time></trkpt><trkpt lat="43.94780254841658" lon="10.498523695722564"><ele>72.0</ele><time>2026-05-02T14:30:54Z</time></trkpt><trkpt lat="43.94753915036577" lon="10.498398131092822"><ele>68.0</ele><time>2026-05-02T14:30:55Z</time></trkpt><trkpt lat="43.94727818082665" lon="10.498295850231264"><ele>68.0</ele><time>2026-05-02T14:30:56Z</time></trkpt><trkpt lat="43.947035943998806" lon="10.498200911250066"><ele>68.0</ele><time>2026-05-02T14:30:57Z</time></trkpt><trkpt lat="43.9468102206589" lon="10.498112420640012"><ele>67.0</ele><time>2026-05-02T14:30:58Z</time></trkpt><trkpt lat="43.946607077176985" lon="10.498032340799226"><ele>66.0</ele><time>2026-05-02T14:30:59Z</time></trkpt><trkpt lat="43.94641540758234" lon="10.497976041423877"><ele>65.0</ele><time>2026-05-02T14:31:00Z</time></trkpt><trkpt lat="43.94623050192014" lon="10.497902128937458"><ele>69.0</ele><time>2026-05-02T14:31:01Z</time></trkpt><trkpt lat="43.94605700656436" lon="10.497815461051376"><ele>73.0</ele><time>2026-05-02T14:31:02Z</time></trkpt><trkpt lat="43.945893672464344" lon="10.497750846437393"><ele>77.0</ele><time>2026-05-02T14:31:03Z</time></trkpt><trkpt lat="43.94573671528123" lon="10.497688754466683"><ele>77.0</ele><time>2026-05-02T14:31:04Z</time></trkpt><trkpt lat="43.94556288454375" lon="10.497619987292406"><ele>77.0</ele><time>2026-05-02T14:31:05Z</time></trkpt><trkpt lat="43.94535836348513" lon="10.497539633995528"><ele>77.0</ele><time>2026-05-02T14:31:06Z</time></trkpt><trkpt lat="43.94514108128616" lon="10.497450732334235"><ele>70.5</ele><time>2026-05-02T14:31:07Z</time></trkpt><trkpt lat="43.944926177545405" lon="10.497363676627412"><ele>64.0</ele><time>2026-05-02T14:31:08Z</time></trkpt><trkpt lat="43.9447120193352" lon="10.497258717966943"><ele>64.0</ele><time>2026-05-02T14:31:09Z</time></trkpt><trkpt lat="43.94449435119023" lon="10.497147444311251"><ele>64.0</ele><time>2026-05-02T14:31:10Z</time></trkpt><trkpt lat="43.9442790365335" lon="10.497035654998788"><ele>63.666666666666664</ele><time>2026-05-02T14:31:11Z</time></trkpt><trkpt lat="43.944074421562554" lon="10.496948775307068"><ele>63.33333333333333</ele><time>2026-05-02T14:31:12Z</time></trkpt><trkpt lat="43.94389084594652" lon="10.496837274205534"><ele>63.0</ele><time>2026-05-02T14:31:13Z</time></trkpt><trkpt lat="43.943724226227516" lon="10.496742372379462"><ele>63.0</ele><time>2026-05-02T14:31:14Z</time></trkpt><trkpt lat="43.94357485031734" lon="10.496658820028497"><ele>63.0</ele><time>2026-05-02T14:31:15Z</time></trkpt><trkpt lat="43.94344074684432" lon="10.496573480262922"><ele>63.0</ele><time>2026-05-02T14:31:16Z</time></trkpt><trkpt lat="43.94332366885163" lon="10.49647896973443"><ele>63.0</ele><time>2026-05-02T14:31:17Z</time></trkpt><trkpt lat="43.94322571100006" lon="10.496363909590054"><ele>63.25</ele><time>2026-05-02T14:31:18Z</time></trkpt><trkpt lat="43.94313076267534" lon="10.496253300834823"><ele>63.5</ele><time>2026-05-02T14:31:19Z</time></trkpt><trkpt lat="43.943026732284956" lon="10.496156353282963"><ele>63.75</ele><time>2026-05-02T14:31:20Z</time></trkpt><trkpt lat="43.94288307012072" lon="10.496145722234749"><ele>64.0</ele><time>2026-05-02T14:31:21Z</time></trkpt><trkpt lat="43.94272736503475" lon="10.496142256231513"><ele>64.0</ele><time>2026-05-02T14:31:22Z</time></trkpt><trkpt lat="43.942552150948664" lon="10.496129627691257"><ele>64.0</ele><time>2026-05-02T14:31:23Z</time></trkpt><trkpt lat="43.94237278070564" lon="10.49605926741651"><ele>64.0</ele><time>2026-05-02T14:31:24Z</time></trkpt><trkpt lat="43.942189599990385" lon="10.495954609771735"><ele>64.0</ele><time>2026-05-02T14:31:25Z</time></trkpt><trkpt lat="43.94200169976442" lon="10.495843812790698"><ele>64.0</ele><time>2026-05-02T14:31:26Z</time></trkpt><trkpt lat="43.941792720878375" lon="10.495737308156578"><ele>64.0</ele><time>2026-05-02T14:31:27Z</time></trkpt><trkpt lat="43.94158973972289" lon="10.495628449561224"><ele>64.0</ele><time>2026-05-02T14:31:28Z</time></trkpt><trkpt lat="43.94138727726598" lon="10.495508385445914"><ele>64.0</ele><time>2026-05-02T14:31:29Z</time></trkpt><trkpt lat="43.94117266384991" lon="10.495393336445128"><ele>63.5</ele><time>2026-05-02T14:31:30Z</time></trkpt><trkpt lat="43.94094854496673" lon="10.495282445313933"><ele>63.0</ele><time>2026-05-02T14:31:31Z</time></trkpt><trkpt lat="43.940726642138145" lon="10.495163888429323"><ele>63.0</ele><time>2026-05-02T14:31:32Z</time></trkpt><trkpt lat="43.94050086216897" lon="10.495052853245374"><ele>63.0</ele><time>2026-05-02T14:31:33Z</time></trkpt><trkpt lat="43.940286969615194" lon="10.49494129210083"><ele>63.0</ele><time>2026-05-02T14:31:34Z</time></trkpt><trkpt lat="43.940086712464286" lon="10.494841708875734"><ele>63.0</ele><time>2026-05-02T14:31:35Z</time></trkpt><trkpt lat="43.93989900398856" lon="10.49474507089261"><ele>63.0</ele><time>2026-05-02T14:31:36Z</time></trkpt><trkpt lat="43.93971376955295" lon="10.494680629047613"><ele>63.66666666666667</ele><time>2026-05-02T14:31:37Z</time></trkpt><trkpt lat="43.93953770265487" lon="10.494557545251892"><ele>64.33333333333334</ele><time>2026-05-02T14:31:37.999Z</time></trkpt><trkpt lat="43.93932099028962" lon="10.494632750245405"><ele>65.0</ele><time>2026-05-02T14:31:38.999Z</time></trkpt><trkpt lat="43.93912125782622" lon="10.494673096931466"><ele>66.0</ele><time>2026-05-02T14:31:39.999Z</time></trkpt><trkpt lat="43.93893132960209" lon="10.494754024103274"><ele>67.0</ele><time>2026-05-02T14:31:40.999Z</time></trkpt><trkpt lat="43.938757412992054" lon="10.494888327433166"><ele>68.0</ele><time>2026-05-02T14:31:41.999Z</time></trkpt><trkpt lat="43.93859751121167" lon="10.49505522818216"><ele>68.0</ele><time>2026-05-02T14:31:42.999Z</time></trkpt><trkpt lat="43.938440870476356" lon="10.495240822922632"><ele>68.0</ele><time>2026-05-02T14:31:43.999Z</time></trkpt><trkpt lat="43.93831646024199" lon="10.495480121114523"><ele>68.0</ele><time>2026-05-02T14:31:44.999Z</time></trkpt><trkpt lat="43.938161884067895" lon="10.49571589836859"><ele>70.5</ele><time>2026-05-02T14:31:45.999Z</time></trkpt><trkpt lat="43.938015469756195" lon="10.495971933294841"><ele>73.0</ele><time>2026-05-02T14:31:46.999Z</time></trkpt><trkpt lat="43.93786905051346" lon="10.496234656707575"><ele>72.0</ele><time>2026-05-02T14:31:47.999Z</time></trkpt><trkpt lat="43.93772681349758" lon="10.496507701994336"><ele>71.0</ele><time>2026-05-02T14:31:48.999Z</time></trkpt><trkpt lat="43.93756168545393" lon="10.496762239802086"><ele>70.0</ele><time>2026-05-02T14:31:49.999Z</time></trkpt><trkpt lat="43.93738876089127" lon="10.497013808511348"><ele>69.0</ele><time>2026-05-02T14:31:50.999Z</time></trkpt><trkpt lat="43.937210078147885" lon="10.49726083858732"><ele>69.0</ele><time>2026-05-02T14:31:51.999Z</time></trkpt><trkpt lat="43.937027275290056" lon="10.497502704781779"><ele>69.0</ele><time>2026-05-02T14:31:52.999Z</time></trkpt><trkpt lat="43.93684401246208" lon="10.497740829155807"><ele>68.5</ele><time>2026-05-02T14:31:53.999Z</time></trkpt><trkpt lat="43.93666215212546" lon="10.497978309514258"><ele>68.0</ele><time>2026-05-02T14:31:54.999Z</time></trkpt><trkpt lat="43.93648187356752" lon="10.498214908606913"><ele>68.0</ele><time>2026-05-02T14:31:55.999Z</time></trkpt><trkpt lat="43.93630086877573" lon="10.498449313154266"><ele>68.0</ele><time>2026-05-02T14:31:56.999Z</time></trkpt><trkpt lat="43.936115606516935" lon="10.49865902734323"><ele>70.5</ele><time>2026-05-02T14:31:57.999Z</time></trkpt><trkpt lat="43.93594516682404" lon="10.498878289691728"><ele>73.0</ele><time>2026-05-02T14:31:58.999Z</time></trkpt><trkpt lat="43.93578111956424" lon="10.499086215659444"><ele>73.0</ele><time>2026-05-02T14:31:59.999Z</time></trkpt><trkpt lat="43.935623126432546" lon="10.499294221547272"><ele>73.0</ele><time>2026-05-02T14:32:00.999Z</time></trkpt><trkpt lat="43.935465234531996" lon="10.499537526196836"><ele>68.33333333333333</ele><time>2026-05-02T14:32:01.999Z</time></trkpt><trkpt lat="43.935325454989716" lon="10.499782303539854"><ele>63.66666666666667</ele><time>2026-05-02T14:32:02.999Z</time></trkpt><trkpt lat="43.93518988171687" lon="10.500024329088681"><ele>59.0</ele><time>2026-05-02T14:32:03.999Z</time></trkpt><trkpt lat="43.93506187136038" lon="10.500257628281528"><ele>63.66666666666667</ele><time>2026-05-02T14:32:04.999Z</time></trkpt><trkpt lat="43.93493882921738" lon="10.50048716780376"><ele>68.33333333333333</ele><time>2026-05-02T14:32:05.999Z</time></trkpt><trkpt lat="43.93482930649603" lon="10.500736523375226"><ele>73.0</ele><time>2026-05-02T14:32:06.999Z</time></trkpt><trkpt lat="43.93477556942867" lon="10.501006447019831"><ele>68.66666666666666</ele><time>2026-05-02T14:32:07.999Z</time></trkpt><trkpt lat="43.93472608713849" lon="10.50129065584777"><ele>64.33333333333333</ele><time>2026-05-02T14:32:08.999Z</time></trkpt><trkpt lat="43.93469050681632" lon="10.501581341045181"><ele>60.0</ele><time>2026-05-02T14:32:09.999Z</time></trkpt><trkpt lat="43.93463847060513" lon="10.501875186116465"><ele>59.0</ele><time>2026-05-02T14:32:10.999Z</time></trkpt><trkpt lat="43.9345966633865" lon="10.502177232444591"><ele>58.0</ele><time>2026-05-02T14:32:11.999Z</time></trkpt><trkpt lat="43.934553491420175" lon="10.502480250560499"><ele>57.0</ele><time>2026-05-02T14:32:12.999Z</time></trkpt><trkpt lat="43.93451929787518" lon="10.502785123877848"><ele>56.5</ele><time>2026-05-02T14:32:13.999Z</time></trkpt><trkpt lat="43.934496158049726" lon="10.5030996092637"><ele>56.0</ele><time>2026-05-02T14:32:14.999Z</time></trkpt><trkpt lat="43.934476005923315" lon="10.503408521912768"><ele>56.0</ele><time>2026-05-02T14:32:15.999Z</time></trkpt><trkpt lat="43.93445714338326" lon="10.50371510781484"><ele>56.0</ele><time>2026-05-02T14:32:16.999Z</time></trkpt><trkpt lat="43.9344389591091" lon="10.504017523077307"><ele>56.0</ele><time>2026-05-02T14:32:17.999Z</time></trkpt><trkpt lat="43.93442199363677" lon="10.504315396938804"><ele>55.5</ele><time>2026-05-02T14:32:18.999Z</time></trkpt><trkpt lat="43.93439844556275" lon="10.504727560133325"><ele>55.0</ele><time>2026-05-02T14:32:19.999Z</time></trkpt><trkpt lat="43.934378769951245" lon="10.505074714570128"><ele>55.0</ele><time>2026-05-02T14:32:20.999Z</time></trkpt><trkpt lat="43.93436249220771" lon="10.505420966861028"><ele>55.0</ele><time>2026-05-02T14:32:21.999Z</time></trkpt><trkpt lat="43.93434525476943" lon="10.505757157829468"><ele>55.0</ele><time>2026-05-02T14:32:22.999Z</time></trkpt><trkpt lat="43.934325450965915" lon="10.506065335603202"><ele>55.0</ele><time>2026-05-02T14:32:23.999Z</time></trkpt><trkpt lat="43.934303137517986" lon="10.506362942401836"><ele>55.0</ele><time>2026-05-02T14:32:24.999Z</time></trkpt><trkpt lat="43.934265913538596" lon="10.506642002322872"><ele>58.0</ele><time>2026-05-02T14:32:25.999Z</time></trkpt><trkpt lat="43.93419573617965" lon="10.506898531629991"><ele>61.0</ele><time>2026-05-02T14:32:26.999Z</time></trkpt><trkpt lat="43.93409684595709" lon="10.507141902414158"><ele>64.0</ele><time>2026-05-02T14:32:27.999Z</time></trkpt><trkpt lat="43.93397675100857" lon="10.507367897913761"><ele>64.0</ele><time>2026-05-02T14:32:28.999Z</time></trkpt><trkpt lat="43.93382232277398" lon="10.507533458673642"><ele>64.0</ele><time>2026-05-02T14:32:29.999Z</time></trkpt><trkpt lat="43.933630032018975" lon="10.507631841383859"><ele>64.0</ele><time>2026-05-02T14:32:30.999Z</time></trkpt><trkpt lat="43.93345460867608" lon="10.507692650989668"><ele>68.66666666666666</ele><time>2026-05-02T14:32:31.999Z</time></trkpt><trkpt lat="43.93326972914619" lon="10.507719128599518"><ele>73.33333333333333</ele><time>2026-05-02T14:32:32.999Z</time></trkpt><trkpt lat="43.93308709753061" lon="10.507723095780815"><ele>78.0</ele><time>2026-05-02T14:32:33.999Z</time></trkpt><trkpt lat="43.93291536848437" lon="10.507759879456952"><ele>78.0</ele><time>2026-05-02T14:32:34.999Z</time></trkpt><trkpt lat="43.93275431908341" lon="10.507694483988958"><ele>78.0</ele><time>2026-05-02T14:32:35.999Z</time></trkpt><trkpt lat="43.932613856382886" lon="10.507637215155281"><ele>78.0</ele><time>2026-05-02T14:32:37Z</time></trkpt><trkpt lat="43.93248322525719" lon="10.507585216297903"><ele>73.5</ele><time>2026-05-02T14:32:38Z</time></trkpt><trkpt lat="43.93235696066574" lon="10.50749752360419"><ele>69.0</ele><time>2026-05-02T14:32:39Z</time></trkpt><trkpt lat="43.932212403872605" lon="10.507470528532668"><ele>64.5</ele><time>2026-05-02T14:32:40Z</time></trkpt><trkpt lat="43.932063929494554" lon="10.507422307336494"><ele>60.0</ele><time>2026-05-02T14:32:41Z</time></trkpt><trkpt lat="43.93192065509988" lon="10.50736943312778"><ele>60.0</ele><time>2026-05-02T14:32:42Z</time></trkpt><trkpt lat="43.93176993255429" lon="10.50731003199429"><ele>60.0</ele><time>2026-05-02T14:32:43Z</time></trkpt><trkpt lat="43.93161333921241" lon="10.507253665834776"><ele>60.0</ele><time>2026-05-02T14:32:44Z</time></trkpt><trkpt lat="43.93145815448161" lon="10.50720322711959"><ele>58.0</ele><time>2026-05-02T14:32:45Z</time></trkpt><trkpt lat="43.93131009561384" lon="10.507156939442403"><ele>56.0</ele><time>2026-05-02T14:32:46Z</time></trkpt><trkpt lat="43.93115982554756" lon="10.507105897101054"><ele>54.0</ele><time>2026-05-02T14:32:47Z</time></trkpt><trkpt lat="43.93101882627097" lon="10.507057401998237"><ele>55.25</ele><time>2026-05-02T14:32:48Z</time></trkpt><trkpt lat="43.93088371234305" lon="10.507005274497793"><ele>56.5</ele><time>2026-05-02T14:32:49Z</time></trkpt><trkpt lat="43.93075246643861" lon="10.506962514367299"><ele>57.75</ele><time>2026-05-02T14:32:50Z</time></trkpt><trkpt lat="43.930626692726406" lon="10.506925198518358"><ele>59.0</ele><time>2026-05-02T14:32:51Z</time></trkpt><trkpt lat="43.930492596875396" lon="10.506910426069044"><ele>59.0</ele><time>2026-05-02T14:32:52Z</time></trkpt><trkpt lat="43.930361877367524" lon="10.50691176066218"><ele>59.0</ele><time>2026-05-02T14:32:53Z</time></trkpt><trkpt lat="43.93023196742041" lon="10.506942438721191"><ele>59.0</ele><time>2026-05-02T14:32:54Z</time></trkpt><trkpt lat="43.93010495692458" lon="10.507037096547487"><ele>59.0</ele><time>2026-05-02T14:32:55Z</time></trkpt><trkpt lat="43.92998947937667" lon="10.50714013449613"><ele>61.25</ele><time>2026-05-02T14:32:56Z</time></trkpt><trkpt lat="43.92988248670485" lon="10.507260554759233"><ele>63.5</ele><time>2026-05-02T14:32:57Z</time></trkpt><trkpt lat="43.929770355886674" lon="10.507386390590161"><ele>65.75</ele><time>2026-05-02T14:32:58Z</time></trkpt><trkpt lat="43.92966262599117" lon="10.507508962164112"><ele>68.0</ele><time>2026-05-02T14:32:59Z</time></trkpt><trkpt lat="43.929562616238634" lon="10.507630829012435"><ele>68.0</ele><time>2026-05-02T14:33:00Z</time></trkpt><trkpt lat="43.92946723145251" lon="10.507750416102876"><ele>68.0</ele><time>2026-05-02T14:33:01Z</time></trkpt><trkpt lat="43.929387476968" lon="10.507879650878076"><ele>68.0</ele><time>2026-05-02T14:33:02Z</time></trkpt><trkpt lat="43.92931293291416" lon="10.508013395493695"><ele>68.0</ele><time>2026-05-02T14:33:03Z</time></trkpt><trkpt lat="43.92924615948324" lon="10.508159041356997"><ele>66.5</ele><time>2026-05-02T14:33:04Z</time></trkpt><trkpt lat="43.92918843449658" lon="10.508329881208084"><ele>65.0</ele><time>2026-05-02T14:33:05Z</time></trkpt><trkpt lat="43.92914366659665" lon="10.508513887143602"><ele>63.5</ele><time>2026-05-02T14:33:06Z</time></trkpt><trkpt lat="43.929107434957764" lon="10.50869952111404"><ele>62.0</ele><time>2026-05-02T14:33:07Z</time></trkpt><trkpt lat="43.929084653926566" lon="10.508884012138948"><ele>62.0</ele><time>2026-05-02T14:33:08Z</time></trkpt><trkpt lat="43.929076734628524" lon="10.509068982876768"><ele>62.0</ele><time>2026-05-02T14:33:09Z</time></trkpt><trkpt lat="43.92907766302655" lon="10.509259652178804"><ele>62.0</ele><time>2026-05-02T14:33:10Z</time></trkpt><trkpt lat="43.929088890135624" lon="10.50944390746299"><ele>62.0</ele><time>2026-05-02T14:33:11Z</time></trkpt><trkpt lat="43.9291291760142" lon="10.509644843252493"><ele>62.0</ele><time>2026-05-02T14:33:12Z</time></trkpt><trkpt lat="43.929191764670925" lon="10.509901472630927"><ele>62.0</ele><time>2026-05-02T14:33:13Z</time></trkpt><trkpt lat="43.92928030702913" lon="10.510200800877964"><ele>62.0</ele><time>2026-05-02T14:33:14Z</time></trkpt><trkpt lat="43.92938039389743" lon="10.510526357679995"><ele>72.5</ele><time>2026-05-02T14:33:15Z</time></trkpt><trkpt lat="43.92947855692332" lon="10.51084994673709"><ele>83.0</ele><time>2026-05-02T14:33:16Z</time></trkpt><trkpt lat="43.92956782474514" lon="10.51114132450106"><ele>81.33333333333334</ele><time>2026-05-02T14:33:17Z</time></trkpt><trkpt lat="43.92964409205142" lon="10.511395565815501"><ele>79.66666666666667</ele><time>2026-05-02T14:33:18Z</time></trkpt><trkpt lat="43.92969856920525" lon="10.511594960650237"><ele>78.0</ele><time>2026-05-02T14:33:19Z</time></trkpt><trkpt lat="43.92976073902052" lon="10.511769776349192"><ele>78.0</ele><time>2026-05-02T14:33:20Z</time></trkpt><trkpt lat="43.929803114590776" lon="10.511939108367208"><ele>78.0</ele><time>2026-05-02T14:33:21Z</time></trkpt><trkpt lat="43.929837596149284" lon="10.512113058669595"><ele>78.0</ele><time>2026-05-02T14:33:22Z</time></trkpt><trkpt lat="43.929863984481024" lon="10.51230469976735"><ele>78.0</ele><time>2026-05-02T14:33:23Z</time></trkpt><trkpt lat="43.92986065857898" lon="10.512502012287612"><ele>77.0</ele><time>2026-05-02T14:33:24Z</time></trkpt><trkpt lat="43.92986655012961" lon="10.512694451400353"><ele>76.0</ele><time>2026-05-02T14:33:25Z</time></trkpt><trkpt lat="43.929854964652755" lon="10.512881245480274"><ele>75.0</ele><time>2026-05-02T14:33:26Z</time></trkpt><trkpt lat="43.92983447744867" lon="10.51307567632461"><ele>74.0</ele><time>2026-05-02T14:33:27Z</time></trkpt><trkpt lat="43.929805153707925" lon="10.513270742152308"><ele>74.0</ele><time>2026-05-02T14:33:28Z</time></trkpt><trkpt lat="43.92975878480366" lon="10.513465123561721"><ele>74.0</ele><time>2026-05-02T14:33:29Z</time></trkpt><trkpt lat="43.92969690199101" lon="10.513667281705697"><ele>74.0</ele><time>2026-05-02T14:33:30Z</time></trkpt><trkpt lat="43.92961561292131" lon="10.513873406219451"><ele>81.5</ele><time>2026-05-02T14:33:31Z</time></trkpt><trkpt lat="43.92949572542954" lon="10.514118277946162"><ele>89.0</ele><time>2026-05-02T14:33:32Z</time></trkpt><trkpt lat="43.929346003288074" lon="10.514396843475929"><ele>77.0</ele><time>2026-05-02T14:33:33Z</time></trkpt><trkpt lat="43.92918577597139" lon="10.514682158479058"><ele>65.0</ele><time>2026-05-02T14:33:34Z</time></trkpt><trkpt lat="43.9290415911369" lon="10.51493829100824"><ele>65.0</ele><time>2026-05-02T14:33:35Z</time></trkpt><trkpt lat="43.92891072705386" lon="10.515171479240118"><ele>65.0</ele><time>2026-05-02T14:33:36Z</time></trkpt><trkpt lat="43.928785882004746" lon="10.515373394352967"><ele>65.0</ele><time>2026-05-02T14:33:37Z</time></trkpt><trkpt lat="43.92866914946764" lon="10.515542303414158"><ele>63.5</ele><time>2026-05-02T14:33:38Z</time></trkpt><trkpt lat="43.928556538548285" lon="10.515682413386864"><ele>62.0</ele><time>2026-05-02T14:33:39Z</time></trkpt><trkpt lat="43.92845076558499" lon="10.515800985201752"><ele>60.5</ele><time>2026-05-02T14:33:40Z</time></trkpt><trkpt lat="43.92834211440195" lon="10.515911850395986"><ele>59.0</ele><time>2026-05-02T14:33:41Z</time></trkpt><trkpt lat="43.928230583581964" lon="10.516021793016801"><ele>59.0</ele><time>2026-05-02T14:33:42Z</time></trkpt><trkpt lat="43.92811422774984" lon="10.516136019959147"><ele>59.0</ele><time>2026-05-02T14:33:43Z</time></trkpt><trkpt lat="43.92800079151037" lon="10.516245500145896"><ele>59.0</ele><time>2026-05-02T14:33:44Z</time></trkpt><trkpt lat="43.927886940849355" lon="10.516355211627664"><ele>59.0</ele><time>2026-05-02T14:33:45Z</time></trkpt><trkpt lat="43.927766344349266" lon="10.516470298851612"><ele>56.66666666666667</ele><time>2026-05-02T14:33:46Z</time></trkpt><trkpt lat="43.92764191440982" lon="10.516587879119063"><ele>54.33333333333333</ele><time>2026-05-02T14:33:47Z</time></trkpt><trkpt lat="43.927515686235864" lon="10.516707158626533"><ele>52.0</ele><time>2026-05-02T14:33:48Z</time></trkpt><trkpt lat="43.92736675903738" lon="10.516849122193301"><ele>52.0</ele><time>2026-05-02T14:33:49Z</time></trkpt><trkpt lat="43.92719588172171" lon="10.517013153445419"><ele>52.0</ele><time>2026-05-02T14:33:50Z</time></trkpt><trkpt lat="43.92701512467469" lon="10.517186668149664"><ele>52.0</ele><time>2026-05-02T14:33:51Z</time></trkpt><trkpt lat="43.92685267224626" lon="10.517351775222714"><ele>52.0</ele><time>2026-05-02T14:33:52Z</time></trkpt><trkpt lat="43.926722716495156" lon="10.517528570174505"><ele>52.0</ele><time>2026-05-02T14:33:53Z</time></trkpt><trkpt lat="43.926594546162825" lon="10.517663786401494"><ele>52.0</ele><time>2026-05-02T14:33:54Z</time></trkpt><trkpt lat="43.92648534254434" lon="10.517822784938716"><ele>56.666666666666664</ele><time>2026-05-02T14:33:55Z</time></trkpt><trkpt lat="43.926381466218004" lon="10.517985929738733"><ele>61.33333333333333</ele><time>2026-05-02T14:33:56Z</time></trkpt><trkpt lat="43.92629073970495" lon="10.518188054450109"><ele>66.0</ele><time>2026-05-02T14:33:57Z</time></trkpt><trkpt lat="43.92619364087096" lon="10.518377314751305"><ele>66.0</ele><time>2026-05-02T14:33:58Z</time></trkpt><trkpt lat="43.92610814706472" lon="10.518571141794524"><ele>66.0</ele><time>2026-05-02T14:33:59Z</time></trkpt><trkpt lat="43.92603086440566" lon="10.518773359806707"><ele>66.0</ele><time>2026-05-02T14:34:00Z</time></trkpt><trkpt lat="43.92595599155851" lon="10.519004302087874"><ele>59.0</ele><time>2026-05-02T14:34:01Z</time></trkpt><trkpt lat="43.92584198018076" lon="10.51926683946449"><ele>52.0</ele><time>2026-05-02T14:34:02Z</time></trkpt><trkpt lat="43.925743006412326" lon="10.519589150844874"><ele>52.0</ele><time>2026-05-02T14:34:03Z</time></trkpt><trkpt lat="43.925636539217" lon="10.51993564994195"><ele>52.0</ele><time>2026-05-02T14:34:04Z</time></trkpt><trkpt lat="43.925524971897524" lon="10.520286199705234"><ele>51.5</ele><time>2026-05-02T14:34:05Z</time></trkpt><trkpt lat="43.925430357332786" lon="10.520629181738123"><ele>51.0</ele><time>2026-05-02T14:34:06Z</time></trkpt><trkpt lat="43.92533022203375" lon="10.520956229676703"><ele>49.5</ele><time>2026-05-02T14:34:07Z</time></trkpt><trkpt lat="43.92522970003306" lon="10.521283229788889"><ele>48.0</ele><time>2026-05-02T14:34:08Z</time></trkpt><trkpt lat="43.925125130269485" lon="10.52160567815984"><ele>61.0</ele><time>2026-05-02T14:34:09Z</time></trkpt><trkpt lat="43.92501645466017" lon="10.521924843994944"><ele>74.0</ele><time>2026-05-02T14:34:10Z</time></trkpt><trkpt lat="43.9249123703157" lon="10.522234998879782"><ele>78.0</ele><time>2026-05-02T14:34:11Z</time></trkpt><trkpt lat="43.924818012644955" lon="10.5225241976522"><ele>82.0</ele><time>2026-05-02T14:34:12Z</time></trkpt><trkpt lat="43.92472611405011" lon="10.522803818425835"><ele>79.33333333333333</ele><time>2026-05-02T14:34:13Z</time></trkpt><trkpt lat="43.924631424405206" lon="10.523089109616906"><ele>76.66666666666667</ele><time>2026-05-02T14:34:14.023Z</time></trkpt><trkpt lat="43.92449671896943" lon="10.523327127032623"><ele>74.0</ele><time>2026-05-02T14:34:15.025Z</time></trkpt><trkpt lat="43.92436538004107" lon="10.523569234005366"><ele>77.5</ele><time>2026-05-02T14:34:16.022Z</time></trkpt><trkpt lat="43.92423959788325" lon="10.523790127196774"><ele>81.0</ele><time>2026-05-02T14:34:17.023Z</time></trkpt><trkpt lat="43.92406811631379" lon="10.524048004735258"><ele>81.0</ele><time>2026-05-02T14:34:18Z</time></trkpt><trkpt lat="43.9238813695342" lon="10.524322393180258"><ele>81.0</ele><time>2026-05-02T14:34:19Z</time></trkpt><trkpt lat="43.92370509257524" lon="10.524550536833772"><ele>87.5</ele><time>2026-05-02T14:34:20Z</time></trkpt><trkpt lat="43.92351424649004" lon="10.524745405311629"><ele>94.0</ele><time>2026-05-02T14:34:21.024Z</time></trkpt><trkpt lat="43.923324029153896" lon="10.524916948944915"><ele>94.33333333333333</ele><time>2026-05-02T14:34:22.024Z</time></trkpt><trkpt lat="43.92313693072527" lon="10.52506845468059"><ele>94.66666666666667</ele><time>2026-05-02T14:34:23.015Z</time></trkpt><trkpt lat="43.9229477786638" lon="10.525214096121596"><ele>95.0</ele><time>2026-05-02T14:34:24.026Z</time></trkpt><trkpt lat="43.92236111621449" lon="10.525562592369276"><ele>77.5</ele><time>2026-05-02T14:34:25.999Z</time></trkpt><trkpt lat="43.922125634069396" lon="10.525692438734636"><ele>60.0</ele><time>2026-05-02T14:34:26.999Z</time></trkpt><trkpt lat="43.92189983041415" lon="10.525799228134327"><ele>57.0</ele><time>2026-05-02T14:34:27.999Z</time></trkpt><trkpt lat="43.92166835087741" lon="10.525871535096117"><ele>54.0</ele><time>2026-05-02T14:34:28.999Z</time></trkpt><trkpt lat="43.92143626086677" lon="10.525918738778357"><ele>54.0</ele><time>2026-05-02T14:34:29.999Z</time></trkpt><trkpt lat="43.92119526590712" lon="10.525944600934011"><ele>54.0</ele><time>2026-05-02T14:34:30.999Z</time></trkpt><trkpt lat="43.920986406271574" lon="10.525966115344309"><ele>53.5</ele><time>2026-05-02T14:34:31.999Z</time></trkpt><trkpt lat="43.92076019310668" lon="10.525934038999045"><ele>53.0</ele><time>2026-05-02T14:34:32.999Z</time></trkpt><trkpt lat="43.92053822815447" lon="10.525877143763264"><ele>53.0</ele><time>2026-05-02T14:34:33.999Z</time></trkpt><trkpt lat="43.92032397597967" lon="10.525803630164436"><ele>53.0</ele><time>2026-05-02T14:34:34.999Z</time></trkpt><trkpt lat="43.92012243326758" lon="10.52570974396533"><ele>53.0</ele><time>2026-05-02T14:34:35.999Z</time></trkpt><trkpt lat="43.919934613154055" lon="10.52560291962441"><ele>53.66666666666667</ele><time>2026-05-02T14:34:36.999Z</time></trkpt><trkpt lat="43.91975483230381" lon="10.525492766824092"><ele>54.33333333333333</ele><time>2026-05-02T14:34:37.999Z</time></trkpt><trkpt lat="43.919580155620125" lon="10.525382591408889"><ele>55.0</ele><time>2026-05-02T14:34:38.999Z</time></trkpt><trkpt lat="43.91940397828726" lon="10.525266044631987"><ele>61.666666666666664</ele><time>2026-05-02T14:34:39.999Z</time></trkpt><trkpt lat="43.91923453539275" lon="10.525141757646862"><ele>68.33333333333333</ele><time>2026-05-02T14:34:40.999Z</time></trkpt><trkpt lat="43.9190715154046" lon="10.525028215278207"><ele>75.0</ele><time>2026-05-02T14:34:41.999Z</time></trkpt><trkpt lat="43.918909717560915" lon="10.524923010924766"><ele>76.0</ele><time>2026-05-02T14:34:43.031Z</time></trkpt><trkpt lat="43.918752256556495" lon="10.52481876411018"><ele>77.0</ele><time>2026-05-02T14:34:44.026Z</time></trkpt><trkpt lat="43.918594181704975" lon="10.52467845064934"><ele>78.0</ele><time>2026-05-02T14:34:45.021Z</time></trkpt><trkpt lat="43.918434201107765" lon="10.524564625338817"><ele>83.0</ele><time>2026-05-02T14:34:46.023Z</time></trkpt><trkpt lat="43.91828201072759" lon="10.524457164326884"><ele>88.0</ele><time>2026-05-02T14:34:47.02Z</time></trkpt><trkpt lat="43.91783328195176" lon="10.5241312278699"><ele>88.0</ele><time>2026-05-02T14:34:50.137Z</time></trkpt><trkpt lat="43.91768930910301" lon="10.524025466496678"><ele>88.0</ele><time>2026-05-02T14:34:51.139Z</time></trkpt><trkpt lat="43.91754147173311" lon="10.523929593752563"><ele>88.0</ele><time>2026-05-02T14:34:52.137Z</time></trkpt><trkpt lat="43.91738582968361" lon="10.523858698468016"><ele>90.0</ele><time>2026-05-02T14:34:53.138Z</time></trkpt><trkpt lat="43.917233672011974" lon="10.523778127147768"><ele>92.0</ele><time>2026-05-02T14:34:54.139Z</time></trkpt><trkpt lat="43.917080105417966" lon="10.523706606252409"><ele>94.0</ele><time>2026-05-02T14:34:55.135Z</time></trkpt><trkpt lat="43.91692311786327" lon="10.52364236241837"><ele>94.0</ele><time>2026-05-02T14:34:56.142Z</time></trkpt><trkpt lat="43.91676542315251" lon="10.523589525177487"><ele>94.0</ele><time>2026-05-02T14:34:57.139Z</time></trkpt><trkpt lat="43.916609149046195" lon="10.523520694128571"><ele>94.0</ele><time>2026-05-02T14:34:58.139Z</time></trkpt><trkpt lat="43.91644789703655" lon="10.523485679183203"><ele>96.66666666666666</ele><time>2026-05-02T14:34:59.139Z</time></trkpt><trkpt lat="43.916286165996695" lon="10.523456842762874"><ele>99.33333333333333</ele><time>2026-05-02T14:35:00.139Z</time></trkpt><trkpt lat="43.91612267125201" lon="10.52345527152838"><ele>102.0</ele><time>2026-05-02T14:35:01.138Z</time></trkpt><trkpt lat="43.91596163781563" lon="10.523414415426313"><ele>102.33333333333334</ele><time>2026-05-02T14:35:02.139Z</time></trkpt><trkpt lat="43.915798279101345" lon="10.523423532139748"><ele>102.66666666666667</ele><time>2026-05-02T14:35:03.137Z</time></trkpt><trkpt lat="43.91563560199599" lon="10.523394595777637"><ele>103.0</ele><time>2026-05-02T14:35:04.14Z</time></trkpt><trkpt lat="43.91547345074377" lon="10.5234149"><ele>103.0</ele><time>2026-05-02T14:35:05.134Z</time></trkpt><trkpt lat="43.91531080269922" lon="10.523417429813287"><ele>103.0</ele><time>2026-05-02T14:35:06.134Z</time></trkpt><trkpt lat="43.915147296974546" lon="10.523405226572137"><ele>103.0</ele><time>2026-05-02T14:35:07.134Z</time></trkpt><trkpt lat="43.91498380921736" lon="10.523422256311049"><ele>98.33333333333334</ele><time>2026-05-02T14:35:08.139Z</time></trkpt><trkpt lat="43.91482236275582" lon="10.523443278296947"><ele>93.66666666666667</ele><time>2026-05-02T14:35:09.134Z</time></trkpt><trkpt lat="43.91466256194242" lon="10.523491551708807"><ele>89.0</ele><time>2026-05-02T14:35:10.134Z</time></trkpt><trkpt lat="43.913572752089785" lon="10.523646623564105"><ele>80.66666666666667</ele><time>2026-05-02T14:35:11Z</time></trkpt><trkpt lat="43.913373958639134" lon="10.523689987086112"><ele>72.33333333333333</ele><time>2026-05-02T14:35:12Z</time></trkpt><trkpt lat="43.91322775101078" lon="10.523710806342791"><ele>64.0</ele><time>2026-05-02T14:35:13Z</time></trkpt><trkpt lat="43.91302941341179" lon="10.523775882701312"><ele>58.0</ele><time>2026-05-02T14:35:14Z</time></trkpt><trkpt lat="43.91279915273687" lon="10.523836877568062"><ele>52.0</ele><time>2026-05-02T14:35:15Z</time></trkpt><trkpt lat="43.91251190243771" lon="10.52391755037032"><ele>50.0</ele><time>2026-05-02T14:35:16Z</time></trkpt><trkpt lat="43.912234269961886" lon="10.524036168434082"><ele>48.0</ele><time>2026-05-02T14:35:17Z</time></trkpt><trkpt lat="43.91197180833653" lon="10.524140003642847"><ele>48.0</ele><time>2026-05-02T14:35:18Z</time></trkpt><trkpt lat="43.911710428345735" lon="10.52425879620646"><ele>48.0</ele><time>2026-05-02T14:35:19Z</time></trkpt><trkpt lat="43.911458737550944" lon="10.52438960291733"><ele>48.0</ele><time>2026-05-02T14:35:20Z</time></trkpt><trkpt lat="43.91121036731718" lon="10.524542690884916"><ele>48.0</ele><time>2026-05-02T14:35:21Z</time></trkpt><trkpt lat="43.91095663693813" lon="10.524676402255189"><ele>61.0</ele><time>2026-05-02T14:35:22Z</time></trkpt><trkpt lat="43.910706817025904" lon="10.52483275417454"><ele>74.0</ele><time>2026-05-02T14:35:23Z</time></trkpt><trkpt lat="43.910459842936206" lon="10.525014927688368"><ele>74.0</ele><time>2026-05-02T14:35:24.024Z</time></trkpt><trkpt lat="43.91023368843942" lon="10.525219485474457"><ele>74.0</ele><time>2026-05-02T14:35:25.021Z</time></trkpt><trkpt lat="43.90999479398271" lon="10.525388350132758"><ele>76.5</ele><time>2026-05-02T14:35:26.012Z</time></trkpt><trkpt lat="43.9097563798727" lon="10.52556312155308"><ele>79.0</ele><time>2026-05-02T14:35:27.015Z</time></trkpt><trkpt lat="43.909512247235384" lon="10.525738209426313"><ele>65.0</ele><time>2026-05-02T14:35:28.021Z</time></trkpt><trkpt lat="43.90886284893907" lon="10.52648930996135"><ele>42.0</ele><time>2026-05-02T14:35:31.137Z</time></trkpt><trkpt lat="43.90818913371744" lon="10.527106319759156"><ele>42.0</ele><time>2026-05-02T14:35:32.135Z</time></trkpt><trkpt lat="43.90773483556128" lon="10.52747625858572"><ele>44.0</ele><time>2026-05-02T14:35:36Z</time></trkpt><trkpt lat="43.90748315540085" lon="10.52762710322451"><ele>46.0</ele><time>2026-05-02T14:35:37Z</time></trkpt><trkpt lat="43.90725192454846" lon="10.527776175629025"><ele>46.0</ele><time>2026-05-02T14:35:38Z</time></trkpt><trkpt lat="43.90699099278094" lon="10.52788457448977"><ele>46.0</ele><time>2026-05-02T14:35:39Z</time></trkpt><trkpt lat="43.90673307761802" lon="10.528020619332427"><ele>42.5</ele><time>2026-05-02T14:35:40Z</time></trkpt><trkpt lat="43.90646595486822" lon="10.528110445911087"><ele>39.0</ele><time>2026-05-02T14:35:41Z</time></trkpt><trkpt lat="43.90622853132608" lon="10.528230769088944"><ele>39.0</ele><time>2026-05-02T14:35:42Z</time></trkpt><trkpt lat="43.905969100152205" lon="10.528340271358331"><ele>39.0</ele><time>2026-05-02T14:35:43Z</time></trkpt><trkpt lat="43.90571888554311" lon="10.52845923064735"><ele>35.5</ele><time>2026-05-02T14:35:44Z</time></trkpt><trkpt lat="43.90547036765673" lon="10.528594113594368"><ele>32.0</ele><time>2026-05-02T14:35:45Z</time></trkpt><trkpt lat="43.90522592139455" lon="10.528752729358851"><ele>35.0</ele><time>2026-05-02T14:35:46Z</time></trkpt><trkpt lat="43.90500101990345" lon="10.528933287832858"><ele>38.0</ele><time>2026-05-02T14:35:47Z</time></trkpt><trkpt lat="43.90476045521021" lon="10.52913372710162"><ele>38.0</ele><time>2026-05-02T14:35:48Z</time></trkpt><trkpt lat="43.90453211058406" lon="10.529337677197997"><ele>38.0</ele><time>2026-05-02T14:35:49Z</time></trkpt><trkpt lat="43.90430412222136" lon="10.529557059254042"><ele>40.0</ele><time>2026-05-02T14:35:50Z</time></trkpt><trkpt lat="43.90407078012788" lon="10.529741590411076"><ele>42.0</ele><time>2026-05-02T14:35:51Z</time></trkpt><trkpt lat="43.9038514239497" lon="10.529940666638497"><ele>42.0</ele><time>2026-05-02T14:35:52Z</time></trkpt><trkpt lat="43.90363796216128" lon="10.530160904487213"><ele>42.0</ele><time>2026-05-02T14:35:53Z</time></trkpt><trkpt lat="43.90341576023804" lon="10.530334982436823"><ele>40.5</ele><time>2026-05-02T14:35:54Z</time></trkpt><trkpt lat="43.90318692912135" lon="10.53054311976323"><ele>39.0</ele><time>2026-05-02T14:35:55Z</time></trkpt><trkpt lat="43.90297499816645" lon="10.530733163111439"><ele>39.0</ele><time>2026-05-02T14:35:56Z</time></trkpt><trkpt lat="43.90276932085063" lon="10.530917018129445"><ele>39.0</ele><time>2026-05-02T14:35:56.999Z</time></trkpt><trkpt lat="43.90256346994318" lon="10.531100019869593"><ele>37.0</ele><time>2026-05-02T14:35:57.999Z</time></trkpt><trkpt lat="43.90236192916006" lon="10.531274128582757"><ele>35.0</ele><time>2026-05-02T14:35:58.999Z</time></trkpt><trkpt lat="43.90215099054484" lon="10.531440084552848"><ele>35.0</ele><time>2026-05-02T14:35:59.999Z</time></trkpt><trkpt lat="43.901949605294895" lon="10.531572842892352"><ele>35.0</ele><time>2026-05-02T14:36:00.999Z</time></trkpt><trkpt lat="43.90175316578079" lon="10.531688671749217"><ele>35.0</ele><time>2026-05-02T14:36:01.999Z</time></trkpt><trkpt lat="43.901571958970884" lon="10.531812135878894"><ele>38.0</ele><time>2026-05-02T14:36:02.999Z</time></trkpt><trkpt lat="43.90138327949491" lon="10.531892072139678"><ele>41.0</ele><time>2026-05-02T14:36:03.999Z</time></trkpt><trkpt lat="43.901199019661966" lon="10.531970075428072"><ele>44.0</ele><time>2026-05-02T14:36:04.999Z</time></trkpt><trkpt lat="43.90101662836146" lon="10.532023115371938"><ele>41.33333333333333</ele><time>2026-05-02T14:36:05.999Z</time></trkpt><trkpt lat="43.900824286896786" lon="10.532082115058586"><ele>38.666666666666664</ele><time>2026-05-02T14:36:06.999Z</time></trkpt><trkpt lat="43.90064215559809" lon="10.532132481377221"><ele>36.0</ele><time>2026-05-02T14:36:07.999Z</time></trkpt><trkpt lat="43.900441651037056" lon="10.532197966919272"><ele>36.0</ele><time>2026-05-02T14:36:08.999Z</time></trkpt><trkpt lat="43.90026375348631" lon="10.532245842421835"><ele>36.0</ele><time>2026-05-02T14:36:09.999Z</time></trkpt><trkpt lat="43.90008277614126" lon="10.532298351257934"><ele>36.0</ele><time>2026-05-02T14:36:10.999Z</time></trkpt><trkpt lat="43.8999084693421" lon="10.532358105342196"><ele>36.333333333333336</ele><time>2026-05-02T14:36:11.999Z</time></trkpt><trkpt lat="43.89974536466365" lon="10.532421687704357"><ele>36.66666666666667</ele><time>2026-05-02T14:36:12.999Z</time></trkpt><trkpt lat="43.89959493335949" lon="10.532498584904092"><ele>37.0</ele><time>2026-05-02T14:36:13.999Z</time></trkpt><trkpt lat="43.89945763503148" lon="10.532603702476218"><ele>37.0</ele><time>2026-05-02T14:36:14.999Z</time></trkpt><trkpt lat="43.899331851620914" lon="10.532736020538712"><ele>37.0</ele><time>2026-05-02T14:36:15.999Z</time></trkpt><trkpt lat="43.8992141373163" lon="10.532898971314452"><ele>37.0</ele><time>2026-05-02T14:36:16.999Z</time></trkpt><trkpt lat="43.8990842220388" lon="10.533101724587077"><ele>36.0</ele><time>2026-05-02T14:36:17.999Z</time></trkpt><trkpt lat="43.89894011072337" lon="10.533333426149673"><ele>35.0</ele><time>2026-05-02T14:36:18.999Z</time></trkpt><trkpt lat="43.8987840333824" lon="10.533566452730643"><ele>34.0</ele><time>2026-05-02T14:36:19.999Z</time></trkpt><trkpt lat="43.89862635076642" lon="10.533816276755566"><ele>33.0</ele><time>2026-05-02T14:36:20.999Z</time></trkpt><trkpt lat="43.89847733766727" lon="10.534011358717251"><ele>32.0</ele><time>2026-05-02T14:36:21.999Z</time></trkpt><trkpt lat="43.89833316831991" lon="10.53420728269699"><ele>32.0</ele><time>2026-05-02T14:36:22.999Z</time></trkpt><trkpt lat="43.89820087842503" lon="10.53439943629204"><ele>32.0</ele><time>2026-05-02T14:36:23.999Z</time></trkpt><trkpt lat="43.898075593512395" lon="10.534584222591239"><ele>32.0</ele><time>2026-05-02T14:36:24.999Z</time></trkpt><trkpt lat="43.897964575138694" lon="10.534748412366017"><ele>32.25</ele><time>2026-05-02T14:36:25.999Z</time></trkpt><trkpt lat="43.89787491820329" lon="10.53487641043721"><ele>32.5</ele><time>2026-05-02T14:36:26.999Z</time></trkpt><trkpt lat="43.89777613743412" lon="10.53502476991787"><ele>32.75</ele><time>2026-05-02T14:36:27.999Z</time></trkpt><trkpt lat="43.897689456115906" lon="10.535142235194073"><ele>33.0</ele><time>2026-05-02T14:36:28.999Z</time></trkpt><trkpt lat="43.89761447170106" lon="10.535252329822487"><ele>33.0</ele><time>2026-05-02T14:36:29.999Z</time></trkpt><trkpt lat="43.8975493547467" lon="10.535341185448715"><ele>33.0</ele><time>2026-05-02T14:36:30.999Z</time></trkpt><trkpt lat="43.897488924079184" lon="10.535426043401655"><ele>33.0</ele><time>2026-05-02T14:36:31.999Z</time></trkpt><trkpt lat="43.897429455082346" lon="10.535510051321175"><ele>33.0</ele><time>2026-05-02T14:36:32.999Z</time></trkpt><trkpt lat="43.89737888512211" lon="10.53558989595398"><ele>33.0</ele><time>2026-05-02T14:36:33.999Z</time></trkpt><trkpt lat="43.89732319581828" lon="10.535664721952726"><ele>33.0</ele><time>2026-05-02T14:36:34.999Z</time></trkpt><trkpt lat="43.897267851168856" lon="10.53573832103137"><ele>33.0</ele><time>2026-05-02T14:36:35.999Z</time></trkpt><trkpt lat="43.89721307941754" lon="10.535816785988311"><ele>33.0</ele><time>2026-05-02T14:36:36.999Z</time></trkpt><trkpt lat="43.89715226761174" lon="10.535898401979475"><ele>33.0</ele><time>2026-05-02T14:36:37.999Z</time></trkpt><trkpt lat="43.89709416040765" lon="10.535978746528087"><ele>33.0</ele><time>2026-05-02T14:36:38.999Z</time></trkpt><trkpt lat="43.8970346497904" lon="10.53605891936617"><ele>33.0</ele><time>2026-05-02T14:36:39.999Z</time></trkpt><trkpt lat="43.89697923522495" lon="10.53613328357734"><ele>33.0</ele><time>2026-05-02T14:36:40.999Z</time></trkpt><trkpt lat="43.89689109226358" lon="10.536240622252"><ele>33.0</ele><time>2026-05-02T14:36:42.999Z</time></trkpt><trkpt lat="43.89679534144148" lon="10.536346787763048"><ele>33.0</ele><time>2026-05-02T14:36:44.999Z</time></trkpt><trkpt lat="43.89673409363099" lon="10.53640780392045"><ele>33.0</ele><time>2026-05-02T14:36:45.999Z</time></trkpt><trkpt lat="43.89662923667499" lon="10.536499553175918"><ele>33.0</ele><time>2026-05-02T14:36:48Z</time></trkpt><trkpt lat="43.896566081316024" lon="10.536546081771487"><ele>33.0</ele><time>2026-05-02T14:36:49Z</time></trkpt><trkpt lat="43.89649316968652" lon="10.53658145393517"><ele>33.0</ele><time>2026-05-02T14:36:50Z</time></trkpt><trkpt lat="43.89640377825894" lon="10.53661486113568"><ele>33.0</ele><time>2026-05-02T14:36:52Z</time></trkpt><trkpt lat="43.89632818523554" lon="10.536603376106054"><ele>33.0</ele><time>2026-05-02T14:36:54Z</time></trkpt><trkpt lat="43.89619895181191" lon="10.536598211647805"><ele>33.0</ele><time>2026-05-02T14:36:56Z</time></trkpt><trkpt lat="43.89612252766208" lon="10.536614960541778"><ele>33.0</ele><time>2026-05-02T14:36:57Z</time></trkpt><trkpt lat="43.89606246817552" lon="10.536657050128014"><ele>33.0</ele><time>2026-05-02T14:36:58Z</time></trkpt><trkpt lat="43.89600542707635" lon="10.536714729719975"><ele>33.0</ele><time>2026-05-02T14:36:59Z</time></trkpt><trkpt lat="43.895959416176545" lon="10.536798163071198"><ele>33.0</ele><time>2026-05-02T14:37:00Z</time></trkpt><trkpt lat="43.895929843276186" lon="10.53689136585076"><ele>33.0</ele><time>2026-05-02T14:37:01Z</time></trkpt><trkpt lat="43.89592127923377" lon="10.53698633517576"><ele>33.0</ele><time>2026-05-02T14:37:02Z</time></trkpt><trkpt lat="43.89593113726625" lon="10.537157114322595"><ele>33.0</ele><time>2026-05-02T14:37:04Z</time></trkpt><trkpt lat="43.89593038540405" lon="10.537253961497907"><ele>33.0</ele><time>2026-05-02T14:37:05Z</time></trkpt><trkpt lat="43.89591160611969" lon="10.537352400354067"><ele>33.0</ele><time>2026-05-02T14:37:06Z</time></trkpt><trkpt lat="43.89587836650046" lon="10.537447296691054"><ele>33.0</ele><time>2026-05-02T14:37:07Z</time></trkpt><trkpt lat="43.89583132208717" lon="10.537539044139603"><ele>33.0</ele><time>2026-05-02T14:37:08Z</time></trkpt><trkpt lat="43.89577245313381" lon="10.537635743295084"><ele>33.0</ele><time>2026-05-02T14:37:09Z</time></trkpt><trkpt lat="43.89570721900536" lon="10.537758947706578"><ele>33.0</ele><time>2026-05-02T14:37:10Z</time></trkpt><trkpt lat="43.8956570850662" lon="10.537886809992676"><ele>33.199999999999996</ele><time>2026-05-02T14:37:11Z</time></trkpt><trkpt lat="43.8956263332739" lon="10.538017336306284"><ele>33.4</ele><time>2026-05-02T14:37:12Z</time></trkpt><trkpt lat="43.89560136319453" lon="10.538139548273985"><ele>33.599999999999994</ele><time>2026-05-02T14:37:13Z</time></trkpt><trkpt lat="43.895575692054976" lon="10.538265095976154"><ele>33.8</ele><time>2026-05-02T14:37:14Z</time></trkpt><trkpt lat="43.89555383308983" lon="10.538393110625544"><ele>34.0</ele><time>2026-05-02T14:37:15Z</time></trkpt><trkpt lat="43.89551579501298" lon="10.538507484987083"><ele>34.0</ele><time>2026-05-02T14:37:16Z</time></trkpt><trkpt lat="43.89547502957867" lon="10.538627239773572"><ele>34.0</ele><time>2026-05-02T14:37:17Z</time></trkpt><trkpt lat="43.895450918943716" lon="10.538740560822175"><ele>34.0</ele><time>2026-05-02T14:37:18Z</time></trkpt><trkpt lat="43.89542555659949" lon="10.538859570200367"><ele>34.0</ele><time>2026-05-02T14:37:19Z</time></trkpt><trkpt lat="43.89538884269857" lon="10.539032681486608"><ele>34.0</ele><time>2026-05-02T14:37:21Z</time></trkpt><trkpt lat="43.89536312619373" lon="10.539208298423253"><ele>34.333333333333336</ele><time>2026-05-02T14:37:23Z</time></trkpt><trkpt lat="43.895343637891266" lon="10.539313975995936"><ele>34.66666666666667</ele><time>2026-05-02T14:37:24Z</time></trkpt><trkpt lat="43.89532163809808" lon="10.539424354051636"><ele>35.0</ele><time>2026-05-02T14:37:25Z</time></trkpt><trkpt lat="43.895297664007686" lon="10.539536732256739"><ele>35.333333333333336</ele><time>2026-05-02T14:37:26Z</time></trkpt><trkpt lat="43.895260767008104" lon="10.539631712072728"><ele>35.666666666666664</ele><time>2026-05-02T14:37:27Z</time></trkpt><trkpt lat="43.89523862237054" lon="10.539733554486919"><ele>36.0</ele><time>2026-05-02T14:37:28Z</time></trkpt><trkpt lat="43.89521866403841" lon="10.539825618459789"><ele>36.0</ele><time>2026-05-02T14:37:29Z</time></trkpt><trkpt lat="43.895199339992594" lon="10.539915287746572"><ele>36.0</ele><time>2026-05-02T14:37:30Z</time></trkpt><trkpt lat="43.895167688518" lon="10.540062159918856"><ele>36.0</ele><time>2026-05-02T14:37:32Z</time></trkpt><trkpt lat="43.895147909018306" lon="10.54021823154174"><ele>36.0</ele><time>2026-05-02T14:37:34Z</time></trkpt><trkpt lat="43.895125608658574" lon="10.54032417739003"><ele>36.0</ele><time>2026-05-02T14:37:35Z</time></trkpt><trkpt lat="43.895094495781926" lon="10.540460134750784"><ele>36.2</ele><time>2026-05-02T14:37:36Z</time></trkpt><trkpt lat="43.89506477183971" lon="10.54059465895164"><ele>36.400000000000006</ele><time>2026-05-02T14:37:37Z</time></trkpt><trkpt lat="43.8950312673698" lon="10.540737152008369"><ele>36.6</ele><time>2026-05-02T14:37:38Z</time></trkpt><trkpt lat="43.894999627280846" lon="10.540887323641227"><ele>36.800000000000004</ele><time>2026-05-02T14:37:39Z</time></trkpt><trkpt lat="43.894964522314595" lon="10.541040135395233"><ele>37.0</ele><time>2026-05-02T14:37:40Z</time></trkpt><trkpt lat="43.894925940357965" lon="10.54120468582111"><ele>37.25</ele><time>2026-05-02T14:37:41Z</time></trkpt><trkpt lat="43.89487841549921" lon="10.541381997215112"><ele>37.5</ele><time>2026-05-02T14:37:42Z</time></trkpt><trkpt lat="43.894845429425835" lon="10.541554844122713"><ele>37.75</ele><time>2026-05-02T14:37:43Z</time></trkpt><trkpt lat="43.89481312156565" lon="10.54171632652367"><ele>38.0</ele><time>2026-05-02T14:37:44Z</time></trkpt><trkpt lat="43.89478783901772" lon="10.541861452037606"><ele>38.0</ele><time>2026-05-02T14:37:45Z</time></trkpt><trkpt lat="43.89475966435569" lon="10.542023555025066"><ele>38.0</ele><time>2026-05-02T14:37:46Z</time></trkpt><trkpt lat="43.89472808976925" lon="10.54218788497886"><ele>38.0</ele><time>2026-05-02T14:37:47Z</time></trkpt><trkpt lat="43.89463855322427" lon="10.542509626211139"><ele>38.0</ele><time>2026-05-02T14:37:48Z</time></trkpt><trkpt lat="43.8945842459893" lon="10.542757575756847"><ele>38.0</ele><time>2026-05-02T14:37:49Z</time></trkpt><trkpt lat="43.8945355638634" lon="10.542987718542271"><ele>38.0</ele><time>2026-05-02T14:37:50Z</time></trkpt><trkpt lat="43.89448890761581" lon="10.54320828390568"><ele>38.0</ele><time>2026-05-02T14:37:51Z</time></trkpt><trkpt lat="43.89444457856851" lon="10.543414976998768"><ele>38.0</ele><time>2026-05-02T14:37:52Z</time></trkpt><trkpt lat="43.89442725520631" lon="10.543617637463115"><ele>38.0</ele><time>2026-05-02T14:37:53Z</time></trkpt><trkpt lat="43.894385818217074" lon="10.543789711964866"><ele>38.0</ele><time>2026-05-02T14:37:54Z</time></trkpt><trkpt lat="43.894354661073095" lon="10.543943633134374"><ele>37.75</ele><time>2026-05-02T14:37:55Z</time></trkpt><trkpt lat="43.89432315286808" lon="10.544084061717664"><ele>37.5</ele><time>2026-05-02T14:37:56Z</time></trkpt><trkpt lat="43.89427265622343" lon="10.544216919104565"><ele>37.25</ele><time>2026-05-02T14:37:57Z</time></trkpt><trkpt lat="43.89423974949608" lon="10.544370356211124"><ele>37.0</ele><time>2026-05-02T14:37:58Z</time></trkpt><trkpt lat="43.8942026179459" lon="10.544542916953672"><ele>36.5</ele><time>2026-05-02T14:37:59Z</time></trkpt><trkpt lat="43.89414174058058" lon="10.544825869920643"><ele>36.0</ele><time>2026-05-02T14:38:00Z</time></trkpt><trkpt lat="43.89407395656547" lon="10.545140923800401"><ele>36.0</ele><time>2026-05-02T14:38:01Z</time></trkpt><trkpt lat="43.893997044409645" lon="10.545490568574518"><ele>36.0</ele><time>2026-05-02T14:38:02Z</time></trkpt><trkpt lat="43.893945373134706" lon="10.545792897260366"><ele>36.0</ele><time>2026-05-02T14:38:03Z</time></trkpt><trkpt lat="43.89388523037302" lon="10.546064390483727"><ele>36.0</ele><time>2026-05-02T14:38:04Z</time></trkpt><trkpt lat="43.89383031854165" lon="10.546323559895693"><ele>36.0</ele><time>2026-05-02T14:38:05Z</time></trkpt><trkpt lat="43.89377634844368" lon="10.546568169147756"><ele>36.0</ele><time>2026-05-02T14:38:06Z</time></trkpt><trkpt lat="43.89372409824724" lon="10.546800365708426"><ele>36.0</ele><time>2026-05-02T14:38:07Z</time></trkpt><trkpt lat="43.89367276805486" lon="10.547034484125229"><ele>36.0</ele><time>2026-05-02T14:38:08Z</time></trkpt><trkpt lat="43.89362310177648" lon="10.547273544004504"><ele>35.666666666666664</ele><time>2026-05-02T14:38:09Z</time></trkpt><trkpt lat="43.893575469634555" lon="10.547506947474735"><ele>35.33333333333333</ele><time>2026-05-02T14:38:10Z</time></trkpt><trkpt lat="43.89353402313235" lon="10.547737105873919"><ele>35.0</ele><time>2026-05-02T14:38:11Z</time></trkpt><trkpt lat="43.89347950590504" lon="10.547963365600545"><ele>35.33333333333333</ele><time>2026-05-02T14:38:12Z</time></trkpt><trkpt lat="43.89344356190269" lon="10.548189949266344"><ele>35.666666666666664</ele><time>2026-05-02T14:38:13Z</time></trkpt><trkpt lat="43.893410895496324" lon="10.548418281068054"><ele>36.0</ele><time>2026-05-02T14:38:14Z</time></trkpt><trkpt lat="43.893382382274424" lon="10.54864590559434"><ele>36.0</ele><time>2026-05-02T14:38:15Z</time></trkpt><trkpt lat="43.89335472532502" lon="10.548878352791439"><ele>36.0</ele><time>2026-05-02T14:38:16Z</time></trkpt><trkpt lat="43.89332836095367" lon="10.54911456568367"><ele>36.0</ele><time>2026-05-02T14:38:16.999Z</time></trkpt><trkpt lat="43.89330111101747" lon="10.549360134432227"><ele>36.666666666666664</ele><time>2026-05-02T14:38:17.999Z</time></trkpt><trkpt lat="43.893273434255995" lon="10.549609549673045"><ele>37.33333333333333</ele><time>2026-05-02T14:38:18.999Z</time></trkpt><trkpt lat="43.89324639644515" lon="10.549853206777735"><ele>38.0</ele><time>2026-05-02T14:38:19.999Z</time></trkpt><trkpt lat="43.89321924053989" lon="10.550097927769244"><ele>38.0</ele><time>2026-05-02T14:38:20.999Z</time></trkpt><trkpt lat="43.893195121791855" lon="10.550316323979535"><ele>38.0</ele><time>2026-05-02T14:38:21.999Z</time></trkpt><trkpt lat="43.8931718902169" lon="10.550530943111287"><ele>38.0</ele><time>2026-05-02T14:38:22.999Z</time></trkpt><trkpt lat="43.893175938565506" lon="10.550747985989092"><ele>38.25</ele><time>2026-05-02T14:38:23.999Z</time></trkpt><trkpt lat="43.89315355567294" lon="10.550951911316734"><ele>38.5</ele><time>2026-05-02T14:38:24.999Z</time></trkpt><trkpt lat="43.89312918519408" lon="10.551158973786363"><ele>38.75</ele><time>2026-05-02T14:38:25.999Z</time></trkpt><trkpt lat="43.893107713146236" lon="10.55135771329763"><ele>39.0</ele><time>2026-05-02T14:38:26.999Z</time></trkpt><trkpt lat="43.893062223780355" lon="10.551540267276327"><ele>39.0</ele><time>2026-05-02T14:38:27.999Z</time></trkpt><trkpt lat="43.89304210834801" lon="10.55171973989148"><ele>39.0</ele><time>2026-05-02T14:38:28.999Z</time></trkpt><trkpt lat="43.89302198543652" lon="10.55189927925705"><ele>39.0</ele><time>2026-05-02T14:38:29.999Z</time></trkpt><trkpt lat="43.89300143337617" lon="10.552082647517107"><ele>39.0</ele><time>2026-05-02T14:38:30.999Z</time></trkpt><trkpt lat="43.89298188944612" lon="10.552257020797509"><ele>39.0</ele><time>2026-05-02T14:38:31.999Z</time></trkpt><trkpt lat="43.892963681716104" lon="10.552421872697064"><ele>39.0</ele><time>2026-05-02T14:38:32.999Z</time></trkpt><trkpt lat="43.89294567136731" lon="10.552579750456335"><ele>39.0</ele><time>2026-05-02T14:38:33.999Z</time></trkpt><trkpt lat="43.89292877835369" lon="10.552729037371433"><ele>39.0</ele><time>2026-05-02T14:38:34.999Z</time></trkpt><trkpt lat="43.89291296177968" lon="10.55287254638676"><ele>39.0</ele><time>2026-05-02T14:38:35.999Z</time></trkpt><trkpt lat="43.892898196076686" lon="10.553005907889846"><ele>39.0</ele><time>2026-05-02T14:38:36.999Z</time></trkpt><trkpt lat="43.89288559764915" lon="10.553136019747692"><ele>39.0</ele><time>2026-05-02T14:38:37.999Z</time></trkpt><trkpt lat="43.892871108708476" lon="10.553259300471577"><ele>39.0</ele><time>2026-05-02T14:38:38.999Z</time></trkpt><trkpt lat="43.8928583542411" lon="10.553374029417242"><ele>39.0</ele><time>2026-05-02T14:38:39.999Z</time></trkpt><trkpt lat="43.8928450507954" lon="10.553486200533925"><ele>39.0</ele><time>2026-05-02T14:38:40.999Z</time></trkpt><trkpt lat="43.89283291410965" lon="10.55358373136084"><ele>39.0</ele><time>2026-05-02T14:38:41.999Z</time></trkpt><trkpt lat="43.89282176534293" lon="10.553670580429934"><ele>39.0</ele><time>2026-05-02T14:38:42.999Z</time></trkpt><trkpt lat="43.892804155059224" lon="10.553806691425867"><ele>39.0</ele><time>2026-05-02T14:38:44.999Z</time></trkpt><trkpt lat="43.892790965894434" lon="10.553908631317894"><ele>39.0</ele><time>2026-05-02T14:38:46.999Z</time></trkpt><trkpt lat="43.89277916658685" lon="10.55399982848633"><ele>39.0</ele><time>2026-05-02T14:38:49.999Z</time></trkpt><trkpt lat="43.89276306278189" lon="10.554115688878218"><ele>39.0</ele><time>2026-05-02T14:39:02Z</time></trkpt><trkpt lat="43.89275110247403" lon="10.554204326224214"><ele>39.0</ele><time>2026-05-02T14:39:03Z</time></trkpt><trkpt lat="43.89273914754893" lon="10.554292923689546"><ele>39.0</ele><time>2026-05-02T14:39:04Z</time></trkpt><trkpt lat="43.89272517449596" lon="10.554396477401097"><ele>39.0</ele><time>2026-05-02T14:39:05Z</time></trkpt><trkpt lat="43.89271129186091" lon="10.55449762728679"><ele>39.0</ele><time>2026-05-02T14:39:06Z</time></trkpt><trkpt lat="43.89269797694482" lon="10.554594547486305"><ele>39.0</ele><time>2026-05-02T14:39:07Z</time></trkpt><trkpt lat="43.892684266063306" lon="10.554694349888727"><ele>39.0</ele><time>2026-05-02T14:39:08Z</time></trkpt><trkpt lat="43.89266887744387" lon="10.554806364087913"><ele>39.0</ele><time>2026-05-02T14:39:09Z</time></trkpt><trkpt lat="43.892651714511366" lon="10.55493011015792"><ele>39.2</ele><time>2026-05-02T14:39:10Z</time></trkpt><trkpt lat="43.892632926433386" lon="10.555066898433653"><ele>39.4</ele><time>2026-05-02T14:39:11Z</time></trkpt><trkpt lat="43.89261351423354" lon="10.555215190134726"><ele>39.6</ele><time>2026-05-02T14:39:12Z</time></trkpt><trkpt lat="43.892594594154886" lon="10.555370023046999"><ele>39.8</ele><time>2026-05-02T14:39:13Z</time></trkpt><trkpt lat="43.892578338638266" lon="10.555523762524269"><ele>40.0</ele><time>2026-05-02T14:39:14Z</time></trkpt><trkpt lat="43.892564655884996" lon="10.555653169590608"><ele>40.0</ele><time>2026-05-02T14:39:15Z</time></trkpt><trkpt lat="43.89255271855415" lon="10.555771100730748"><ele>40.0</ele><time>2026-05-02T14:39:16Z</time></trkpt><trkpt lat="43.89256483045419" lon="10.55589394790311"><ele>40.0</ele><time>2026-05-02T14:39:17Z</time></trkpt><trkpt lat="43.89255347516762" lon="10.556015059759662"><ele>40.0</ele><time>2026-05-02T14:39:18Z</time></trkpt><trkpt lat="43.89253967725831" lon="10.556150284790746"><ele>40.0</ele><time>2026-05-02T14:39:19Z</time></trkpt><trkpt lat="43.892518829437016" lon="10.556342302818994"><ele>39.66666666666667</ele><time>2026-05-02T14:39:20Z</time></trkpt><trkpt lat="43.89245894957828" lon="10.556580260731721"><ele>39.333333333333336</ele><time>2026-05-02T14:39:21Z</time></trkpt><trkpt lat="43.892421603737965" lon="10.556871981168962"><ele>39.0</ele><time>2026-05-02T14:39:22Z</time></trkpt><trkpt lat="43.89238434101886" lon="10.5571554767254"><ele>38.666666666666664</ele><time>2026-05-02T14:39:23Z</time></trkpt><trkpt lat="43.892347366248885" lon="10.557418666594712"><ele>38.33333333333333</ele><time>2026-05-02T14:39:24Z</time></trkpt><trkpt lat="43.8923078298137" lon="10.55766342950798"><ele>38.0</ele><time>2026-05-02T14:39:25Z</time></trkpt><trkpt lat="43.892261817875585" lon="10.557874690073728"><ele>38.0</ele><time>2026-05-02T14:39:26Z</time></trkpt><trkpt lat="43.89221266219806" lon="10.558046219529196"><ele>38.0</ele><time>2026-05-02T14:39:27Z</time></trkpt><trkpt lat="43.892157728946636" lon="10.558194804626808"><ele>38.0</ele><time>2026-05-02T14:39:28Z</time></trkpt><trkpt lat="43.89209206395138" lon="10.55833493514784"><ele>38.0</ele><time>2026-05-02T14:39:29Z</time></trkpt><trkpt lat="43.892012119011056" lon="10.558452732853693"><ele>38.0</ele><time>2026-05-02T14:39:30Z</time></trkpt><trkpt lat="43.89191701055702" lon="10.558575752754427"><ele>38.0</ele><time>2026-05-02T14:39:31Z</time></trkpt><trkpt lat="43.89181572338694" lon="10.5586860341772"><ele>38.0</ele><time>2026-05-02T14:39:32Z</time></trkpt><trkpt lat="43.89171027568291" lon="10.558776875463538"><ele>38.0</ele><time>2026-05-02T14:39:33Z</time></trkpt><trkpt lat="43.8915998199998" lon="10.55886168759513"><ele>37.75</ele><time>2026-05-02T14:39:34Z</time></trkpt><trkpt lat="43.89149007156821" lon="10.558945295389437"><ele>37.5</ele><time>2026-05-02T14:39:35Z</time></trkpt><trkpt lat="43.89136826241799" lon="10.559038091385846"><ele>37.25</ele><time>2026-05-02T14:39:36Z</time></trkpt><trkpt lat="43.891236299157526" lon="10.559138624439193"><ele>37.0</ele><time>2026-05-02T14:39:37Z</time></trkpt><trkpt lat="43.891081863932165" lon="10.559256275330956"><ele>37.0</ele><time>2026-05-02T14:39:38Z</time></trkpt><trkpt lat="43.89091684910507" lon="10.559400320758385"><ele>37.0</ele><time>2026-05-02T14:39:39Z</time></trkpt><trkpt lat="43.89074062465604" lon="10.559531066431445"><ele>37.0</ele><time>2026-05-02T14:39:40Z</time></trkpt><trkpt lat="43.890571515313795" lon="10.559669267682677"><ele>36.66666666666667</ele><time>2026-05-02T14:39:41Z</time></trkpt><trkpt lat="43.890411659982874" lon="10.559799423512173"><ele>36.333333333333336</ele><time>2026-05-02T14:39:42Z</time></trkpt><trkpt lat="43.89025107261601" lon="10.55991784804861"><ele>36.0</ele><time>2026-05-02T14:39:43Z</time></trkpt><trkpt lat="43.890096998365614" lon="10.560032146879314"><ele>35.666666666666664</ele><time>2026-05-02T14:39:44Z</time></trkpt><trkpt lat="43.889959457747004" lon="10.560137022016537"><ele>35.33333333333333</ele><time>2026-05-02T14:39:45Z</time></trkpt><trkpt lat="43.88980344667675" lon="10.560246588518531"><ele>35.0</ele><time>2026-05-02T14:39:46Z</time></trkpt><trkpt lat="43.889668798956194" lon="10.560352937507949"><ele>35.0</ele><time>2026-05-02T14:39:47Z</time></trkpt><trkpt lat="43.88954163493358" lon="10.560457971940254"><ele>35.0</ele><time>2026-05-02T14:39:48Z</time></trkpt><trkpt lat="43.88942190943978" lon="10.56055354793349"><ele>35.0</ele><time>2026-05-02T14:39:49Z</time></trkpt><trkpt lat="43.88931203084508" lon="10.560636051663318"><ele>35.0</ele><time>2026-05-02T14:39:50Z</time></trkpt><trkpt lat="43.889203636203774" lon="10.560724014345261"><ele>34.75</ele><time>2026-05-02T14:39:51Z</time></trkpt><trkpt lat="43.88908590947303" lon="10.560816312229827"><ele>34.5</ele><time>2026-05-02T14:39:52Z</time></trkpt><trkpt lat="43.88895885131072" lon="10.560912663872012"><ele>34.25</ele><time>2026-05-02T14:39:53Z</time></trkpt><trkpt lat="43.888829326283435" lon="10.56101440731639"><ele>34.0</ele><time>2026-05-02T14:39:54Z</time></trkpt><trkpt lat="43.8886930607967" lon="10.561125395544808"><ele>33.66666666666667</ele><time>2026-05-02T14:39:55Z</time></trkpt><trkpt lat="43.888541292051414" lon="10.561219628437497"><ele>33.333333333333336</ele><time>2026-05-02T14:39:56Z</time></trkpt><trkpt lat="43.88840313219376" lon="10.561327540428945"><ele>33.0</ele><time>2026-05-02T14:39:57Z</time></trkpt><trkpt lat="43.888271824481315" lon="10.561422963656009"><ele>33.0</ele><time>2026-05-02T14:39:58Z</time></trkpt><trkpt lat="43.888141387456784" lon="10.561531248856076"><ele>33.0</ele><time>2026-05-02T14:39:58.999Z</time></trkpt><trkpt lat="43.88801236735156" lon="10.561630935023839"><ele>33.0</ele><time>2026-05-02T14:39:59.999Z</time></trkpt><trkpt lat="43.88788088952441" lon="10.56173252012362"><ele>33.0</ele><time>2026-05-02T14:40:00.999Z</time></trkpt><trkpt lat="43.88773864902067" lon="10.561842420915314"><ele>33.0</ele><time>2026-05-02T14:40:01.999Z</time></trkpt><trkpt lat="43.887574339506905" lon="10.561969373111507"><ele>33.0</ele><time>2026-05-02T14:40:02.999Z</time></trkpt><trkpt lat="43.88738745505591" lon="10.562113767616326"><ele>32.666666666666664</ele><time>2026-05-02T14:40:03.999Z</time></trkpt><trkpt lat="43.887195694191384" lon="10.5622619298434"><ele>32.33333333333333</ele><time>2026-05-02T14:40:04.999Z</time></trkpt><trkpt lat="43.88700827250862" lon="10.5624067394337"><ele>32.0</ele><time>2026-05-02T14:40:05.999Z</time></trkpt><trkpt lat="43.88682651558303" lon="10.56254665323543"><ele>32.0</ele><time>2026-05-02T14:40:06.999Z</time></trkpt><trkpt lat="43.8866431439884" lon="10.562687473815322"><ele>32.0</ele><time>2026-05-02T14:40:07.999Z</time></trkpt><trkpt lat="43.88646309813927" lon="10.562828144133285"><ele>32.0</ele><time>2026-05-02T14:40:08.999Z</time></trkpt><trkpt lat="43.88629127322832" lon="10.562978203735094"><ele>31.666666666666664</ele><time>2026-05-02T14:40:09.999Z</time></trkpt><trkpt lat="43.88610952281755" lon="10.563114667643056"><ele>31.333333333333336</ele><time>2026-05-02T14:40:10.999Z</time></trkpt><trkpt lat="43.88593507753614" lon="10.56325496692086"><ele>31.0</ele><time>2026-05-02T14:40:11.999Z</time></trkpt><trkpt lat="43.885756993511535" lon="10.563388446536733"><ele>30.666666666666668</ele><time>2026-05-02T14:40:12.999Z</time></trkpt><trkpt lat="43.885588195264326" lon="10.563523121468664"><ele>30.333333333333336</ele><time>2026-05-02T14:40:13.999Z</time></trkpt><trkpt lat="43.885420719444085" lon="10.563654651975588"><ele>30.0</ele><time>2026-05-02T14:40:14.999Z</time></trkpt><trkpt lat="43.885260896115405" lon="10.563781791804274"><ele>29.666666666666664</ele><time>2026-05-02T14:40:15.999Z</time></trkpt><trkpt lat="43.885096240853095" lon="10.563906591337176"><ele>29.333333333333332</ele><time>2026-05-02T14:40:16.999Z</time></trkpt><trkpt lat="43.88494182871194" lon="10.564027458732609"><ele>29.0</ele><time>2026-05-02T14:40:17.999Z</time></trkpt><trkpt lat="43.88479067434914" lon="10.564139672489471"><ele>29.0</ele><time>2026-05-02T14:40:18.999Z</time></trkpt><trkpt lat="43.884649088419344" lon="10.56425698138803"><ele>29.0</ele><time>2026-05-02T14:40:19.999Z</time></trkpt><trkpt lat="43.88450697705033" lon="10.564366230081749"><ele>29.0</ele><time>2026-05-02T14:40:20.999Z</time></trkpt><trkpt lat="43.8843659250921" lon="10.564475853391277"><ele>29.333333333333332</ele><time>2026-05-02T14:40:21.999Z</time></trkpt><trkpt lat="43.88421955396954" lon="10.564564108676482"><ele>29.666666666666664</ele><time>2026-05-02T14:40:22.999Z</time></trkpt><trkpt lat="43.884075646794265" lon="10.564675782240933"><ele>30.0</ele><time>2026-05-02T14:40:23.999Z</time></trkpt><trkpt lat="43.88392614396123" lon="10.56479179810232"><ele>30.0</ele><time>2026-05-02T14:40:24.999Z</time></trkpt><trkpt lat="43.88376958001454" lon="10.564913293463736"><ele>30.0</ele><time>2026-05-02T14:40:25.999Z</time></trkpt><trkpt lat="43.88359631988982" lon="10.565047745263401"><ele>30.0</ele><time>2026-05-02T14:40:26.999Z</time></trkpt><trkpt lat="43.88342316166464" lon="10.565182117948885"><ele>30.0</ele><time>2026-05-02T14:40:27.999Z</time></trkpt><trkpt lat="43.88323486009446" lon="10.565328242072708"><ele>30.0</ele><time>2026-05-02T14:40:28.999Z</time></trkpt><trkpt lat="43.88305324274379" lon="10.565469179156887"><ele>30.0</ele><time>2026-05-02T14:40:29.999Z</time></trkpt><trkpt lat="43.88288297033239" lon="10.565601312451602"><ele>30.0</ele><time>2026-05-02T14:40:30.999Z</time></trkpt><trkpt lat="43.882727385293364" lon="10.565747370824676"><ele>30.0</ele><time>2026-05-02T14:40:31.999Z</time></trkpt><trkpt lat="43.88256031680665" lon="10.565875177644541"><ele>30.0</ele><time>2026-05-02T14:40:32.999Z</time></trkpt><trkpt lat="43.88237855451171" lon="10.566010924317263"><ele>30.0</ele><time>2026-05-02T14:40:33.999Z</time></trkpt><trkpt lat="43.88220370821202" lon="10.566140523476076"><ele>30.0</ele><time>2026-05-02T14:40:34.999Z</time></trkpt><trkpt lat="43.88203027414908" lon="10.566278121239439"><ele>30.0</ele><time>2026-05-02T14:40:35.999Z</time></trkpt><trkpt lat="43.88185166190597" lon="10.56641729483201"><ele>29.666666666666664</ele><time>2026-05-02T14:40:36.999Z</time></trkpt><trkpt lat="43.88167498255304" lon="10.566556965306676"><ele>29.333333333333332</ele><time>2026-05-02T14:40:37.999Z</time></trkpt><trkpt lat="43.8815008916212" lon="10.566695433623579"><ele>29.0</ele><time>2026-05-02T14:40:38.999Z</time></trkpt><trkpt lat="43.881323791008235" lon="10.566828674983336"><ele>29.0</ele><time>2026-05-02T14:40:39.999Z</time></trkpt><trkpt lat="43.88115345079474" lon="10.566962392409438"><ele>29.0</ele><time>2026-05-02T14:40:40.999Z</time></trkpt><trkpt lat="43.88098809452547" lon="10.567093843910115"><ele>29.0</ele><time>2026-05-02T14:40:41.999Z</time></trkpt><trkpt lat="43.88082340307033" lon="10.567221284680263"><ele>28.0</ele><time>2026-05-02T14:40:42.999Z</time></trkpt><trkpt lat="43.88064543763752" lon="10.567355627387139"><ele>27.0</ele><time>2026-05-02T14:40:43.999Z</time></trkpt><trkpt lat="43.880470879612766" lon="10.567492957071842"><ele>26.0</ele><time>2026-05-02T14:40:44.999Z</time></trkpt><trkpt lat="43.8803043145618" lon="10.567621276586062"><ele>26.0</ele><time>2026-05-02T14:40:45.999Z</time></trkpt><trkpt lat="43.880143118611066" lon="10.56774609145994"><ele>26.0</ele><time>2026-05-02T14:40:46.999Z</time></trkpt><trkpt lat="43.879976341412835" lon="10.567856906317456"><ele>26.0</ele><time>2026-05-02T14:40:47.999Z</time></trkpt><trkpt lat="43.8798190930212" lon="10.567998810406461"><ele>26.0</ele><time>2026-05-02T14:40:48.999Z</time></trkpt><trkpt lat="43.87967796505738" lon="10.568104788362817"><ele>26.0</ele><time>2026-05-02T14:40:49.999Z</time></trkpt><trkpt lat="43.87956098584872" lon="10.568197183830451"><ele>26.0</ele><time>2026-05-02T14:40:50.999Z</time></trkpt><trkpt lat="43.87945595776463" lon="10.568278112169562"><ele>26.0</ele><time>2026-05-02T14:40:51.999Z</time></trkpt><trkpt lat="43.87936371861331" lon="10.568351944621504"><ele>26.0</ele><time>2026-05-02T14:40:52.999Z</time></trkpt><trkpt lat="43.879278023935676" lon="10.56841913123218"><ele>26.0</ele><time>2026-05-02T14:40:53.999Z</time></trkpt><trkpt lat="43.879189836492884" lon="10.568462997655365"><ele>26.0</ele><time>2026-05-02T14:40:54.999Z</time></trkpt><trkpt lat="43.879115847854344" lon="10.568541071761873"><ele>26.0</ele><time>2026-05-02T14:40:55.999Z</time></trkpt><trkpt lat="43.87903962667183" lon="10.568602252973061"><ele>26.0</ele><time>2026-05-02T14:40:56.999Z</time></trkpt><trkpt lat="43.8789605375227" lon="10.568663486104132"><ele>25.999999999999996</ele><time>2026-05-02T14:40:57.999Z</time></trkpt><trkpt lat="43.87887836662414" lon="10.568719323577366"><ele>26.0</ele><time>2026-05-02T14:40:58.999Z</time></trkpt><trkpt lat="43.878801598900196" lon="10.5687808265829"><ele>26.0</ele><time>2026-05-02T14:41:00Z</time></trkpt><trkpt lat="43.878724194455" lon="10.568836721239743"><ele>26.0</ele><time>2026-05-02T14:41:01Z</time></trkpt><trkpt lat="43.87864893288841" lon="10.568891540190348"><ele>25.999999999999996</ele><time>2026-05-02T14:41:02Z</time></trkpt><trkpt lat="43.878577640100545" lon="10.568952826045706"><ele>26.0</ele><time>2026-05-02T14:41:03Z</time></trkpt><trkpt lat="43.87851028834705" lon="10.569005616530287"><ele>25.999999999999996</ele><time>2026-05-02T14:41:04Z</time></trkpt><trkpt lat="43.87844528042151" lon="10.569056924193742"><ele>26.0</ele><time>2026-05-02T14:41:05Z</time></trkpt><trkpt lat="43.87838103438815" lon="10.569111736462904"><ele>26.0</ele><time>2026-05-02T14:41:06Z</time></trkpt><trkpt lat="43.878303962930346" lon="10.569168507084619"><ele>26.0</ele><time>2026-05-02T14:41:07Z</time></trkpt><trkpt lat="43.87821256015668" lon="10.569221694707974"><ele>25.999999999999996</ele><time>2026-05-02T14:41:08Z</time></trkpt><trkpt lat="43.87813434527381" lon="10.569293525999969"><ele>26.0</ele><time>2026-05-02T14:41:09Z</time></trkpt><trkpt lat="43.878052534167146" lon="10.56935956281574"><ele>26.0</ele><time>2026-05-02T14:41:10Z</time></trkpt><trkpt lat="43.87796273369453" lon="10.56943305388867"><ele>26.0</ele><time>2026-05-02T14:41:11Z</time></trkpt><trkpt lat="43.87786437377184" lon="10.56951282494757"><ele>26.0</ele><time>2026-05-02T14:41:12Z</time></trkpt><trkpt lat="43.8777588285059" lon="10.569596838405863"><ele>26.0</ele><time>2026-05-02T14:41:13Z</time></trkpt><trkpt lat="43.8776504089644" lon="10.569685310970565"><ele>26.0</ele><time>2026-05-02T14:41:14Z</time></trkpt><trkpt lat="43.877539075898696" lon="10.569748064676675"><ele>26.0</ele><time>2026-05-02T14:41:15Z</time></trkpt><trkpt lat="43.877439594272765" lon="10.569853950332046"><ele>26.0</ele><time>2026-05-02T14:41:16Z</time></trkpt><trkpt lat="43.87733300912448" lon="10.569933581497267"><ele>26.0</ele><time>2026-05-02T14:41:17Z</time></trkpt><trkpt lat="43.877225374912314" lon="10.570018752556608"><ele>26.0</ele><time>2026-05-02T14:41:18Z</time></trkpt><trkpt lat="43.87712074468235" lon="10.570106190255155"><ele>26.0</ele><time>2026-05-02T14:41:19Z</time></trkpt><trkpt lat="43.877007170687946" lon="10.570161009332773"><ele>26.0</ele><time>2026-05-02T14:41:20Z</time></trkpt><trkpt lat="43.876892475589734" lon="10.570249443599907"><ele>26.0</ele><time>2026-05-02T14:41:21Z</time></trkpt><trkpt lat="43.876771153333834" lon="10.570342908707214"><ele>25.333333333333332</ele><time>2026-05-02T14:41:22Z</time></trkpt><trkpt lat="43.87664460799049" lon="10.570440388812335"><ele>24.666666666666664</ele><time>2026-05-02T14:41:23Z</time></trkpt><trkpt lat="43.876486433145274" lon="10.570562858865014"><ele>24.0</ele><time>2026-05-02T14:41:24Z</time></trkpt><trkpt lat="43.87629678768748" lon="10.570710485889"><ele>24.0</ele><time>2026-05-02T14:41:25Z</time></trkpt><trkpt lat="43.87613879181665" lon="10.570870557314466"><ele>24.0</ele><time>2026-05-02T14:41:26Z</time></trkpt><trkpt lat="43.87599536968247" lon="10.570967529535718"><ele>24.0</ele><time>2026-05-02T14:41:27Z</time></trkpt><trkpt lat="43.87587818845596" lon="10.571055883878014"><ele>24.25</ele><time>2026-05-02T14:41:28Z</time></trkpt><trkpt lat="43.87577551388328" lon="10.571137879639636"><ele>24.5</ele><time>2026-05-02T14:41:29Z</time></trkpt><trkpt lat="43.875674763840266" lon="10.571218228027195"><ele>24.75</ele><time>2026-05-02T14:41:30Z</time></trkpt><trkpt lat="43.875568358435714" lon="10.571301629711535"><ele>25.0</ele><time>2026-05-02T14:41:31Z</time></trkpt><trkpt lat="43.87545717678281" lon="10.5713921377747"><ele>25.0</ele><time>2026-05-02T14:41:32Z</time></trkpt><trkpt lat="43.87533933002538" lon="10.571481254143315"><ele>25.0</ele><time>2026-05-02T14:41:33Z</time></trkpt><trkpt lat="43.87521881853367" lon="10.571574428197206"><ele>25.0</ele><time>2026-05-02T14:41:34Z</time></trkpt><trkpt lat="43.87509377321617" lon="10.571667092890994"><ele>25.0</ele><time>2026-05-02T14:41:35Z</time></trkpt><trkpt lat="43.874967392889644" lon="10.571753607357975"><ele>25.25</ele><time>2026-05-02T14:41:36Z</time></trkpt><trkpt lat="43.87484821740501" lon="10.57185264527075"><ele>25.5</ele><time>2026-05-02T14:41:37Z</time></trkpt><trkpt lat="43.8747294244481" lon="10.571945483826212"><ele>25.75</ele><time>2026-05-02T14:41:38Z</time></trkpt><trkpt lat="43.874607817670245" lon="10.572040346500193"><ele>26.0</ele><time>2026-05-02T14:41:39Z</time></trkpt><trkpt lat="43.874480203135626" lon="10.572141429025256"><ele>26.0</ele><time>2026-05-02T14:41:39.999Z</time></trkpt><trkpt lat="43.87434516551129" lon="10.572242828314396"><ele>26.0</ele><time>2026-05-02T14:41:40.999Z</time></trkpt><trkpt lat="43.87419488861784" lon="10.572361250303514"><ele>26.0</ele><time>2026-05-02T14:41:41.999Z</time></trkpt><trkpt lat="43.87402190734476" lon="10.572501772919429"><ele>26.0</ele><time>2026-05-02T14:41:42.999Z</time></trkpt><trkpt lat="43.8738427091279" lon="10.572625575380258"><ele>26.0</ele><time>2026-05-02T14:41:43.999Z</time></trkpt><trkpt lat="43.873682699823306" lon="10.572737138538757"><ele>26.0</ele><time>2026-05-02T14:41:44.999Z</time></trkpt><trkpt lat="43.87353876570321" lon="10.572846275744062"><ele>25.25</ele><time>2026-05-02T14:41:45.999Z</time></trkpt><trkpt lat="43.87340426254296" lon="10.57295567007"><ele>24.5</ele><time>2026-05-02T14:41:46.999Z</time></trkpt><trkpt lat="43.87327553521197" lon="10.573055598129622"><ele>23.75</ele><time>2026-05-02T14:41:47.999Z</time></trkpt><trkpt lat="43.87315212734717" lon="10.57315262868755"><ele>23.0</ele><time>2026-05-02T14:41:48.999Z</time></trkpt><trkpt lat="43.873031018670986" lon="10.573244731171902"><ele>23.0</ele><time>2026-05-02T14:41:49.999Z</time></trkpt><trkpt lat="43.87291491881091" lon="10.57333390659419"><ele>23.0</ele><time>2026-05-02T14:41:50.999Z</time></trkpt><trkpt lat="43.87280356345273" lon="10.573421013479537"><ele>23.0</ele><time>2026-05-02T14:41:51.999Z</time></trkpt><trkpt lat="43.87270036332597" lon="10.573502744589355"><ele>23.0</ele><time>2026-05-02T14:41:52.999Z</time></trkpt><trkpt lat="43.872595891424695" lon="10.573581924127307"><ele>22.799999999999997</ele><time>2026-05-02T14:41:53.999Z</time></trkpt><trkpt lat="43.87249994126672" lon="10.573659963799281"><ele>22.6</ele><time>2026-05-02T14:41:54.999Z</time></trkpt><trkpt lat="43.87241137207951" lon="10.573728973241916"><ele>22.4</ele><time>2026-05-02T14:41:55.999Z</time></trkpt><trkpt lat="43.872329376707455" lon="10.57379504446612"><ele>22.200000000000003</ele><time>2026-05-02T14:41:56.999Z</time></trkpt><trkpt lat="43.87225172105002" lon="10.573860572922351"><ele>22.0</ele><time>2026-05-02T14:41:57.999Z</time></trkpt><trkpt lat="43.872174152687" lon="10.573924831074653"><ele>22.0</ele><time>2026-05-02T14:41:58.999Z</time></trkpt><trkpt lat="43.87210201605341" lon="10.573985875050477"><ele>22.0</ele><time>2026-05-02T14:41:59.999Z</time></trkpt><trkpt lat="43.87202937128604" lon="10.574043294409222"><ele>22.0</ele><time>2026-05-02T14:42:00.999Z</time></trkpt><trkpt lat="43.87195855574921" lon="10.574092209041845"><ele>22.0</ele><time>2026-05-02T14:42:01.999Z</time></trkpt><trkpt lat="43.871894917112776" lon="10.574142518568477"><ele>22.0</ele><time>2026-05-02T14:42:02.999Z</time></trkpt><trkpt lat="43.8718298963854" lon="10.57419398210996"><ele>22.0</ele><time>2026-05-02T14:42:03.999Z</time></trkpt><trkpt lat="43.87176459634568" lon="10.574242930488225"><ele>22.0</ele><time>2026-05-02T14:42:04.999Z</time></trkpt><trkpt lat="43.87170438831989" lon="10.574285635207978"><ele>22.0</ele><time>2026-05-02T14:42:05.999Z</time></trkpt><trkpt lat="43.87159630408716" lon="10.574374689667403"><ele>22.0</ele><time>2026-05-02T14:42:07.999Z</time></trkpt><trkpt lat="43.87148860226602" lon="10.574452705308692"><ele>22.0</ele><time>2026-05-02T14:42:09.999Z</time></trkpt><trkpt lat="43.871401842740894" lon="10.574518664911066"><ele>22.0</ele><time>2026-05-02T14:42:11.999Z</time></trkpt><trkpt lat="43.87130696886195" lon="10.574596711896982"><ele>22.0</ele><time>2026-05-02T14:42:13.999Z</time></trkpt><trkpt lat="43.87124536437314" lon="10.57464176951024"><ele>22.0</ele><time>2026-05-02T14:42:14.999Z</time></trkpt><trkpt lat="43.871169930075276" lon="10.57470404667409"><ele>22.0</ele><time>2026-05-02T14:42:15.999Z</time></trkpt><trkpt lat="43.87107458844209" lon="10.57477989005306"><ele>22.0</ele><time>2026-05-02T14:42:16.999Z</time></trkpt><trkpt lat="43.87098229335494" lon="10.574851694884346"><ele>22.0</ele><time>2026-05-02T14:42:17.999Z</time></trkpt><trkpt lat="43.8709003204335" lon="10.574914696782413"><ele>22.0</ele><time>2026-05-02T14:42:18.999Z</time></trkpt><trkpt lat="43.870792351482706" lon="10.574993851097242"><ele>22.0</ele><time>2026-05-02T14:42:19.999Z</time></trkpt><trkpt lat="43.870679245909976" lon="10.575083403823278"><ele>22.0</ele><time>2026-05-02T14:42:20.999Z</time></trkpt><trkpt lat="43.8705652391034" lon="10.575173550088667"><ele>22.0</ele><time>2026-05-02T14:42:21.999Z</time></trkpt><trkpt lat="43.8704521471332" lon="10.575266246626615"><ele>22.0</ele><time>2026-05-02T14:42:22.999Z</time></trkpt><trkpt lat="43.87034609505118" lon="10.575328383588385"><ele>22.0</ele><time>2026-05-02T14:42:23.999Z</time></trkpt><trkpt lat="43.870245396491406" lon="10.575406387319749"><ele>22.0</ele><time>2026-05-02T14:42:24.999Z</time></trkpt><trkpt lat="43.87013982022535" lon="10.575488257362183"><ele>22.0</ele><time>2026-05-02T14:42:25.999Z</time></trkpt><trkpt lat="43.870052504111904" lon="10.575555987257491"><ele>22.0</ele><time>2026-05-02T14:42:26.999Z</time></trkpt><trkpt lat="43.869886056890316" lon="10.57568509805096"><ele>22.0</ele><time>2026-05-02T14:42:27.999Z</time></trkpt><trkpt lat="43.869765307117234" lon="10.575800948532098"><ele>22.0</ele><time>2026-05-02T14:42:28.999Z</time></trkpt><trkpt lat="43.86964018618377" lon="10.575901154987488"><ele>22.0</ele><time>2026-05-02T14:42:29.999Z</time></trkpt><trkpt lat="43.86951205507888" lon="10.575975130168427"><ele>22.0</ele><time>2026-05-02T14:42:30.999Z</time></trkpt><trkpt lat="43.86939636702215" lon="10.576064835247214"><ele>22.0</ele><time>2026-05-02T14:42:31.999Z</time></trkpt><trkpt lat="43.86928480160856" lon="10.576175430937498"><ele>22.0</ele><time>2026-05-02T14:42:32.999Z</time></trkpt><trkpt lat="43.869165220675455" lon="10.576261665497357"><ele>21.75</ele><time>2026-05-02T14:42:33.999Z</time></trkpt><trkpt lat="43.869048047064844" lon="10.576353209981761"><ele>21.5</ele><time>2026-05-02T14:42:34.999Z</time></trkpt><trkpt lat="43.86893201900743" lon="10.576444954624415"><ele>21.25</ele><time>2026-05-02T14:42:35.999Z</time></trkpt><trkpt lat="43.868813279869066" lon="10.576537403396989"><ele>21.0</ele><time>2026-05-02T14:42:36.999Z</time></trkpt><trkpt lat="43.86868881400082" lon="10.57663253188676"><ele>21.0</ele><time>2026-05-02T14:42:37.999Z</time></trkpt><trkpt lat="43.86856023328326" lon="10.5767316449437"><ele>21.0</ele><time>2026-05-02T14:42:38.999Z</time></trkpt><trkpt lat="43.868422336202585" lon="10.576845963386724"><ele>21.0</ele><time>2026-05-02T14:42:39.999Z</time></trkpt><trkpt lat="43.86823633401823" lon="10.576963580609197"><ele>21.666666666666668</ele><time>2026-05-02T14:42:40.999Z</time></trkpt><trkpt lat="43.868045188282" lon="10.577111259588326"><ele>22.333333333333336</ele><time>2026-05-02T14:42:41.999Z</time></trkpt><trkpt lat="43.86787142987927" lon="10.577258620480448"><ele>23.0</ele><time>2026-05-02T14:42:42.999Z</time></trkpt><trkpt lat="43.86770817196446" lon="10.5773856861265"><ele>22.333333333333336</ele><time>2026-05-02T14:42:43.999Z</time></trkpt><trkpt lat="43.86755499331353" lon="10.577505271410592"><ele>21.666666666666668</ele><time>2026-05-02T14:42:44.999Z</time></trkpt><trkpt lat="43.86741032428978" lon="10.577621045802646"><ele>21.0</ele><time>2026-05-02T14:42:45.999Z</time></trkpt><trkpt lat="43.86726655461645" lon="10.577735449552128"><ele>21.0</ele><time>2026-05-02T14:42:46.999Z</time></trkpt><trkpt lat="43.867139263690575" lon="10.57783338773389"><ele>21.0</ele><time>2026-05-02T14:42:47.999Z</time></trkpt><trkpt lat="43.86701689626182" lon="10.577925831548676"><ele>21.0</ele><time>2026-05-02T14:42:48.999Z</time></trkpt><trkpt lat="43.866913101848674" lon="10.577996562040735"><ele>21.0</ele><time>2026-05-02T14:42:49.999Z</time></trkpt><trkpt lat="43.866822970528226" lon="10.578064958502596"><ele>21.0</ele><time>2026-05-02T14:42:50.999Z</time></trkpt><trkpt lat="43.86673823437141" lon="10.578131933389944"><ele>21.0</ele><time>2026-05-02T14:42:51.999Z</time></trkpt><trkpt lat="43.866458054049644" lon="10.578356367619547"><ele>21.0</ele><time>2026-05-02T14:42:52.999Z</time></trkpt><trkpt lat="43.86632814744972" lon="10.578459796255688"><ele>21.0</ele><time>2026-05-02T14:42:53.999Z</time></trkpt><trkpt lat="43.866200616596544" lon="10.578562583633463"><ele>21.0</ele><time>2026-05-02T14:42:54.999Z</time></trkpt><trkpt lat="43.86606674041097" lon="10.578657934258366"><ele>21.0</ele><time>2026-05-02T14:42:55.999Z</time></trkpt><trkpt lat="43.865936148003016" lon="10.57876229700061"><ele>21.0</ele><time>2026-05-02T14:42:56.999Z</time></trkpt><trkpt lat="43.86580191053283" lon="10.57887017831643"><ele>20.333333333333332</ele><time>2026-05-02T14:42:57.999Z</time></trkpt><trkpt lat="43.86566464777486" lon="10.578980290066095"><ele>19.666666666666664</ele><time>2026-05-02T14:42:58.999Z</time></trkpt><trkpt lat="43.8655236000183" lon="10.579092649063686"><ele>19.0</ele><time>2026-05-02T14:42:59.999Z</time></trkpt><trkpt lat="43.865380444819586" lon="10.579177784522885"><ele>19.0</ele><time>2026-05-02T14:43:00.999Z</time></trkpt><trkpt lat="43.86525618867018" lon="10.579290435649567"><ele>19.0</ele><time>2026-05-02T14:43:01.999Z</time></trkpt><trkpt lat="43.86512565133378" lon="10.57939632140171"><ele>19.0</ele><time>2026-05-02T14:43:02.999Z</time></trkpt><trkpt lat="43.86499476241831" lon="10.579488053934632"><ele>19.0</ele><time>2026-05-02T14:43:03.999Z</time></trkpt><trkpt lat="43.864866010898126" lon="10.57959231272068"><ele>18.75</ele><time>2026-05-02T14:43:04.999Z</time></trkpt><trkpt lat="43.86473804943087" lon="10.579692967582499"><ele>18.5</ele><time>2026-05-02T14:43:05.999Z</time></trkpt><trkpt lat="43.864611990768545" lon="10.579790511420962"><ele>18.25</ele><time>2026-05-02T14:43:06.999Z</time></trkpt><trkpt lat="43.864482025365675" lon="10.579892268531697"><ele>18.0</ele><time>2026-05-02T14:43:07.999Z</time></trkpt><trkpt lat="43.86434926597874" lon="10.579987341571144"><ele>18.0</ele><time>2026-05-02T14:43:08.999Z</time></trkpt><trkpt lat="43.86421669335848" lon="10.580093456132575"><ele>18.0</ele><time>2026-05-02T14:43:09.999Z</time></trkpt><trkpt lat="43.86408342565368" lon="10.58020213076252"><ele>18.0</ele><time>2026-05-02T14:43:10.999Z</time></trkpt><trkpt lat="43.863946890805394" lon="10.580310229760174"><ele>18.25</ele><time>2026-05-02T14:43:11.999Z</time></trkpt><trkpt lat="43.86380996344964" lon="10.580419060843298"><ele>18.5</ele><time>2026-05-02T14:43:12.999Z</time></trkpt><trkpt lat="43.86368225304681" lon="10.580518448911551"><ele>18.75</ele><time>2026-05-02T14:43:13.999Z</time></trkpt><trkpt lat="43.86355913263899" lon="10.580615968333788"><ele>19.0</ele><time>2026-05-02T14:43:14.999Z</time></trkpt><trkpt lat="43.86343679348165" lon="10.580706467104667"><ele>19.0</ele><time>2026-05-02T14:43:15.999Z</time></trkpt><trkpt lat="43.86330947687686" lon="10.580804991360656"><ele>19.0</ele><time>2026-05-02T14:43:16.999Z</time></trkpt><trkpt lat="43.863179669394675" lon="10.580905679181445"><ele>19.0</ele><time>2026-05-02T14:43:17.999Z</time></trkpt><trkpt lat="43.86304779130089" lon="10.581005845330422"><ele>19.0</ele><time>2026-05-02T14:43:18.999Z</time></trkpt><trkpt lat="43.862917583898316" lon="10.581100830408978"><ele>18.75</ele><time>2026-05-02T14:43:19.999Z</time></trkpt><trkpt lat="43.862789018746625" lon="10.581197449856537"><ele>18.5</ele><time>2026-05-02T14:43:20.999Z</time></trkpt><trkpt lat="43.86266457588775" lon="10.581299327408889"><ele>18.25</ele><time>2026-05-02T14:43:21.999Z</time></trkpt><trkpt lat="43.86253372105821" lon="10.58140164115313"><ele>18.0</ele><time>2026-05-02T14:43:22.999Z</time></trkpt><trkpt lat="43.86240560062455" lon="10.581501639379136"><ele>18.0</ele><time>2026-05-02T14:43:23.999Z</time></trkpt><trkpt lat="43.862281794451796" lon="10.58160179665362"><ele>18.0</ele><time>2026-05-02T14:43:24.999Z</time></trkpt><trkpt lat="43.86215352715873" lon="10.58169700589165"><ele>18.0</ele><time>2026-05-02T14:43:25.999Z</time></trkpt><trkpt lat="43.8620249591437" lon="10.581797771487551"><ele>18.0</ele><time>2026-05-02T14:43:26.999Z</time></trkpt><trkpt lat="43.861891109380124" lon="10.581902330004482"><ele>18.0</ele><time>2026-05-02T14:43:27.999Z</time></trkpt><trkpt lat="43.86174349302335" lon="10.581992607610534"><ele>18.0</ele><time>2026-05-02T14:43:28.999Z</time></trkpt><trkpt lat="43.86161144313896" lon="10.582120483794823"><ele>18.0</ele><time>2026-05-02T14:43:29.999Z</time></trkpt><trkpt lat="43.86146818445778" lon="10.582232357257793"><ele>18.0</ele><time>2026-05-02T14:43:30.999Z</time></trkpt><trkpt lat="43.86131898863473" lon="10.582346306373129"><ele>18.0</ele><time>2026-05-02T14:43:31.999Z</time></trkpt><trkpt lat="43.86117996267064" lon="10.582455074589951"><ele>18.0</ele><time>2026-05-02T14:43:32.999Z</time></trkpt><trkpt lat="43.861049474466114" lon="10.58255591957029"><ele>18.0</ele><time>2026-05-02T14:43:33.999Z</time></trkpt><trkpt lat="43.86091230632744" lon="10.582663441927474"><ele>18.0</ele><time>2026-05-02T14:43:34.999Z</time></trkpt><trkpt lat="43.86077328943849" lon="10.582771286854324"><ele>18.0</ele><time>2026-05-02T14:43:35.999Z</time></trkpt><trkpt lat="43.86064095580112" lon="10.582873181832774"><ele>18.0</ele><time>2026-05-02T14:43:36.999Z</time></trkpt><trkpt lat="43.86052061879284" lon="10.582965225297373"><ele>18.0</ele><time>2026-05-02T14:43:37.999Z</time></trkpt><trkpt lat="43.86040560753886" lon="10.583054357350214"><ele>18.0</ele><time>2026-05-02T14:43:38.999Z</time></trkpt><trkpt lat="43.86029724957839" lon="10.583138267107486"><ele>18.0</ele><time>2026-05-02T14:43:39.999Z</time></trkpt><trkpt lat="43.86019060448056" lon="10.583214789605993"><ele>18.25</ele><time>2026-05-02T14:43:40.999Z</time></trkpt><trkpt lat="43.86009043552151" lon="10.583288768830995"><ele>18.5</ele><time>2026-05-02T14:43:41.999Z</time></trkpt><trkpt lat="43.85998824589973" lon="10.583369726107232"><ele>18.75</ele><time>2026-05-02T14:43:42.999Z</time></trkpt><trkpt lat="43.85987951632402" lon="10.583453994908293"><ele>19.0</ele><time>2026-05-02T14:43:43.999Z</time></trkpt><trkpt lat="43.85978061522591" lon="10.583533334135858"><ele>19.0</ele><time>2026-05-02T14:43:44.999Z</time></trkpt><trkpt lat="43.859694905691434" lon="10.583608108800782"><ele>19.0</ele><time>2026-05-02T14:43:45.999Z</time></trkpt><trkpt lat="43.85960212285828" lon="10.583654735454028"><ele>19.0</ele><time>2026-05-02T14:43:46.999Z</time></trkpt><trkpt lat="43.85952530233613" lon="10.58374029092228"><ele>19.0</ele><time>2026-05-02T14:43:47.999Z</time></trkpt><trkpt lat="43.85944075627856" lon="10.583799538377209"><ele>19.0</ele><time>2026-05-02T14:43:48.999Z</time></trkpt><trkpt lat="43.859356190042696" lon="10.583857187649365"><ele>18.5</ele><time>2026-05-02T14:43:49.999Z</time></trkpt><trkpt lat="43.859280476942615" lon="10.583921962935774"><ele>18.0</ele><time>2026-05-02T14:43:50.999Z</time></trkpt><trkpt lat="43.85920695487156" lon="10.583978019696723"><ele>17.5</ele><time>2026-05-02T14:43:51.999Z</time></trkpt><trkpt lat="43.859128936802044" lon="10.5840347738041"><ele>17.0</ele><time>2026-05-02T14:43:52.999Z</time></trkpt><trkpt lat="43.85904999236319" lon="10.584102090606677"><ele>16.5</ele><time>2026-05-02T14:43:53.999Z</time></trkpt><trkpt lat="43.858968433396925" lon="10.584159610542859"><ele>16.0</ele><time>2026-05-02T14:43:54.999Z</time></trkpt><trkpt lat="43.85888653966548" lon="10.58422414602873"><ele>15.999999999999998</ele><time>2026-05-02T14:43:55.999Z</time></trkpt><trkpt lat="43.858799412809574" lon="10.584286210440757"><ele>16.0</ele><time>2026-05-02T14:43:56.999Z</time></trkpt><trkpt lat="43.85871862236094" lon="10.584345976809528"><ele>16.0</ele><time>2026-05-02T14:43:57.999Z</time></trkpt><trkpt lat="43.858643017646365" lon="10.584401433876874"><ele>16.0</ele><time>2026-05-02T14:43:58.999Z</time></trkpt><trkpt lat="43.858570896368846" lon="10.584450857574831"><ele>15.999999999999998</ele><time>2026-05-02T14:43:59.999Z</time></trkpt><trkpt lat="43.85850083558225" lon="10.584481648717398"><ele>16.0</ele><time>2026-05-02T14:44:00.999Z</time></trkpt><trkpt lat="43.85839359603317" lon="10.584495873401806"><ele>16.8</ele><time>2026-05-02T14:44:02.999Z</time></trkpt><trkpt lat="43.858314578144" lon="10.584491962728617"><ele>17.6</ele><time>2026-05-02T14:44:04.999Z</time></trkpt><trkpt lat="43.85822074288157" lon="10.584487090273278"><ele>18.4</ele><time>2026-05-02T14:44:06.999Z</time></trkpt><trkpt lat="43.85811756682803" lon="10.584391953807687"><ele>19.2</ele><time>2026-05-02T14:44:08.999Z</time></trkpt><trkpt lat="43.85806490138813" lon="10.584318862210594"><ele>20.0</ele><time>2026-05-02T14:44:09.999Z</time></trkpt><trkpt lat="43.858008075981395" lon="10.584209046061337"><ele>20.0</ele><time>2026-05-02T14:44:10.999Z</time></trkpt><trkpt lat="43.85796224308222" lon="10.584073679647855"><ele>20.0</ele><time>2026-05-02T14:44:11.999Z</time></trkpt><trkpt lat="43.85793906369737" lon="10.583918059620688"><ele>20.0</ele><time>2026-05-02T14:44:12.999Z</time></trkpt><trkpt lat="43.857917295499156" lon="10.583752994592812"><ele>20.0</ele><time>2026-05-02T14:44:13.999Z</time></trkpt><trkpt lat="43.857895182116266" lon="10.5835864073962"><ele>19.8</ele><time>2026-05-02T14:44:14.999Z</time></trkpt><trkpt lat="43.857871639741425" lon="10.583430727458117"><ele>19.6</ele><time>2026-05-02T14:44:15.999Z</time></trkpt><trkpt lat="43.8578419756457" lon="10.58328696525086"><ele>19.4</ele><time>2026-05-02T14:44:16.999Z</time></trkpt><trkpt lat="43.85780936907797" lon="10.583156218322499"><ele>19.2</ele><time>2026-05-02T14:44:17.999Z</time></trkpt><trkpt lat="43.85777628874719" lon="10.583033065031572"><ele>19.0</ele><time>2026-05-02T14:44:18.999Z</time></trkpt><trkpt lat="43.857746525239094" lon="10.582923769709717"><ele>19.0</ele><time>2026-05-02T14:44:19.999Z</time></trkpt><trkpt lat="43.85772251226092" lon="10.58283028064052"><ele>19.0</ele><time>2026-05-02T14:44:20.999Z</time></trkpt><trkpt lat="43.857693982246445" lon="10.582681687880147"><ele>19.0</ele><time>2026-05-02T14:44:22.999Z</time></trkpt><trkpt lat="43.85769694625468" lon="10.582505219347311"><ele>19.0</ele><time>2026-05-02T14:44:24.999Z</time></trkpt><trkpt lat="43.857700543890346" lon="10.582417279087121"><ele>19.0</ele><time>2026-05-02T14:44:25.999Z</time></trkpt><trkpt lat="43.85764613526196" lon="10.582306465876512"><ele>18.5</ele><time>2026-05-02T14:44:27.999Z</time></trkpt><trkpt lat="43.85755200890037" lon="10.582272512780834"><ele>18.0</ele><time>2026-05-02T14:44:29.999Z</time></trkpt><trkpt lat="43.8574855616838" lon="10.582296187728513"><ele>17.5</ele><time>2026-05-02T14:44:30.999Z</time></trkpt><trkpt lat="43.857413901187066" lon="10.582345958520907"><ele>17.0</ele><time>2026-05-02T14:44:31.999Z</time></trkpt><trkpt lat="43.857343838137886" lon="10.582399589051146"><ele>16.5</ele><time>2026-05-02T14:44:32.999Z</time></trkpt><trkpt lat="43.857266104190025" lon="10.582436723957942"><ele>16.0</ele><time>2026-05-02T14:44:33.999Z</time></trkpt><trkpt lat="43.85716954301062" lon="10.582448377365953"><ele>16.0</ele><time>2026-05-02T14:44:34.999Z</time></trkpt><trkpt lat="43.857058111347655" lon="10.582438805732625"><ele>16.0</ele><time>2026-05-02T14:44:35.999Z</time></trkpt><trkpt lat="43.85694423802072" lon="10.582430672932972"><ele>16.0</ele><time>2026-05-02T14:44:36.999Z</time></trkpt><trkpt lat="43.856812899551855" lon="10.582437193137896"><ele>16.0</ele><time>2026-05-02T14:44:37.999Z</time></trkpt><trkpt lat="43.85667480578214" lon="10.582459915753532"><ele>16.0</ele><time>2026-05-02T14:44:38.999Z</time></trkpt><trkpt lat="43.856537631931666" lon="10.582501458389219"><ele>16.0</ele><time>2026-05-02T14:44:39.999Z</time></trkpt><trkpt lat="43.856391821667046" lon="10.582563866031066"><ele>16.0</ele><time>2026-05-02T14:44:40.999Z</time></trkpt><trkpt lat="43.856253555933165" lon="10.582633617455862"><ele>16.0</ele><time>2026-05-02T14:44:41.999Z</time></trkpt><trkpt lat="43.85611728033836" lon="10.582707997016914"><ele>16.0</ele><time>2026-05-02T14:44:42.999Z</time></trkpt><trkpt lat="43.855980489715634" lon="10.582798119451251"><ele>16.0</ele><time>2026-05-02T14:44:43.999Z</time></trkpt><trkpt lat="43.855847680313424" lon="10.58291553927871"><ele>16.0</ele><time>2026-05-02T14:44:44.999Z</time></trkpt><trkpt lat="43.855694631759114" lon="10.583050898746611"><ele>16.666666666666664</ele><time>2026-05-02T14:44:45.999Z</time></trkpt><trkpt lat="43.855532166393274" lon="10.58323486444663"><ele>17.333333333333332</ele><time>2026-05-02T14:44:46.999Z</time></trkpt><trkpt lat="43.85539646226976" lon="10.583465712133014"><ele>18.0</ele><time>2026-05-02T14:44:47.999Z</time></trkpt><trkpt lat="43.855275639091936" lon="10.583667168124705"><ele>17.666666666666668</ele><time>2026-05-02T14:44:48.999Z</time></trkpt><trkpt lat="43.85518142950817" lon="10.583874364157358"><ele>17.333333333333336</ele><time>2026-05-02T14:44:49.999Z</time></trkpt><trkpt lat="43.85510575451952" lon="10.584086715003108"><ele>17.0</ele><time>2026-05-02T14:44:50.999Z</time></trkpt><trkpt lat="43.85502919274075" lon="10.584253129424251"><ele>16.25</ele><time>2026-05-02T14:44:51.999Z</time></trkpt><trkpt lat="43.854987220868274" lon="10.584433503680215"><ele>15.5</ele><time>2026-05-02T14:44:52.999Z</time></trkpt><trkpt lat="43.85493332064643" lon="10.584600076123158"><ele>14.75</ele><time>2026-05-02T14:44:53.999Z</time></trkpt><trkpt lat="43.85487653191677" lon="10.58477273876117"><ele>14.0</ele><time>2026-05-02T14:44:54.999Z</time></trkpt><trkpt lat="43.85482037245041" lon="10.584944771889319"><ele>13.75</ele><time>2026-05-02T14:44:55.999Z</time></trkpt><trkpt lat="43.854766756253426" lon="10.585103419894523"><ele>13.5</ele><time>2026-05-02T14:44:56.999Z</time></trkpt><trkpt lat="43.85471295098701" lon="10.58524902402581"><ele>13.25</ele><time>2026-05-02T14:44:57.999Z</time></trkpt><trkpt lat="43.854653748387236" lon="10.585398683251109"><ele>13.0</ele><time>2026-05-02T14:44:58.999Z</time></trkpt><trkpt lat="43.854591543919774" lon="10.585549457603745"><ele>13.75</ele><time>2026-05-02T14:44:59.999Z</time></trkpt><trkpt lat="43.854528685294675" lon="10.585694755256457"><ele>14.5</ele><time>2026-05-02T14:45:00.999Z</time></trkpt><trkpt lat="43.85446152306474" lon="10.585831298269262"><ele>15.25</ele><time>2026-05-02T14:45:01.999Z</time></trkpt><trkpt lat="43.85439265314939" lon="10.585962805283812"><ele>16.0</ele><time>2026-05-02T14:45:02.999Z</time></trkpt><trkpt lat="43.85431705802481" lon="10.58609127493789"><ele>15.0</ele><time>2026-05-02T14:45:03.999Z</time></trkpt><trkpt lat="43.85423067679265" lon="10.586226619814457"><ele>14.0</ele><time>2026-05-02T14:45:04.999Z</time></trkpt><trkpt lat="43.8541104708338" lon="10.58636577015947"><ele>13.0</ele><time>2026-05-02T14:45:05.999Z</time></trkpt><trkpt lat="43.85400514193326" lon="10.586550662259327"><ele>13.0</ele><time>2026-05-02T14:45:06.999Z</time></trkpt><trkpt lat="43.85387675017815" lon="10.58672539014442"><ele>13.0</ele><time>2026-05-02T14:45:07.999Z</time></trkpt><trkpt lat="43.85373669738331" lon="10.586907463997086"><ele>13.0</ele><time>2026-05-02T14:45:08.999Z</time></trkpt><trkpt lat="43.85359791693081" lon="10.587098851743473"><ele>13.0</ele><time>2026-05-02T14:45:09.999Z</time></trkpt><trkpt lat="43.85346667160493" lon="10.58728328127044"><ele>13.0</ele><time>2026-05-02T14:45:10.999Z</time></trkpt><trkpt lat="43.85333454108701" lon="10.587459282353729"><ele>13.0</ele><time>2026-05-02T14:45:11.999Z</time></trkpt><trkpt lat="43.85320554314819" lon="10.587630800938804"><ele>12.666666666666666</ele><time>2026-05-02T14:45:12.999Z</time></trkpt><trkpt lat="43.853075003298166" lon="10.587816912700974"><ele>12.333333333333332</ele><time>2026-05-02T14:45:13.999Z</time></trkpt><trkpt lat="43.85291911576918" lon="10.588007883262046"><ele>12.0</ele><time>2026-05-02T14:45:14.999Z</time></trkpt><trkpt lat="43.85275137300414" lon="10.588235132493955"><ele>13.0</ele><time>2026-05-02T14:45:15.999Z</time></trkpt><trkpt lat="43.85258014810072" lon="10.588467700002026"><ele>14.0</ele><time>2026-05-02T14:45:16.999Z</time></trkpt><trkpt lat="43.85241233901605" lon="10.58871136627633"><ele>14.5</ele><time>2026-05-02T14:45:18Z</time></trkpt><trkpt lat="43.852238460805964" lon="10.588942602383353"><ele>15.0</ele><time>2026-05-02T14:45:19Z</time></trkpt><trkpt lat="43.852067426258905" lon="10.589169320191544"><ele>15.0</ele><time>2026-05-02T14:45:20Z</time></trkpt><trkpt lat="43.85190268811342" lon="10.589387182809777"><ele>15.0</ele><time>2026-05-02T14:45:21Z</time></trkpt><trkpt lat="43.851738891966725" lon="10.589607528264308"><ele>15.0</ele><time>2026-05-02T14:45:22Z</time></trkpt><trkpt lat="43.85157242981813" lon="10.58983324269618"><ele>15.0</ele><time>2026-05-02T14:45:23Z</time></trkpt><trkpt lat="43.85140697167745" lon="10.590055144894407"><ele>15.0</ele><time>2026-05-02T14:45:24Z</time></trkpt><trkpt lat="43.85124342613726" lon="10.590278364355033"><ele>15.0</ele><time>2026-05-02T14:45:25Z</time></trkpt><trkpt lat="43.851081049378884" lon="10.590499746798674"><ele>15.0</ele><time>2026-05-02T14:45:26Z</time></trkpt><trkpt lat="43.850919980054094" lon="10.590719741899747"><ele>15.0</ele><time>2026-05-02T14:45:27Z</time></trkpt><trkpt lat="43.85076234298513" lon="10.59093421817243"><ele>15.0</ele><time>2026-05-02T14:45:28Z</time></trkpt><trkpt lat="43.8506079266857" lon="10.591145062123097"><ele>14.666666666666668</ele><time>2026-05-02T14:45:29Z</time></trkpt><trkpt lat="43.85045550081252" lon="10.591354356181197"><ele>14.333333333333334</ele><time>2026-05-02T14:45:30Z</time></trkpt><trkpt lat="43.85030939300668" lon="10.591555398971321"><ele>14.0</ele><time>2026-05-02T14:45:31Z</time></trkpt><trkpt lat="43.8501679418579" lon="10.5917452424451"><ele>13.666666666666668</ele><time>2026-05-02T14:45:32Z</time></trkpt><trkpt lat="43.85002962943661" lon="10.591930129627215"><ele>13.333333333333332</ele><time>2026-05-02T14:45:33Z</time></trkpt><trkpt lat="43.849894884673475" lon="10.592111599256485"><ele>13.0</ele><time>2026-05-02T14:45:34Z</time></trkpt><trkpt lat="43.84974906791528" lon="10.592309257364178"><ele>13.333333333333332</ele><time>2026-05-02T14:45:35Z</time></trkpt><trkpt lat="43.849620395438194" lon="10.592485969603091"><ele>13.666666666666668</ele><time>2026-05-02T14:45:36Z</time></trkpt><trkpt lat="43.849499966550525" lon="10.592648039619382"><ele>14.0</ele><time>2026-05-02T14:45:37Z</time></trkpt><trkpt lat="43.8493647560102" lon="10.592842990477212"><ele>14.666666666666668</ele><time>2026-05-02T14:45:38Z</time></trkpt><trkpt lat="43.849252828146184" lon="10.592993870315702"><ele>15.333333333333332</ele><time>2026-05-02T14:45:39Z</time></trkpt><trkpt lat="43.849141988414864" lon="10.593137654335441"><ele>16.0</ele><time>2026-05-02T14:45:40Z</time></trkpt><trkpt lat="43.849035241483314" lon="10.593277902826346"><ele>16.0</ele><time>2026-05-02T14:45:41Z</time></trkpt><trkpt lat="43.84893474112146" lon="10.593418259622066"><ele>16.0</ele><time>2026-05-02T14:45:42Z</time></trkpt><trkpt lat="43.84883111924388" lon="10.593562104314959"><ele>16.0</ele><time>2026-05-02T14:45:43Z</time></trkpt><trkpt lat="43.8487299604256" lon="10.593703608477883"><ele>16.0</ele><time>2026-05-02T14:45:44Z</time></trkpt><trkpt lat="43.84862237818672" lon="10.593857692316295"><ele>16.333333333333332</ele><time>2026-05-02T14:45:45Z</time></trkpt><trkpt lat="43.84850694955676" lon="10.594016256473804"><ele>16.666666666666668</ele><time>2026-05-02T14:45:46Z</time></trkpt><trkpt lat="43.84836633674071" lon="10.594173519980716"><ele>17.0</ele><time>2026-05-02T14:45:47Z</time></trkpt><trkpt lat="43.84822606024677" lon="10.59436734676339"><ele>16.0</ele><time>2026-05-02T14:45:48Z</time></trkpt><trkpt lat="43.84809226180448" lon="10.594580716936894"><ele>15.0</ele><time>2026-05-02T14:45:49Z</time></trkpt><trkpt lat="43.84793664722928" lon="10.594763832221622"><ele>14.0</ele><time>2026-05-02T14:45:50Z</time></trkpt><trkpt lat="43.84780040096809" lon="10.594978848511484"><ele>14.0</ele><time>2026-05-02T14:45:51Z</time></trkpt><trkpt lat="43.84764868325396" lon="10.595185882434315"><ele>14.0</ele><time>2026-05-02T14:45:52Z</time></trkpt><trkpt lat="43.84747812439042" lon="10.59538594890612"><ele>14.0</ele><time>2026-05-02T14:45:53Z</time></trkpt><trkpt lat="43.84731286567106" lon="10.595610803652805"><ele>13.5</ele><time>2026-05-02T14:45:54Z</time></trkpt><trkpt lat="43.84715114756932" lon="10.595857453337215"><ele>13.0</ele><time>2026-05-02T14:45:55Z</time></trkpt><trkpt lat="43.84696697052259" lon="10.596091257355608"><ele>12.5</ele><time>2026-05-02T14:45:56Z</time></trkpt><trkpt lat="43.84678680398989" lon="10.596325540887394"><ele>12.0</ele><time>2026-05-02T14:45:57Z</time></trkpt><trkpt lat="43.846608903989846" lon="10.596561641462976"><ele>12.0</ele><time>2026-05-02T14:45:58Z</time></trkpt><trkpt lat="43.84644195313024" lon="10.596787246996493"><ele>12.0</ele><time>2026-05-02T14:45:59Z</time></trkpt><trkpt lat="43.84628966774041" lon="10.596993273061173"><ele>12.0</ele><time>2026-05-02T14:46:00Z</time></trkpt><trkpt lat="43.84612989326804" lon="10.597193824434875"><ele>12.0</ele><time>2026-05-02T14:46:01Z</time></trkpt><trkpt lat="43.84597287988988" lon="10.597411361252215"><ele>12.0</ele><time>2026-05-02T14:46:01.999Z</time></trkpt><trkpt lat="43.84582192816792" lon="10.597628499980885"><ele>12.0</ele><time>2026-05-02T14:46:02.999Z</time></trkpt><trkpt lat="43.84567591425349" lon="10.59782220640156"><ele>11.666666666666666</ele><time>2026-05-02T14:46:03.999Z</time></trkpt><trkpt lat="43.845537466060726" lon="10.598008961511226"><ele>11.333333333333332</ele><time>2026-05-02T14:46:04.999Z</time></trkpt><trkpt lat="43.845407885395595" lon="10.598188058430466"><ele>11.0</ele><time>2026-05-02T14:46:05.999Z</time></trkpt><trkpt lat="43.84527387087256" lon="10.598366502349364"><ele>11.0</ele><time>2026-05-02T14:46:06.999Z</time></trkpt><trkpt lat="43.84514069029859" lon="10.598549747052038"><ele>11.0</ele><time>2026-05-02T14:46:07.999Z</time></trkpt><trkpt lat="43.845007267600124" lon="10.598728958543298"><ele>11.0</ele><time>2026-05-02T14:46:08.999Z</time></trkpt><trkpt lat="43.84486987954621" lon="10.598907556938032"><ele>11.333333333333332</ele><time>2026-05-02T14:46:09.999Z</time></trkpt><trkpt lat="43.84473228215209" lon="10.599094838341545"><ele>11.666666666666666</ele><time>2026-05-02T14:46:10.999Z</time></trkpt><trkpt lat="43.84459536108039" lon="10.599281662639122"><ele>12.0</ele><time>2026-05-02T14:46:11.999Z</time></trkpt><trkpt lat="43.84446219615442" lon="10.599466303125498"><ele>12.0</ele><time>2026-05-02T14:46:12.999Z</time></trkpt><trkpt lat="43.84432844190841" lon="10.599643556585699"><ele>12.0</ele><time>2026-05-02T14:46:13.999Z</time></trkpt><trkpt lat="43.844204855291224" lon="10.599810667020538"><ele>12.0</ele><time>2026-05-02T14:46:14.999Z</time></trkpt><trkpt lat="43.844086403809875" lon="10.599975366767683"><ele>12.0</ele><time>2026-05-02T14:46:15.999Z</time></trkpt><trkpt lat="43.8439737297972" lon="10.600135748582392"><ele>12.0</ele><time>2026-05-02T14:46:16.999Z</time></trkpt><trkpt lat="43.84385799823198" lon="10.600295189380962"><ele>12.0</ele><time>2026-05-02T14:46:17.999Z</time></trkpt><trkpt lat="43.843734406799165" lon="10.600460958364554"><ele>12.333333333333332</ele><time>2026-05-02T14:46:18.999Z</time></trkpt><trkpt lat="43.84361215586988" lon="10.600626270959964"><ele>12.666666666666666</ele><time>2026-05-02T14:46:19.999Z</time></trkpt><trkpt lat="43.843497715279575" lon="10.600783706105743"><ele>13.0</ele><time>2026-05-02T14:46:20.999Z</time></trkpt><trkpt lat="43.843395226216245" lon="10.600925515604391"><ele>13.0</ele><time>2026-05-02T14:46:21.999Z</time></trkpt><trkpt lat="43.843294543237896" lon="10.601064759538087"><ele>13.0</ele><time>2026-05-02T14:46:22.999Z</time></trkpt><trkpt lat="43.843191843814495" lon="10.601203607213739"><ele>13.0</ele><time>2026-05-02T14:46:23.999Z</time></trkpt><trkpt lat="43.84308454943144" lon="10.601347308940758"><ele>13.0</ele><time>2026-05-02T14:46:24.999Z</time></trkpt><trkpt lat="43.842976321143496" lon="10.601490544298464"><ele>12.75</ele><time>2026-05-02T14:46:25.999Z</time></trkpt><trkpt lat="43.84286853558994" lon="10.601633270623568"><ele>12.5</ele><time>2026-05-02T14:46:26.999Z</time></trkpt><trkpt lat="43.84277041189362" lon="10.601769464284812"><ele>12.25</ele><time>2026-05-02T14:46:27.999Z</time></trkpt><trkpt lat="43.84267272775031" lon="10.601901654582033"><ele>12.0</ele><time>2026-05-02T14:46:28.999Z</time></trkpt><trkpt lat="43.842579554105704" lon="10.602028284492205"><ele>12.0</ele><time>2026-05-02T14:46:29.999Z</time></trkpt><trkpt lat="43.84248869456754" lon="10.60215428205182"><ele>12.0</ele><time>2026-05-02T14:46:30.999Z</time></trkpt><trkpt lat="43.842400871239334" lon="10.602273220057809"><ele>12.0</ele><time>2026-05-02T14:46:31.999Z</time></trkpt><trkpt lat="43.842312655122704" lon="10.602388085428977"><ele>12.0</ele><time>2026-05-02T14:46:32.999Z</time></trkpt><trkpt lat="43.84222436660311" lon="10.602503662013671"><ele>12.0</ele><time>2026-05-02T14:46:33.999Z</time></trkpt><trkpt lat="43.84214307488452" lon="10.602603882311834"><ele>12.0</ele><time>2026-05-02T14:46:34.999Z</time></trkpt><trkpt lat="43.842066033542864" lon="10.602691705056397"><ele>12.0</ele><time>2026-05-02T14:46:35.999Z</time></trkpt><trkpt lat="43.84199231487683" lon="10.60277058273886"><ele>12.0</ele><time>2026-05-02T14:46:36.999Z</time></trkpt><trkpt lat="43.84192477913746" lon="10.602840464851205"><ele>12.0</ele><time>2026-05-02T14:46:37.999Z</time></trkpt><trkpt lat="43.841867317249715" lon="10.602891574083149"><ele>12.285714285714285</ele><time>2026-05-02T14:46:38.999Z</time></trkpt><trkpt lat="43.841798440470804" lon="10.602933707011136"><ele>12.571428571428571</ele><time>2026-05-02T14:46:41.999Z</time></trkpt><trkpt lat="43.841724628844304" lon="10.602969933839146"><ele>12.857142857142858</ele><time>2026-05-02T14:46:46.999Z</time></trkpt><trkpt lat="43.841659944819845" lon="10.60297610040944"><ele>13.142857142857142</ele><time>2026-05-02T14:46:47.999Z</time></trkpt><trkpt lat="43.841596252542644" lon="10.602978216419231"><ele>13.428571428571429</ele><time>2026-05-02T14:46:48.999Z</time></trkpt><trkpt lat="43.84152529387582" lon="10.602993712734085"><ele>13.714285714285714</ele><time>2026-05-02T14:46:49.999Z</time></trkpt><trkpt lat="43.84146088038709" lon="10.603047615140971"><ele>14.0</ele><time>2026-05-02T14:46:50.999Z</time></trkpt><trkpt lat="43.84140534659727" lon="10.603125274140575"><ele>14.0</ele><time>2026-05-02T14:46:51.999Z</time></trkpt><trkpt lat="43.84136441113065" lon="10.603240871300054"><ele>14.0</ele><time>2026-05-02T14:46:52.999Z</time></trkpt><trkpt lat="43.84131107547938" lon="10.603377079821302"><ele>14.0</ele><time>2026-05-02T14:46:53.999Z</time></trkpt><trkpt lat="43.84124514875447" lon="10.603516879166715"><ele>14.0</ele><time>2026-05-02T14:46:54.999Z</time></trkpt><trkpt lat="43.841171399841755" lon="10.603658532801115"><ele>13.75</ele><time>2026-05-02T14:46:55.999Z</time></trkpt><trkpt lat="43.84110233096226" lon="10.603805672403457"><ele>13.5</ele><time>2026-05-02T14:46:56.999Z</time></trkpt><trkpt lat="43.84103944971265" lon="10.603953491440944"><ele>13.25</ele><time>2026-05-02T14:46:57.999Z</time></trkpt><trkpt lat="43.84097269866108" lon="10.60412164887009"><ele>13.0</ele><time>2026-05-02T14:46:58.999Z</time></trkpt><trkpt lat="43.84089354620073" lon="10.604296570153467"><ele>13.0</ele><time>2026-05-02T14:46:59.999Z</time></trkpt><trkpt lat="43.84079557364994" lon="10.604466818705562"><ele>13.0</ele><time>2026-05-02T14:47:00.999Z</time></trkpt><trkpt lat="43.840681569169355" lon="10.604615043071453"><ele>13.0</ele><time>2026-05-02T14:47:01.999Z</time></trkpt><trkpt lat="43.84055203072497" lon="10.604771988074697"><ele>13.0</ele><time>2026-05-02T14:47:02.999Z</time></trkpt><trkpt lat="43.84043278176737" lon="10.604925911170508"><ele>13.0</ele><time>2026-05-02T14:47:03.999Z</time></trkpt><trkpt lat="43.840323811117166" lon="10.60507177899333"><ele>13.0</ele><time>2026-05-02T14:47:04.999Z</time></trkpt><trkpt lat="43.84021512422831" lon="10.605228654571508"><ele>12.666666666666666</ele><time>2026-05-02T14:47:05.999Z</time></trkpt><trkpt lat="43.840089146493504" lon="10.605389392596148"><ele>12.333333333333332</ele><time>2026-05-02T14:47:06.999Z</time></trkpt><trkpt lat="43.83997243628361" lon="10.605546080018394"><ele>12.0</ele><time>2026-05-02T14:47:07.999Z</time></trkpt><trkpt lat="43.83986627019694" lon="10.605687033189518"><ele>12.0</ele><time>2026-05-02T14:47:08.999Z</time></trkpt><trkpt lat="43.839757983150264" lon="10.605830586103284"><ele>12.0</ele><time>2026-05-02T14:47:09.999Z</time></trkpt><trkpt lat="43.83964670238843" lon="10.605981994682152"><ele>12.0</ele><time>2026-05-02T14:47:10.999Z</time></trkpt><trkpt lat="43.83953316062133" lon="10.606135273999524"><ele>12.0</ele><time>2026-05-02T14:47:11.999Z</time></trkpt><trkpt lat="43.839399476105314" lon="10.606318679179628"><ele>12.0</ele><time>2026-05-02T14:47:12.999Z</time></trkpt><trkpt lat="43.83923541704696" lon="10.606508312150373"><ele>12.0</ele><time>2026-05-02T14:47:13.999Z</time></trkpt><trkpt lat="43.83909424458201" lon="10.606725129832055"><ele>11.666666666666666</ele><time>2026-05-02T14:47:14.999Z</time></trkpt><trkpt lat="43.838954801563425" lon="10.606908750837485"><ele>11.333333333333332</ele><time>2026-05-02T14:47:15.999Z</time></trkpt><trkpt lat="43.83882464468562" lon="10.607082007503013"><ele>11.0</ele><time>2026-05-02T14:47:16.999Z</time></trkpt><trkpt lat="43.83870008034532" lon="10.607244269991492"><ele>11.0</ele><time>2026-05-02T14:47:18Z</time></trkpt><trkpt lat="43.838577663097894" lon="10.607403564043285"><ele>11.0</ele><time>2026-05-02T14:47:19Z</time></trkpt><trkpt lat="43.838456671371304" lon="10.607566727400815"><ele>11.0</ele><time>2026-05-02T14:47:20Z</time></trkpt><trkpt lat="43.83833646668609" lon="10.607727695227412"><ele>11.333333333333332</ele><time>2026-05-02T14:47:21Z</time></trkpt><trkpt lat="43.83821451896572" lon="10.60789351474626"><ele>11.666666666666666</ele><time>2026-05-02T14:47:22Z</time></trkpt><trkpt lat="43.83809151870647" lon="10.608060594557779"><ele>12.0</ele><time>2026-05-02T14:47:23Z</time></trkpt><trkpt lat="43.837956622676046" lon="10.608252141561152"><ele>12.0</ele><time>2026-05-02T14:47:24Z</time></trkpt><trkpt lat="43.83780297250079" lon="10.608465384073105"><ele>12.0</ele><time>2026-05-02T14:47:25Z</time></trkpt><trkpt lat="43.83763355619021" lon="10.608680144349426"><ele>12.0</ele><time>2026-05-02T14:47:26Z</time></trkpt><trkpt lat="43.83746604400853" lon="10.608905137685328"><ele>12.0</ele><time>2026-05-02T14:47:27Z</time></trkpt><trkpt lat="43.83731145460022" lon="10.609113913746809"><ele>12.0</ele><time>2026-05-02T14:47:28Z</time></trkpt><trkpt lat="43.837163290506105" lon="10.609314166953641"><ele>12.0</ele><time>2026-05-02T14:47:29Z</time></trkpt><trkpt lat="43.8370301997794" lon="10.609492665374406"><ele>12.0</ele><time>2026-05-02T14:47:30Z</time></trkpt><trkpt lat="43.83690715386731" lon="10.609652944888632"><ele>12.0</ele><time>2026-05-02T14:47:31Z</time></trkpt><trkpt lat="43.836794119539036" lon="10.609802041477147"><ele>12.0</ele><time>2026-05-02T14:47:32Z</time></trkpt><trkpt lat="43.83668961960693" lon="10.60994340500141"><ele>12.0</ele><time>2026-05-02T14:47:33Z</time></trkpt><trkpt lat="43.836592189623374" lon="10.610076592845495"><ele>12.0</ele><time>2026-05-02T14:47:34Z</time></trkpt><trkpt lat="43.8364871019604" lon="10.610189738617086"><ele>12.0</ele><time>2026-05-02T14:47:35Z</time></trkpt><trkpt lat="43.83640312885413" lon="10.6103318888133"><ele>12.0</ele><time>2026-05-02T14:47:36Z</time></trkpt><trkpt lat="43.83630669901274" lon="10.610460051058253"><ele>12.0</ele><time>2026-05-02T14:47:37Z</time></trkpt><trkpt lat="43.83620689425029" lon="10.610594530240993"><ele>12.0</ele><time>2026-05-02T14:47:38Z</time></trkpt><trkpt lat="43.83610425905753" lon="10.610729059737519"><ele>12.0</ele><time>2026-05-02T14:47:39Z</time></trkpt><trkpt lat="43.83600551993667" lon="10.610865064900935"><ele>12.0</ele><time>2026-05-02T14:47:40Z</time></trkpt><trkpt lat="43.835913682091466" lon="10.611002160787711"><ele>12.0</ele><time>2026-05-02T14:47:41Z</time></trkpt><trkpt lat="43.83581782783676" lon="10.611143192275986"><ele>12.0</ele><time>2026-05-02T14:47:42Z</time></trkpt><trkpt lat="43.83572155801255" lon="10.611292815600107"><ele>12.0</ele><time>2026-05-02T14:47:43Z</time></trkpt><trkpt lat="43.83562943471884" lon="10.61145203420201"><ele>12.0</ele><time>2026-05-02T14:47:44Z</time></trkpt><trkpt lat="43.83555569896601" lon="10.611611135489653"><ele>11.75</ele><time>2026-05-02T14:47:45Z</time></trkpt><trkpt lat="43.83548762400964" lon="10.611763798269484"><ele>11.5</ele><time>2026-05-02T14:47:46Z</time></trkpt><trkpt lat="43.83542117962666" lon="10.611909220973988"><ele>11.25</ele><time>2026-05-02T14:47:47Z</time></trkpt><trkpt lat="43.83536728178884" lon="10.612055990333008"><ele>11.0</ele><time>2026-05-02T14:47:48Z</time></trkpt><trkpt lat="43.83530963034399" lon="10.612201069081054"><ele>11.0</ele><time>2026-05-02T14:47:49Z</time></trkpt><trkpt lat="43.83525290042599" lon="10.612352921312171"><ele>11.0</ele><time>2026-05-02T14:47:50Z</time></trkpt><trkpt lat="43.835198740291595" lon="10.61250962401137"><ele>11.0</ele><time>2026-05-02T14:47:51Z</time></trkpt><trkpt lat="43.83514818692536" lon="10.61266584845731"><ele>11.0</ele><time>2026-05-02T14:47:52Z</time></trkpt><trkpt lat="43.83510524076675" lon="10.612828780809945"><ele>11.5</ele><time>2026-05-02T14:47:53Z</time></trkpt><trkpt lat="43.83506273367568" lon="10.613000519809306"><ele>12.0</ele><time>2026-05-02T14:47:54Z</time></trkpt><trkpt lat="43.83501894215828" lon="10.613177097140222"><ele>12.5</ele><time>2026-05-02T14:47:55Z</time></trkpt><trkpt lat="43.834976766432625" lon="10.61334682464647"><ele>13.0</ele><time>2026-05-02T14:47:56Z</time></trkpt><trkpt lat="43.834935975997176" lon="10.613515245377796"><ele>12.5</ele><time>2026-05-02T14:47:57Z</time></trkpt><trkpt lat="43.83489487150519" lon="10.613690187486222"><ele>12.0</ele><time>2026-05-02T14:47:58Z</time></trkpt><trkpt lat="43.83485241942413" lon="10.613873034804378"><ele>11.5</ele><time>2026-05-02T14:47:59Z</time></trkpt><trkpt lat="43.83480856037985" lon="10.614061034308472"><ele>11.0</ele><time>2026-05-02T14:48:00Z</time></trkpt><trkpt lat="43.834764569231176" lon="10.614235329547524"><ele>11.0</ele><time>2026-05-02T14:48:01Z</time></trkpt><trkpt lat="43.83472071308004" lon="10.61439466044822"><ele>11.0</ele><time>2026-05-02T14:48:02Z</time></trkpt><trkpt lat="43.83468333665629" lon="10.614544755635597"><ele>11.0</ele><time>2026-05-02T14:48:03Z</time></trkpt><trkpt lat="43.834648210766495" lon="10.614685773518374"><ele>11.0</ele><time>2026-05-02T14:48:04Z</time></trkpt><trkpt lat="43.8346132204069" lon="10.614821366549728"><ele>11.0</ele><time>2026-05-02T14:48:05Z</time></trkpt><trkpt lat="43.83457769611541" lon="10.61495637602462"><ele>11.0</ele><time>2026-05-02T14:48:06Z</time></trkpt><trkpt lat="43.83453754376848" lon="10.615097842966371"><ele>11.0</ele><time>2026-05-02T14:48:07Z</time></trkpt><trkpt lat="43.834492759448175" lon="10.615235657956035"><ele>11.0</ele><time>2026-05-02T14:48:08Z</time></trkpt><trkpt lat="43.834442134230365" lon="10.615350394135262"><ele>11.0</ele><time>2026-05-02T14:48:09Z</time></trkpt><trkpt lat="43.83437580137867" lon="10.615450707756386"><ele>11.0</ele><time>2026-05-02T14:48:10Z</time></trkpt><trkpt lat="43.834303392081814" lon="10.615551055659367"><ele>10.8</ele><time>2026-05-02T14:48:11Z</time></trkpt><trkpt lat="43.83424362269668" lon="10.615667899642235"><ele>10.600000000000001</ele><time>2026-05-02T14:48:12Z</time></trkpt><trkpt lat="43.83419746913148" lon="10.615812013139502"><ele>10.4</ele><time>2026-05-02T14:48:13Z</time></trkpt><trkpt lat="43.83418124132366" lon="10.615958774378782"><ele>10.2</ele><time>2026-05-02T14:48:14Z</time></trkpt><trkpt lat="43.834185192735234" lon="10.616114166204225"><ele>10.0</ele><time>2026-05-02T14:48:15Z</time></trkpt><trkpt lat="43.83419473409235" lon="10.616270512373502"><ele>9.75</ele><time>2026-05-02T14:48:16Z</time></trkpt><trkpt lat="43.83418500830603" lon="10.616429066731406"><ele>9.5</ele><time>2026-05-02T14:48:17Z</time></trkpt><trkpt lat="43.834155624973924" lon="10.616603450327071"><ele>9.25</ele><time>2026-05-02T14:48:18Z</time></trkpt><trkpt lat="43.83411867336438" lon="10.616785825002747"><ele>9.0</ele><time>2026-05-02T14:48:19Z</time></trkpt><trkpt lat="43.83407381638257" lon="10.616972187653529"><ele>9.5</ele><time>2026-05-02T14:48:20Z</time></trkpt><trkpt lat="43.834015099415325" lon="10.617143664721157"><ele>10.0</ele><time>2026-05-02T14:48:21Z</time></trkpt><trkpt lat="43.83398538553118" lon="10.617327032799997"><ele>10.5</ele><time>2026-05-02T14:48:22Z</time></trkpt><trkpt lat="43.83394052917618" lon="10.61749821332297"><ele>11.0</ele><time>2026-05-02T14:48:23Z</time></trkpt><trkpt lat="43.83389920836601" lon="10.61766375446867"><ele>11.25</ele><time>2026-05-02T14:48:24Z</time></trkpt><trkpt lat="43.8338421646905" lon="10.617832531182144"><ele>11.5</ele><time>2026-05-02T14:48:25Z</time></trkpt><trkpt lat="43.83379853919603" lon="10.618006292251433"><ele>11.75</ele><time>2026-05-02T14:48:26Z</time></trkpt><trkpt lat="43.833770619696324" lon="10.618186670307427"><ele>12.0</ele><time>2026-05-02T14:48:26.999Z</time></trkpt><trkpt lat="43.833726151329635" lon="10.61835735447757"><ele>12.0</ele><time>2026-05-02T14:48:27.999Z</time></trkpt><trkpt lat="43.83368485659219" lon="10.61852003826181"><ele>12.0</ele><time>2026-05-02T14:48:28.999Z</time></trkpt><trkpt lat="43.83364471982684" lon="10.61867528034349"><ele>12.0</ele><time>2026-05-02T14:48:29.999Z</time></trkpt><trkpt lat="43.83360697112413" lon="10.618820336781692"><ele>12.0</ele><time>2026-05-02T14:48:30.999Z</time></trkpt><trkpt lat="43.833571961053785" lon="10.618963666295414"><ele>12.0</ele><time>2026-05-02T14:48:31.999Z</time></trkpt><trkpt lat="43.833537129775216" lon="10.619102086665238"><ele>12.0</ele><time>2026-05-02T14:48:32.999Z</time></trkpt><trkpt lat="43.83350264586252" lon="10.619243108080825"><ele>12.0</ele><time>2026-05-02T14:48:33.999Z</time></trkpt><trkpt lat="43.83346659771174" lon="10.61938580318665"><ele>12.0</ele><time>2026-05-02T14:48:34.999Z</time></trkpt><trkpt lat="43.833430131631104" lon="10.619523945605227"><ele>12.0</ele><time>2026-05-02T14:48:35.999Z</time></trkpt><trkpt lat="43.83339021844833" lon="10.619656034172671"><ele>11.666666666666666</ele><time>2026-05-02T14:48:36.999Z</time></trkpt><trkpt lat="43.833345991818064" lon="10.61976732680222"><ele>11.333333333333334</ele><time>2026-05-02T14:48:37.999Z</time></trkpt><trkpt lat="43.83330403104936" lon="10.61985637775422"><ele>11.0</ele><time>2026-05-02T14:48:38.999Z</time></trkpt><trkpt lat="43.83325747844058" lon="10.619940209024067"><ele>10.666666666666668</ele><time>2026-05-02T14:48:39.999Z</time></trkpt><trkpt lat="43.83321642856172" lon="10.620030447529043"><ele>10.333333333333334</ele><time>2026-05-02T14:48:40.999Z</time></trkpt><trkpt lat="43.833196360445484" lon="10.62014473502704"><ele>10.0</ele><time>2026-05-02T14:48:41.999Z</time></trkpt><trkpt lat="43.83318886330891" lon="10.620288441786393"><ele>10.5</ele><time>2026-05-02T14:48:42.999Z</time></trkpt><trkpt lat="43.83317943514247" lon="10.620443323585633"><ele>11.0</ele><time>2026-05-02T14:48:43.999Z</time></trkpt><trkpt lat="43.83315385949944" lon="10.620608949067318"><ele>11.5</ele><time>2026-05-02T14:48:44.999Z</time></trkpt><trkpt lat="43.833118055753864" lon="10.620764524921887"><ele>12.0</ele><time>2026-05-02T14:48:45.999Z</time></trkpt><trkpt lat="43.83307999259608" lon="10.620912794882784"><ele>12.0</ele><time>2026-05-02T14:48:46.999Z</time></trkpt><trkpt lat="43.833040978871495" lon="10.621052480861188"><ele>12.0</ele><time>2026-05-02T14:48:47.999Z</time></trkpt><trkpt lat="43.83295589095806" lon="10.62135041336687"><ele>12.0</ele><time>2026-05-02T14:48:48.999Z</time></trkpt><trkpt lat="43.83289592846438" lon="10.621590424898455"><ele>11.666666666666666</ele><time>2026-05-02T14:48:49.999Z</time></trkpt><trkpt lat="43.832827366697074" lon="10.621864856905713"><ele>11.333333333333332</ele><time>2026-05-02T14:48:50.999Z</time></trkpt><trkpt lat="43.83275162150029" lon="10.622168992069351"><ele>11.0</ele><time>2026-05-02T14:48:51.999Z</time></trkpt><trkpt lat="43.8326866309895" lon="10.622484630523529"><ele>11.0</ele><time>2026-05-02T14:48:52.999Z</time></trkpt><trkpt lat="43.832610552485555" lon="10.622786270504205"><ele>11.0</ele><time>2026-05-02T14:48:53.999Z</time></trkpt><trkpt lat="43.83253738818705" lon="10.623076773787789"><ele>11.333333333333332</ele><time>2026-05-02T14:48:54.999Z</time></trkpt><trkpt lat="43.83247132658209" lon="10.623349019602967"><ele>11.666666666666666</ele><time>2026-05-02T14:48:55.999Z</time></trkpt><trkpt lat="43.83240533904442" lon="10.623627367539484"><ele>12.0</ele><time>2026-05-02T14:48:56.999Z</time></trkpt><trkpt lat="43.83231545304363" lon="10.62391966144237"><ele>12.0</ele><time>2026-05-02T14:48:57.999Z</time></trkpt><trkpt lat="43.8322361453967" lon="10.624236537548082"><ele>12.0</ele><time>2026-05-02T14:48:58.999Z</time></trkpt><trkpt lat="43.83215410199138" lon="10.624564344780019"><ele>12.0</ele><time>2026-05-02T14:48:59.999Z</time></trkpt><trkpt lat="43.83208527816875" lon="10.624899852430335"><ele>12.0</ele><time>2026-05-02T14:49:00.999Z</time></trkpt><trkpt lat="43.831992855559534" lon="10.625221395780544"><ele>11.5</ele><time>2026-05-02T14:49:01.999Z</time></trkpt><trkpt lat="43.83191323567888" lon="10.62554990743578"><ele>11.0</ele><time>2026-05-02T14:49:02.999Z</time></trkpt><trkpt lat="43.83183677933792" lon="10.625873065684708"><ele>11.0</ele><time>2026-05-02T14:49:03.999Z</time></trkpt><trkpt lat="43.83176012843334" lon="10.626186887750496"><ele>11.0</ele><time>2026-05-02T14:49:04.999Z</time></trkpt><trkpt lat="43.83168703650263" lon="10.6264842391187"><ele>11.0</ele><time>2026-05-02T14:49:05.999Z</time></trkpt><trkpt lat="43.83161477108127" lon="10.626767683869646"><ele>11.0</ele><time>2026-05-02T14:49:06.999Z</time></trkpt><trkpt lat="43.83154446813743" lon="10.627039260316344"><ele>11.0</ele><time>2026-05-02T14:49:07.999Z</time></trkpt><trkpt lat="43.83147424360717" lon="10.627307422789102"><ele>11.333333333333332</ele><time>2026-05-02T14:49:08.999Z</time></trkpt><trkpt lat="43.831400832832124" lon="10.627573807669094"><ele>11.666666666666666</ele><time>2026-05-02T14:49:09.999Z</time></trkpt><trkpt lat="43.83133142275317" lon="10.627853055974311"><ele>12.0</ele><time>2026-05-02T14:49:10.999Z</time></trkpt><trkpt lat="43.83126133888542" lon="10.628137680270848"><ele>12.0</ele><time>2026-05-02T14:49:11.999Z</time></trkpt><trkpt lat="43.83119660859337" lon="10.62839719472523"><ele>12.0</ele><time>2026-05-02T14:49:12.999Z</time></trkpt><trkpt lat="43.83113197697022" lon="10.62866135944612"><ele>12.0</ele><time>2026-05-02T14:49:13.999Z</time></trkpt><trkpt lat="43.83106570481079" lon="10.628938822012733"><ele>11.666666666666666</ele><time>2026-05-02T14:49:14.999Z</time></trkpt><trkpt lat="43.83099424388707" lon="10.62921486084477"><ele>11.333333333333332</ele><time>2026-05-02T14:49:15.999Z</time></trkpt><trkpt lat="43.83092777914661" lon="10.629494757029544"><ele>11.0</ele><time>2026-05-02T14:49:16.999Z</time></trkpt><trkpt lat="43.830859874613694" lon="10.62977279394627"><ele>11.0</ele><time>2026-05-02T14:49:17.999Z</time></trkpt><trkpt lat="43.83079849983899" lon="10.630054982636135"><ele>11.0</ele><time>2026-05-02T14:49:18.999Z</time></trkpt><trkpt lat="43.8307472309502" lon="10.630344245797309"><ele>11.0</ele><time>2026-05-02T14:49:19.999Z</time></trkpt><trkpt lat="43.83070551010907" lon="10.630629969529883"><ele>11.333333333333332</ele><time>2026-05-02T14:49:20.999Z</time></trkpt><trkpt lat="43.83066157964668" lon="10.63092872243472"><ele>11.666666666666666</ele><time>2026-05-02T14:49:21.999Z</time></trkpt><trkpt lat="43.830614328019784" lon="10.631238286183441"><ele>12.0</ele><time>2026-05-02T14:49:22.999Z</time></trkpt><trkpt lat="43.83056843070636" lon="10.631556062919056"><ele>12.0</ele><time>2026-05-02T14:49:24Z</time></trkpt><trkpt lat="43.83052157336335" lon="10.63188030161941"><ele>12.0</ele><time>2026-05-02T14:49:25Z</time></trkpt><trkpt lat="43.83047220792973" lon="10.632212323708615"><ele>13.0</ele><time>2026-05-02T14:49:26Z</time></trkpt><trkpt lat="43.8304202102244" lon="10.632546100578352"><ele>14.0</ele><time>2026-05-02T14:49:27Z</time></trkpt><trkpt lat="43.83037064616237" lon="10.632886810584118"><ele>14.0</ele><time>2026-05-02T14:49:28Z</time></trkpt><trkpt lat="43.830304141464715" lon="10.63322537970855"><ele>14.0</ele><time>2026-05-02T14:49:29Z</time></trkpt><trkpt lat="43.830268877700234" lon="10.63357041999383"><ele>14.0</ele><time>2026-05-02T14:49:30Z</time></trkpt><trkpt lat="43.83021350818405" lon="10.633915541252376"><ele>14.0</ele><time>2026-05-02T14:49:31Z</time></trkpt><trkpt lat="43.8301593778848" lon="10.634255213051015"><ele>11.5</ele><time>2026-05-02T14:49:32Z</time></trkpt><trkpt lat="43.83010766090559" lon="10.634591639273271"><ele>9.0</ele><time>2026-05-02T14:49:33Z</time></trkpt><trkpt lat="43.8300577149934" lon="10.634927896528165"><ele>9.0</ele><time>2026-05-02T14:49:34Z</time></trkpt><trkpt lat="43.830007754372296" lon="10.635259834436917"><ele>9.0</ele><time>2026-05-02T14:49:35Z</time></trkpt><trkpt lat="43.82996076547506" lon="10.635578842671933"><ele>10.0</ele><time>2026-05-02T14:49:36Z</time></trkpt><trkpt lat="43.82991484745394" lon="10.635889556946626"><ele>11.0</ele><time>2026-05-02T14:49:37Z</time></trkpt><trkpt lat="43.829866001525716" lon="10.636189710788274"><ele>12.0</ele><time>2026-05-02T14:49:38Z</time></trkpt><trkpt lat="43.829817995542605" lon="10.636495320461043"><ele>13.0</ele><time>2026-05-02T14:49:39Z</time></trkpt><trkpt lat="43.82976927838563" lon="10.636808626263118"><ele>13.5</ele><time>2026-05-02T14:49:40Z</time></trkpt><trkpt lat="43.829719520064955" lon="10.637135392140971"><ele>14.0</ele><time>2026-05-02T14:49:41Z</time></trkpt><trkpt lat="43.82967062721212" lon="10.63746026831501"><ele>14.0</ele><time>2026-05-02T14:49:42Z</time></trkpt><trkpt lat="43.8296220255291" lon="10.637782583217959"><ele>14.0</ele><time>2026-05-02T14:49:43Z</time></trkpt><trkpt lat="43.829574690168" lon="10.638097874547624"><ele>14.5</ele><time>2026-05-02T14:49:44Z</time></trkpt><trkpt lat="43.829527925982134" lon="10.6384053452339"><ele>15.0</ele><time>2026-05-02T14:49:45Z</time></trkpt><trkpt lat="43.829480561965" lon="10.638712799828678"><ele>16.5</ele><time>2026-05-02T14:49:46Z</time></trkpt><trkpt lat="43.82943339688086" lon="10.639023492720689"><ele>18.0</ele><time>2026-05-02T14:49:47Z</time></trkpt><trkpt lat="43.82938780120648" lon="10.639326667079692"><ele>17.333333333333332</ele><time>2026-05-02T14:49:48Z</time></trkpt><trkpt lat="43.82934558781459" lon="10.639607323744857"><ele>16.666666666666664</ele><time>2026-05-02T14:49:49Z</time></trkpt><trkpt lat="43.8293062539094" lon="10.639869474666785"><ele>16.0</ele><time>2026-05-02T14:49:50Z</time></trkpt><trkpt lat="43.829268689254334" lon="10.640129050456062"><ele>16.666666666666664</ele><time>2026-05-02T14:49:51Z</time></trkpt><trkpt lat="43.82923322383089" lon="10.640372617834489"><ele>17.333333333333332</ele><time>2026-05-02T14:49:52Z</time></trkpt><trkpt lat="43.82919337158937" lon="10.640623459001063"><ele>18.0</ele><time>2026-05-02T14:49:53Z</time></trkpt><trkpt lat="43.82914954620729" lon="10.64087897327456"><ele>18.333333333333332</ele><time>2026-05-02T14:49:54Z</time></trkpt><trkpt lat="43.82910770977871" lon="10.64113716732163"><ele>18.666666666666664</ele><time>2026-05-02T14:49:55Z</time></trkpt><trkpt lat="43.82906764323659" lon="10.64141191168954"><ele>19.0</ele><time>2026-05-02T14:49:56Z</time></trkpt><trkpt lat="43.829029929837205" lon="10.64167384821256"><ele>19.0</ele><time>2026-05-02T14:49:57Z</time></trkpt><trkpt lat="43.82899172049327" lon="10.641931464293489"><ele>19.0</ele><time>2026-05-02T14:49:58Z</time></trkpt><trkpt lat="43.82895535851288" lon="10.642173113303572"><ele>19.0</ele><time>2026-05-02T14:49:59Z</time></trkpt><trkpt lat="43.82892041383808" lon="10.642418103076235"><ele>19.0</ele><time>2026-05-02T14:50:00Z</time></trkpt><trkpt lat="43.82888303351381" lon="10.64266893521661"><ele>19.0</ele><time>2026-05-02T14:50:01Z</time></trkpt><trkpt lat="43.82884512716393" lon="10.642930577979199"><ele>19.0</ele><time>2026-05-02T14:50:02Z</time></trkpt><trkpt lat="43.82880788719683" lon="10.64319120020252"><ele>20.0</ele><time>2026-05-02T14:50:03Z</time></trkpt><trkpt lat="43.82876963131386" lon="10.64344651736456"><ele>21.0</ele><time>2026-05-02T14:50:04Z</time></trkpt><trkpt lat="43.82873329444413" lon="10.643691587515839"><ele>22.0</ele><time>2026-05-02T14:50:05Z</time></trkpt><trkpt lat="43.82869344803882" lon="10.643929262656888"><ele>22.0</ele><time>2026-05-02T14:50:06Z</time></trkpt><trkpt lat="43.82865735493285" lon="10.644171786808617"><ele>22.0</ele><time>2026-05-02T14:50:07Z</time></trkpt><trkpt lat="43.828623549824876" lon="10.644420211152614"><ele>22.0</ele><time>2026-05-02T14:50:08Z</time></trkpt><trkpt lat="43.82858979199827" lon="10.64467456375918"><ele>22.666666666666664</ele><time>2026-05-02T14:50:09Z</time></trkpt><trkpt lat="43.82855583362152" lon="10.644920183534243"><ele>23.333333333333332</ele><time>2026-05-02T14:50:10Z</time></trkpt><trkpt lat="43.828520412679254" lon="10.64515366634943"><ele>24.0</ele><time>2026-05-02T14:50:11Z</time></trkpt><trkpt lat="43.8284859740408" lon="10.645384936854896"><ele>25.333333333333336</ele><time>2026-05-02T14:50:12Z</time></trkpt><trkpt lat="43.82845356196004" lon="10.645605554180554"><ele>26.666666666666668</ele><time>2026-05-02T14:50:13Z</time></trkpt><trkpt lat="43.82842298378122" lon="10.645826989301653"><ele>28.0</ele><time>2026-05-02T14:50:14Z</time></trkpt><trkpt lat="43.82839000951829" lon="10.64605246229376"><ele>28.0</ele><time>2026-05-02T14:50:15Z</time></trkpt><trkpt lat="43.828361339999574" lon="10.64627525192111"><ele>28.0</ele><time>2026-05-02T14:50:16Z</time></trkpt><trkpt lat="43.82831680955756" lon="10.646475850163485"><ele>28.0</ele><time>2026-05-02T14:50:17Z</time></trkpt><trkpt lat="43.82830917488512" lon="10.646679087088852"><ele>28.0</ele><time>2026-05-02T14:50:18Z</time></trkpt><trkpt lat="43.828282563303" lon="10.64687959871955"><ele>28.0</ele><time>2026-05-02T14:50:19Z</time></trkpt><trkpt lat="43.82825908540472" lon="10.647085600514073"><ele>28.0</ele><time>2026-05-02T14:50:20Z</time></trkpt><trkpt lat="43.82822678818837" lon="10.647293999673279"><ele>28.333333333333336</ele><time>2026-05-02T14:50:21Z</time></trkpt><trkpt lat="43.82819404804329" lon="10.64750042756317"><ele>28.666666666666664</ele><time>2026-05-02T14:50:22Z</time></trkpt><trkpt lat="43.82815989578289" lon="10.647718097247255"><ele>29.0</ele><time>2026-05-02T14:50:23Z</time></trkpt><trkpt lat="43.82812670436731" lon="10.647930852650973"><ele>29.0</ele><time>2026-05-02T14:50:24Z</time></trkpt><trkpt lat="43.82809661288837" lon="10.648137171622201"><ele>29.0</ele><time>2026-05-02T14:50:25Z</time></trkpt><trkpt lat="43.82806600632266" lon="10.648348553807187"><ele>29.0</ele><time>2026-05-02T14:50:26Z</time></trkpt><trkpt lat="43.82803437643572" lon="10.648551766360454"><ele>29.25</ele><time>2026-05-02T14:50:27Z</time></trkpt><trkpt lat="43.82800507395147" lon="10.648748373791822"><ele>29.5</ele><time>2026-05-02T14:50:28Z</time></trkpt><trkpt lat="43.82797714439172" lon="10.648942800986976"><ele>29.75</ele><time>2026-05-02T14:50:29Z</time></trkpt><trkpt lat="43.82794853527608" lon="10.649123067429882"><ele>30.0</ele><time>2026-05-02T14:50:30Z</time></trkpt><trkpt lat="43.82791658934091" lon="10.649302309334976"><ele>30.0</ele><time>2026-05-02T14:50:31Z</time></trkpt><trkpt lat="43.82788175606258" lon="10.649465832086957"><ele>30.0</ele><time>2026-05-02T14:50:32Z</time></trkpt><trkpt lat="43.82784723455919" lon="10.649604398266467"><ele>30.0</ele><time>2026-05-02T14:50:33Z</time></trkpt><trkpt lat="43.82780926844558" lon="10.649719007341597"><ele>30.0</ele><time>2026-05-02T14:50:34Z</time></trkpt><trkpt lat="43.82776874958813" lon="10.649829144760927"><ele>30.0</ele><time>2026-05-02T14:50:35Z</time></trkpt><trkpt lat="43.82771905812518" lon="10.649938845411242"><ele>30.0</ele><time>2026-05-02T14:50:36Z</time></trkpt><trkpt lat="43.82766452903348" lon="10.650042266106096"><ele>30.0</ele><time>2026-05-02T14:50:37Z</time></trkpt><trkpt lat="43.82760431802418" lon="10.650125115653408"><ele>30.0</ele><time>2026-05-02T14:50:38Z</time></trkpt><trkpt lat="43.82754380357416" lon="10.650198527088117"><ele>30.0</ele><time>2026-05-02T14:50:39Z</time></trkpt><trkpt lat="43.827472904623995" lon="10.65026288103378"><ele>30.0</ele><time>2026-05-02T14:50:40Z</time></trkpt><trkpt lat="43.82739572894291" lon="10.650305501498266"><ele>30.0</ele><time>2026-05-02T14:50:41Z</time></trkpt><trkpt lat="43.827310694635685" lon="10.650339108594158"><ele>30.0</ele><time>2026-05-02T14:50:42Z</time></trkpt><trkpt lat="43.82718965556121" lon="10.650366506998214"><ele>30.0</ele><time>2026-05-02T14:50:43Z</time></trkpt><trkpt lat="43.8270580919272" lon="10.650378045022936"><ele>30.0</ele><time>2026-05-02T14:50:44Z</time></trkpt><trkpt lat="43.82688615881221" lon="10.65033412931376"><ele>30.0</ele><time>2026-05-02T14:50:45Z</time></trkpt><trkpt lat="43.82670307151866" lon="10.65026001595107"><ele>30.0</ele><time>2026-05-02T14:50:46Z</time></trkpt><trkpt lat="43.826512537851926" lon="10.650160343098793"><ele>30.0</ele><time>2026-05-02T14:50:47Z</time></trkpt><trkpt lat="43.82631241490923" lon="10.650075594171454"><ele>30.0</ele><time>2026-05-02T14:50:48Z</time></trkpt><trkpt lat="43.826121465606626" lon="10.65000287680827"><ele>30.333333333333336</ele><time>2026-05-02T14:50:49Z</time></trkpt><trkpt lat="43.825945124627914" lon="10.649940090112688"><ele>30.666666666666668</ele><time>2026-05-02T14:50:50Z</time></trkpt><trkpt lat="43.82577937538623" lon="10.64988015133451"><ele>31.0</ele><time>2026-05-02T14:50:51Z</time></trkpt><trkpt lat="43.82561814956346" lon="10.649818156895282"><ele>31.0</ele><time>2026-05-02T14:50:52Z</time></trkpt><trkpt lat="43.825449897628246" lon="10.649752248246774"><ele>31.0</ele><time>2026-05-02T14:50:53Z</time></trkpt><trkpt lat="43.8252738320997" lon="10.649679727628508"><ele>31.0</ele><time>2026-05-02T14:50:54Z</time></trkpt><trkpt lat="43.82509823944615" lon="10.649609418258832"><ele>29.666666666666668</ele><time>2026-05-02T14:50:55Z</time></trkpt><trkpt lat="43.82492754240907" lon="10.649542959156415"><ele>28.333333333333336</ele><time>2026-05-02T14:50:56Z</time></trkpt><trkpt lat="43.82474616934332" lon="10.649477830576943"><ele>27.0</ele><time>2026-05-02T14:50:57Z</time></trkpt><trkpt lat="43.8245408496417" lon="10.649413439075255"><ele>26.5</ele><time>2026-05-02T14:50:58Z</time></trkpt><trkpt lat="43.824311704833704" lon="10.649332020484428"><ele>26.0</ele><time>2026-05-02T14:50:59Z</time></trkpt><trkpt lat="43.82407989179613" lon="10.649224005478434"><ele>26.0</ele><time>2026-05-02T14:51:00Z</time></trkpt><trkpt lat="43.8238438235769" lon="10.64911461257412"><ele>26.0</ele><time>2026-05-02T14:51:01Z</time></trkpt><trkpt lat="43.82361173403522" lon="10.649018909638286"><ele>25.0</ele><time>2026-05-02T14:51:02Z</time></trkpt><trkpt lat="43.823380159872926" lon="10.648932688444871"><ele>24.0</ele><time>2026-05-02T14:51:03Z</time></trkpt><trkpt lat="43.823151427496754" lon="10.648848162429944"><ele>24.0</ele><time>2026-05-02T14:51:03.999Z</time></trkpt><trkpt lat="43.822939993080084" lon="10.648765641303067"><ele>24.0</ele><time>2026-05-02T14:51:04.999Z</time></trkpt><trkpt lat="43.82273820336237" lon="10.648682646838909"><ele>24.0</ele><time>2026-05-02T14:51:05.999Z</time></trkpt><trkpt lat="43.82254993031422" lon="10.648606917854208"><ele>23.333333333333332</ele><time>2026-05-02T14:51:06.999Z</time></trkpt><trkpt lat="43.822375141027074" lon="10.648538228097502"><ele>22.666666666666664</ele><time>2026-05-02T14:51:07.999Z</time></trkpt><trkpt lat="43.82221815884041" lon="10.648477507511124"><ele>22.0</ele><time>2026-05-02T14:51:08.999Z</time></trkpt><trkpt lat="43.82208176428334" lon="10.64842513059287"><ele>22.0</ele><time>2026-05-02T14:51:09.999Z</time></trkpt><trkpt lat="43.821974592594664" lon="10.648385482945768"><ele>22.0</ele><time>2026-05-02T14:51:10.999Z</time></trkpt><trkpt lat="43.82188964456081" lon="10.648364506120709"><ele>22.0</ele><time>2026-05-02T14:51:11.999Z</time></trkpt><trkpt lat="43.821824219654694" lon="10.648347035026555"><ele>22.0</ele><time>2026-05-02T14:51:12.999Z</time></trkpt><trkpt lat="43.821685876459256" lon="10.648554001222973"><ele>22.25</ele><time>2026-05-02T14:51:14.999Z</time></trkpt><trkpt lat="43.8216131726789" lon="10.648721583050508"><ele>22.5</ele><time>2026-05-02T14:51:15.999Z</time></trkpt><trkpt lat="43.821514137265915" lon="10.648900943466662"><ele>22.75</ele><time>2026-05-02T14:51:16.999Z</time></trkpt><trkpt lat="43.821429078775225" lon="10.649061081487952"><ele>23.0</ele><time>2026-05-02T14:51:17.999Z</time></trkpt><trkpt lat="43.821371983652234" lon="10.649163591831332"><ele>23.0</ele><time>2026-05-02T14:51:18.999Z</time></trkpt><trkpt lat="43.82132543635315" lon="10.64926892809624"><ele>23.0</ele><time>2026-05-02T14:51:19.999Z</time></trkpt><trkpt lat="43.821264588937545" lon="10.649392007516928"><ele>23.0</ele><time>2026-05-02T14:51:20.999Z</time></trkpt><trkpt lat="43.821200175055026" lon="10.649542363757298"><ele>23.0</ele><time>2026-05-02T14:51:21.999Z</time></trkpt><trkpt lat="43.82115491595004" lon="10.649722033733935"><ele>22.5</ele><time>2026-05-02T14:51:22.999Z</time></trkpt><trkpt lat="43.82112081656211" lon="10.649899605413838"><ele>22.0</ele><time>2026-05-02T14:51:23.999Z</time></trkpt><trkpt lat="43.82107839505349" lon="10.65007771005518"><ele>21.5</ele><time>2026-05-02T14:51:24.999Z</time></trkpt><trkpt lat="43.82105183096037" lon="10.650249710501619"><ele>21.0</ele><time>2026-05-02T14:51:25.999Z</time></trkpt><trkpt lat="43.82102727697329" lon="10.6504086956532"><ele>20.75</ele><time>2026-05-02T14:51:26.999Z</time></trkpt><trkpt lat="43.82100331718957" lon="10.650562802351278"><ele>20.5</ele><time>2026-05-02T14:51:27.999Z</time></trkpt><trkpt lat="43.82097860445656" lon="10.650721677731111"><ele>20.25</ele><time>2026-05-02T14:51:28.999Z</time></trkpt><trkpt lat="43.82095208106217" lon="10.650902869324492"><ele>20.0</ele><time>2026-05-02T14:51:30Z</time></trkpt><trkpt lat="43.82092554411949" lon="10.651086630244071"><ele>18.75</ele><time>2026-05-02T14:51:31Z</time></trkpt><trkpt lat="43.82089867885485" lon="10.651273497713449"><ele>17.5</ele><time>2026-05-02T14:51:32Z</time></trkpt><trkpt lat="43.820884638034194" lon="10.651466095448454"><ele>16.25</ele><time>2026-05-02T14:51:33Z</time></trkpt><trkpt lat="43.82084962335463" lon="10.651679094600972"><ele>15.0</ele><time>2026-05-02T14:51:34Z</time></trkpt><trkpt lat="43.82081888073001" lon="10.65190588402028"><ele>16.333333333333332</ele><time>2026-05-02T14:51:35Z</time></trkpt><trkpt lat="43.820781758701195" lon="10.65213272708799"><ele>17.666666666666664</ele><time>2026-05-02T14:51:36Z</time></trkpt><trkpt lat="43.820751427392175" lon="10.652357638843572"><ele>19.0</ele><time>2026-05-02T14:51:37Z</time></trkpt><trkpt lat="43.82072005768299" lon="10.652590431596048"><ele>19.666666666666664</ele><time>2026-05-02T14:51:38Z</time></trkpt><trkpt lat="43.82069159485723" lon="10.652815227942389"><ele>20.333333333333332</ele><time>2026-05-02T14:51:39Z</time></trkpt><trkpt lat="43.820656568507374" lon="10.6530348698405"><ele>21.0</ele><time>2026-05-02T14:51:40Z</time></trkpt><trkpt lat="43.820622150203725" lon="10.653261395160515"><ele>21.0</ele><time>2026-05-02T14:51:41Z</time></trkpt><trkpt lat="43.82057557122348" lon="10.653464304616882"><ele>21.0</ele><time>2026-05-02T14:51:42Z</time></trkpt><trkpt lat="43.820538473963666" lon="10.653659343559834"><ele>21.0</ele><time>2026-05-02T14:51:43Z</time></trkpt><trkpt lat="43.82049180252167" lon="10.653867642530866"><ele>21.0</ele><time>2026-05-02T14:51:44Z</time></trkpt><trkpt lat="43.820437545609174" lon="10.654090709606548"><ele>21.0</ele><time>2026-05-02T14:51:45Z</time></trkpt><trkpt lat="43.820382177096135" lon="10.654314734387992"><ele>21.0</ele><time>2026-05-02T14:51:46Z</time></trkpt><trkpt lat="43.820325458907234" lon="10.654527475020933"><ele>21.25</ele><time>2026-05-02T14:51:47Z</time></trkpt><trkpt lat="43.82027289054687" lon="10.654722081711645"><ele>21.5</ele><time>2026-05-02T14:51:48Z</time></trkpt><trkpt lat="43.820219997866765" lon="10.654913614364164"><ele>21.75</ele><time>2026-05-02T14:51:49Z</time></trkpt><trkpt lat="43.820185783070634" lon="10.655095177669457"><ele>22.0</ele><time>2026-05-02T14:51:50Z</time></trkpt><trkpt lat="43.82014332900902" lon="10.655242514882794"><ele>21.5</ele><time>2026-05-02T14:51:51Z</time></trkpt><trkpt lat="43.820106619205326" lon="10.655375928680746"><ele>21.0</ele><time>2026-05-02T14:51:52Z</time></trkpt><trkpt lat="43.820074953545124" lon="10.655507619901543"><ele>20.5</ele><time>2026-05-02T14:51:53Z</time></trkpt><trkpt lat="43.82004687030602" lon="10.655614383364187"><ele>20.0</ele><time>2026-05-02T14:51:54Z</time></trkpt><trkpt lat="43.820016101430475" lon="10.655690933833649"><ele>19.5</ele><time>2026-05-02T14:51:55Z</time></trkpt><trkpt lat="43.81996139488504" lon="10.655740111658083"><ele>19.0</ele><time>2026-05-02T14:51:56Z</time></trkpt><trkpt lat="43.819861250483186" lon="10.655673713586408"><ele>19.0</ele><time>2026-05-02T14:51:57Z</time></trkpt><trkpt lat="43.81976496408095" lon="10.655713188569068"><ele>19.0</ele><time>2026-05-02T14:51:58Z</time></trkpt><trkpt lat="43.81964541561874" lon="10.655732866473025"><ele>19.0</ele><time>2026-05-02T14:51:59Z</time></trkpt><trkpt lat="43.81951780348368" lon="10.655756485271793"><ele>19.0</ele><time>2026-05-02T14:52:00Z</time></trkpt><trkpt lat="43.819395541965285" lon="10.655767576739937"><ele>18.599999999999998</ele><time>2026-05-02T14:52:01Z</time></trkpt><trkpt lat="43.81929014732933" lon="10.655790354815553"><ele>18.2</ele><time>2026-05-02T14:52:02Z</time></trkpt><trkpt lat="43.8192039929869" lon="10.655809133544949"><ele>17.799999999999997</ele><time>2026-05-02T14:52:03Z</time></trkpt><trkpt lat="43.819111390488786" lon="10.65582931779778"><ele>17.4</ele><time>2026-05-02T14:52:04Z</time></trkpt><trkpt lat="43.81899582905365" lon="10.655854506224408"><ele>17.0</ele><time>2026-05-02T14:52:05Z</time></trkpt><trkpt lat="43.81886526790284" lon="10.655877930359607"><ele>17.0</ele><time>2026-05-02T14:52:06Z</time></trkpt><trkpt lat="43.81873063846524" lon="10.655888120038565"><ele>17.0</ele><time>2026-05-02T14:52:07Z</time></trkpt><trkpt lat="43.81860358048932" lon="10.655876878477242"><ele>17.0</ele><time>2026-05-02T14:52:08Z</time></trkpt><trkpt lat="43.818475744533025" lon="10.655852728644902"><ele>17.0</ele><time>2026-05-02T14:52:09Z</time></trkpt><trkpt lat="43.818333731759324" lon="10.65581203837145"><ele>16.75</ele><time>2026-05-02T14:52:10Z</time></trkpt><trkpt lat="43.818206624244695" lon="10.655744966229996"><ele>16.5</ele><time>2026-05-02T14:52:11Z</time></trkpt><trkpt lat="43.81808735195822" lon="10.655656419546764"><ele>16.25</ele><time>2026-05-02T14:52:12Z</time></trkpt><trkpt lat="43.81797880808144" lon="10.655563884429089"><ele>16.0</ele><time>2026-05-02T14:52:13Z</time></trkpt><trkpt lat="43.8178799102716" lon="10.655485019923683"><ele>16.0</ele><time>2026-05-02T14:52:14Z</time></trkpt><trkpt lat="43.81778020872851" lon="10.655410847832583"><ele>16.0</ele><time>2026-05-02T14:52:15Z</time></trkpt><trkpt lat="43.81766021785324" lon="10.655359268228668"><ele>16.0</ele><time>2026-05-02T14:52:16Z</time></trkpt><trkpt lat="43.81752390350564" lon="10.655304255648867"><ele>16.0</ele><time>2026-05-02T14:52:17Z</time></trkpt><trkpt lat="43.817383352339654" lon="10.655281909784229"><ele>16.0</ele><time>2026-05-02T14:52:18Z</time></trkpt><trkpt lat="43.817235115691275" lon="10.655273893771856"><ele>16.0</ele><time>2026-05-02T14:52:19Z</time></trkpt><trkpt lat="43.81708678793905" lon="10.655297323552622"><ele>16.0</ele><time>2026-05-02T14:52:20Z</time></trkpt><trkpt lat="43.81694144402728" lon="10.655358332276212"><ele>16.0</ele><time>2026-05-02T14:52:21Z</time></trkpt><trkpt lat="43.81678976130093" lon="10.65540191877572"><ele>16.0</ele><time>2026-05-02T14:52:22Z</time></trkpt><trkpt lat="43.81663713646557" lon="10.655392084356434"><ele>16.0</ele><time>2026-05-02T14:52:23Z</time></trkpt><trkpt lat="43.81650627272808" lon="10.655358833635821"><ele>16.0</ele><time>2026-05-02T14:52:24Z</time></trkpt><trkpt lat="43.816394532237524" lon="10.65533089044856"><ele>16.0</ele><time>2026-05-02T14:52:25Z</time></trkpt><trkpt lat="43.81629741999305" lon="10.65530349856025"><ele>16.0</ele><time>2026-05-02T14:52:26Z</time></trkpt><trkpt lat="43.81619992903934" lon="10.655290830129804"><ele>16.0</ele><time>2026-05-02T14:52:27Z</time></trkpt><trkpt lat="43.81609735288485" lon="10.655274677584678"><ele>16.0</ele><time>2026-05-02T14:52:28Z</time></trkpt><trkpt lat="43.81599306019701" lon="10.655243559869223"><ele>16.0</ele><time>2026-05-02T14:52:29Z</time></trkpt><trkpt lat="43.815892893508" lon="10.655212975642526"><ele>16.0</ele><time>2026-05-02T14:52:30Z</time></trkpt><trkpt lat="43.81580360163988" lon="10.655191302109486"><ele>16.6</ele><time>2026-05-02T14:52:31Z</time></trkpt><trkpt lat="43.81570885850418" lon="10.65516518751776"><ele>17.200000000000003</ele><time>2026-05-02T14:52:32Z</time></trkpt><trkpt lat="43.81560829363903" lon="10.655103873783936"><ele>17.799999999999997</ele><time>2026-05-02T14:52:33Z</time></trkpt><trkpt lat="43.81551790170757" lon="10.654988208012364"><ele>18.4</ele><time>2026-05-02T14:52:34Z</time></trkpt><trkpt lat="43.8154297344392" lon="10.654891377817236"><ele>19.0</ele><time>2026-05-02T14:52:35Z</time></trkpt><trkpt lat="43.815325513186735" lon="10.654854176181953"><ele>19.0</ele><time>2026-05-02T14:52:36Z</time></trkpt><trkpt lat="43.81523538618535" lon="10.654866917819826"><ele>19.0</ele><time>2026-05-02T14:52:37Z</time></trkpt><trkpt lat="43.81515344963936" lon="10.65489111238369"><ele>19.0</ele><time>2026-05-02T14:52:38Z</time></trkpt><trkpt lat="43.81505739334928" lon="10.654926052905342"><ele>19.0</ele><time>2026-05-02T14:52:39Z</time></trkpt><trkpt lat="43.81494170009388" lon="10.654934854264711"><ele>19.0</ele><time>2026-05-02T14:52:40Z</time></trkpt><trkpt lat="43.814811258885726" lon="10.654976392229162"><ele>18.75</ele><time>2026-05-02T14:52:41Z</time></trkpt><trkpt lat="43.81467338286783" lon="10.655022817852306"><ele>18.5</ele><time>2026-05-02T14:52:42Z</time></trkpt><trkpt lat="43.81453606677909" lon="10.655069054978002"><ele>18.25</ele><time>2026-05-02T14:52:43Z</time></trkpt><trkpt lat="43.814391036562974" lon="10.655118052268435"><ele>18.0</ele><time>2026-05-02T14:52:44Z</time></trkpt><trkpt lat="43.81424441405485" lon="10.655167784389239"><ele>17.75</ele><time>2026-05-02T14:52:45Z</time></trkpt><trkpt lat="43.81410858281703" lon="10.655213856302462"><ele>17.5</ele><time>2026-05-02T14:52:46Z</time></trkpt><trkpt lat="43.81396780529445" lon="10.655261605890297"><ele>17.25</ele><time>2026-05-02T14:52:47Z</time></trkpt><trkpt lat="43.81384256299133" lon="10.655304086186035"><ele>17.0</ele><time>2026-05-02T14:52:48Z</time></trkpt><trkpt lat="43.813721616075355" lon="10.655345109537416"><ele>17.0</ele><time>2026-05-02T14:52:49Z</time></trkpt><trkpt lat="43.813616746490645" lon="10.655380679707985"><ele>17.0</ele><time>2026-05-02T14:52:50Z</time></trkpt><trkpt lat="43.81352259942428" lon="10.65541261297663"><ele>17.0</ele><time>2026-05-02T14:52:51Z</time></trkpt><trkpt lat="43.81343647586712" lon="10.655441824766285"><ele>17.0</ele><time>2026-05-02T14:52:52Z</time></trkpt><trkpt lat="43.81334956909473" lon="10.655471302243052"><ele>17.0</ele><time>2026-05-02T14:52:53Z</time></trkpt><trkpt lat="43.81325215986057" lon="10.655504341760496"><ele>16.75</ele><time>2026-05-02T14:52:54Z</time></trkpt><trkpt lat="43.813138391426506" lon="10.655543342373042"><ele>16.5</ele><time>2026-05-02T14:52:55Z</time></trkpt><trkpt lat="43.8130045270435" lon="10.655589075417033"><ele>16.25</ele><time>2026-05-02T14:52:56Z</time></trkpt><trkpt lat="43.812859489757706" lon="10.655638625670102"><ele>16.0</ele><time>2026-05-02T14:52:57Z</time></trkpt><trkpt lat="43.812715087431314" lon="10.655687960301702"><ele>15.5</ele><time>2026-05-02T14:52:58Z</time></trkpt><trkpt lat="43.81256332739792" lon="10.655740243376536"><ele>15.0</ele><time>2026-05-02T14:52:59Z</time></trkpt><trkpt lat="43.81242035642882" lon="10.65578985602887"><ele>14.5</ele><time>2026-05-02T14:53:00Z</time></trkpt><trkpt lat="43.812282485323564" lon="10.655837984621467"><ele>14.0</ele><time>2026-05-02T14:53:01Z</time></trkpt><trkpt lat="43.812157983136025" lon="10.655881446346767"><ele>14.0</ele><time>2026-05-02T14:53:02Z</time></trkpt><trkpt lat="43.81202749704778" lon="10.655926996948548"><ele>14.0</ele><time>2026-05-02T14:53:03Z</time></trkpt><trkpt lat="43.81189048757165" lon="10.655974824765154"><ele>14.0</ele><time>2026-05-02T14:53:04Z</time></trkpt><trkpt lat="43.811736728153654" lon="10.656028499713655"><ele>14.0</ele><time>2026-05-02T14:53:05Z</time></trkpt><trkpt lat="43.811579455056155" lon="10.656083401233353"><ele>13.666666666666668</ele><time>2026-05-02T14:53:06Z</time></trkpt><trkpt lat="43.8114176014934" lon="10.656139428462705"><ele>13.333333333333332</ele><time>2026-05-02T14:53:07Z</time></trkpt><trkpt lat="43.81125100876284" lon="10.656196709692903"><ele>13.0</ele><time>2026-05-02T14:53:08Z</time></trkpt><trkpt lat="43.81108697623007" lon="10.656253110624126"><ele>12.75</ele><time>2026-05-02T14:53:09Z</time></trkpt><trkpt lat="43.81093383987376" lon="10.656305765013933"><ele>12.5</ele><time>2026-05-02T14:53:10Z</time></trkpt><trkpt lat="43.81079113372518" lon="10.656354833084418"><ele>12.25</ele><time>2026-05-02T14:53:11Z</time></trkpt><trkpt lat="43.81065475904047" lon="10.656401871875914"><ele>12.0</ele><time>2026-05-02T14:53:12Z</time></trkpt><trkpt lat="43.81052680219983" lon="10.6564460821427"><ele>12.0</ele><time>2026-05-02T14:53:13Z</time></trkpt><trkpt lat="43.81040197592645" lon="10.656489210758743"><ele>12.0</ele><time>2026-05-02T14:53:14Z</time></trkpt><trkpt lat="43.81030321063048" lon="10.656522721364102"><ele>12.0</ele><time>2026-05-02T14:53:15Z</time></trkpt><trkpt lat="43.810222296770945" lon="10.656549449665787"><ele>12.0</ele><time>2026-05-02T14:53:16Z</time></trkpt><trkpt lat="43.81015236802574" lon="10.656573866446529"><ele>12.0</ele><time>2026-05-02T14:53:17Z</time></trkpt><trkpt lat="43.81008568254057" lon="10.656609155601268"><ele>12.2</ele><time>2026-05-02T14:53:18Z</time></trkpt><trkpt lat="43.81003633348061" lon="10.65668264310831"><ele>12.399999999999999</ele><time>2026-05-02T14:53:18.999Z</time></trkpt><trkpt lat="43.81004770804515" lon="10.656850939402354"><ele>12.600000000000001</ele><time>2026-05-02T14:53:19.999Z</time></trkpt><trkpt lat="43.810096658045985" lon="10.657021417854903"><ele>12.8</ele><time>2026-05-02T14:53:20.999Z</time></trkpt><trkpt lat="43.810109620135606" lon="10.657187521347334"><ele>13.0</ele><time>2026-05-02T14:53:21.999Z</time></trkpt><trkpt lat="43.8101356681372" lon="10.65736408818335"><ele>13.2</ele><time>2026-05-02T14:53:22.999Z</time></trkpt><trkpt lat="43.810162198654076" lon="10.657543925794638"><ele>13.4</ele><time>2026-05-02T14:53:23.999Z</time></trkpt><trkpt lat="43.81018657444766" lon="10.65770915751728"><ele>13.599999999999998</ele><time>2026-05-02T14:53:24.999Z</time></trkpt><trkpt lat="43.810204883386355" lon="10.657850261260789"><ele>13.799999999999999</ele><time>2026-05-02T14:53:25.999Z</time></trkpt><trkpt lat="43.8102093971485" lon="10.657970367319276"><ele>14.0</ele><time>2026-05-02T14:53:26.999Z</time></trkpt><trkpt lat="43.810195026133655" lon="10.658097867390868"><ele>14.0</ele><time>2026-05-02T14:53:27.999Z</time></trkpt><trkpt lat="43.81014716919084" lon="10.65819616623488"><ele>14.0</ele><time>2026-05-02T14:53:28.999Z</time></trkpt><trkpt lat="43.810086102054484" lon="10.65833421953355"><ele>14.0</ele><time>2026-05-02T14:53:29.999Z</time></trkpt><trkpt lat="43.810019473682125" lon="10.65849129241151"><ele>14.0</ele><time>2026-05-02T14:53:30.999Z</time></trkpt><trkpt lat="43.80993340700887" lon="10.658651988506545"><ele>14.0</ele><time>2026-05-02T14:53:31.999Z</time></trkpt><trkpt lat="43.809848630230654" lon="10.658796492385902"><ele>14.0</ele><time>2026-05-02T14:53:32.999Z</time></trkpt><trkpt lat="43.80978526417959" lon="10.65894049748825"><ele>14.0</ele><time>2026-05-02T14:53:33.999Z</time></trkpt><trkpt lat="43.80972049177455" lon="10.659076400427603"><ele>14.0</ele><time>2026-05-02T14:53:34.999Z</time></trkpt><trkpt lat="43.80965713342026" lon="10.659208317528822"><ele>14.0</ele><time>2026-05-02T14:53:36Z</time></trkpt><trkpt lat="43.80958887736828" lon="10.659356603529348"><ele>14.0</ele><time>2026-05-02T14:53:37Z</time></trkpt><trkpt lat="43.80951105985373" lon="10.65951355387387"><ele>14.0</ele><time>2026-05-02T14:53:38Z</time></trkpt><trkpt lat="43.809425761614804" lon="10.659688892645338"><ele>14.0</ele><time>2026-05-02T14:53:39Z</time></trkpt><trkpt lat="43.809337276721685" lon="10.65987352157878"><ele>12.666666666666668</ele><time>2026-05-02T14:53:40Z</time></trkpt><trkpt lat="43.80925225560354" lon="10.660045777262027"><ele>11.333333333333334</ele><time>2026-05-02T14:53:41Z</time></trkpt><trkpt lat="43.80916683800082" lon="10.660218973311837"><ele>10.0</ele><time>2026-05-02T14:53:42Z</time></trkpt><trkpt lat="43.80907886037691" lon="10.660401313158621"><ele>10.0</ele><time>2026-05-02T14:53:43Z</time></trkpt><trkpt lat="43.80900037383845" lon="10.660562892303616"><ele>10.0</ele><time>2026-05-02T14:53:44Z</time></trkpt><trkpt lat="43.80892180479551" lon="10.660720423780317"><ele>10.0</ele><time>2026-05-02T14:53:45Z</time></trkpt><trkpt lat="43.808840495658465" lon="10.66087680181637"><ele>10.0</ele><time>2026-05-02T14:53:46Z</time></trkpt><trkpt lat="43.80875139276376" lon="10.661049578769402"><ele>10.25</ele><time>2026-05-02T14:53:47Z</time></trkpt><trkpt lat="43.808660964949695" lon="10.661225749160776"><ele>10.5</ele><time>2026-05-02T14:53:48Z</time></trkpt><trkpt lat="43.80857959498752" lon="10.661396798479007"><ele>10.75</ele><time>2026-05-02T14:53:49Z</time></trkpt><trkpt lat="43.808503663942744" lon="10.661560675004589"><ele>11.0</ele><time>2026-05-02T14:53:50Z</time></trkpt><trkpt lat="43.808421644820584" lon="10.661720065740845"><ele>11.0</ele><time>2026-05-02T14:53:51Z</time></trkpt><trkpt lat="43.80834062640821" lon="10.66189826249734"><ele>11.0</ele><time>2026-05-02T14:53:52Z</time></trkpt><trkpt lat="43.808255218149" lon="10.662058766282053"><ele>11.0</ele><time>2026-05-02T14:53:53Z</time></trkpt><trkpt lat="43.808185057737546" lon="10.662208978186582"><ele>11.0</ele><time>2026-05-02T14:53:54Z</time></trkpt><trkpt lat="43.80811563219285" lon="10.66234320950487"><ele>10.8</ele><time>2026-05-02T14:53:55Z</time></trkpt><trkpt lat="43.80805611529101" lon="10.662465357525575"><ele>10.600000000000001</ele><time>2026-05-02T14:53:56Z</time></trkpt><trkpt lat="43.80800006521759" lon="10.662586530646132"><ele>10.4</ele><time>2026-05-02T14:53:57Z</time></trkpt><trkpt lat="43.80794664091527" lon="10.662697625944723"><ele>10.2</ele><time>2026-05-02T14:53:58Z</time></trkpt><trkpt lat="43.80789853595107" lon="10.662790946022195"><ele>10.0</ele><time>2026-05-02T14:53:59Z</time></trkpt><trkpt lat="43.80782483040492" lon="10.662883286917621"><ele>10.0</ele><time>2026-05-02T14:54:01Z</time></trkpt><trkpt lat="43.807790388576834" lon="10.662957564145342"><ele>10.0</ele><time>2026-05-02T14:54:05Z</time></trkpt><trkpt lat="43.8076678244236" lon="10.662932827037212"><ele>10.0</ele><time>2026-05-02T14:54:07Z</time></trkpt><trkpt lat="43.80758467186365" lon="10.662875656779088"><ele>10.0</ele><time>2026-05-02T14:54:08Z</time></trkpt><trkpt lat="43.807504601744206" lon="10.662804629996579"><ele>10.0</ele><time>2026-05-02T14:54:09Z</time></trkpt><trkpt lat="43.80739179944409" lon="10.662703360051955"><ele>9.333333333333334</ele><time>2026-05-02T14:54:10Z</time></trkpt><trkpt lat="43.807272166175665" lon="10.662601233815385"><ele>8.666666666666666</ele><time>2026-05-02T14:54:11Z</time></trkpt><trkpt lat="43.8071245563242" lon="10.662458189637096"><ele>8.0</ele><time>2026-05-02T14:54:12Z</time></trkpt><trkpt lat="43.80694612942854" lon="10.662305109091154"><ele>8.0</ele><time>2026-05-02T14:54:13Z</time></trkpt><trkpt lat="43.806756246653386" lon="10.662142200022931"><ele>8.0</ele><time>2026-05-02T14:54:14Z</time></trkpt><trkpt lat="43.806552924360226" lon="10.661979779318033"><ele>8.0</ele><time>2026-05-02T14:54:15Z</time></trkpt><trkpt lat="43.806360127742884" lon="10.661809477128745"><ele>8.0</ele><time>2026-05-02T14:54:16Z</time></trkpt><trkpt lat="43.80618115412495" lon="10.661647853792863"><ele>8.0</ele><time>2026-05-02T14:54:17Z</time></trkpt><trkpt lat="43.806023438334435" lon="10.661488039167688"><ele>7.666666666666666</ele><time>2026-05-02T14:54:18Z</time></trkpt><trkpt lat="43.80588108229712" lon="10.661313562941103"><ele>7.333333333333334</ele><time>2026-05-02T14:54:19Z</time></trkpt><trkpt lat="43.80575179424041" lon="10.661120864417306"><ele>7.0</ele><time>2026-05-02T14:54:20Z</time></trkpt><trkpt lat="43.80564410799339" lon="10.660922249888838"><ele>7.0</ele><time>2026-05-02T14:54:21Z</time></trkpt><trkpt lat="43.805551990030544" lon="10.660741852282458"><ele>7.0</ele><time>2026-05-02T14:54:22Z</time></trkpt><trkpt lat="43.80546201840485" lon="10.660591563340956"><ele>7.0</ele><time>2026-05-02T14:54:23Z</time></trkpt><trkpt lat="43.80537376892999" lon="10.660468947429388"><ele>7.0</ele><time>2026-05-02T14:54:24Z</time></trkpt><trkpt lat="43.805288215028135" lon="10.66036970783052"><ele>7.000000000000001</ele><time>2026-05-02T14:54:25Z</time></trkpt><trkpt lat="43.805218010044605" lon="10.660293983659159"><ele>7.0</ele><time>2026-05-02T14:54:26Z</time></trkpt><trkpt lat="43.80516111210241" lon="10.66022642692308"><ele>7.0</ele><time>2026-05-02T14:54:27Z</time></trkpt><trkpt lat="43.80511646542562" lon="10.660162272661946"><ele>7.0</ele><time>2026-05-02T14:54:28Z</time></trkpt><trkpt lat="43.805070428974204" lon="10.66008956602476"><ele>7.000000000000001</ele><time>2026-05-02T14:54:29Z</time></trkpt><trkpt lat="43.805020161542885" lon="10.659992381672472"><ele>7.0</ele><time>2026-05-02T14:54:30Z</time></trkpt><trkpt lat="43.80498763966454" lon="10.659874411608785"><ele>6.857142857142857</ele><time>2026-05-02T14:54:31Z</time></trkpt><trkpt lat="43.804948635592766" lon="10.659779599454483"><ele>6.714285714285714</ele><time>2026-05-02T14:54:32Z</time></trkpt><trkpt lat="43.80488643944351" lon="10.659715537330387"><ele>6.571428571428571</ele><time>2026-05-02T14:54:33Z</time></trkpt><trkpt lat="43.80482437561952" lon="10.659692160077746"><ele>6.428571428571429</ele><time>2026-05-02T14:54:34Z</time></trkpt><trkpt lat="43.80475832571065" lon="10.659709015361354"><ele>6.285714285714286</ele><time>2026-05-02T14:54:35Z</time></trkpt><trkpt lat="43.80469719279801" lon="10.6597666474696"><ele>6.142857142857142</ele><time>2026-05-02T14:54:36Z</time></trkpt><trkpt lat="43.80464356823051" lon="10.659844034761463"><ele>6.0</ele><time>2026-05-02T14:54:37Z</time></trkpt><trkpt lat="43.80465688526529" lon="10.65997247684508"><ele>6.0</ele><time>2026-05-02T14:54:38Z</time></trkpt><trkpt lat="43.80467552228673" lon="10.660128164063746"><ele>6.0</ele><time>2026-05-02T14:54:39Z</time></trkpt><trkpt lat="43.80469089847814" lon="10.66031376362617"><ele>6.0</ele><time>2026-05-02T14:54:40Z</time></trkpt><trkpt lat="43.80467654720253" lon="10.660509307455404"><ele>6.0</ele><time>2026-05-02T14:54:41Z</time></trkpt><trkpt lat="43.80464536589137" lon="10.66073236388514"><ele>5.666666666666667</ele><time>2026-05-02T14:54:42Z</time></trkpt><trkpt lat="43.80460454134242" lon="10.660969056889458"><ele>5.333333333333334</ele><time>2026-05-02T14:54:43Z</time></trkpt><trkpt lat="43.804548700952054" lon="10.66121859529612"><ele>5.0</ele><time>2026-05-02T14:54:44Z</time></trkpt><trkpt lat="43.80450248742144" lon="10.661492389281882"><ele>5.0</ele><time>2026-05-02T14:54:45Z</time></trkpt><trkpt lat="43.80445256326404" lon="10.661783384401057"><ele>5.0</ele><time>2026-05-02T14:54:46Z</time></trkpt><trkpt lat="43.80439959997086" lon="10.662092093859789"><ele>5.0</ele><time>2026-05-02T14:54:47Z</time></trkpt><trkpt lat="43.804344569779566" lon="10.662416856916659"><ele>5.0</ele><time>2026-05-02T14:54:48Z</time></trkpt><trkpt lat="43.80428758981556" lon="10.662753514783185"><ele>5.0</ele><time>2026-05-02T14:54:49Z</time></trkpt><trkpt lat="43.80422812132086" lon="10.663104875722022"><ele>5.0</ele><time>2026-05-02T14:54:50Z</time></trkpt><trkpt lat="43.8041668447225" lon="10.663466084737463"><ele>5.0</ele><time>2026-05-02T14:54:51Z</time></trkpt><trkpt lat="43.80410311260568" lon="10.663840894618124"><ele>5.5</ele><time>2026-05-02T14:54:52Z</time></trkpt><trkpt lat="43.80403824274539" lon="10.664222395656585"><ele>6.0</ele><time>2026-05-02T14:54:53Z</time></trkpt><trkpt lat="43.80398843505489" lon="10.664615455112823"><ele>8.0</ele><time>2026-05-02T14:54:54Z</time></trkpt><trkpt lat="43.80390517875287" lon="10.665001300560029"><ele>10.0</ele><time>2026-05-02T14:54:55Z</time></trkpt><trkpt lat="43.80383858806781" lon="10.665389915352035"><ele>12.0</ele><time>2026-05-02T14:54:56Z</time></trkpt><trkpt lat="43.803774323345806" lon="10.66577658621231"><ele>14.0</ele><time>2026-05-02T14:54:57Z</time></trkpt><trkpt lat="43.803708033954045" lon="10.666165472027183"><ele>14.5</ele><time>2026-05-02T14:54:58Z</time></trkpt><trkpt lat="43.80364153799678" lon="10.666550937140418"><ele>15.0</ele><time>2026-05-02T14:54:59Z</time></trkpt><trkpt lat="43.803575475005516" lon="10.666934677664887"><ele>14.5</ele><time>2026-05-02T14:55:00Z</time></trkpt><trkpt lat="43.80350930559916" lon="10.667319036402116"><ele>14.0</ele><time>2026-05-02T14:55:01Z</time></trkpt><trkpt lat="43.803443482906104" lon="10.66770138112409"><ele>14.5</ele><time>2026-05-02T14:55:02Z</time></trkpt><trkpt lat="43.803378520879114" lon="10.668083848760888"><ele>15.0</ele><time>2026-05-02T14:55:03Z</time></trkpt><trkpt lat="43.80331338975912" lon="10.668462484971158"><ele>14.0</ele><time>2026-05-02T14:55:04Z</time></trkpt><trkpt lat="43.803249748683044" lon="10.668833762697634"><ele>13.0</ele><time>2026-05-02T14:55:05Z</time></trkpt><trkpt lat="43.80318915634905" lon="10.669200649343143"><ele>13.0</ele><time>2026-05-02T14:55:06Z</time></trkpt><trkpt lat="43.80315770026492" lon="10.669573681681298"><ele>13.0</ele><time>2026-05-02T14:55:07Z</time></trkpt><trkpt lat="43.80312819591183" lon="10.669943620974408"><ele>12.5</ele><time>2026-05-02T14:55:07.999Z</time></trkpt><trkpt lat="43.80311796528115" lon="10.67032317628381"><ele>12.0</ele><time>2026-05-02T14:55:08.999Z</time></trkpt><trkpt lat="43.803128818935875" lon="10.670700377300621"><ele>12.0</ele><time>2026-05-02T14:55:09.999Z</time></trkpt><trkpt lat="43.8031629768684" lon="10.671077300017652"><ele>12.0</ele><time>2026-05-02T14:55:10.999Z</time></trkpt><trkpt lat="43.80320058257773" lon="10.671454075693383"><ele>12.0</ele><time>2026-05-02T14:55:11.999Z</time></trkpt><trkpt lat="43.80326782273662" lon="10.67182638147255"><ele>12.0</ele><time>2026-05-02T14:55:12.999Z</time></trkpt><trkpt lat="43.803344928172784" lon="10.672194115013907"><ele>12.5</ele><time>2026-05-02T14:55:13.999Z</time></trkpt><trkpt lat="43.803427182528274" lon="10.67255797980394"><ele>13.0</ele><time>2026-05-02T14:55:14.999Z</time></trkpt><trkpt lat="43.80350433988752" lon="10.672899297213412"><ele>15.5</ele><time>2026-05-02T14:55:15.999Z</time></trkpt><trkpt lat="43.80357107148706" lon="10.67321419227831"><ele>18.0</ele><time>2026-05-02T14:55:16.999Z</time></trkpt><trkpt lat="43.80364343041627" lon="10.673495149122918"><ele>17.666666666666668</ele><time>2026-05-02T14:55:17.999Z</time></trkpt><trkpt lat="43.80368363599386" lon="10.673750786030894"><ele>17.333333333333336</ele><time>2026-05-02T14:55:18.999Z</time></trkpt><trkpt lat="43.803703508753415" lon="10.673961236262981"><ele>17.0</ele><time>2026-05-02T14:55:19.999Z</time></trkpt><trkpt lat="43.80370686054448" lon="10.6741333902787"><ele>17.0</ele><time>2026-05-02T14:55:20.999Z</time></trkpt><trkpt lat="43.803688512398345" lon="10.674269551595792"><ele>17.0</ele><time>2026-05-02T14:55:21.999Z</time></trkpt><trkpt lat="43.803655485029594" lon="10.674391891554302"><ele>17.0</ele><time>2026-05-02T14:55:22.999Z</time></trkpt><trkpt lat="43.803589998381106" lon="10.674490275419767"><ele>17.0</ele><time>2026-05-02T14:55:23.999Z</time></trkpt><trkpt lat="43.80353976199104" lon="10.674598876614665"><ele>17.0</ele><time>2026-05-02T14:55:24.999Z</time></trkpt><trkpt lat="43.80355277437447" lon="10.674742077115752"><ele>16.75</ele><time>2026-05-02T14:55:25.999Z</time></trkpt><trkpt lat="43.803608104677444" lon="10.674859722593682"><ele>16.5</ele><time>2026-05-02T14:55:26.999Z</time></trkpt><trkpt lat="43.8036639344737" lon="10.675001572514606"><ele>16.25</ele><time>2026-05-02T14:55:27.999Z</time></trkpt><trkpt lat="43.80368110243149" lon="10.675196330297556"><ele>16.0</ele><time>2026-05-02T14:55:28.999Z</time></trkpt><trkpt lat="43.80372015729597" lon="10.675414504335551"><ele>17.333333333333332</ele><time>2026-05-02T14:55:29.999Z</time></trkpt><trkpt lat="43.803682165934596" lon="10.6756820607119"><ele>18.666666666666668</ele><time>2026-05-02T14:55:30.999Z</time></trkpt><trkpt lat="43.8036920614167" lon="10.67597370246084"><ele>20.0</ele><time>2026-05-02T14:55:31.999Z</time></trkpt><trkpt lat="43.80368005374145" lon="10.676290128835204"><ele>21.0</ele><time>2026-05-02T14:55:32.999Z</time></trkpt><trkpt lat="43.803685781816164" lon="10.676628371858218"><ele>22.0</ele><time>2026-05-02T14:55:33.999Z</time></trkpt><trkpt lat="43.80370866819004" lon="10.67697994462219"><ele>19.5</ele><time>2026-05-02T14:55:34.999Z</time></trkpt><trkpt lat="43.80374961655932" lon="10.67733611629304"><ele>17.0</ele><time>2026-05-02T14:55:35.999Z</time></trkpt><trkpt lat="43.80379279212045" lon="10.677691695806484"><ele>16.0</ele><time>2026-05-02T14:55:36.999Z</time></trkpt><trkpt lat="43.80381360103503" lon="10.678049029643416"><ele>15.0</ele><time>2026-05-02T14:55:37.999Z</time></trkpt><trkpt lat="43.80378261094257" lon="10.678405547402987"><ele>15.5</ele><time>2026-05-02T14:55:38.999Z</time></trkpt><trkpt lat="43.803734209848166" lon="10.678752667668464"><ele>16.0</ele><time>2026-05-02T14:55:39.999Z</time></trkpt><trkpt lat="43.80367875408287" lon="10.679110077124992"><ele>17.5</ele><time>2026-05-02T14:55:40.999Z</time></trkpt><trkpt lat="43.80362004114954" lon="10.679469173911322"><ele>19.0</ele><time>2026-05-02T14:55:42Z</time></trkpt><trkpt lat="43.803561195698165" lon="10.679828389811822"><ele>19.0</ele><time>2026-05-02T14:55:43Z</time></trkpt><trkpt lat="43.80350079352084" lon="10.68018251133047"><ele>19.0</ele><time>2026-05-02T14:55:44Z</time></trkpt><trkpt lat="43.80345366966966" lon="10.68053611631698"><ele>19.0</ele><time>2026-05-02T14:55:45Z</time></trkpt><trkpt lat="43.80336617224404" lon="10.680862460640238"><ele>19.0</ele><time>2026-05-02T14:55:46Z</time></trkpt><trkpt lat="43.80329383599117" lon="10.681203036715385"><ele>20.0</ele><time>2026-05-02T14:55:47Z</time></trkpt><trkpt lat="43.80320046032814" lon="10.681541724436842"><ele>21.0</ele><time>2026-05-02T14:55:48Z</time></trkpt><trkpt lat="43.803102680527886" lon="10.681877654947828"><ele>21.5</ele><time>2026-05-02T14:55:49Z</time></trkpt><trkpt lat="43.802982982723265" lon="10.682197662302091"><ele>22.0</ele><time>2026-05-02T14:55:50Z</time></trkpt><trkpt lat="43.802871866841414" lon="10.682521309642764"><ele>23.0</ele><time>2026-05-02T14:55:51Z</time></trkpt><trkpt lat="43.80276023075448" lon="10.682844527784516"><ele>24.0</ele><time>2026-05-02T14:55:52Z</time></trkpt><trkpt lat="43.80265116454803" lon="10.683159286752625"><ele>24.0</ele><time>2026-05-02T14:55:53Z</time></trkpt><trkpt lat="43.80254539882671" lon="10.683470989744787"><ele>24.0</ele><time>2026-05-02T14:55:54Z</time></trkpt><trkpt lat="43.802443580624754" lon="10.683764159436691"><ele>23.333333333333332</ele><time>2026-05-02T14:55:55Z</time></trkpt><trkpt lat="43.80235500025159" lon="10.68404346842129"><ele>22.666666666666664</ele><time>2026-05-02T14:55:56Z</time></trkpt><trkpt lat="43.8022886061281" lon="10.684328221060278"><ele>22.0</ele><time>2026-05-02T14:55:57Z</time></trkpt><trkpt lat="43.8022488400486" lon="10.68462809780736"><ele>21.666666666666664</ele><time>2026-05-02T14:55:58Z</time></trkpt><trkpt lat="43.80223708145845" lon="10.68493706809996"><ele>21.333333333333332</ele><time>2026-05-02T14:55:59Z</time></trkpt><trkpt lat="43.802263923734365" lon="10.68524601815325"><ele>21.0</ele><time>2026-05-02T14:56:00Z</time></trkpt><trkpt lat="43.802332918139214" lon="10.68553611923954"><ele>21.0</ele><time>2026-05-02T14:56:01Z</time></trkpt><trkpt lat="43.80241208624523" lon="10.685814235041098"><ele>21.0</ele><time>2026-05-02T14:56:02Z</time></trkpt><trkpt lat="43.8025161399778" lon="10.686070542439602"><ele>21.0</ele><time>2026-05-02T14:56:03Z</time></trkpt><trkpt lat="43.80264488063621" lon="10.686306868194416"><ele>22.0</ele><time>2026-05-02T14:56:04Z</time></trkpt><trkpt lat="43.80278470615462" lon="10.686527919760614"><ele>23.0</ele><time>2026-05-02T14:56:05Z</time></trkpt><trkpt lat="43.80296515506321" lon="10.686693368349781"><ele>24.0</ele><time>2026-05-02T14:56:06Z</time></trkpt><trkpt lat="43.80314711408138" lon="10.686838739963694"><ele>24.333333333333336</ele><time>2026-05-02T14:56:07Z</time></trkpt><trkpt lat="43.80332194704505" lon="10.686968556416724"><ele>24.666666666666668</ele><time>2026-05-02T14:56:08Z</time></trkpt><trkpt lat="43.80351058844302" lon="10.687082839286044"><ele>25.0</ele><time>2026-05-02T14:56:09Z</time></trkpt><trkpt lat="43.80370448805597" lon="10.687197664130938"><ele>24.333333333333336</ele><time>2026-05-02T14:56:10Z</time></trkpt><trkpt lat="43.80388999015083" lon="10.687261948388088"><ele>23.666666666666668</ele><time>2026-05-02T14:56:11Z</time></trkpt><trkpt lat="43.804047487576725" lon="10.687343514358222"><ele>23.0</ele><time>2026-05-02T14:56:12Z</time></trkpt><trkpt lat="43.80424624441181" lon="10.68745940047946"><ele>23.0</ele><time>2026-05-02T14:56:13Z</time></trkpt><trkpt lat="43.80445619676157" lon="10.68759736671925"><ele>23.0</ele><time>2026-05-02T14:56:14Z</time></trkpt><trkpt lat="43.804622239453465" lon="10.687704723983298"><ele>23.0</ele><time>2026-05-02T14:56:15Z</time></trkpt><trkpt lat="43.80477363292214" lon="10.687818909947266"><ele>23.0</ele><time>2026-05-02T14:56:16Z</time></trkpt><trkpt lat="43.80487694939062" lon="10.687884971064022"><ele>23.0</ele><time>2026-05-02T14:56:17Z</time></trkpt><trkpt lat="43.80496707745814" lon="10.687956397686033"><ele>23.0</ele><time>2026-05-02T14:56:18Z</time></trkpt><trkpt lat="43.80503978857672" lon="10.68802139343597"><ele>23.0</ele><time>2026-05-02T14:56:19Z</time></trkpt><trkpt lat="43.805091715161694" lon="10.688088857776531"><ele>23.0</ele><time>2026-05-02T14:56:20Z</time></trkpt><trkpt lat="43.8051283219919" lon="10.688172646088914"><ele>23.0</ele><time>2026-05-02T14:56:23Z</time></trkpt><trkpt lat="43.80514104314894" lon="10.688262619147647"><ele>23.0</ele><time>2026-05-02T14:56:27Z</time></trkpt><trkpt lat="43.80514124044701" lon="10.688358180676659"><ele>23.0</ele><time>2026-05-02T14:56:28Z</time></trkpt><trkpt lat="43.80510916929732" lon="10.68848469081809"><ele>23.0</ele><time>2026-05-02T14:56:30Z</time></trkpt><trkpt lat="43.805059644450715" lon="10.68857018239397"><ele>23.0</ele><time>2026-05-02T14:56:32Z</time></trkpt><trkpt lat="43.80497064162481" lon="10.688655594919712"><ele>23.0</ele><time>2026-05-02T14:56:34Z</time></trkpt><trkpt lat="43.80491357609752" lon="10.688717929416677"><ele>23.0</ele><time>2026-05-02T14:56:35Z</time></trkpt><trkpt lat="43.80482785990085" lon="10.688771882445769"><ele>22.666666666666668</ele><time>2026-05-02T14:56:36Z</time></trkpt><trkpt lat="43.80471937579529" lon="10.688874131666044"><ele>22.333333333333332</ele><time>2026-05-02T14:56:37Z</time></trkpt><trkpt lat="43.80458589805125" lon="10.688999928291308"><ele>22.0</ele><time>2026-05-02T14:56:38Z</time></trkpt><trkpt lat="43.80444069846911" lon="10.689136772233258"><ele>22.333333333333332</ele><time>2026-05-02T14:56:39Z</time></trkpt><trkpt lat="43.80427598966576" lon="10.689291950626673"><ele>22.666666666666668</ele><time>2026-05-02T14:56:40Z</time></trkpt><trkpt lat="43.8040950817859" lon="10.689462216935206"><ele>23.0</ele><time>2026-05-02T14:56:41Z</time></trkpt><trkpt lat="43.80391306573334" lon="10.689633475891494"><ele>23.5</ele><time>2026-05-02T14:56:42Z</time></trkpt><trkpt lat="43.80371629746248" lon="10.689820303914273"><ele>24.0</ele><time>2026-05-02T14:56:43Z</time></trkpt><trkpt lat="43.80350929058089" lon="10.690016892820024"><ele>24.5</ele><time>2026-05-02T14:56:44Z</time></trkpt><trkpt lat="43.803299298944836" lon="10.690226436627562"><ele>25.0</ele><time>2026-05-02T14:56:45Z</time></trkpt><trkpt lat="43.80308518029366" lon="10.690429856209084"><ele>25.0</ele><time>2026-05-02T14:56:46Z</time></trkpt><trkpt lat="43.80286902712806" lon="10.690628875096596"><ele>25.0</ele><time>2026-05-02T14:56:47Z</time></trkpt><trkpt lat="43.802650206035686" lon="10.690837902558249"><ele>25.0</ele><time>2026-05-02T14:56:48Z</time></trkpt><trkpt lat="43.80243029493143" lon="10.691050094009617"><ele>25.0</ele><time>2026-05-02T14:56:49Z</time></trkpt><trkpt lat="43.80221155966271" lon="10.691264179559345"><ele>25.0</ele><time>2026-05-02T14:56:50Z</time></trkpt><trkpt lat="43.80198355943291" lon="10.691450546522283"><ele>25.0</ele><time>2026-05-02T14:56:51Z</time></trkpt><trkpt lat="43.801772487757255" lon="10.691649355881669"><ele>25.0</ele><time>2026-05-02T14:56:52Z</time></trkpt><trkpt lat="43.80157424368356" lon="10.691862558181823"><ele>25.0</ele><time>2026-05-02T14:56:53Z</time></trkpt><trkpt lat="43.801367355828006" lon="10.69205304547307"><ele>26.0</ele><time>2026-05-02T14:56:54Z</time></trkpt><trkpt lat="43.80116642280073" lon="10.692242661865842"><ele>27.0</ele><time>2026-05-02T14:56:55Z</time></trkpt><trkpt lat="43.80097476232494" lon="10.692424717956412"><ele>27.0</ele><time>2026-05-02T14:56:56Z</time></trkpt><trkpt lat="43.80079082940238" lon="10.69259345982222"><ele>27.0</ele><time>2026-05-02T14:56:57Z</time></trkpt><trkpt lat="43.80061706942317" lon="10.692758727440559"><ele>27.0</ele><time>2026-05-02T14:56:58Z</time></trkpt><trkpt lat="43.80045204479759" lon="10.69291594917784"><ele>27.0</ele><time>2026-05-02T14:56:59Z</time></trkpt><trkpt lat="43.80030682732251" lon="10.693065200666398"><ele>27.0</ele><time>2026-05-02T14:57:00Z</time></trkpt><trkpt lat="43.80017606715802" lon="10.693207427324563"><ele>27.0</ele><time>2026-05-02T14:57:01Z</time></trkpt><trkpt lat="43.800051507466385" lon="10.693348814470653"><ele>26.333333333333336</ele><time>2026-05-02T14:57:02Z</time></trkpt><trkpt lat="43.799928490988655" lon="10.693495505251603"><ele>25.666666666666668</ele><time>2026-05-02T14:57:03Z</time></trkpt><trkpt lat="43.799807545929525" lon="10.693654407915007"><ele>25.0</ele><time>2026-05-02T14:57:04Z</time></trkpt><trkpt lat="43.79967603731192" lon="10.693811726925247"><ele>25.0</ele><time>2026-05-02T14:57:05Z</time></trkpt><trkpt lat="43.79955321110729" lon="10.693985236075765"><ele>25.0</ele><time>2026-05-02T14:57:06Z</time></trkpt><trkpt lat="43.799417399424506" lon="10.694179221412812"><ele>25.0</ele><time>2026-05-02T14:57:07Z</time></trkpt><trkpt lat="43.79928324495196" lon="10.694390890182447"><ele>25.666666666666668</ele><time>2026-05-02T14:57:08Z</time></trkpt><trkpt lat="43.79916662410738" lon="10.694623482613915"><ele>26.333333333333336</ele><time>2026-05-02T14:57:09Z</time></trkpt><trkpt lat="43.799051764315365" lon="10.694837881589631"><ele>27.0</ele><time>2026-05-02T14:57:10Z</time></trkpt><trkpt lat="43.798928731016915" lon="10.69503363112072"><ele>27.333333333333336</ele><time>2026-05-02T14:57:11Z</time></trkpt><trkpt lat="43.798804891240025" lon="10.695266243904472"><ele>27.666666666666668</ele><time>2026-05-02T14:57:12Z</time></trkpt><trkpt lat="43.7986731017287" lon="10.695517474451448"><ele>28.0</ele><time>2026-05-02T14:57:13Z</time></trkpt><trkpt lat="43.79855124183627" lon="10.695797710155944"><ele>28.5</ele><time>2026-05-02T14:57:14Z</time></trkpt><trkpt lat="43.7983974701779" lon="10.696060908626603"><ele>29.0</ele><time>2026-05-02T14:57:15Z</time></trkpt><trkpt lat="43.798247937429124" lon="10.696335547446608"><ele>29.5</ele><time>2026-05-02T14:57:16Z</time></trkpt><trkpt lat="43.79810044936063" lon="10.696619532069747"><ele>30.0</ele><time>2026-05-02T14:57:17Z</time></trkpt><trkpt lat="43.797953889741635" lon="10.69689999455083"><ele>29.5</ele><time>2026-05-02T14:57:18Z</time></trkpt><trkpt lat="43.79780452195248" lon="10.697178996692845"><ele>29.0</ele><time>2026-05-02T14:57:18.999Z</time></trkpt><trkpt lat="43.79765694706362" lon="10.697457523580168"><ele>29.0</ele><time>2026-05-02T14:57:19.999Z</time></trkpt><trkpt lat="43.79751032858141" lon="10.697732720756784"><ele>29.0</ele><time>2026-05-02T14:57:20.999Z</time></trkpt><trkpt lat="43.79736501841433" lon="10.698008697946488"><ele>29.0</ele><time>2026-05-02T14:57:21.999Z</time></trkpt><trkpt lat="43.79721580521331" lon="10.698282113305979"><ele>29.0</ele><time>2026-05-02T14:57:22.999Z</time></trkpt><trkpt lat="43.797058530082516" lon="10.69855370342343"><ele>29.0</ele><time>2026-05-02T14:57:23.999Z</time></trkpt><trkpt lat="43.79689203279751" lon="10.698818875914213"><ele>29.0</ele><time>2026-05-02T14:57:24.999Z</time></trkpt><trkpt lat="43.796717484150534" lon="10.699078624352454"><ele>29.0</ele><time>2026-05-02T14:57:25.999Z</time></trkpt><trkpt lat="43.796533428113065" lon="10.699335998435973"><ele>29.0</ele><time>2026-05-02T14:57:26.999Z</time></trkpt><trkpt lat="43.79634719898945" lon="10.699583960437717"><ele>29.0</ele><time>2026-05-02T14:57:27.999Z</time></trkpt><trkpt lat="43.796147690700664" lon="10.699825813865518"><ele>29.0</ele><time>2026-05-02T14:57:28.999Z</time></trkpt><trkpt lat="43.795942036866315" lon="10.700073099655278"><ele>30.0</ele><time>2026-05-02T14:57:29.999Z</time></trkpt><trkpt lat="43.79574447445273" lon="10.700308203985555"><ele>31.0</ele><time>2026-05-02T14:57:30.999Z</time></trkpt><trkpt lat="43.795545734819626" lon="10.700539997194868"><ele>31.0</ele><time>2026-05-02T14:57:31.999Z</time></trkpt><trkpt lat="43.795345633118096" lon="10.7007692272166"><ele>31.0</ele><time>2026-05-02T14:57:32.999Z</time></trkpt><trkpt lat="43.79514590074292" lon="10.701004923879937"><ele>30.5</ele><time>2026-05-02T14:57:33.999Z</time></trkpt><trkpt lat="43.79494607000163" lon="10.701238484127105"><ele>30.0</ele><time>2026-05-02T14:57:34.999Z</time></trkpt><trkpt lat="43.794748231977614" lon="10.701472650821245"><ele>30.0</ele><time>2026-05-02T14:57:35.999Z</time></trkpt><trkpt lat="43.79454608171588" lon="10.701706427609492"><ele>30.0</ele><time>2026-05-02T14:57:36.999Z</time></trkpt><trkpt lat="43.79434572248756" lon="10.701939246027212"><ele>30.5</ele><time>2026-05-02T14:57:37.999Z</time></trkpt><trkpt lat="43.7941496528705" lon="10.70216401258251"><ele>31.0</ele><time>2026-05-02T14:57:38.999Z</time></trkpt><trkpt lat="43.79395762055185" lon="10.702387478666"><ele>31.0</ele><time>2026-05-02T14:57:39.999Z</time></trkpt><trkpt lat="43.79376791419133" lon="10.702607922171564"><ele>31.0</ele><time>2026-05-02T14:57:40.999Z</time></trkpt><trkpt lat="43.793588026491065" lon="10.702814049409739"><ele>31.0</ele><time>2026-05-02T14:57:41.999Z</time></trkpt><trkpt lat="43.79341403050096" lon="10.703006720909945"><ele>31.0</ele><time>2026-05-02T14:57:42.999Z</time></trkpt><trkpt lat="43.793247663595295" lon="10.703197127925648"><ele>31.0</ele><time>2026-05-02T14:57:43.999Z</time></trkpt><trkpt lat="43.793085392300476" lon="10.703383938820298"><ele>31.0</ele><time>2026-05-02T14:57:44.999Z</time></trkpt><trkpt lat="43.792916062723926" lon="10.703574974926413"><ele>31.0</ele><time>2026-05-02T14:57:45.999Z</time></trkpt><trkpt lat="43.79275496342454" lon="10.703759983827151"><ele>31.0</ele><time>2026-05-02T14:57:46.999Z</time></trkpt><trkpt lat="43.79257403956931" lon="10.703912783165393"><ele>31.333333333333336</ele><time>2026-05-02T14:57:48Z</time></trkpt><trkpt lat="43.79240146095533" lon="10.704076086477828"><ele>31.666666666666664</ele><time>2026-05-02T14:57:49Z</time></trkpt><trkpt lat="43.792244629504715" lon="10.704254815293673"><ele>32.0</ele><time>2026-05-02T14:57:50Z</time></trkpt><trkpt lat="43.792078872999305" lon="10.704434611665475"><ele>32.0</ele><time>2026-05-02T14:57:51Z</time></trkpt><trkpt lat="43.79191684689894" lon="10.704624673755445"><ele>32.0</ele><time>2026-05-02T14:57:52Z</time></trkpt><trkpt lat="43.79174774008905" lon="10.704825742088298"><ele>32.0</ele><time>2026-05-02T14:57:53Z</time></trkpt><trkpt lat="43.79158690440927" lon="10.705031471370972"><ele>32.0</ele><time>2026-05-02T14:57:54Z</time></trkpt><trkpt lat="43.791417416455594" lon="10.705236670836124"><ele>32.0</ele><time>2026-05-02T14:57:55Z</time></trkpt><trkpt lat="43.7912658058184" lon="10.705464272256888"><ele>32.0</ele><time>2026-05-02T14:57:56Z</time></trkpt><trkpt lat="43.79112627396248" lon="10.705704521000257"><ele>32.5</ele><time>2026-05-02T14:57:57Z</time></trkpt><trkpt lat="43.79097212948241" lon="10.705937515279336"><ele>33.0</ele><time>2026-05-02T14:57:58Z</time></trkpt><trkpt lat="43.79081670370645" lon="10.706167048966007"><ele>33.0</ele><time>2026-05-02T14:57:59Z</time></trkpt><trkpt lat="43.79065596012535" lon="10.706391295751526"><ele>33.0</ele><time>2026-05-02T14:58:00Z</time></trkpt><trkpt lat="43.79048187030208" lon="10.706605303969361"><ele>33.0</ele><time>2026-05-02T14:58:01Z</time></trkpt><trkpt lat="43.790301219640256" lon="10.706811951781765"><ele>33.0</ele><time>2026-05-02T14:58:02Z</time></trkpt><trkpt lat="43.7901207965275" lon="10.707011364049453"><ele>33.0</ele><time>2026-05-02T14:58:03Z</time></trkpt><trkpt lat="43.789935130467846" lon="10.707210714569076"><ele>33.0</ele><time>2026-05-02T14:58:04Z</time></trkpt><trkpt lat="43.78975289522724" lon="10.707408091418118"><ele>33.0</ele><time>2026-05-02T14:58:05Z</time></trkpt><trkpt lat="43.78957317076944" lon="10.707609325787926"><ele>33.0</ele><time>2026-05-02T14:58:06Z</time></trkpt><trkpt lat="43.78939622220544" lon="10.707802020617772"><ele>33.0</ele><time>2026-05-02T14:58:07Z</time></trkpt><trkpt lat="43.7892325317035" lon="10.707998899952969"><ele>33.0</ele><time>2026-05-02T14:58:08Z</time></trkpt><trkpt lat="43.7890690534378" lon="10.708194470831165"><ele>33.0</ele><time>2026-05-02T14:58:09Z</time></trkpt><trkpt lat="43.7889070716987" lon="10.708404223123669"><ele>33.333333333333336</ele><time>2026-05-02T14:58:10Z</time></trkpt><trkpt lat="43.78874490487736" lon="10.70861520060897"><ele>33.66666666666667</ele><time>2026-05-02T14:58:11Z</time></trkpt><trkpt lat="43.78858045488045" lon="10.708818846737072"><ele>34.0</ele><time>2026-05-02T14:58:12Z</time></trkpt><trkpt lat="43.788421993665736" lon="10.709019965813889"><ele>34.0</ele><time>2026-05-02T14:58:13Z</time></trkpt><trkpt lat="43.78826007149659" lon="10.709212324863426"><ele>34.0</ele><time>2026-05-02T14:58:14Z</time></trkpt><trkpt lat="43.788098836701465" lon="10.709394083858253"><ele>34.0</ele><time>2026-05-02T14:58:15Z</time></trkpt><trkpt lat="43.787943934781985" lon="10.709575440259972"><ele>34.333333333333336</ele><time>2026-05-02T14:58:16Z</time></trkpt><trkpt lat="43.78779591291499" lon="10.709750122021108"><ele>34.666666666666664</ele><time>2026-05-02T14:58:17Z</time></trkpt><trkpt lat="43.787647923202364" lon="10.709887504889416"><ele>35.0</ele><time>2026-05-02T14:58:18Z</time></trkpt><trkpt lat="43.78751886250493" lon="10.710025748907075"><ele>35.0</ele><time>2026-05-02T14:58:19Z</time></trkpt><trkpt lat="43.787392388008286" lon="10.710160665089195"><ele>35.0</ele><time>2026-05-02T14:58:20Z</time></trkpt><trkpt lat="43.78726064866438" lon="10.710301196828382"><ele>35.0</ele><time>2026-05-02T14:58:21Z</time></trkpt><trkpt lat="43.787103301071355" lon="10.710469046491832"><ele>35.666666666666664</ele><time>2026-05-02T14:58:22Z</time></trkpt><trkpt lat="43.78694075104531" lon="10.710645986304607"><ele>36.333333333333336</ele><time>2026-05-02T14:58:23Z</time></trkpt><trkpt lat="43.78679634015697" lon="10.710829006181012"><ele>37.0</ele><time>2026-05-02T14:58:24Z</time></trkpt><trkpt lat="43.78665250454464" lon="10.710980068075978"><ele>36.333333333333336</ele><time>2026-05-02T14:58:25Z</time></trkpt><trkpt lat="43.78650055621466" lon="10.711105328898642"><ele>35.666666666666664</ele><time>2026-05-02T14:58:26Z</time></trkpt><trkpt lat="43.786363616942594" lon="10.711231002219133"><ele>35.0</ele><time>2026-05-02T14:58:27Z</time></trkpt><trkpt lat="43.786243820098434" lon="10.711342026833583"><ele>35.0</ele><time>2026-05-02T14:58:28Z</time></trkpt><trkpt lat="43.78613423191262" lon="10.711443591951872"><ele>35.0</ele><time>2026-05-02T14:58:29Z</time></trkpt><trkpt lat="43.786025348921676" lon="10.711543166335712"><ele>35.0</ele><time>2026-05-02T14:58:30Z</time></trkpt><trkpt lat="43.78593167012875" lon="10.711643670904671"><ele>35.0</ele><time>2026-05-02T14:58:31Z</time></trkpt><trkpt lat="43.785820649869386" lon="10.711753487231565"><ele>35.0</ele><time>2026-05-02T14:58:32Z</time></trkpt><trkpt lat="43.78569858190509" lon="10.711848206503735"><ele>35.0</ele><time>2026-05-02T14:58:33Z</time></trkpt><trkpt lat="43.78558969468766" lon="10.7119702023556"><ele>35.0</ele><time>2026-05-02T14:58:34Z</time></trkpt><trkpt lat="43.7854816751332" lon="10.712067186522956"><ele>35.0</ele><time>2026-05-02T14:58:35Z</time></trkpt><trkpt lat="43.78537457068769" lon="10.712163067654283"><ele>35.0</ele><time>2026-05-02T14:58:36Z</time></trkpt><trkpt lat="43.785267260803984" lon="10.712258798853904"><ele>35.0</ele><time>2026-05-02T14:58:37Z</time></trkpt><trkpt lat="43.78515894875769" lon="10.712365444159186"><ele>35.0</ele><time>2026-05-02T14:58:38Z</time></trkpt><trkpt lat="43.785043486219315" lon="10.712473661709694"><ele>35.0</ele><time>2026-05-02T14:58:39Z</time></trkpt><trkpt lat="43.784915746113995" lon="10.71256738570072"><ele>35.0</ele><time>2026-05-02T14:58:40Z</time></trkpt><trkpt lat="43.784790804041926" lon="10.712685946192916"><ele>35.0</ele><time>2026-05-02T14:58:41Z</time></trkpt><trkpt lat="43.784680854671635" lon="10.712826362380238"><ele>35.0</ele><time>2026-05-02T14:58:42Z</time></trkpt><trkpt lat="43.78457017840719" lon="10.712954956332059"><ele>35.0</ele><time>2026-05-02T14:58:43Z</time></trkpt><trkpt lat="43.78445651262198" lon="10.713076413308528"><ele>35.0</ele><time>2026-05-02T14:58:44Z</time></trkpt><trkpt lat="43.784355320198706" lon="10.7132486735289"><ele>35.0</ele><time>2026-05-02T14:58:45Z</time></trkpt><trkpt lat="43.78428641689123" lon="10.713464194386674"><ele>35.0</ele><time>2026-05-02T14:58:46Z</time></trkpt><trkpt lat="43.784218408209945" lon="10.713655432516875"><ele>33.0</ele><time>2026-05-02T14:58:47Z</time></trkpt><trkpt lat="43.78415483300588" lon="10.713849069749742"><ele>31.0</ele><time>2026-05-02T14:58:48Z</time></trkpt><trkpt lat="43.78407904449132" lon="10.714029216413458"><ele>29.0</ele><time>2026-05-02T14:58:49Z</time></trkpt><trkpt lat="43.784039696904074" lon="10.714225815653636"><ele>27.5</ele><time>2026-05-02T14:58:50Z</time></trkpt><trkpt lat="43.78398496852214" lon="10.714412749656642"><ele>26.0</ele><time>2026-05-02T14:58:51Z</time></trkpt><trkpt lat="43.783922415062925" lon="10.71459205936284"><ele>24.5</ele><time>2026-05-02T14:58:52Z</time></trkpt><trkpt lat="43.78384660286554" lon="10.71478231773617"><ele>23.0</ele><time>2026-05-02T14:58:53Z</time></trkpt><trkpt lat="43.7837597794563" lon="10.714982340295084"><ele>23.0</ele><time>2026-05-02T14:58:54Z</time></trkpt><trkpt lat="43.78365746616908" lon="10.715172802891866"><ele>23.0</ele><time>2026-05-02T14:58:55Z</time></trkpt><trkpt lat="43.783550576743544" lon="10.715349350731795"><ele>23.0</ele><time>2026-05-02T14:58:56Z</time></trkpt><trkpt lat="43.783428505443325" lon="10.715496835925194"><ele>22.0</ele><time>2026-05-02T14:58:57Z</time></trkpt><trkpt lat="43.783290253033016" lon="10.715626281932972"><ele>21.0</ele><time>2026-05-02T14:58:58Z</time></trkpt><trkpt lat="43.78313963965106" lon="10.715747501765943"><ele>20.0</ele><time>2026-05-02T14:58:59Z</time></trkpt><trkpt lat="43.78298675722681" lon="10.715854824627096"><ele>20.0</ele><time>2026-05-02T14:59:00Z</time></trkpt><trkpt lat="43.78283154274195" lon="10.715940477454648"><ele>20.0</ele><time>2026-05-02T14:59:01Z</time></trkpt><trkpt lat="43.78267112784266" lon="10.716007923985147"><ele>20.0</ele><time>2026-05-02T14:59:02Z</time></trkpt><trkpt lat="43.7825092447426" lon="10.716067331777142"><ele>18.333333333333336</ele><time>2026-05-02T14:59:03Z</time></trkpt><trkpt lat="43.78234913745945" lon="10.716121839276694"><ele>16.666666666666668</ele><time>2026-05-02T14:59:04Z</time></trkpt><trkpt lat="43.78219017363203" lon="10.716172325068264"><ele>15.0</ele><time>2026-05-02T14:59:05Z</time></trkpt><trkpt lat="43.78202313964641" lon="10.716228699483997"><ele>15.0</ele><time>2026-05-02T14:59:06Z</time></trkpt><trkpt lat="43.781862596213536" lon="10.716285704030927"><ele>15.0</ele><time>2026-05-02T14:59:07Z</time></trkpt><trkpt lat="43.78170908544474" lon="10.716337414605052"><ele>15.0</ele><time>2026-05-02T14:59:08Z</time></trkpt><trkpt lat="43.78155683365632" lon="10.716389881256452"><ele>15.0</ele><time>2026-05-02T14:59:09Z</time></trkpt><trkpt lat="43.78141450835516" lon="10.71643558812262"><ele>15.0</ele><time>2026-05-02T14:59:10Z</time></trkpt><trkpt lat="43.78126858545675" lon="10.716477583101623"><ele>15.0</ele><time>2026-05-02T14:59:11Z</time></trkpt><trkpt lat="43.78111373162993" lon="10.716513798410375"><ele>15.666666666666668</ele><time>2026-05-02T14:59:12Z</time></trkpt><trkpt lat="43.78095400034161" lon="10.716552230548066"><ele>16.333333333333336</ele><time>2026-05-02T14:59:13Z</time></trkpt><trkpt lat="43.78077669675937" lon="10.716569997719871"><ele>17.0</ele><time>2026-05-02T14:59:14Z</time></trkpt><trkpt lat="43.780647812046645" lon="10.71666614752862"><ele>17.0</ele><time>2026-05-02T14:59:15Z</time></trkpt><trkpt lat="43.7804865655749" lon="10.71671189457597"><ele>17.0</ele><time>2026-05-02T14:59:16Z</time></trkpt><trkpt lat="43.780323627750676" lon="10.716759994978304"><ele>17.0</ele><time>2026-05-02T14:59:17Z</time></trkpt><trkpt lat="43.780165927947806" lon="10.716800304407064"><ele>17.0</ele><time>2026-05-02T14:59:18Z</time></trkpt><trkpt lat="43.780001432758766" lon="10.71680429649781"><ele>17.0</ele><time>2026-05-02T14:59:19Z</time></trkpt><trkpt lat="43.77983257044977" lon="10.716758756250158"><ele>17.0</ele><time>2026-05-02T14:59:20Z</time></trkpt><trkpt lat="43.77965128985777" lon="10.716673420061097"><ele>17.0</ele><time>2026-05-02T14:59:21Z</time></trkpt><trkpt lat="43.7794767963454" lon="10.71652910495494"><ele>17.0</ele><time>2026-05-02T14:59:22Z</time></trkpt><trkpt lat="43.779314841805395" lon="10.716412133921196"><ele>17.0</ele><time>2026-05-02T14:59:22.999Z</time></trkpt><trkpt lat="43.779156801832684" lon="10.716336185340284"><ele>20.333333333333336</ele><time>2026-05-02T14:59:23.999Z</time></trkpt><trkpt lat="43.7790028908186" lon="10.716263882857843"><ele>23.666666666666668</ele><time>2026-05-02T14:59:24.999Z</time></trkpt><trkpt lat="43.77883405677131" lon="10.716239681205526"><ele>27.0</ele><time>2026-05-02T14:59:25.999Z</time></trkpt><trkpt lat="43.7786715539919" lon="10.71628031879553"><ele>28.0</ele><time>2026-05-02T14:59:26.999Z</time></trkpt><trkpt lat="43.77850501775993" lon="10.716371670759486"><ele>29.0</ele><time>2026-05-02T14:59:27.999Z</time></trkpt><trkpt lat="43.77833009466066" lon="10.716516484024762"><ele>30.0</ele><time>2026-05-02T14:59:28.999Z</time></trkpt><trkpt lat="43.77816671584733" lon="10.716674838123868"><ele>30.0</ele><time>2026-05-02T14:59:29.999Z</time></trkpt><trkpt lat="43.777999009109905" lon="10.7167785546594"><ele>30.0</ele><time>2026-05-02T14:59:30.999Z</time></trkpt><trkpt lat="43.77782969844461" lon="10.716798523347245"><ele>30.0</ele><time>2026-05-02T14:59:31.999Z</time></trkpt><trkpt lat="43.77766221057513" lon="10.716762006040632"><ele>30.333333333333336</ele><time>2026-05-02T14:59:32.999Z</time></trkpt><trkpt lat="43.77747796950903" lon="10.71672446450682"><ele>30.666666666666668</ele><time>2026-05-02T14:59:33.999Z</time></trkpt><trkpt lat="43.777286512497525" lon="10.716684984334679"><ele>31.0</ele><time>2026-05-02T14:59:34.999Z</time></trkpt><trkpt lat="43.77708569489968" lon="10.716673415805763"><ele>31.0</ele><time>2026-05-02T14:59:35.999Z</time></trkpt><trkpt lat="43.776890370850445" lon="10.71664696341271"><ele>31.0</ele><time>2026-05-02T14:59:36.999Z</time></trkpt><trkpt lat="43.77668614760231" lon="10.716631078823989"><ele>31.0</ele><time>2026-05-02T14:59:37.999Z</time></trkpt><trkpt lat="43.77650783322716" lon="10.71662299941903"><ele>31.333333333333336</ele><time>2026-05-02T14:59:38.999Z</time></trkpt><trkpt lat="43.77633595160966" lon="10.716607751745133"><ele>31.666666666666664</ele><time>2026-05-02T14:59:39.999Z</time></trkpt><trkpt lat="43.776183981096615" lon="10.716597665398337"><ele>32.0</ele><time>2026-05-02T14:59:40.999Z</time></trkpt><trkpt lat="43.77605161297455" lon="10.716595200216167"><ele>32.800000000000004</ele><time>2026-05-02T14:59:41.999Z</time></trkpt><trkpt lat="43.77594343092623" lon="10.71660101223544"><ele>33.6</ele><time>2026-05-02T14:59:42.999Z</time></trkpt><trkpt lat="43.775848362884346" lon="10.716626200174762"><ele>34.400000000000006</ele><time>2026-05-02T14:59:43.999Z</time></trkpt><trkpt lat="43.77576514176962" lon="10.716699299352882"><ele>35.2</ele><time>2026-05-02T14:59:44.999Z</time></trkpt><trkpt lat="43.77566015072949" lon="10.716792072560558"><ele>36.0</ele><time>2026-05-02T14:59:45.999Z</time></trkpt><trkpt lat="43.775583128709414" lon="10.716938494195658"><ele>36.0</ele><time>2026-05-02T14:59:46.999Z</time></trkpt><trkpt lat="43.775474997448846" lon="10.71706273767036"><ele>36.0</ele><time>2026-05-02T14:59:47.999Z</time></trkpt><trkpt lat="43.77536636694412" lon="10.717193091689062"><ele>36.0</ele><time>2026-05-02T14:59:48.999Z</time></trkpt><trkpt lat="43.775259910891755" lon="10.717339535529288"><ele>36.0</ele><time>2026-05-02T14:59:49.999Z</time></trkpt><trkpt lat="43.775142749075414" lon="10.71748149971652"><ele>36.0</ele><time>2026-05-02T14:59:50.999Z</time></trkpt><trkpt lat="43.775028536282605" lon="10.717614737976811"><ele>36.0</ele><time>2026-05-02T14:59:51.999Z</time></trkpt><trkpt lat="43.77491309311458" lon="10.717757771476258"><ele>36.0</ele><time>2026-05-02T14:59:52.999Z</time></trkpt><trkpt lat="43.77479755873351" lon="10.717907187388636"><ele>36.666666666666664</ele><time>2026-05-02T14:59:54Z</time></trkpt><trkpt lat="43.77467164955368" lon="10.718058970382943"><ele>37.33333333333333</ele><time>2026-05-02T14:59:55Z</time></trkpt><trkpt lat="43.77453522435487" lon="10.718214152937982"><ele>38.0</ele><time>2026-05-02T14:59:56Z</time></trkpt><trkpt lat="43.77439850563581" lon="10.718382798926333"><ele>38.0</ele><time>2026-05-02T14:59:57Z</time></trkpt><trkpt lat="43.77426201859362" lon="10.718546945143535"><ele>38.0</ele><time>2026-05-02T14:59:58Z</time></trkpt><trkpt lat="43.77412632828932" lon="10.718705878856284"><ele>38.0</ele><time>2026-05-02T14:59:59Z</time></trkpt><trkpt lat="43.7739932023377" lon="10.718868774194505"><ele>37.666666666666664</ele><time>2026-05-02T15:00:00Z</time></trkpt><trkpt lat="43.77386586352748" lon="10.719027179088783"><ele>37.333333333333336</ele><time>2026-05-02T15:00:01Z</time></trkpt><trkpt lat="43.77373773329594" lon="10.7191845161229"><ele>37.0</ele><time>2026-05-02T15:00:02Z</time></trkpt><trkpt lat="43.77360019851027" lon="10.719320535049441"><ele>37.333333333333336</ele><time>2026-05-02T15:00:03Z</time></trkpt><trkpt lat="43.7734701700647" lon="10.71947744969587"><ele>37.666666666666664</ele><time>2026-05-02T15:00:04Z</time></trkpt><trkpt lat="43.773350456874546" lon="10.719643431186455"><ele>38.0</ele><time>2026-05-02T15:00:05Z</time></trkpt><trkpt lat="43.77322188809532" lon="10.719797988076987"><ele>38.0</ele><time>2026-05-02T15:00:06Z</time></trkpt><trkpt lat="43.77309217683817" lon="10.7199551660754"><ele>38.0</ele><time>2026-05-02T15:00:07Z</time></trkpt><trkpt lat="43.77296679787704" lon="10.72011633631718"><ele>38.0</ele><time>2026-05-02T15:00:08Z</time></trkpt><trkpt lat="43.77284229390227" lon="10.720275538005563"><ele>38.25</ele><time>2026-05-02T15:00:09Z</time></trkpt><trkpt lat="43.77271205739257" lon="10.720439554081224"><ele>38.5</ele><time>2026-05-02T15:00:10Z</time></trkpt><trkpt lat="43.77259126638132" lon="10.720558280219512"><ele>38.75</ele><time>2026-05-02T15:00:11Z</time></trkpt><trkpt lat="43.772497395217314" lon="10.72067119062272"><ele>39.0</ele><time>2026-05-02T15:00:12Z</time></trkpt><trkpt lat="43.77242186514584" lon="10.720759302971564"><ele>38.8</ele><time>2026-05-02T15:00:13Z</time></trkpt><trkpt lat="43.77235346483522" lon="10.720836718473079"><ele>38.599999999999994</ele><time>2026-05-02T15:00:14Z</time></trkpt><trkpt lat="43.77228069724766" lon="10.72091868168569"><ele>38.4</ele><time>2026-05-02T15:00:15Z</time></trkpt><trkpt lat="43.77219162360266" lon="10.72101398015244"><ele>38.199999999999996</ele><time>2026-05-02T15:00:16Z</time></trkpt><trkpt lat="43.77209936420419" lon="10.721137694026444"><ele>38.0</ele><time>2026-05-02T15:00:17Z</time></trkpt><trkpt lat="43.77198324268874" lon="10.721223829774932"><ele>38.0</ele><time>2026-05-02T15:00:18Z</time></trkpt><trkpt lat="43.77186706520984" lon="10.721285490285101"><ele>38.0</ele><time>2026-05-02T15:00:19Z</time></trkpt><trkpt lat="43.77175839396858" lon="10.721305861618987"><ele>38.0</ele><time>2026-05-02T15:00:20Z</time></trkpt><trkpt lat="43.77163720382475" lon="10.721246185384244"><ele>38.0</ele><time>2026-05-02T15:00:21Z</time></trkpt><trkpt lat="43.77149419160078" lon="10.7211998537549"><ele>38.33333333333333</ele><time>2026-05-02T15:00:22Z</time></trkpt><trkpt lat="43.77133505230698" lon="10.72111968171726"><ele>38.666666666666664</ele><time>2026-05-02T15:00:23Z</time></trkpt><trkpt lat="43.77116495826886" lon="10.721046780778575"><ele>39.0</ele><time>2026-05-02T15:00:24Z</time></trkpt><trkpt lat="43.77099997243927" lon="10.720975554557333"><ele>39.0</ele><time>2026-05-02T15:00:25Z</time></trkpt><trkpt lat="43.770839716385154" lon="10.720910015022376"><ele>39.0</ele><time>2026-05-02T15:00:26Z</time></trkpt><trkpt lat="43.770673065596" lon="10.720842544001586"><ele>39.0</ele><time>2026-05-02T15:00:27Z</time></trkpt><trkpt lat="43.77050261805447" lon="10.720763792669619"><ele>39.0</ele><time>2026-05-02T15:00:28Z</time></trkpt><trkpt lat="43.770329739124676" lon="10.720685314573746"><ele>39.0</ele><time>2026-05-02T15:00:29Z</time></trkpt><trkpt lat="43.77015276953649" lon="10.72060883057536"><ele>39.0</ele><time>2026-05-02T15:00:30Z</time></trkpt><trkpt lat="43.769989049930494" lon="10.720521157245498"><ele>39.0</ele><time>2026-05-02T15:00:31Z</time></trkpt><trkpt lat="43.769830615763745" lon="10.720403508917151"><ele>39.0</ele><time>2026-05-02T15:00:32Z</time></trkpt><trkpt lat="43.76966880715872" lon="10.720260758469573"><ele>39.0</ele><time>2026-05-02T15:00:33Z</time></trkpt><trkpt lat="43.76950443925635" lon="10.720107722992875"><ele>39.666666666666664</ele><time>2026-05-02T15:00:34Z</time></trkpt><trkpt lat="43.76933330100298" lon="10.719942285957755"><ele>40.33333333333333</ele><time>2026-05-02T15:00:35Z</time></trkpt><trkpt lat="43.76916120611333" lon="10.719778996765697"><ele>41.0</ele><time>2026-05-02T15:00:36Z</time></trkpt><trkpt lat="43.76898208027757" lon="10.719620046800149"><ele>41.0</ele><time>2026-05-02T15:00:37Z</time></trkpt><trkpt lat="43.768813008072556" lon="10.719462543533416"><ele>41.0</ele><time>2026-05-02T15:00:38Z</time></trkpt><trkpt lat="43.76864805458215" lon="10.719308365020071"><ele>41.0</ele><time>2026-05-02T15:00:39Z</time></trkpt><trkpt lat="43.76848942813563" lon="10.719160862071563"><ele>40.666666666666664</ele><time>2026-05-02T15:00:40Z</time></trkpt><trkpt lat="43.76833737870082" lon="10.719027412268455"><ele>40.333333333333336</ele><time>2026-05-02T15:00:41Z</time></trkpt><trkpt lat="43.768197893902716" lon="10.718884914217464"><ele>40.0</ele><time>2026-05-02T15:00:42Z</time></trkpt><trkpt lat="43.76807234508393" lon="10.71872951613383"><ele>39.66666666666667</ele><time>2026-05-02T15:00:43Z</time></trkpt><trkpt lat="43.767973353274364" lon="10.718523447670137"><ele>39.333333333333336</ele><time>2026-05-02T15:00:44Z</time></trkpt><trkpt lat="43.767920460125325" lon="10.7182581163764"><ele>39.0</ele><time>2026-05-02T15:00:45Z</time></trkpt><trkpt lat="43.76784478492219" lon="10.717994074956104"><ele>39.0</ele><time>2026-05-02T15:00:46Z</time></trkpt><trkpt lat="43.767779217960026" lon="10.717708635318242"><ele>39.0</ele><time>2026-05-02T15:00:47Z</time></trkpt><trkpt lat="43.76770494229498" lon="10.71743288527523"><ele>39.0</ele><time>2026-05-02T15:00:48Z</time></trkpt><trkpt lat="43.767628504319305" lon="10.717152636274664"><ele>40.0</ele><time>2026-05-02T15:00:49Z</time></trkpt><trkpt lat="43.76755736487751" lon="10.716865120835365"><ele>41.0</ele><time>2026-05-02T15:00:50Z</time></trkpt><trkpt lat="43.767497556576004" lon="10.716573509684677"><ele>42.0</ele><time>2026-05-02T15:00:51Z</time></trkpt><trkpt lat="43.767458923120834" lon="10.716276297784615"><ele>42.0</ele><time>2026-05-02T15:00:52Z</time></trkpt><trkpt lat="43.76746024633094" lon="10.715965177039315"><ele>42.0</ele><time>2026-05-02T15:00:53Z</time></trkpt><trkpt lat="43.767436057729114" lon="10.715636325720348"><ele>42.0</ele><time>2026-05-02T15:00:54Z</time></trkpt><trkpt lat="43.76742561040429" lon="10.715301036212999"><ele>42.0</ele><time>2026-05-02T15:00:55Z</time></trkpt><trkpt lat="43.76741321576139" lon="10.714957511820568"><ele>40.5</ele><time>2026-05-02T15:00:56Z</time></trkpt><trkpt lat="43.76739819161083" lon="10.714611279607427"><ele>39.0</ele><time>2026-05-02T15:00:57Z</time></trkpt><trkpt lat="43.76738914287201" lon="10.714257161161045"><ele>36.5</ele><time>2026-05-02T15:00:58Z</time></trkpt><trkpt lat="43.767381990018684" lon="10.713928121533442"><ele>34.0</ele><time>2026-05-02T15:00:59Z</time></trkpt><trkpt lat="43.76736677804862" lon="10.713616884756922"><ele>33.333333333333336</ele><time>2026-05-02T15:01:00Z</time></trkpt><trkpt lat="43.76735589156654" lon="10.713331053230661"><ele>32.666666666666664</ele><time>2026-05-02T15:01:01Z</time></trkpt><trkpt lat="43.76733244753766" lon="10.713042449939465"><ele>32.0</ele><time>2026-05-02T15:01:02Z</time></trkpt><trkpt lat="43.767285579993555" lon="10.712753910680036"><ele>31.666666666666664</ele><time>2026-05-02T15:01:03Z</time></trkpt><trkpt lat="43.7672236304106" lon="10.712459336740984"><ele>31.333333333333336</ele><time>2026-05-02T15:01:04Z</time></trkpt><trkpt lat="43.7671536135725" lon="10.712173607869433"><ele>31.0</ele><time>2026-05-02T15:01:05Z</time></trkpt><trkpt lat="43.76708736202963" lon="10.711920886173285"><ele>31.0</ele><time>2026-05-02T15:01:06Z</time></trkpt><trkpt lat="43.76699234722148" lon="10.711694385114507"><ele>31.0</ele><time>2026-05-02T15:01:07Z</time></trkpt><trkpt lat="43.766856284375685" lon="10.711505773556738"><ele>31.0</ele><time>2026-05-02T15:01:08Z</time></trkpt><trkpt lat="43.76668154500214" lon="10.711362921046117"><ele>31.0</ele><time>2026-05-02T15:01:09Z</time></trkpt><trkpt lat="43.76648511119512" lon="10.711245624560306"><ele>31.0</ele><time>2026-05-02T15:01:10Z</time></trkpt><trkpt lat="43.76628593014851" lon="10.711109696751842"><ele>31.0</ele><time>2026-05-02T15:01:11Z</time></trkpt><trkpt lat="43.76609809434587" lon="10.710967322385079"><ele>31.333333333333336</ele><time>2026-05-02T15:01:12Z</time></trkpt><trkpt lat="43.76592601769249" lon="10.71083943396037"><ele>31.666666666666664</ele><time>2026-05-02T15:01:13Z</time></trkpt><trkpt lat="43.765775145175766" lon="10.710683632968633"><ele>32.0</ele><time>2026-05-02T15:01:14Z</time></trkpt><trkpt lat="43.76565609326952" lon="10.710503261884389"><ele>32.0</ele><time>2026-05-02T15:01:15Z</time></trkpt><trkpt lat="43.76554257995035" lon="10.71028552184153"><ele>32.0</ele><time>2026-05-02T15:01:16Z</time></trkpt><trkpt lat="43.76540540232018" lon="10.710043845522092"><ele>32.0</ele><time>2026-05-02T15:01:17Z</time></trkpt><trkpt lat="43.765278121019946" lon="10.709785845718681"><ele>30.0</ele><time>2026-05-02T15:01:17.999Z</time></trkpt><trkpt lat="43.765143730596705" lon="10.709531282320498"><ele>28.0</ele><time>2026-05-02T15:01:18.999Z</time></trkpt><trkpt lat="43.765009252192684" lon="10.709278376681633"><ele>28.0</ele><time>2026-05-02T15:01:19.999Z</time></trkpt><trkpt lat="43.76488206192221" lon="10.709044460844908"><ele>28.0</ele><time>2026-05-02T15:01:20.999Z</time></trkpt><trkpt lat="43.764754129230234" lon="10.708814396769506"><ele>28.0</ele><time>2026-05-02T15:01:21.999Z</time></trkpt><trkpt lat="43.76463140691695" lon="10.708597336032652"><ele>28.0</ele><time>2026-05-02T15:01:22.999Z</time></trkpt><trkpt lat="43.76450937803311" lon="10.708387213339995"><ele>28.0</ele><time>2026-05-02T15:01:23.999Z</time></trkpt><trkpt lat="43.764372462689565" lon="10.70820625577157"><ele>28.0</ele><time>2026-05-02T15:01:24.999Z</time></trkpt><trkpt lat="43.76420889163516" lon="10.708065657781576"><ele>26.0</ele><time>2026-05-02T15:01:25.999Z</time></trkpt><trkpt lat="43.76402009437212" lon="10.707952258445474"><ele>24.0</ele><time>2026-05-02T15:01:26.999Z</time></trkpt><trkpt lat="43.76381992318105" lon="10.707864944518153"><ele>22.0</ele><time>2026-05-02T15:01:27.999Z</time></trkpt><trkpt lat="43.76360962223511" lon="10.707780865571406"><ele>21.333333333333332</ele><time>2026-05-02T15:01:28.999Z</time></trkpt><trkpt lat="43.763401542766026" lon="10.707699676638796"><ele>20.666666666666668</ele><time>2026-05-02T15:01:29.999Z</time></trkpt><trkpt lat="43.763191424046404" lon="10.707615524115306"><ele>20.0</ele><time>2026-05-02T15:01:30.999Z</time></trkpt><trkpt lat="43.762982871418735" lon="10.707532820192121"><ele>20.0</ele><time>2026-05-02T15:01:31.999Z</time></trkpt><trkpt lat="43.76278010731366" lon="10.707451083076155"><ele>20.0</ele><time>2026-05-02T15:01:32.999Z</time></trkpt><trkpt lat="43.762576546246194" lon="10.707368908237575"><ele>20.0</ele><time>2026-05-02T15:01:33.999Z</time></trkpt><trkpt lat="43.76237727867533" lon="10.707288725375099"><ele>19.333333333333336</ele><time>2026-05-02T15:01:34.999Z</time></trkpt><trkpt lat="43.76219038670801" lon="10.707210232461188"><ele>18.666666666666668</ele><time>2026-05-02T15:01:35.999Z</time></trkpt><trkpt lat="43.762022447246146" lon="10.70711290075426"><ele>18.0</ele><time>2026-05-02T15:01:36.999Z</time></trkpt><trkpt lat="43.76188703643308" lon="10.706940034600992"><ele>20.0</ele><time>2026-05-02T15:01:37.999Z</time></trkpt><trkpt lat="43.76175944928638" lon="10.706746562522438"><ele>22.0</ele><time>2026-05-02T15:01:38.999Z</time></trkpt><trkpt lat="43.76163972512129" lon="10.706538351555707"><ele>24.0</ele><time>2026-05-02T15:01:39.999Z</time></trkpt><trkpt lat="43.76152495359838" lon="10.706328399692806"><ele>24.0</ele><time>2026-05-02T15:01:40.999Z</time></trkpt><trkpt lat="43.761452596563075" lon="10.706091289744203"><ele>24.0</ele><time>2026-05-02T15:01:41.999Z</time></trkpt><trkpt lat="43.761386752399964" lon="10.70586413009817"><ele>24.0</ele><time>2026-05-02T15:01:42.999Z</time></trkpt><trkpt lat="43.761320800630415" lon="10.705654033748898"><ele>23.5</ele><time>2026-05-02T15:01:43.999Z</time></trkpt><trkpt lat="43.761272492639975" lon="10.70545332274669"><ele>23.0</ele><time>2026-05-02T15:01:44.999Z</time></trkpt><trkpt lat="43.761214976206944" lon="10.705268062272472"><ele>22.5</ele><time>2026-05-02T15:01:45.999Z</time></trkpt><trkpt lat="43.761164992754686" lon="10.705101978405162"><ele>22.0</ele><time>2026-05-02T15:01:46.999Z</time></trkpt><trkpt lat="43.761121606136115" lon="10.704959890151938"><ele>22.400000000000002</ele><time>2026-05-02T15:01:47.999Z</time></trkpt><trkpt lat="43.76108061268098" lon="10.704824257503248"><ele>22.8</ele><time>2026-05-02T15:01:48.999Z</time></trkpt><trkpt lat="43.76103760543399" lon="10.704697086226126"><ele>23.2</ele><time>2026-05-02T15:01:49.999Z</time></trkpt><trkpt lat="43.76098464612844" lon="10.704576440620317"><ele>23.6</ele><time>2026-05-02T15:01:50.999Z</time></trkpt><trkpt lat="43.760917368708256" lon="10.704462847083235"><ele>24.0</ele><time>2026-05-02T15:01:51.999Z</time></trkpt><trkpt lat="43.76082734390119" lon="10.704374885814929"><ele>24.0</ele><time>2026-05-02T15:01:52.999Z</time></trkpt><trkpt lat="43.760725540203325" lon="10.704332203444368"><ele>24.0</ele><time>2026-05-02T15:01:53.999Z</time></trkpt><trkpt lat="43.76062504551463" lon="10.704341769012965"><ele>24.0</ele><time>2026-05-02T15:01:54.999Z</time></trkpt><trkpt lat="43.7605288520967" lon="10.704387734407904"><ele>24.0</ele><time>2026-05-02T15:01:55.999Z</time></trkpt><trkpt lat="43.76042585610614" lon="10.704430481925257"><ele>24.0</ele><time>2026-05-02T15:01:56.999Z</time></trkpt><trkpt lat="43.76030692722126" lon="10.704499037244354"><ele>24.0</ele><time>2026-05-02T15:01:57.999Z</time></trkpt><trkpt lat="43.760180727379364" lon="10.704569307577433"><ele>24.0</ele><time>2026-05-02T15:01:59Z</time></trkpt><trkpt lat="43.76004643498341" lon="10.704641759881056"><ele>24.0</ele><time>2026-05-02T15:02:00Z</time></trkpt><trkpt lat="43.75992068476117" lon="10.70470950630793"><ele>24.0</ele><time>2026-05-02T15:02:01Z</time></trkpt><trkpt lat="43.75981585240393" lon="10.704788109557906"><ele>24.0</ele><time>2026-05-02T15:02:02Z</time></trkpt><trkpt lat="43.75970919992456" lon="10.704838517398468"><ele>24.0</ele><time>2026-05-02T15:02:03Z</time></trkpt><trkpt lat="43.75960958516863" lon="10.704857056527246"><ele>24.0</ele><time>2026-05-02T15:02:04Z</time></trkpt><trkpt lat="43.75951157336595" lon="10.704832898140436"><ele>24.0</ele><time>2026-05-02T15:02:05Z</time></trkpt><trkpt lat="43.75942854115041" lon="10.704764377346109"><ele>24.0</ele><time>2026-05-02T15:02:06Z</time></trkpt><trkpt lat="43.75936808401931" lon="10.704662234825824"><ele>23.2</ele><time>2026-05-02T15:02:07Z</time></trkpt><trkpt lat="43.7593151586807" lon="10.70452727135694"><ele>22.4</ele><time>2026-05-02T15:02:08Z</time></trkpt><trkpt lat="43.759257386670946" lon="10.704383557603"><ele>21.6</ele><time>2026-05-02T15:02:09Z</time></trkpt><trkpt lat="43.75919702863024" lon="10.704256769291158"><ele>20.8</ele><time>2026-05-02T15:02:10Z</time></trkpt><trkpt lat="43.759120117266704" lon="10.70414767067621"><ele>20.0</ele><time>2026-05-02T15:02:11Z</time></trkpt><trkpt lat="43.75903054255036" lon="10.704054342442811"><ele>20.0</ele><time>2026-05-02T15:02:12Z</time></trkpt><trkpt lat="43.758917752455396" lon="10.703988835699555"><ele>20.0</ele><time>2026-05-02T15:02:13Z</time></trkpt><trkpt lat="43.75878898609322" lon="10.703953406157028"><ele>20.0</ele><time>2026-05-02T15:02:14Z</time></trkpt><trkpt lat="43.75866360273058" lon="10.70391028826896"><ele>20.0</ele><time>2026-05-02T15:02:15Z</time></trkpt><trkpt lat="43.75853455693861" lon="10.703893721019332"><ele>18.5</ele><time>2026-05-02T15:02:16Z</time></trkpt><trkpt lat="43.75840642731369" lon="10.703877987928937"><ele>17.0</ele><time>2026-05-02T15:02:17Z</time></trkpt><trkpt lat="43.75827544452198" lon="10.703862921031632"><ele>15.5</ele><time>2026-05-02T15:02:18Z</time></trkpt><trkpt lat="43.758138150210016" lon="10.703850067688885"><ele>14.0</ele><time>2026-05-02T15:02:19Z</time></trkpt><trkpt lat="43.757989650691435" lon="10.703857145187062"><ele>14.0</ele><time>2026-05-02T15:02:20Z</time></trkpt><trkpt lat="43.75783377122014" lon="10.703838781553983"><ele>14.0</ele><time>2026-05-02T15:02:21Z</time></trkpt><trkpt lat="43.757692477687776" lon="10.70382339338274"><ele>14.0</ele><time>2026-05-02T15:02:22Z</time></trkpt><trkpt lat="43.75757226536353" lon="10.703811462862841"><ele>14.0</ele><time>2026-05-02T15:02:23Z</time></trkpt><trkpt lat="43.757478242648794" lon="10.703798864078138"><ele>13.75</ele><time>2026-05-02T15:02:24Z</time></trkpt><trkpt lat="43.75738365248093" lon="10.703804359709112"><ele>13.5</ele><time>2026-05-02T15:02:25Z</time></trkpt><trkpt lat="43.75727677390517" lon="10.70376418661295"><ele>13.25</ele><time>2026-05-02T15:02:26Z</time></trkpt><trkpt lat="43.75720887587343" lon="10.703696999006873"><ele>13.0</ele><time>2026-05-02T15:02:27Z</time></trkpt><trkpt lat="43.757004830333145" lon="10.703605084207108"><ele>12.5</ele><time>2026-05-02T15:02:28Z</time></trkpt><trkpt lat="43.75691748743625" lon="10.703487660197256"><ele>12.0</ele><time>2026-05-02T15:02:29Z</time></trkpt><trkpt lat="43.756840156432" lon="10.70335675876151"><ele>11.5</ele><time>2026-05-02T15:02:30Z</time></trkpt><trkpt lat="43.75677206656137" lon="10.703212654725961"><ele>11.0</ele><time>2026-05-02T15:02:31Z</time></trkpt><trkpt lat="43.75671017306588" lon="10.703063625213177"><ele>12.200000000000001</ele><time>2026-05-02T15:02:32Z</time></trkpt><trkpt lat="43.75664422062646" lon="10.702930426349399"><ele>13.4</ele><time>2026-05-02T15:02:33Z</time></trkpt><trkpt lat="43.75657698360493" lon="10.70280345877429"><ele>14.6</ele><time>2026-05-02T15:02:34Z</time></trkpt><trkpt lat="43.756505481652866" lon="10.702688872489007"><ele>15.8</ele><time>2026-05-02T15:02:35Z</time></trkpt><trkpt lat="43.75642677668919" lon="10.702592410955655"><ele>17.0</ele><time>2026-05-02T15:02:36Z</time></trkpt><trkpt lat="43.75632773242031" lon="10.702517916908912"><ele>17.0</ele><time>2026-05-02T15:02:37Z</time></trkpt><trkpt lat="43.756223434356464" lon="10.702446059728478"><ele>17.0</ele><time>2026-05-02T15:02:38Z</time></trkpt><trkpt lat="43.756099153131466" lon="10.702436579441507"><ele>17.0</ele><time>2026-05-02T15:02:39Z</time></trkpt><trkpt lat="43.75597805217847" lon="10.702409507574425"><ele>17.0</ele><time>2026-05-02T15:02:40Z</time></trkpt><trkpt lat="43.75585457584023" lon="10.702398486912166"><ele>18.75</ele><time>2026-05-02T15:02:41Z</time></trkpt><trkpt lat="43.75572771811965" lon="10.702386461306173"><ele>20.5</ele><time>2026-05-02T15:02:42Z</time></trkpt><trkpt lat="43.755602479618595" lon="10.702364412898444"><ele>22.25</ele><time>2026-05-02T15:02:43Z</time></trkpt><trkpt lat="43.75547197550288" lon="10.702345595385006"><ele>24.0</ele><time>2026-05-02T15:02:44Z</time></trkpt><trkpt lat="43.75534594886476" lon="10.7023253289498"><ele>24.0</ele><time>2026-05-02T15:02:45Z</time></trkpt><trkpt lat="43.75522183997846" lon="10.70230657424771"><ele>24.0</ele><time>2026-05-02T15:02:46Z</time></trkpt><trkpt lat="43.75509896450966" lon="10.702293146690696"><ele>24.0</ele><time>2026-05-02T15:02:47Z</time></trkpt><trkpt lat="43.754981295147594" lon="10.70227292432074"><ele>24.0</ele><time>2026-05-02T15:02:48Z</time></trkpt><trkpt lat="43.754858181985185" lon="10.702243815927964"><ele>24.75</ele><time>2026-05-02T15:02:49Z</time></trkpt><trkpt lat="43.75472507059011" lon="10.702220703094717"><ele>25.5</ele><time>2026-05-02T15:02:50Z</time></trkpt><trkpt lat="43.75459708765059" lon="10.702205903626163"><ele>26.25</ele><time>2026-05-02T15:02:51Z</time></trkpt><trkpt lat="43.75447036666003" lon="10.702196381544686"><ele>27.0</ele><time>2026-05-02T15:02:52Z</time></trkpt><trkpt lat="43.75435907768645" lon="10.702182467962212"><ele>27.400000000000002</ele><time>2026-05-02T15:02:53Z</time></trkpt><trkpt lat="43.754262605281426" lon="10.70216255418498"><ele>27.800000000000004</ele><time>2026-05-02T15:02:54Z</time></trkpt><trkpt lat="43.754171002964476" lon="10.702146855509103"><ele>28.2</ele><time>2026-05-02T15:02:55Z</time></trkpt><trkpt lat="43.754067994452555" lon="10.7021202711098"><ele>28.6</ele><time>2026-05-02T15:02:56Z</time></trkpt><trkpt lat="43.75396196933125" lon="10.702087096201709"><ele>29.0</ele><time>2026-05-02T15:02:57Z</time></trkpt><trkpt lat="43.75387366051782" lon="10.702005100760816"><ele>28.999999999999996</ele><time>2026-05-02T15:02:58Z</time></trkpt><trkpt lat="43.75378651617654" lon="10.701962914114825"><ele>29.0</ele><time>2026-05-02T15:02:59Z</time></trkpt><trkpt lat="43.75370511777158" lon="10.70191419359336"><ele>29.0</ele><time>2026-05-02T15:03:00Z</time></trkpt><trkpt lat="43.75362694915008" lon="10.701871682170978"><ele>29.0</ele><time>2026-05-02T15:03:01Z</time></trkpt><trkpt lat="43.75355093481309" lon="10.701825744309735"><ele>28.999999999999996</ele><time>2026-05-02T15:03:02Z</time></trkpt><trkpt lat="43.75347164629277" lon="10.701778947808544"><ele>29.0</ele><time>2026-05-02T15:03:03Z</time></trkpt><trkpt lat="43.75338226938321" lon="10.70172690838846"><ele>29.6</ele><time>2026-05-02T15:03:04Z</time></trkpt><trkpt lat="43.75328802000575" lon="10.701670773085386"><ele>30.2</ele><time>2026-05-02T15:03:05Z</time></trkpt><trkpt lat="43.75319156125747" lon="10.701609311536686"><ele>30.800000000000004</ele><time>2026-05-02T15:03:06Z</time></trkpt><trkpt lat="43.753096326301566" lon="10.701548914780613"><ele>31.400000000000002</ele><time>2026-05-02T15:03:07Z</time></trkpt><trkpt lat="43.753002007305476" lon="10.701492261053462"><ele>32.0</ele><time>2026-05-02T15:03:08Z</time></trkpt><trkpt lat="43.752906166118905" lon="10.70143503526977"><ele>32.0</ele><time>2026-05-02T15:03:09Z</time></trkpt><trkpt lat="43.75281045878308" lon="10.701378871097265"><ele>32.0</ele><time>2026-05-02T15:03:10Z</time></trkpt><trkpt lat="43.75271476495993" lon="10.701319728082641"><ele>32.0</ele><time>2026-05-02T15:03:11Z</time></trkpt><trkpt lat="43.75260915145145" lon="10.701257362557534"><ele>32.0</ele><time>2026-05-02T15:03:12Z</time></trkpt><trkpt lat="43.75251468040188" lon="10.701174792174436"><ele>32.0</ele><time>2026-05-02T15:03:13Z</time></trkpt><trkpt lat="43.75241509132671" lon="10.701137862138776"><ele>32.4</ele><time>2026-05-02T15:03:14Z</time></trkpt><trkpt lat="43.75232943365758" lon="10.701079100963435"><ele>32.800000000000004</ele><time>2026-05-02T15:03:15Z</time></trkpt><trkpt lat="43.75225139512993" lon="10.70102463214637"><ele>33.2</ele><time>2026-05-02T15:03:16Z</time></trkpt><trkpt lat="43.75216517226655" lon="10.70097932388001"><ele>33.6</ele><time>2026-05-02T15:03:17Z</time></trkpt><trkpt lat="43.75207601755003" lon="10.700968987413697"><ele>34.0</ele><time>2026-05-02T15:03:18Z</time></trkpt><trkpt lat="43.751979491791076" lon="10.70095463679789"><ele>34.0</ele><time>2026-05-02T15:03:19Z</time></trkpt><trkpt lat="43.75189397852861" lon="10.701033468648854"><ele>34.0</ele><time>2026-05-02T15:03:20Z</time></trkpt><trkpt lat="43.75179593628" lon="10.70108753152582"><ele>34.0</ele><time>2026-05-02T15:03:21Z</time></trkpt><trkpt lat="43.751696721586875" lon="10.701157741574317"><ele>34.0</ele><time>2026-05-02T15:03:22Z</time></trkpt><trkpt lat="43.75159447842346" lon="10.701244273845315"><ele>34.0</ele><time>2026-05-02T15:03:23Z</time></trkpt><trkpt lat="43.75148570351513" lon="10.701313047054146"><ele>34.2</ele><time>2026-05-02T15:03:24Z</time></trkpt><trkpt lat="43.75137782264911" lon="10.70139215398953"><ele>34.4</ele><time>2026-05-02T15:03:25Z</time></trkpt><trkpt lat="43.75127765027562" lon="10.701462723523324"><ele>34.6</ele><time>2026-05-02T15:03:26Z</time></trkpt><trkpt lat="43.75118851721683" lon="10.701521327503228"><ele>34.8</ele><time>2026-05-02T15:03:26.999Z</time></trkpt><trkpt lat="43.751087858386605" lon="10.701551517572076"><ele>35.0</ele><time>2026-05-02T15:03:27.999Z</time></trkpt><trkpt lat="43.75100461055441" lon="10.701546736229181"><ele>34.0</ele><time>2026-05-02T15:03:28.999Z</time></trkpt><trkpt lat="43.75092188717996" lon="10.701489057822734"><ele>33.0</ele><time>2026-05-02T15:03:29.999Z</time></trkpt><trkpt lat="43.75084730180856" lon="10.701398180066242"><ele>32.0</ele><time>2026-05-02T15:03:30.999Z</time></trkpt><trkpt lat="43.75076995613444" lon="10.701263458624052"><ele>31.0</ele><time>2026-05-02T15:03:31.999Z</time></trkpt><trkpt lat="43.75068635564112" lon="10.701111100199816"><ele>31.75</ele><time>2026-05-02T15:03:32.999Z</time></trkpt><trkpt lat="43.75059791731591" lon="10.700964120493966"><ele>32.5</ele><time>2026-05-02T15:03:33.999Z</time></trkpt><trkpt lat="43.75050926916344" lon="10.700817932038758"><ele>33.25</ele><time>2026-05-02T15:03:34.999Z</time></trkpt><trkpt lat="43.75041474611997" lon="10.700645813819758"><ele>34.0</ele><time>2026-05-02T15:03:35.999Z</time></trkpt><trkpt lat="43.75032862966019" lon="10.700457365328125"><ele>34.0</ele><time>2026-05-02T15:03:36.999Z</time></trkpt><trkpt lat="43.75024744996359" lon="10.700265412786754"><ele>34.0</ele><time>2026-05-02T15:03:37.999Z</time></trkpt><trkpt lat="43.75015584415795" lon="10.700062722973428"><ele>34.0</ele><time>2026-05-02T15:03:38.999Z</time></trkpt><trkpt lat="43.75008771369254" lon="10.699890224022939"><ele>32.0</ele><time>2026-05-02T15:03:39.999Z</time></trkpt><trkpt lat="43.7500158804318" lon="10.69970838194352"><ele>30.0</ele><time>2026-05-02T15:03:40.999Z</time></trkpt><trkpt lat="43.749944936845274" lon="10.699535338046521"><ele>28.0</ele><time>2026-05-02T15:03:41.999Z</time></trkpt><trkpt lat="43.749862519278864" lon="10.699377326289728"><ele>26.0</ele><time>2026-05-02T15:03:42.999Z</time></trkpt><trkpt lat="43.74975098433853" lon="10.699242596507107"><ele>26.0</ele><time>2026-05-02T15:03:43.999Z</time></trkpt><trkpt lat="43.74964672721059" lon="10.699113515812014"><ele>26.0</ele><time>2026-05-02T15:03:44.999Z</time></trkpt><trkpt lat="43.74955267993033" lon="10.698987971800275"><ele>26.0</ele><time>2026-05-02T15:03:45.999Z</time></trkpt><trkpt lat="43.74947113421367" lon="10.698882387617791"><ele>26.0</ele><time>2026-05-02T15:03:46.999Z</time></trkpt><trkpt lat="43.74940270513986" lon="10.698791920169032"><ele>25.0</ele><time>2026-05-02T15:03:47.999Z</time></trkpt><trkpt lat="43.74934109234345" lon="10.69871494721839"><ele>24.0</ele><time>2026-05-02T15:03:48.999Z</time></trkpt><trkpt lat="43.74928557921903" lon="10.698640905180659"><ele>23.0</ele><time>2026-05-02T15:03:49.999Z</time></trkpt><trkpt lat="43.749236943911725" lon="10.698581676733024"><ele>22.0</ele><time>2026-05-02T15:03:50.999Z</time></trkpt><trkpt lat="43.74916955410149" lon="10.698481917988802"><ele>21.0</ele><time>2026-05-02T15:03:52.999Z</time></trkpt><trkpt lat="43.74905003824889" lon="10.698630309881603"><ele>21.0</ele><time>2026-05-02T15:03:53.999Z</time></trkpt><trkpt lat="43.74899946816198" lon="10.698731377021023"><ele>21.0</ele><time>2026-05-02T15:03:54.999Z</time></trkpt><trkpt lat="43.74894073804471" lon="10.698854538061482"><ele>21.0</ele><time>2026-05-02T15:03:55.999Z</time></trkpt><trkpt lat="43.7488800545" lon="10.698972471251118"><ele>21.0</ele><time>2026-05-02T15:03:56.999Z</time></trkpt><trkpt lat="43.74881594028946" lon="10.699101834950614"><ele>21.0</ele><time>2026-05-02T15:03:57.999Z</time></trkpt><trkpt lat="43.74873647557382" lon="10.699253196142068"><ele>21.0</ele><time>2026-05-02T15:03:58.999Z</time></trkpt><trkpt lat="43.748641502597266" lon="10.69942782477617"><ele>21.0</ele><time>2026-05-02T15:03:59.999Z</time></trkpt><trkpt lat="43.748547794070575" lon="10.699615604479252"><ele>21.0</ele><time>2026-05-02T15:04:00.999Z</time></trkpt><trkpt lat="43.748444743608275" lon="10.699803451107684"><ele>21.0</ele><time>2026-05-02T15:04:01.999Z</time></trkpt><trkpt lat="43.74833349719705" lon="10.70000276236264"><ele>21.0</ele><time>2026-05-02T15:04:02.999Z</time></trkpt><trkpt lat="43.74821902362091" lon="10.700218890076558"><ele>21.0</ele><time>2026-05-02T15:04:03.999Z</time></trkpt><trkpt lat="43.74809299167816" lon="10.70044504256889"><ele>20.666666666666668</ele><time>2026-05-02T15:04:05.001Z</time></trkpt><trkpt lat="43.747972590098826" lon="10.700671006433403"><ele>20.333333333333336</ele><time>2026-05-02T15:04:06.001Z</time></trkpt><trkpt lat="43.74785907204963" lon="10.700895965592302"><ele>20.0</ele><time>2026-05-02T15:04:07.001Z</time></trkpt><trkpt lat="43.747740370251435" lon="10.701124823883882"><ele>24.666666666666668</ele><time>2026-05-02T15:04:08.001Z</time></trkpt><trkpt lat="43.747607157040115" lon="10.701346302279815"><ele>29.333333333333336</ele><time>2026-05-02T15:04:09.001Z</time></trkpt><trkpt lat="43.74745732640726" lon="10.70155900121616"><ele>34.0</ele><time>2026-05-02T15:04:10.001Z</time></trkpt><trkpt lat="43.7472921263543" lon="10.70176885933527"><ele>35.0</ele><time>2026-05-02T15:04:11.001Z</time></trkpt><trkpt lat="43.747132031349956" lon="10.701968578553142"><ele>36.0</ele><time>2026-05-02T15:04:12.001Z</time></trkpt><trkpt lat="43.74696021267026" lon="10.70216841170265"><ele>37.0</ele><time>2026-05-02T15:04:13Z</time></trkpt><trkpt lat="43.74678727052953" lon="10.702368372610168"><ele>40.5</ele><time>2026-05-02T15:04:14Z</time></trkpt><trkpt lat="43.74661378860837" lon="10.702568385319655"><ele>44.0</ele><time>2026-05-02T15:04:15Z</time></trkpt><trkpt lat="43.746440639098154" lon="10.702766504162627"><ele>44.33333333333333</ele><time>2026-05-02T15:04:16Z</time></trkpt><trkpt lat="43.746267806749906" lon="10.70295844033703"><ele>44.666666666666664</ele><time>2026-05-02T15:04:17Z</time></trkpt><trkpt lat="43.746094275233176" lon="10.703151411542327"><ele>45.0</ele><time>2026-05-02T15:04:18Z</time></trkpt><trkpt lat="43.74592702560584" lon="10.703365170827896"><ele>46.0</ele><time>2026-05-02T15:04:19Z</time></trkpt><trkpt lat="43.745764640314384" lon="10.70358695698957"><ele>47.0</ele><time>2026-05-02T15:04:20Z</time></trkpt><trkpt lat="43.7456113976715" lon="10.703827477606163"><ele>47.0</ele><time>2026-05-02T15:04:21Z</time></trkpt><trkpt lat="43.74547054086467" lon="10.704078942286168"><ele>47.0</ele><time>2026-05-02T15:04:22Z</time></trkpt><trkpt lat="43.745343221367214" lon="10.704349107674256"><ele>49.5</ele><time>2026-05-02T15:04:23Z</time></trkpt><trkpt lat="43.745232684037546" lon="10.704628816251248"><ele>52.0</ele><time>2026-05-02T15:04:24Z</time></trkpt><trkpt lat="43.7451204344433" lon="10.704909530153683"><ele>52.0</ele><time>2026-05-02T15:04:25Z</time></trkpt><trkpt lat="43.74502518224308" lon="10.705204830192594"><ele>52.0</ele><time>2026-05-02T15:04:26Z</time></trkpt><trkpt lat="43.74493060012607" lon="10.705502254798436"><ele>54.0</ele><time>2026-05-02T15:04:27Z</time></trkpt><trkpt lat="43.744831158644004" lon="10.705798862665477"><ele>56.0</ele><time>2026-05-02T15:04:28Z</time></trkpt><trkpt lat="43.74472686503739" lon="10.706093572990822"><ele>57.0</ele><time>2026-05-02T15:04:29Z</time></trkpt><trkpt lat="43.74460932274052" lon="10.706382727178458"><ele>58.0</ele><time>2026-05-02T15:04:30Z</time></trkpt><trkpt lat="43.74448971627822" lon="10.706647477094021"><ele>58.0</ele><time>2026-05-02T15:04:31Z</time></trkpt><trkpt lat="43.74436906388262" lon="10.706896393215573"><ele>58.0</ele><time>2026-05-02T15:04:32Z</time></trkpt><trkpt lat="43.74424212445573" lon="10.707145299683646"><ele>58.0</ele><time>2026-05-02T15:04:33Z</time></trkpt><trkpt lat="43.744116537227434" lon="10.70738973740756"><ele>58.0</ele><time>2026-05-02T15:04:34Z</time></trkpt><trkpt lat="43.743994293618805" lon="10.707617096605526"><ele>58.0</ele><time>2026-05-02T15:04:35Z</time></trkpt><trkpt lat="43.7438480502767" lon="10.707941765685579"><ele>58.5</ele><time>2026-05-02T15:04:36Z</time></trkpt><trkpt lat="43.743713933958254" lon="10.708196488234089"><ele>59.0</ele><time>2026-05-02T15:04:37Z</time></trkpt><trkpt lat="43.74357879697459" lon="10.708451766636905"><ele>61.0</ele><time>2026-05-02T15:04:38Z</time></trkpt><trkpt lat="43.74344534410143" lon="10.708700926238826"><ele>63.0</ele><time>2026-05-02T15:04:39Z</time></trkpt><trkpt lat="43.74331026986368" lon="10.708954891396962"><ele>63.0</ele><time>2026-05-02T15:04:40Z</time></trkpt><trkpt lat="43.7431786313423" lon="10.70921225575262"><ele>63.0</ele><time>2026-05-02T15:04:41Z</time></trkpt><trkpt lat="43.74303222601371" lon="10.70945277845722"><ele>64.0</ele><time>2026-05-02T15:04:42Z</time></trkpt><trkpt lat="43.74289534630218" lon="10.709708921677867"><ele>65.0</ele><time>2026-05-02T15:04:43Z</time></trkpt><trkpt lat="43.74277725541264" lon="10.709983608197605"><ele>66.5</ele><time>2026-05-02T15:04:44Z</time></trkpt><trkpt lat="43.7426352617475" lon="10.710242548039837"><ele>68.0</ele><time>2026-05-02T15:04:45Z</time></trkpt><trkpt lat="43.74248428476019" lon="10.710495859953742"><ele>68.0</ele><time>2026-05-02T15:04:46Z</time></trkpt><trkpt lat="43.74232243595776" lon="10.710742383070421"><ele>68.0</ele><time>2026-05-02T15:04:47Z</time></trkpt><trkpt lat="43.74215376944983" lon="10.710988626031577"><ele>67.0</ele><time>2026-05-02T15:04:48Z</time></trkpt><trkpt lat="43.741979795546804" lon="10.711223339954"><ele>66.0</ele><time>2026-05-02T15:04:49Z</time></trkpt><trkpt lat="43.74179444290948" lon="10.71145398110355"><ele>66.0</ele><time>2026-05-02T15:04:50Z</time></trkpt><trkpt lat="43.74161453327116" lon="10.711687064511153"><ele>66.0</ele><time>2026-05-02T15:04:51Z</time></trkpt><trkpt lat="43.741442574325596" lon="10.711916395270121"><ele>68.0</ele><time>2026-05-02T15:04:52Z</time></trkpt><trkpt lat="43.74128045442909" lon="10.7121349928438"><ele>70.0</ele><time>2026-05-02T15:04:53Z</time></trkpt><trkpt lat="43.74111274558789" lon="10.712360180124355"><ele>69.5</ele><time>2026-05-02T15:04:54Z</time></trkpt><trkpt lat="43.7409359168969" lon="10.712573464916371"><ele>69.0</ele><time>2026-05-02T15:04:55Z</time></trkpt><trkpt lat="43.7407407578552" lon="10.712767102572872"><ele>68.0</ele><time>2026-05-02T15:04:56Z</time></trkpt><trkpt lat="43.740530756084674" lon="10.712942783371183"><ele>67.0</ele><time>2026-05-02T15:04:57Z</time></trkpt><trkpt lat="43.74031359887162" lon="10.71311508559802"><ele>67.0</ele><time>2026-05-02T15:04:58Z</time></trkpt><trkpt lat="43.74007453561628" lon="10.71322544103425"><ele>67.0</ele><time>2026-05-02T15:04:59Z</time></trkpt><trkpt lat="43.739829828979666" lon="10.713338731968673"><ele>67.0</ele><time>2026-05-02T15:05:00Z</time></trkpt><trkpt lat="43.73958390983786" lon="10.713434328746779"><ele>67.0</ele><time>2026-05-02T15:05:01Z</time></trkpt><trkpt lat="43.739540106336214" lon="10.713829551307287"><ele>67.0</ele><time>2026-05-02T15:05:02Z</time></trkpt><trkpt lat="43.73940974501905" lon="10.714057332442003"><ele>67.0</ele><time>2026-05-02T15:05:03Z</time></trkpt><trkpt lat="43.73926526153064" lon="10.714276526887542"><ele>67.0</ele><time>2026-05-02T15:05:04Z</time></trkpt><trkpt lat="43.739123030161515" lon="10.71450755940678"><ele>68.66666666666666</ele><time>2026-05-02T15:05:05Z</time></trkpt><trkpt lat="43.73900351606504" lon="10.714752115948862"><ele>70.33333333333333</ele><time>2026-05-02T15:05:06Z</time></trkpt><trkpt lat="43.738895920172865" lon="10.715010851648954"><ele>72.0</ele><time>2026-05-02T15:05:07Z</time></trkpt><trkpt lat="43.73878991714263" lon="10.71527824893135"><ele>71.66666666666667</ele><time>2026-05-02T15:05:08Z</time></trkpt><trkpt lat="43.73867456961763" lon="10.715525779546912"><ele>71.33333333333334</ele><time>2026-05-02T15:05:09Z</time></trkpt><trkpt lat="43.73855351350861" lon="10.715775475730252"><ele>71.0</ele><time>2026-05-02T15:05:10Z</time></trkpt><trkpt lat="43.73842790690084" lon="10.716021481620615"><ele>73.66666666666667</ele><time>2026-05-02T15:05:11Z</time></trkpt><trkpt lat="43.738300825290246" lon="10.7162551305418"><ele>76.33333333333333</ele><time>2026-05-02T15:05:12Z</time></trkpt><trkpt lat="43.738169631114005" lon="10.71649173749096"><ele>79.0</ele><time>2026-05-02T15:05:13Z</time></trkpt><trkpt lat="43.738043965712556" lon="10.716725830434232"><ele>80.33333333333333</ele><time>2026-05-02T15:05:14Z</time></trkpt><trkpt lat="43.7379174846065" lon="10.716964911450765"><ele>81.66666666666667</ele><time>2026-05-02T15:05:15Z</time></trkpt><trkpt lat="43.73779066995903" lon="10.71719840910467"><ele>83.0</ele><time>2026-05-02T15:05:16Z</time></trkpt><trkpt lat="43.73766515603532" lon="10.717429370947263"><ele>83.0</ele><time>2026-05-02T15:05:17Z</time></trkpt><trkpt lat="43.73754793958826" lon="10.7176451459998"><ele>83.0</ele><time>2026-05-02T15:05:18Z</time></trkpt><trkpt lat="43.73743789466903" lon="10.717847986869213"><ele>83.0</ele><time>2026-05-02T15:05:19Z</time></trkpt><trkpt lat="43.737329796151755" lon="10.718063632307697"><ele>83.66666666666667</ele><time>2026-05-02T15:05:20Z</time></trkpt><trkpt lat="43.737209353531746" lon="10.718276141214865"><ele>84.33333333333333</ele><time>2026-05-02T15:05:21Z</time></trkpt><trkpt lat="43.73708406982209" lon="10.718495465469266"><ele>85.0</ele><time>2026-05-02T15:05:22Z</time></trkpt><trkpt lat="43.73697014758829" lon="10.718715237885531"><ele>84.33333333333333</ele><time>2026-05-02T15:05:23Z</time></trkpt><trkpt lat="43.73684607801164" lon="10.718930210965278"><ele>83.66666666666667</ele><time>2026-05-02T15:05:24Z</time></trkpt><trkpt lat="43.73673049015344" lon="10.719140668156788"><ele>83.0</ele><time>2026-05-02T15:05:25Z</time></trkpt><trkpt lat="43.73660318856533" lon="10.719363472624472"><ele>84.0</ele><time>2026-05-02T15:05:26Z</time></trkpt><trkpt lat="43.736484967292014" lon="10.719591801920782"><ele>85.0</ele><time>2026-05-02T15:05:27Z</time></trkpt><trkpt lat="43.73637136507129" lon="10.719830627007243"><ele>86.0</ele><time>2026-05-02T15:05:28Z</time></trkpt><trkpt lat="43.73627100120503" lon="10.720084126096959"><ele>86.33333333333334</ele><time>2026-05-02T15:05:29Z</time></trkpt><trkpt lat="43.73617915661449" lon="10.720337854937373"><ele>86.66666666666667</ele><time>2026-05-02T15:05:30Z</time></trkpt><trkpt lat="43.736096173903746" lon="10.720615772578295"><ele>87.0</ele><time>2026-05-02T15:05:31Z</time></trkpt><trkpt lat="43.736032956885715" lon="10.72091838950599"><ele>86.5</ele><time>2026-05-02T15:05:32Z</time></trkpt><trkpt lat="43.73596012241723" lon="10.721238810544259"><ele>86.0</ele><time>2026-05-02T15:05:33Z</time></trkpt><trkpt lat="43.735899013430824" lon="10.721567025637684"><ele>86.0</ele><time>2026-05-02T15:05:33.999Z</time></trkpt><trkpt lat="43.735840978345934" lon="10.721896593848271"><ele>86.0</ele><time>2026-05-02T15:05:34.999Z</time></trkpt><trkpt lat="43.73578085184623" lon="10.722224621293455"><ele>86.66666666666667</ele><time>2026-05-02T15:05:35.999Z</time></trkpt><trkpt lat="43.73572026639142" lon="10.722521450621786"><ele>87.33333333333333</ele><time>2026-05-02T15:05:36.999Z</time></trkpt><trkpt lat="43.73566578406539" lon="10.722798237108373"><ele>88.0</ele><time>2026-05-02T15:05:37.999Z</time></trkpt><trkpt lat="43.73561346581056" lon="10.723077552497397"><ele>88.66666666666666</ele><time>2026-05-02T15:05:38.999Z</time></trkpt><trkpt lat="43.735559574252925" lon="10.72336089546638"><ele>89.33333333333333</ele><time>2026-05-02T15:05:39.999Z</time></trkpt><trkpt lat="43.73550755612195" lon="10.723639718788327"><ele>90.0</ele><time>2026-05-02T15:05:40.999Z</time></trkpt><trkpt lat="43.735454082542546" lon="10.723915270763234"><ele>91.33333333333333</ele><time>2026-05-02T15:05:41.999Z</time></trkpt><trkpt lat="43.73539980506335" lon="10.724199189472193"><ele>92.66666666666666</ele><time>2026-05-02T15:05:42.999Z</time></trkpt><trkpt lat="43.73535186285252" lon="10.724469881189991"><ele>94.0</ele><time>2026-05-02T15:05:43.999Z</time></trkpt><trkpt lat="43.73529910056183" lon="10.724730614959507"><ele>94.33333333333333</ele><time>2026-05-02T15:05:44.999Z</time></trkpt><trkpt lat="43.73523615074636" lon="10.724994966407777"><ele>94.66666666666667</ele><time>2026-05-02T15:05:45.999Z</time></trkpt><trkpt lat="43.73516377619332" lon="10.725257875995538"><ele>95.0</ele><time>2026-05-02T15:05:46.999Z</time></trkpt><trkpt lat="43.73508073746693" lon="10.725512652487767"><ele>95.0</ele><time>2026-05-02T15:05:47.999Z</time></trkpt><trkpt lat="43.7349843512601" lon="10.725759373648664"><ele>95.0</ele><time>2026-05-02T15:05:48.999Z</time></trkpt><trkpt lat="43.734880683222336" lon="10.725995472894835"><ele>95.0</ele><time>2026-05-02T15:05:49.999Z</time></trkpt><trkpt lat="43.73476535309722" lon="10.726227303830303"><ele>96.0</ele><time>2026-05-02T15:05:50.999Z</time></trkpt><trkpt lat="43.73464371632942" lon="10.726448539791262"><ele>97.0</ele><time>2026-05-02T15:05:51.999Z</time></trkpt><trkpt lat="43.7345102598954" lon="10.726649505982266"><ele>98.0</ele><time>2026-05-02T15:05:52.999Z</time></trkpt><trkpt lat="43.73437611731384" lon="10.726838927808718"><ele>98.66666666666666</ele><time>2026-05-02T15:05:53.999Z</time></trkpt><trkpt lat="43.73422871805408" lon="10.72702339418763"><ele>99.33333333333334</ele><time>2026-05-02T15:05:54.999Z</time></trkpt><trkpt lat="43.73407612708597" lon="10.727210318592268"><ele>100.0</ele><time>2026-05-02T15:05:55.999Z</time></trkpt><trkpt lat="43.73390692919654" lon="10.72739317125289"><ele>100.0</ele><time>2026-05-02T15:05:56.999Z</time></trkpt><trkpt lat="43.733720778749486" lon="10.727572961895511"><ele>100.0</ele><time>2026-05-02T15:05:57.999Z</time></trkpt><trkpt lat="43.73351059161814" lon="10.727726082960206"><ele>102.0</ele><time>2026-05-02T15:05:58.999Z</time></trkpt><trkpt lat="43.73328389932592" lon="10.72789161455875"><ele>104.0</ele><time>2026-05-02T15:05:59.999Z</time></trkpt><trkpt lat="43.73305162966943" lon="10.72808232148564"><ele>104.0</ele><time>2026-05-02T15:06:00.999Z</time></trkpt><trkpt lat="43.73279244783365" lon="10.728246494232481"><ele>104.0</ele><time>2026-05-02T15:06:01.999Z</time></trkpt><trkpt lat="43.732547553938225" lon="10.728413131814001"><ele>103.5</ele><time>2026-05-02T15:06:02.999Z</time></trkpt><trkpt lat="43.73232393024102" lon="10.728578532733463"><ele>103.0</ele><time>2026-05-02T15:06:03.999Z</time></trkpt><trkpt lat="43.73211087132932" lon="10.728730537540816"><ele>103.0</ele><time>2026-05-02T15:06:04.999Z</time></trkpt><trkpt lat="43.73190652452567" lon="10.728858017376616"><ele>103.0</ele><time>2026-05-02T15:06:05.999Z</time></trkpt><trkpt lat="43.73171475428093" lon="10.729007413322542"><ele>103.0</ele><time>2026-05-02T15:06:06.999Z</time></trkpt><trkpt lat="43.73153110693662" lon="10.729141442947354"><ele>102.66666666666667</ele><time>2026-05-02T15:06:07.999Z</time></trkpt><trkpt lat="43.73135865637943" lon="10.729263994313577"><ele>102.33333333333334</ele><time>2026-05-02T15:06:08.999Z</time></trkpt><trkpt lat="43.731200346986355" lon="10.729378433876422"><ele>102.0</ele><time>2026-05-02T15:06:09.999Z</time></trkpt><trkpt lat="43.73104468000079" lon="10.729482373723933"><ele>102.0</ele><time>2026-05-02T15:06:11Z</time></trkpt><trkpt lat="43.730893008830634" lon="10.72958142286812"><ele>102.0</ele><time>2026-05-02T15:06:12Z</time></trkpt><trkpt lat="43.73074254851727" lon="10.729679956630887"><ele>102.0</ele><time>2026-05-02T15:06:13Z</time></trkpt><trkpt lat="43.7306093426111" lon="10.729772815170302"><ele>102.0</ele><time>2026-05-02T15:06:14Z</time></trkpt><trkpt lat="43.73048286241479" lon="10.729854898178246"><ele>102.0</ele><time>2026-05-02T15:06:15Z</time></trkpt><trkpt lat="43.7303648494263" lon="10.729919355608123"><ele>102.0</ele><time>2026-05-02T15:06:16Z</time></trkpt><trkpt lat="43.730243900244496" lon="10.729943725857238"><ele>102.0</ele><time>2026-05-02T15:06:17Z</time></trkpt><trkpt lat="43.73011247341247" lon="10.72992280333098"><ele>102.75</ele><time>2026-05-02T15:06:18Z</time></trkpt><trkpt lat="43.72998003341781" lon="10.729850915438014"><ele>103.5</ele><time>2026-05-02T15:06:19Z</time></trkpt><trkpt lat="43.72985980357109" lon="10.729742350422315"><ele>104.25</ele><time>2026-05-02T15:06:20Z</time></trkpt><trkpt lat="43.72976036837605" lon="10.729602678709098"><ele>105.0</ele><time>2026-05-02T15:06:21Z</time></trkpt><trkpt lat="43.72968803735902" lon="10.729429799845748"><ele>103.66666666666666</ele><time>2026-05-02T15:06:22Z</time></trkpt><trkpt lat="43.72965439898372" lon="10.729212416088803"><ele>102.33333333333333</ele><time>2026-05-02T15:06:23Z</time></trkpt><trkpt lat="43.72962239213218" lon="10.72900057019487"><ele>101.0</ele><time>2026-05-02T15:06:24Z</time></trkpt><trkpt lat="43.72959160713644" lon="10.728780715429995"><ele>99.66666666666666</ele><time>2026-05-02T15:06:25Z</time></trkpt><trkpt lat="43.72957545960161" lon="10.728557349282946"><ele>98.33333333333334</ele><time>2026-05-02T15:06:26Z</time></trkpt><trkpt lat="43.72960023575499" lon="10.72830730990157"><ele>97.0</ele><time>2026-05-02T15:06:27Z</time></trkpt><trkpt lat="43.72959903484265" lon="10.728053770586465"><ele>97.0</ele><time>2026-05-02T15:06:28Z</time></trkpt><trkpt lat="43.72961510191226" lon="10.727810156547998"><ele>97.0</ele><time>2026-05-02T15:06:29Z</time></trkpt><trkpt lat="43.72962293679243" lon="10.727577446773648"><ele>97.0</ele><time>2026-05-02T15:06:30Z</time></trkpt><trkpt lat="43.72963147510278" lon="10.72732834640346"><ele>95.0</ele><time>2026-05-02T15:06:31Z</time></trkpt><trkpt lat="43.72957855850124" lon="10.727124806453896"><ele>93.0</ele><time>2026-05-02T15:06:32Z</time></trkpt><trkpt lat="43.72949944003694" lon="10.726937063185261"><ele>91.0</ele><time>2026-05-02T15:06:33Z</time></trkpt><trkpt lat="43.72942654541173" lon="10.726762812436386"><ele>89.33333333333333</ele><time>2026-05-02T15:06:34Z</time></trkpt><trkpt lat="43.72932000559965" lon="10.726613536831081"><ele>87.66666666666667</ele><time>2026-05-02T15:06:35Z</time></trkpt><trkpt lat="43.729186245023264" lon="10.726497557264013"><ele>86.0</ele><time>2026-05-02T15:06:36Z</time></trkpt><trkpt lat="43.729037947824295" lon="10.726476949496673"><ele>86.0</ele><time>2026-05-02T15:06:37Z</time></trkpt><trkpt lat="43.72887924457061" lon="10.726439807610388"><ele>86.0</ele><time>2026-05-02T15:06:38Z</time></trkpt><trkpt lat="43.728733302690515" lon="10.726443536787938"><ele>86.0</ele><time>2026-05-02T15:06:39Z</time></trkpt><trkpt lat="43.72857493125004" lon="10.72643549721046"><ele>84.66666666666667</ele><time>2026-05-02T15:06:40Z</time></trkpt><trkpt lat="43.72840931303515" lon="10.726427254584106"><ele>83.33333333333333</ele><time>2026-05-02T15:06:41Z</time></trkpt><trkpt lat="43.72824301889501" lon="10.72642568784881"><ele>82.0</ele><time>2026-05-02T15:06:42Z</time></trkpt><trkpt lat="43.72806991651865" lon="10.726422647612043"><ele>82.0</ele><time>2026-05-02T15:06:43Z</time></trkpt><trkpt lat="43.727869237955225" lon="10.726440493130037"><ele>82.0</ele><time>2026-05-02T15:06:44Z</time></trkpt><trkpt lat="43.727632094364594" lon="10.726501911419673"><ele>82.0</ele><time>2026-05-02T15:06:45Z</time></trkpt><trkpt lat="43.727375758839855" lon="10.72657300631881"><ele>81.0</ele><time>2026-05-02T15:06:46Z</time></trkpt><trkpt lat="43.727109216162845" lon="10.726664449364526"><ele>80.0</ele><time>2026-05-02T15:06:47Z</time></trkpt><trkpt lat="43.7268436967751" lon="10.72672525232819"><ele>80.0</ele><time>2026-05-02T15:06:48Z</time></trkpt><trkpt lat="43.72658482656329" lon="10.726801630490733"><ele>80.0</ele><time>2026-05-02T15:06:49Z</time></trkpt><trkpt lat="43.726348591555585" lon="10.726873994501068"><ele>82.0</ele><time>2026-05-02T15:06:50Z</time></trkpt><trkpt lat="43.726123047941606" lon="10.72693150266356"><ele>84.0</ele><time>2026-05-02T15:06:51Z</time></trkpt><trkpt lat="43.72591041236782" lon="10.726987690073454"><ele>86.0</ele><time>2026-05-02T15:06:52Z</time></trkpt><trkpt lat="43.72570680473037" lon="10.727036096048073"><ele>86.66666666666667</ele><time>2026-05-02T15:06:53Z</time></trkpt><trkpt lat="43.725511848037165" lon="10.727085846698635"><ele>87.33333333333333</ele><time>2026-05-02T15:06:54Z</time></trkpt><trkpt lat="43.72532767759702" lon="10.727129473717572"><ele>88.0</ele><time>2026-05-02T15:06:55Z</time></trkpt><trkpt lat="43.725149349174295" lon="10.727219190167697"><ele>84.0</ele><time>2026-05-02T15:06:56Z</time></trkpt><trkpt lat="43.725005284638826" lon="10.727372007581264"><ele>80.0</ele><time>2026-05-02T15:06:57Z</time></trkpt><trkpt lat="43.724896206784585" lon="10.727597787254112"><ele>76.0</ele><time>2026-05-02T15:06:58Z</time></trkpt><trkpt lat="43.72482674513951" lon="10.727848216511063"><ele>75.66666666666666</ele><time>2026-05-02T15:06:59Z</time></trkpt><trkpt lat="43.72477405502674" lon="10.728116094144891"><ele>75.33333333333333</ele><time>2026-05-02T15:07:00Z</time></trkpt><trkpt lat="43.72473223578707" lon="10.728378026196381"><ele>75.0</ele><time>2026-05-02T15:07:01Z</time></trkpt><trkpt lat="43.72470768769636" lon="10.728631942953387"><ele>74.33333333333333</ele><time>2026-05-02T15:07:02Z</time></trkpt><trkpt lat="43.7246738158518" lon="10.728875488246548"><ele>73.66666666666666</ele><time>2026-05-02T15:07:03Z</time></trkpt><trkpt lat="43.72466579013159" lon="10.72911681997332"><ele>73.0</ele><time>2026-05-02T15:07:04Z</time></trkpt><trkpt lat="43.72470312293532" lon="10.729357198380072"><ele>67.0</ele><time>2026-05-02T15:07:05Z</time></trkpt><trkpt lat="43.724815197273166" lon="10.729571550914457"><ele>61.0</ele><time>2026-05-02T15:07:06Z</time></trkpt><trkpt lat="43.72497710200192" lon="10.729762885586222"><ele>55.0</ele><time>2026-05-02T15:07:07Z</time></trkpt><trkpt lat="43.72517461842302" lon="10.729925645431841"><ele>54.33333333333333</ele><time>2026-05-02T15:07:08Z</time></trkpt><trkpt lat="43.72535110631703" lon="10.730116802294088"><ele>53.66666666666667</ele><time>2026-05-02T15:07:09Z</time></trkpt><trkpt lat="43.72551912074942" lon="10.73029741515685"><ele>53.0</ele><time>2026-05-02T15:07:10Z</time></trkpt><trkpt lat="43.72567904451428" lon="10.73047106333406"><ele>53.0</ele><time>2026-05-02T15:07:11Z</time></trkpt><trkpt lat="43.72583186765292" lon="10.730640590805235"><ele>53.0</ele><time>2026-05-02T15:07:12Z</time></trkpt><trkpt lat="43.72597119002234" lon="10.73078016964215"><ele>53.0</ele><time>2026-05-02T15:07:13Z</time></trkpt><trkpt lat="43.72607205526016" lon="10.730953718463745"><ele>58.5</ele><time>2026-05-02T15:07:14Z</time></trkpt><trkpt lat="43.72614805584756" lon="10.731121090894653"><ele>64.0</ele><time>2026-05-02T15:07:15Z</time></trkpt><trkpt lat="43.72619676000211" lon="10.73128183852847"><ele>69.5</ele><time>2026-05-02T15:07:16Z</time></trkpt><trkpt lat="43.726205120064584" lon="10.731447829984338"><ele>75.0</ele><time>2026-05-02T15:07:17Z</time></trkpt><trkpt lat="43.72615839897376" lon="10.731592228102238"><ele>68.5</ele><time>2026-05-02T15:07:18Z</time></trkpt><trkpt lat="43.72605842777397" lon="10.731696758780588"><ele>62.0</ele><time>2026-05-02T15:07:19Z</time></trkpt><trkpt lat="43.725947455639925" lon="10.731714382166054"><ele>55.5</ele><time>2026-05-02T15:07:20Z</time></trkpt><trkpt lat="43.72586557746772" lon="10.731683862898452"><ele>49.0</ele><time>2026-05-02T15:07:21Z</time></trkpt><trkpt lat="43.72571799537366" lon="10.731581276996637"><ele>49.0</ele><time>2026-05-02T15:07:22Z</time></trkpt><trkpt lat="43.725535400336355" lon="10.731485964412109"><ele>49.0</ele><time>2026-05-02T15:07:23Z</time></trkpt><trkpt lat="43.72535147976325" lon="10.7314425776337"><ele>49.0</ele><time>2026-05-02T15:07:24Z</time></trkpt><trkpt lat="43.725156932779605" lon="10.731407101598554"><ele>46.0</ele><time>2026-05-02T15:07:25Z</time></trkpt><trkpt lat="43.72496030019501" lon="10.731412286412741"><ele>43.0</ele><time>2026-05-02T15:07:26Z</time></trkpt><trkpt lat="43.72474785129303" lon="10.731443944583939"><ele>40.0</ele><time>2026-05-02T15:07:26.999Z</time></trkpt><trkpt lat="43.72452971869509" lon="10.731475447394434"><ele>35.333333333333336</ele><time>2026-05-02T15:07:27.999Z</time></trkpt><trkpt lat="43.72431228887318" lon="10.7314948766071"><ele>30.666666666666664</ele><time>2026-05-02T15:07:28.999Z</time></trkpt><trkpt lat="43.72408771638519" lon="10.731515636081538"><ele>26.0</ele><time>2026-05-02T15:07:29.999Z</time></trkpt><trkpt lat="43.72386763629344" lon="10.731542696875206"><ele>26.0</ele><time>2026-05-02T15:07:30.999Z</time></trkpt><trkpt lat="43.72364420009684" lon="10.731565150203613"><ele>26.0</ele><time>2026-05-02T15:07:31.999Z</time></trkpt><trkpt lat="43.72342082609392" lon="10.731613763876258"><ele>21.5</ele><time>2026-05-02T15:07:32.999Z</time></trkpt><trkpt lat="43.72319356816334" lon="10.731692286174034"><ele>17.0</ele><time>2026-05-02T15:07:33.999Z</time></trkpt><trkpt lat="43.72296100827723" lon="10.731809133215961"><ele>17.0</ele><time>2026-05-02T15:07:34.999Z</time></trkpt><trkpt lat="43.722738326592186" lon="10.731950308187276"><ele>17.0</ele><time>2026-05-02T15:07:35.999Z</time></trkpt><trkpt lat="43.72252332537072" lon="10.732115218345388"><ele>15.5</ele><time>2026-05-02T15:07:36.999Z</time></trkpt><trkpt lat="43.72231775764413" lon="10.73228043873933"><ele>14.0</ele><time>2026-05-02T15:07:37.999Z</time></trkpt><trkpt lat="43.722108362452126" lon="10.732457833885874"><ele>14.0</ele><time>2026-05-02T15:07:38.999Z</time></trkpt><trkpt lat="43.72189581340756" lon="10.73262868402057"><ele>14.0</ele><time>2026-05-02T15:07:39.999Z</time></trkpt><trkpt lat="43.72168883724896" lon="10.73282240647714"><ele>13.0</ele><time>2026-05-02T15:07:40.999Z</time></trkpt><trkpt lat="43.721481916780775" lon="10.733024402689635"><ele>12.0</ele><time>2026-05-02T15:07:41.999Z</time></trkpt><trkpt lat="43.721266516337394" lon="10.733224768781692"><ele>12.5</ele><time>2026-05-02T15:07:42.999Z</time></trkpt><trkpt lat="43.72105624474084" lon="10.73342531832123"><ele>13.0</ele><time>2026-05-02T15:07:43.999Z</time></trkpt><trkpt lat="43.72084915230513" lon="10.733622835572788"><ele>13.0</ele><time>2026-05-02T15:07:44.999Z</time></trkpt><trkpt lat="43.720638172758875" lon="10.733823806176712"><ele>13.0</ele><time>2026-05-02T15:07:45.999Z</time></trkpt><trkpt lat="43.72042838256899" lon="10.73402383871982"><ele>13.0</ele><time>2026-05-02T15:07:46.999Z</time></trkpt><trkpt lat="43.720222231109396" lon="10.734217964821815"><ele>13.0</ele><time>2026-05-02T15:07:47.999Z</time></trkpt><trkpt lat="43.720024701265345" lon="10.734406787607659"><ele>13.333333333333332</ele><time>2026-05-02T15:07:48.999Z</time></trkpt><trkpt lat="43.719843324878966" lon="10.734581194361608"><ele>13.666666666666668</ele><time>2026-05-02T15:07:49.999Z</time></trkpt><trkpt lat="43.7196664110258" lon="10.73475470823051"><ele>14.0</ele><time>2026-05-02T15:07:50.999Z</time></trkpt><trkpt lat="43.71950842830758" lon="10.73493736075226"><ele>14.0</ele><time>2026-05-02T15:07:51.999Z</time></trkpt><trkpt lat="43.71934721149061" lon="10.73508969123256"><ele>14.0</ele><time>2026-05-02T15:07:52.999Z</time></trkpt><trkpt lat="43.719201868958415" lon="10.735224921628085"><ele>14.0</ele><time>2026-05-02T15:07:53.999Z</time></trkpt><trkpt lat="43.719072709513036" lon="10.735347107435306"><ele>13.75</ele><time>2026-05-02T15:07:54.999Z</time></trkpt><trkpt lat="43.71895623237305" lon="10.735464484648599"><ele>13.5</ele><time>2026-05-02T15:07:55.999Z</time></trkpt><trkpt lat="43.71885374324156" lon="10.73555632590469"><ele>13.25</ele><time>2026-05-02T15:07:56.999Z</time></trkpt><trkpt lat="43.71876451477721" lon="10.735615260003433"><ele>13.0</ele><time>2026-05-02T15:07:57.999Z</time></trkpt><trkpt lat="43.71867970267969" lon="10.735630169178021"><ele>13.0</ele><time>2026-05-02T15:07:58.999Z</time></trkpt><trkpt lat="43.718583721694046" lon="10.735616952143676"><ele>13.0</ele><time>2026-05-02T15:07:59.999Z</time></trkpt><trkpt lat="43.71848895526384" lon="10.735601482155463"><ele>13.0</ele><time>2026-05-02T15:08:00.999Z</time></trkpt><trkpt lat="43.71841374943292" lon="10.735620669856708"><ele>13.0</ele><time>2026-05-02T15:08:01.999Z</time></trkpt><trkpt lat="43.71836269471014" lon="10.735693290864333"><ele>13.0</ele><time>2026-05-02T15:08:02.999Z</time></trkpt><trkpt lat="43.71830760929984" lon="10.735824137883535"><ele>13.0</ele><time>2026-05-02T15:08:03.999Z</time></trkpt><trkpt lat="43.7182427110565" lon="10.735992823328504"><ele>13.0</ele><time>2026-05-02T15:08:04.999Z</time></trkpt><trkpt lat="43.7181312324281" lon="10.736150226128524"><ele>13.0</ele><time>2026-05-02T15:08:05.999Z</time></trkpt><trkpt lat="43.71796878308491" lon="10.73625359626482"><ele>13.0</ele><time>2026-05-02T15:08:06.999Z</time></trkpt><trkpt lat="43.71778133807611" lon="10.736323412248609"><ele>13.0</ele><time>2026-05-02T15:08:07.999Z</time></trkpt><trkpt lat="43.71758960930699" lon="10.736413427220342"><ele>13.0</ele><time>2026-05-02T15:08:08.999Z</time></trkpt><trkpt lat="43.717395420186364" lon="10.736527721521494"><ele>12.0</ele><time>2026-05-02T15:08:09.999Z</time></trkpt><trkpt lat="43.71718422268731" lon="10.73662569748572"><ele>11.0</ele><time>2026-05-02T15:08:10.999Z</time></trkpt><trkpt lat="43.7169615389391" lon="10.736708300603688"><ele>11.0</ele><time>2026-05-02T15:08:11.999Z</time></trkpt><trkpt lat="43.71673916711373" lon="10.736812513660642"><ele>11.0</ele><time>2026-05-02T15:08:12.999Z</time></trkpt><trkpt lat="43.71651576327206" lon="10.73694067213913"><ele>11.5</ele><time>2026-05-02T15:08:13.999Z</time></trkpt><trkpt lat="43.71628280667478" lon="10.737048293351132"><ele>12.0</ele><time>2026-05-02T15:08:14.999Z</time></trkpt><trkpt lat="43.71604924577357" lon="10.73715531864179"><ele>12.5</ele><time>2026-05-02T15:08:15.999Z</time></trkpt><trkpt lat="43.715814317765506" lon="10.7372666291573"><ele>13.0</ele><time>2026-05-02T15:08:17Z</time></trkpt><trkpt lat="43.71558064743846" lon="10.737374771251613"><ele>13.0</ele><time>2026-05-02T15:08:18Z</time></trkpt><trkpt lat="43.715342747503655" lon="10.737461292720601"><ele>13.0</ele><time>2026-05-02T15:08:19Z</time></trkpt><trkpt lat="43.715111905683464" lon="10.737567968138679"><ele>12.5</ele><time>2026-05-02T15:08:20Z</time></trkpt><trkpt lat="43.71488395447542" lon="10.737673988385554"><ele>12.0</ele><time>2026-05-02T15:08:21Z</time></trkpt><trkpt lat="43.714661429055994" lon="10.737777670391852"><ele>12.333333333333332</ele><time>2026-05-02T15:08:22Z</time></trkpt><trkpt lat="43.71444703658784" lon="10.737877563098671"><ele>12.666666666666666</ele><time>2026-05-02T15:08:23Z</time></trkpt><trkpt lat="43.71423771628644" lon="10.737972722577224"><ele>13.0</ele><time>2026-05-02T15:08:24Z</time></trkpt><trkpt lat="43.71402975600781" lon="10.73807048698246"><ele>13.0</ele><time>2026-05-02T15:08:25Z</time></trkpt><trkpt lat="43.71382636128793" lon="10.738165313657436"><ele>13.0</ele><time>2026-05-02T15:08:26Z</time></trkpt><trkpt lat="43.71362581542778" lon="10.738258812107526"><ele>13.0</ele><time>2026-05-02T15:08:27Z</time></trkpt><trkpt lat="43.71342735740933" lon="10.73835239533562"><ele>13.0</ele><time>2026-05-02T15:08:28Z</time></trkpt><trkpt lat="43.713219067169604" lon="10.738448661948153"><ele>13.0</ele><time>2026-05-02T15:08:29Z</time></trkpt><trkpt lat="43.71301040674096" lon="10.738545745946247"><ele>13.0</ele><time>2026-05-02T15:08:30Z</time></trkpt><trkpt lat="43.71280007627561" lon="10.738643883347008"><ele>13.0</ele><time>2026-05-02T15:08:31Z</time></trkpt><trkpt lat="43.71258806417615" lon="10.73874280536997"><ele>13.0</ele><time>2026-05-02T15:08:32Z</time></trkpt><trkpt lat="43.712371732254894" lon="10.738843742955032"><ele>13.0</ele><time>2026-05-02T15:08:33Z</time></trkpt><trkpt lat="43.712157146356056" lon="10.738943865884178"><ele>13.0</ele><time>2026-05-02T15:08:34Z</time></trkpt><trkpt lat="43.711937762227514" lon="10.739046118068293"><ele>13.5</ele><time>2026-05-02T15:08:35Z</time></trkpt><trkpt lat="43.71171953900034" lon="10.73914627066841"><ele>14.0</ele><time>2026-05-02T15:08:36Z</time></trkpt><trkpt lat="43.71150091702318" lon="10.739246994576604"><ele>14.0</ele><time>2026-05-02T15:08:37Z</time></trkpt><trkpt lat="43.711283413745925" lon="10.73934852947594"><ele>14.0</ele><time>2026-05-02T15:08:38Z</time></trkpt><trkpt lat="43.711063841486364" lon="10.739451313605162"><ele>13.5</ele><time>2026-05-02T15:08:39Z</time></trkpt><trkpt lat="43.710851402968935" lon="10.739550760160357"><ele>13.0</ele><time>2026-05-02T15:08:40Z</time></trkpt><trkpt lat="43.71063185663712" lon="10.73965418918272"><ele>13.0</ele><time>2026-05-02T15:08:41Z</time></trkpt><trkpt lat="43.71041056138823" lon="10.739756216055897"><ele>13.0</ele><time>2026-05-02T15:08:42Z</time></trkpt><trkpt lat="43.7101973030152" lon="10.739854537555404"><ele>13.5</ele><time>2026-05-02T15:08:43Z</time></trkpt><trkpt lat="43.709979761321215" lon="10.739954616521947"><ele>14.0</ele><time>2026-05-02T15:08:44Z</time></trkpt><trkpt lat="43.70976517966935" lon="10.740053053864855"><ele>14.0</ele><time>2026-05-02T15:08:45Z</time></trkpt><trkpt lat="43.70955052328311" lon="10.740151525416042"><ele>14.0</ele><time>2026-05-02T15:08:46Z</time></trkpt><trkpt lat="43.709336921665475" lon="10.740249513119434"><ele>13.666666666666668</ele><time>2026-05-02T15:08:47Z</time></trkpt><trkpt lat="43.70912137451581" lon="10.740348566046794"><ele>13.333333333333332</ele><time>2026-05-02T15:08:48Z</time></trkpt><trkpt lat="43.708910872881006" lon="10.74044627746311"><ele>13.0</ele><time>2026-05-02T15:08:49Z</time></trkpt><trkpt lat="43.70869979373362" lon="10.740544256725721"><ele>13.0</ele><time>2026-05-02T15:08:50Z</time></trkpt><trkpt lat="43.708492454100494" lon="10.740639859931191"><ele>13.0</ele><time>2026-05-02T15:08:51Z</time></trkpt><trkpt lat="43.70828397757583" lon="10.740735994974836"><ele>13.0</ele><time>2026-05-02T15:08:52Z</time></trkpt><trkpt lat="43.70807313419711" lon="10.74083322142757"><ele>13.0</ele><time>2026-05-02T15:08:53Z</time></trkpt><trkpt lat="43.70787129618051" lon="10.74092629516743"><ele>13.0</ele><time>2026-05-02T15:08:54Z</time></trkpt><trkpt lat="43.70767889725317" lon="10.74101501635771"><ele>13.0</ele><time>2026-05-02T15:08:55Z</time></trkpt><trkpt lat="43.7074938568929" lon="10.741101279256737"><ele>13.333333333333332</ele><time>2026-05-02T15:08:56Z</time></trkpt><trkpt lat="43.70730636528996" lon="10.741184184647512"><ele>13.666666666666668</ele><time>2026-05-02T15:08:57Z</time></trkpt><trkpt lat="43.7071179607093" lon="10.741269197550794"><ele>14.0</ele><time>2026-05-02T15:08:58Z</time></trkpt><trkpt lat="43.70692625667396" lon="10.741355699471432"><ele>14.333333333333334</ele><time>2026-05-02T15:08:59Z</time></trkpt><trkpt lat="43.70673009117924" lon="10.741444656959306"><ele>14.666666666666668</ele><time>2026-05-02T15:09:00Z</time></trkpt><trkpt lat="43.70653512982797" lon="10.741537494491293"><ele>15.0</ele><time>2026-05-02T15:09:01Z</time></trkpt><trkpt lat="43.70634202773515" lon="10.7416294467103"><ele>15.0</ele><time>2026-05-02T15:09:02Z</time></trkpt><trkpt lat="43.70615530212689" lon="10.741741732953052"><ele>15.0</ele><time>2026-05-02T15:09:03Z</time></trkpt><trkpt lat="43.70596545251408" lon="10.741827019367134"><ele>15.0</ele><time>2026-05-02T15:09:04Z</time></trkpt><trkpt lat="43.705775686812636" lon="10.741914687676712"><ele>15.0</ele><time>2026-05-02T15:09:05Z</time></trkpt><trkpt lat="43.70558545826647" lon="10.742005402593566"><ele>15.0</ele><time>2026-05-02T15:09:06Z</time></trkpt><trkpt lat="43.70539756616521" lon="10.742092971429868"><ele>15.0</ele><time>2026-05-02T15:09:07Z</time></trkpt><trkpt lat="43.70520411630073" lon="10.74217722364524"><ele>15.0</ele><time>2026-05-02T15:09:08Z</time></trkpt><trkpt lat="43.70501204451782" lon="10.742265621277884"><ele>15.0</ele><time>2026-05-02T15:09:09Z</time></trkpt><trkpt lat="43.70482559481047" lon="10.742353589161016"><ele>15.0</ele><time>2026-05-02T15:09:10Z</time></trkpt><trkpt lat="43.70464021012696" lon="10.742440553481858"><ele>15.0</ele><time>2026-05-02T15:09:11Z</time></trkpt><trkpt lat="43.7044730124474" lon="10.742516700365384"><ele>15.0</ele><time>2026-05-02T15:09:11.999Z</time></trkpt><trkpt lat="43.7043083293035" lon="10.74259146928169"><ele>15.0</ele><time>2026-05-02T15:09:12.999Z</time></trkpt><trkpt lat="43.70415631186034" lon="10.742662635483473"><ele>15.0</ele><time>2026-05-02T15:09:13.999Z</time></trkpt><trkpt lat="43.704006151511976" lon="10.742730475828782"><ele>15.0</ele><time>2026-05-02T15:09:14.999Z</time></trkpt><trkpt lat="43.70386573179948" lon="10.742794280282677"><ele>15.0</ele><time>2026-05-02T15:09:15.999Z</time></trkpt><trkpt lat="43.703729428054814" lon="10.742856003675568"><ele>15.0</ele><time>2026-05-02T15:09:16.999Z</time></trkpt><trkpt lat="43.7035980931543" lon="10.742914585275843"><ele>14.75</ele><time>2026-05-02T15:09:17.999Z</time></trkpt><trkpt lat="43.70348002225879" lon="10.742971877017219"><ele>14.5</ele><time>2026-05-02T15:09:18.999Z</time></trkpt><trkpt lat="43.70336699271025" lon="10.743027297227012"><ele>14.25</ele><time>2026-05-02T15:09:19.999Z</time></trkpt><trkpt lat="43.70324495179014" lon="10.743079953262999"><ele>14.0</ele><time>2026-05-02T15:09:20.999Z</time></trkpt><trkpt lat="43.70311523090007" lon="10.743132698018083"><ele>14.0</ele><time>2026-05-02T15:09:21.999Z</time></trkpt><trkpt lat="43.70298910758204" lon="10.74318407686509"><ele>14.0</ele><time>2026-05-02T15:09:22.999Z</time></trkpt><trkpt lat="43.70287416830762" lon="10.743238242326695"><ele>14.0</ele><time>2026-05-02T15:09:23.999Z</time></trkpt><trkpt lat="43.702754758912114" lon="10.743291380355771"><ele>14.0</ele><time>2026-05-02T15:09:24.999Z</time></trkpt><trkpt lat="43.70263669299285" lon="10.743352140645264"><ele>14.0</ele><time>2026-05-02T15:09:25.999Z</time></trkpt><trkpt lat="43.702525768924026" lon="10.743408202881803"><ele>13.999999999999998</ele><time>2026-05-02T15:09:26.999Z</time></trkpt><trkpt lat="43.702425127037465" lon="10.743453430710831"><ele>13.999999999999998</ele><time>2026-05-02T15:09:27.999Z</time></trkpt><trkpt lat="43.702342737967534" lon="10.743489247109945"><ele>14.0</ele><time>2026-05-02T15:09:28.999Z</time></trkpt><trkpt lat="43.702269119581125" lon="10.743520370995922"><ele>14.0</ele><time>2026-05-02T15:09:29.999Z</time></trkpt><trkpt lat="43.702166381115774" lon="10.7435645402619"><ele>14.166666666666668</ele><time>2026-05-02T15:09:31.999Z</time></trkpt><trkpt lat="43.702097757150696" lon="10.743587394861573"><ele>14.333333333333334</ele><time>2026-05-02T15:09:34.999Z</time></trkpt><trkpt lat="43.7020199481766" lon="10.74360491383073"><ele>14.5</ele><time>2026-05-02T15:09:36.999Z</time></trkpt><trkpt lat="43.70190163931421" lon="10.743627151067878"><ele>14.666666666666668</ele><time>2026-05-02T15:09:38.999Z</time></trkpt><trkpt lat="43.70184004009852" lon="10.743684697365405"><ele>14.833333333333334</ele><time>2026-05-02T15:09:39.999Z</time></trkpt><trkpt lat="43.701769147668095" lon="10.743769224895455"><ele>15.0</ele><time>2026-05-02T15:09:40.999Z</time></trkpt><trkpt lat="43.7016757354445" lon="10.743834525311579"><ele>15.2</ele><time>2026-05-02T15:09:41.999Z</time></trkpt><trkpt lat="43.701569322394285" lon="10.743840361663997"><ele>15.4</ele><time>2026-05-02T15:09:42.999Z</time></trkpt><trkpt lat="43.70147220505132" lon="10.743901360860852"><ele>15.600000000000001</ele><time>2026-05-02T15:09:43.999Z</time></trkpt><trkpt lat="43.7013603124961" lon="10.74395109573675"><ele>15.8</ele><time>2026-05-02T15:09:44.999Z</time></trkpt><trkpt lat="43.70124905231314" lon="10.744005712309532"><ele>16.0</ele><time>2026-05-02T15:09:45.999Z</time></trkpt><trkpt lat="43.701134917695846" lon="10.744063831526487"><ele>16.400000000000002</ele><time>2026-05-02T15:09:46.999Z</time></trkpt><trkpt lat="43.701027923629766" lon="10.744118034784046"><ele>16.8</ele><time>2026-05-02T15:09:47.999Z</time></trkpt><trkpt lat="43.70093901968065" lon="10.74416338767225"><ele>17.200000000000003</ele><time>2026-05-02T15:09:48.999Z</time></trkpt><trkpt lat="43.700858244846124" lon="10.744186112266297"><ele>17.6</ele><time>2026-05-02T15:09:50.999Z</time></trkpt><trkpt lat="43.700782628187596" lon="10.744206946955492"><ele>18.0</ele><time>2026-05-02T15:09:53.999Z</time></trkpt><trkpt lat="43.70069932853028" lon="10.743925789976874"><ele>18.0</ele><time>2026-05-02T15:09:55.999Z</time></trkpt><trkpt lat="43.70067591388874" lon="10.743834261013458"><ele>18.0</ele><time>2026-05-02T15:09:56.999Z</time></trkpt><trkpt lat="43.70074380118325" lon="10.743725444242244"><ele>18.0</ele><time>2026-05-02T15:09:57.999Z</time></trkpt><trkpt lat="43.70075267416365" lon="10.74357007556319"><ele>18.0</ele><time>2026-05-02T15:09:59.999Z</time></trkpt><trkpt lat="43.7007176525469" lon="10.74341852989586"><ele>18.0</ele><time>2026-05-02T15:10:00.999Z</time></trkpt><trkpt lat="43.700685175827104" lon="10.743294621325461"><ele>18.0</ele><time>2026-05-02T15:10:01.999Z</time></trkpt><trkpt lat="43.70065696501771" lon="10.743148532558397"><ele>18.0</ele><time>2026-05-02T15:10:02.999Z</time></trkpt><trkpt lat="43.700632425132305" lon="10.743026691887163"><ele>18.0</ele><time>2026-05-02T15:10:03.999Z</time></trkpt><trkpt lat="43.70061994265768" lon="10.742918595814295"><ele>18.0</ele><time>2026-05-02T15:10:04.999Z</time></trkpt><trkpt lat="43.70057845545944" lon="10.742773699552526"><ele>18.0</ele><time>2026-05-02T15:10:06.999Z</time></trkpt><trkpt lat="43.70046357317305" lon="10.742727231419202"><ele>18.0</ele><time>2026-05-02T15:10:08.999Z</time></trkpt><trkpt lat="43.700378662589436" lon="10.74281860709604"><ele>18.0</ele><time>2026-05-02T15:10:09.999Z</time></trkpt><trkpt lat="43.70029599724426" lon="10.742875692953762"><ele>18.0</ele><time>2026-05-02T15:10:10.999Z</time></trkpt><trkpt lat="43.70018315688121" lon="10.742931665379404"><ele>19.0</ele><time>2026-05-02T15:10:11.999Z</time></trkpt><trkpt lat="43.70008865262189" lon="10.743017350984008"><ele>19.0</ele><time>2026-05-02T15:10:13.999Z</time></trkpt></trkseg></trk></gpx>